<?xml version='1.0' encoding='UTF-8'?>
<gpx version="1.1" xmlns="http://www.topografix.com/GPX/1/1" xmlns:xsi="http://www.w3.org/2001/XMLSchema-instance" xsi:schemaLocation="http://www.topografix.com/GPX/1/1 http://www.topografix.com/GPX/1/1/gpx.xsd">
  <metadata>
    <name>PDTB Retour v2025-06-25T12_05</name>
    <author>
      <link href="https://www.vcneuilly92.fr">
        <text>VCN92</text>
        <type>text/html</type>
      </link>
    </author>
  </metadata>
  <wpt lat="47.61274342936005" lon="-2.8357576613769453">
    <name>CP6 : Pointe d'Arradon</name>
    <cmt>viewpoint</cmt>
    <sym>Dot</sym>
    <type>overlook</type>
  </wpt>
  <wpt lat="48.0084620489299" lon="0.1989781217040898">
    <name>CP8 : Cathédrale du Mans</name>
    <cmt>viewpoint</cmt>
    <sym>Dot</sym>
    <type>overlook</type>
  </wpt>
  <wpt lat="48.18665334098801" lon="0.6508587399158383">
    <name>CP9 : Porte Saint Julien de La Ferté-Bernard</name>
    <cmt>viewpoint</cmt>
    <sym>Dot</sym>
    <type>overlook</type>
  </wpt>
  <wpt lat="48.44730016301576" lon="1.4870854718103388">
    <name>CP10 : Cathédrale Notre-Dame de Chartres</name>
    <cmt>viewpoint</cmt>
    <sym>Dot</sym>
    <type>overlook</type>
  </wpt>
  <wpt lat="47.718862778983556" lon="-1.3731537943011762">
    <name>CP7 : Château de Châteaubriant</name>
    <cmt>viewpoint</cmt>
    <sym>Dot</sym>
    <type>overlook</type>
  </wpt>
  <trk>
    <name>PDTB Retour v2025-06-25T12_05</name>
    <trkseg>
      <trkpt lat="47.647418" lon="-3.082286">
        <ele>34.690798</ele>
        <time>2025-06-25T10:08:50.002Z</time>
      </trkpt>
      <trkpt lat="47.647701" lon="-3.081980">
        <ele>34.690798</ele>
        <time>2025-06-25T10:08:55.641Z</time>
      </trkpt>
      <trkpt lat="47.647827" lon="-3.081813">
        <ele>34.690798</ele>
        <time>2025-06-25T10:08:58.304Z</time>
      </trkpt>
      <trkpt lat="47.648075" lon="-3.081382">
        <ele>34.690995</ele>
        <time>2025-06-25T10:09:04.325Z</time>
      </trkpt>
      <trkpt lat="47.648351" lon="-3.080730">
        <ele>34.755914</ele>
        <time>2025-06-25T10:09:12.397Z</time>
      </trkpt>
      <trkpt lat="47.648764" lon="-3.079568">
        <ele>34.866678</ele>
        <time>2025-06-25T10:09:25.987Z</time>
      </trkpt>
      <trkpt lat="47.648856" lon="-3.079189">
        <ele>34.900641</ele>
        <time>2025-06-25T10:09:30.348Z</time>
      </trkpt>
      <trkpt lat="47.648997" lon="-3.078416">
        <ele>34.544780</ele>
        <time>2025-06-25T10:09:38.125Z</time>
      </trkpt>
      <trkpt lat="47.649045" lon="-3.078159">
        <ele>34.385138</ele>
        <time>2025-06-25T10:09:40.526Z</time>
      </trkpt>
      <trkpt lat="47.649180" lon="-3.077586">
        <ele>34.021774</ele>
        <time>2025-06-25T10:09:45.777Z</time>
      </trkpt>
      <trkpt lat="47.649259" lon="-3.077301">
        <ele>33.837298</ele>
        <time>2025-06-25T10:09:48.265Z</time>
      </trkpt>
      <trkpt lat="47.649655" lon="-3.075857">
        <ele>32.375729</ele>
        <time>2025-06-25T10:10:00.090Z</time>
      </trkpt>
      <trkpt lat="47.650036" lon="-3.074500">
        <ele>30.371706</ele>
        <time>2025-06-25T10:10:11.106Z</time>
      </trkpt>
      <trkpt lat="47.650288" lon="-3.073487">
        <ele>28.777785</ele>
        <time>2025-06-25T10:10:18.657Z</time>
      </trkpt>
      <trkpt lat="47.650329" lon="-3.073080">
        <ele>28.128964</ele>
        <time>2025-06-25T10:10:21.554Z</time>
      </trkpt>
      <trkpt lat="47.650321" lon="-3.072808">
        <ele>27.699714</ele>
        <time>2025-06-25T10:10:23.487Z</time>
      </trkpt>
      <trkpt lat="47.650359" lon="-3.072400">
        <ele>27.050332</ele>
        <time>2025-06-25T10:10:26.439Z</time>
      </trkpt>
      <trkpt lat="47.650329" lon="-3.072374">
        <ele>26.969030</ele>
        <time>2025-06-25T10:10:26.818Z</time>
      </trkpt>
      <trkpt lat="47.650341" lon="-3.072302">
        <ele>26.852090</ele>
        <time>2025-06-25T10:10:27.351Z</time>
      </trkpt>
      <trkpt lat="47.650359" lon="-3.072295">
        <ele>26.808541</ele>
        <time>2025-06-25T10:10:27.555Z</time>
      </trkpt>
      <trkpt lat="47.650419" lon="-3.072262">
        <ele>26.658788</ele>
        <time>2025-06-25T10:10:28.259Z</time>
      </trkpt>
      <trkpt lat="47.650454" lon="-3.072232">
        <ele>26.564199</ele>
        <time>2025-06-25T10:10:28.700Z</time>
      </trkpt>
      <trkpt lat="47.650495" lon="-3.071937">
        <ele>26.089300</ele>
        <time>2025-06-25T10:10:30.947Z</time>
      </trkpt>
      <trkpt lat="47.650579" lon="-3.071480">
        <ele>25.362206</ele>
        <time>2025-06-25T10:10:34.457Z</time>
      </trkpt>
      <trkpt lat="47.650682" lon="-3.071112">
        <ele>24.832344</ele>
        <time>2025-06-25T10:10:37.410Z</time>
      </trkpt>
      <trkpt lat="47.650834" lon="-3.070491">
        <ele>23.953824</ele>
        <time>2025-06-25T10:10:42.334Z</time>
      </trkpt>
      <trkpt lat="47.651011" lon="-3.069850">
        <ele>23.032706</ele>
        <time>2025-06-25T10:10:47.451Z</time>
      </trkpt>
      <trkpt lat="47.651213" lon="-3.069176">
        <ele>22.051846</ele>
        <time>2025-06-25T10:10:52.842Z</time>
      </trkpt>
      <trkpt lat="47.651486" lon="-3.068633">
        <ele>21.895446</ele>
        <time>2025-06-25T10:10:57.772Z</time>
      </trkpt>
      <trkpt lat="47.651764" lon="-3.068087">
        <ele>21.868176</ele>
        <time>2025-06-25T10:11:03.591Z</time>
      </trkpt>
      <trkpt lat="47.652003" lon="-3.067636">
        <ele>21.845313</ele>
        <time>2025-06-25T10:11:10.147Z</time>
      </trkpt>
      <trkpt lat="47.652114" lon="-3.067492">
        <ele>21.836594</ele>
        <time>2025-06-25T10:11:12.931Z</time>
      </trkpt>
      <trkpt lat="47.652154" lon="-3.067439">
        <ele>21.833423</ele>
        <time>2025-06-25T10:11:13.997Z</time>
      </trkpt>
      <trkpt lat="47.652242" lon="-3.067326">
        <ele>21.826541</ele>
        <time>2025-06-25T10:11:16.281Z</time>
      </trkpt>
      <trkpt lat="47.652297" lon="-3.067255">
        <ele>21.822230</ele>
        <time>2025-06-25T10:11:17.772Z</time>
      </trkpt>
      <trkpt lat="47.652357" lon="-3.067181">
        <ele>21.817616</ele>
        <time>2025-06-25T10:11:19.362Z</time>
      </trkpt>
      <trkpt lat="47.653066" lon="-3.066215">
        <ele>23.471457</ele>
        <time>2025-06-25T10:11:42.522Z</time>
      </trkpt>
      <trkpt lat="47.653322" lon="-3.065847">
        <ele>24.152378</ele>
        <time>2025-06-25T10:11:51.516Z</time>
      </trkpt>
      <trkpt lat="47.653554" lon="-3.065513">
        <ele>24.769909</ele>
        <time>2025-06-25T10:11:58.949Z</time>
      </trkpt>
      <trkpt lat="47.653809" lon="-3.065158">
        <ele>25.177176</ele>
        <time>2025-06-25T10:12:06.086Z</time>
      </trkpt>
      <trkpt lat="47.653927" lon="-3.064935">
        <ele>25.038561</ele>
        <time>2025-06-25T10:12:09.511Z</time>
      </trkpt>
      <trkpt lat="47.654029" lon="-3.064712">
        <ele>24.906802</ele>
        <time>2025-06-25T10:12:12.467Z</time>
      </trkpt>
      <trkpt lat="47.654274" lon="-3.063930">
        <ele>24.485232</ele>
        <time>2025-06-25T10:12:20.108Z</time>
      </trkpt>
      <trkpt lat="47.654865" lon="-3.060610">
        <ele>21.039941</ele>
        <time>2025-06-25T10:12:45.142Z</time>
      </trkpt>
      <trkpt lat="47.654988" lon="-3.060185">
        <ele>20.589709</ele>
        <time>2025-06-25T10:12:48.958Z</time>
      </trkpt>
      <trkpt lat="47.655782" lon="-3.058626">
        <ele>20.247081</ele>
        <time>2025-06-25T10:13:08.425Z</time>
      </trkpt>
      <trkpt lat="47.656074" lon="-3.058027">
        <ele>20.132782</ele>
        <time>2025-06-25T10:13:15.907Z</time>
      </trkpt>
      <trkpt lat="47.656652" lon="-3.056388">
        <ele>20.007849</ele>
        <time>2025-06-25T10:13:32.902Z</time>
      </trkpt>
      <trkpt lat="47.656930" lon="-3.055904">
        <ele>19.964895</ele>
        <time>2025-06-25T10:13:39.600Z</time>
      </trkpt>
      <trkpt lat="47.657251" lon="-3.055530">
        <ele>20.067652</ele>
        <time>2025-06-25T10:13:46.259Z</time>
      </trkpt>
      <trkpt lat="47.657706" lon="-3.055069">
        <ele>20.220819</ele>
        <time>2025-06-25T10:13:55.466Z</time>
      </trkpt>
      <trkpt lat="47.658382" lon="-3.054412">
        <ele>20.445475</ele>
        <time>2025-06-25T10:14:08.282Z</time>
      </trkpt>
      <trkpt lat="47.658795" lon="-3.053856">
        <ele>20.558596</ele>
        <time>2025-06-25T10:14:16.525Z</time>
      </trkpt>
      <trkpt lat="47.661618" lon="-3.050151">
        <ele>21.377890</ele>
        <time>2025-06-25T10:15:15.980Z</time>
      </trkpt>
      <trkpt lat="47.662723" lon="-3.048671">
        <ele>21.648790</ele>
        <time>2025-06-25T10:15:39.192Z</time>
      </trkpt>
      <trkpt lat="47.663768" lon="-3.047302">
        <ele>21.794229</ele>
        <time>2025-06-25T10:15:59.959Z</time>
      </trkpt>
      <trkpt lat="47.663967" lon="-3.047019">
        <ele>21.925907</ele>
        <time>2025-06-25T10:16:04.323Z</time>
      </trkpt>
      <trkpt lat="47.664156" lon="-3.046646">
        <ele>22.100633</ele>
        <time>2025-06-25T10:16:09.459Z</time>
      </trkpt>
      <trkpt lat="47.664964" lon="-3.044733">
        <ele>22.955341</ele>
        <time>2025-06-25T10:16:36.350Z</time>
      </trkpt>
      <trkpt lat="47.665858" lon="-3.042533">
        <ele>23.819669</ele>
        <time>2025-06-25T10:17:06.360Z</time>
      </trkpt>
      <trkpt lat="47.665944" lon="-3.042270">
        <ele>23.776256</ele>
        <time>2025-06-25T10:17:09.217Z</time>
      </trkpt>
      <trkpt lat="47.666096" lon="-3.041453">
        <ele>23.650394</ele>
        <time>2025-06-25T10:17:17.112Z</time>
      </trkpt>
      <trkpt lat="47.666167" lon="-3.041207">
        <ele>23.610652</ele>
        <time>2025-06-25T10:17:19.503Z</time>
      </trkpt>
      <trkpt lat="47.666183" lon="-3.041149">
        <ele>23.601345</ele>
        <time>2025-06-25T10:17:20.052Z</time>
      </trkpt>
      <trkpt lat="47.666266" lon="-3.040846">
        <ele>23.552772</ele>
        <time>2025-06-25T10:17:22.909Z</time>
      </trkpt>
      <trkpt lat="47.666260" lon="-3.040789">
        <ele>23.544206</ele>
        <time>2025-06-25T10:17:23.412Z</time>
      </trkpt>
      <trkpt lat="47.666281" lon="-3.040696">
        <ele>23.529640</ele>
        <time>2025-06-25T10:17:24.267Z</time>
      </trkpt>
      <trkpt lat="47.666334" lon="-3.040636">
        <ele>23.514945</ele>
        <time>2025-06-25T10:17:25.130Z</time>
      </trkpt>
      <trkpt lat="47.666376" lon="-3.040626">
        <ele>23.505566</ele>
        <time>2025-06-25T10:17:25.685Z</time>
      </trkpt>
      <trkpt lat="47.666454" lon="-3.040397">
        <ele>23.467460</ele>
        <time>2025-06-25T10:17:27.948Z</time>
      </trkpt>
      <trkpt lat="47.666472" lon="-3.040123">
        <ele>23.449917</ele>
        <time>2025-06-25T10:17:30.392Z</time>
      </trkpt>
      <trkpt lat="47.666387" lon="-3.038232">
        <ele>23.333620</ele>
        <time>2025-06-25T10:17:48.587Z</time>
      </trkpt>
      <trkpt lat="47.666327" lon="-3.037011">
        <ele>23.310980</ele>
        <time>2025-06-25T10:18:02.181Z</time>
      </trkpt>
      <trkpt lat="47.666258" lon="-3.035442">
        <ele>23.329671</ele>
        <time>2025-06-25T10:18:18.588Z</time>
      </trkpt>
      <trkpt lat="47.666198" lon="-3.033921">
        <ele>22.788948</ele>
        <time>2025-06-25T10:18:31.633Z</time>
      </trkpt>
      <trkpt lat="47.666111" lon="-3.031903">
        <ele>22.205775</ele>
        <time>2025-06-25T10:18:48.502Z</time>
      </trkpt>
      <trkpt lat="47.665812" lon="-3.025306">
        <ele>24.084401</ele>
        <time>2025-06-25T10:20:05.547Z</time>
      </trkpt>
      <trkpt lat="47.665661" lon="-3.024186">
        <ele>24.355725</ele>
        <time>2025-06-25T10:20:16.711Z</time>
      </trkpt>
      <trkpt lat="47.665616" lon="-3.023848">
        <ele>24.428301</ele>
        <time>2025-06-25T10:20:19.888Z</time>
      </trkpt>
      <trkpt lat="47.665587" lon="-3.023225">
        <ele>24.559845</ele>
        <time>2025-06-25T10:20:25.970Z</time>
      </trkpt>
      <trkpt lat="47.665534" lon="-3.023163">
        <ele>24.580949</ele>
        <time>2025-06-25T10:20:27.001Z</time>
      </trkpt>
      <trkpt lat="47.665479" lon="-3.022994">
        <ele>24.620486</ele>
        <time>2025-06-25T10:20:28.991Z</time>
      </trkpt>
      <trkpt lat="47.665479" lon="-3.022899">
        <ele>24.640497</ele>
        <time>2025-06-25T10:20:30.007Z</time>
      </trkpt>
      <trkpt lat="47.665528" lon="-3.022741">
        <ele>24.677139</ele>
        <time>2025-06-25T10:20:31.919Z</time>
      </trkpt>
      <trkpt lat="47.665572" lon="-3.022683">
        <ele>24.695541</ele>
        <time>2025-06-25T10:20:32.880Z</time>
      </trkpt>
      <trkpt lat="47.665726" lon="-3.022635">
        <ele>24.744759</ele>
        <time>2025-06-25T10:20:35.525Z</time>
      </trkpt>
      <trkpt lat="47.665765" lon="-3.022651">
        <ele>24.757415</ele>
        <time>2025-06-25T10:20:36.236Z</time>
      </trkpt>
      <trkpt lat="47.665863" lon="-3.022761">
        <ele>24.795840</ele>
        <time>2025-06-25T10:20:38.347Z</time>
      </trkpt>
      <trkpt lat="47.666080" lon="-3.022838">
        <ele>24.865624</ele>
        <time>2025-06-25T10:20:42.319Z</time>
      </trkpt>
      <trkpt lat="47.666494" lon="-3.022652">
        <ele>25.745822</ele>
        <time>2025-06-25T10:20:50.702Z</time>
      </trkpt>
      <trkpt lat="47.667332" lon="-3.022495">
        <ele>27.500193</ele>
        <time>2025-06-25T10:21:10.215Z</time>
      </trkpt>
      <trkpt lat="47.668852" lon="-3.022177">
        <ele>31.730439</ele>
        <time>2025-06-25T10:21:52.158Z</time>
      </trkpt>
      <trkpt lat="47.669782" lon="-3.021959">
        <ele>34.493908</ele>
        <time>2025-06-25T10:22:18.503Z</time>
      </trkpt>
      <trkpt lat="47.669870" lon="-3.021939">
        <ele>34.667717</ele>
        <time>2025-06-25T10:22:20.848Z</time>
      </trkpt>
      <trkpt lat="47.670274" lon="-3.021977">
        <ele>35.458055</ele>
        <time>2025-06-25T10:22:33.262Z</time>
      </trkpt>
      <trkpt lat="47.671166" lon="-3.021964">
        <ele>37.199653</ele>
        <time>2025-06-25T10:22:57.592Z</time>
      </trkpt>
      <trkpt lat="47.671392" lon="-3.022071">
        <ele>37.662771</ele>
        <time>2025-06-25T10:23:03.271Z</time>
      </trkpt>
      <trkpt lat="47.671520" lon="-3.021779">
        <ele>37.734065</ele>
        <time>2025-06-25T10:23:08.621Z</time>
      </trkpt>
      <trkpt lat="47.671520" lon="-3.021779">
        <ele>37.734065</ele>
        <time>2025-06-25T10:23:08.631Z</time>
      </trkpt>
      <trkpt lat="47.671636" lon="-3.021629">
        <ele>37.744400</ele>
        <time>2025-06-25T10:23:12.020Z</time>
      </trkpt>
      <trkpt lat="47.672201" lon="-3.021261">
        <ele>37.785855</ele>
        <time>2025-06-25T10:23:24.804Z</time>
      </trkpt>
      <trkpt lat="47.672237" lon="-3.021160">
        <ele>37.791025</ele>
        <time>2025-06-25T10:23:25.907Z</time>
      </trkpt>
      <trkpt lat="47.672346" lon="-3.021137">
        <ele>37.798423</ele>
        <time>2025-06-25T10:23:27.477Z</time>
      </trkpt>
      <trkpt lat="47.672754" lon="-3.020904">
        <ele>37.827795</ele>
        <time>2025-06-25T10:23:33.486Z</time>
      </trkpt>
      <trkpt lat="47.672872" lon="-3.020802">
        <ele>37.836969</ele>
        <time>2025-06-25T10:23:35.291Z</time>
      </trkpt>
      <trkpt lat="47.673081" lon="-3.020541">
        <ele>37.597477</ele>
        <time>2025-06-25T10:23:38.821Z</time>
      </trkpt>
      <trkpt lat="47.673158" lon="-3.020358">
        <ele>37.429734</ele>
        <time>2025-06-25T10:23:40.649Z</time>
      </trkpt>
      <trkpt lat="47.673230" lon="-3.019914">
        <ele>37.074726</ele>
        <time>2025-06-25T10:23:44.428Z</time>
      </trkpt>
      <trkpt lat="47.673371" lon="-3.018646">
        <ele>36.075706</ele>
        <time>2025-06-25T10:23:54.534Z</time>
      </trkpt>
      <trkpt lat="47.673422" lon="-3.017951">
        <ele>35.559670</ele>
        <time>2025-06-25T10:23:59.878Z</time>
      </trkpt>
      <trkpt lat="47.673464" lon="-3.016791">
        <ele>34.763141</ele>
        <time>2025-06-25T10:24:09.021Z</time>
      </trkpt>
      <trkpt lat="47.673480" lon="-3.016645">
        <ele>34.661715</ele>
        <time>2025-06-25T10:24:10.244Z</time>
      </trkpt>
      <trkpt lat="47.673587" lon="-3.016049">
        <ele>34.238779</ele>
        <time>2025-06-25T10:24:15.558Z</time>
      </trkpt>
      <trkpt lat="47.673602" lon="-3.015926">
        <ele>34.153070</ele>
        <time>2025-06-25T10:24:16.675Z</time>
      </trkpt>
      <trkpt lat="47.673591" lon="-3.015499">
        <ele>33.906326</ele>
        <time>2025-06-25T10:24:20.571Z</time>
      </trkpt>
      <trkpt lat="47.673444" lon="-3.014330">
        <ele>33.606767</ele>
        <time>2025-06-25T10:24:32.036Z</time>
      </trkpt>
      <trkpt lat="47.673445" lon="-3.014104">
        <ele>33.549837</ele>
        <time>2025-06-25T10:24:34.273Z</time>
      </trkpt>
      <trkpt lat="47.673469" lon="-3.013879">
        <ele>33.492453</ele>
        <time>2025-06-25T10:24:36.501Z</time>
      </trkpt>
      <trkpt lat="47.673537" lon="-3.013562">
        <ele>33.408647</ele>
        <time>2025-06-25T10:24:39.684Z</time>
      </trkpt>
      <trkpt lat="47.673660" lon="-3.013208">
        <ele>33.308304</ele>
        <time>2025-06-25T10:24:43.374Z</time>
      </trkpt>
      <trkpt lat="47.673830" lon="-3.012869">
        <ele>32.971954</ele>
        <time>2025-06-25T10:24:46.946Z</time>
      </trkpt>
      <trkpt lat="47.674342" lon="-3.012204">
        <ele>31.717505</ele>
        <time>2025-06-25T10:24:54.709Z</time>
      </trkpt>
      <trkpt lat="47.674359" lon="-3.012113">
        <ele>31.600229</ele>
        <time>2025-06-25T10:24:55.396Z</time>
      </trkpt>
      <trkpt lat="47.674435" lon="-3.012105">
        <ele>31.459712</ele>
        <time>2025-06-25T10:24:56.220Z</time>
      </trkpt>
      <trkpt lat="47.674608" lon="-3.011961">
        <ele>31.093955</ele>
        <time>2025-06-25T10:24:58.318Z</time>
      </trkpt>
      <trkpt lat="47.674990" lon="-3.011810">
        <ele>30.364911</ele>
        <time>2025-06-25T10:25:02.413Z</time>
      </trkpt>
      <trkpt lat="47.675881" lon="-3.011607">
        <ele>29.944874</ele>
        <time>2025-06-25T10:25:12.179Z</time>
      </trkpt>
      <trkpt lat="47.675933" lon="-3.011596">
        <ele>29.945012</ele>
        <time>2025-06-25T10:25:12.853Z</time>
      </trkpt>
      <trkpt lat="47.675977" lon="-3.011587">
        <ele>29.945128</ele>
        <time>2025-06-25T10:25:13.435Z</time>
      </trkpt>
      <trkpt lat="47.676055" lon="-3.011566">
        <ele>29.945335</ele>
        <time>2025-06-25T10:25:14.544Z</time>
      </trkpt>
      <trkpt lat="47.676434" lon="-3.011406">
        <ele>29.946366</ele>
        <time>2025-06-25T10:25:21.257Z</time>
      </trkpt>
      <trkpt lat="47.676601" lon="-3.011257">
        <ele>29.946876</ele>
        <time>2025-06-25T10:25:25.216Z</time>
      </trkpt>
      <trkpt lat="47.676957" lon="-3.010749">
        <ele>30.142587</ele>
        <time>2025-06-25T10:25:37.570Z</time>
      </trkpt>
      <trkpt lat="47.677005" lon="-3.010677">
        <ele>30.242636</ele>
        <time>2025-06-25T10:25:39.493Z</time>
      </trkpt>
      <trkpt lat="47.677452" lon="-3.010004">
        <ele>31.176096</ele>
        <time>2025-06-25T10:25:56.800Z</time>
      </trkpt>
      <trkpt lat="47.677637" lon="-3.009720">
        <ele>31.566287</ele>
        <time>2025-06-25T10:26:02.655Z</time>
      </trkpt>
      <trkpt lat="47.678008" lon="-3.009279">
        <ele>32.263170</ele>
        <time>2025-06-25T10:26:10.552Z</time>
      </trkpt>
      <trkpt lat="47.677983" lon="-3.009199">
        <ele>32.350257</ele>
        <time>2025-06-25T10:26:11.339Z</time>
      </trkpt>
      <trkpt lat="47.678006" lon="-3.009074">
        <ele>32.478210</ele>
        <time>2025-06-25T10:26:12.588Z</time>
      </trkpt>
      <trkpt lat="47.677980" lon="-3.008965">
        <ele>32.582951</ele>
        <time>2025-06-25T10:26:13.598Z</time>
      </trkpt>
      <trkpt lat="47.677835" lon="-3.008660">
        <ele>32.439468</ele>
        <time>2025-06-25T10:26:16.851Z</time>
      </trkpt>
      <trkpt lat="47.677621" lon="-3.008235">
        <ele>32.235523</ele>
        <time>2025-06-25T10:26:21.058Z</time>
      </trkpt>
      <trkpt lat="47.677479" lon="-3.007887">
        <ele>32.079146</ele>
        <time>2025-06-25T10:26:24.188Z</time>
      </trkpt>
      <trkpt lat="47.676932" lon="-3.006771">
        <ele>31.568578</ele>
        <time>2025-06-25T10:26:36.290Z</time>
      </trkpt>
      <trkpt lat="47.676823" lon="-3.006546">
        <ele>31.667316</ele>
        <time>2025-06-25T10:26:39.594Z</time>
      </trkpt>
      <trkpt lat="47.676751" lon="-3.006404">
        <ele>31.730637</ele>
        <time>2025-06-25T10:26:41.772Z</time>
      </trkpt>
      <trkpt lat="47.676240" lon="-3.005369">
        <ele>32.187818</ele>
        <time>2025-06-25T10:26:57.948Z</time>
      </trkpt>
      <trkpt lat="47.676208" lon="-3.005305">
        <ele>32.216214</ele>
        <time>2025-06-25T10:26:58.903Z</time>
      </trkpt>
      <trkpt lat="47.675820" lon="-3.004499">
        <ele>32.437924</ele>
        <time>2025-06-25T10:27:10.009Z</time>
      </trkpt>
      <trkpt lat="47.675459" lon="-3.003781">
        <ele>32.042126</ele>
        <time>2025-06-25T10:27:18.639Z</time>
      </trkpt>
      <trkpt lat="47.674703" lon="-3.002244">
        <ele>31.086743</ele>
        <time>2025-06-25T10:27:34.132Z</time>
      </trkpt>
      <trkpt lat="47.674577" lon="-3.001985">
        <ele>30.820460</ele>
        <time>2025-06-25T10:27:36.577Z</time>
      </trkpt>
      <trkpt lat="47.674532" lon="-3.001889">
        <ele>30.722980</ele>
        <time>2025-06-25T10:27:37.475Z</time>
      </trkpt>
      <trkpt lat="47.674324" lon="-3.001551">
        <ele>30.341385</ele>
        <time>2025-06-25T10:27:40.927Z</time>
      </trkpt>
      <trkpt lat="47.674243" lon="-3.001406">
        <ele>30.184374</ele>
        <time>2025-06-25T10:27:42.326Z</time>
      </trkpt>
      <trkpt lat="47.674208" lon="-3.001339">
        <ele>30.113705</ele>
        <time>2025-06-25T10:27:42.946Z</time>
      </trkpt>
      <trkpt lat="47.674096" lon="-3.001109">
        <ele>29.877158</ele>
        <time>2025-06-25T10:27:45.071Z</time>
      </trkpt>
      <trkpt lat="47.674022" lon="-3.000961">
        <ele>29.723532</ele>
        <time>2025-06-25T10:27:46.457Z</time>
      </trkpt>
      <trkpt lat="47.673743" lon="-3.000341">
        <ele>29.108238</ele>
        <time>2025-06-25T10:27:52.506Z</time>
      </trkpt>
      <trkpt lat="47.673611" lon="-3.000013">
        <ele>29.576411</ele>
        <time>2025-06-25T10:27:56.464Z</time>
      </trkpt>
      <trkpt lat="47.673330" lon="-2.999394">
        <ele>30.491075</ele>
        <time>2025-06-25T10:28:06.477Z</time>
      </trkpt>
      <trkpt lat="47.673223" lon="-2.999145">
        <ele>30.852986</ele>
        <time>2025-06-25T10:28:11.247Z</time>
      </trkpt>
      <trkpt lat="47.673087" lon="-2.998786">
        <ele>31.357673</ele>
        <time>2025-06-25T10:28:18.469Z</time>
      </trkpt>
      <trkpt lat="47.672766" lon="-2.997943">
        <ele>32.606383</ele>
        <time>2025-06-25T10:28:36.620Z</time>
      </trkpt>
      <trkpt lat="47.672593" lon="-2.997529">
        <ele>33.425574</ele>
        <time>2025-06-25T10:28:45.743Z</time>
      </trkpt>
      <trkpt lat="47.672502" lon="-2.997570">
        <ele>33.663013</ele>
        <time>2025-06-25T10:28:48.265Z</time>
      </trkpt>
      <trkpt lat="47.672425" lon="-2.997486">
        <ele>33.901567</ele>
        <time>2025-06-25T10:28:50.736Z</time>
      </trkpt>
      <trkpt lat="47.672414" lon="-2.997391">
        <ele>34.063634</ele>
        <time>2025-06-25T10:28:52.383Z</time>
      </trkpt>
      <trkpt lat="47.672443" lon="-2.997304">
        <ele>34.226848</ele>
        <time>2025-06-25T10:28:54.047Z</time>
      </trkpt>
      <trkpt lat="47.672500" lon="-2.997257">
        <ele>34.389634</ele>
        <time>2025-06-25T10:28:55.647Z</time>
      </trkpt>
      <trkpt lat="47.672485" lon="-2.997146">
        <ele>34.579978</ele>
        <time>2025-06-25T10:28:57.559Z</time>
      </trkpt>
      <trkpt lat="47.672349" lon="-2.996736">
        <ele>35.348408</ele>
        <time>2025-06-25T10:29:04.955Z</time>
      </trkpt>
      <trkpt lat="47.672252" lon="-2.996446">
        <ele>35.892824</ele>
        <time>2025-06-25T10:29:09.951Z</time>
      </trkpt>
      <trkpt lat="47.671830" lon="-2.995228">
        <ele>37.793604</ele>
        <time>2025-06-25T10:29:30.856Z</time>
      </trkpt>
      <trkpt lat="47.671573" lon="-2.994496">
        <ele>38.761049</ele>
        <time>2025-06-25T10:29:43.631Z</time>
      </trkpt>
      <trkpt lat="47.671514" lon="-2.994339">
        <ele>38.971753</ele>
        <time>2025-06-25T10:29:46.295Z</time>
      </trkpt>
      <trkpt lat="47.671359" lon="-2.994180">
        <ele>39.299609</ele>
        <time>2025-06-25T10:29:50.334Z</time>
      </trkpt>
      <trkpt lat="47.671279" lon="-2.994099">
        <ele>39.468119</ele>
        <time>2025-06-25T10:29:52.351Z</time>
      </trkpt>
      <trkpt lat="47.671269" lon="-2.994000">
        <ele>39.585438</ele>
        <time>2025-06-25T10:29:53.740Z</time>
      </trkpt>
      <trkpt lat="47.671303" lon="-2.993913">
        <ele>39.703322</ele>
        <time>2025-06-25T10:29:55.102Z</time>
      </trkpt>
      <trkpt lat="47.671290" lon="-2.993665">
        <ele>39.994840</ele>
        <time>2025-06-25T10:29:58.391Z</time>
      </trkpt>
      <trkpt lat="47.671151" lon="-2.993198">
        <ele>40.079838</ele>
        <time>2025-06-25T10:30:04.894Z</time>
      </trkpt>
      <trkpt lat="47.671031" lon="-2.992838">
        <ele>40.144198</ele>
        <time>2025-06-25T10:30:09.694Z</time>
      </trkpt>
      <trkpt lat="47.671013" lon="-2.992782">
        <ele>40.154140</ele>
        <time>2025-06-25T10:30:10.403Z</time>
      </trkpt>
      <trkpt lat="47.670635" lon="-2.991672">
        <ele>40.353438</ele>
        <time>2025-06-25T10:30:22.827Z</time>
      </trkpt>
      <trkpt lat="47.670550" lon="-2.991373">
        <ele>40.405440</ele>
        <time>2025-06-25T10:30:25.789Z</time>
      </trkpt>
      <trkpt lat="47.670522" lon="-2.991175">
        <ele>40.377278</ele>
        <time>2025-06-25T10:30:27.590Z</time>
      </trkpt>
      <trkpt lat="47.670514" lon="-2.991114">
        <ele>40.334122</ele>
        <time>2025-06-25T10:30:28.129Z</time>
      </trkpt>
      <trkpt lat="47.670460" lon="-2.990723">
        <ele>40.056944</ele>
        <time>2025-06-25T10:30:31.508Z</time>
      </trkpt>
      <trkpt lat="47.670375" lon="-2.990667">
        <ele>39.961048</ele>
        <time>2025-06-25T10:30:32.659Z</time>
      </trkpt>
      <trkpt lat="47.670353" lon="-2.990532">
        <ele>39.864592</ele>
        <time>2025-06-25T10:30:33.766Z</time>
      </trkpt>
      <trkpt lat="47.670215" lon="-2.990369">
        <ele>39.682752</ele>
        <time>2025-06-25T10:30:35.854Z</time>
      </trkpt>
      <trkpt lat="47.670181" lon="-2.990293">
        <ele>39.619389</ele>
        <time>2025-06-25T10:30:36.575Z</time>
      </trkpt>
      <trkpt lat="47.670132" lon="-2.990155">
        <ele>39.511050</ele>
        <time>2025-06-25T10:30:37.795Z</time>
      </trkpt>
      <trkpt lat="47.669980" lon="-2.989726">
        <ele>39.174411</ele>
        <time>2025-06-25T10:30:41.661Z</time>
      </trkpt>
      <trkpt lat="47.669964" lon="-2.989677">
        <ele>39.136594</ele>
        <time>2025-06-25T10:30:42.100Z</time>
      </trkpt>
      <trkpt lat="47.669890" lon="-2.989457">
        <ele>38.965817</ele>
        <time>2025-06-25T10:30:44.119Z</time>
      </trkpt>
      <trkpt lat="47.669672" lon="-2.988802">
        <ele>38.474398</ele>
        <time>2025-06-25T10:30:49.995Z</time>
      </trkpt>
      <trkpt lat="47.669656" lon="-2.988749">
        <ele>38.439753</ele>
        <time>2025-06-25T10:30:50.462Z</time>
      </trkpt>
      <trkpt lat="47.669487" lon="-2.988460">
        <ele>38.211439</ele>
        <time>2025-06-25T10:30:53.552Z</time>
      </trkpt>
      <trkpt lat="47.669260" lon="-2.988428">
        <ele>38.009461</ele>
        <time>2025-06-25T10:30:56.267Z</time>
      </trkpt>
      <trkpt lat="47.669013" lon="-2.988253">
        <ele>37.767044</ele>
        <time>2025-06-25T10:30:59.514Z</time>
      </trkpt>
      <trkpt lat="47.668848" lon="-2.988136">
        <ele>37.605080</ele>
        <time>2025-06-25T10:31:01.749Z</time>
      </trkpt>
      <trkpt lat="47.668699" lon="-2.988023">
        <ele>37.456881</ele>
        <time>2025-06-25T10:31:03.952Z</time>
      </trkpt>
      <trkpt lat="47.668495" lon="-2.987868">
        <ele>37.253900</ele>
        <time>2025-06-25T10:31:07.052Z</time>
      </trkpt>
      <trkpt lat="47.668457" lon="-2.987840">
        <ele>37.216323</ele>
        <time>2025-06-25T10:31:07.642Z</time>
      </trkpt>
      <trkpt lat="47.668246" lon="-2.987695">
        <ele>37.010378</ele>
        <time>2025-06-25T10:31:10.666Z</time>
      </trkpt>
      <trkpt lat="47.668004" lon="-2.987534">
        <ele>36.856721</ele>
        <time>2025-06-25T10:31:14.149Z</time>
      </trkpt>
      <trkpt lat="47.667930" lon="-2.987483">
        <ele>36.813385</ele>
        <time>2025-06-25T10:31:15.273Z</time>
      </trkpt>
      <trkpt lat="47.667637" lon="-2.987253">
        <ele>36.637332</ele>
        <time>2025-06-25T10:31:19.883Z</time>
      </trkpt>
      <trkpt lat="47.667596" lon="-2.987080">
        <ele>36.571724</ele>
        <time>2025-06-25T10:31:21.506Z</time>
      </trkpt>
      <trkpt lat="47.667370" lon="-2.986759">
        <ele>36.405595</ele>
        <time>2025-06-25T10:31:25.530Z</time>
      </trkpt>
      <trkpt lat="47.667218" lon="-2.986681">
        <ele>36.320166</ele>
        <time>2025-06-25T10:31:28.569Z</time>
      </trkpt>
      <trkpt lat="47.667157" lon="-2.986673">
        <ele>36.287636</ele>
        <time>2025-06-25T10:31:29.738Z</time>
      </trkpt>
      <trkpt lat="47.667089" lon="-2.986664">
        <ele>36.251371</ele>
        <time>2025-06-25T10:31:31.088Z</time>
      </trkpt>
      <trkpt lat="47.667077" lon="-2.986477">
        <ele>36.184172</ele>
        <time>2025-06-25T10:31:33.575Z</time>
      </trkpt>
      <trkpt lat="47.667066" lon="-2.986274">
        <ele>36.111317</ele>
        <time>2025-06-25T10:31:36.167Z</time>
      </trkpt>
      <trkpt lat="47.667058" lon="-2.986043">
        <ele>36.028571</ele>
        <time>2025-06-25T10:31:38.917Z</time>
      </trkpt>
      <trkpt lat="47.666889" lon="-2.985629">
        <ele>35.516514</ele>
        <time>2025-06-25T10:31:44.413Z</time>
      </trkpt>
      <trkpt lat="47.666775" lon="-2.985326">
        <ele>35.141284</ele>
        <time>2025-06-25T10:31:52.251Z</time>
      </trkpt>
      <trkpt lat="47.666688" lon="-2.985106">
        <ele>34.865465</ele>
        <time>2025-06-25T10:31:58.070Z</time>
      </trkpt>
      <trkpt lat="47.666614" lon="-2.984902">
        <ele>34.614959</ele>
        <time>2025-06-25T10:32:03.338Z</time>
      </trkpt>
      <trkpt lat="47.666586" lon="-2.984740">
        <ele>34.434143</ele>
        <time>2025-06-25T10:32:07.064Z</time>
      </trkpt>
      <trkpt lat="47.666555" lon="-2.984548">
        <ele>34.220688</ele>
        <time>2025-06-25T10:32:11.437Z</time>
      </trkpt>
      <trkpt lat="47.666541" lon="-2.984459">
        <ele>34.121879</ele>
        <time>2025-06-25T10:32:13.439Z</time>
      </trkpt>
      <trkpt lat="47.666511" lon="-2.984331">
        <ele>33.975355</ele>
        <time>2025-06-25T10:32:16.348Z</time>
      </trkpt>
      <trkpt lat="47.666400" lon="-2.984071">
        <ele>33.642543</ele>
        <time>2025-06-25T10:32:22.907Z</time>
      </trkpt>
      <trkpt lat="47.666392" lon="-2.984027">
        <ele>33.593271</ele>
        <time>2025-06-25T10:32:23.861Z</time>
      </trkpt>
      <trkpt lat="47.666373" lon="-2.983921">
        <ele>33.474683</ele>
        <time>2025-06-25T10:32:26.127Z</time>
      </trkpt>
      <trkpt lat="47.666345" lon="-2.983742">
        <ele>33.276011</ele>
        <time>2025-06-25T10:32:29.894Z</time>
      </trkpt>
      <trkpt lat="47.666338" lon="-2.983379">
        <ele>32.392864</ele>
        <time>2025-06-25T10:32:37.192Z</time>
      </trkpt>
      <trkpt lat="47.666365" lon="-2.983010">
        <ele>31.210825</ele>
        <time>2025-06-25T10:32:44.507Z</time>
      </trkpt>
      <trkpt lat="47.666396" lon="-2.982949">
        <ele>30.967459</ele>
        <time>2025-06-25T10:32:46.009Z</time>
      </trkpt>
      <trkpt lat="47.666381" lon="-2.982677">
        <ele>30.098344</ele>
        <time>2025-06-25T10:32:48.644Z</time>
      </trkpt>
      <trkpt lat="47.666383" lon="-2.982626">
        <ele>29.935654</ele>
        <time>2025-06-25T10:32:48.986Z</time>
      </trkpt>
      <trkpt lat="47.666446" lon="-2.982566">
        <ele>29.581727</ele>
        <time>2025-06-25T10:32:49.717Z</time>
      </trkpt>
      <trkpt lat="47.666475" lon="-2.982496">
        <ele>29.320000</ele>
        <time>2025-06-25T10:32:50.504Z</time>
      </trkpt>
      <trkpt lat="47.666505" lon="-2.982432">
        <ele>29.071674</ele>
        <time>2025-06-25T10:32:51.247Z</time>
      </trkpt>
      <trkpt lat="47.666624" lon="-2.982199">
        <ele>28.140412</ele>
        <time>2025-06-25T10:32:53.117Z</time>
      </trkpt>
      <trkpt lat="47.666714" lon="-2.982286">
        <ele>27.632580</ele>
        <time>2025-06-25T10:32:54.551Z</time>
      </trkpt>
      <trkpt lat="47.667077" lon="-2.981993">
        <ele>25.678805</ele>
        <time>2025-06-25T10:32:58.363Z</time>
      </trkpt>
      <trkpt lat="47.667271" lon="-2.981711">
        <ele>24.200926</ele>
        <time>2025-06-25T10:33:00.825Z</time>
      </trkpt>
      <trkpt lat="47.667436" lon="-2.981413">
        <ele>21.957730</ele>
        <time>2025-06-25T10:33:03.150Z</time>
      </trkpt>
      <trkpt lat="47.667696" lon="-2.980846">
        <ele>17.969182</ele>
        <time>2025-06-25T10:33:07.155Z</time>
      </trkpt>
      <trkpt lat="47.667689" lon="-2.980512">
        <ele>16.026203</ele>
        <time>2025-06-25T10:33:09.875Z</time>
      </trkpt>
      <trkpt lat="47.667642" lon="-2.980266">
        <ele>14.539387</ele>
        <time>2025-06-25T10:33:11.962Z</time>
      </trkpt>
      <trkpt lat="47.667338" lon="-2.979845">
        <ele>10.950275</ele>
        <time>2025-06-25T10:33:15.550Z</time>
      </trkpt>
      <trkpt lat="47.667230" lon="-2.979729">
        <ele>9.799421</ele>
        <time>2025-06-25T10:33:16.708Z</time>
      </trkpt>
      <trkpt lat="47.666996" lon="-2.979556">
        <ele>8.768653</ele>
        <time>2025-06-25T10:33:19.031Z</time>
      </trkpt>
      <trkpt lat="47.666942" lon="-2.979575">
        <ele>8.666645</ele>
        <time>2025-06-25T10:33:19.541Z</time>
      </trkpt>
      <trkpt lat="47.666849" lon="-2.979678">
        <ele>8.453387</ele>
        <time>2025-06-25T10:33:22.608Z</time>
      </trkpt>
      <trkpt lat="47.666724" lon="-2.979773">
        <ele>8.195275</ele>
        <time>2025-06-25T10:33:26.384Z</time>
      </trkpt>
      <trkpt lat="47.666628" lon="-2.979731">
        <ele>8.011315</ele>
        <time>2025-06-25T10:33:29.153Z</time>
      </trkpt>
      <trkpt lat="47.666589" lon="-2.979713">
        <ele>7.936245</ele>
        <time>2025-06-25T10:33:30.300Z</time>
      </trkpt>
      <trkpt lat="47.666375" lon="-2.979226">
        <ele>7.216414</ele>
        <time>2025-06-25T10:33:57.497Z</time>
      </trkpt>
      <trkpt lat="47.666500" lon="-2.978631">
        <ele>6.444869</ele>
        <time>2025-06-25T10:34:07.128Z</time>
      </trkpt>
      <trkpt lat="47.666565" lon="-2.978321">
        <ele>6.042957</ele>
        <time>2025-06-25T10:34:13.265Z</time>
      </trkpt>
      <trkpt lat="47.666644" lon="-2.978018">
        <ele>5.931527</ele>
        <time>2025-06-25T10:34:19.803Z</time>
      </trkpt>
      <trkpt lat="47.666719" lon="-2.976740">
        <ele>7.353440</ele>
        <time>2025-06-25T10:34:42.134Z</time>
      </trkpt>
      <trkpt lat="47.666362" lon="-2.974365">
        <ele>8.639016</ele>
        <time>2025-06-25T10:35:08.512Z</time>
      </trkpt>
      <trkpt lat="47.666333" lon="-2.974168">
        <ele>8.619099</ele>
        <time>2025-06-25T10:35:10.276Z</time>
      </trkpt>
      <trkpt lat="47.666127" lon="-2.972743">
        <ele>8.472405</ele>
        <time>2025-06-25T10:35:23.265Z</time>
      </trkpt>
      <trkpt lat="47.665709" lon="-2.970349">
        <ele>8.185145</ele>
        <time>2025-06-25T10:35:46.072Z</time>
      </trkpt>
      <trkpt lat="47.665781" lon="-2.970246">
        <ele>8.300597</ele>
        <time>2025-06-25T10:35:47.630Z</time>
      </trkpt>
      <trkpt lat="47.666592" lon="-2.969760">
        <ele>9.737425</ele>
        <time>2025-06-25T10:36:04.691Z</time>
      </trkpt>
      <trkpt lat="47.666551" lon="-2.969566">
        <ele>9.962392</ele>
        <time>2025-06-25T10:36:07.848Z</time>
      </trkpt>
      <trkpt lat="47.666525" lon="-2.969581">
        <ele>10.008219</ele>
        <time>2025-06-25T10:36:08.420Z</time>
      </trkpt>
      <trkpt lat="47.666278" lon="-2.968414">
        <ele>11.389576</ele>
        <time>2025-06-25T10:36:30.081Z</time>
      </trkpt>
      <trkpt lat="47.666196" lon="-2.967796">
        <ele>12.172456</ele>
        <time>2025-06-25T10:36:40.637Z</time>
      </trkpt>
      <trkpt lat="47.666170" lon="-2.967647">
        <ele>12.363765</ele>
        <time>2025-06-25T10:36:43.021Z</time>
      </trkpt>
      <trkpt lat="47.666138" lon="-2.967561">
        <ele>12.485885</ele>
        <time>2025-06-25T10:36:44.496Z</time>
      </trkpt>
      <trkpt lat="47.666061" lon="-2.967376">
        <ele>12.756193</ele>
        <time>2025-06-25T10:36:47.689Z</time>
      </trkpt>
      <trkpt lat="47.665987" lon="-2.967295">
        <ele>12.925863</ele>
        <time>2025-06-25T10:36:49.615Z</time>
      </trkpt>
      <trkpt lat="47.665604" lon="-2.967303">
        <ele>13.632790</ele>
        <time>2025-06-25T10:36:57.185Z</time>
      </trkpt>
      <trkpt lat="47.665430" lon="-2.967310">
        <ele>13.954039</ele>
        <time>2025-06-25T10:37:00.537Z</time>
      </trkpt>
      <trkpt lat="47.664567" lon="-2.967128">
        <ele>16.105692</ele>
        <time>2025-06-25T10:37:17.964Z</time>
      </trkpt>
      <trkpt lat="47.663846" lon="-2.966890">
        <ele>18.137001</ele>
        <time>2025-06-25T10:37:37.288Z</time>
      </trkpt>
      <trkpt lat="47.662303" lon="-2.966170">
        <ele>23.992518</ele>
        <time>2025-06-25T10:38:30.029Z</time>
      </trkpt>
      <trkpt lat="47.661588" lon="-2.965816">
        <ele>26.631687</ele>
        <time>2025-06-25T10:38:52.676Z</time>
      </trkpt>
      <trkpt lat="47.661127" lon="-2.965572">
        <ele>27.051259</ele>
        <time>2025-06-25T10:39:04.454Z</time>
      </trkpt>
      <trkpt lat="47.660340" lon="-2.965220">
        <ele>27.755897</ele>
        <time>2025-06-25T10:39:17.632Z</time>
      </trkpt>
      <trkpt lat="47.660147" lon="-2.965264">
        <ele>27.923294</ele>
        <time>2025-06-25T10:39:20.021Z</time>
      </trkpt>
      <trkpt lat="47.660108" lon="-2.965246">
        <ele>27.958306</ele>
        <time>2025-06-25T10:39:20.506Z</time>
      </trkpt>
      <trkpt lat="47.660049" lon="-2.965217">
        <ele>28.011586</ele>
        <time>2025-06-25T10:39:21.238Z</time>
      </trkpt>
      <trkpt lat="47.660026" lon="-2.965205">
        <ele>28.032486</ele>
        <time>2025-06-25T10:39:21.521Z</time>
      </trkpt>
      <trkpt lat="47.659533" lon="-2.964842">
        <ele>27.706303</ele>
        <time>2025-06-25T10:39:27.887Z</time>
      </trkpt>
      <trkpt lat="47.659380" lon="-2.964751">
        <ele>27.583631</ele>
        <time>2025-06-25T10:39:29.787Z</time>
      </trkpt>
      <trkpt lat="47.659316" lon="-2.964659">
        <ele>27.517328</ele>
        <time>2025-06-25T10:39:30.814Z</time>
      </trkpt>
      <trkpt lat="47.658428" lon="-2.964000">
        <ele>26.778441</ele>
        <time>2025-06-25T10:39:43.327Z</time>
      </trkpt>
      <trkpt lat="47.658365" lon="-2.963980">
        <ele>26.751245</ele>
        <time>2025-06-25T10:39:44.316Z</time>
      </trkpt>
      <trkpt lat="47.658279" lon="-2.964042">
        <ele>26.866144</ele>
        <time>2025-06-25T10:39:45.833Z</time>
      </trkpt>
      <trkpt lat="47.658222" lon="-2.964010">
        <ele>26.939383</ele>
        <time>2025-06-25T10:39:46.811Z</time>
      </trkpt>
      <trkpt lat="47.658190" lon="-2.963983">
        <ele>26.983619</ele>
        <time>2025-06-25T10:39:47.434Z</time>
      </trkpt>
      <trkpt lat="47.658146" lon="-2.963793">
        <ele>27.146260</ele>
        <time>2025-06-25T10:39:49.723Z</time>
      </trkpt>
      <trkpt lat="47.656029" lon="-2.962207">
        <ele>30.119847</ele>
        <time>2025-06-25T10:40:40.246Z</time>
      </trkpt>
      <trkpt lat="47.655431" lon="-2.961839">
        <ele>30.985658</ele>
        <time>2025-06-25T10:40:53.545Z</time>
      </trkpt>
      <trkpt lat="47.655057" lon="-2.961713">
        <ele>31.251382</ele>
        <time>2025-06-25T10:41:00.446Z</time>
      </trkpt>
      <trkpt lat="47.654701" lon="-2.961641">
        <ele>31.115826</ele>
        <time>2025-06-25T10:41:06.219Z</time>
      </trkpt>
      <trkpt lat="47.654553" lon="-2.961610">
        <ele>31.059434</ele>
        <time>2025-06-25T10:41:08.445Z</time>
      </trkpt>
      <trkpt lat="47.652524" lon="-2.961642">
        <ele>29.683425</ele>
        <time>2025-06-25T10:41:33.524Z</time>
      </trkpt>
      <trkpt lat="47.651402" lon="-2.961677">
        <ele>28.393657</ele>
        <time>2025-06-25T10:41:46.864Z</time>
      </trkpt>
      <trkpt lat="47.651402" lon="-2.961591">
        <ele>28.306338</ele>
        <time>2025-06-25T10:41:47.560Z</time>
      </trkpt>
      <trkpt lat="47.650884" lon="-2.961575">
        <ele>27.525421</ele>
        <time>2025-06-25T10:41:53.628Z</time>
      </trkpt>
      <trkpt lat="47.650410" lon="-2.961507">
        <ele>26.807663</ele>
        <time>2025-06-25T10:41:59.149Z</time>
      </trkpt>
      <trkpt lat="47.648955" lon="-2.961217">
        <ele>24.056205</ele>
        <time>2025-06-25T10:42:15.508Z</time>
      </trkpt>
      <trkpt lat="47.648169" lon="-2.961118">
        <ele>22.409636</ele>
        <time>2025-06-25T10:42:23.928Z</time>
      </trkpt>
      <trkpt lat="47.647872" lon="-2.961125">
        <ele>21.823913</ele>
        <time>2025-06-25T10:42:27.079Z</time>
      </trkpt>
      <trkpt lat="47.647217" lon="-2.961255">
        <ele>20.549524</ele>
        <time>2025-06-25T10:42:34.115Z</time>
      </trkpt>
      <trkpt lat="47.645470" lon="-2.961924">
        <ele>18.876761</ele>
        <time>2025-06-25T10:42:55.006Z</time>
      </trkpt>
      <trkpt lat="47.645121" lon="-2.962046">
        <ele>18.919494</ele>
        <time>2025-06-25T10:43:01.408Z</time>
      </trkpt>
      <trkpt lat="47.644731" lon="-2.962131">
        <ele>18.966473</ele>
        <time>2025-06-25T10:43:09.683Z</time>
      </trkpt>
      <trkpt lat="47.644337" lon="-2.962159">
        <ele>19.484078</ele>
        <time>2025-06-25T10:43:19.163Z</time>
      </trkpt>
      <trkpt lat="47.643891" lon="-2.962110">
        <ele>20.449200</ele>
        <time>2025-06-25T10:43:30.906Z</time>
      </trkpt>
      <trkpt lat="47.643399" lon="-2.961967">
        <ele>21.531126</ele>
        <time>2025-06-25T10:43:43.951Z</time>
      </trkpt>
      <trkpt lat="47.643213" lon="-2.961881">
        <ele>21.951548</ele>
        <time>2025-06-25T10:43:48.410Z</time>
      </trkpt>
      <trkpt lat="47.642620" lon="-2.961490">
        <ele>23.007265</ele>
        <time>2025-06-25T10:44:01.763Z</time>
      </trkpt>
      <trkpt lat="47.642268" lon="-2.961182">
        <ele>23.261673</ele>
        <time>2025-06-25T10:44:09.352Z</time>
      </trkpt>
      <trkpt lat="47.641665" lon="-2.960468">
        <ele>23.741942</ele>
        <time>2025-06-25T10:44:22.071Z</time>
      </trkpt>
      <trkpt lat="47.640840" lon="-2.959504">
        <ele>23.328168</ele>
        <time>2025-06-25T10:44:37.965Z</time>
      </trkpt>
      <trkpt lat="47.640318" lon="-2.958784">
        <ele>22.611822</ele>
        <time>2025-06-25T10:44:46.062Z</time>
      </trkpt>
      <trkpt lat="47.639950" lon="-2.958048">
        <ele>22.372739</ele>
        <time>2025-06-25T10:44:52.780Z</time>
      </trkpt>
      <trkpt lat="47.639743" lon="-2.957466">
        <ele>22.830633</ele>
        <time>2025-06-25T10:44:58.015Z</time>
      </trkpt>
      <trkpt lat="47.638465" lon="-2.953663">
        <ele>28.251175</ele>
        <time>2025-06-25T10:46:09.565Z</time>
      </trkpt>
      <trkpt lat="47.638453" lon="-2.953628">
        <ele>28.316946</ele>
        <time>2025-06-25T10:46:10.335Z</time>
      </trkpt>
      <trkpt lat="47.638355" lon="-2.953423">
        <ele>28.538053</ele>
        <time>2025-06-25T10:46:14.836Z</time>
      </trkpt>
      <trkpt lat="47.638139" lon="-2.952825">
        <ele>28.689004</ele>
        <time>2025-06-25T10:46:25.420Z</time>
      </trkpt>
      <trkpt lat="47.637947" lon="-2.952330">
        <ele>28.816073</ele>
        <time>2025-06-25T10:46:32.431Z</time>
      </trkpt>
      <trkpt lat="47.637901" lon="-2.952265">
        <ele>28.837044</ele>
        <time>2025-06-25T10:46:33.450Z</time>
      </trkpt>
      <trkpt lat="47.637911" lon="-2.952183">
        <ele>28.855584</ele>
        <time>2025-06-25T10:46:34.282Z</time>
      </trkpt>
      <trkpt lat="47.637887" lon="-2.952011">
        <ele>28.894662</ele>
        <time>2025-06-25T10:46:35.901Z</time>
      </trkpt>
      <trkpt lat="47.637685" lon="-2.951067">
        <ele>29.057593</ele>
        <time>2025-06-25T10:46:43.535Z</time>
      </trkpt>
      <trkpt lat="47.637671" lon="-2.950850">
        <ele>28.902964</ele>
        <time>2025-06-25T10:46:45.134Z</time>
      </trkpt>
      <trkpt lat="47.637536" lon="-2.950008">
        <ele>28.289027</ele>
        <time>2025-06-25T10:46:51.535Z</time>
      </trkpt>
      <trkpt lat="47.637423" lon="-2.948968">
        <ele>27.541785</ele>
        <time>2025-06-25T10:47:00.151Z</time>
      </trkpt>
      <trkpt lat="47.637305" lon="-2.947923">
        <ele>27.306812</ele>
        <time>2025-06-25T10:47:11.665Z</time>
      </trkpt>
      <trkpt lat="47.637194" lon="-2.947228">
        <ele>27.426858</ele>
        <time>2025-06-25T10:47:20.737Z</time>
      </trkpt>
      <trkpt lat="47.636955" lon="-2.946207">
        <ele>27.608521</ele>
        <time>2025-06-25T10:47:32.856Z</time>
      </trkpt>
      <trkpt lat="47.636885" lon="-2.946191">
        <ele>27.626187</ele>
        <time>2025-06-25T10:47:33.849Z</time>
      </trkpt>
      <trkpt lat="47.636845" lon="-2.946147">
        <ele>27.638606</ele>
        <time>2025-06-25T10:47:34.548Z</time>
      </trkpt>
      <trkpt lat="47.636813" lon="-2.946037">
        <ele>27.647501</ele>
        <time>2025-06-25T10:47:35.653Z</time>
      </trkpt>
      <trkpt lat="47.636826" lon="-2.945937">
        <ele>27.579286</ele>
        <time>2025-06-25T10:47:36.568Z</time>
      </trkpt>
      <trkpt lat="47.636859" lon="-2.945878">
        <ele>27.527928</ele>
        <time>2025-06-25T10:47:37.264Z</time>
      </trkpt>
      <trkpt lat="47.636166" lon="-2.944206">
        <ele>26.213124</ele>
        <time>2025-06-25T10:47:52.913Z</time>
      </trkpt>
      <trkpt lat="47.636097" lon="-2.944040">
        <ele>26.082484</ele>
        <time>2025-06-25T10:47:54.413Z</time>
      </trkpt>
      <trkpt lat="47.635963" lon="-2.943725">
        <ele>25.852550</ele>
        <time>2025-06-25T10:47:57.366Z</time>
      </trkpt>
      <trkpt lat="47.635877" lon="-2.943524">
        <ele>25.780700</ele>
        <time>2025-06-25T10:47:59.305Z</time>
      </trkpt>
      <trkpt lat="47.635479" lon="-2.942634">
        <ele>25.458360</ele>
        <time>2025-06-25T10:48:08.914Z</time>
      </trkpt>
      <trkpt lat="47.635112" lon="-2.941779">
        <ele>25.152443</ele>
        <time>2025-06-25T10:48:18.328Z</time>
      </trkpt>
      <trkpt lat="47.634900" lon="-2.941417">
        <ele>25.099527</ele>
        <time>2025-06-25T10:48:22.985Z</time>
      </trkpt>
      <trkpt lat="47.634798" lon="-2.941239">
        <ele>25.145883</ele>
        <time>2025-06-25T10:48:25.440Z</time>
      </trkpt>
      <trkpt lat="47.634410" lon="-2.940603">
        <ele>25.316090</ele>
        <time>2025-06-25T10:48:34.922Z</time>
      </trkpt>
      <trkpt lat="47.634382" lon="-2.940560">
        <ele>25.327954</ele>
        <time>2025-06-25T10:48:35.596Z</time>
      </trkpt>
      <trkpt lat="47.633682" lon="-2.939196">
        <ele>25.703520</ele>
        <time>2025-06-25T10:48:54.680Z</time>
      </trkpt>
      <trkpt lat="47.633216" lon="-2.938119">
        <ele>26.076628</ele>
        <time>2025-06-25T10:49:08.981Z</time>
      </trkpt>
      <trkpt lat="47.633078" lon="-2.937799">
        <ele>26.187380</ele>
        <time>2025-06-25T10:49:13.056Z</time>
      </trkpt>
      <trkpt lat="47.632247" lon="-2.935802">
        <ele>27.103456</ele>
        <time>2025-06-25T10:49:39.851Z</time>
      </trkpt>
      <trkpt lat="47.631666" lon="-2.934078">
        <ele>28.210288</ele>
        <time>2025-06-25T10:50:03.287Z</time>
      </trkpt>
      <trkpt lat="47.631631" lon="-2.934106">
        <ele>28.252658</ele>
        <time>2025-06-25T10:50:04.062Z</time>
      </trkpt>
      <trkpt lat="47.631417" lon="-2.933338">
        <ele>28.849433</ele>
        <time>2025-06-25T10:50:18.058Z</time>
      </trkpt>
      <trkpt lat="47.630690" lon="-2.930394">
        <ele>30.965262</ele>
        <time>2025-06-25T10:51:11.986Z</time>
      </trkpt>
      <trkpt lat="47.630164" lon="-2.928396">
        <ele>30.037361</ele>
        <time>2025-06-25T10:51:39.040Z</time>
      </trkpt>
      <trkpt lat="47.629832" lon="-2.927402">
        <ele>29.191945</ele>
        <time>2025-06-25T10:51:50.595Z</time>
      </trkpt>
      <trkpt lat="47.629442" lon="-2.926521">
        <ele>27.928837</ele>
        <time>2025-06-25T10:52:01.412Z</time>
      </trkpt>
      <trkpt lat="47.629147" lon="-2.925962">
        <ele>27.078032</ele>
        <time>2025-06-25T10:52:09.125Z</time>
      </trkpt>
      <trkpt lat="47.629010" lon="-2.925740">
        <ele>26.717318</ele>
        <time>2025-06-25T10:52:12.545Z</time>
      </trkpt>
      <trkpt lat="47.628713" lon="-2.925257">
        <ele>26.190001</ele>
        <time>2025-06-25T10:52:20.274Z</time>
      </trkpt>
      <trkpt lat="47.628091" lon="-2.924370">
        <ele>25.751032</ele>
        <time>2025-06-25T10:52:36.327Z</time>
      </trkpt>
      <trkpt lat="47.626603" lon="-2.922457">
        <ele>24.861390</ele>
        <time>2025-06-25T10:53:14.182Z</time>
      </trkpt>
      <trkpt lat="47.626037" lon="-2.921824">
        <ele>24.526835</ele>
        <time>2025-06-25T10:53:27.216Z</time>
      </trkpt>
      <trkpt lat="47.625996" lon="-2.921816">
        <ele>24.498617</ele>
        <time>2025-06-25T10:53:27.936Z</time>
      </trkpt>
      <trkpt lat="47.625936" lon="-2.921875">
        <ele>24.449500</ele>
        <time>2025-06-25T10:53:29.232Z</time>
      </trkpt>
      <trkpt lat="47.625834" lon="-2.921879">
        <ele>24.379874</ele>
        <time>2025-06-25T10:53:31.024Z</time>
      </trkpt>
      <trkpt lat="47.625727" lon="-2.921746">
        <ele>24.284625</ele>
        <time>2025-06-25T10:53:33.465Z</time>
      </trkpt>
      <trkpt lat="47.625711" lon="-2.921600">
        <ele>24.216599</ele>
        <time>2025-06-25T10:53:35.230Z</time>
      </trkpt>
      <trkpt lat="47.625729" lon="-2.921372">
        <ele>24.111025</ele>
        <time>2025-06-25T10:53:37.919Z</time>
      </trkpt>
      <trkpt lat="47.625685" lon="-2.921189">
        <ele>24.021669</ele>
        <time>2025-06-25T10:53:40.190Z</time>
      </trkpt>
      <trkpt lat="47.625194" lon="-2.920277">
        <ele>23.484852</ele>
        <time>2025-06-25T10:53:54.035Z</time>
      </trkpt>
      <trkpt lat="47.624079" lon="-2.917678">
        <ele>23.917628</ele>
        <time>2025-06-25T10:54:35.576Z</time>
      </trkpt>
      <trkpt lat="47.623869" lon="-2.917140">
        <ele>24.990380</ele>
        <time>2025-06-25T10:54:47.874Z</time>
      </trkpt>
      <trkpt lat="47.622993" lon="-2.915106">
        <ele>28.535033</ele>
        <time>2025-06-25T10:55:42.844Z</time>
      </trkpt>
      <trkpt lat="47.622769" lon="-2.914635">
        <ele>28.924596</ele>
        <time>2025-06-25T10:55:53.481Z</time>
      </trkpt>
      <trkpt lat="47.621552" lon="-2.912351">
        <ele>29.522615</ele>
        <time>2025-06-25T10:56:30.580Z</time>
      </trkpt>
      <trkpt lat="47.621301" lon="-2.911736">
        <ele>29.310308</ele>
        <time>2025-06-25T10:56:39.375Z</time>
      </trkpt>
      <trkpt lat="47.621150" lon="-2.911081">
        <ele>29.163285</ele>
        <time>2025-06-25T10:56:48.056Z</time>
      </trkpt>
      <trkpt lat="47.620981" lon="-2.909252">
        <ele>29.310556</ele>
        <time>2025-06-25T10:57:12.919Z</time>
      </trkpt>
      <trkpt lat="47.620892" lon="-2.908281">
        <ele>29.635614</ele>
        <time>2025-06-25T10:57:27.896Z</time>
      </trkpt>
      <trkpt lat="47.620854" lon="-2.908095">
        <ele>29.805610</ele>
        <time>2025-06-25T10:57:31.107Z</time>
      </trkpt>
      <trkpt lat="47.620746" lon="-2.907836">
        <ele>30.071995</ele>
        <time>2025-06-25T10:57:36.246Z</time>
      </trkpt>
      <trkpt lat="47.620767" lon="-2.907817">
        <ele>30.103913</ele>
        <time>2025-06-25T10:57:37.264Z</time>
      </trkpt>
      <trkpt lat="47.620674" lon="-2.907681">
        <ele>30.273366</ele>
        <time>2025-06-25T10:57:39.897Z</time>
      </trkpt>
      <trkpt lat="47.620613" lon="-2.907694">
        <ele>30.353336</ele>
        <time>2025-06-25T10:57:41.140Z</time>
      </trkpt>
      <trkpt lat="47.620496" lon="-2.907652">
        <ele>30.509543</ele>
        <time>2025-06-25T10:57:43.685Z</time>
      </trkpt>
      <trkpt lat="47.620438" lon="-2.907587">
        <ele>30.603867</ele>
        <time>2025-06-25T10:57:45.268Z</time>
      </trkpt>
      <trkpt lat="47.620373" lon="-2.907396">
        <ele>30.791015</ele>
        <time>2025-06-25T10:57:48.434Z</time>
      </trkpt>
      <trkpt lat="47.620393" lon="-2.907185">
        <ele>30.977387</ele>
        <time>2025-06-25T10:57:51.613Z</time>
      </trkpt>
      <trkpt lat="47.620491" lon="-2.907029">
        <ele>31.163909</ele>
        <time>2025-06-25T10:57:54.800Z</time>
      </trkpt>
      <trkpt lat="47.620589" lon="-2.906984">
        <ele>31.297031</ele>
        <time>2025-06-25T10:57:57.052Z</time>
      </trkpt>
      <trkpt lat="47.620640" lon="-2.906985">
        <ele>31.363217</ele>
        <time>2025-06-25T10:57:58.187Z</time>
      </trkpt>
      <trkpt lat="47.620753" lon="-2.906868">
        <ele>31.542032</ele>
        <time>2025-06-25T10:58:01.179Z</time>
      </trkpt>
      <trkpt lat="47.620826" lon="-2.906710">
        <ele>31.703329</ele>
        <time>2025-06-25T10:58:03.951Z</time>
      </trkpt>
      <trkpt lat="47.620918" lon="-2.906255">
        <ele>31.895068</ele>
        <time>2025-06-25T10:58:10.462Z</time>
      </trkpt>
      <trkpt lat="47.620957" lon="-2.905415">
        <ele>32.234925</ele>
        <time>2025-06-25T10:58:20.481Z</time>
      </trkpt>
      <trkpt lat="47.621102" lon="-2.903870">
        <ele>32.780770</ele>
        <time>2025-06-25T10:58:36.455Z</time>
      </trkpt>
      <trkpt lat="47.621831" lon="-2.898381">
        <ele>32.159079</ele>
        <time>2025-06-25T10:59:32.596Z</time>
      </trkpt>
      <trkpt lat="47.621809" lon="-2.898309">
        <ele>32.070052</ele>
        <time>2025-06-25T10:59:33.200Z</time>
      </trkpt>
      <trkpt lat="47.621850" lon="-2.898263">
        <ele>31.984167</ele>
        <time>2025-06-25T10:59:33.784Z</time>
      </trkpt>
      <trkpt lat="47.621994" lon="-2.897101">
        <ele>30.653634</ele>
        <time>2025-06-25T10:59:42.480Z</time>
      </trkpt>
      <trkpt lat="47.622093" lon="-2.896079">
        <ele>29.519671</ele>
        <time>2025-06-25T10:59:49.844Z</time>
      </trkpt>
      <trkpt lat="47.622147" lon="-2.895020">
        <ele>28.493565</ele>
        <time>2025-06-25T10:59:57.859Z</time>
      </trkpt>
      <trkpt lat="47.622147" lon="-2.893781">
        <ele>27.296471</ele>
        <time>2025-06-25T11:00:07.944Z</time>
      </trkpt>
      <trkpt lat="47.622028" lon="-2.887156">
        <ele>24.092936</ele>
        <time>2025-06-25T11:01:06.433Z</time>
      </trkpt>
      <trkpt lat="47.622028" lon="-2.886880">
        <ele>23.863697</ele>
        <time>2025-06-25T11:01:08.594Z</time>
      </trkpt>
      <trkpt lat="47.622029" lon="-2.886763">
        <ele>23.766511</ele>
        <time>2025-06-25T11:01:09.504Z</time>
      </trkpt>
      <trkpt lat="47.622032" lon="-2.886379">
        <ele>23.447549</ele>
        <time>2025-06-25T11:01:12.456Z</time>
      </trkpt>
      <trkpt lat="47.622069" lon="-2.884159">
        <ele>21.065465</ele>
        <time>2025-06-25T11:01:29.041Z</time>
      </trkpt>
      <trkpt lat="47.622162" lon="-2.878351">
        <ele>13.890619</ele>
        <time>2025-06-25T11:02:13.233Z</time>
      </trkpt>
      <trkpt lat="47.622106" lon="-2.877448">
        <ele>12.621649</ele>
        <time>2025-06-25T11:02:19.604Z</time>
      </trkpt>
      <trkpt lat="47.622044" lon="-2.876884">
        <ele>11.726671</ele>
        <time>2025-06-25T11:02:23.553Z</time>
      </trkpt>
      <trkpt lat="47.621897" lon="-2.875922">
        <ele>10.181801</ele>
        <time>2025-06-25T11:02:30.503Z</time>
      </trkpt>
      <trkpt lat="47.621758" lon="-2.875238">
        <ele>9.062922</ele>
        <time>2025-06-25T11:02:35.899Z</time>
      </trkpt>
      <trkpt lat="47.621390" lon="-2.873717">
        <ele>7.403284</ele>
        <time>2025-06-25T11:02:48.341Z</time>
      </trkpt>
      <trkpt lat="47.621183" lon="-2.872654">
        <ele>6.377931</ele>
        <time>2025-06-25T11:02:57.510Z</time>
      </trkpt>
      <trkpt lat="47.621068" lon="-2.872019">
        <ele>5.704224</ele>
        <time>2025-06-25T11:03:02.783Z</time>
      </trkpt>
      <trkpt lat="47.620888" lon="-2.871578">
        <ele>5.153985</ele>
        <time>2025-06-25T11:03:06.625Z</time>
      </trkpt>
      <trkpt lat="47.620808" lon="-2.871562">
        <ele>5.026166</ele>
        <time>2025-06-25T11:03:07.479Z</time>
      </trkpt>
      <trkpt lat="47.620729" lon="-2.871495">
        <ele>4.882079</ele>
        <time>2025-06-25T11:03:08.442Z</time>
      </trkpt>
      <trkpt lat="47.620655" lon="-2.871302">
        <ele>4.645100</ele>
        <time>2025-06-25T11:03:10.044Z</time>
      </trkpt>
      <trkpt lat="47.620665" lon="-2.871130">
        <ele>4.460845</ele>
        <time>2025-06-25T11:03:11.314Z</time>
      </trkpt>
      <trkpt lat="47.620708" lon="-2.871021">
        <ele>4.326052</ele>
        <time>2025-06-25T11:03:12.231Z</time>
      </trkpt>
      <trkpt lat="47.620812" lon="-2.870921">
        <ele>4.129815</ele>
        <time>2025-06-25T11:03:13.611Z</time>
      </trkpt>
      <trkpt lat="47.620915" lon="-2.870911">
        <ele>3.966374</ele>
        <time>2025-06-25T11:03:14.796Z</time>
      </trkpt>
      <trkpt lat="47.620976" lon="-2.870793">
        <ele>3.807661</ele>
        <time>2025-06-25T11:03:15.939Z</time>
      </trkpt>
      <trkpt lat="47.621136" lon="-2.870464">
        <ele>3.374672</ele>
        <time>2025-06-25T11:03:19.162Z</time>
      </trkpt>
      <trkpt lat="47.621187" lon="-2.870274">
        <ele>3.478873</ele>
        <time>2025-06-25T11:03:20.842Z</time>
      </trkpt>
      <trkpt lat="47.621216" lon="-2.870162">
        <ele>3.569710</ele>
        <time>2025-06-25T11:03:21.876Z</time>
      </trkpt>
      <trkpt lat="47.621311" lon="-2.869802">
        <ele>3.862411</ele>
        <time>2025-06-25T11:03:25.194Z</time>
      </trkpt>
      <trkpt lat="47.621536" lon="-2.869154">
        <ele>4.414282</ele>
        <time>2025-06-25T11:03:33.411Z</time>
      </trkpt>
      <trkpt lat="47.623020" lon="-2.866221">
        <ele>9.620800</ele>
        <time>2025-06-25T11:04:37.697Z</time>
      </trkpt>
      <trkpt lat="47.623227" lon="-2.865766">
        <ele>10.383757</ele>
        <time>2025-06-25T11:04:46.359Z</time>
      </trkpt>
      <trkpt lat="47.624479" lon="-2.862732">
        <ele>13.297073</ele>
        <time>2025-06-25T11:05:35.110Z</time>
      </trkpt>
      <trkpt lat="47.624480" lon="-2.862730">
        <ele>13.297909</ele>
        <time>2025-06-25T11:05:35.140Z</time>
      </trkpt>
      <trkpt lat="47.625189" lon="-2.861077">
        <ele>13.290112</ele>
        <time>2025-06-25T11:05:54.315Z</time>
      </trkpt>
      <trkpt lat="47.625141" lon="-2.860948">
        <ele>13.132463</ele>
        <time>2025-06-25T11:05:55.481Z</time>
      </trkpt>
      <trkpt lat="47.625162" lon="-2.860853">
        <ele>13.025499</ele>
        <time>2025-06-25T11:05:56.280Z</time>
      </trkpt>
      <trkpt lat="47.625057" lon="-2.860720">
        <ele>12.806347</ele>
        <time>2025-06-25T11:05:57.865Z</time>
      </trkpt>
      <trkpt lat="47.624966" lon="-2.860447">
        <ele>12.480504</ele>
        <time>2025-06-25T11:06:00.139Z</time>
      </trkpt>
      <trkpt lat="47.624675" lon="-2.859589">
        <ele>11.452881</ele>
        <time>2025-06-25T11:06:07.050Z</time>
      </trkpt>
      <trkpt lat="47.624648" lon="-2.859532">
        <ele>11.378344</ele>
        <time>2025-06-25T11:06:07.550Z</time>
      </trkpt>
      <trkpt lat="47.624551" lon="-2.859348">
        <ele>11.128421</ele>
        <time>2025-06-25T11:06:09.235Z</time>
      </trkpt>
      <trkpt lat="47.624465" lon="-2.859180">
        <ele>10.920195</ele>
        <time>2025-06-25T11:06:10.766Z</time>
      </trkpt>
      <trkpt lat="47.624128" lon="-2.858573">
        <ele>10.456170</ele>
        <time>2025-06-25T11:06:16.706Z</time>
      </trkpt>
      <trkpt lat="47.623967" lon="-2.857734">
        <ele>9.941445</ele>
        <time>2025-06-25T11:06:24.308Z</time>
      </trkpt>
      <trkpt lat="47.623953" lon="-2.857536">
        <ele>9.823974</ele>
        <time>2025-06-25T11:06:26.267Z</time>
      </trkpt>
      <trkpt lat="47.623856" lon="-2.856105">
        <ele>9.326181</ele>
        <time>2025-06-25T11:06:40.179Z</time>
      </trkpt>
      <trkpt lat="47.623790" lon="-2.855049">
        <ele>9.260878</ele>
        <time>2025-06-25T11:06:51.034Z</time>
      </trkpt>
      <trkpt lat="47.623744" lon="-2.854208">
        <ele>9.208922</ele>
        <time>2025-06-25T11:06:58.655Z</time>
      </trkpt>
      <trkpt lat="47.623629" lon="-2.853497">
        <ele>9.436899</ele>
        <time>2025-06-25T11:07:05.755Z</time>
      </trkpt>
      <trkpt lat="47.623652" lon="-2.853294">
        <ele>9.513325</ele>
        <time>2025-06-25T11:07:08.051Z</time>
      </trkpt>
      <trkpt lat="47.623937" lon="-2.852792">
        <ele>9.757014</ele>
        <time>2025-06-25T11:07:15.201Z</time>
      </trkpt>
      <trkpt lat="47.624029" lon="-2.852497">
        <ele>9.877695</ele>
        <time>2025-06-25T11:07:18.654Z</time>
      </trkpt>
      <trkpt lat="47.624045" lon="-2.852090">
        <ele>10.029060</ele>
        <time>2025-06-25T11:07:23.142Z</time>
      </trkpt>
      <trkpt lat="47.624010" lon="-2.850690">
        <ele>12.072940</ele>
        <time>2025-06-25T11:07:44.494Z</time>
      </trkpt>
      <trkpt lat="47.623944" lon="-2.850360">
        <ele>12.748249</ele>
        <time>2025-06-25T11:07:50.941Z</time>
      </trkpt>
      <trkpt lat="47.623640" lon="-2.849814">
        <ele>14.137639</ele>
        <time>2025-06-25T11:08:05.096Z</time>
      </trkpt>
      <trkpt lat="47.622891" lon="-2.848613">
        <ele>17.029688</ele>
        <time>2025-06-25T11:08:38.061Z</time>
      </trkpt>
      <trkpt lat="47.622679" lon="-2.848292">
        <ele>17.765235</ele>
        <time>2025-06-25T11:08:45.713Z</time>
      </trkpt>
      <trkpt lat="47.622600" lon="-2.848118">
        <ele>18.108603</ele>
        <time>2025-06-25T11:08:49.082Z</time>
      </trkpt>
      <trkpt lat="47.622598" lon="-2.847976">
        <ele>18.341063</ele>
        <time>2025-06-25T11:08:51.298Z</time>
      </trkpt>
      <trkpt lat="47.622650" lon="-2.847872">
        <ele>18.553000</ele>
        <time>2025-06-25T11:08:53.314Z</time>
      </trkpt>
      <trkpt lat="47.624078" lon="-2.845947">
        <ele>20.774738</ele>
        <time>2025-06-25T11:09:28.479Z</time>
      </trkpt>
      <trkpt lat="47.623928" lon="-2.845642">
        <ele>20.950373</ele>
        <time>2025-06-25T11:09:32.315Z</time>
      </trkpt>
      <trkpt lat="47.623691" lon="-2.844904">
        <ele>21.083827</ele>
        <time>2025-06-25T11:09:40.421Z</time>
      </trkpt>
      <trkpt lat="47.623054" lon="-2.842541">
        <ele>21.299616</ele>
        <time>2025-06-25T11:10:06.468Z</time>
      </trkpt>
      <trkpt lat="47.622968" lon="-2.842334">
        <ele>21.331883</ele>
        <time>2025-06-25T11:10:09.262Z</time>
      </trkpt>
      <trkpt lat="47.622888" lon="-2.842228">
        <ele>21.352999</ele>
        <time>2025-06-25T11:10:11.111Z</time>
      </trkpt>
      <trkpt lat="47.622750" lon="-2.842156">
        <ele>21.381798</ele>
        <time>2025-06-25T11:10:13.652Z</time>
      </trkpt>
      <trkpt lat="47.622637" lon="-2.842145">
        <ele>21.404093</ele>
        <time>2025-06-25T11:10:15.652Z</time>
      </trkpt>
      <trkpt lat="47.621591" lon="-2.842566">
        <ele>21.378157</ele>
        <time>2025-06-25T11:10:33.267Z</time>
      </trkpt>
      <trkpt lat="47.621298" lon="-2.840321">
        <ele>19.326640</ele>
        <time>2025-06-25T11:10:51.363Z</time>
      </trkpt>
      <trkpt lat="47.621095" lon="-2.838766">
        <ele>16.193174</ele>
        <time>2025-06-25T11:11:02.098Z</time>
      </trkpt>
      <trkpt lat="47.622780" lon="-2.836673">
        <ele>9.771802</ele>
        <time>2025-06-25T11:11:24.353Z</time>
      </trkpt>
      <trkpt lat="47.621971" lon="-2.836503">
        <ele>7.977048</ele>
        <time>2025-06-25T11:11:33.449Z</time>
      </trkpt>
      <trkpt lat="47.621474" lon="-2.836266">
        <ele>7.192449</ele>
        <time>2025-06-25T11:11:39.752Z</time>
      </trkpt>
      <trkpt lat="47.621150" lon="-2.835942">
        <ele>6.605207</ele>
        <time>2025-06-25T11:11:44.443Z</time>
      </trkpt>
      <trkpt lat="47.620911" lon="-2.835548">
        <ele>6.068238</ele>
        <time>2025-06-25T11:11:48.575Z</time>
      </trkpt>
      <trkpt lat="47.620825" lon="-2.835308">
        <ele>5.893830</ele>
        <time>2025-06-25T11:11:50.574Z</time>
      </trkpt>
      <trkpt lat="47.620747" lon="-2.835045">
        <ele>6.105989</ele>
        <time>2025-06-25T11:11:52.626Z</time>
      </trkpt>
      <trkpt lat="47.620746" lon="-2.835042">
        <ele>6.108460</ele>
        <time>2025-06-25T11:11:52.649Z</time>
      </trkpt>
      <trkpt lat="47.620591" lon="-2.834189">
        <ele>6.760779</ele>
        <time>2025-06-25T11:11:59.693Z</time>
      </trkpt>
      <trkpt lat="47.620505" lon="-2.833578">
        <ele>7.221658</ele>
        <time>2025-06-25T11:12:07.880Z</time>
      </trkpt>
      <trkpt lat="47.620506" lon="-2.833464">
        <ele>7.305840</ele>
        <time>2025-06-25T11:12:09.781Z</time>
      </trkpt>
      <trkpt lat="47.620533" lon="-2.833379">
        <ele>7.375222</ele>
        <time>2025-06-25T11:12:11.431Z</time>
      </trkpt>
      <trkpt lat="47.620574" lon="-2.833319">
        <ele>7.438309</ele>
        <time>2025-06-25T11:12:13.034Z</time>
      </trkpt>
      <trkpt lat="47.620706" lon="-2.833232">
        <ele>7.596535</ele>
        <time>2025-06-25T11:12:17.280Z</time>
      </trkpt>
      <trkpt lat="47.621656" lon="-2.832752">
        <ele>11.654024</ele>
        <time>2025-06-25T11:12:56.483Z</time>
      </trkpt>
      <trkpt lat="47.622229" lon="-2.832420">
        <ele>14.607814</ele>
        <time>2025-06-25T11:13:20.345Z</time>
      </trkpt>
      <trkpt lat="47.622653" lon="-2.832139">
        <ele>16.475685</ele>
        <time>2025-06-25T11:13:32.894Z</time>
      </trkpt>
      <trkpt lat="47.622342" lon="-2.831740">
        <ele>16.566255</ele>
        <time>2025-06-25T11:13:40.872Z</time>
      </trkpt>
      <trkpt lat="47.622220" lon="-2.831489">
        <ele>16.612201</ele>
        <time>2025-06-25T11:13:44.262Z</time>
      </trkpt>
      <trkpt lat="47.622135" lon="-2.831288">
        <ele>16.647432</ele>
        <time>2025-06-25T11:13:46.512Z</time>
      </trkpt>
      <trkpt lat="47.621761" lon="-2.829944">
        <ele>16.774792</ele>
        <time>2025-06-25T11:13:58.512Z</time>
      </trkpt>
      <trkpt lat="47.621732" lon="-2.829646">
        <ele>16.371217</ele>
        <time>2025-06-25T11:14:01.084Z</time>
      </trkpt>
      <trkpt lat="47.621748" lon="-2.829609">
        <ele>16.312293</ele>
        <time>2025-06-25T11:14:01.481Z</time>
      </trkpt>
      <trkpt lat="47.622351" lon="-2.828546">
        <ele>14.450022</ele>
        <time>2025-06-25T11:14:12.090Z</time>
      </trkpt>
      <trkpt lat="47.622528" lon="-2.828251">
        <ele>13.920642</ele>
        <time>2025-06-25T11:14:14.868Z</time>
      </trkpt>
      <trkpt lat="47.623158" lon="-2.827232">
        <ele>11.533907</ele>
        <time>2025-06-25T11:14:24.306Z</time>
      </trkpt>
      <trkpt lat="47.623519" lon="-2.826577">
        <ele>9.900125</ele>
        <time>2025-06-25T11:14:30.029Z</time>
      </trkpt>
      <trkpt lat="47.623559" lon="-2.826510">
        <ele>9.727298</ele>
        <time>2025-06-25T11:14:30.648Z</time>
      </trkpt>
      <trkpt lat="47.623098" lon="-2.826054">
        <ele>8.139982</ele>
        <time>2025-06-25T11:14:36.500Z</time>
      </trkpt>
      <trkpt lat="47.622677" lon="-2.825750">
        <ele>7.694298</ele>
        <time>2025-06-25T11:14:41.733Z</time>
      </trkpt>
      <trkpt lat="47.622120" lon="-2.825520">
        <ele>7.156653</ele>
        <time>2025-06-25T11:14:48.664Z</time>
      </trkpt>
      <trkpt lat="47.621381" lon="-2.825365">
        <ele>6.462619</ele>
        <time>2025-06-25T11:14:59.106Z</time>
      </trkpt>
      <trkpt lat="47.621226" lon="-2.825337">
        <ele>6.590270</ele>
        <time>2025-06-25T11:15:01.570Z</time>
      </trkpt>
      <trkpt lat="47.621180" lon="-2.825331">
        <ele>6.634273</ele>
        <time>2025-06-25T11:15:02.322Z</time>
      </trkpt>
      <trkpt lat="47.621174" lon="-2.825376">
        <ele>6.663736</ele>
        <time>2025-06-25T11:15:02.820Z</time>
      </trkpt>
      <trkpt lat="47.619744" lon="-2.825149">
        <ele>8.034163</ele>
        <time>2025-06-25T11:15:30.392Z</time>
      </trkpt>
      <trkpt lat="47.619422" lon="-2.825131">
        <ele>8.471783</ele>
        <time>2025-06-25T11:15:37.229Z</time>
      </trkpt>
      <trkpt lat="47.619384" lon="-2.825097">
        <ele>8.545599</ele>
        <time>2025-06-25T11:15:38.157Z</time>
      </trkpt>
      <trkpt lat="47.619349" lon="-2.825112">
        <ele>8.606199</ele>
        <time>2025-06-25T11:15:38.916Z</time>
      </trkpt>
      <trkpt lat="47.619282" lon="-2.825064">
        <ele>8.729964</ele>
        <time>2025-06-25T11:15:40.424Z</time>
      </trkpt>
      <trkpt lat="47.619270" lon="-2.825029">
        <ele>8.773992</ele>
        <time>2025-06-25T11:15:40.955Z</time>
      </trkpt>
      <trkpt lat="47.618978" lon="-2.825364">
        <ele>9.388005</ele>
        <time>2025-06-25T11:15:48.730Z</time>
      </trkpt>
      <trkpt lat="47.618942" lon="-2.825508">
        <ele>9.560212</ele>
        <time>2025-06-25T11:15:51.100Z</time>
      </trkpt>
      <trkpt lat="47.618811" lon="-2.825961">
        <ele>10.112908</ele>
        <time>2025-06-25T11:15:59.523Z</time>
      </trkpt>
      <trkpt lat="47.618710" lon="-2.826210">
        <ele>10.438751</ele>
        <time>2025-06-25T11:16:04.464Z</time>
      </trkpt>
      <trkpt lat="47.618625" lon="-2.826325">
        <ele>10.630109</ele>
        <time>2025-06-25T11:16:07.184Z</time>
      </trkpt>
      <trkpt lat="47.618396" lon="-2.826466">
        <ele>11.042539</ele>
        <time>2025-06-25T11:16:12.305Z</time>
      </trkpt>
      <trkpt lat="47.617887" lon="-2.826690">
        <ele>11.525250</ele>
        <time>2025-06-25T11:16:21.402Z</time>
      </trkpt>
      <trkpt lat="47.617618" lon="-2.826807">
        <ele>11.748311</ele>
        <time>2025-06-25T11:16:25.472Z</time>
      </trkpt>
      <trkpt lat="47.617272" lon="-2.826961">
        <ele>12.035758</ele>
        <time>2025-06-25T11:16:31.471Z</time>
      </trkpt>
      <trkpt lat="47.617138" lon="-2.827148">
        <ele>12.182150</ele>
        <time>2025-06-25T11:16:34.937Z</time>
      </trkpt>
      <trkpt lat="47.617106" lon="-2.827238">
        <ele>12.236729</ele>
        <time>2025-06-25T11:16:36.183Z</time>
      </trkpt>
      <trkpt lat="47.617085" lon="-2.827566">
        <ele>12.413455</ele>
        <time>2025-06-25T11:16:40.185Z</time>
      </trkpt>
      <trkpt lat="47.617081" lon="-2.827876">
        <ele>12.579766</ele>
        <time>2025-06-25T11:16:43.860Z</time>
      </trkpt>
      <trkpt lat="47.617057" lon="-2.827975">
        <ele>12.664514</ele>
        <time>2025-06-25T11:16:45.105Z</time>
      </trkpt>
      <trkpt lat="47.617087" lon="-2.828056">
        <ele>12.743990</ele>
        <time>2025-06-25T11:16:46.325Z</time>
      </trkpt>
      <trkpt lat="47.617060" lon="-2.828115">
        <ele>12.805313</ele>
        <time>2025-06-25T11:16:47.190Z</time>
      </trkpt>
      <trkpt lat="47.617077" lon="-2.828228">
        <ele>12.904877</ele>
        <time>2025-06-25T11:16:48.771Z</time>
      </trkpt>
      <trkpt lat="47.617056" lon="-2.828495">
        <ele>13.136037</ele>
        <time>2025-06-25T11:16:52.518Z</time>
      </trkpt>
      <trkpt lat="47.616918" lon="-2.828993">
        <ele>13.599060</ele>
        <time>2025-06-25T11:17:00.727Z</time>
      </trkpt>
      <trkpt lat="47.616777" lon="-2.829267">
        <ele>13.895494</ele>
        <time>2025-06-25T11:17:06.450Z</time>
      </trkpt>
      <trkpt lat="47.616003" lon="-2.830464">
        <ele>14.455384</ele>
        <time>2025-06-25T11:17:28.512Z</time>
      </trkpt>
      <trkpt lat="47.614347" lon="-2.833059">
        <ele>9.793807</ele>
        <time>2025-06-25T11:17:54.915Z</time>
      </trkpt>
      <trkpt lat="47.613629" lon="-2.834137">
        <ele>6.832786</ele>
        <time>2025-06-25T11:18:04.886Z</time>
      </trkpt>
      <trkpt lat="47.613070" lon="-2.834984">
        <ele>4.845906</ele>
        <time>2025-06-25T11:18:12.598Z</time>
      </trkpt>
      <trkpt lat="47.612994" lon="-2.835284">
        <ele>4.308701</ele>
        <time>2025-06-25T11:18:27.588Z</time>
      </trkpt>
      <trkpt lat="47.612885" lon="-2.835540">
        <ele>3.801160</ele>
        <time>2025-06-25T11:18:41.802Z</time>
      </trkpt>
      <trkpt lat="47.612776" lon="-2.835723">
        <ele>3.391828</ele>
        <time>2025-06-25T11:18:53.233Z</time>
      </trkpt>
      <trkpt lat="47.612711" lon="-2.835823">
        <ele>3.158977</ele>
        <time>2025-06-25T11:18:59.762Z</time>
      </trkpt>
      <trkpt lat="47.612776" lon="-2.835723">
        <ele>2.926125</ele>
        <time>2025-06-25T11:19:06.291Z</time>
      </trkpt>
      <trkpt lat="47.612885" lon="-2.835540">
        <ele>3.152604</ele>
        <time>2025-06-25T11:19:17.722Z</time>
      </trkpt>
      <trkpt lat="47.612994" lon="-2.835284">
        <ele>3.787269</ele>
        <time>2025-06-25T11:19:31.936Z</time>
      </trkpt>
      <trkpt lat="47.613070" lon="-2.834984">
        <ele>4.459029</ele>
        <time>2025-06-25T11:19:46.925Z</time>
      </trkpt>
      <trkpt lat="47.613629" lon="-2.834137">
        <ele>6.943566</ele>
        <time>2025-06-25T11:20:12.543Z</time>
      </trkpt>
      <trkpt lat="47.614347" lon="-2.833059">
        <ele>9.886300</ele>
        <time>2025-06-25T11:20:44.079Z</time>
      </trkpt>
      <trkpt lat="47.616003" lon="-2.830464">
        <ele>14.162167</ele>
        <time>2025-06-25T11:21:39.309Z</time>
      </trkpt>
      <trkpt lat="47.616777" lon="-2.829267">
        <ele>13.979911</ele>
        <time>2025-06-25T11:21:52.488Z</time>
      </trkpt>
      <trkpt lat="47.616918" lon="-2.828993">
        <ele>13.650073</ele>
        <time>2025-06-25T11:21:54.914Z</time>
      </trkpt>
      <trkpt lat="47.617056" lon="-2.828495">
        <ele>13.134874</ele>
        <time>2025-06-25T11:21:58.908Z</time>
      </trkpt>
      <trkpt lat="47.617077" lon="-2.828228">
        <ele>12.877666</ele>
        <time>2025-06-25T11:22:00.950Z</time>
      </trkpt>
      <trkpt lat="47.617060" lon="-2.828115">
        <ele>12.766883</ele>
        <time>2025-06-25T11:22:01.820Z</time>
      </trkpt>
      <trkpt lat="47.617008" lon="-2.828116">
        <ele>12.693064</ele>
        <time>2025-06-25T11:22:02.522Z</time>
      </trkpt>
      <trkpt lat="47.616981" lon="-2.828050">
        <ele>12.619193</ele>
        <time>2025-06-25T11:22:03.085Z</time>
      </trkpt>
      <trkpt lat="47.617004" lon="-2.827980">
        <ele>12.544681</ele>
        <time>2025-06-25T11:22:03.761Z</time>
      </trkpt>
      <trkpt lat="47.617057" lon="-2.827975">
        <ele>12.469298</ele>
        <time>2025-06-25T11:22:04.514Z</time>
      </trkpt>
      <trkpt lat="47.617081" lon="-2.827876">
        <ele>12.368631</ele>
        <time>2025-06-25T11:22:05.332Z</time>
      </trkpt>
      <trkpt lat="47.617085" lon="-2.827566">
        <ele>12.096207</ele>
        <time>2025-06-25T11:22:08.140Z</time>
      </trkpt>
      <trkpt lat="47.617106" lon="-2.827238">
        <ele>11.955163</ele>
        <time>2025-06-25T11:22:10.989Z</time>
      </trkpt>
      <trkpt lat="47.617138" lon="-2.827148">
        <ele>11.911605</ele>
        <time>2025-06-25T11:22:11.897Z</time>
      </trkpt>
      <trkpt lat="47.617272" lon="-2.826961">
        <ele>11.794771</ele>
        <time>2025-06-25T11:22:14.302Z</time>
      </trkpt>
      <trkpt lat="47.617618" lon="-2.826807">
        <ele>11.565363</ele>
        <time>2025-06-25T11:22:19.611Z</time>
      </trkpt>
      <trkpt lat="47.617887" lon="-2.826690">
        <ele>11.387340</ele>
        <time>2025-06-25T11:22:23.865Z</time>
      </trkpt>
      <trkpt lat="47.618396" lon="-2.826466">
        <ele>11.050171</ele>
        <time>2025-06-25T11:22:30.805Z</time>
      </trkpt>
      <trkpt lat="47.618625" lon="-2.826325">
        <ele>10.910468</ele>
        <time>2025-06-25T11:22:33.665Z</time>
      </trkpt>
      <trkpt lat="47.618710" lon="-2.826210">
        <ele>10.853450</ele>
        <time>2025-06-25T11:22:34.923Z</time>
      </trkpt>
      <trkpt lat="47.618811" lon="-2.825961">
        <ele>10.756359</ele>
        <time>2025-06-25T11:22:37.032Z</time>
      </trkpt>
      <trkpt lat="47.618942" lon="-2.825508">
        <ele>10.591675</ele>
        <time>2025-06-25T11:22:40.697Z</time>
      </trkpt>
      <trkpt lat="47.618978" lon="-2.825364">
        <ele>10.540363</ele>
        <time>2025-06-25T11:22:41.960Z</time>
      </trkpt>
      <trkpt lat="47.619270" lon="-2.825029">
        <ele>10.357408</ele>
        <time>2025-06-25T11:22:47.010Z</time>
      </trkpt>
      <trkpt lat="47.619286" lon="-2.824921">
        <ele>10.320465</ele>
        <time>2025-06-25T11:22:48.222Z</time>
      </trkpt>
      <trkpt lat="47.619357" lon="-2.824882">
        <ele>10.282939</ele>
        <time>2025-06-25T11:22:49.357Z</time>
      </trkpt>
      <trkpt lat="47.619633" lon="-2.824209">
        <ele>10.335183</ele>
        <time>2025-06-25T11:22:58.565Z</time>
      </trkpt>
      <trkpt lat="47.619755" lon="-2.824023">
        <ele>10.687139</ele>
        <time>2025-06-25T11:23:02.113Z</time>
      </trkpt>
      <trkpt lat="47.619936" lon="-2.823829">
        <ele>11.136389</ele>
        <time>2025-06-25T11:23:07.349Z</time>
      </trkpt>
      <trkpt lat="47.620226" lon="-2.823378">
        <ele>11.981663</ele>
        <time>2025-06-25T11:23:19.094Z</time>
      </trkpt>
      <trkpt lat="47.620442" lon="-2.823048">
        <ele>12.605462</ele>
        <time>2025-06-25T11:23:27.920Z</time>
      </trkpt>
      <trkpt lat="47.620930" lon="-2.822285">
        <ele>13.679339</ele>
        <time>2025-06-25T11:23:43.725Z</time>
      </trkpt>
      <trkpt lat="47.621161" lon="-2.822002">
        <ele>13.640226</ele>
        <time>2025-06-25T11:23:48.806Z</time>
      </trkpt>
      <trkpt lat="47.621651" lon="-2.821643">
        <ele>13.568877</ele>
        <time>2025-06-25T11:23:55.832Z</time>
      </trkpt>
      <trkpt lat="47.621829" lon="-2.821512">
        <ele>13.542935</ele>
        <time>2025-06-25T11:23:58.106Z</time>
      </trkpt>
      <trkpt lat="47.622023" lon="-2.821410">
        <ele>13.516063</ele>
        <time>2025-06-25T11:24:00.417Z</time>
      </trkpt>
      <trkpt lat="47.622132" lon="-2.821387">
        <ele>13.501689</ele>
        <time>2025-06-25T11:24:01.670Z</time>
      </trkpt>
      <trkpt lat="47.622877" lon="-2.821524">
        <ele>14.277609</ele>
        <time>2025-06-25T11:24:12.303Z</time>
      </trkpt>
      <trkpt lat="47.623166" lon="-2.821491">
        <ele>14.770514</ele>
        <time>2025-06-25T11:24:18.267Z</time>
      </trkpt>
      <trkpt lat="47.623237" lon="-2.821451">
        <ele>14.899663</ele>
        <time>2025-06-25T11:24:20.008Z</time>
      </trkpt>
      <trkpt lat="47.623306" lon="-2.821413">
        <ele>15.024822</ele>
        <time>2025-06-25T11:24:21.686Z</time>
      </trkpt>
      <trkpt lat="47.623413" lon="-2.821283">
        <ele>15.260001</ele>
        <time>2025-06-25T11:24:25.026Z</time>
      </trkpt>
      <trkpt lat="47.623689" lon="-2.820734">
        <ele>16.045000</ele>
        <time>2025-06-25T11:24:37.321Z</time>
      </trkpt>
      <trkpt lat="47.623768" lon="-2.820646">
        <ele>16.212990</ele>
        <time>2025-06-25T11:24:40.185Z</time>
      </trkpt>
      <trkpt lat="47.623873" lon="-2.820588">
        <ele>16.403518</ele>
        <time>2025-06-25T11:24:43.485Z</time>
      </trkpt>
      <trkpt lat="47.624444" lon="-2.820557">
        <ele>17.710544</ele>
        <time>2025-06-25T11:24:59.555Z</time>
      </trkpt>
      <trkpt lat="47.624567" lon="-2.820516">
        <ele>18.009453</ele>
        <time>2025-06-25T11:25:02.809Z</time>
      </trkpt>
      <trkpt lat="47.624708" lon="-2.820416">
        <ele>18.380003</ele>
        <time>2025-06-25T11:25:06.637Z</time>
      </trkpt>
      <trkpt lat="47.625064" lon="-2.820047">
        <ele>19.409674</ele>
        <time>2025-06-25T11:25:16.662Z</time>
      </trkpt>
      <trkpt lat="47.625245" lon="-2.819886">
        <ele>19.910049</ele>
        <time>2025-06-25T11:25:21.249Z</time>
      </trkpt>
      <trkpt lat="47.625444" lon="-2.819782">
        <ele>20.410303</ele>
        <time>2025-06-25T11:25:25.744Z</time>
      </trkpt>
      <trkpt lat="47.625738" lon="-2.819804">
        <ele>21.133868</ele>
        <time>2025-06-25T11:25:32.000Z</time>
      </trkpt>
      <trkpt lat="47.625846" lon="-2.819846">
        <ele>21.419829</ele>
        <time>2025-06-25T11:25:34.379Z</time>
      </trkpt>
      <trkpt lat="47.625962" lon="-2.819946">
        <ele>21.763443</ele>
        <time>2025-06-25T11:25:37.255Z</time>
      </trkpt>
      <trkpt lat="47.626309" lon="-2.820378">
        <ele>22.923614</ele>
        <time>2025-06-25T11:25:47.559Z</time>
      </trkpt>
      <trkpt lat="47.626453" lon="-2.820880">
        <ele>23.865390</ele>
        <time>2025-06-25T11:25:57.096Z</time>
      </trkpt>
      <trkpt lat="47.626570" lon="-2.821341">
        <ele>24.715720</ele>
        <time>2025-06-25T11:26:06.415Z</time>
      </trkpt>
      <trkpt lat="47.626808" lon="-2.821985">
        <ele>25.950695</ele>
        <time>2025-06-25T11:26:20.923Z</time>
      </trkpt>
      <trkpt lat="47.626951" lon="-2.822244">
        <ele>26.496323</ele>
        <time>2025-06-25T11:26:27.581Z</time>
      </trkpt>
      <trkpt lat="47.627026" lon="-2.822200">
        <ele>26.691336</ele>
        <time>2025-06-25T11:26:29.932Z</time>
      </trkpt>
      <trkpt lat="47.627339" lon="-2.821893">
        <ele>27.598587</ele>
        <time>2025-06-25T11:26:40.199Z</time>
      </trkpt>
      <trkpt lat="47.627800" lon="-2.821458">
        <ele>28.919605</ele>
        <time>2025-06-25T11:26:52.720Z</time>
      </trkpt>
      <trkpt lat="47.628053" lon="-2.821271">
        <ele>29.603062</ele>
        <time>2025-06-25T11:26:58.189Z</time>
      </trkpt>
      <trkpt lat="47.628074" lon="-2.821249">
        <ele>29.665222</ele>
        <time>2025-06-25T11:26:58.643Z</time>
      </trkpt>
      <trkpt lat="47.628288" lon="-2.821114">
        <ele>29.787513</ele>
        <time>2025-06-25T11:27:02.665Z</time>
      </trkpt>
      <trkpt lat="47.628700" lon="-2.820679">
        <ele>29.894592</ele>
        <time>2025-06-25T11:27:10.965Z</time>
      </trkpt>
      <trkpt lat="47.628906" lon="-2.820491">
        <ele>29.945806</ele>
        <time>2025-06-25T11:27:14.295Z</time>
      </trkpt>
      <trkpt lat="47.629281" lon="-2.820271">
        <ele>30.031198</ele>
        <time>2025-06-25T11:27:19.487Z</time>
      </trkpt>
      <trkpt lat="47.629696" lon="-2.820050">
        <ele>30.124567</ele>
        <time>2025-06-25T11:27:25.508Z</time>
      </trkpt>
      <trkpt lat="47.629875" lon="-2.819839">
        <ele>30.586505</ele>
        <time>2025-06-25T11:27:29.249Z</time>
      </trkpt>
      <trkpt lat="47.630077" lon="-2.819550">
        <ele>31.170848</ele>
        <time>2025-06-25T11:27:34.688Z</time>
      </trkpt>
      <trkpt lat="47.630162" lon="-2.819373">
        <ele>31.475869</ele>
        <time>2025-06-25T11:27:37.897Z</time>
      </trkpt>
      <trkpt lat="47.630236" lon="-2.819261">
        <ele>31.695991</ele>
        <time>2025-06-25T11:27:40.397Z</time>
      </trkpt>
      <trkpt lat="47.630358" lon="-2.819193">
        <ele>31.967386</ele>
        <time>2025-06-25T11:27:43.493Z</time>
      </trkpt>
      <trkpt lat="47.631068" lon="-2.818969">
        <ele>33.478996</ele>
        <time>2025-06-25T11:28:02.850Z</time>
      </trkpt>
      <trkpt lat="47.631619" lon="-2.818652">
        <ele>34.919624</ele>
        <time>2025-06-25T11:28:20.074Z</time>
      </trkpt>
      <trkpt lat="47.631762" lon="-2.818525">
        <ele>35.353648</ele>
        <time>2025-06-25T11:28:24.760Z</time>
      </trkpt>
      <trkpt lat="47.631946" lon="-2.818256">
        <ele>36.026339</ele>
        <time>2025-06-25T11:28:31.787Z</time>
      </trkpt>
      <trkpt lat="47.632069" lon="-2.818082">
        <ele>36.468908</ele>
        <time>2025-06-25T11:28:36.214Z</time>
      </trkpt>
      <trkpt lat="47.632138" lon="-2.817974">
        <ele>36.730094</ele>
        <time>2025-06-25T11:28:38.754Z</time>
      </trkpt>
      <trkpt lat="47.632149" lon="-2.817959">
        <ele>36.769001</ele>
        <time>2025-06-25T11:28:39.132Z</time>
      </trkpt>
      <trkpt lat="47.632598" lon="-2.817232">
        <ele>38.499691</ele>
        <time>2025-06-25T11:28:54.035Z</time>
      </trkpt>
      <trkpt lat="47.632600" lon="-2.817230">
        <ele>38.505972</ele>
        <time>2025-06-25T11:28:54.084Z</time>
      </trkpt>
      <trkpt lat="47.632937" lon="-2.816736">
        <ele>39.216506</ele>
        <time>2025-06-25T11:29:03.864Z</time>
      </trkpt>
      <trkpt lat="47.632974" lon="-2.816663">
        <ele>39.305959</ele>
        <time>2025-06-25T11:29:08.162Z</time>
      </trkpt>
      <trkpt lat="47.633238" lon="-2.816117">
        <ele>39.964055</ele>
        <time>2025-06-25T11:29:39.643Z</time>
      </trkpt>
      <trkpt lat="47.633255" lon="-2.816082">
        <ele>40.006306</ele>
        <time>2025-06-25T11:29:41.687Z</time>
      </trkpt>
      <trkpt lat="47.633451" lon="-2.815742">
        <ele>40.444475</ele>
        <time>2025-06-25T11:30:02.615Z</time>
      </trkpt>
      <trkpt lat="47.633514" lon="-2.815636">
        <ele>40.582885</ele>
        <time>2025-06-25T11:30:09.255Z</time>
      </trkpt>
      <trkpt lat="47.633615" lon="-2.815492">
        <ele>40.786427</ele>
        <time>2025-06-25T11:30:18.973Z</time>
      </trkpt>
      <trkpt lat="47.634060" lon="-2.814854">
        <ele>41.520937</ele>
        <time>2025-06-25T11:31:02.009Z</time>
      </trkpt>
      <trkpt lat="47.634012" lon="-2.814745">
        <ele>41.607729</ele>
        <time>2025-06-25T11:31:03.838Z</time>
      </trkpt>
      <trkpt lat="47.634218" lon="-2.814479">
        <ele>41.877834</ele>
        <time>2025-06-25T11:31:09.730Z</time>
      </trkpt>
      <trkpt lat="47.634611" lon="-2.814117">
        <ele>42.335368</ele>
        <time>2025-06-25T11:31:19.462Z</time>
      </trkpt>
      <trkpt lat="47.635516" lon="-2.813783">
        <ele>42.430904</ele>
        <time>2025-06-25T11:31:34.235Z</time>
      </trkpt>
      <trkpt lat="47.635892" lon="-2.813681">
        <ele>41.796454</ele>
        <time>2025-06-25T11:31:38.651Z</time>
      </trkpt>
      <trkpt lat="47.636155" lon="-2.813551">
        <ele>41.336332</ele>
        <time>2025-06-25T11:31:41.713Z</time>
      </trkpt>
      <trkpt lat="47.636536" lon="-2.813253">
        <ele>40.621468</ele>
        <time>2025-06-25T11:31:46.357Z</time>
      </trkpt>
      <trkpt lat="47.636825" lon="-2.812981">
        <ele>40.053433</ele>
        <time>2025-06-25T11:31:49.914Z</time>
      </trkpt>
      <trkpt lat="47.636951" lon="-2.812787">
        <ele>39.549188</ele>
        <time>2025-06-25T11:31:51.792Z</time>
      </trkpt>
      <trkpt lat="47.637270" lon="-2.812071">
        <ele>37.668153</ele>
        <time>2025-06-25T11:31:57.702Z</time>
      </trkpt>
      <trkpt lat="47.637902" lon="-2.810919">
        <ele>34.412719</ele>
        <time>2025-06-25T11:32:07.752Z</time>
      </trkpt>
      <trkpt lat="47.638051" lon="-2.810745">
        <ele>33.810413</ele>
        <time>2025-06-25T11:32:09.611Z</time>
      </trkpt>
      <trkpt lat="47.638554" lon="-2.810434">
        <ele>32.118028</ele>
        <time>2025-06-25T11:32:14.989Z</time>
      </trkpt>
      <trkpt lat="47.638719" lon="-2.810273">
        <ele>31.504727</ele>
        <time>2025-06-25T11:32:16.960Z</time>
      </trkpt>
      <trkpt lat="47.639067" lon="-2.809688">
        <ele>29.871647</ele>
        <time>2025-06-25T11:32:22.348Z</time>
      </trkpt>
      <trkpt lat="47.639184" lon="-2.809522">
        <ele>29.368929</ele>
        <time>2025-06-25T11:32:24.035Z</time>
      </trkpt>
      <trkpt lat="47.639326" lon="-2.809389">
        <ele>28.847419</ele>
        <time>2025-06-25T11:32:25.806Z</time>
      </trkpt>
      <trkpt lat="47.639699" lon="-2.809132">
        <ele>27.985569</ele>
        <time>2025-06-25T11:32:30.200Z</time>
      </trkpt>
      <trkpt lat="47.640217" lon="-2.808879">
        <ele>27.026651</ele>
        <time>2025-06-25T11:32:36.340Z</time>
      </trkpt>
      <trkpt lat="47.640640" lon="-2.808717">
        <ele>26.258474</ele>
        <time>2025-06-25T11:32:41.490Z</time>
      </trkpt>
      <trkpt lat="47.641343" lon="-2.808536">
        <ele>25.127440</ele>
        <time>2025-06-25T11:32:49.696Z</time>
      </trkpt>
      <trkpt lat="47.641660" lon="-2.808474">
        <ele>24.757677</ele>
        <time>2025-06-25T11:32:53.277Z</time>
      </trkpt>
      <trkpt lat="47.642265" lon="-2.808287">
        <ele>24.043018</ele>
        <time>2025-06-25T11:33:00.282Z</time>
      </trkpt>
      <trkpt lat="47.642591" lon="-2.808248">
        <ele>23.664794</ele>
        <time>2025-06-25T11:33:04.133Z</time>
      </trkpt>
      <trkpt lat="47.642709" lon="-2.808263">
        <ele>23.527834</ele>
        <time>2025-06-25T11:33:05.624Z</time>
      </trkpt>
      <trkpt lat="47.643043" lon="-2.808392">
        <ele>23.527483</ele>
        <time>2025-06-25T11:33:10.488Z</time>
      </trkpt>
      <trkpt lat="47.643550" lon="-2.808474">
        <ele>24.444016</ele>
        <time>2025-06-25T11:33:20.178Z</time>
      </trkpt>
      <trkpt lat="47.644134" lon="-2.808430">
        <ele>25.494886</ele>
        <time>2025-06-25T11:33:34.160Z</time>
      </trkpt>
      <trkpt lat="47.644427" lon="-2.808450">
        <ele>26.021998</ele>
        <time>2025-06-25T11:33:42.030Z</time>
      </trkpt>
      <trkpt lat="47.644615" lon="-2.808500">
        <ele>26.365238</ele>
        <time>2025-06-25T11:33:47.343Z</time>
      </trkpt>
      <trkpt lat="47.645196" lon="-2.808747">
        <ele>27.664313</ele>
        <time>2025-06-25T11:34:03.511Z</time>
      </trkpt>
      <trkpt lat="47.645515" lon="-2.808698">
        <ele>28.372053</ele>
        <time>2025-06-25T11:34:11.543Z</time>
      </trkpt>
      <trkpt lat="47.645620" lon="-2.808597">
        <ele>28.648173</ele>
        <time>2025-06-25T11:34:14.618Z</time>
      </trkpt>
      <trkpt lat="47.645632" lon="-2.808392">
        <ele>28.954111</ele>
        <time>2025-06-25T11:34:18.644Z</time>
      </trkpt>
      <trkpt lat="47.645698" lon="-2.808205">
        <ele>29.267979</ele>
        <time>2025-06-25T11:34:22.734Z</time>
      </trkpt>
      <trkpt lat="47.645812" lon="-2.808110">
        <ele>29.556495</ele>
        <time>2025-06-25T11:34:26.467Z</time>
      </trkpt>
      <trkpt lat="47.645964" lon="-2.808089">
        <ele>29.893384</ele>
        <time>2025-06-25T11:34:30.772Z</time>
      </trkpt>
      <trkpt lat="47.646063" lon="-2.808111">
        <ele>30.114295</ele>
        <time>2025-06-25T11:34:33.534Z</time>
      </trkpt>
      <trkpt lat="47.646298" lon="-2.807810">
        <ele>30.301265</ele>
        <time>2025-06-25T11:34:39.734Z</time>
      </trkpt>
      <trkpt lat="47.646551" lon="-2.807065">
        <ele>29.566468</ele>
        <time>2025-06-25T11:34:48.270Z</time>
      </trkpt>
      <trkpt lat="47.646659" lon="-2.806702">
        <ele>29.216973</ele>
        <time>2025-06-25T11:34:51.734Z</time>
      </trkpt>
      <trkpt lat="47.648322" lon="-2.801132">
        <ele>16.794413</ele>
        <time>2025-06-25T11:35:33.262Z</time>
      </trkpt>
      <trkpt lat="47.648870" lon="-2.799168">
        <ele>11.019190</ele>
        <time>2025-06-25T11:35:46.560Z</time>
      </trkpt>
      <trkpt lat="47.648890" lon="-2.798943">
        <ele>10.390657</ele>
        <time>2025-06-25T11:35:48.617Z</time>
      </trkpt>
      <trkpt lat="47.648866" lon="-2.798768">
        <ele>9.896058</ele>
        <time>2025-06-25T11:35:50.262Z</time>
      </trkpt>
      <trkpt lat="47.648888" lon="-2.798699">
        <ele>9.684643</ele>
        <time>2025-06-25T11:35:50.979Z</time>
      </trkpt>
      <trkpt lat="47.648910" lon="-2.798594">
        <ele>9.380108</ele>
        <time>2025-06-25T11:35:51.715Z</time>
      </trkpt>
      <trkpt lat="47.649001" lon="-2.798538">
        <ele>8.975132</ele>
        <time>2025-06-25T11:35:52.713Z</time>
      </trkpt>
      <trkpt lat="47.649048" lon="-2.798532">
        <ele>8.781201</ele>
        <time>2025-06-25T11:35:53.211Z</time>
      </trkpt>
      <trkpt lat="47.649086" lon="-2.798328">
        <ele>8.195583</ele>
        <time>2025-06-25T11:35:54.830Z</time>
      </trkpt>
      <trkpt lat="47.649123" lon="-2.798133">
        <ele>8.672241</ele>
        <time>2025-06-25T11:35:56.723Z</time>
      </trkpt>
      <trkpt lat="47.649199" lon="-2.797644">
        <ele>9.853010</ele>
        <time>2025-06-25T11:36:03.681Z</time>
      </trkpt>
      <trkpt lat="47.649250" lon="-2.797297">
        <ele>10.688654</ele>
        <time>2025-06-25T11:36:10.274Z</time>
      </trkpt>
      <trkpt lat="47.649298" lon="-2.797108">
        <ele>11.163894</ele>
        <time>2025-06-25T11:36:14.639Z</time>
      </trkpt>
      <trkpt lat="47.649381" lon="-2.796913">
        <ele>11.706606</ele>
        <time>2025-06-25T11:36:20.007Z</time>
      </trkpt>
      <trkpt lat="47.649385" lon="-2.796766">
        <ele>12.052756</ele>
        <time>2025-06-25T11:36:23.681Z</time>
      </trkpt>
      <trkpt lat="47.649368" lon="-2.796692">
        <ele>12.236712</ele>
        <time>2025-06-25T11:36:25.616Z</time>
      </trkpt>
      <trkpt lat="47.649395" lon="-2.796550">
        <ele>12.583869</ele>
        <time>2025-06-25T11:36:29.484Z</time>
      </trkpt>
      <trkpt lat="47.649430" lon="-2.796492">
        <ele>12.767078</ele>
        <time>2025-06-25T11:36:31.471Z</time>
      </trkpt>
      <trkpt lat="47.649468" lon="-2.796349">
        <ele>13.128765</ele>
        <time>2025-06-25T11:36:35.655Z</time>
      </trkpt>
      <trkpt lat="47.649521" lon="-2.795862">
        <ele>14.289454</ele>
        <time>2025-06-25T11:36:49.628Z</time>
      </trkpt>
      <trkpt lat="47.649578" lon="-2.795694">
        <ele>14.676861</ele>
        <time>2025-06-25T11:36:55.088Z</time>
      </trkpt>
      <trkpt lat="47.649685" lon="-2.795286">
        <ele>15.483904</ele>
        <time>2025-06-25T11:37:07.135Z</time>
      </trkpt>
      <trkpt lat="47.650095" lon="-2.793862">
        <ele>18.338433</ele>
        <time>2025-06-25T11:37:34.022Z</time>
      </trkpt>
      <trkpt lat="47.650158" lon="-2.793636">
        <ele>18.789271</ele>
        <time>2025-06-25T11:37:36.426Z</time>
      </trkpt>
      <trkpt lat="47.650400" lon="-2.792812">
        <ele>19.178889</ele>
        <time>2025-06-25T11:37:43.856Z</time>
      </trkpt>
      <trkpt lat="47.650646" lon="-2.791974">
        <ele>18.825172</ele>
        <time>2025-06-25T11:37:50.719Z</time>
      </trkpt>
      <trkpt lat="47.650805" lon="-2.791433">
        <ele>18.596775</ele>
        <time>2025-06-25T11:37:55.554Z</time>
      </trkpt>
      <trkpt lat="47.650823" lon="-2.791370">
        <ele>18.570295</ele>
        <time>2025-06-25T11:37:56.170Z</time>
      </trkpt>
      <trkpt lat="47.650935" lon="-2.790994">
        <ele>18.411213</ele>
        <time>2025-06-25T11:38:00.086Z</time>
      </trkpt>
      <trkpt lat="47.651548" lon="-2.788935">
        <ele>20.546349</ele>
        <time>2025-06-25T11:38:32.813Z</time>
      </trkpt>
      <trkpt lat="47.651655" lon="-2.788375">
        <ele>21.142586</ele>
        <time>2025-06-25T11:38:41.768Z</time>
      </trkpt>
      <trkpt lat="47.651665" lon="-2.788329">
        <ele>21.193273</ele>
        <time>2025-06-25T11:38:42.519Z</time>
      </trkpt>
      <trkpt lat="47.651710" lon="-2.788135">
        <ele>21.408435</ele>
        <time>2025-06-25T11:38:45.569Z</time>
      </trkpt>
      <trkpt lat="47.651750" lon="-2.788001">
        <ele>21.562132</ele>
        <time>2025-06-25T11:38:47.714Z</time>
      </trkpt>
      <trkpt lat="47.651800" lon="-2.787833">
        <ele>21.754734</ele>
        <time>2025-06-25T11:38:50.431Z</time>
      </trkpt>
      <trkpt lat="47.652083" lon="-2.787100">
        <ele>22.640689</ele>
        <time>2025-06-25T11:39:02.551Z</time>
      </trkpt>
      <trkpt lat="47.652119" lon="-2.786984">
        <ele>22.774620</ele>
        <time>2025-06-25T11:39:04.303Z</time>
      </trkpt>
      <trkpt lat="47.652333" lon="-2.786228">
        <ele>23.634543</ele>
        <time>2025-06-25T11:39:16.044Z</time>
      </trkpt>
      <trkpt lat="47.652391" lon="-2.786022">
        <ele>23.868672</ele>
        <time>2025-06-25T11:39:19.198Z</time>
      </trkpt>
      <trkpt lat="47.652735" lon="-2.784729">
        <ele>24.127863</ele>
        <time>2025-06-25T11:39:36.477Z</time>
      </trkpt>
      <trkpt lat="47.652821" lon="-2.784331">
        <ele>24.199161</ele>
        <time>2025-06-25T11:39:40.558Z</time>
      </trkpt>
      <trkpt lat="47.652842" lon="-2.784265">
        <ele>24.211612</ele>
        <time>2025-06-25T11:39:41.236Z</time>
      </trkpt>
      <trkpt lat="47.652889" lon="-2.784115">
        <ele>24.239831</ele>
        <time>2025-06-25T11:39:42.739Z</time>
      </trkpt>
      <trkpt lat="47.652928" lon="-2.783931">
        <ele>24.272735</ele>
        <time>2025-06-25T11:39:44.435Z</time>
      </trkpt>
      <trkpt lat="47.652893" lon="-2.783832">
        <ele>24.291806</ele>
        <time>2025-06-25T11:39:45.400Z</time>
      </trkpt>
      <trkpt lat="47.652886" lon="-2.783773">
        <ele>24.302025</ele>
        <time>2025-06-25T11:39:45.904Z</time>
      </trkpt>
      <trkpt lat="47.652888" lon="-2.783683">
        <ele>24.317386</ele>
        <time>2025-06-25T11:39:46.676Z</time>
      </trkpt>
      <trkpt lat="47.652944" lon="-2.783525">
        <ele>24.347840</ele>
        <time>2025-06-25T11:39:48.162Z</time>
      </trkpt>
      <trkpt lat="47.653029" lon="-2.783447">
        <ele>24.225400</ele>
        <time>2025-06-25T11:39:49.377Z</time>
      </trkpt>
      <trkpt lat="47.653087" lon="-2.783267">
        <ele>24.037633</ele>
        <time>2025-06-25T11:39:50.992Z</time>
      </trkpt>
      <trkpt lat="47.653228" lon="-2.782665">
        <ele>23.437869</ele>
        <time>2025-06-25T11:39:56.081Z</time>
      </trkpt>
      <trkpt lat="47.653363" lon="-2.782154">
        <ele>22.921346</ele>
        <time>2025-06-25T11:40:00.427Z</time>
      </trkpt>
      <trkpt lat="47.653586" lon="-2.781236">
        <ele>22.003036</ele>
        <time>2025-06-25T11:40:07.861Z</time>
      </trkpt>
      <trkpt lat="47.653674" lon="-2.780873">
        <ele>21.602889</ele>
        <time>2025-06-25T11:40:10.769Z</time>
      </trkpt>
      <trkpt lat="47.653877" lon="-2.780045">
        <ele>20.618177</ele>
        <time>2025-06-25T11:40:17.340Z</time>
      </trkpt>
      <trkpt lat="47.654072" lon="-2.779259">
        <ele>19.682107</ele>
        <time>2025-06-25T11:40:23.453Z</time>
      </trkpt>
      <trkpt lat="47.654879" lon="-2.775883">
        <ele>17.496305</ele>
        <time>2025-06-25T11:40:52.982Z</time>
      </trkpt>
      <trkpt lat="47.655074" lon="-2.774919">
        <ele>18.136854</ele>
        <time>2025-06-25T11:41:06.175Z</time>
      </trkpt>
      <trkpt lat="47.655208" lon="-2.774107">
        <ele>18.668886</ele>
        <time>2025-06-25T11:41:18.048Z</time>
      </trkpt>
      <trkpt lat="47.655240" lon="-2.773847">
        <ele>18.837086</ele>
        <time>2025-06-25T11:41:21.829Z</time>
      </trkpt>
      <trkpt lat="47.655348" lon="-2.773047">
        <ele>19.421574</ele>
        <time>2025-06-25T11:41:32.624Z</time>
      </trkpt>
      <trkpt lat="47.655444" lon="-2.772234">
        <ele>20.074049</ele>
        <time>2025-06-25T11:41:42.877Z</time>
      </trkpt>
      <trkpt lat="47.655500" lon="-2.771341">
        <ele>20.783016</ele>
        <time>2025-06-25T11:41:54.092Z</time>
      </trkpt>
      <trkpt lat="47.655543" lon="-2.770720">
        <ele>21.317247</ele>
        <time>2025-06-25T11:42:02.745Z</time>
      </trkpt>
      <trkpt lat="47.655648" lon="-2.769942">
        <ele>22.268764</ele>
        <time>2025-06-25T11:42:14.467Z</time>
      </trkpt>
      <trkpt lat="47.655676" lon="-2.769795">
        <ele>22.451958</ele>
        <time>2025-06-25T11:42:16.750Z</time>
      </trkpt>
      <trkpt lat="47.655798" lon="-2.769113">
        <ele>23.298157</ele>
        <time>2025-06-25T11:42:27.712Z</time>
      </trkpt>
      <trkpt lat="47.655798" lon="-2.768324">
        <ele>24.244320</ele>
        <time>2025-06-25T11:42:40.113Z</time>
      </trkpt>
      <trkpt lat="47.655798" lon="-2.768151">
        <ele>24.388265</ele>
        <time>2025-06-25T11:42:42.731Z</time>
      </trkpt>
      <trkpt lat="47.655766" lon="-2.767653">
        <ele>24.254442</ele>
        <time>2025-06-25T11:42:49.813Z</time>
      </trkpt>
      <trkpt lat="47.655658" lon="-2.766843">
        <ele>24.033556</ele>
        <time>2025-06-25T11:42:59.211Z</time>
      </trkpt>
      <trkpt lat="47.655473" lon="-2.765728">
        <ele>23.726369</ele>
        <time>2025-06-25T11:43:08.329Z</time>
      </trkpt>
      <trkpt lat="47.655280" lon="-2.764480">
        <ele>20.671636</ele>
        <time>2025-06-25T11:43:16.873Z</time>
      </trkpt>
      <trkpt lat="47.655168" lon="-2.763740">
        <ele>18.644814</ele>
        <time>2025-06-25T11:43:21.724Z</time>
      </trkpt>
      <trkpt lat="47.655122" lon="-2.763309">
        <ele>17.478674</ele>
        <time>2025-06-25T11:43:24.542Z</time>
      </trkpt>
      <trkpt lat="47.655110" lon="-2.762876">
        <ele>16.332125</ele>
        <time>2025-06-25T11:43:27.330Z</time>
      </trkpt>
      <trkpt lat="47.655205" lon="-2.762564">
        <ele>15.463220</ele>
        <time>2025-06-25T11:43:29.559Z</time>
      </trkpt>
      <trkpt lat="47.655244" lon="-2.762448">
        <ele>15.134214</ele>
        <time>2025-06-25T11:43:30.406Z</time>
      </trkpt>
      <trkpt lat="47.655314" lon="-2.762257">
        <ele>14.582411</ele>
        <time>2025-06-25T11:43:31.843Z</time>
      </trkpt>
      <trkpt lat="47.655413" lon="-2.761964">
        <ele>13.750560</ele>
        <time>2025-06-25T11:43:34.058Z</time>
      </trkpt>
      <trkpt lat="47.655420" lon="-2.761892">
        <ele>13.565952</ele>
        <time>2025-06-25T11:43:34.541Z</time>
      </trkpt>
      <trkpt lat="47.655344" lon="-2.761686">
        <ele>12.969908</ele>
        <time>2025-06-25T11:43:36.120Z</time>
      </trkpt>
      <trkpt lat="47.655058" lon="-2.760903">
        <ele>10.709536</ele>
        <time>2025-06-25T11:43:42.060Z</time>
      </trkpt>
      <trkpt lat="47.655058" lon="-2.760901">
        <ele>10.704460</ele>
        <time>2025-06-25T11:43:42.070Z</time>
      </trkpt>
      <trkpt lat="47.654978" lon="-2.760562">
        <ele>9.792903</ele>
        <time>2025-06-25T11:43:44.476Z</time>
      </trkpt>
      <trkpt lat="47.654871" lon="-2.760111">
        <ele>8.846746</ele>
        <time>2025-06-25T11:43:47.686Z</time>
      </trkpt>
      <trkpt lat="47.654838" lon="-2.759634">
        <ele>7.902263</ele>
        <time>2025-06-25T11:43:51.005Z</time>
      </trkpt>
      <trkpt lat="47.654572" lon="-2.759613">
        <ele>7.123342</ele>
        <time>2025-06-25T11:43:53.760Z</time>
      </trkpt>
      <trkpt lat="47.654480" lon="-2.759603">
        <ele>6.853601</ele>
        <time>2025-06-25T11:43:54.693Z</time>
      </trkpt>
      <trkpt lat="47.654337" lon="-2.759580">
        <ele>6.433002</ele>
        <time>2025-06-25T11:43:56.113Z</time>
      </trkpt>
      <trkpt lat="47.654264" lon="-2.759587">
        <ele>6.219094</ele>
        <time>2025-06-25T11:43:56.859Z</time>
      </trkpt>
      <trkpt lat="47.654021" lon="-2.759565">
        <ele>5.507208</ele>
        <time>2025-06-25T11:43:59.352Z</time>
      </trkpt>
      <trkpt lat="47.653990" lon="-2.759561">
        <ele>5.416218</ele>
        <time>2025-06-25T11:43:59.681Z</time>
      </trkpt>
      <trkpt lat="47.653946" lon="-2.759552">
        <ele>5.286340</ele>
        <time>2025-06-25T11:44:00.142Z</time>
      </trkpt>
      <trkpt lat="47.653844" lon="-2.759530">
        <ele>4.984946</ele>
        <time>2025-06-25T11:44:01.210Z</time>
      </trkpt>
      <trkpt lat="47.653683" lon="-2.759483">
        <ele>4.518086</ele>
        <time>2025-06-25T11:44:02.944Z</time>
      </trkpt>
      <trkpt lat="47.653613" lon="-2.759442">
        <ele>4.618315</ele>
        <time>2025-06-25T11:44:03.737Z</time>
      </trkpt>
      <trkpt lat="47.653555" lon="-2.759469">
        <ele>4.699277</ele>
        <time>2025-06-25T11:44:04.407Z</time>
      </trkpt>
      <trkpt lat="47.653497" lon="-2.759443">
        <ele>4.779974</ele>
        <time>2025-06-25T11:44:05.088Z</time>
      </trkpt>
      <trkpt lat="47.653459" lon="-2.759372">
        <ele>4.861336</ele>
        <time>2025-06-25T11:44:05.772Z</time>
      </trkpt>
      <trkpt lat="47.653455" lon="-2.759282">
        <ele>4.942260</ele>
        <time>2025-06-25T11:44:06.519Z</time>
      </trkpt>
      <trkpt lat="47.653515" lon="-2.759179">
        <ele>5.064435</ele>
        <time>2025-06-25T11:44:07.645Z</time>
      </trkpt>
      <trkpt lat="47.653612" lon="-2.759193">
        <ele>5.194242</ele>
        <time>2025-06-25T11:44:08.995Z</time>
      </trkpt>
      <trkpt lat="47.653726" lon="-2.759037">
        <ele>5.400749</ele>
        <time>2025-06-25T11:44:11.521Z</time>
      </trkpt>
      <trkpt lat="47.653900" lon="-2.758803">
        <ele>5.713461</ele>
        <time>2025-06-25T11:44:15.836Z</time>
      </trkpt>
      <trkpt lat="47.654071" lon="-2.758586">
        <ele>6.013094</ele>
        <time>2025-06-25T11:44:20.704Z</time>
      </trkpt>
      <trkpt lat="47.654092" lon="-2.758421">
        <ele>6.163751</ele>
        <time>2025-06-25T11:44:23.400Z</time>
      </trkpt>
      <trkpt lat="47.654109" lon="-2.757928">
        <ele>6.606649</ele>
        <time>2025-06-25T11:44:32.801Z</time>
      </trkpt>
      <trkpt lat="47.654111" lon="-2.757863">
        <ele>6.665028</ele>
        <time>2025-06-25T11:44:34.335Z</time>
      </trkpt>
      <trkpt lat="47.654204" lon="-2.757768">
        <ele>6.815389</ele>
        <time>2025-06-25T11:44:37.921Z</time>
      </trkpt>
      <trkpt lat="47.654245" lon="-2.757673">
        <ele>6.925596</ele>
        <time>2025-06-25T11:44:40.534Z</time>
      </trkpt>
      <trkpt lat="47.654365" lon="-2.757393">
        <ele>7.610598</ele>
        <time>2025-06-25T11:44:48.481Z</time>
      </trkpt>
      <trkpt lat="47.654395" lon="-2.757324">
        <ele>7.780110</ele>
        <time>2025-06-25T11:44:50.661Z</time>
      </trkpt>
      <trkpt lat="47.654538" lon="-2.757006">
        <ele>8.569309</ele>
        <time>2025-06-25T11:45:00.448Z</time>
      </trkpt>
      <trkpt lat="47.654663" lon="-2.756684">
        <ele>9.336411</ele>
        <time>2025-06-25T11:45:09.926Z</time>
      </trkpt>
      <trkpt lat="47.654940" lon="-2.756084">
        <ele>10.837802</ele>
        <time>2025-06-25T11:45:24.317Z</time>
      </trkpt>
      <trkpt lat="47.655075" lon="-2.755798">
        <ele>11.558636</ele>
        <time>2025-06-25T11:45:29.033Z</time>
      </trkpt>
      <trkpt lat="47.655284" lon="-2.755537">
        <ele>12.395511</ele>
        <time>2025-06-25T11:45:33.087Z</time>
      </trkpt>
      <trkpt lat="47.655311" lon="-2.755498">
        <ele>12.363033</ele>
        <time>2025-06-25T11:45:33.574Z</time>
      </trkpt>
      <trkpt lat="47.655443" lon="-2.755238">
        <ele>11.927629</ele>
        <time>2025-06-25T11:45:36.254Z</time>
      </trkpt>
      <trkpt lat="47.655555" lon="-2.755148">
        <ele>11.674785</ele>
        <time>2025-06-25T11:45:37.674Z</time>
      </trkpt>
      <trkpt lat="47.656033" lon="-2.755027">
        <ele>10.712085</ele>
        <time>2025-06-25T11:45:42.758Z</time>
      </trkpt>
      <trkpt lat="47.656495" lon="-2.755049">
        <ele>9.794376</ele>
        <time>2025-06-25T11:45:47.436Z</time>
      </trkpt>
      <trkpt lat="47.656760" lon="-2.755048">
        <ele>9.268253</ele>
        <time>2025-06-25T11:45:50.105Z</time>
      </trkpt>
      <trkpt lat="47.657067" lon="-2.754994">
        <ele>8.882658</ele>
        <time>2025-06-25T11:45:53.433Z</time>
      </trkpt>
      <trkpt lat="47.657395" lon="-2.754925">
        <ele>8.991616</ele>
        <time>2025-06-25T11:45:57.400Z</time>
      </trkpt>
      <trkpt lat="47.657508" lon="-2.754913">
        <ele>9.028877</ele>
        <time>2025-06-25T11:45:58.883Z</time>
      </trkpt>
      <trkpt lat="47.657628" lon="-2.754900">
        <ele>9.068451</ele>
        <time>2025-06-25T11:46:00.606Z</time>
      </trkpt>
      <trkpt lat="47.658214" lon="-2.754890">
        <ele>9.261202</ele>
        <time>2025-06-25T11:46:10.979Z</time>
      </trkpt>
      <trkpt lat="47.658241" lon="-2.754842">
        <ele>9.275056</ele>
        <time>2025-06-25T11:46:11.739Z</time>
      </trkpt>
      <trkpt lat="47.658396" lon="-2.753989">
        <ele>9.696738</ele>
        <time>2025-06-25T11:46:24.861Z</time>
      </trkpt>
      <trkpt lat="47.658579" lon="-2.754106">
        <ele>10.273440</ele>
        <time>2025-06-25T11:46:30.029Z</time>
      </trkpt>
      <trkpt lat="47.658849" lon="-2.754266">
        <ele>11.114881</ele>
        <time>2025-06-25T11:46:38.188Z</time>
      </trkpt>
      <trkpt lat="47.659031" lon="-2.754369">
        <ele>11.678637</ele>
        <time>2025-06-25T11:46:44.138Z</time>
      </trkpt>
      <trkpt lat="47.659095" lon="-2.754297">
        <ele>11.911052</ele>
        <time>2025-06-25T11:46:46.603Z</time>
      </trkpt>
      <trkpt lat="47.659124" lon="-2.754135">
        <ele>12.237835</ele>
        <time>2025-06-25T11:46:50.043Z</time>
      </trkpt>
      <trkpt lat="47.659346" lon="-2.753585">
        <ele>13.487853</ele>
        <time>2025-06-25T11:47:02.849Z</time>
      </trkpt>
      <trkpt lat="47.659566" lon="-2.753013">
        <ele>14.614734</ele>
        <time>2025-06-25T11:47:14.420Z</time>
      </trkpt>
      <trkpt lat="47.659763" lon="-2.752758">
        <ele>14.413102</ele>
        <time>2025-06-25T11:47:20.155Z</time>
      </trkpt>
      <trkpt lat="47.659946" lon="-2.752650">
        <ele>14.261177</ele>
        <time>2025-06-25T11:47:23.872Z</time>
      </trkpt>
      <trkpt lat="47.659897" lon="-2.752452">
        <ele>14.151568</ele>
        <time>2025-06-25T11:47:26.170Z</time>
      </trkpt>
      <trkpt lat="47.659641" lon="-2.751445">
        <ele>13.592282</ele>
        <time>2025-06-25T11:47:34.313Z</time>
      </trkpt>
      <trkpt lat="47.659403" lon="-2.750512">
        <ele>13.017705</ele>
        <time>2025-06-25T11:47:41.089Z</time>
      </trkpt>
      <trkpt lat="47.659368" lon="-2.750414">
        <ele>12.942692</ele>
        <time>2025-06-25T11:47:41.882Z</time>
      </trkpt>
      <trkpt lat="47.659290" lon="-2.750185">
        <ele>12.769155</ele>
        <time>2025-06-25T11:47:43.763Z</time>
      </trkpt>
      <trkpt lat="47.659249" lon="-2.750072">
        <ele>12.682356</ele>
        <time>2025-06-25T11:47:45.138Z</time>
      </trkpt>
      <trkpt lat="47.659210" lon="-2.749973">
        <ele>12.604797</ele>
        <time>2025-06-25T11:47:46.397Z</time>
      </trkpt>
      <trkpt lat="47.659138" lon="-2.749704">
        <ele>12.409048</ele>
        <time>2025-06-25T11:47:49.641Z</time>
      </trkpt>
      <trkpt lat="47.658916" lon="-2.749127">
        <ele>11.959674</ele>
        <time>2025-06-25T11:47:57.816Z</time>
      </trkpt>
      <trkpt lat="47.658788" lon="-2.748665">
        <ele>11.621844</ele>
        <time>2025-06-25T11:48:03.130Z</time>
      </trkpt>
      <trkpt lat="47.658684" lon="-2.748353">
        <ele>11.490199</ele>
        <time>2025-06-25T11:48:07.611Z</time>
      </trkpt>
      <trkpt lat="47.658641" lon="-2.748183">
        <ele>11.555107</ele>
        <time>2025-06-25T11:48:10.059Z</time>
      </trkpt>
      <trkpt lat="47.658634" lon="-2.748028">
        <ele>11.610635</ele>
        <time>2025-06-25T11:48:12.119Z</time>
      </trkpt>
      <trkpt lat="47.658700" lon="-2.747943">
        <ele>11.657002</ele>
        <time>2025-06-25T11:48:13.774Z</time>
      </trkpt>
      <trkpt lat="47.658797" lon="-2.747816">
        <ele>11.725636</ele>
        <time>2025-06-25T11:48:16.201Z</time>
      </trkpt>
      <trkpt lat="47.658817" lon="-2.747769">
        <ele>11.745507</ele>
        <time>2025-06-25T11:48:16.902Z</time>
      </trkpt>
      <trkpt lat="47.659067" lon="-2.747314">
        <ele>11.955393</ele>
        <time>2025-06-25T11:48:23.911Z</time>
      </trkpt>
      <trkpt lat="47.659239" lon="-2.746991">
        <ele>12.102570</ele>
        <time>2025-06-25T11:48:28.319Z</time>
      </trkpt>
      <trkpt lat="47.659348" lon="-2.746769">
        <ele>12.200767</ele>
        <time>2025-06-25T11:48:30.967Z</time>
      </trkpt>
      <trkpt lat="47.659675" lon="-2.746008">
        <ele>12.593238</ele>
        <time>2025-06-25T11:48:40.402Z</time>
      </trkpt>
      <trkpt lat="47.659905" lon="-2.745437">
        <ele>12.975952</ele>
        <time>2025-06-25T11:48:48.177Z</time>
      </trkpt>
      <trkpt lat="47.659958" lon="-2.745297">
        <ele>13.068334</ele>
        <time>2025-06-25T11:48:50.067Z</time>
      </trkpt>
      <trkpt lat="47.660024" lon="-2.745128">
        <ele>13.180708</ele>
        <time>2025-06-25T11:48:52.459Z</time>
      </trkpt>
      <trkpt lat="47.660237" lon="-2.744599">
        <ele>13.535234</ele>
        <time>2025-06-25T11:49:00.069Z</time>
      </trkpt>
      <trkpt lat="47.660581" lon="-2.743762">
        <ele>14.207115</ele>
        <time>2025-06-25T11:49:13.749Z</time>
      </trkpt>
      <trkpt lat="47.661905" lon="-2.740540">
        <ele>17.675938</ele>
        <time>2025-06-25T11:50:06.426Z</time>
      </trkpt>
      <trkpt lat="47.662327" lon="-2.739656">
        <ele>18.561168</ele>
        <time>2025-06-25T11:50:21.135Z</time>
      </trkpt>
      <trkpt lat="47.662583" lon="-2.739174">
        <ele>18.655703</ele>
        <time>2025-06-25T11:50:28.147Z</time>
      </trkpt>
      <trkpt lat="47.662748" lon="-2.738931">
        <ele>18.585527</ele>
        <time>2025-06-25T11:50:31.542Z</time>
      </trkpt>
      <trkpt lat="47.663019" lon="-2.738632">
        <ele>18.483577</ele>
        <time>2025-06-25T11:50:35.866Z</time>
      </trkpt>
      <trkpt lat="47.663011" lon="-2.738367">
        <ele>18.429630</ele>
        <time>2025-06-25T11:50:37.979Z</time>
      </trkpt>
      <trkpt lat="47.663188" lon="-2.736848">
        <ele>18.453076</ele>
        <time>2025-06-25T11:50:51.090Z</time>
      </trkpt>
      <trkpt lat="47.663239" lon="-2.736415">
        <ele>18.751995</ele>
        <time>2025-06-25T11:50:56.206Z</time>
      </trkpt>
      <trkpt lat="47.663397" lon="-2.734978">
        <ele>19.742123</ele>
        <time>2025-06-25T11:51:16.841Z</time>
      </trkpt>
      <trkpt lat="47.663424" lon="-2.734764">
        <ele>19.890179</ele>
        <time>2025-06-25T11:51:20.272Z</time>
      </trkpt>
      <trkpt lat="47.663654" lon="-2.733663">
        <ele>20.610216</ele>
        <time>2025-06-25T11:51:37.194Z</time>
      </trkpt>
      <trkpt lat="47.663694" lon="-2.733387">
        <ele>20.783743</ele>
        <time>2025-06-25T11:51:40.665Z</time>
      </trkpt>
      <trkpt lat="47.663710" lon="-2.733052">
        <ele>20.990168</ele>
        <time>2025-06-25T11:51:44.552Z</time>
      </trkpt>
      <trkpt lat="47.663680" lon="-2.732550">
        <ele>21.299934</ele>
        <time>2025-06-25T11:51:50.238Z</time>
      </trkpt>
      <trkpt lat="47.663570" lon="-2.731041">
        <ele>21.715523</ele>
        <time>2025-06-25T11:52:05.858Z</time>
      </trkpt>
      <trkpt lat="47.663479" lon="-2.730716">
        <ele>21.739408</ele>
        <time>2025-06-25T11:52:09.206Z</time>
      </trkpt>
      <trkpt lat="47.663393" lon="-2.730475">
        <ele>21.757916</ele>
        <time>2025-06-25T11:52:11.843Z</time>
      </trkpt>
      <trkpt lat="47.663313" lon="-2.730263">
        <ele>21.774407</ele>
        <time>2025-06-25T11:52:14.272Z</time>
      </trkpt>
      <trkpt lat="47.663206" lon="-2.729981">
        <ele>21.796371</ele>
        <time>2025-06-25T11:52:17.563Z</time>
      </trkpt>
      <trkpt lat="47.663118" lon="-2.729746">
        <ele>21.814618</ele>
        <time>2025-06-25T11:52:20.395Z</time>
      </trkpt>
      <trkpt lat="47.662166" lon="-2.727224">
        <ele>22.243950</ele>
        <time>2025-06-25T11:52:52.285Z</time>
      </trkpt>
      <trkpt lat="47.662001" lon="-2.726798">
        <ele>21.747677</ele>
        <time>2025-06-25T11:52:56.747Z</time>
      </trkpt>
      <trkpt lat="47.661945" lon="-2.726654">
        <ele>21.560802</ele>
        <time>2025-06-25T11:52:58.140Z</time>
      </trkpt>
      <trkpt lat="47.661805" lon="-2.726386">
        <ele>21.179629</ele>
        <time>2025-06-25T11:53:00.876Z</time>
      </trkpt>
      <trkpt lat="47.661711" lon="-2.726247">
        <ele>20.958255</ele>
        <time>2025-06-25T11:53:02.386Z</time>
      </trkpt>
      <trkpt lat="47.661590" lon="-2.726209">
        <ele>20.751879</ele>
        <time>2025-06-25T11:53:03.763Z</time>
      </trkpt>
      <trkpt lat="47.661483" lon="-2.726037">
        <ele>20.488734</ele>
        <time>2025-06-25T11:53:05.484Z</time>
      </trkpt>
      <trkpt lat="47.661465" lon="-2.725892">
        <ele>20.323029</ele>
        <time>2025-06-25T11:53:06.549Z</time>
      </trkpt>
      <trkpt lat="47.661489" lon="-2.725750">
        <ele>20.158492</ele>
        <time>2025-06-25T11:53:07.618Z</time>
      </trkpt>
      <trkpt lat="47.661535" lon="-2.725656">
        <ele>20.027907</ele>
        <time>2025-06-25T11:53:08.447Z</time>
      </trkpt>
      <trkpt lat="47.661516" lon="-2.725483">
        <ele>19.830911</ele>
        <time>2025-06-25T11:53:09.714Z</time>
      </trkpt>
      <trkpt lat="47.661333" lon="-2.724724">
        <ele>18.622037</ele>
        <time>2025-06-25T11:53:15.426Z</time>
      </trkpt>
      <trkpt lat="47.661051" lon="-2.723279">
        <ele>15.353641</ele>
        <time>2025-06-25T11:53:25.510Z</time>
      </trkpt>
      <trkpt lat="47.660927" lon="-2.722684">
        <ele>14.000530</ele>
        <time>2025-06-25T11:53:29.720Z</time>
      </trkpt>
      <trkpt lat="47.660802" lon="-2.722325">
        <ele>13.342355</ele>
        <time>2025-06-25T11:53:32.465Z</time>
      </trkpt>
      <trkpt lat="47.660768" lon="-2.722246">
        <ele>13.276361</ele>
        <time>2025-06-25T11:53:33.110Z</time>
      </trkpt>
      <trkpt lat="47.660723" lon="-2.722149">
        <ele>13.193451</ele>
        <time>2025-06-25T11:53:33.916Z</time>
      </trkpt>
      <trkpt lat="47.660662" lon="-2.722012">
        <ele>13.077845</ele>
        <time>2025-06-25T11:53:35.055Z</time>
      </trkpt>
      <trkpt lat="47.660483" lon="-2.721672">
        <ele>12.774070</ele>
        <time>2025-06-25T11:53:38.151Z</time>
      </trkpt>
      <trkpt lat="47.660471" lon="-2.721651">
        <ele>12.754684</ele>
        <time>2025-06-25T11:53:38.351Z</time>
      </trkpt>
      <trkpt lat="47.660370" lon="-2.721492">
        <ele>12.600834</ele>
        <time>2025-06-25T11:53:40.017Z</time>
      </trkpt>
      <trkpt lat="47.660257" lon="-2.721338">
        <ele>12.440524</ele>
        <time>2025-06-25T11:53:41.807Z</time>
      </trkpt>
      <trkpt lat="47.660153" lon="-2.721168">
        <ele>12.278861</ele>
        <time>2025-06-25T11:53:43.697Z</time>
      </trkpt>
      <trkpt lat="47.660031" lon="-2.720931">
        <ele>12.068883</ele>
        <time>2025-06-25T11:53:46.448Z</time>
      </trkpt>
      <trkpt lat="47.659901" lon="-2.720588">
        <ele>11.791832</ele>
        <time>2025-06-25T11:53:51.051Z</time>
      </trkpt>
      <trkpt lat="47.659833" lon="-2.720356">
        <ele>11.613726</ele>
        <time>2025-06-25T11:53:54.500Z</time>
      </trkpt>
      <trkpt lat="47.659812" lon="-2.720274">
        <ele>11.596786</ele>
        <time>2025-06-25T11:53:55.752Z</time>
      </trkpt>
      <trkpt lat="47.659737" lon="-2.719821">
        <ele>12.193186</ele>
        <time>2025-06-25T11:54:02.510Z</time>
      </trkpt>
      <trkpt lat="47.659720" lon="-2.719584">
        <ele>12.497903</ele>
        <time>2025-06-25T11:54:06.366Z</time>
      </trkpt>
      <trkpt lat="47.659693" lon="-2.719314">
        <ele>12.846881</ele>
        <time>2025-06-25T11:54:11.014Z</time>
      </trkpt>
      <trkpt lat="47.659671" lon="-2.719136">
        <ele>13.078254</ele>
        <time>2025-06-25T11:54:14.279Z</time>
      </trkpt>
      <trkpt lat="47.659584" lon="-2.718965">
        <ele>13.352240</ele>
        <time>2025-06-25T11:54:18.099Z</time>
      </trkpt>
      <trkpt lat="47.659602" lon="-2.718768">
        <ele>13.606412</ele>
        <time>2025-06-25T11:54:21.552Z</time>
      </trkpt>
      <trkpt lat="47.659656" lon="-2.718680">
        <ele>13.758612</ele>
        <time>2025-06-25T11:54:23.475Z</time>
      </trkpt>
      <trkpt lat="47.659665" lon="-2.718542">
        <ele>13.935870</ele>
        <time>2025-06-25T11:54:25.724Z</time>
      </trkpt>
      <trkpt lat="47.659681" lon="-2.718345">
        <ele>14.189559</ele>
        <time>2025-06-25T11:54:28.841Z</time>
      </trkpt>
      <trkpt lat="47.659657" lon="-2.717555">
        <ele>15.028281</ele>
        <time>2025-06-25T11:54:40.272Z</time>
      </trkpt>
      <trkpt lat="47.659644" lon="-2.717053">
        <ele>15.164111</ele>
        <time>2025-06-25T11:54:46.440Z</time>
      </trkpt>
      <trkpt lat="47.659603" lon="-2.715911">
        <ele>15.473320</ele>
        <time>2025-06-25T11:54:57.948Z</time>
      </trkpt>
      <trkpt lat="47.659586" lon="-2.715417">
        <ele>15.607061</ele>
        <time>2025-06-25T11:55:02.257Z</time>
      </trkpt>
      <trkpt lat="47.659579" lon="-2.715199">
        <ele>15.666070</ele>
        <time>2025-06-25T11:55:04.295Z</time>
      </trkpt>
      <trkpt lat="47.659556" lon="-2.714411">
        <ele>16.194254</ele>
        <time>2025-06-25T11:55:13.076Z</time>
      </trkpt>
      <trkpt lat="47.659552" lon="-2.714298">
        <ele>16.279834</ele>
        <time>2025-06-25T11:55:14.480Z</time>
      </trkpt>
      <trkpt lat="47.659552" lon="-2.714283">
        <ele>16.291179</ele>
        <time>2025-06-25T11:55:14.665Z</time>
      </trkpt>
      <trkpt lat="47.659514" lon="-2.713171">
        <ele>17.133271</ele>
        <time>2025-06-25T11:55:29.626Z</time>
      </trkpt>
      <trkpt lat="47.659499" lon="-2.712642">
        <ele>17.533710</ele>
        <time>2025-06-25T11:55:37.511Z</time>
      </trkpt>
      <trkpt lat="47.659448" lon="-2.710952">
        <ele>19.097055</ele>
        <time>2025-06-25T11:56:02.971Z</time>
      </trkpt>
      <trkpt lat="47.659446" lon="-2.710893">
        <ele>19.153378</ele>
        <time>2025-06-25T11:56:03.812Z</time>
      </trkpt>
      <trkpt lat="47.659439" lon="-2.710660">
        <ele>19.375743</ele>
        <time>2025-06-25T11:56:07.047Z</time>
      </trkpt>
      <trkpt lat="47.659418" lon="-2.709959">
        <ele>20.044744</ele>
        <time>2025-06-25T11:56:16.105Z</time>
      </trkpt>
      <trkpt lat="47.659415" lon="-2.709610">
        <ele>20.266841</ele>
        <time>2025-06-25T11:56:20.218Z</time>
      </trkpt>
      <trkpt lat="47.659417" lon="-2.708979">
        <ele>20.250297</ele>
        <time>2025-06-25T11:56:27.099Z</time>
      </trkpt>
      <trkpt lat="47.659465" lon="-2.708285">
        <ele>20.232006</ele>
        <time>2025-06-25T11:56:33.964Z</time>
      </trkpt>
      <trkpt lat="47.659685" lon="-2.707104">
        <ele>20.199879</ele>
        <time>2025-06-25T11:56:44.990Z</time>
      </trkpt>
      <trkpt lat="47.659814" lon="-2.706503">
        <ele>20.044664</ele>
        <time>2025-06-25T11:56:50.587Z</time>
      </trkpt>
      <trkpt lat="47.659979" lon="-2.705637">
        <ele>19.822107</ele>
        <time>2025-06-25T11:56:58.789Z</time>
      </trkpt>
      <trkpt lat="47.660131" lon="-2.704545">
        <ele>19.546362</ele>
        <time>2025-06-25T11:57:09.417Z</time>
      </trkpt>
      <trkpt lat="47.660276" lon="-2.703406">
        <ele>18.990301</ele>
        <time>2025-06-25T11:57:20.120Z</time>
      </trkpt>
      <trkpt lat="47.660329" lon="-2.702876">
        <ele>18.730173</ele>
        <time>2025-06-25T11:57:24.845Z</time>
      </trkpt>
      <trkpt lat="47.660418" lon="-2.701575">
        <ele>17.898833</ele>
        <time>2025-06-25T11:57:35.347Z</time>
      </trkpt>
      <trkpt lat="47.660394" lon="-2.700639">
        <ele>16.838831</ele>
        <time>2025-06-25T11:57:42.480Z</time>
      </trkpt>
      <trkpt lat="47.660339" lon="-2.700127">
        <ele>16.252097</ele>
        <time>2025-06-25T11:57:46.371Z</time>
      </trkpt>
      <trkpt lat="47.659891" lon="-2.697655">
        <ele>13.310266</ele>
        <time>2025-06-25T11:58:05.425Z</time>
      </trkpt>
      <trkpt lat="47.659856" lon="-2.697315">
        <ele>12.911673</ele>
        <time>2025-06-25T11:58:08.001Z</time>
      </trkpt>
      <trkpt lat="47.659824" lon="-2.696644">
        <ele>12.132120</ele>
        <time>2025-06-25T11:58:13.200Z</time>
      </trkpt>
      <trkpt lat="47.659829" lon="-2.696305">
        <ele>12.075114</ele>
        <time>2025-06-25T11:58:15.929Z</time>
      </trkpt>
      <trkpt lat="47.659874" lon="-2.695744">
        <ele>11.988867</ele>
        <time>2025-06-25T11:58:20.657Z</time>
      </trkpt>
      <trkpt lat="47.660592" lon="-2.691210">
        <ele>12.683274</ele>
        <time>2025-06-25T11:59:11.449Z</time>
      </trkpt>
      <trkpt lat="47.660665" lon="-2.690493">
        <ele>13.329902</ele>
        <time>2025-06-25T11:59:21.046Z</time>
      </trkpt>
      <trkpt lat="47.660676" lon="-2.689853">
        <ele>13.900788</ele>
        <time>2025-06-25T11:59:29.997Z</time>
      </trkpt>
      <trkpt lat="47.660657" lon="-2.689452">
        <ele>14.259252</ele>
        <time>2025-06-25T11:59:35.851Z</time>
      </trkpt>
      <trkpt lat="47.660435" lon="-2.687356">
        <ele>16.317860</ele>
        <time>2025-06-25T12:00:06.576Z</time>
      </trkpt>
      <trkpt lat="47.660158" lon="-2.684834">
        <ele>19.242109</ele>
        <time>2025-06-25T12:00:41.058Z</time>
      </trkpt>
      <trkpt lat="47.659996" lon="-2.683702">
        <ele>20.714546</ele>
        <time>2025-06-25T12:00:59.287Z</time>
      </trkpt>
      <trkpt lat="47.659718" lon="-2.682430">
        <ele>23.455494</ele>
        <time>2025-06-25T12:01:24.034Z</time>
      </trkpt>
      <trkpt lat="47.659273" lon="-2.680825">
        <ele>27.140014</ele>
        <time>2025-06-25T12:01:58.244Z</time>
      </trkpt>
      <trkpt lat="47.658699" lon="-2.678755">
        <ele>30.923910</ele>
        <time>2025-06-25T12:02:35.732Z</time>
      </trkpt>
      <trkpt lat="47.658318" lon="-2.677362">
        <ele>33.207655</ele>
        <time>2025-06-25T12:02:56.890Z</time>
      </trkpt>
      <trkpt lat="47.658229" lon="-2.676918">
        <ele>33.897446</ele>
        <time>2025-06-25T12:03:03.799Z</time>
      </trkpt>
      <trkpt lat="47.658192" lon="-2.676499">
        <ele>34.526694</ele>
        <time>2025-06-25T12:03:10.742Z</time>
      </trkpt>
      <trkpt lat="47.658191" lon="-2.676165">
        <ele>35.024040</ele>
        <time>2025-06-25T12:03:16.658Z</time>
      </trkpt>
      <trkpt lat="47.658315" lon="-2.674090">
        <ele>39.019509</ele>
        <time>2025-06-25T12:03:57.711Z</time>
      </trkpt>
      <trkpt lat="47.658344" lon="-2.673641">
        <ele>39.901913</ele>
        <time>2025-06-25T12:04:05.397Z</time>
      </trkpt>
      <trkpt lat="47.658362" lon="-2.673304">
        <ele>40.500378</ele>
        <time>2025-06-25T12:04:10.478Z</time>
      </trkpt>
      <trkpt lat="47.658401" lon="-2.672659">
        <ele>40.458855</ele>
        <time>2025-06-25T12:04:18.715Z</time>
      </trkpt>
      <trkpt lat="47.658510" lon="-2.670788">
        <ele>40.338439</ele>
        <time>2025-06-25T12:04:35.227Z</time>
      </trkpt>
      <trkpt lat="47.658576" lon="-2.669621">
        <ele>38.901318</ele>
        <time>2025-06-25T12:04:44.102Z</time>
      </trkpt>
      <trkpt lat="47.658557" lon="-2.669054">
        <ele>38.133670</ele>
        <time>2025-06-25T12:04:48.241Z</time>
      </trkpt>
      <trkpt lat="47.658490" lon="-2.668421">
        <ele>37.267221</ele>
        <time>2025-06-25T12:04:52.827Z</time>
      </trkpt>
      <trkpt lat="47.658267" lon="-2.666367">
        <ele>34.095582</ele>
        <time>2025-06-25T12:05:07.643Z</time>
      </trkpt>
      <trkpt lat="47.658177" lon="-2.665556">
        <ele>32.808409</ele>
        <time>2025-06-25T12:05:13.697Z</time>
      </trkpt>
      <trkpt lat="47.658086" lon="-2.664780">
        <ele>31.674415</ele>
        <time>2025-06-25T12:05:19.478Z</time>
      </trkpt>
      <trkpt lat="47.657983" lon="-2.664217">
        <ele>30.855176</ele>
        <time>2025-06-25T12:05:23.759Z</time>
      </trkpt>
      <trkpt lat="47.656995" lon="-2.660786">
        <ele>26.216084</ele>
        <time>2025-06-25T12:05:51.285Z</time>
      </trkpt>
      <trkpt lat="47.656916" lon="-2.660431">
        <ele>25.790468</ele>
        <time>2025-06-25T12:05:54.315Z</time>
      </trkpt>
      <trkpt lat="47.656906" lon="-2.660355">
        <ele>25.777269</ele>
        <time>2025-06-25T12:05:54.955Z</time>
      </trkpt>
      <trkpt lat="47.656907" lon="-2.660098">
        <ele>25.959113</ele>
        <time>2025-06-25T12:05:57.115Z</time>
      </trkpt>
      <trkpt lat="47.656945" lon="-2.659828">
        <ele>26.154277</ele>
        <time>2025-06-25T12:05:59.636Z</time>
      </trkpt>
      <trkpt lat="47.657308" lon="-2.658619">
        <ele>27.090839</ele>
        <time>2025-06-25T12:06:16.593Z</time>
      </trkpt>
      <trkpt lat="47.657611" lon="-2.657798">
        <ele>27.912855</ele>
        <time>2025-06-25T12:06:32.466Z</time>
      </trkpt>
      <trkpt lat="47.657848" lon="-2.657346">
        <ele>28.879319</ele>
        <time>2025-06-25T12:06:42.984Z</time>
      </trkpt>
      <trkpt lat="47.657997" lon="-2.657147">
        <ele>29.381355</ele>
        <time>2025-06-25T12:06:48.463Z</time>
      </trkpt>
      <trkpt lat="47.658192" lon="-2.656958">
        <ele>29.964696</ele>
        <time>2025-06-25T12:06:54.798Z</time>
      </trkpt>
      <trkpt lat="47.659667" lon="-2.655572">
        <ele>34.176779</ele>
        <time>2025-06-25T12:07:35.509Z</time>
      </trkpt>
      <trkpt lat="47.659957" lon="-2.655272">
        <ele>34.997364</ele>
        <time>2025-06-25T12:07:44.381Z</time>
      </trkpt>
      <trkpt lat="47.660057" lon="-2.655122">
        <ele>35.327387</ele>
        <time>2025-06-25T12:07:48.103Z</time>
      </trkpt>
      <trkpt lat="47.660185" lon="-2.654817">
        <ele>35.889318</ele>
        <time>2025-06-25T12:07:54.364Z</time>
      </trkpt>
      <trkpt lat="47.660254" lon="-2.654447">
        <ele>36.349478</ele>
        <time>2025-06-25T12:08:00.984Z</time>
      </trkpt>
      <trkpt lat="47.660248" lon="-2.653602">
        <ele>36.583972</ele>
        <time>2025-06-25T12:08:14.029Z</time>
      </trkpt>
      <trkpt lat="47.660179" lon="-2.652802">
        <ele>36.807780</ele>
        <time>2025-06-25T12:08:23.604Z</time>
      </trkpt>
      <trkpt lat="47.659743" lon="-2.649503">
        <ele>34.380416</ele>
        <time>2025-06-25T12:08:49.027Z</time>
      </trkpt>
      <trkpt lat="47.659556" lon="-2.648051">
        <ele>33.155677</ele>
        <time>2025-06-25T12:09:00.914Z</time>
      </trkpt>
      <trkpt lat="47.659452" lon="-2.647599">
        <ele>32.781866</ele>
        <time>2025-06-25T12:09:04.877Z</time>
      </trkpt>
      <trkpt lat="47.659377" lon="-2.647427">
        <ele>32.621510</ele>
        <time>2025-06-25T12:09:06.556Z</time>
      </trkpt>
      <trkpt lat="47.659288" lon="-2.647295">
        <ele>32.475338</ele>
        <time>2025-06-25T12:09:08.067Z</time>
      </trkpt>
      <trkpt lat="47.659141" lon="-2.647131">
        <ele>32.261683</ele>
        <time>2025-06-25T12:09:10.260Z</time>
      </trkpt>
      <trkpt lat="47.658100" lon="-2.646207">
        <ele>31.556385</ele>
        <time>2025-06-25T12:09:24.633Z</time>
      </trkpt>
      <trkpt lat="47.657863" lon="-2.645942">
        <ele>31.414003</ele>
        <time>2025-06-25T12:09:28.572Z</time>
      </trkpt>
      <trkpt lat="47.657592" lon="-2.645473">
        <ele>31.214265</ele>
        <time>2025-06-25T12:09:35.369Z</time>
      </trkpt>
      <trkpt lat="47.657483" lon="-2.645217">
        <ele>31.476506</ele>
        <time>2025-06-25T12:09:39.309Z</time>
      </trkpt>
      <trkpt lat="47.657410" lon="-2.644948">
        <ele>31.850538</ele>
        <time>2025-06-25T12:09:43.501Z</time>
      </trkpt>
      <trkpt lat="47.657403" lon="-2.644911">
        <ele>31.900104</ele>
        <time>2025-06-25T12:09:44.085Z</time>
      </trkpt>
      <trkpt lat="47.657012" lon="-2.642798">
        <ele>34.680949</ele>
        <time>2025-06-25T12:10:20.609Z</time>
      </trkpt>
      <trkpt lat="47.656987" lon="-2.642573">
        <ele>34.832917</ele>
        <time>2025-06-25T12:10:23.960Z</time>
      </trkpt>
      <trkpt lat="47.657006" lon="-2.640449">
        <ele>36.248489</ele>
        <time>2025-06-25T12:10:49.850Z</time>
      </trkpt>
      <trkpt lat="47.656999" lon="-2.639835">
        <ele>36.309289</ele>
        <time>2025-06-25T12:10:56.476Z</time>
      </trkpt>
      <trkpt lat="47.656903" lon="-2.639335">
        <ele>36.164381</ele>
        <time>2025-06-25T12:11:01.597Z</time>
      </trkpt>
      <trkpt lat="47.656821" lon="-2.638978">
        <ele>36.059254</ele>
        <time>2025-06-25T12:11:05.122Z</time>
      </trkpt>
      <trkpt lat="47.656801" lon="-2.638740">
        <ele>35.992405</ele>
        <time>2025-06-25T12:11:07.268Z</time>
      </trkpt>
      <trkpt lat="47.656937" lon="-2.637109">
        <ele>35.491500</ele>
        <time>2025-06-25T12:11:20.811Z</time>
      </trkpt>
      <trkpt lat="47.656910" lon="-2.634248">
        <ele>35.136313</ele>
        <time>2025-06-25T12:11:46.451Z</time>
      </trkpt>
      <trkpt lat="47.656901" lon="-2.633554">
        <ele>35.604587</ele>
        <time>2025-06-25T12:11:54.861Z</time>
      </trkpt>
      <trkpt lat="47.656878" lon="-2.633304">
        <ele>35.774809</ele>
        <time>2025-06-25T12:11:58.230Z</time>
      </trkpt>
      <trkpt lat="47.656834" lon="-2.633101">
        <ele>35.918673</ele>
        <time>2025-06-25T12:12:01.212Z</time>
      </trkpt>
      <trkpt lat="47.656599" lon="-2.632457">
        <ele>36.412790</ele>
        <time>2025-06-25T12:12:12.413Z</time>
      </trkpt>
      <trkpt lat="47.656506" lon="-2.632119">
        <ele>36.845183</ele>
        <time>2025-06-25T12:12:18.431Z</time>
      </trkpt>
      <trkpt lat="47.656361" lon="-2.631191">
        <ele>38.178592</ele>
        <time>2025-06-25T12:12:34.385Z</time>
      </trkpt>
      <trkpt lat="47.656340" lon="-2.630817">
        <ele>38.703895</ele>
        <time>2025-06-25T12:12:40.564Z</time>
      </trkpt>
      <trkpt lat="47.656371" lon="-2.630461">
        <ele>39.206334</ele>
        <time>2025-06-25T12:12:46.350Z</time>
      </trkpt>
      <trkpt lat="47.657020" lon="-2.627012">
        <ele>43.091328</ele>
        <time>2025-06-25T12:13:36.842Z</time>
      </trkpt>
      <trkpt lat="47.657080" lon="-2.626778">
        <ele>43.277420</ele>
        <time>2025-06-25T12:13:40.194Z</time>
      </trkpt>
      <trkpt lat="47.657215" lon="-2.626514">
        <ele>43.523773</ele>
        <time>2025-06-25T12:13:44.536Z</time>
      </trkpt>
      <trkpt lat="47.657592" lon="-2.626047">
        <ele>44.065548</ele>
        <time>2025-06-25T12:13:53.788Z</time>
      </trkpt>
      <trkpt lat="47.657863" lon="-2.625923">
        <ele>44.378457</ele>
        <time>2025-06-25T12:13:58.956Z</time>
      </trkpt>
      <trkpt lat="47.659118" lon="-2.625700">
        <ele>46.257175</ele>
        <time>2025-06-25T12:14:23.065Z</time>
      </trkpt>
      <trkpt lat="47.659401" lon="-2.625572">
        <ele>46.773096</ele>
        <time>2025-06-25T12:14:29.395Z</time>
      </trkpt>
      <trkpt lat="47.659648" lon="-2.625361">
        <ele>47.270055</ele>
        <time>2025-06-25T12:14:35.915Z</time>
      </trkpt>
      <trkpt lat="47.660643" lon="-2.624290">
        <ele>50.080205</ele>
        <time>2025-06-25T12:15:07.313Z</time>
      </trkpt>
      <trkpt lat="47.660878" lon="-2.624107">
        <ele>50.773756</ele>
        <time>2025-06-25T12:15:14.316Z</time>
      </trkpt>
      <trkpt lat="47.661500" lon="-2.623736">
        <ele>52.525694</ele>
        <time>2025-06-25T12:15:31.012Z</time>
      </trkpt>
      <trkpt lat="47.661649" lon="-2.623587">
        <ele>53.011926</ele>
        <time>2025-06-25T12:15:35.221Z</time>
      </trkpt>
      <trkpt lat="47.661734" lon="-2.623409">
        <ele>53.425428</ele>
        <time>2025-06-25T12:15:38.719Z</time>
      </trkpt>
      <trkpt lat="47.661788" lon="-2.623046">
        <ele>54.129911</ele>
        <time>2025-06-25T12:15:44.949Z</time>
      </trkpt>
      <trkpt lat="47.661756" lon="-2.622828">
        <ele>54.552729</ele>
        <time>2025-06-25T12:15:48.871Z</time>
      </trkpt>
      <trkpt lat="47.661662" lon="-2.622512">
        <ele>55.207373</ele>
        <time>2025-06-25T12:15:55.135Z</time>
      </trkpt>
      <trkpt lat="47.661656" lon="-2.622376">
        <ele>55.465653</ele>
        <time>2025-06-25T12:15:57.605Z</time>
      </trkpt>
      <trkpt lat="47.661680" lon="-2.622241">
        <ele>55.730247</ele>
        <time>2025-06-25T12:16:00.146Z</time>
      </trkpt>
      <trkpt lat="47.661758" lon="-2.622042">
        <ele>56.166576</ele>
        <time>2025-06-25T12:16:04.333Z</time>
      </trkpt>
      <trkpt lat="47.661953" lon="-2.621593">
        <ele>57.179014</ele>
        <time>2025-06-25T12:16:13.922Z</time>
      </trkpt>
      <trkpt lat="47.662020" lon="-2.621434">
        <ele>57.534440</ele>
        <time>2025-06-25T12:16:17.310Z</time>
      </trkpt>
      <trkpt lat="47.662113" lon="-2.621278">
        <ele>57.937004</ele>
        <time>2025-06-25T12:16:21.068Z</time>
      </trkpt>
      <trkpt lat="47.662316" lon="-2.621132">
        <ele>58.625518</ele>
        <time>2025-06-25T12:16:27.210Z</time>
      </trkpt>
      <trkpt lat="47.663537" lon="-2.620616">
        <ele>62.500573</ele>
        <time>2025-06-25T12:17:01.452Z</time>
      </trkpt>
      <trkpt lat="47.663755" lon="-2.620475">
        <ele>63.226397</ele>
        <time>2025-06-25T12:17:07.839Z</time>
      </trkpt>
      <trkpt lat="47.663969" lon="-2.620284">
        <ele>63.932773</ele>
        <time>2025-06-25T12:17:14.626Z</time>
      </trkpt>
      <trkpt lat="47.664664" lon="-2.619476">
        <ele>66.399628</ele>
        <time>2025-06-25T12:17:38.782Z</time>
      </trkpt>
      <trkpt lat="47.665433" lon="-2.618579">
        <ele>69.128012</ele>
        <time>2025-06-25T12:18:02.576Z</time>
      </trkpt>
      <trkpt lat="47.665792" lon="-2.618016">
        <ele>70.578707</ele>
        <time>2025-06-25T12:18:14.499Z</time>
      </trkpt>
      <trkpt lat="47.666280" lon="-2.617150">
        <ele>72.691460</ele>
        <time>2025-06-25T12:18:34.145Z</time>
      </trkpt>
      <trkpt lat="47.666489" lon="-2.616827">
        <ele>73.625670</ele>
        <time>2025-06-25T12:18:43.093Z</time>
      </trkpt>
      <trkpt lat="47.668264" lon="-2.615029">
        <ele>81.748566</ele>
        <time>2025-06-25T12:19:54.127Z</time>
      </trkpt>
      <trkpt lat="47.668461" lon="-2.614851">
        <ele>82.136579</ele>
        <time>2025-06-25T12:19:59.734Z</time>
      </trkpt>
      <trkpt lat="47.668655" lon="-2.614797">
        <ele>82.468690</ele>
        <time>2025-06-25T12:20:04.031Z</time>
      </trkpt>
      <trkpt lat="47.668729" lon="-2.614807">
        <ele>82.593717</ele>
        <time>2025-06-25T12:20:05.546Z</time>
      </trkpt>
      <trkpt lat="47.669102" lon="-2.614996">
        <ele>83.256861</ele>
        <time>2025-06-25T12:20:12.248Z</time>
      </trkpt>
      <trkpt lat="47.669295" lon="-2.615077">
        <ele>83.594324</ele>
        <time>2025-06-25T12:20:14.914Z</time>
      </trkpt>
      <trkpt lat="47.669485" lon="-2.615105">
        <ele>83.915590</ele>
        <time>2025-06-25T12:20:17.210Z</time>
      </trkpt>
      <trkpt lat="47.669699" lon="-2.615083">
        <ele>84.348390</ele>
        <time>2025-06-25T12:20:19.699Z</time>
      </trkpt>
      <trkpt lat="47.669847" lon="-2.615028">
        <ele>84.698209</ele>
        <time>2025-06-25T12:20:21.628Z</time>
      </trkpt>
      <trkpt lat="47.670710" lon="-2.614634">
        <ele>86.768421</ele>
        <time>2025-06-25T12:20:41.021Z</time>
      </trkpt>
      <trkpt lat="47.670935" lon="-2.614434">
        <ele>87.369692</ele>
        <time>2025-06-25T12:20:48.899Z</time>
      </trkpt>
      <trkpt lat="47.671117" lon="-2.614155">
        <ele>87.969465</ele>
        <time>2025-06-25T12:20:57.624Z</time>
      </trkpt>
      <trkpt lat="47.671222" lon="-2.613892">
        <ele>88.712784</ele>
        <time>2025-06-25T12:21:05.011Z</time>
      </trkpt>
      <trkpt lat="47.671290" lon="-2.613559">
        <ele>89.859934</ele>
        <time>2025-06-25T12:21:14.118Z</time>
      </trkpt>
      <trkpt lat="47.671299" lon="-2.612531">
        <ele>93.249169</ele>
        <time>2025-06-25T12:21:41.375Z</time>
      </trkpt>
      <trkpt lat="47.671348" lon="-2.612054">
        <ele>94.839859</ele>
        <time>2025-06-25T12:21:52.088Z</time>
      </trkpt>
      <trkpt lat="47.671445" lon="-2.611722">
        <ele>96.032923</ele>
        <time>2025-06-25T12:21:59.418Z</time>
      </trkpt>
      <trkpt lat="47.671700" lon="-2.611087">
        <ele>98.023946</ele>
        <time>2025-06-25T12:22:13.768Z</time>
      </trkpt>
      <trkpt lat="47.671954" lon="-2.610671">
        <ele>99.310082</ele>
        <time>2025-06-25T12:22:24.346Z</time>
      </trkpt>
      <trkpt lat="47.672117" lon="-2.610486">
        <ele>100.007862</ele>
        <time>2025-06-25T12:22:30.034Z</time>
      </trkpt>
      <trkpt lat="47.675991" lon="-2.606794">
        <ele>115.148492</ele>
        <time>2025-06-25T12:24:40.296Z</time>
      </trkpt>
      <trkpt lat="47.676177" lon="-2.606580">
        <ele>115.671878</ele>
        <time>2025-06-25T12:24:45.265Z</time>
      </trkpt>
      <trkpt lat="47.676427" lon="-2.606169">
        <ele>116.501472</ele>
        <time>2025-06-25T12:24:53.289Z</time>
      </trkpt>
      <trkpt lat="47.676494" lon="-2.606023">
        <ele>116.766110</ele>
        <time>2025-06-25T12:24:55.843Z</time>
      </trkpt>
      <trkpt lat="47.676598" lon="-2.605771">
        <ele>117.208810</ele>
        <time>2025-06-25T12:25:00.174Z</time>
      </trkpt>
      <trkpt lat="47.676724" lon="-2.605349">
        <ele>117.900233</ele>
        <time>2025-06-25T12:25:07.081Z</time>
      </trkpt>
      <trkpt lat="47.676816" lon="-2.604834">
        <ele>118.698276</ele>
        <time>2025-06-25T12:25:15.752Z</time>
      </trkpt>
      <trkpt lat="47.676857" lon="-2.604363">
        <ele>119.474595</ele>
        <time>2025-06-25T12:25:24.042Z</time>
      </trkpt>
      <trkpt lat="47.676853" lon="-2.603889">
        <ele>120.285316</ele>
        <time>2025-06-25T12:25:32.765Z</time>
      </trkpt>
      <trkpt lat="47.676290" lon="-2.598375">
        <ele>129.326185</ele>
        <time>2025-06-25T12:27:05.466Z</time>
      </trkpt>
      <trkpt lat="47.676207" lon="-2.597588">
        <ele>130.431218</ele>
        <time>2025-06-25T12:27:17.128Z</time>
      </trkpt>
      <trkpt lat="47.676199" lon="-2.597189">
        <ele>130.984954</ele>
        <time>2025-06-25T12:27:22.899Z</time>
      </trkpt>
      <trkpt lat="47.676775" lon="-2.589243">
        <ele>140.855506</ele>
        <time>2025-06-25T12:29:23.734Z</time>
      </trkpt>
      <trkpt lat="47.676886" lon="-2.587686">
        <ele>140.769947</ele>
        <time>2025-06-25T12:29:42.249Z</time>
      </trkpt>
      <trkpt lat="47.677217" lon="-2.583078">
        <ele>135.883607</ele>
        <time>2025-06-25T12:30:16.536Z</time>
      </trkpt>
      <trkpt lat="47.677273" lon="-2.581350">
        <ele>133.902867</ele>
        <time>2025-06-25T12:30:29.501Z</time>
      </trkpt>
      <trkpt lat="47.677314" lon="-2.579125">
        <ele>131.201950</ele>
        <time>2025-06-25T12:30:47.642Z</time>
      </trkpt>
      <trkpt lat="47.677301" lon="-2.578337">
        <ele>130.226994</ele>
        <time>2025-06-25T12:30:53.355Z</time>
      </trkpt>
      <trkpt lat="47.677128" lon="-2.576745">
        <ele>127.002474</ele>
        <time>2025-06-25T12:31:04.033Z</time>
      </trkpt>
      <trkpt lat="47.677049" lon="-2.576377">
        <ele>126.182422</ele>
        <time>2025-06-25T12:31:06.574Z</time>
      </trkpt>
      <trkpt lat="47.676972" lon="-2.576132">
        <ele>125.608384</ele>
        <time>2025-06-25T12:31:08.395Z</time>
      </trkpt>
      <trkpt lat="47.676899" lon="-2.575907">
        <ele>125.078118</ele>
        <time>2025-06-25T12:31:10.112Z</time>
      </trkpt>
      <trkpt lat="47.676702" lon="-2.575324">
        <ele>124.262574</ele>
        <time>2025-06-25T12:31:14.810Z</time>
      </trkpt>
      <trkpt lat="47.676622" lon="-2.575007">
        <ele>124.244293</ele>
        <time>2025-06-25T12:31:17.545Z</time>
      </trkpt>
      <trkpt lat="47.676427" lon="-2.573998">
        <ele>124.187607</ele>
        <time>2025-06-25T12:31:28.926Z</time>
      </trkpt>
      <trkpt lat="47.676419" lon="-2.573927">
        <ele>124.183720</ele>
        <time>2025-06-25T12:31:29.905Z</time>
      </trkpt>
      <trkpt lat="47.676329" lon="-2.573450">
        <ele>124.156969</ele>
        <time>2025-06-25T12:31:36.798Z</time>
      </trkpt>
      <trkpt lat="47.676070" lon="-2.572556">
        <ele>123.869080</ele>
        <time>2025-06-25T12:31:49.122Z</time>
      </trkpt>
      <trkpt lat="47.675902" lon="-2.571883">
        <ele>123.513248</ele>
        <time>2025-06-25T12:31:55.958Z</time>
      </trkpt>
      <trkpt lat="47.675879" lon="-2.571660">
        <ele>123.401405</ele>
        <time>2025-06-25T12:31:57.755Z</time>
      </trkpt>
      <trkpt lat="47.675854" lon="-2.571450">
        <ele>123.295683</ele>
        <time>2025-06-25T12:31:59.397Z</time>
      </trkpt>
      <trkpt lat="47.675814" lon="-2.571245">
        <ele>123.189872</ele>
        <time>2025-06-25T12:32:01.016Z</time>
      </trkpt>
      <trkpt lat="47.675678" lon="-2.570960">
        <ele>123.016697</ele>
        <time>2025-06-25T12:32:03.605Z</time>
      </trkpt>
      <trkpt lat="47.675498" lon="-2.570682">
        <ele>122.825494</ele>
        <time>2025-06-25T12:32:06.444Z</time>
      </trkpt>
      <trkpt lat="47.675413" lon="-2.570563">
        <ele>122.714862</ele>
        <time>2025-06-25T12:32:07.703Z</time>
      </trkpt>
      <trkpt lat="47.675259" lon="-2.570310">
        <ele>122.485781</ele>
        <time>2025-06-25T12:32:10.185Z</time>
      </trkpt>
      <trkpt lat="47.675005" lon="-2.569746">
        <ele>122.030026</ele>
        <time>2025-06-25T12:32:15.318Z</time>
      </trkpt>
      <trkpt lat="47.674969" lon="-2.569748">
        <ele>121.994089</ele>
        <time>2025-06-25T12:32:15.738Z</time>
      </trkpt>
      <trkpt lat="47.674931" lon="-2.569692">
        <ele>121.940687</ele>
        <time>2025-06-25T12:32:16.366Z</time>
      </trkpt>
      <trkpt lat="47.674939" lon="-2.569624">
        <ele>121.894320</ele>
        <time>2025-06-25T12:32:16.901Z</time>
      </trkpt>
      <trkpt lat="47.674980" lon="-2.569589">
        <ele>121.847146</ele>
        <time>2025-06-25T12:32:17.449Z</time>
      </trkpt>
      <trkpt lat="47.674949" lon="-2.569352">
        <ele>121.684980</ele>
        <time>2025-06-25T12:32:19.405Z</time>
      </trkpt>
      <trkpt lat="47.674950" lon="-2.569184">
        <ele>121.572132</ele>
        <time>2025-06-25T12:32:20.821Z</time>
      </trkpt>
      <trkpt lat="47.675050" lon="-2.568498">
        <ele>121.100681</ele>
        <time>2025-06-25T12:32:27.738Z</time>
      </trkpt>
      <trkpt lat="47.675077" lon="-2.568097">
        <ele>121.175151</ele>
        <time>2025-06-25T12:32:32.337Z</time>
      </trkpt>
      <trkpt lat="47.675060" lon="-2.567782">
        <ele>121.359659</ele>
        <time>2025-06-25T12:32:36.127Z</time>
      </trkpt>
      <trkpt lat="47.674692" lon="-2.566176">
        <ele>122.350163</ele>
        <time>2025-06-25T12:32:57.929Z</time>
      </trkpt>
      <trkpt lat="47.674663" lon="-2.565767">
        <ele>122.584322</ele>
        <time>2025-06-25T12:33:03.477Z</time>
      </trkpt>
      <trkpt lat="47.674658" lon="-2.565660">
        <ele>122.623582</ele>
        <time>2025-06-25T12:33:04.893Z</time>
      </trkpt>
      <trkpt lat="47.674660" lon="-2.564764">
        <ele>122.951556</ele>
        <time>2025-06-25T12:33:16.132Z</time>
      </trkpt>
      <trkpt lat="47.674631" lon="-2.564593">
        <ele>123.016104</ele>
        <time>2025-06-25T12:33:18.137Z</time>
      </trkpt>
      <trkpt lat="47.674592" lon="-2.564435">
        <ele>123.077702</ele>
        <time>2025-06-25T12:33:19.896Z</time>
      </trkpt>
      <trkpt lat="47.674543" lon="-2.564335">
        <ele>123.122973</ele>
        <time>2025-06-25T12:33:21.108Z</time>
      </trkpt>
      <trkpt lat="47.674559" lon="-2.564209">
        <ele>123.169907</ele>
        <time>2025-06-25T12:33:22.379Z</time>
      </trkpt>
      <trkpt lat="47.674605" lon="-2.564152">
        <ele>123.202474</ele>
        <time>2025-06-25T12:33:23.266Z</time>
      </trkpt>
      <trkpt lat="47.674627" lon="-2.564024">
        <ele>123.250830</ele>
        <time>2025-06-25T12:33:24.603Z</time>
      </trkpt>
      <trkpt lat="47.674653" lon="-2.563875">
        <ele>123.307172</ele>
        <time>2025-06-25T12:33:26.174Z</time>
      </trkpt>
      <trkpt lat="47.674628" lon="-2.563191">
        <ele>123.565047</ele>
        <time>2025-06-25T12:33:33.502Z</time>
      </trkpt>
      <trkpt lat="47.674584" lon="-2.562721">
        <ele>123.951038</ele>
        <time>2025-06-25T12:33:38.810Z</time>
      </trkpt>
      <trkpt lat="47.674462" lon="-2.561927">
        <ele>124.613509</ele>
        <time>2025-06-25T12:33:48.046Z</time>
      </trkpt>
      <trkpt lat="47.674236" lon="-2.561278">
        <ele>125.207851</ele>
        <time>2025-06-25T12:33:57.750Z</time>
      </trkpt>
      <trkpt lat="47.674088" lon="-2.560878">
        <ele>125.579115</ele>
        <time>2025-06-25T12:34:05.245Z</time>
      </trkpt>
      <trkpt lat="47.673964" lon="-2.560436">
        <ele>126.220454</ele>
        <time>2025-06-25T12:34:13.541Z</time>
      </trkpt>
      <trkpt lat="47.673883" lon="-2.559898">
        <ele>127.132364</ele>
        <time>2025-06-25T12:34:23.261Z</time>
      </trkpt>
      <trkpt lat="47.673856" lon="-2.559264">
        <ele>128.183193</ele>
        <time>2025-06-25T12:34:34.471Z</time>
      </trkpt>
      <trkpt lat="47.673919" lon="-2.558734">
        <ele>129.073451</ele>
        <time>2025-06-25T12:34:43.832Z</time>
      </trkpt>
      <trkpt lat="47.674113" lon="-2.557810">
        <ele>130.334691</ele>
        <time>2025-06-25T12:34:59.005Z</time>
      </trkpt>
      <trkpt lat="47.674227" lon="-2.557066">
        <ele>130.789169</ele>
        <time>2025-06-25T12:35:08.808Z</time>
      </trkpt>
      <trkpt lat="47.674279" lon="-2.556312">
        <ele>131.240622</ele>
        <time>2025-06-25T12:35:17.309Z</time>
      </trkpt>
      <trkpt lat="47.674260" lon="-2.555041">
        <ele>131.828170</ele>
        <time>2025-06-25T12:35:30.908Z</time>
      </trkpt>
      <trkpt lat="47.674208" lon="-2.552363">
        <ele>131.956331</ele>
        <time>2025-06-25T12:36:00.491Z</time>
      </trkpt>
      <trkpt lat="47.674184" lon="-2.551358">
        <ele>131.187657</ele>
        <time>2025-06-25T12:36:09.501Z</time>
      </trkpt>
      <trkpt lat="47.674154" lon="-2.550458">
        <ele>130.498881</ele>
        <time>2025-06-25T12:36:16.262Z</time>
      </trkpt>
      <trkpt lat="47.674067" lon="-2.549965">
        <ele>129.812429</ele>
        <time>2025-06-25T12:36:19.854Z</time>
      </trkpt>
      <trkpt lat="47.673596" lon="-2.548129">
        <ele>125.321590</ele>
        <time>2025-06-25T12:36:32.979Z</time>
      </trkpt>
      <trkpt lat="47.673245" lon="-2.546102">
        <ele>121.040053</ele>
        <time>2025-06-25T12:36:47.092Z</time>
      </trkpt>
      <trkpt lat="47.672389" lon="-2.540921">
        <ele>113.248962</ele>
        <time>2025-06-25T12:37:25.891Z</time>
      </trkpt>
      <trkpt lat="47.672112" lon="-2.539178">
        <ele>111.815738</ele>
        <time>2025-06-25T12:37:41.331Z</time>
      </trkpt>
      <trkpt lat="47.671997" lon="-2.538471">
        <ele>111.542239</ele>
        <time>2025-06-25T12:37:47.790Z</time>
      </trkpt>
      <trkpt lat="47.671863" lon="-2.537668">
        <ele>111.231153</ele>
        <time>2025-06-25T12:37:54.966Z</time>
      </trkpt>
      <trkpt lat="47.671568" lon="-2.536149">
        <ele>111.597884</ele>
        <time>2025-06-25T12:38:09.649Z</time>
      </trkpt>
      <trkpt lat="47.670718" lon="-2.532813">
        <ele>115.023919</ele>
        <time>2025-06-25T12:38:59.405Z</time>
      </trkpt>
      <trkpt lat="47.670604" lon="-2.532285">
        <ele>115.763433</ele>
        <time>2025-06-25T12:39:09.645Z</time>
      </trkpt>
      <trkpt lat="47.670575" lon="-2.532016">
        <ele>116.303583</ele>
        <time>2025-06-25T12:39:14.949Z</time>
      </trkpt>
      <trkpt lat="47.670572" lon="-2.530371">
        <ele>119.883369</ele>
        <time>2025-06-25T12:39:47.986Z</time>
      </trkpt>
      <trkpt lat="47.670547" lon="-2.530007">
        <ele>120.679599</ele>
        <time>2025-06-25T12:39:54.764Z</time>
      </trkpt>
      <trkpt lat="47.670484" lon="-2.529563">
        <ele>121.661815</ele>
        <time>2025-06-25T12:40:02.714Z</time>
      </trkpt>
      <trkpt lat="47.670354" lon="-2.529095">
        <ele>122.011091</ele>
        <time>2025-06-25T12:40:10.766Z</time>
      </trkpt>
      <trkpt lat="47.670003" lon="-2.528175">
        <ele>122.740618</ele>
        <time>2025-06-25T12:40:24.962Z</time>
      </trkpt>
      <trkpt lat="47.669174" lon="-2.526004">
        <ele>122.693563</ele>
        <time>2025-06-25T12:40:49.059Z</time>
      </trkpt>
      <trkpt lat="47.669071" lon="-2.525569">
        <ele>122.425683</ele>
        <time>2025-06-25T12:40:52.721Z</time>
      </trkpt>
      <trkpt lat="47.669015" lon="-2.525111">
        <ele>122.155258</ele>
        <time>2025-06-25T12:40:56.305Z</time>
      </trkpt>
      <trkpt lat="47.668866" lon="-2.522720">
        <ele>119.380275</ele>
        <time>2025-06-25T12:41:14.046Z</time>
      </trkpt>
      <trkpt lat="47.668804" lon="-2.522269">
        <ele>118.802816</ele>
        <time>2025-06-25T12:41:17.516Z</time>
      </trkpt>
      <trkpt lat="47.668667" lon="-2.521768">
        <ele>118.270707</ele>
        <time>2025-06-25T12:41:21.688Z</time>
      </trkpt>
      <trkpt lat="47.668531" lon="-2.521426">
        <ele>117.925754</ele>
        <time>2025-06-25T12:41:24.815Z</time>
      </trkpt>
      <trkpt lat="47.667200" lon="-2.518251">
        <ele>113.978066</ele>
        <time>2025-06-25T12:41:54.869Z</time>
      </trkpt>
      <trkpt lat="47.665521" lon="-2.514248">
        <ele>105.104123</ele>
        <time>2025-06-25T12:42:27.055Z</time>
      </trkpt>
      <trkpt lat="47.665386" lon="-2.513868">
        <ele>104.352018</ele>
        <time>2025-06-25T12:42:30.151Z</time>
      </trkpt>
      <trkpt lat="47.665318" lon="-2.513544">
        <ele>103.757924</ele>
        <time>2025-06-25T12:42:32.651Z</time>
      </trkpt>
      <trkpt lat="47.665343" lon="-2.513236">
        <ele>103.214841</ele>
        <time>2025-06-25T12:42:34.962Z</time>
      </trkpt>
      <trkpt lat="47.665535" lon="-2.512549">
        <ele>101.973114</ele>
        <time>2025-06-25T12:42:40.621Z</time>
      </trkpt>
      <trkpt lat="47.665654" lon="-2.511931">
        <ele>100.952327</ele>
        <time>2025-06-25T12:42:45.288Z</time>
      </trkpt>
      <trkpt lat="47.665647" lon="-2.511059">
        <ele>99.567391</ele>
        <time>2025-06-25T12:42:51.325Z</time>
      </trkpt>
      <trkpt lat="47.665579" lon="-2.509670">
        <ele>97.824148</ele>
        <time>2025-06-25T12:43:01.283Z</time>
      </trkpt>
      <trkpt lat="47.665547" lon="-2.508576">
        <ele>96.928411</ele>
        <time>2025-06-25T12:43:10.352Z</time>
      </trkpt>
      <trkpt lat="47.665599" lon="-2.507674">
        <ele>96.187876</ele>
        <time>2025-06-25T12:43:19.283Z</time>
      </trkpt>
      <trkpt lat="47.665607" lon="-2.507398">
        <ele>95.617195</ele>
        <time>2025-06-25T12:43:21.677Z</time>
      </trkpt>
      <trkpt lat="47.665546" lon="-2.506465">
        <ele>93.341463</ele>
        <time>2025-06-25T12:43:28.609Z</time>
      </trkpt>
      <trkpt lat="47.665597" lon="-2.506258">
        <ele>92.806346</ele>
        <time>2025-06-25T12:43:30.094Z</time>
      </trkpt>
      <trkpt lat="47.665904" lon="-2.505532">
        <ele>90.725163</ele>
        <time>2025-06-25T12:43:35.533Z</time>
      </trkpt>
      <trkpt lat="47.665973" lon="-2.505300">
        <ele>90.109451</ele>
        <time>2025-06-25T12:43:37.096Z</time>
      </trkpt>
      <trkpt lat="47.665999" lon="-2.505048">
        <ele>89.387609</ele>
        <time>2025-06-25T12:43:38.661Z</time>
      </trkpt>
      <trkpt lat="47.665929" lon="-2.504368">
        <ele>86.660623</ele>
        <time>2025-06-25T12:43:42.855Z</time>
      </trkpt>
      <trkpt lat="47.665836" lon="-2.504015">
        <ele>85.157979</ele>
        <time>2025-06-25T12:43:45.172Z</time>
      </trkpt>
      <trkpt lat="47.664685" lon="-2.500705">
        <ele>71.231512</ele>
        <time>2025-06-25T12:44:08.464Z</time>
      </trkpt>
      <trkpt lat="47.664422" lon="-2.500094">
        <ele>69.457084</ele>
        <time>2025-06-25T12:44:13.014Z</time>
      </trkpt>
      <trkpt lat="47.664109" lon="-2.499532">
        <ele>69.314219</ele>
        <time>2025-06-25T12:44:17.948Z</time>
      </trkpt>
      <trkpt lat="47.664053" lon="-2.499343">
        <ele>69.273769</ele>
        <time>2025-06-25T12:44:19.501Z</time>
      </trkpt>
      <trkpt lat="47.664023" lon="-2.499125">
        <ele>69.230180</ele>
        <time>2025-06-25T12:44:21.307Z</time>
      </trkpt>
      <trkpt lat="47.664009" lon="-2.498951">
        <ele>69.195851</ele>
        <time>2025-06-25T12:44:22.854Z</time>
      </trkpt>
      <trkpt lat="47.664022" lon="-2.498463">
        <ele>69.100176</ele>
        <time>2025-06-25T12:44:28.968Z</time>
      </trkpt>
      <trkpt lat="47.664104" lon="-2.498169">
        <ele>69.037838</ele>
        <time>2025-06-25T12:44:34.627Z</time>
      </trkpt>
      <trkpt lat="47.664146" lon="-2.498105">
        <ele>69.020332</ele>
        <time>2025-06-25T12:44:36.374Z</time>
      </trkpt>
      <trkpt lat="47.664244" lon="-2.498037">
        <ele>68.988867</ele>
        <time>2025-06-25T12:44:40.022Z</time>
      </trkpt>
      <trkpt lat="47.664601" lon="-2.497987">
        <ele>71.659676</ele>
        <time>2025-06-25T12:44:54.621Z</time>
      </trkpt>
      <trkpt lat="47.664726" lon="-2.497908">
        <ele>72.752006</ele>
        <time>2025-06-25T12:45:01.423Z</time>
      </trkpt>
      <trkpt lat="47.664772" lon="-2.497846">
        <ele>73.251527</ele>
        <time>2025-06-25T12:45:04.561Z</time>
      </trkpt>
      <trkpt lat="47.664834" lon="-2.497663">
        <ele>74.360816</ele>
        <time>2025-06-25T12:45:11.617Z</time>
      </trkpt>
      <trkpt lat="47.664861" lon="-2.497444">
        <ele>75.566426</ele>
        <time>2025-06-25T12:45:19.390Z</time>
      </trkpt>
      <trkpt lat="47.664770" lon="-2.496640">
        <ele>79.981211</ele>
        <time>2025-06-25T12:45:48.931Z</time>
      </trkpt>
      <trkpt lat="47.664762" lon="-2.496370">
        <ele>81.444699</ele>
        <time>2025-06-25T12:45:58.794Z</time>
      </trkpt>
      <trkpt lat="47.664851" lon="-2.495372">
        <ele>85.455665</ele>
        <time>2025-06-25T12:46:31.827Z</time>
      </trkpt>
      <trkpt lat="47.664838" lon="-2.495038">
        <ele>86.511452</ele>
        <time>2025-06-25T12:46:41.066Z</time>
      </trkpt>
      <trkpt lat="47.664778" lon="-2.494709">
        <ele>87.587097</ele>
        <time>2025-06-25T12:46:49.597Z</time>
      </trkpt>
      <trkpt lat="47.664355" lon="-2.493209">
        <ele>92.181874</ele>
        <time>2025-06-25T12:47:15.236Z</time>
      </trkpt>
      <trkpt lat="47.664234" lon="-2.492613">
        <ele>92.900779</ele>
        <time>2025-06-25T12:47:22.419Z</time>
      </trkpt>
      <trkpt lat="47.664167" lon="-2.492052">
        <ele>93.558777</ele>
        <time>2025-06-25T12:47:29.563Z</time>
      </trkpt>
      <trkpt lat="47.664246" lon="-2.489894">
        <ele>96.272292</ele>
        <time>2025-06-25T12:48:04.530Z</time>
      </trkpt>
      <trkpt lat="47.664297" lon="-2.489560">
        <ele>96.746159</ele>
        <time>2025-06-25T12:48:10.388Z</time>
      </trkpt>
      <trkpt lat="47.664344" lon="-2.489253">
        <ele>97.181774</ele>
        <time>2025-06-25T12:48:15.558Z</time>
      </trkpt>
      <trkpt lat="47.664447" lon="-2.488574">
        <ele>98.144804</ele>
        <time>2025-06-25T12:48:26.170Z</time>
      </trkpt>
      <trkpt lat="47.664670" lon="-2.487308">
        <ele>99.290428</ele>
        <time>2025-06-25T12:48:43.341Z</time>
      </trkpt>
      <trkpt lat="47.664875" lon="-2.486118">
        <ele>100.123224</ele>
        <time>2025-06-25T12:48:58.150Z</time>
      </trkpt>
      <trkpt lat="47.664942" lon="-2.485635">
        <ele>100.457571</ele>
        <time>2025-06-25T12:49:04.328Z</time>
      </trkpt>
      <trkpt lat="47.665027" lon="-2.484567">
        <ele>100.718921</ele>
        <time>2025-06-25T12:49:18.255Z</time>
      </trkpt>
      <trkpt lat="47.665084" lon="-2.483966">
        <ele>100.864717</ele>
        <time>2025-06-25T12:49:25.281Z</time>
      </trkpt>
      <trkpt lat="47.665100" lon="-2.483812">
        <ele>100.902149</ele>
        <time>2025-06-25T12:49:26.963Z</time>
      </trkpt>
      <trkpt lat="47.665159" lon="-2.483689">
        <ele>100.938424</ele>
        <time>2025-06-25T12:49:28.558Z</time>
      </trkpt>
      <trkpt lat="47.664572" lon="-2.481467">
        <ele>100.125817</ele>
        <time>2025-06-25T12:49:48.957Z</time>
      </trkpt>
      <trkpt lat="47.663745" lon="-2.478362">
        <ele>97.922313</ele>
        <time>2025-06-25T12:50:16.064Z</time>
      </trkpt>
      <trkpt lat="47.663617" lon="-2.477793">
        <ele>97.461928</ele>
        <time>2025-06-25T12:50:21.224Z</time>
      </trkpt>
      <trkpt lat="47.663570" lon="-2.477539">
        <ele>97.240038</ele>
        <time>2025-06-25T12:50:23.514Z</time>
      </trkpt>
      <trkpt lat="47.663529" lon="-2.477320">
        <ele>97.048565</ele>
        <time>2025-06-25T12:50:25.489Z</time>
      </trkpt>
      <trkpt lat="47.663440" lon="-2.476933">
        <ele>96.704087</ele>
        <time>2025-06-25T12:50:28.982Z</time>
      </trkpt>
      <trkpt lat="47.663236" lon="-2.476376">
        <ele>96.169996</ele>
        <time>2025-06-25T12:50:34.011Z</time>
      </trkpt>
      <trkpt lat="47.663089" lon="-2.476069">
        <ele>95.852689</ele>
        <time>2025-06-25T12:50:36.866Z</time>
      </trkpt>
      <trkpt lat="47.662881" lon="-2.475751">
        <ele>95.479273</ele>
        <time>2025-06-25T12:50:40.163Z</time>
      </trkpt>
      <trkpt lat="47.662642" lon="-2.475368">
        <ele>94.841803</ele>
        <time>2025-06-25T12:50:44.013Z</time>
      </trkpt>
      <trkpt lat="47.662545" lon="-2.475115">
        <ele>94.481736</ele>
        <time>2025-06-25T12:50:46.147Z</time>
      </trkpt>
      <trkpt lat="47.662449" lon="-2.474399">
        <ele>93.578792</ele>
        <time>2025-06-25T12:50:51.502Z</time>
      </trkpt>
      <trkpt lat="47.662217" lon="-2.473367">
        <ele>92.233158</ele>
        <time>2025-06-25T12:50:59.756Z</time>
      </trkpt>
      <trkpt lat="47.662147" lon="-2.472959">
        <ele>91.743992</ele>
        <time>2025-06-25T12:51:03.074Z</time>
      </trkpt>
      <trkpt lat="47.662088" lon="-2.472326">
        <ele>91.009570</ele>
        <time>2025-06-25T12:51:08.110Z</time>
      </trkpt>
      <trkpt lat="47.662053" lon="-2.472203">
        <ele>90.856111</ele>
        <time>2025-06-25T12:51:09.150Z</time>
      </trkpt>
      <trkpt lat="47.661975" lon="-2.471968">
        <ele>90.555015</ele>
        <time>2025-06-25T12:51:11.159Z</time>
      </trkpt>
      <trkpt lat="47.661910" lon="-2.471928">
        <ele>90.434949</ele>
        <time>2025-06-25T12:51:11.961Z</time>
      </trkpt>
      <trkpt lat="47.661898" lon="-2.471903">
        <ele>90.399667</ele>
        <time>2025-06-25T12:51:12.195Z</time>
      </trkpt>
      <trkpt lat="47.661895" lon="-2.471813">
        <ele>90.296106</ele>
        <time>2025-06-25T12:51:12.870Z</time>
      </trkpt>
      <trkpt lat="47.661952" lon="-2.471739">
        <ele>90.166903</ele>
        <time>2025-06-25T12:51:13.713Z</time>
      </trkpt>
      <trkpt lat="47.662077" lon="-2.471469">
        <ele>89.790358</ele>
        <time>2025-06-25T12:51:16.181Z</time>
      </trkpt>
      <trkpt lat="47.662285" lon="-2.470739">
        <ele>88.818056</ele>
        <time>2025-06-25T12:51:22.052Z</time>
      </trkpt>
      <trkpt lat="47.662308" lon="-2.470496">
        <ele>88.453593</ele>
        <time>2025-06-25T12:51:23.828Z</time>
      </trkpt>
      <trkpt lat="47.662314" lon="-2.470266">
        <ele>88.111729</ele>
        <time>2025-06-25T12:51:25.477Z</time>
      </trkpt>
      <trkpt lat="47.662260" lon="-2.469317">
        <ele>86.697202</ele>
        <time>2025-06-25T12:51:32.292Z</time>
      </trkpt>
      <trkpt lat="47.662188" lon="-2.468537">
        <ele>85.527872</ele>
        <time>2025-06-25T12:51:37.940Z</time>
      </trkpt>
      <trkpt lat="47.661905" lon="-2.467595">
        <ele>84.300076</ele>
        <time>2025-06-25T12:51:45.739Z</time>
      </trkpt>
      <trkpt lat="47.661710" lon="-2.467160">
        <ele>83.733477</ele>
        <time>2025-06-25T12:51:50.015Z</time>
      </trkpt>
      <trkpt lat="47.661524" lon="-2.466913">
        <ele>83.331731</ele>
        <time>2025-06-25T12:51:53.089Z</time>
      </trkpt>
      <trkpt lat="47.661262" lon="-2.466684">
        <ele>82.842264</ele>
        <time>2025-06-25T12:51:56.570Z</time>
      </trkpt>
      <trkpt lat="47.661080" lon="-2.466502">
        <ele>82.488993</ele>
        <time>2025-06-25T12:51:59.026Z</time>
      </trkpt>
      <trkpt lat="47.660957" lon="-2.466318">
        <ele>82.205632</ele>
        <time>2025-06-25T12:52:00.968Z</time>
      </trkpt>
      <trkpt lat="47.660848" lon="-2.465993">
        <ele>81.765479</ele>
        <time>2025-06-25T12:52:03.635Z</time>
      </trkpt>
      <trkpt lat="47.660792" lon="-2.465655">
        <ele>81.343497</ele>
        <time>2025-06-25T12:52:06.137Z</time>
      </trkpt>
      <trkpt lat="47.660781" lon="-2.465488">
        <ele>81.140072</ele>
        <time>2025-06-25T12:52:07.321Z</time>
      </trkpt>
      <trkpt lat="47.660805" lon="-2.464045">
        <ele>79.390151</ele>
        <time>2025-06-25T12:52:17.619Z</time>
      </trkpt>
      <trkpt lat="47.660813" lon="-2.463738">
        <ele>79.017688</ele>
        <time>2025-06-25T12:52:20.219Z</time>
      </trkpt>
      <trkpt lat="47.660824" lon="-2.463333">
        <ele>79.560074</ele>
        <time>2025-06-25T12:52:24.237Z</time>
      </trkpt>
      <trkpt lat="47.660833" lon="-2.463014">
        <ele>80.036937</ele>
        <time>2025-06-25T12:52:27.940Z</time>
      </trkpt>
      <trkpt lat="47.660864" lon="-2.461071">
        <ele>82.939737</ele>
        <time>2025-06-25T12:53:03.777Z</time>
      </trkpt>
      <trkpt lat="47.660891" lon="-2.460818">
        <ele>83.640955</ele>
        <time>2025-06-25T12:53:09.322Z</time>
      </trkpt>
      <trkpt lat="47.660938" lon="-2.460699">
        <ele>84.037686</ele>
        <time>2025-06-25T12:53:12.460Z</time>
      </trkpt>
      <trkpt lat="47.660923" lon="-2.460616">
        <ele>84.284826</ele>
        <time>2025-06-25T12:53:14.208Z</time>
      </trkpt>
      <trkpt lat="47.660944" lon="-2.460536">
        <ele>84.531752</ele>
        <time>2025-06-25T12:53:16.232Z</time>
      </trkpt>
      <trkpt lat="47.660903" lon="-2.460317">
        <ele>85.185446</ele>
        <time>2025-06-25T12:53:21.297Z</time>
      </trkpt>
      <trkpt lat="47.660891" lon="-2.460150">
        <ele>85.668441</ele>
        <time>2025-06-25T12:53:24.983Z</time>
      </trkpt>
      <trkpt lat="47.660877" lon="-2.459907">
        <ele>86.369829</ele>
        <time>2025-06-25T12:53:30.579Z</time>
      </trkpt>
      <trkpt lat="47.660819" lon="-2.459198">
        <ele>88.423807</ele>
        <time>2025-06-25T12:53:47.166Z</time>
      </trkpt>
      <trkpt lat="47.660758" lon="-2.458732">
        <ele>89.789042</ele>
        <time>2025-06-25T12:53:57.062Z</time>
      </trkpt>
      <trkpt lat="47.660732" lon="-2.458505">
        <ele>90.451238</ele>
        <time>2025-06-25T12:54:01.882Z</time>
      </trkpt>
      <trkpt lat="47.660677" lon="-2.457985">
        <ele>91.375824</ele>
        <time>2025-06-25T12:54:12.842Z</time>
      </trkpt>
      <trkpt lat="47.660538" lon="-2.456890">
        <ele>93.135640</ele>
        <time>2025-06-25T12:54:33.060Z</time>
      </trkpt>
      <trkpt lat="47.660464" lon="-2.456330">
        <ele>94.036930</ele>
        <time>2025-06-25T12:54:41.263Z</time>
      </trkpt>
      <trkpt lat="47.660316" lon="-2.455118">
        <ele>95.326340</ele>
        <time>2025-06-25T12:54:54.442Z</time>
      </trkpt>
      <trkpt lat="47.660271" lon="-2.454774">
        <ele>95.551709</ele>
        <time>2025-06-25T12:54:58.261Z</time>
      </trkpt>
      <trkpt lat="47.660246" lon="-2.454173">
        <ele>95.938963</ele>
        <time>2025-06-25T12:55:04.768Z</time>
      </trkpt>
      <trkpt lat="47.660329" lon="-2.453605">
        <ele>96.312756</ele>
        <time>2025-06-25T12:55:12.094Z</time>
      </trkpt>
      <trkpt lat="47.660384" lon="-2.453279">
        <ele>96.528891</ele>
        <time>2025-06-25T12:55:17.144Z</time>
      </trkpt>
      <trkpt lat="47.660406" lon="-2.453111">
        <ele>96.703529</ele>
        <time>2025-06-25T12:55:19.962Z</time>
      </trkpt>
      <trkpt lat="47.660385" lon="-2.452877">
        <ele>97.069567</ele>
        <time>2025-06-25T12:55:24.051Z</time>
      </trkpt>
      <trkpt lat="47.660330" lon="-2.452820">
        <ele>97.223981</ele>
        <time>2025-06-25T12:55:25.775Z</time>
      </trkpt>
      <trkpt lat="47.660303" lon="-2.452729">
        <ele>97.378166</ele>
        <time>2025-06-25T12:55:27.580Z</time>
      </trkpt>
      <trkpt lat="47.660328" lon="-2.452584">
        <ele>97.610248</ele>
        <time>2025-06-25T12:55:30.265Z</time>
      </trkpt>
      <trkpt lat="47.660370" lon="-2.452533">
        <ele>97.735158</ele>
        <time>2025-06-25T12:55:31.784Z</time>
      </trkpt>
      <trkpt lat="47.660475" lon="-2.452526">
        <ele>97.977128</ele>
        <time>2025-06-25T12:55:34.610Z</time>
      </trkpt>
      <trkpt lat="47.660490" lon="-2.452537">
        <ele>98.015643</ele>
        <time>2025-06-25T12:55:35.052Z</time>
      </trkpt>
      <trkpt lat="47.660523" lon="-2.452471">
        <ele>98.143097</ele>
        <time>2025-06-25T12:55:36.606Z</time>
      </trkpt>
      <trkpt lat="47.660575" lon="-2.452408">
        <ele>98.297607</ele>
        <time>2025-06-25T12:55:38.372Z</time>
      </trkpt>
      <trkpt lat="47.660656" lon="-2.452345">
        <ele>98.508119</ele>
        <time>2025-06-25T12:55:40.902Z</time>
      </trkpt>
      <trkpt lat="47.660880" lon="-2.452170">
        <ele>99.090836</ele>
        <time>2025-06-25T12:55:47.319Z</time>
      </trkpt>
      <trkpt lat="47.661082" lon="-2.452033">
        <ele>99.602092</ele>
        <time>2025-06-25T12:55:52.448Z</time>
      </trkpt>
      <trkpt lat="47.660736" lon="-2.450338">
        <ele>101.806673</ele>
        <time>2025-06-25T12:56:18.497Z</time>
      </trkpt>
      <trkpt lat="47.660659" lon="-2.449930">
        <ele>102.243231</ele>
        <time>2025-06-25T12:56:24.043Z</time>
      </trkpt>
      <trkpt lat="47.660559" lon="-2.449152">
        <ele>103.059280</ele>
        <time>2025-06-25T12:56:34.887Z</time>
      </trkpt>
      <trkpt lat="47.660271" lon="-2.448229">
        <ele>103.912494</ele>
        <time>2025-06-25T12:56:49.478Z</time>
      </trkpt>
      <trkpt lat="47.660199" lon="-2.447994">
        <ele>104.095152</ele>
        <time>2025-06-25T12:56:53.108Z</time>
      </trkpt>
      <trkpt lat="47.660168" lon="-2.447897">
        <ele>104.171114</ele>
        <time>2025-06-25T12:56:54.633Z</time>
      </trkpt>
      <trkpt lat="47.660131" lon="-2.447766">
        <ele>104.271617</ele>
        <time>2025-06-25T12:56:57.139Z</time>
      </trkpt>
      <trkpt lat="47.660057" lon="-2.447475">
        <ele>104.491687</ele>
        <time>2025-06-25T12:57:02.548Z</time>
      </trkpt>
      <trkpt lat="47.659952" lon="-2.446508">
        <ele>105.184682</ele>
        <time>2025-06-25T12:57:18.356Z</time>
      </trkpt>
      <trkpt lat="47.659928" lon="-2.446287">
        <ele>105.343061</ele>
        <time>2025-06-25T12:57:21.549Z</time>
      </trkpt>
      <trkpt lat="47.659866" lon="-2.445696">
        <ele>105.202984</ele>
        <time>2025-06-25T12:57:29.233Z</time>
      </trkpt>
      <trkpt lat="47.659819" lon="-2.445499">
        <ele>105.138078</ele>
        <time>2025-06-25T12:57:31.845Z</time>
      </trkpt>
      <trkpt lat="47.659883" lon="-2.445298">
        <ele>105.069031</ele>
        <time>2025-06-25T12:57:34.600Z</time>
      </trkpt>
      <trkpt lat="47.659912" lon="-2.444469">
        <ele>104.811227</ele>
        <time>2025-06-25T12:57:44.679Z</time>
      </trkpt>
      <trkpt lat="47.659945" lon="-2.443562">
        <ele>104.513403</ele>
        <time>2025-06-25T12:57:55.615Z</time>
      </trkpt>
      <trkpt lat="47.660000" lon="-2.441423">
        <ele>103.207799</ele>
        <time>2025-06-25T12:58:22.268Z</time>
      </trkpt>
      <trkpt lat="47.660014" lon="-2.440821">
        <ele>102.652025</ele>
        <time>2025-06-25T12:58:28.926Z</time>
      </trkpt>
      <trkpt lat="47.660017" lon="-2.440760">
        <ele>102.522539</ele>
        <time>2025-06-25T12:58:29.573Z</time>
      </trkpt>
      <trkpt lat="47.659969" lon="-2.440393">
        <ele>101.731058</ele>
        <time>2025-06-25T12:58:33.429Z</time>
      </trkpt>
      <trkpt lat="47.659990" lon="-2.439996">
        <ele>100.887990</ele>
        <time>2025-06-25T12:58:36.187Z</time>
      </trkpt>
      <trkpt lat="47.659981" lon="-2.439612">
        <ele>100.074540</ele>
        <time>2025-06-25T12:58:38.771Z</time>
      </trkpt>
      <trkpt lat="47.660019" lon="-2.439031">
        <ele>98.838733</ele>
        <time>2025-06-25T12:58:42.638Z</time>
      </trkpt>
      <trkpt lat="47.660258" lon="-2.438074">
        <ele>96.721581</ele>
        <time>2025-06-25T12:58:49.376Z</time>
      </trkpt>
      <trkpt lat="47.660291" lon="-2.437765">
        <ele>96.108678</ele>
        <time>2025-06-25T12:58:51.443Z</time>
      </trkpt>
      <trkpt lat="47.660298" lon="-2.437315">
        <ele>95.226879</ele>
        <time>2025-06-25T12:58:54.474Z</time>
      </trkpt>
      <trkpt lat="47.660301" lon="-2.436924">
        <ele>94.460849</ele>
        <time>2025-06-25T12:58:57.175Z</time>
      </trkpt>
      <trkpt lat="47.660307" lon="-2.436419">
        <ele>93.471385</ele>
        <time>2025-06-25T12:59:00.761Z</time>
      </trkpt>
      <trkpt lat="47.660267" lon="-2.435961">
        <ele>92.566637</ele>
        <time>2025-06-25T12:59:04.152Z</time>
      </trkpt>
      <trkpt lat="47.660041" lon="-2.434616">
        <ele>90.632029</ele>
        <time>2025-06-25T12:59:14.574Z</time>
      </trkpt>
      <trkpt lat="47.659719" lon="-2.433059">
        <ele>88.591053</ele>
        <time>2025-06-25T12:59:26.766Z</time>
      </trkpt>
      <trkpt lat="47.659428" lon="-2.430425">
        <ele>85.585738</ele>
        <time>2025-06-25T12:59:46.660Z</time>
      </trkpt>
      <trkpt lat="47.659402" lon="-2.429846">
        <ele>85.690130</ele>
        <time>2025-06-25T12:59:51.617Z</time>
      </trkpt>
      <trkpt lat="47.659414" lon="-2.429095">
        <ele>85.825270</ele>
        <time>2025-06-25T12:59:59.512Z</time>
      </trkpt>
      <trkpt lat="47.659460" lon="-2.428184">
        <ele>85.989615</ele>
        <time>2025-06-25T13:00:11.431Z</time>
      </trkpt>
      <trkpt lat="47.659489" lon="-2.427706">
        <ele>86.143761</ele>
        <time>2025-06-25T13:00:18.345Z</time>
      </trkpt>
      <trkpt lat="47.659641" lon="-2.424835">
        <ele>87.706521</ele>
        <time>2025-06-25T13:00:56.303Z</time>
      </trkpt>
      <trkpt lat="47.659654" lon="-2.423662">
        <ele>86.720055</ele>
        <time>2025-06-25T13:01:06.352Z</time>
      </trkpt>
      <trkpt lat="47.659522" lon="-2.422789">
        <ele>85.967711</ele>
        <time>2025-06-25T13:01:12.870Z</time>
      </trkpt>
      <trkpt lat="47.659455" lon="-2.422060">
        <ele>84.577021</ele>
        <time>2025-06-25T13:01:17.859Z</time>
      </trkpt>
      <trkpt lat="47.659423" lon="-2.421488">
        <ele>83.145884</ele>
        <time>2025-06-25T13:01:21.612Z</time>
      </trkpt>
      <trkpt lat="47.659341" lon="-2.420973">
        <ele>81.826387</ele>
        <time>2025-06-25T13:01:24.993Z</time>
      </trkpt>
      <trkpt lat="47.659248" lon="-2.420601">
        <ele>80.837005</ele>
        <time>2025-06-25T13:01:27.537Z</time>
      </trkpt>
      <trkpt lat="47.659179" lon="-2.420446">
        <ele>80.373741</ele>
        <time>2025-06-25T13:01:28.745Z</time>
      </trkpt>
      <trkpt lat="47.659090" lon="-2.420320">
        <ele>79.918487</ele>
        <time>2025-06-25T13:01:29.942Z</time>
      </trkpt>
      <trkpt lat="47.658676" lon="-2.419920">
        <ele>79.308233</ele>
        <time>2025-06-25T13:01:35.019Z</time>
      </trkpt>
      <trkpt lat="47.658607" lon="-2.419765">
        <ele>79.413095</ele>
        <time>2025-06-25T13:01:36.449Z</time>
      </trkpt>
      <trkpt lat="47.658569" lon="-2.419627">
        <ele>79.497240</ele>
        <time>2025-06-25T13:01:37.685Z</time>
      </trkpt>
      <trkpt lat="47.658520" lon="-2.419312">
        <ele>79.679707</ele>
        <time>2025-06-25T13:01:40.741Z</time>
      </trkpt>
      <trkpt lat="47.658552" lon="-2.418905">
        <ele>79.910978</ele>
        <time>2025-06-25T13:01:45.849Z</time>
      </trkpt>
      <trkpt lat="47.658702" lon="-2.418511">
        <ele>80.166417</ele>
        <time>2025-06-25T13:01:53.104Z</time>
      </trkpt>
      <trkpt lat="47.658740" lon="-2.418354">
        <ele>80.260575</ele>
        <time>2025-06-25T13:01:56.224Z</time>
      </trkpt>
      <trkpt lat="47.658835" lon="-2.417701">
        <ele>80.821347</ele>
        <time>2025-06-25T13:02:10.089Z</time>
      </trkpt>
      <trkpt lat="47.658875" lon="-2.416256">
        <ele>84.822608</ele>
        <time>2025-06-25T13:02:41.936Z</time>
      </trkpt>
      <trkpt lat="47.658983" lon="-2.415142">
        <ele>87.936474</ele>
        <time>2025-06-25T13:03:05.781Z</time>
      </trkpt>
      <trkpt lat="47.658991" lon="-2.414723">
        <ele>88.657721</ele>
        <time>2025-06-25T13:03:14.083Z</time>
      </trkpt>
      <trkpt lat="47.658901" lon="-2.413841">
        <ele>90.157317</ele>
        <time>2025-06-25T13:03:30.131Z</time>
      </trkpt>
      <trkpt lat="47.658885" lon="-2.412805">
        <ele>91.899334</ele>
        <time>2025-06-25T13:03:45.791Z</time>
      </trkpt>
      <trkpt lat="47.658856" lon="-2.412043">
        <ele>92.833633</ele>
        <time>2025-06-25T13:03:56.010Z</time>
      </trkpt>
      <trkpt lat="47.658494" lon="-2.408843">
        <ele>95.506232</ele>
        <time>2025-06-25T13:04:38.974Z</time>
      </trkpt>
      <trkpt lat="47.658464" lon="-2.408568">
        <ele>95.712575</ele>
        <time>2025-06-25T13:04:42.702Z</time>
      </trkpt>
      <trkpt lat="47.657839" lon="-2.403084">
        <ele>98.565522</ele>
        <time>2025-06-25T13:05:54.231Z</time>
      </trkpt>
      <trkpt lat="47.657547" lon="-2.400336">
        <ele>96.170173</ele>
        <time>2025-06-25T13:06:15.352Z</time>
      </trkpt>
      <trkpt lat="47.657401" lon="-2.399092">
        <ele>94.415256</ele>
        <time>2025-06-25T13:06:24.226Z</time>
      </trkpt>
      <trkpt lat="47.657399" lon="-2.399075">
        <ele>94.393207</ele>
        <time>2025-06-25T13:06:24.346Z</time>
      </trkpt>
      <trkpt lat="47.657322" lon="-2.398340">
        <ele>93.442853</ele>
        <time>2025-06-25T13:06:29.577Z</time>
      </trkpt>
      <trkpt lat="47.657026" lon="-2.397099">
        <ele>91.760823</ele>
        <time>2025-06-25T13:06:39.355Z</time>
      </trkpt>
      <trkpt lat="47.656921" lon="-2.396392">
        <ele>91.195749</ele>
        <time>2025-06-25T13:06:45.665Z</time>
      </trkpt>
      <trkpt lat="47.656798" lon="-2.395599">
        <ele>91.031868</ele>
        <time>2025-06-25T13:06:53.690Z</time>
      </trkpt>
      <trkpt lat="47.656759" lon="-2.395213">
        <ele>90.953262</ele>
        <time>2025-06-25T13:06:57.710Z</time>
      </trkpt>
      <trkpt lat="47.656742" lon="-2.394383">
        <ele>90.786032</ele>
        <time>2025-06-25T13:07:05.982Z</time>
      </trkpt>
      <trkpt lat="47.656634" lon="-2.393414">
        <ele>90.425245</ele>
        <time>2025-06-25T13:07:14.831Z</time>
      </trkpt>
      <trkpt lat="47.656467" lon="-2.392578">
        <ele>90.040855</ele>
        <time>2025-06-25T13:07:22.271Z</time>
      </trkpt>
      <trkpt lat="47.656303" lon="-2.392062">
        <ele>89.789340</ele>
        <time>2025-06-25T13:07:27.121Z</time>
      </trkpt>
      <trkpt lat="47.656095" lon="-2.391732">
        <ele>89.590112</ele>
        <time>2025-06-25T13:07:31.015Z</time>
      </trkpt>
      <trkpt lat="47.653427" lon="-2.387971">
        <ele>86.903923</ele>
        <time>2025-06-25T13:08:17.765Z</time>
      </trkpt>
      <trkpt lat="47.650504" lon="-2.383820">
        <ele>84.511629</ele>
        <time>2025-06-25T13:09:09.455Z</time>
      </trkpt>
      <trkpt lat="47.650001" lon="-2.383063">
        <ele>84.671308</ele>
        <time>2025-06-25T13:09:22.006Z</time>
      </trkpt>
      <trkpt lat="47.649266" lon="-2.381742">
        <ele>84.500058</ele>
        <time>2025-06-25T13:09:41.933Z</time>
      </trkpt>
      <trkpt lat="47.647991" lon="-2.379387">
        <ele>83.017229</ele>
        <time>2025-06-25T13:10:06.329Z</time>
      </trkpt>
      <trkpt lat="47.645393" lon="-2.374570">
        <ele>79.477667</ele>
        <time>2025-06-25T13:10:57.658Z</time>
      </trkpt>
      <trkpt lat="47.645246" lon="-2.374251">
        <ele>79.326624</ele>
        <time>2025-06-25T13:11:01.661Z</time>
      </trkpt>
      <trkpt lat="47.645162" lon="-2.373986">
        <ele>79.212167</ele>
        <time>2025-06-25T13:11:04.794Z</time>
      </trkpt>
      <trkpt lat="47.644542" lon="-2.370826">
        <ele>80.187440</ele>
        <time>2025-06-25T13:11:41.725Z</time>
      </trkpt>
      <trkpt lat="47.644423" lon="-2.369632">
        <ele>80.673366</ele>
        <time>2025-06-25T13:11:56.555Z</time>
      </trkpt>
      <trkpt lat="47.644295" lon="-2.368630">
        <ele>80.934635</ele>
        <time>2025-06-25T13:12:08.806Z</time>
      </trkpt>
      <trkpt lat="47.643966" lon="-2.367310">
        <ele>80.253070</ele>
        <time>2025-06-25T13:12:21.667Z</time>
      </trkpt>
      <trkpt lat="47.643242" lon="-2.364313">
        <ele>77.652200</ele>
        <time>2025-06-25T13:12:46.105Z</time>
      </trkpt>
      <trkpt lat="47.643161" lon="-2.363882">
        <ele>77.208773</ele>
        <time>2025-06-25T13:12:49.612Z</time>
      </trkpt>
      <trkpt lat="47.642979" lon="-2.362650">
        <ele>76.662921</ele>
        <time>2025-06-25T13:12:59.900Z</time>
      </trkpt>
      <trkpt lat="47.642771" lon="-2.361101">
        <ele>76.088733</ele>
        <time>2025-06-25T13:13:14.934Z</time>
      </trkpt>
      <trkpt lat="47.642717" lon="-2.360840">
        <ele>76.031431</ele>
        <time>2025-06-25T13:13:17.911Z</time>
      </trkpt>
      <trkpt lat="47.642474" lon="-2.360222">
        <ele>75.881254</ele>
        <time>2025-06-25T13:13:25.854Z</time>
      </trkpt>
      <trkpt lat="47.641975" lon="-2.360403">
        <ele>75.721238</ele>
        <time>2025-06-25T13:13:33.810Z</time>
      </trkpt>
      <trkpt lat="47.641729" lon="-2.360434">
        <ele>75.644332</ele>
        <time>2025-06-25T13:13:37.170Z</time>
      </trkpt>
      <trkpt lat="47.641526" lon="-2.360421">
        <ele>75.581037</ele>
        <time>2025-06-25T13:13:39.608Z</time>
      </trkpt>
      <trkpt lat="47.641304" lon="-2.360347">
        <ele>75.506749</ele>
        <time>2025-06-25T13:13:42.148Z</time>
      </trkpt>
      <trkpt lat="47.640855" lon="-2.360103">
        <ele>75.338593</ele>
        <time>2025-06-25T13:13:47.386Z</time>
      </trkpt>
      <trkpt lat="47.640451" lon="-2.359856">
        <ele>75.184931</ele>
        <time>2025-06-25T13:13:52.801Z</time>
      </trkpt>
      <trkpt lat="47.640154" lon="-2.359609">
        <ele>75.065202</ele>
        <time>2025-06-25T13:13:57.697Z</time>
      </trkpt>
      <trkpt lat="47.639763" lon="-2.359014">
        <ele>74.941041</ele>
        <time>2025-06-25T13:14:08.246Z</time>
      </trkpt>
      <trkpt lat="47.639129" lon="-2.358017">
        <ele>75.276478</ele>
        <time>2025-06-25T13:14:29.998Z</time>
      </trkpt>
      <trkpt lat="47.639026" lon="-2.357861">
        <ele>75.329920</ele>
        <time>2025-06-25T13:14:32.673Z</time>
      </trkpt>
      <trkpt lat="47.638551" lon="-2.357173">
        <ele>75.392995</ele>
        <time>2025-06-25T13:14:40.661Z</time>
      </trkpt>
      <trkpt lat="47.638222" lon="-2.356793">
        <ele>73.580157</ele>
        <time>2025-06-25T13:14:44.855Z</time>
      </trkpt>
      <trkpt lat="47.637287" lon="-2.355804">
        <ele>68.587368</ele>
        <time>2025-06-25T13:14:55.617Z</time>
      </trkpt>
      <trkpt lat="47.637094" lon="-2.355568">
        <ele>67.436494</ele>
        <time>2025-06-25T13:14:57.941Z</time>
      </trkpt>
      <trkpt lat="47.636778" lon="-2.355010">
        <ele>64.726648</ele>
        <time>2025-06-25T13:15:02.560Z</time>
      </trkpt>
      <trkpt lat="47.636606" lon="-2.354788">
        <ele>63.468968</ele>
        <time>2025-06-25T13:15:04.693Z</time>
      </trkpt>
      <trkpt lat="47.636512" lon="-2.354569">
        <ele>62.503627</ele>
        <time>2025-06-25T13:15:06.333Z</time>
      </trkpt>
      <trkpt lat="47.636474" lon="-2.354354">
        <ele>61.677268</ele>
        <time>2025-06-25T13:15:07.720Z</time>
      </trkpt>
      <trkpt lat="47.636286" lon="-2.354098">
        <ele>60.269525</ele>
        <time>2025-06-25T13:15:10.067Z</time>
      </trkpt>
      <trkpt lat="47.636077" lon="-2.354085">
        <ele>59.115386</ele>
        <time>2025-06-25T13:15:11.966Z</time>
      </trkpt>
      <trkpt lat="47.635752" lon="-2.354071">
        <ele>57.389668</ele>
        <time>2025-06-25T13:15:14.938Z</time>
      </trkpt>
      <trkpt lat="47.635622" lon="-2.354101">
        <ele>56.764640</ele>
        <time>2025-06-25T13:15:16.175Z</time>
      </trkpt>
      <trkpt lat="47.635276" lon="-2.354159">
        <ele>55.110405</ele>
        <time>2025-06-25T13:15:19.433Z</time>
      </trkpt>
      <trkpt lat="47.635171" lon="-2.354186">
        <ele>54.604137</ele>
        <time>2025-06-25T13:15:20.425Z</time>
      </trkpt>
      <trkpt lat="47.635157" lon="-2.353837">
        <ele>53.484894</ele>
        <time>2025-06-25T13:15:22.641Z</time>
      </trkpt>
      <trkpt lat="47.635146" lon="-2.353589">
        <ele>52.689246</ele>
        <time>2025-06-25T13:15:24.223Z</time>
      </trkpt>
      <trkpt lat="47.635085" lon="-2.353216">
        <ele>51.460486</ele>
        <time>2025-06-25T13:15:26.698Z</time>
      </trkpt>
      <trkpt lat="47.634941" lon="-2.352540">
        <ele>49.210664</ele>
        <time>2025-06-25T13:15:31.403Z</time>
      </trkpt>
      <trkpt lat="47.634785" lon="-2.351819">
        <ele>47.416308</ele>
        <time>2025-06-25T13:15:36.641Z</time>
      </trkpt>
      <trkpt lat="47.634552" lon="-2.350991">
        <ele>45.290108</ele>
        <time>2025-06-25T13:15:42.676Z</time>
      </trkpt>
      <trkpt lat="47.634447" lon="-2.350527">
        <ele>44.130287</ele>
        <time>2025-06-25T13:15:45.945Z</time>
      </trkpt>
      <trkpt lat="47.634039" lon="-2.349157">
        <ele>40.061992</ele>
        <time>2025-06-25T13:15:55.946Z</time>
      </trkpt>
      <trkpt lat="47.633799" lon="-2.348001">
        <ele>36.565604</ele>
        <time>2025-06-25T13:16:03.742Z</time>
      </trkpt>
      <trkpt lat="47.633696" lon="-2.347628">
        <ele>35.400439</ele>
        <time>2025-06-25T13:16:06.307Z</time>
      </trkpt>
      <trkpt lat="47.633293" lon="-2.346576">
        <ele>31.981556</ele>
        <time>2025-06-25T13:16:14.077Z</time>
      </trkpt>
      <trkpt lat="47.633045" lon="-2.345876">
        <ele>29.749865</ele>
        <time>2025-06-25T13:16:19.230Z</time>
      </trkpt>
      <trkpt lat="47.632721" lon="-2.344745">
        <ele>26.302337</ele>
        <time>2025-06-25T13:16:27.561Z</time>
      </trkpt>
      <trkpt lat="47.632573" lon="-2.344506">
        <ele>25.399650</ele>
        <time>2025-06-25T13:16:29.769Z</time>
      </trkpt>
      <trkpt lat="47.632367" lon="-2.344409">
        <ele>24.507734</ele>
        <time>2025-06-25T13:16:31.942Z</time>
      </trkpt>
      <trkpt lat="47.631613" lon="-2.344479">
        <ele>21.389960</ele>
        <time>2025-06-25T13:16:39.286Z</time>
      </trkpt>
      <trkpt lat="47.631504" lon="-2.344460">
        <ele>20.937034</ele>
        <time>2025-06-25T13:16:40.313Z</time>
      </trkpt>
      <trkpt lat="47.631356" lon="-2.344358">
        <ele>20.261588</ele>
        <time>2025-06-25T13:16:41.819Z</time>
      </trkpt>
      <trkpt lat="47.631273" lon="-2.344237">
        <ele>19.673368</ele>
        <time>2025-06-25T13:16:42.896Z</time>
      </trkpt>
      <trkpt lat="47.631222" lon="-2.344060">
        <ele>19.017543</ele>
        <time>2025-06-25T13:16:44.091Z</time>
      </trkpt>
      <trkpt lat="47.631195" lon="-2.343797">
        <ele>18.111196</ele>
        <time>2025-06-25T13:16:45.739Z</time>
      </trkpt>
      <trkpt lat="47.631171" lon="-2.343422">
        <ele>16.827867</ele>
        <time>2025-06-25T13:16:48.072Z</time>
      </trkpt>
      <trkpt lat="47.631199" lon="-2.343132">
        <ele>15.829782</ele>
        <time>2025-06-25T13:16:49.884Z</time>
      </trkpt>
      <trkpt lat="47.631286" lon="-2.342920">
        <ele>14.984144</ele>
        <time>2025-06-25T13:16:51.424Z</time>
      </trkpt>
      <trkpt lat="47.631872" lon="-2.341915">
        <ele>11.526125</ele>
        <time>2025-06-25T13:16:59.810Z</time>
      </trkpt>
      <trkpt lat="47.631926" lon="-2.341783">
        <ele>11.778337</ele>
        <time>2025-06-25T13:17:00.929Z</time>
      </trkpt>
      <trkpt lat="47.631962" lon="-2.341577">
        <ele>12.125927</ele>
        <time>2025-06-25T13:17:02.653Z</time>
      </trkpt>
      <trkpt lat="47.631921" lon="-2.341152">
        <ele>12.827156</ele>
        <time>2025-06-25T13:17:08.316Z</time>
      </trkpt>
      <trkpt lat="47.631907" lon="-2.341061">
        <ele>12.979611</ele>
        <time>2025-06-25T13:17:10.006Z</time>
      </trkpt>
      <trkpt lat="47.631794" lon="-2.340332">
        <ele>14.201382</ele>
        <time>2025-06-25T13:17:26.680Z</time>
      </trkpt>
      <trkpt lat="47.631689" lon="-2.340024">
        <ele>14.765148</ele>
        <time>2025-06-25T13:17:35.760Z</time>
      </trkpt>
      <trkpt lat="47.631599" lon="-2.339908">
        <ele>15.054074</ele>
        <time>2025-06-25T13:17:40.605Z</time>
      </trkpt>
      <trkpt lat="47.631398" lon="-2.339770">
        <ele>15.613962</ele>
        <time>2025-06-25T13:17:49.843Z</time>
      </trkpt>
      <trkpt lat="47.631308" lon="-2.339756">
        <ele>15.930776</ele>
        <time>2025-06-25T13:17:53.621Z</time>
      </trkpt>
      <trkpt lat="47.631098" lon="-2.339839">
        <ele>16.691614</ele>
        <time>2025-06-25T13:18:02.500Z</time>
      </trkpt>
      <trkpt lat="47.630599" lon="-2.340397">
        <ele>18.879112</ele>
        <time>2025-06-25T13:18:23.801Z</time>
      </trkpt>
      <trkpt lat="47.630321" lon="-2.340984">
        <ele>20.571831</ele>
        <time>2025-06-25T13:18:32.929Z</time>
      </trkpt>
      <trkpt lat="47.630231" lon="-2.341132">
        <ele>21.042161</ele>
        <time>2025-06-25T13:18:35.191Z</time>
      </trkpt>
      <trkpt lat="47.630112" lon="-2.341262">
        <ele>21.559504</ele>
        <time>2025-06-25T13:18:37.838Z</time>
      </trkpt>
      <trkpt lat="47.629806" lon="-2.341458">
        <ele>23.031764</ele>
        <time>2025-06-25T13:18:44.706Z</time>
      </trkpt>
      <trkpt lat="47.629534" lon="-2.341561">
        <ele>24.351622</ele>
        <time>2025-06-25T13:18:51.592Z</time>
      </trkpt>
      <trkpt lat="47.629243" lon="-2.341535">
        <ele>25.722304</ele>
        <time>2025-06-25T13:19:00.520Z</time>
      </trkpt>
      <trkpt lat="47.629086" lon="-2.341477">
        <ele>26.483010</ele>
        <time>2025-06-25T13:19:06.222Z</time>
      </trkpt>
      <trkpt lat="47.628936" lon="-2.341325">
        <ele>27.337036</ele>
        <time>2025-06-25T13:19:13.292Z</time>
      </trkpt>
      <trkpt lat="47.628875" lon="-2.341108">
        <ele>28.082048</ele>
        <time>2025-06-25T13:19:19.920Z</time>
      </trkpt>
      <trkpt lat="47.628867" lon="-2.340698">
        <ele>29.381734</ele>
        <time>2025-06-25T13:19:32.288Z</time>
      </trkpt>
      <trkpt lat="47.628897" lon="-2.339185">
        <ele>34.861045</ele>
        <time>2025-06-25T13:20:17.658Z</time>
      </trkpt>
      <trkpt lat="47.628870" lon="-2.338615">
        <ele>36.989944</ele>
        <time>2025-06-25T13:20:32.333Z</time>
      </trkpt>
      <trkpt lat="47.628752" lon="-2.337669">
        <ele>40.252993</ele>
        <time>2025-06-25T13:20:52.149Z</time>
      </trkpt>
      <trkpt lat="47.628727" lon="-2.337305">
        <ele>40.320959</ele>
        <time>2025-06-25T13:20:58.086Z</time>
      </trkpt>
      <trkpt lat="47.628569" lon="-2.332512">
        <ele>39.218302</ele>
        <time>2025-06-25T13:21:39.769Z</time>
      </trkpt>
      <trkpt lat="47.628464" lon="-2.329553">
        <ele>35.286180</ele>
        <time>2025-06-25T13:22:01.342Z</time>
      </trkpt>
      <trkpt lat="47.628430" lon="-2.329220">
        <ele>34.919121</ele>
        <time>2025-06-25T13:22:03.784Z</time>
      </trkpt>
      <trkpt lat="47.628374" lon="-2.328983">
        <ele>34.645413</ele>
        <time>2025-06-25T13:22:05.629Z</time>
      </trkpt>
      <trkpt lat="47.628274" lon="-2.328731">
        <ele>34.326698</ele>
        <time>2025-06-25T13:22:07.797Z</time>
      </trkpt>
      <trkpt lat="47.628009" lon="-2.328359">
        <ele>33.736770</ele>
        <time>2025-06-25T13:22:11.845Z</time>
      </trkpt>
      <trkpt lat="47.626794" lon="-2.327084">
        <ele>32.499491</ele>
        <time>2025-06-25T13:22:30.162Z</time>
      </trkpt>
      <trkpt lat="47.626606" lon="-2.326794">
        <ele>32.462110</ele>
        <time>2025-06-25T13:22:34.545Z</time>
      </trkpt>
      <trkpt lat="47.626551" lon="-2.326597">
        <ele>32.442301</ele>
        <time>2025-06-25T13:22:37.027Z</time>
      </trkpt>
      <trkpt lat="47.626511" lon="-2.326320">
        <ele>32.415983</ele>
        <time>2025-06-25T13:22:40.478Z</time>
      </trkpt>
      <trkpt lat="47.626486" lon="-2.325571">
        <ele>32.185520</ele>
        <time>2025-06-25T13:22:49.617Z</time>
      </trkpt>
      <trkpt lat="47.626403" lon="-2.324675">
        <ele>31.150074</ele>
        <time>2025-06-25T13:22:58.822Z</time>
      </trkpt>
      <trkpt lat="47.626368" lon="-2.324098">
        <ele>30.486814</ele>
        <time>2025-06-25T13:23:03.343Z</time>
      </trkpt>
      <trkpt lat="47.626412" lon="-2.323306">
        <ele>29.577002</ele>
        <time>2025-06-25T13:23:08.763Z</time>
      </trkpt>
      <trkpt lat="47.626388" lon="-2.323028">
        <ele>29.210142</ele>
        <time>2025-06-25T13:23:10.570Z</time>
      </trkpt>
      <trkpt lat="47.626246" lon="-2.322228">
        <ele>27.374270</ele>
        <time>2025-06-25T13:23:15.823Z</time>
      </trkpt>
      <trkpt lat="47.626235" lon="-2.321958">
        <ele>26.774000</ele>
        <time>2025-06-25T13:23:17.560Z</time>
      </trkpt>
      <trkpt lat="47.626246" lon="-2.321715">
        <ele>26.233526</ele>
        <time>2025-06-25T13:23:19.150Z</time>
      </trkpt>
      <trkpt lat="47.626284" lon="-2.321490">
        <ele>25.718774</ele>
        <time>2025-06-25T13:23:20.693Z</time>
      </trkpt>
      <trkpt lat="47.626445" lon="-2.320839">
        <ele>24.179902</ele>
        <time>2025-06-25T13:23:25.617Z</time>
      </trkpt>
      <trkpt lat="47.626454" lon="-2.320711">
        <ele>23.894308</ele>
        <time>2025-06-25T13:23:26.637Z</time>
      </trkpt>
      <trkpt lat="47.626431" lon="-2.320427">
        <ele>23.331468</ele>
        <time>2025-06-25T13:23:28.989Z</time>
      </trkpt>
      <trkpt lat="47.626363" lon="-2.320073">
        <ele>22.991627</ele>
        <time>2025-06-25T13:23:32.203Z</time>
      </trkpt>
      <trkpt lat="47.626160" lon="-2.319075">
        <ele>22.029187</ele>
        <time>2025-06-25T13:23:42.072Z</time>
      </trkpt>
      <trkpt lat="47.625762" lon="-2.317689">
        <ele>20.207539</ele>
        <time>2025-06-25T13:23:53.356Z</time>
      </trkpt>
      <trkpt lat="47.625645" lon="-2.316654">
        <ele>17.751109</ele>
        <time>2025-06-25T13:24:00.295Z</time>
      </trkpt>
      <trkpt lat="47.625563" lon="-2.316378">
        <ele>17.045100</ele>
        <time>2025-06-25T13:24:02.280Z</time>
      </trkpt>
      <trkpt lat="47.624997" lon="-2.314883">
        <ele>13.333374</ele>
        <time>2025-06-25T13:24:13.629Z</time>
      </trkpt>
      <trkpt lat="47.624967" lon="-2.314700">
        <ele>12.973652</ele>
        <time>2025-06-25T13:24:14.913Z</time>
      </trkpt>
      <trkpt lat="47.624956" lon="-2.314538">
        <ele>12.662665</ele>
        <time>2025-06-25T13:24:16.029Z</time>
      </trkpt>
      <trkpt lat="47.624976" lon="-2.314342">
        <ele>12.284037</ele>
        <time>2025-06-25T13:24:17.385Z</time>
      </trkpt>
      <trkpt lat="47.625052" lon="-2.314087">
        <ele>11.751490</ele>
        <time>2025-06-25T13:24:19.319Z</time>
      </trkpt>
      <trkpt lat="47.625118" lon="-2.313960">
        <ele>11.445183</ele>
        <time>2025-06-25T13:24:20.435Z</time>
      </trkpt>
      <trkpt lat="47.625189" lon="-2.313883">
        <ele>11.195956</ele>
        <time>2025-06-25T13:24:21.348Z</time>
      </trkpt>
      <trkpt lat="47.625439" lon="-2.313705">
        <ele>10.410125</ele>
        <time>2025-06-25T13:24:24.281Z</time>
      </trkpt>
      <trkpt lat="47.625670" lon="-2.313538">
        <ele>9.681917</ele>
        <time>2025-06-25T13:24:27.130Z</time>
      </trkpt>
      <trkpt lat="47.626007" lon="-2.313059">
        <ele>9.661258</ele>
        <time>2025-06-25T13:24:32.809Z</time>
      </trkpt>
      <trkpt lat="47.626133" lon="-2.312796">
        <ele>9.704980</ele>
        <time>2025-06-25T13:24:35.824Z</time>
      </trkpt>
      <trkpt lat="47.626213" lon="-2.312447">
        <ele>9.754929</ele>
        <time>2025-06-25T13:24:39.585Z</time>
      </trkpt>
      <trkpt lat="47.626205" lon="-2.312239">
        <ele>9.783158</ele>
        <time>2025-06-25T13:24:41.846Z</time>
      </trkpt>
      <trkpt lat="47.626092" lon="-2.311766">
        <ele>9.851156</ele>
        <time>2025-06-25T13:24:47.802Z</time>
      </trkpt>
      <trkpt lat="47.625812" lon="-2.311114">
        <ele>10.209409</ele>
        <time>2025-06-25T13:24:58.787Z</time>
      </trkpt>
      <trkpt lat="47.625663" lon="-2.310672">
        <ele>11.156637</ele>
        <time>2025-06-25T13:25:06.667Z</time>
      </trkpt>
      <trkpt lat="47.625620" lon="-2.310455">
        <ele>11.590158</ele>
        <time>2025-06-25T13:25:10.454Z</time>
      </trkpt>
      <trkpt lat="47.625617" lon="-2.309979">
        <ele>12.502533</ele>
        <time>2025-06-25T13:25:18.812Z</time>
      </trkpt>
      <trkpt lat="47.625698" lon="-2.309352">
        <ele>13.726162</ele>
        <time>2025-06-25T13:25:30.676Z</time>
      </trkpt>
      <trkpt lat="47.625710" lon="-2.309048">
        <ele>14.309827</ele>
        <time>2025-06-25T13:25:36.578Z</time>
      </trkpt>
      <trkpt lat="47.625687" lon="-2.308464">
        <ele>15.564175</ele>
        <time>2025-06-25T13:25:48.289Z</time>
      </trkpt>
      <trkpt lat="47.625618" lon="-2.308083">
        <ele>16.585621</ele>
        <time>2025-06-25T13:25:56.339Z</time>
      </trkpt>
      <trkpt lat="47.625475" lon="-2.307603">
        <ele>17.944399</ele>
        <time>2025-06-25T13:26:07.111Z</time>
      </trkpt>
      <trkpt lat="47.625445" lon="-2.307304">
        <ele>18.727079</ele>
        <time>2025-06-25T13:26:13.261Z</time>
      </trkpt>
      <trkpt lat="47.625473" lon="-2.307006">
        <ele>19.506100</ele>
        <time>2025-06-25T13:26:19.312Z</time>
      </trkpt>
      <trkpt lat="47.625808" lon="-2.304718">
        <ele>26.485941</ele>
        <time>2025-06-25T13:27:08.022Z</time>
      </trkpt>
      <trkpt lat="47.625802" lon="-2.304508">
        <ele>27.168614</ele>
        <time>2025-06-25T13:27:12.968Z</time>
      </trkpt>
      <trkpt lat="47.625723" lon="-2.304018">
        <ele>28.804992</ele>
        <time>2025-06-25T13:27:25.212Z</time>
      </trkpt>
      <trkpt lat="47.625721" lon="-2.303591">
        <ele>30.191884</ele>
        <time>2025-06-25T13:27:36.081Z</time>
      </trkpt>
      <trkpt lat="47.625824" lon="-2.303154">
        <ele>32.052153</ele>
        <time>2025-06-25T13:27:48.370Z</time>
      </trkpt>
      <trkpt lat="47.626621" lon="-2.301330">
        <ele>41.473590</ele>
        <time>2025-06-25T13:28:49.388Z</time>
      </trkpt>
      <trkpt lat="47.626673" lon="-2.300974">
        <ele>42.709579</ele>
        <time>2025-06-25T13:28:59.316Z</time>
      </trkpt>
      <trkpt lat="47.626655" lon="-2.300361">
        <ele>44.304853</ele>
        <time>2025-06-25T13:29:15.625Z</time>
      </trkpt>
      <trkpt lat="47.626695" lon="-2.300101">
        <ele>44.998225</ele>
        <time>2025-06-25T13:29:22.164Z</time>
      </trkpt>
      <trkpt lat="47.627198" lon="-2.299691">
        <ele>47.212170</ele>
        <time>2025-06-25T13:29:39.973Z</time>
      </trkpt>
      <trkpt lat="47.627440" lon="-2.299420">
        <ele>48.381773</ele>
        <time>2025-06-25T13:29:47.322Z</time>
      </trkpt>
      <trkpt lat="47.628357" lon="-2.297930">
        <ele>48.807812</ele>
        <time>2025-06-25T13:30:05.074Z</time>
      </trkpt>
      <trkpt lat="47.628823" lon="-2.297496">
        <ele>48.653578</ele>
        <time>2025-06-25T13:30:11.541Z</time>
      </trkpt>
      <trkpt lat="47.628913" lon="-2.297291">
        <ele>48.796538</ele>
        <time>2025-06-25T13:30:13.869Z</time>
      </trkpt>
      <trkpt lat="47.629026" lon="-2.296876">
        <ele>49.414582</ele>
        <time>2025-06-25T13:30:18.962Z</time>
      </trkpt>
      <trkpt lat="47.629097" lon="-2.296758">
        <ele>49.633010</ele>
        <time>2025-06-25T13:30:20.981Z</time>
      </trkpt>
      <trkpt lat="47.629495" lon="-2.296390">
        <ele>50.593836</ele>
        <time>2025-06-25T13:30:31.389Z</time>
      </trkpt>
      <trkpt lat="47.629658" lon="-2.296163">
        <ele>51.051857</ele>
        <time>2025-06-25T13:30:37.225Z</time>
      </trkpt>
      <trkpt lat="47.629715" lon="-2.295944">
        <ele>51.376021</ele>
        <time>2025-06-25T13:30:41.554Z</time>
      </trkpt>
      <trkpt lat="47.629719" lon="-2.295725">
        <ele>51.678527</ele>
        <time>2025-06-25T13:30:45.735Z</time>
      </trkpt>
      <trkpt lat="47.629643" lon="-2.294822">
        <ele>53.514294</ele>
        <time>2025-06-25T13:31:04.644Z</time>
      </trkpt>
      <trkpt lat="47.629667" lon="-2.294504">
        <ele>54.369112</ele>
        <time>2025-06-25T13:31:11.621Z</time>
      </trkpt>
      <trkpt lat="47.629702" lon="-2.294384">
        <ele>54.718416</ele>
        <time>2025-06-25T13:31:14.432Z</time>
      </trkpt>
      <trkpt lat="47.629822" lon="-2.294213">
        <ele>55.377919</ele>
        <time>2025-06-25T13:31:19.664Z</time>
      </trkpt>
      <trkpt lat="47.629928" lon="-2.294168">
        <ele>55.814960</ele>
        <time>2025-06-25T13:31:23.102Z</time>
      </trkpt>
      <trkpt lat="47.630288" lon="-2.294118">
        <ele>57.248232</ele>
        <time>2025-06-25T13:31:34.368Z</time>
      </trkpt>
      <trkpt lat="47.630503" lon="-2.294002">
        <ele>58.155076</ele>
        <time>2025-06-25T13:31:41.520Z</time>
      </trkpt>
      <trkpt lat="47.630710" lon="-2.293773">
        <ele>59.178561</ele>
        <time>2025-06-25T13:31:49.556Z</time>
      </trkpt>
      <trkpt lat="47.630863" lon="-2.293551">
        <ele>59.683747</ele>
        <time>2025-06-25T13:31:56.275Z</time>
      </trkpt>
      <trkpt lat="47.630925" lon="-2.293352">
        <ele>59.923971</ele>
        <time>2025-06-25T13:32:00.908Z</time>
      </trkpt>
      <trkpt lat="47.630940" lon="-2.293123">
        <ele>60.176074</ele>
        <time>2025-06-25T13:32:05.482Z</time>
      </trkpt>
      <trkpt lat="47.630770" lon="-2.291710">
        <ele>61.748813</ele>
        <time>2025-06-25T13:32:25.641Z</time>
      </trkpt>
      <trkpt lat="47.630510" lon="-2.289624">
        <ele>62.783006</ele>
        <time>2025-06-25T13:32:43.509Z</time>
      </trkpt>
      <trkpt lat="47.630504" lon="-2.289499">
        <ele>62.816323</ele>
        <time>2025-06-25T13:32:44.769Z</time>
      </trkpt>
      <trkpt lat="47.630495" lon="-2.288840">
        <ele>62.991562</ele>
        <time>2025-06-25T13:32:53.529Z</time>
      </trkpt>
      <trkpt lat="47.630521" lon="-2.288562">
        <ele>63.066180</ele>
        <time>2025-06-25T13:32:57.937Z</time>
      </trkpt>
      <trkpt lat="47.630597" lon="-2.288175">
        <ele>63.712447</ele>
        <time>2025-06-25T13:33:05.111Z</time>
      </trkpt>
      <trkpt lat="47.630624" lon="-2.287968">
        <ele>64.089568</ele>
        <time>2025-06-25T13:33:09.179Z</time>
      </trkpt>
      <trkpt lat="47.630707" lon="-2.287494">
        <ele>64.965538</ele>
        <time>2025-06-25T13:33:19.185Z</time>
      </trkpt>
      <trkpt lat="47.630751" lon="-2.287343">
        <ele>65.259789</ele>
        <time>2025-06-25T13:33:22.519Z</time>
      </trkpt>
      <trkpt lat="47.630678" lon="-2.287212">
        <ele>65.563832</ele>
        <time>2025-06-25T13:33:25.907Z</time>
      </trkpt>
      <trkpt lat="47.630676" lon="-2.287043">
        <ele>65.866159</ele>
        <time>2025-06-25T13:33:29.282Z</time>
      </trkpt>
      <trkpt lat="47.630706" lon="-2.286688">
        <ele>66.506100</ele>
        <time>2025-06-25T13:33:36.125Z</time>
      </trkpt>
      <trkpt lat="47.630783" lon="-2.286674">
        <ele>66.711997</ele>
        <time>2025-06-25T13:33:38.607Z</time>
      </trkpt>
      <trkpt lat="47.631054" lon="-2.286625">
        <ele>67.436589</ele>
        <time>2025-06-25T13:33:46.860Z</time>
      </trkpt>
      <trkpt lat="47.630998" lon="-2.286336">
        <ele>67.807362</ele>
        <time>2025-06-25T13:33:52.148Z</time>
      </trkpt>
      <trkpt lat="47.631008" lon="-2.285960">
        <ele>67.553849</ele>
        <time>2025-06-25T13:33:57.914Z</time>
      </trkpt>
      <trkpt lat="47.631042" lon="-2.285801">
        <ele>67.441465</ele>
        <time>2025-06-25T13:34:00.205Z</time>
      </trkpt>
      <trkpt lat="47.631171" lon="-2.285524">
        <ele>67.214622</ele>
        <time>2025-06-25T13:34:04.304Z</time>
      </trkpt>
      <trkpt lat="47.631222" lon="-2.285140">
        <ele>66.950941</ele>
        <time>2025-06-25T13:34:08.598Z</time>
      </trkpt>
      <trkpt lat="47.631215" lon="-2.285002">
        <ele>66.857706</ele>
        <time>2025-06-25T13:34:10.039Z</time>
      </trkpt>
      <trkpt lat="47.631202" lon="-2.284613">
        <ele>66.595311</ele>
        <time>2025-06-25T13:34:13.955Z</time>
      </trkpt>
      <trkpt lat="47.631228" lon="-2.284045">
        <ele>66.211762</ele>
        <time>2025-06-25T13:34:19.773Z</time>
      </trkpt>
      <trkpt lat="47.631232" lon="-2.283817">
        <ele>66.058104</ele>
        <time>2025-06-25T13:34:22.182Z</time>
      </trkpt>
      <trkpt lat="47.631158" lon="-2.283049">
        <ele>65.809304</ele>
        <time>2025-06-25T13:34:30.867Z</time>
      </trkpt>
      <trkpt lat="47.631182" lon="-2.282712">
        <ele>65.701355</ele>
        <time>2025-06-25T13:34:34.992Z</time>
      </trkpt>
      <trkpt lat="47.631171" lon="-2.282629">
        <ele>65.674409</ele>
        <time>2025-06-25T13:34:36.056Z</time>
      </trkpt>
      <trkpt lat="47.631240" lon="-2.282561">
        <ele>65.635256</ele>
        <time>2025-06-25T13:34:37.214Z</time>
      </trkpt>
      <trkpt lat="47.631396" lon="-2.282159">
        <ele>65.487486</ele>
        <time>2025-06-25T13:34:41.930Z</time>
      </trkpt>
      <trkpt lat="47.631452" lon="-2.281997">
        <ele>65.429488</ele>
        <time>2025-06-25T13:34:44.048Z</time>
      </trkpt>
      <trkpt lat="47.631544" lon="-2.281566">
        <ele>65.285472</ele>
        <time>2025-06-25T13:34:49.766Z</time>
      </trkpt>
      <trkpt lat="47.631633" lon="-2.280904">
        <ele>65.010032</ele>
        <time>2025-06-25T13:34:57.807Z</time>
      </trkpt>
      <trkpt lat="47.631796" lon="-2.280133">
        <ele>64.636852</ele>
        <time>2025-06-25T13:35:04.714Z</time>
      </trkpt>
      <trkpt lat="47.632054" lon="-2.278995">
        <ele>64.082349</ele>
        <time>2025-06-25T13:35:14.005Z</time>
      </trkpt>
      <trkpt lat="47.632255" lon="-2.278168">
        <ele>64.383345</ele>
        <time>2025-06-25T13:35:21.452Z</time>
      </trkpt>
      <trkpt lat="47.632303" lon="-2.277885">
        <ele>64.570738</ele>
        <time>2025-06-25T13:35:24.663Z</time>
      </trkpt>
      <trkpt lat="47.632315" lon="-2.277570">
        <ele>64.773336</ele>
        <time>2025-06-25T13:35:28.716Z</time>
      </trkpt>
      <trkpt lat="47.632300" lon="-2.277297">
        <ele>64.949222</ele>
        <time>2025-06-25T13:35:32.710Z</time>
      </trkpt>
      <trkpt lat="47.632103" lon="-2.275774">
        <ele>66.121029</ele>
        <time>2025-06-25T13:35:57.290Z</time>
      </trkpt>
      <trkpt lat="47.632042" lon="-2.275308">
        <ele>66.632940</ele>
        <time>2025-06-25T13:36:04.303Z</time>
      </trkpt>
      <trkpt lat="47.632023" lon="-2.274836">
        <ele>67.142836</ele>
        <time>2025-06-25T13:36:10.850Z</time>
      </trkpt>
      <trkpt lat="47.632048" lon="-2.274644">
        <ele>67.353712</ele>
        <time>2025-06-25T13:36:13.479Z</time>
      </trkpt>
      <trkpt lat="47.632229" lon="-2.274135">
        <ele>67.974331</ele>
        <time>2025-06-25T13:36:21.246Z</time>
      </trkpt>
      <trkpt lat="47.632353" lon="-2.273326">
        <ele>68.950614</ele>
        <time>2025-06-25T13:36:32.437Z</time>
      </trkpt>
      <trkpt lat="47.632461" lon="-2.273056">
        <ele>69.379860</ele>
        <time>2025-06-25T13:36:36.922Z</time>
      </trkpt>
      <trkpt lat="47.632698" lon="-2.272708">
        <ele>70.056252</ele>
        <time>2025-06-25T13:36:44.785Z</time>
      </trkpt>
      <trkpt lat="47.632865" lon="-2.272384">
        <ele>70.613901</ele>
        <time>2025-06-25T13:36:51.657Z</time>
      </trkpt>
      <trkpt lat="47.632983" lon="-2.272083">
        <ele>71.089961</ele>
        <time>2025-06-25T13:36:57.652Z</time>
      </trkpt>
      <trkpt lat="47.633509" lon="-2.270850">
        <ele>72.756394</ele>
        <time>2025-06-25T13:37:20.421Z</time>
      </trkpt>
      <trkpt lat="47.633605" lon="-2.270675">
        <ele>72.948627</ele>
        <time>2025-06-25T13:37:23.570Z</time>
      </trkpt>
      <trkpt lat="47.633990" lon="-2.270142">
        <ele>73.614248</ele>
        <time>2025-06-25T13:37:33.860Z</time>
      </trkpt>
      <trkpt lat="47.634096" lon="-2.269922">
        <ele>73.844640</ele>
        <time>2025-06-25T13:37:37.241Z</time>
      </trkpt>
      <trkpt lat="47.634166" lon="-2.269663">
        <ele>74.082362</ele>
        <time>2025-06-25T13:37:40.628Z</time>
      </trkpt>
      <trkpt lat="47.634179" lon="-2.269409">
        <ele>74.299363</ele>
        <time>2025-06-25T13:37:43.641Z</time>
      </trkpt>
      <trkpt lat="47.634165" lon="-2.269141">
        <ele>74.488577</ele>
        <time>2025-06-25T13:37:46.767Z</time>
      </trkpt>
      <trkpt lat="47.634019" lon="-2.267866">
        <ele>74.532780</ele>
        <time>2025-06-25T13:38:00.903Z</time>
      </trkpt>
      <trkpt lat="47.633983" lon="-2.267648">
        <ele>74.540451</ele>
        <time>2025-06-25T13:38:03.130Z</time>
      </trkpt>
      <trkpt lat="47.633847" lon="-2.267234">
        <ele>74.556193</ele>
        <time>2025-06-25T13:38:07.508Z</time>
      </trkpt>
      <trkpt lat="47.633666" lon="-2.266842">
        <ele>74.572435</ele>
        <time>2025-06-25T13:38:11.818Z</time>
      </trkpt>
      <trkpt lat="47.633600" lon="-2.266634">
        <ele>74.569779</ele>
        <time>2025-06-25T13:38:13.858Z</time>
      </trkpt>
      <trkpt lat="47.633400" lon="-2.265714">
        <ele>74.441225</ele>
        <time>2025-06-25T13:38:22.268Z</time>
      </trkpt>
      <trkpt lat="47.633051" lon="-2.264991">
        <ele>74.322955</ele>
        <time>2025-06-25T13:38:30.541Z</time>
      </trkpt>
      <trkpt lat="47.632947" lon="-2.264703">
        <ele>74.279503</ele>
        <time>2025-06-25T13:38:33.925Z</time>
      </trkpt>
      <trkpt lat="47.632409" lon="-2.262934">
        <ele>74.408896</ele>
        <time>2025-06-25T13:38:55.980Z</time>
      </trkpt>
      <trkpt lat="47.632369" lon="-2.262693">
        <ele>74.439273</ele>
        <time>2025-06-25T13:38:58.871Z</time>
      </trkpt>
      <trkpt lat="47.632381" lon="-2.262575">
        <ele>74.453877</ele>
        <time>2025-06-25T13:39:00.210Z</time>
      </trkpt>
      <trkpt lat="47.632441" lon="-2.262428">
        <ele>74.474911</ele>
        <time>2025-06-25T13:39:02.103Z</time>
      </trkpt>
      <trkpt lat="47.632768" lon="-2.262109">
        <ele>74.545981</ele>
        <time>2025-06-25T13:39:07.828Z</time>
      </trkpt>
      <trkpt lat="47.633015" lon="-2.261661">
        <ele>73.651105</ele>
        <time>2025-06-25T13:39:12.607Z</time>
      </trkpt>
      <trkpt lat="47.633106" lon="-2.261542">
        <ele>73.355513</ele>
        <time>2025-06-25T13:39:13.994Z</time>
      </trkpt>
      <trkpt lat="47.633221" lon="-2.261337">
        <ele>72.917462</ele>
        <time>2025-06-25T13:39:15.986Z</time>
      </trkpt>
      <trkpt lat="47.633310" lon="-2.261138">
        <ele>72.525227</ele>
        <time>2025-06-25T13:39:17.721Z</time>
      </trkpt>
      <trkpt lat="47.633327" lon="-2.261014">
        <ele>72.317416</ele>
        <time>2025-06-25T13:39:18.611Z</time>
      </trkpt>
      <trkpt lat="47.633311" lon="-2.260806">
        <ele>71.973608</ele>
        <time>2025-06-25T13:39:20.060Z</time>
      </trkpt>
      <trkpt lat="47.633235" lon="-2.260636">
        <ele>71.638573</ele>
        <time>2025-06-25T13:39:21.438Z</time>
      </trkpt>
      <trkpt lat="47.632671" lon="-2.259923">
        <ele>69.753978</ele>
        <time>2025-06-25T13:39:28.724Z</time>
      </trkpt>
      <trkpt lat="47.632582" lon="-2.259764">
        <ele>69.334164</ele>
        <time>2025-06-25T13:39:30.089Z</time>
      </trkpt>
      <trkpt lat="47.632454" lon="-2.259421">
        <ele>68.537823</ele>
        <time>2025-06-25T13:39:32.704Z</time>
      </trkpt>
      <trkpt lat="47.632370" lon="-2.259087">
        <ele>67.813744</ele>
        <time>2025-06-25T13:39:35.109Z</time>
      </trkpt>
      <trkpt lat="47.632507" lon="-2.256622">
        <ele>63.662380</ele>
        <time>2025-06-25T13:39:52.735Z</time>
      </trkpt>
      <trkpt lat="47.632558" lon="-2.256161">
        <ele>63.136797</ele>
        <time>2025-06-25T13:39:56.211Z</time>
      </trkpt>
      <trkpt lat="47.632783" lon="-2.255453">
        <ele>62.256144</ele>
        <time>2025-06-25T13:40:02.284Z</time>
      </trkpt>
      <trkpt lat="47.632943" lon="-2.255087">
        <ele>61.765331</ele>
        <time>2025-06-25T13:40:05.964Z</time>
      </trkpt>
      <trkpt lat="47.633043" lon="-2.254939">
        <ele>61.838792</ele>
        <time>2025-06-25T13:40:07.877Z</time>
      </trkpt>
      <trkpt lat="47.633147" lon="-2.254823">
        <ele>61.936821</ele>
        <time>2025-06-25T13:40:09.756Z</time>
      </trkpt>
      <trkpt lat="47.633300" lon="-2.254717">
        <ele>62.064049</ele>
        <time>2025-06-25T13:40:12.412Z</time>
      </trkpt>
      <trkpt lat="47.633536" lon="-2.254598">
        <ele>62.251856</ele>
        <time>2025-06-25T13:40:16.665Z</time>
      </trkpt>
      <trkpt lat="47.634582" lon="-2.254190">
        <ele>63.066768</ele>
        <time>2025-06-25T13:40:39.092Z</time>
      </trkpt>
      <trkpt lat="47.634993" lon="-2.253967">
        <ele>63.337203</ele>
        <time>2025-06-25T13:40:47.650Z</time>
      </trkpt>
      <trkpt lat="47.635123" lon="-2.253931">
        <ele>63.417062</ele>
        <time>2025-06-25T13:40:49.691Z</time>
      </trkpt>
      <trkpt lat="47.635245" lon="-2.253960">
        <ele>63.491673</ele>
        <time>2025-06-25T13:40:51.520Z</time>
      </trkpt>
      <trkpt lat="47.635545" lon="-2.254155">
        <ele>63.689450</ele>
        <time>2025-06-25T13:40:56.268Z</time>
      </trkpt>
      <trkpt lat="47.635705" lon="-2.254154">
        <ele>63.786071</ele>
        <time>2025-06-25T13:40:58.588Z</time>
      </trkpt>
      <trkpt lat="47.635779" lon="-2.254119">
        <ele>63.832972</ele>
        <time>2025-06-25T13:40:59.748Z</time>
      </trkpt>
      <trkpt lat="47.635836" lon="-2.254054">
        <ele>63.876381</ele>
        <time>2025-06-25T13:41:00.834Z</time>
      </trkpt>
      <trkpt lat="47.635890" lon="-2.253907">
        <ele>63.944508</ele>
        <time>2025-06-25T13:41:02.531Z</time>
      </trkpt>
      <trkpt lat="47.635956" lon="-2.253631">
        <ele>64.063679</ele>
        <time>2025-06-25T13:41:05.759Z</time>
      </trkpt>
      <trkpt lat="47.635954" lon="-2.253384">
        <ele>64.164193</ele>
        <time>2025-06-25T13:41:08.655Z</time>
      </trkpt>
      <trkpt lat="47.635911" lon="-2.253240">
        <ele>64.420773</ele>
        <time>2025-06-25T13:41:10.588Z</time>
      </trkpt>
      <trkpt lat="47.635739" lon="-2.252889">
        <ele>65.365312</ele>
        <time>2025-06-25T13:41:16.414Z</time>
      </trkpt>
      <trkpt lat="47.635435" lon="-2.252407">
        <ele>66.802135</ele>
        <time>2025-06-25T13:41:27.364Z</time>
      </trkpt>
      <trkpt lat="47.635401" lon="-2.252262">
        <ele>67.136270</ele>
        <time>2025-06-25T13:41:30.542Z</time>
      </trkpt>
      <trkpt lat="47.635408" lon="-2.252110">
        <ele>67.467852</ele>
        <time>2025-06-25T13:41:33.845Z</time>
      </trkpt>
      <trkpt lat="47.636452" lon="-2.250052">
        <ele>73.108136</ele>
        <time>2025-06-25T13:42:32.677Z</time>
      </trkpt>
      <trkpt lat="47.636545" lon="-2.249672">
        <ele>73.997706</ele>
        <time>2025-06-25T13:42:39.976Z</time>
      </trkpt>
      <trkpt lat="47.636558" lon="-2.249477">
        <ele>74.428867</ele>
        <time>2025-06-25T13:42:43.278Z</time>
      </trkpt>
      <trkpt lat="47.636455" lon="-2.245907">
        <ele>77.099090</ele>
        <time>2025-06-25T13:43:25.369Z</time>
      </trkpt>
      <trkpt lat="47.636396" lon="-2.244835">
        <ele>77.229265</ele>
        <time>2025-06-25T13:43:35.912Z</time>
      </trkpt>
      <trkpt lat="47.636396" lon="-2.244129">
        <ele>77.314712</ele>
        <time>2025-06-25T13:43:42.654Z</time>
      </trkpt>
      <trkpt lat="47.636364" lon="-2.243828">
        <ele>77.351592</ele>
        <time>2025-06-25T13:43:45.725Z</time>
      </trkpt>
      <trkpt lat="47.636240" lon="-2.243209">
        <ele>77.660658</ele>
        <time>2025-06-25T13:43:52.865Z</time>
      </trkpt>
      <trkpt lat="47.636162" lon="-2.242604">
        <ele>78.189060</ele>
        <time>2025-06-25T13:44:00.492Z</time>
      </trkpt>
      <trkpt lat="47.636062" lon="-2.240474">
        <ele>80.119872</ele>
        <time>2025-06-25T13:44:31.556Z</time>
      </trkpt>
      <trkpt lat="47.636097" lon="-2.239858">
        <ele>80.805312</ele>
        <time>2025-06-25T13:44:40.729Z</time>
      </trkpt>
      <trkpt lat="47.636134" lon="-2.239703">
        <ele>80.987640</ele>
        <time>2025-06-25T13:44:43.131Z</time>
      </trkpt>
      <trkpt lat="47.636352" lon="-2.239361">
        <ele>81.509632</ele>
        <time>2025-06-25T13:44:49.933Z</time>
      </trkpt>
      <trkpt lat="47.636422" lon="-2.239198">
        <ele>81.723948</ele>
        <time>2025-06-25T13:44:52.697Z</time>
      </trkpt>
      <trkpt lat="47.636460" lon="-2.238968">
        <ele>81.986523</ele>
        <time>2025-06-25T13:44:56.076Z</time>
      </trkpt>
      <trkpt lat="47.636506" lon="-2.238081">
        <ele>82.835368</ele>
        <time>2025-06-25T13:45:08.633Z</time>
      </trkpt>
      <trkpt lat="47.636500" lon="-2.236971">
        <ele>83.555714</ele>
        <time>2025-06-25T13:45:23.526Z</time>
      </trkpt>
      <trkpt lat="47.636428" lon="-2.236599">
        <ele>83.806881</ele>
        <time>2025-06-25T13:45:28.330Z</time>
      </trkpt>
      <trkpt lat="47.636270" lon="-2.236129">
        <ele>84.147733</ele>
        <time>2025-06-25T13:45:34.504Z</time>
      </trkpt>
      <trkpt lat="47.636231" lon="-2.235904">
        <ele>84.298499</ele>
        <time>2025-06-25T13:45:37.085Z</time>
      </trkpt>
      <trkpt lat="47.636243" lon="-2.235522">
        <ele>84.376089</ele>
        <time>2025-06-25T13:45:41.199Z</time>
      </trkpt>
      <trkpt lat="47.636382" lon="-2.234301">
        <ele>84.388347</ele>
        <time>2025-06-25T13:45:53.471Z</time>
      </trkpt>
      <trkpt lat="47.636512" lon="-2.233805">
        <ele>84.393615</ele>
        <time>2025-06-25T13:45:58.667Z</time>
      </trkpt>
      <trkpt lat="47.637391" lon="-2.231222">
        <ele>84.007749</ele>
        <time>2025-06-25T13:46:26.092Z</time>
      </trkpt>
      <trkpt lat="47.637456" lon="-2.230846">
        <ele>83.940454</ele>
        <time>2025-06-25T13:46:29.588Z</time>
      </trkpt>
      <trkpt lat="47.637445" lon="-2.230654">
        <ele>83.897823</ele>
        <time>2025-06-25T13:46:31.322Z</time>
      </trkpt>
      <trkpt lat="47.637399" lon="-2.230411">
        <ele>83.840640</ele>
        <time>2025-06-25T13:46:33.603Z</time>
      </trkpt>
      <trkpt lat="47.636860" lon="-2.228538">
        <ele>83.379224</ele>
        <time>2025-06-25T13:46:52.422Z</time>
      </trkpt>
      <trkpt lat="47.636770" lon="-2.228149">
        <ele>83.256745</ele>
        <time>2025-06-25T13:46:56.286Z</time>
      </trkpt>
      <trkpt lat="47.636715" lon="-2.227764">
        <ele>83.111194</ele>
        <time>2025-06-25T13:46:59.943Z</time>
      </trkpt>
      <trkpt lat="47.636689" lon="-2.227390">
        <ele>82.972141</ele>
        <time>2025-06-25T13:47:03.421Z</time>
      </trkpt>
      <trkpt lat="47.636727" lon="-2.226292">
        <ele>82.565526</ele>
        <time>2025-06-25T13:47:13.194Z</time>
      </trkpt>
      <trkpt lat="47.636700" lon="-2.225725">
        <ele>82.355306</ele>
        <time>2025-06-25T13:47:18.031Z</time>
      </trkpt>
      <trkpt lat="47.636495" lon="-2.224589">
        <ele>81.777390</ele>
        <time>2025-06-25T13:47:27.863Z</time>
      </trkpt>
      <trkpt lat="47.636443" lon="-2.224112">
        <ele>81.538536</ele>
        <time>2025-06-25T13:47:31.858Z</time>
      </trkpt>
      <trkpt lat="47.636373" lon="-2.222277">
        <ele>80.829344</ele>
        <time>2025-06-25T13:47:48.076Z</time>
      </trkpt>
      <trkpt lat="47.636445" lon="-2.220749">
        <ele>80.453595</ele>
        <time>2025-06-25T13:48:02.969Z</time>
      </trkpt>
      <trkpt lat="47.636388" lon="-2.220032">
        <ele>79.876432</ele>
        <time>2025-06-25T13:48:09.749Z</time>
      </trkpt>
      <trkpt lat="47.636185" lon="-2.218748">
        <ele>78.182192</ele>
        <time>2025-06-25T13:48:19.784Z</time>
      </trkpt>
      <trkpt lat="47.636009" lon="-2.217466">
        <ele>76.512336</ele>
        <time>2025-06-25T13:48:28.786Z</time>
      </trkpt>
      <trkpt lat="47.635971" lon="-2.216553">
        <ele>75.366215</ele>
        <time>2025-06-25T13:48:34.982Z</time>
      </trkpt>
      <trkpt lat="47.635978" lon="-2.216058">
        <ele>74.745869</ele>
        <time>2025-06-25T13:48:38.527Z</time>
      </trkpt>
      <trkpt lat="47.636004" lon="-2.215392">
        <ele>73.910007</ele>
        <time>2025-06-25T13:48:44.055Z</time>
      </trkpt>
      <trkpt lat="47.636034" lon="-2.214486">
        <ele>74.782196</ele>
        <time>2025-06-25T13:48:55.832Z</time>
      </trkpt>
      <trkpt lat="47.636074" lon="-2.213716">
        <ele>76.173334</ele>
        <time>2025-06-25T13:49:09.952Z</time>
      </trkpt>
      <trkpt lat="47.636134" lon="-2.212362">
        <ele>78.534924</ele>
        <time>2025-06-25T13:49:38.408Z</time>
      </trkpt>
      <trkpt lat="47.636093" lon="-2.211594">
        <ele>79.381228</ele>
        <time>2025-06-25T13:49:52.268Z</time>
      </trkpt>
      <trkpt lat="47.636017" lon="-2.211002">
        <ele>80.043247</ele>
        <time>2025-06-25T13:50:01.131Z</time>
      </trkpt>
      <trkpt lat="47.635992" lon="-2.210455">
        <ele>80.645517</ele>
        <time>2025-06-25T13:50:07.696Z</time>
      </trkpt>
      <trkpt lat="47.636038" lon="-2.209053">
        <ele>81.328781</ele>
        <time>2025-06-25T13:50:20.874Z</time>
      </trkpt>
      <trkpt lat="47.635975" lon="-2.208678">
        <ele>81.324213</ele>
        <time>2025-06-25T13:50:24.500Z</time>
      </trkpt>
      <trkpt lat="47.635914" lon="-2.208502">
        <ele>81.321873</ele>
        <time>2025-06-25T13:50:26.438Z</time>
      </trkpt>
      <trkpt lat="47.635691" lon="-2.207953">
        <ele>81.314296</ele>
        <time>2025-06-25T13:50:33.055Z</time>
      </trkpt>
      <trkpt lat="47.635432" lon="-2.206847">
        <ele>81.121654</ele>
        <time>2025-06-25T13:50:45.594Z</time>
      </trkpt>
      <trkpt lat="47.635207" lon="-2.206065">
        <ele>80.807786</ele>
        <time>2025-06-25T13:50:54.036Z</time>
      </trkpt>
      <trkpt lat="47.634929" lon="-2.205516">
        <ele>80.554294</ele>
        <time>2025-06-25T13:50:59.842Z</time>
      </trkpt>
      <trkpt lat="47.634664" lon="-2.205100">
        <ele>80.342983</ele>
        <time>2025-06-25T13:51:04.302Z</time>
      </trkpt>
      <trkpt lat="47.634604" lon="-2.204880">
        <ele>80.125294</ele>
        <time>2025-06-25T13:51:06.122Z</time>
      </trkpt>
      <trkpt lat="47.634561" lon="-2.204570">
        <ele>79.777225</ele>
        <time>2025-06-25T13:51:08.530Z</time>
      </trkpt>
      <trkpt lat="47.634493" lon="-2.203681">
        <ele>78.793271</ele>
        <time>2025-06-25T13:51:15.319Z</time>
      </trkpt>
      <trkpt lat="47.634264" lon="-2.202339">
        <ele>77.252385</ele>
        <time>2025-06-25T13:51:25.918Z</time>
      </trkpt>
      <trkpt lat="47.634304" lon="-2.200731">
        <ele>75.198741</ele>
        <time>2025-06-25T13:51:38.063Z</time>
      </trkpt>
      <trkpt lat="47.634176" lon="-2.199507">
        <ele>73.642426</ele>
        <time>2025-06-25T13:51:47.105Z</time>
      </trkpt>
      <trkpt lat="47.634242" lon="-2.198626">
        <ele>72.587967</ele>
        <time>2025-06-25T13:51:53.497Z</time>
      </trkpt>
      <trkpt lat="47.634331" lon="-2.198039">
        <ele>71.872239</ele>
        <time>2025-06-25T13:51:57.987Z</time>
      </trkpt>
      <trkpt lat="47.634521" lon="-2.197050">
        <ele>70.783687</ele>
        <time>2025-06-25T13:52:06.103Z</time>
      </trkpt>
      <trkpt lat="47.634981" lon="-2.195043">
        <ele>70.453825</ele>
        <time>2025-06-25T13:52:25.677Z</time>
      </trkpt>
      <trkpt lat="47.635067" lon="-2.194590">
        <ele>70.437210</ele>
        <time>2025-06-25T13:52:31.146Z</time>
      </trkpt>
      <trkpt lat="47.635110" lon="-2.193866">
        <ele>71.119531</ele>
        <time>2025-06-25T13:52:40.182Z</time>
      </trkpt>
      <trkpt lat="47.635041" lon="-2.191838">
        <ele>73.023898</ele>
        <time>2025-06-25T13:53:09.796Z</time>
      </trkpt>
      <trkpt lat="47.635070" lon="-2.191516">
        <ele>73.324392</ele>
        <time>2025-06-25T13:53:14.922Z</time>
      </trkpt>
      <trkpt lat="47.635356" lon="-2.190186">
        <ele>74.615740</ele>
        <time>2025-06-25T13:53:35.554Z</time>
      </trkpt>
      <trkpt lat="47.635565" lon="-2.189275">
        <ele>75.271635</ele>
        <time>2025-06-25T13:53:47.359Z</time>
      </trkpt>
      <trkpt lat="47.635595" lon="-2.189045">
        <ele>75.131970</ele>
        <time>2025-06-25T13:53:49.786Z</time>
      </trkpt>
      <trkpt lat="47.635585" lon="-2.188557">
        <ele>74.840904</ele>
        <time>2025-06-25T13:53:54.232Z</time>
      </trkpt>
      <trkpt lat="47.635531" lon="-2.188079">
        <ele>74.551957</ele>
        <time>2025-06-25T13:53:58.261Z</time>
      </trkpt>
      <trkpt lat="47.635501" lon="-2.187552">
        <ele>74.236655</ele>
        <time>2025-06-25T13:54:02.465Z</time>
      </trkpt>
      <trkpt lat="47.635678" lon="-2.185403">
        <ele>72.016161</ele>
        <time>2025-06-25T13:54:18.604Z</time>
      </trkpt>
      <trkpt lat="47.635670" lon="-2.185102">
        <ele>71.634466</ele>
        <time>2025-06-25T13:54:20.830Z</time>
      </trkpt>
      <trkpt lat="47.635629" lon="-2.184818">
        <ele>71.266443</ele>
        <time>2025-06-25T13:54:22.978Z</time>
      </trkpt>
      <trkpt lat="47.635476" lon="-2.184395">
        <ele>70.658122</ele>
        <time>2025-06-25T13:54:26.552Z</time>
      </trkpt>
      <trkpt lat="47.633914" lon="-2.181563">
        <ele>66.660188</ele>
        <time>2025-06-25T13:54:54.376Z</time>
      </trkpt>
      <trkpt lat="47.633011" lon="-2.179909">
        <ele>65.011279</ele>
        <time>2025-06-25T13:55:11.654Z</time>
      </trkpt>
      <trkpt lat="47.632507" lon="-2.179100">
        <ele>64.755334</ele>
        <time>2025-06-25T13:55:21.477Z</time>
      </trkpt>
      <trkpt lat="47.631031" lon="-2.177275">
        <ele>64.361893</ele>
        <time>2025-06-25T13:55:50.346Z</time>
      </trkpt>
      <trkpt lat="47.630927" lon="-2.177100">
        <ele>64.348905</ele>
        <time>2025-06-25T13:55:52.718Z</time>
      </trkpt>
      <trkpt lat="47.630853" lon="-2.176975">
        <ele>64.339643</ele>
        <time>2025-06-25T13:55:54.408Z</time>
      </trkpt>
      <trkpt lat="47.630817" lon="-2.176797">
        <ele>64.329298</ele>
        <time>2025-06-25T13:55:56.301Z</time>
      </trkpt>
      <trkpt lat="47.630753" lon="-2.176641">
        <ele>64.319132</ele>
        <time>2025-06-25T13:55:58.107Z</time>
      </trkpt>
      <trkpt lat="47.630705" lon="-2.176624">
        <ele>64.315056</ele>
        <time>2025-06-25T13:55:58.792Z</time>
      </trkpt>
      <trkpt lat="47.630620" lon="-2.176533">
        <ele>64.306398</ele>
        <time>2025-06-25T13:56:00.234Z</time>
      </trkpt>
      <trkpt lat="47.630578" lon="-2.176389">
        <ele>64.294958</ele>
        <time>2025-06-25T13:56:01.592Z</time>
      </trkpt>
      <trkpt lat="47.630599" lon="-2.176209">
        <ele>64.212969</ele>
        <time>2025-06-25T13:56:03.139Z</time>
      </trkpt>
      <trkpt lat="47.630636" lon="-2.176135">
        <ele>64.171614</ele>
        <time>2025-06-25T13:56:03.906Z</time>
      </trkpt>
      <trkpt lat="47.630746" lon="-2.176054">
        <ele>64.089831</ele>
        <time>2025-06-25T13:56:05.461Z</time>
      </trkpt>
      <trkpt lat="47.630881" lon="-2.176095">
        <ele>63.998059</ele>
        <time>2025-06-25T13:56:07.217Z</time>
      </trkpt>
      <trkpt lat="47.631100" lon="-2.176014">
        <ele>63.847744</ele>
        <time>2025-06-25T13:56:10.170Z</time>
      </trkpt>
      <trkpt lat="47.631239" lon="-2.175899">
        <ele>63.741756</ele>
        <time>2025-06-25T13:56:12.287Z</time>
      </trkpt>
      <trkpt lat="47.631611" lon="-2.175594">
        <ele>63.458706</ele>
        <time>2025-06-25T13:56:17.985Z</time>
      </trkpt>
      <trkpt lat="47.631786" lon="-2.175455">
        <ele>63.326512</ele>
        <time>2025-06-25T13:56:20.525Z</time>
      </trkpt>
      <trkpt lat="47.631895" lon="-2.175226">
        <ele>63.200684</ele>
        <time>2025-06-25T13:56:22.799Z</time>
      </trkpt>
      <trkpt lat="47.631895" lon="-2.175143">
        <ele>63.163433</ele>
        <time>2025-06-25T13:56:23.444Z</time>
      </trkpt>
      <trkpt lat="47.631942" lon="-2.174994">
        <ele>63.091751</ele>
        <time>2025-06-25T13:56:24.751Z</time>
      </trkpt>
      <trkpt lat="47.632039" lon="-2.174904">
        <ele>63.031079</ele>
        <time>2025-06-25T13:56:26.084Z</time>
      </trkpt>
      <trkpt lat="47.632096" lon="-2.174894">
        <ele>63.000639</ele>
        <time>2025-06-25T13:56:26.742Z</time>
      </trkpt>
      <trkpt lat="47.632204" lon="-2.174948">
        <ele>62.940197</ele>
        <time>2025-06-25T13:56:28.100Z</time>
      </trkpt>
      <trkpt lat="47.632312" lon="-2.174917">
        <ele>62.881858</ele>
        <time>2025-06-25T13:56:29.436Z</time>
      </trkpt>
      <trkpt lat="47.632461" lon="-2.174862">
        <ele>62.800428</ele>
        <time>2025-06-25T13:56:31.399Z</time>
      </trkpt>
      <trkpt lat="47.632664" lon="-2.174678">
        <ele>62.674273</ele>
        <time>2025-06-25T13:56:34.508Z</time>
      </trkpt>
      <trkpt lat="47.633088" lon="-2.174294">
        <ele>62.410835</ele>
        <time>2025-06-25T13:56:40.908Z</time>
      </trkpt>
      <trkpt lat="47.634772" lon="-2.172778">
        <ele>62.338672</ele>
        <time>2025-06-25T13:57:11.416Z</time>
      </trkpt>
      <trkpt lat="47.634922" lon="-2.172636">
        <ele>62.361948</ele>
        <time>2025-06-25T13:57:14.242Z</time>
      </trkpt>
      <trkpt lat="47.635042" lon="-2.172529">
        <ele>62.380262</ele>
        <time>2025-06-25T13:57:16.406Z</time>
      </trkpt>
      <trkpt lat="47.635133" lon="-2.172449">
        <ele>62.388758</ele>
        <time>2025-06-25T13:57:18.001Z</time>
      </trkpt>
      <trkpt lat="47.635257" lon="-2.172403">
        <ele>62.398353</ele>
        <time>2025-06-25T13:57:19.894Z</time>
      </trkpt>
      <trkpt lat="47.635270" lon="-2.172331">
        <ele>62.402124</ele>
        <time>2025-06-25T13:57:20.687Z</time>
      </trkpt>
      <trkpt lat="47.635311" lon="-2.172287">
        <ele>62.405923</ele>
        <time>2025-06-25T13:57:21.426Z</time>
      </trkpt>
      <trkpt lat="47.635361" lon="-2.172290">
        <ele>62.409679</ele>
        <time>2025-06-25T13:57:22.134Z</time>
      </trkpt>
      <trkpt lat="47.635419" lon="-2.172017">
        <ele>62.424160</ele>
        <time>2025-06-25T13:57:24.954Z</time>
      </trkpt>
      <trkpt lat="47.635440" lon="-2.171688">
        <ele>62.440878</ele>
        <time>2025-06-25T13:57:28.170Z</time>
      </trkpt>
      <trkpt lat="47.635503" lon="-2.171298">
        <ele>62.461166</ele>
        <time>2025-06-25T13:57:32.126Z</time>
      </trkpt>
      <trkpt lat="47.635680" lon="-2.170573">
        <ele>62.500175</ele>
        <time>2025-06-25T13:57:40.169Z</time>
      </trkpt>
      <trkpt lat="47.635703" lon="-2.170476">
        <ele>62.505377</ele>
        <time>2025-06-25T13:57:41.268Z</time>
      </trkpt>
      <trkpt lat="47.635828" lon="-2.169974">
        <ele>62.606030</ele>
        <time>2025-06-25T13:57:46.823Z</time>
      </trkpt>
      <trkpt lat="47.635844" lon="-2.169919">
        <ele>62.623123</ele>
        <time>2025-06-25T13:57:47.449Z</time>
      </trkpt>
      <trkpt lat="47.636081" lon="-2.169119">
        <ele>62.872480</ele>
        <time>2025-06-25T13:57:56.790Z</time>
      </trkpt>
      <trkpt lat="47.636154" lon="-2.168947">
        <ele>62.930482</ele>
        <time>2025-06-25T13:57:59.039Z</time>
      </trkpt>
      <trkpt lat="47.636261" lon="-2.168705">
        <ele>63.013071</ele>
        <time>2025-06-25T13:58:02.348Z</time>
      </trkpt>
      <trkpt lat="47.636439" lon="-2.168300">
        <ele>63.151040</ele>
        <time>2025-06-25T13:58:07.959Z</time>
      </trkpt>
      <trkpt lat="47.636533" lon="-2.167869">
        <ele>63.279553</ele>
        <time>2025-06-25T13:58:13.311Z</time>
      </trkpt>
      <trkpt lat="47.636574" lon="-2.167550">
        <ele>63.338752</ele>
        <time>2025-06-25T13:58:17.178Z</time>
      </trkpt>
      <trkpt lat="47.636574" lon="-2.167528">
        <ele>63.342762</ele>
        <time>2025-06-25T13:58:17.432Z</time>
      </trkpt>
      <trkpt lat="47.636573" lon="-2.167378">
        <ele>63.370107</ele>
        <time>2025-06-25T13:58:19.203Z</time>
      </trkpt>
      <trkpt lat="47.636559" lon="-2.167318">
        <ele>63.381681</ele>
        <time>2025-06-25T13:58:19.941Z</time>
      </trkpt>
      <trkpt lat="47.636498" lon="-2.166962">
        <ele>63.448642</ele>
        <time>2025-06-25T13:58:24.145Z</time>
      </trkpt>
      <trkpt lat="47.636526" lon="-2.166642">
        <ele>63.507464</ele>
        <time>2025-06-25T13:58:27.605Z</time>
      </trkpt>
      <trkpt lat="47.636621" lon="-2.166191">
        <ele>63.593600</ele>
        <time>2025-06-25T13:58:32.468Z</time>
      </trkpt>
      <trkpt lat="47.636639" lon="-2.166037">
        <ele>63.622091</ele>
        <time>2025-06-25T13:58:34.119Z</time>
      </trkpt>
      <trkpt lat="47.636651" lon="-2.165330">
        <ele>63.751010</ele>
        <time>2025-06-25T13:58:41.383Z</time>
      </trkpt>
      <trkpt lat="47.636612" lon="-2.165317">
        <ele>63.761824</ele>
        <time>2025-06-25T13:58:41.964Z</time>
      </trkpt>
      <trkpt lat="47.636598" lon="-2.165256">
        <ele>63.771309</ele>
        <time>2025-06-25T13:58:42.596Z</time>
      </trkpt>
      <trkpt lat="47.636465" lon="-2.165155">
        <ele>63.801291</ele>
        <time>2025-06-25T13:58:44.808Z</time>
      </trkpt>
      <trkpt lat="47.636414" lon="-2.165165">
        <ele>63.811614</ele>
        <time>2025-06-25T13:58:45.615Z</time>
      </trkpt>
      <trkpt lat="47.636387" lon="-2.165130">
        <ele>63.818809</ele>
        <time>2025-06-25T13:58:46.124Z</time>
      </trkpt>
      <trkpt lat="47.636398" lon="-2.165034">
        <ele>63.831976</ele>
        <time>2025-06-25T13:58:47.034Z</time>
      </trkpt>
      <trkpt lat="47.636413" lon="-2.164791">
        <ele>63.864974</ele>
        <time>2025-06-25T13:58:49.401Z</time>
      </trkpt>
      <trkpt lat="47.636385" lon="-2.164538">
        <ele>63.899644</ele>
        <time>2025-06-25T13:58:51.842Z</time>
      </trkpt>
      <trkpt lat="47.636380" lon="-2.164443">
        <ele>63.912529</ele>
        <time>2025-06-25T13:58:52.740Z</time>
      </trkpt>
      <trkpt lat="47.636371" lon="-2.164278">
        <ele>63.934914</ele>
        <time>2025-06-25T13:58:54.328Z</time>
      </trkpt>
      <trkpt lat="47.636362" lon="-2.164122">
        <ele>63.956086</ele>
        <time>2025-06-25T13:58:55.826Z</time>
      </trkpt>
      <trkpt lat="47.636357" lon="-2.163972">
        <ele>63.976395</ele>
        <time>2025-06-25T13:58:57.319Z</time>
      </trkpt>
      <trkpt lat="47.636335" lon="-2.163554">
        <ele>64.033090</ele>
        <time>2025-06-25T13:59:01.934Z</time>
      </trkpt>
      <trkpt lat="47.636305" lon="-2.162990">
        <ele>64.109594</ele>
        <time>2025-06-25T13:59:08.587Z</time>
      </trkpt>
      <trkpt lat="47.636299" lon="-2.162847">
        <ele>64.138642</ele>
        <time>2025-06-25T13:59:10.265Z</time>
      </trkpt>
      <trkpt lat="47.636289" lon="-2.162671">
        <ele>64.234552</ele>
        <time>2025-06-25T13:59:12.380Z</time>
      </trkpt>
      <trkpt lat="47.636286" lon="-2.162637">
        <ele>64.253173</ele>
        <time>2025-06-25T13:59:12.802Z</time>
      </trkpt>
      <trkpt lat="47.636272" lon="-2.162359">
        <ele>64.404552</ele>
        <time>2025-06-25T13:59:16.094Z</time>
      </trkpt>
      <trkpt lat="47.636236" lon="-2.161929">
        <ele>64.639845</ele>
        <time>2025-06-25T13:59:21.215Z</time>
      </trkpt>
      <trkpt lat="47.636201" lon="-2.161650">
        <ele>64.793950</ele>
        <time>2025-06-25T13:59:24.689Z</time>
      </trkpt>
      <trkpt lat="47.636159" lon="-2.161383">
        <ele>64.942835</ele>
        <time>2025-06-25T13:59:28.095Z</time>
      </trkpt>
      <trkpt lat="47.635911" lon="-2.159787">
        <ele>65.633253</ele>
        <time>2025-06-25T13:59:48.760Z</time>
      </trkpt>
      <trkpt lat="47.635886" lon="-2.159638">
        <ele>65.652081</ele>
        <time>2025-06-25T13:59:50.636Z</time>
      </trkpt>
      <trkpt lat="47.635663" lon="-2.158291">
        <ele>65.822154</ele>
        <time>2025-06-25T14:00:05.763Z</time>
      </trkpt>
      <trkpt lat="47.635416" lon="-2.156698">
        <ele>65.037648</ele>
        <time>2025-06-25T14:00:19.714Z</time>
      </trkpt>
      <trkpt lat="47.634820" lon="-2.153355">
        <ele>61.509020</ele>
        <time>2025-06-25T14:00:45.972Z</time>
      </trkpt>
      <trkpt lat="47.634800" lon="-2.153235">
        <ele>61.366659</ele>
        <time>2025-06-25T14:00:46.912Z</time>
      </trkpt>
      <trkpt lat="47.634654" lon="-2.152388">
        <ele>60.345117</ele>
        <time>2025-06-25T14:00:53.573Z</time>
      </trkpt>
      <trkpt lat="47.634552" lon="-2.149765">
        <ele>56.889863</ele>
        <time>2025-06-25T14:01:13.223Z</time>
      </trkpt>
      <trkpt lat="47.634510" lon="-2.147911">
        <ele>53.439549</ele>
        <time>2025-06-25T14:01:26.249Z</time>
      </trkpt>
      <trkpt lat="47.634456" lon="-2.147184">
        <ele>52.079167</ele>
        <time>2025-06-25T14:01:31.268Z</time>
      </trkpt>
      <trkpt lat="47.634374" lon="-2.146742">
        <ele>51.312804</ele>
        <time>2025-06-25T14:01:34.378Z</time>
      </trkpt>
      <trkpt lat="47.634546" lon="-2.146731">
        <ele>50.888820</ele>
        <time>2025-06-25T14:01:36.116Z</time>
      </trkpt>
      <trkpt lat="47.634512" lon="-2.146004">
        <ele>49.679436</ele>
        <time>2025-06-25T14:01:41.163Z</time>
      </trkpt>
      <trkpt lat="47.634518" lon="-2.145321">
        <ele>48.545878</ele>
        <time>2025-06-25T14:01:46.080Z</time>
      </trkpt>
      <trkpt lat="47.634750" lon="-2.141926">
        <ele>45.845565</ele>
        <time>2025-06-25T14:02:13.300Z</time>
      </trkpt>
      <trkpt lat="47.634758" lon="-2.141799">
        <ele>46.001150</ele>
        <time>2025-06-25T14:02:14.484Z</time>
      </trkpt>
      <trkpt lat="47.634854" lon="-2.140425">
        <ele>47.686077</ele>
        <time>2025-06-25T14:02:33.107Z</time>
      </trkpt>
      <trkpt lat="47.634931" lon="-2.139720">
        <ele>48.557224</ele>
        <time>2025-06-25T14:02:46.887Z</time>
      </trkpt>
      <trkpt lat="47.635033" lon="-2.139182">
        <ele>49.617132</ele>
        <time>2025-06-25T14:02:58.676Z</time>
      </trkpt>
      <trkpt lat="47.635281" lon="-2.138277">
        <ele>52.105779</ele>
        <time>2025-06-25T14:03:20.089Z</time>
      </trkpt>
      <trkpt lat="47.636323" lon="-2.135273">
        <ele>60.256016</ele>
        <time>2025-06-25T14:04:25.409Z</time>
      </trkpt>
      <trkpt lat="47.636618" lon="-2.134352">
        <ele>62.115252</ele>
        <time>2025-06-25T14:04:45.349Z</time>
      </trkpt>
      <trkpt lat="47.636671" lon="-2.134129">
        <ele>62.293691</ele>
        <time>2025-06-25T14:04:49.651Z</time>
      </trkpt>
      <trkpt lat="47.636737" lon="-2.133683">
        <ele>62.638267</ele>
        <time>2025-06-25T14:04:57.457Z</time>
      </trkpt>
      <trkpt lat="47.636749" lon="-2.133157">
        <ele>63.035419</ele>
        <time>2025-06-25T14:05:05.294Z</time>
      </trkpt>
      <trkpt lat="47.636739" lon="-2.132839">
        <ele>63.275646</ele>
        <time>2025-06-25T14:05:09.116Z</time>
      </trkpt>
      <trkpt lat="47.636604" lon="-2.131874">
        <ele>63.540559</ele>
        <time>2025-06-25T14:05:17.169Z</time>
      </trkpt>
      <trkpt lat="47.636550" lon="-2.131565">
        <ele>62.912104</ele>
        <time>2025-06-25T14:05:19.438Z</time>
      </trkpt>
      <trkpt lat="47.636404" lon="-2.130231">
        <ele>60.251431</ele>
        <time>2025-06-25T14:05:28.635Z</time>
      </trkpt>
      <trkpt lat="47.636512" lon="-2.128899">
        <ele>57.674880</ele>
        <time>2025-06-25T14:05:37.581Z</time>
      </trkpt>
      <trkpt lat="47.636495" lon="-2.128654">
        <ele>57.220701</ele>
        <time>2025-06-25T14:05:39.278Z</time>
      </trkpt>
      <trkpt lat="47.636280" lon="-2.128135">
        <ele>56.097245</ele>
        <time>2025-06-25T14:05:43.577Z</time>
      </trkpt>
      <trkpt lat="47.636257" lon="-2.128060">
        <ele>55.945292</ele>
        <time>2025-06-25T14:05:44.174Z</time>
      </trkpt>
      <trkpt lat="47.636122" lon="-2.127610">
        <ele>55.036943</ele>
        <time>2025-06-25T14:05:47.746Z</time>
      </trkpt>
      <trkpt lat="47.636123" lon="-2.127504">
        <ele>54.841454</ele>
        <time>2025-06-25T14:05:48.519Z</time>
      </trkpt>
      <trkpt lat="47.636153" lon="-2.127212">
        <ele>54.296768</ele>
        <time>2025-06-25T14:05:50.689Z</time>
      </trkpt>
      <trkpt lat="47.636129" lon="-2.126543">
        <ele>53.002904</ele>
        <time>2025-06-25T14:05:55.546Z</time>
      </trkpt>
      <trkpt lat="47.636126" lon="-2.126315">
        <ele>52.544455</ele>
        <time>2025-06-25T14:05:57.174Z</time>
      </trkpt>
      <trkpt lat="47.636143" lon="-2.126049">
        <ele>52.007300</ele>
        <time>2025-06-25T14:05:59.043Z</time>
      </trkpt>
      <trkpt lat="47.636148" lon="-2.125928">
        <ele>51.763590</ele>
        <time>2025-06-25T14:05:59.886Z</time>
      </trkpt>
      <trkpt lat="47.636178" lon="-2.125560">
        <ele>51.018385</ele>
        <time>2025-06-25T14:06:02.404Z</time>
      </trkpt>
      <trkpt lat="47.636160" lon="-2.125240">
        <ele>50.372833</ele>
        <time>2025-06-25T14:06:04.559Z</time>
      </trkpt>
      <trkpt lat="47.636133" lon="-2.124694">
        <ele>49.272227</ele>
        <time>2025-06-25T14:06:08.194Z</time>
      </trkpt>
      <trkpt lat="47.636092" lon="-2.124000">
        <ele>48.407124</ele>
        <time>2025-06-25T14:06:12.959Z</time>
      </trkpt>
      <trkpt lat="47.636052" lon="-2.123327">
        <ele>48.591061</ele>
        <time>2025-06-25T14:06:17.849Z</time>
      </trkpt>
      <trkpt lat="47.636026" lon="-2.123064">
        <ele>48.663429</ele>
        <time>2025-06-25T14:06:20.079Z</time>
      </trkpt>
      <trkpt lat="47.635871" lon="-2.122753">
        <ele>48.768743</ele>
        <time>2025-06-25T14:06:24.130Z</time>
      </trkpt>
      <trkpt lat="47.635808" lon="-2.122489">
        <ele>48.844992</ele>
        <time>2025-06-25T14:06:27.914Z</time>
      </trkpt>
      <trkpt lat="47.635773" lon="-2.122009">
        <ele>48.976436</ele>
        <time>2025-06-25T14:06:36.100Z</time>
      </trkpt>
      <trkpt lat="47.635770" lon="-2.121942">
        <ele>48.994717</ele>
        <time>2025-06-25T14:06:37.386Z</time>
      </trkpt>
      <trkpt lat="47.635770" lon="-2.121810">
        <ele>49.030655</ele>
        <time>2025-06-25T14:06:39.976Z</time>
      </trkpt>
      <trkpt lat="47.635659" lon="-2.121193">
        <ele>51.359463</ele>
        <time>2025-06-25T14:06:54.545Z</time>
      </trkpt>
      <trkpt lat="47.635542" lon="-2.120910">
        <ele>52.897607</ele>
        <time>2025-06-25T14:07:03.553Z</time>
      </trkpt>
      <trkpt lat="47.635199" lon="-2.120358">
        <ele>56.376170</ele>
        <time>2025-06-25T14:07:26.717Z</time>
      </trkpt>
      <trkpt lat="47.635101" lon="-2.120026">
        <ele>58.055336</ele>
        <time>2025-06-25T14:07:38.478Z</time>
      </trkpt>
      <trkpt lat="47.635090" lon="-2.119790">
        <ele>59.151276</ele>
        <time>2025-06-25T14:07:46.206Z</time>
      </trkpt>
      <trkpt lat="47.635129" lon="-2.119403">
        <ele>60.964085</ele>
        <time>2025-06-25T14:07:58.962Z</time>
      </trkpt>
      <trkpt lat="47.635227" lon="-2.118788">
        <ele>63.558716</ele>
        <time>2025-06-25T14:08:18.991Z</time>
      </trkpt>
      <trkpt lat="47.635220" lon="-2.118479">
        <ele>64.796795</ele>
        <time>2025-06-25T14:08:28.516Z</time>
      </trkpt>
      <trkpt lat="47.635173" lon="-2.118110">
        <ele>66.300609</ele>
        <time>2025-06-25T14:08:39.190Z</time>
      </trkpt>
      <trkpt lat="47.635099" lon="-2.117186">
        <ele>70.026783</ele>
        <time>2025-06-25T14:09:01.218Z</time>
      </trkpt>
      <trkpt lat="47.635012" lon="-2.114849">
        <ele>75.439436</ele>
        <time>2025-06-25T14:09:47.362Z</time>
      </trkpt>
      <trkpt lat="47.634955" lon="-2.113574">
        <ele>76.247661</ele>
        <time>2025-06-25T14:10:04.145Z</time>
      </trkpt>
      <trkpt lat="47.634942" lon="-2.113408">
        <ele>75.954046</ele>
        <time>2025-06-25T14:10:05.672Z</time>
      </trkpt>
      <trkpt lat="47.634904" lon="-2.113065">
        <ele>75.343326</ele>
        <time>2025-06-25T14:10:08.578Z</time>
      </trkpt>
      <trkpt lat="47.634812" lon="-2.112550">
        <ele>74.407246</ele>
        <time>2025-06-25T14:10:12.582Z</time>
      </trkpt>
      <trkpt lat="47.634537" lon="-2.111270">
        <ele>71.516832</ele>
        <time>2025-06-25T14:10:21.203Z</time>
      </trkpt>
      <trkpt lat="47.634121" lon="-2.108525">
        <ele>55.684678</ele>
        <time>2025-06-25T14:10:37.876Z</time>
      </trkpt>
      <trkpt lat="47.634080" lon="-2.108258">
        <ele>53.508753</ele>
        <time>2025-06-25T14:10:39.469Z</time>
      </trkpt>
      <trkpt lat="47.633784" lon="-2.106327">
        <ele>37.773325</ele>
        <time>2025-06-25T14:10:50.729Z</time>
      </trkpt>
      <trkpt lat="47.633741" lon="-2.106112">
        <ele>35.910050</ele>
        <time>2025-06-25T14:10:51.985Z</time>
      </trkpt>
      <trkpt lat="47.633547" lon="-2.105446">
        <ele>29.560104</ele>
        <time>2025-06-25T14:10:56.048Z</time>
      </trkpt>
      <trkpt lat="47.633528" lon="-2.105291">
        <ele>28.181313</ele>
        <time>2025-06-25T14:10:56.934Z</time>
      </trkpt>
      <trkpt lat="47.633552" lon="-2.105027">
        <ele>25.849905</ele>
        <time>2025-06-25T14:10:58.431Z</time>
      </trkpt>
      <trkpt lat="47.633674" lon="-2.104632">
        <ele>22.047131</ele>
        <time>2025-06-25T14:11:00.876Z</time>
      </trkpt>
      <trkpt lat="47.633887" lon="-2.104338">
        <ele>18.269179</ele>
        <time>2025-06-25T14:11:03.311Z</time>
      </trkpt>
      <trkpt lat="47.634020" lon="-2.104235">
        <ele>16.320791</ele>
        <time>2025-06-25T14:11:04.579Z</time>
      </trkpt>
      <trkpt lat="47.634536" lon="-2.104032">
        <ele>11.688309</ele>
        <time>2025-06-25T14:11:09.176Z</time>
      </trkpt>
      <trkpt lat="47.634621" lon="-2.103961">
        <ele>11.141981</ele>
        <time>2025-06-25T14:11:10.033Z</time>
      </trkpt>
      <trkpt lat="47.634760" lon="-2.103582">
        <ele>9.513372</ele>
        <time>2025-06-25T14:11:12.655Z</time>
      </trkpt>
      <trkpt lat="47.634817" lon="-2.103415">
        <ele>8.806818</ele>
        <time>2025-06-25T14:11:13.825Z</time>
      </trkpt>
      <trkpt lat="47.635149" lon="-2.102413">
        <ele>4.592524</ele>
        <time>2025-06-25T14:11:21.164Z</time>
      </trkpt>
      <trkpt lat="47.635160" lon="-2.102381">
        <ele>4.456940</ele>
        <time>2025-06-25T14:11:21.421Z</time>
      </trkpt>
      <trkpt lat="47.635250" lon="-2.102152">
        <ele>3.456368</ele>
        <time>2025-06-25T14:11:23.412Z</time>
      </trkpt>
      <trkpt lat="47.635346" lon="-2.102028">
        <ele>3.327954</ele>
        <time>2025-06-25T14:11:24.949Z</time>
      </trkpt>
      <trkpt lat="47.635514" lon="-2.102005">
        <ele>3.281083</ele>
        <time>2025-06-25T14:11:27.256Z</time>
      </trkpt>
      <trkpt lat="47.635742" lon="-2.102040">
        <ele>3.217403</ele>
        <time>2025-06-25T14:11:30.598Z</time>
      </trkpt>
      <trkpt lat="47.635790" lon="-2.101992">
        <ele>3.201323</ele>
        <time>2025-06-25T14:11:31.479Z</time>
      </trkpt>
      <trkpt lat="47.635801" lon="-2.101905">
        <ele>3.184753</ele>
        <time>2025-06-25T14:11:32.423Z</time>
      </trkpt>
      <trkpt lat="47.635790" lon="-2.101821">
        <ele>3.168733</ele>
        <time>2025-06-25T14:11:33.351Z</time>
      </trkpt>
      <trkpt lat="47.635727" lon="-2.101748">
        <ele>3.146528</ele>
        <time>2025-06-25T14:11:34.680Z</time>
      </trkpt>
      <trkpt lat="47.635678" lon="-2.101589">
        <ele>3.113798</ele>
        <time>2025-06-25T14:11:36.637Z</time>
      </trkpt>
      <trkpt lat="47.635689" lon="-2.101150">
        <ele>3.031559</ele>
        <time>2025-06-25T14:11:41.509Z</time>
      </trkpt>
      <trkpt lat="47.635689" lon="-2.101145">
        <ele>3.030623</ele>
        <time>2025-06-25T14:11:41.559Z</time>
      </trkpt>
      <trkpt lat="47.635749" lon="-2.100834">
        <ele>2.970064</ele>
        <time>2025-06-25T14:11:44.966Z</time>
      </trkpt>
      <trkpt lat="47.635843" lon="-2.100529">
        <ele>2.907278</ele>
        <time>2025-06-25T14:11:48.416Z</time>
      </trkpt>
      <trkpt lat="47.635795" lon="-2.100443">
        <ele>2.886373</ele>
        <time>2025-06-25T14:11:49.549Z</time>
      </trkpt>
      <trkpt lat="47.635868" lon="-2.100202">
        <ele>2.851761</ele>
        <time>2025-06-25T14:11:52.233Z</time>
      </trkpt>
      <trkpt lat="47.635876" lon="-2.100175">
        <ele>2.849991</ele>
        <time>2025-06-25T14:11:52.538Z</time>
      </trkpt>
      <trkpt lat="47.636249" lon="-2.099030">
        <ele>2.773683</ele>
        <time>2025-06-25T14:12:05.359Z</time>
      </trkpt>
      <trkpt lat="47.636788" lon="-2.097370">
        <ele>2.642505</ele>
        <time>2025-06-25T14:12:22.687Z</time>
      </trkpt>
      <trkpt lat="47.637000" lon="-2.096720">
        <ele>2.574004</ele>
        <time>2025-06-25T14:12:29.591Z</time>
      </trkpt>
      <trkpt lat="47.637125" lon="-2.096334">
        <ele>2.533380</ele>
        <time>2025-06-25T14:12:33.740Z</time>
      </trkpt>
      <trkpt lat="47.637192" lon="-2.096119">
        <ele>2.510911</ele>
        <time>2025-06-25T14:12:36.046Z</time>
      </trkpt>
      <trkpt lat="47.637249" lon="-2.095946">
        <ele>2.492644</ele>
        <time>2025-06-25T14:12:37.922Z</time>
      </trkpt>
      <trkpt lat="47.637611" lon="-2.094855">
        <ele>2.547712</ele>
        <time>2025-06-25T14:12:50.030Z</time>
      </trkpt>
      <trkpt lat="47.637755" lon="-2.094505">
        <ele>2.606135</ele>
        <time>2025-06-25T14:12:54.335Z</time>
      </trkpt>
      <trkpt lat="47.637904" lon="-2.094228">
        <ele>2.656630</ele>
        <time>2025-06-25T14:12:58.192Z</time>
      </trkpt>
      <trkpt lat="47.637982" lon="-2.094109">
        <ele>2.680281</ele>
        <time>2025-06-25T14:13:00.024Z</time>
      </trkpt>
      <trkpt lat="47.638528" lon="-2.093472">
        <ele>2.824633</ele>
        <time>2025-06-25T14:13:11.304Z</time>
      </trkpt>
      <trkpt lat="47.638970" lon="-2.093126">
        <ele>2.746191</ele>
        <time>2025-06-25T14:13:19.130Z</time>
      </trkpt>
      <trkpt lat="47.639474" lon="-2.092809">
        <ele>2.660264</ele>
        <time>2025-06-25T14:13:26.653Z</time>
      </trkpt>
      <trkpt lat="47.639707" lon="-2.092691">
        <ele>2.621619</ele>
        <time>2025-06-25T14:13:29.840Z</time>
      </trkpt>
      <trkpt lat="47.640655" lon="-2.092397">
        <ele>2.775871</ele>
        <time>2025-06-25T14:13:43.359Z</time>
      </trkpt>
      <trkpt lat="47.641088" lon="-2.092281">
        <ele>2.993599</ele>
        <time>2025-06-25T14:13:50.482Z</time>
      </trkpt>
      <trkpt lat="47.641314" lon="-2.092259">
        <ele>3.105673</ele>
        <time>2025-06-25T14:13:54.522Z</time>
      </trkpt>
      <trkpt lat="47.642846" lon="-2.092523">
        <ele>4.015480</ele>
        <time>2025-06-25T14:14:24.139Z</time>
      </trkpt>
      <trkpt lat="47.643158" lon="-2.092576">
        <ele>4.223200</ele>
        <time>2025-06-25T14:14:29.558Z</time>
      </trkpt>
      <trkpt lat="47.643358" lon="-2.092610">
        <ele>4.356355</ele>
        <time>2025-06-25T14:14:32.870Z</time>
      </trkpt>
      <trkpt lat="47.643457" lon="-2.092353">
        <ele>4.488285</ele>
        <time>2025-06-25T14:14:35.947Z</time>
      </trkpt>
      <trkpt lat="47.643521" lon="-2.092218">
        <ele>4.561849</ele>
        <time>2025-06-25T14:14:37.554Z</time>
      </trkpt>
      <trkpt lat="47.643680" lon="-2.091972">
        <ele>4.519449</ele>
        <time>2025-06-25T14:14:40.978Z</time>
      </trkpt>
      <trkpt lat="47.644040" lon="-2.091413">
        <ele>4.125438</ele>
        <time>2025-06-25T14:14:48.300Z</time>
      </trkpt>
      <trkpt lat="47.644231" lon="-2.091113">
        <ele>3.915132</ele>
        <time>2025-06-25T14:14:51.880Z</time>
      </trkpt>
      <trkpt lat="47.644428" lon="-2.090817">
        <ele>3.703138</ele>
        <time>2025-06-25T14:14:55.323Z</time>
      </trkpt>
      <trkpt lat="47.644469" lon="-2.090756">
        <ele>3.659236</ele>
        <time>2025-06-25T14:14:56.009Z</time>
      </trkpt>
      <trkpt lat="47.644695" lon="-2.090606">
        <ele>3.472013</ele>
        <time>2025-06-25T14:14:58.930Z</time>
      </trkpt>
      <trkpt lat="47.644933" lon="-2.090244">
        <ele>3.178427</ele>
        <time>2025-06-25T14:15:02.792Z</time>
      </trkpt>
      <trkpt lat="47.645093" lon="-2.090078">
        <ele>2.921749</ele>
        <time>2025-06-25T14:15:05.001Z</time>
      </trkpt>
      <trkpt lat="47.645301" lon="-2.089903">
        <ele>2.607376</ele>
        <time>2025-06-25T14:15:07.822Z</time>
      </trkpt>
      <trkpt lat="47.645516" lon="-2.089757">
        <ele>2.296500</ele>
        <time>2025-06-25T14:15:10.504Z</time>
      </trkpt>
      <trkpt lat="47.645732" lon="-2.089602">
        <ele>1.981039</ele>
        <time>2025-06-25T14:15:13.238Z</time>
      </trkpt>
      <trkpt lat="47.645937" lon="-2.089456">
        <ele>1.682070</ele>
        <time>2025-06-25T14:15:15.791Z</time>
      </trkpt>
      <trkpt lat="47.646111" lon="-2.089339">
        <ele>1.430902</ele>
        <time>2025-06-25T14:15:18.022Z</time>
      </trkpt>
      <trkpt lat="47.646376" lon="-2.089149">
        <ele>1.043943</ele>
        <time>2025-06-25T14:15:21.517Z</time>
      </trkpt>
      <trkpt lat="47.646411" lon="-2.089124">
        <ele>0.992871</ele>
        <time>2025-06-25T14:15:22.006Z</time>
      </trkpt>
      <trkpt lat="47.646773" lon="-2.088874">
        <ele>1.021168</ele>
        <time>2025-06-25T14:15:27.315Z</time>
      </trkpt>
      <trkpt lat="47.647198" lon="-2.088592">
        <ele>1.196648</ele>
        <time>2025-06-25T14:15:34.698Z</time>
      </trkpt>
      <trkpt lat="47.647357" lon="-2.088490">
        <ele>1.261941</ele>
        <time>2025-06-25T14:15:37.441Z</time>
      </trkpt>
      <trkpt lat="47.647486" lon="-2.088402">
        <ele>1.315456</ele>
        <time>2025-06-25T14:15:39.762Z</time>
      </trkpt>
      <trkpt lat="47.647756" lon="-2.088221">
        <ele>1.427129</ele>
        <time>2025-06-25T14:15:45.075Z</time>
      </trkpt>
      <trkpt lat="47.647984" lon="-2.088068">
        <ele>1.521448</ele>
        <time>2025-06-25T14:15:49.755Z</time>
      </trkpt>
      <trkpt lat="47.648048" lon="-2.088024">
        <ele>1.548034</ele>
        <time>2025-06-25T14:15:51.154Z</time>
      </trkpt>
      <trkpt lat="47.648440" lon="-2.087756">
        <ele>2.034884</ele>
        <time>2025-06-25T14:16:00.350Z</time>
      </trkpt>
      <trkpt lat="47.648620" lon="-2.087632">
        <ele>2.289528</ele>
        <time>2025-06-25T14:16:04.762Z</time>
      </trkpt>
      <trkpt lat="47.648739" lon="-2.087534">
        <ele>2.464160</ele>
        <time>2025-06-25T14:16:07.786Z</time>
      </trkpt>
      <trkpt lat="47.648814" lon="-2.087458">
        <ele>2.580689</ele>
        <time>2025-06-25T14:16:09.791Z</time>
      </trkpt>
      <trkpt lat="47.649002" lon="-2.087078">
        <ele>2.988260</ele>
        <time>2025-06-25T14:16:17.158Z</time>
      </trkpt>
      <trkpt lat="47.649027" lon="-2.087029">
        <ele>3.041397</ele>
        <time>2025-06-25T14:16:18.105Z</time>
      </trkpt>
      <trkpt lat="47.648940" lon="-2.086819">
        <ele>3.254518</ele>
        <time>2025-06-25T14:16:21.688Z</time>
      </trkpt>
      <trkpt lat="47.648902" lon="-2.086687">
        <ele>3.378611</ele>
        <time>2025-06-25T14:16:23.608Z</time>
      </trkpt>
      <trkpt lat="47.648789" lon="-2.086274">
        <ele>3.763965</ele>
        <time>2025-06-25T14:16:28.917Z</time>
      </trkpt>
      <trkpt lat="47.648684" lon="-2.085839">
        <ele>3.795175</ele>
        <time>2025-06-25T14:16:33.237Z</time>
      </trkpt>
      <trkpt lat="47.648657" lon="-2.085716">
        <ele>3.759642</ele>
        <time>2025-06-25T14:16:34.404Z</time>
      </trkpt>
      <trkpt lat="47.648577" lon="-2.085331">
        <ele>3.648977</ele>
        <time>2025-06-25T14:16:38.156Z</time>
      </trkpt>
      <trkpt lat="47.648519" lon="-2.084912">
        <ele>3.531484</ele>
        <time>2025-06-25T14:16:42.045Z</time>
      </trkpt>
      <trkpt lat="47.648366" lon="-2.084424">
        <ele>3.383638</ele>
        <time>2025-06-25T14:16:46.666Z</time>
      </trkpt>
      <trkpt lat="47.648346" lon="-2.084352">
        <ele>3.362247</ele>
        <time>2025-06-25T14:16:47.324Z</time>
      </trkpt>
      <trkpt lat="47.648122" lon="-2.083634">
        <ele>3.145625</ele>
        <time>2025-06-25T14:16:53.766Z</time>
      </trkpt>
      <trkpt lat="47.648055" lon="-2.083449">
        <ele>3.095167</ele>
        <time>2025-06-25T14:16:55.581Z</time>
      </trkpt>
      <trkpt lat="47.648034" lon="-2.083375">
        <ele>3.075877</ele>
        <time>2025-06-25T14:16:56.298Z</time>
      </trkpt>
      <trkpt lat="47.647904" lon="-2.082981">
        <ele>2.970482</ele>
        <time>2025-06-25T14:17:00.646Z</time>
      </trkpt>
      <trkpt lat="47.647871" lon="-2.082879">
        <ele>2.943299</ele>
        <time>2025-06-25T14:17:01.941Z</time>
      </trkpt>
      <trkpt lat="47.647776" lon="-2.082559">
        <ele>2.859291</ele>
        <time>2025-06-25T14:17:05.747Z</time>
      </trkpt>
      <trkpt lat="47.647704" lon="-2.082331">
        <ele>2.798798</ele>
        <time>2025-06-25T14:17:08.268Z</time>
      </trkpt>
      <trkpt lat="47.647525" lon="-2.081776">
        <ele>2.650976</ele>
        <time>2025-06-25T14:17:13.846Z</time>
      </trkpt>
      <trkpt lat="47.647475" lon="-2.081609">
        <ele>2.607073</ele>
        <time>2025-06-25T14:17:15.436Z</time>
      </trkpt>
      <trkpt lat="47.647338" lon="-2.081183">
        <ele>2.509177</ele>
        <time>2025-06-25T14:17:19.549Z</time>
      </trkpt>
      <trkpt lat="47.647320" lon="-2.081127">
        <ele>2.509129</ele>
        <time>2025-06-25T14:17:20.064Z</time>
      </trkpt>
      <trkpt lat="47.647024" lon="-2.080222">
        <ele>2.508343</ele>
        <time>2025-06-25T14:17:29.067Z</time>
      </trkpt>
      <trkpt lat="47.646989" lon="-2.080119">
        <ele>2.508253</ele>
        <time>2025-06-25T14:17:30.155Z</time>
      </trkpt>
      <trkpt lat="47.646775" lon="-2.079485">
        <ele>2.507699</ele>
        <time>2025-06-25T14:17:37.394Z</time>
      </trkpt>
      <trkpt lat="47.645954" lon="-2.076862">
        <ele>3.276843</ele>
        <time>2025-06-25T14:18:12.160Z</time>
      </trkpt>
      <trkpt lat="47.645780" lon="-2.076314">
        <ele>3.439664</ele>
        <time>2025-06-25T14:18:18.049Z</time>
      </trkpt>
      <trkpt lat="47.645488" lon="-2.075391">
        <ele>3.349794</ele>
        <time>2025-06-25T14:18:27.431Z</time>
      </trkpt>
      <trkpt lat="47.645298" lon="-2.074777">
        <ele>3.290244</ele>
        <time>2025-06-25T14:18:33.850Z</time>
      </trkpt>
      <trkpt lat="47.644816" lon="-2.073288">
        <ele>3.434326</ele>
        <time>2025-06-25T14:18:50.145Z</time>
      </trkpt>
      <trkpt lat="47.644740" lon="-2.073046">
        <ele>3.508279</ele>
        <time>2025-06-25T14:18:52.985Z</time>
      </trkpt>
      <trkpt lat="47.644709" lon="-2.072950">
        <ele>3.537765</ele>
        <time>2025-06-25T14:18:54.161Z</time>
      </trkpt>
      <trkpt lat="47.644594" lon="-2.072600">
        <ele>3.645621</ele>
        <time>2025-06-25T14:18:58.303Z</time>
      </trkpt>
      <trkpt lat="47.644167" lon="-2.071397">
        <ele>4.327475</ele>
        <time>2025-06-25T14:19:14.296Z</time>
      </trkpt>
      <trkpt lat="47.644123" lon="-2.071203">
        <ele>4.637845</ele>
        <time>2025-06-25T14:19:17.077Z</time>
      </trkpt>
      <trkpt lat="47.643866" lon="-2.070321">
        <ele>6.094882</ele>
        <time>2025-06-25T14:19:31.503Z</time>
      </trkpt>
      <trkpt lat="47.643817" lon="-2.070098">
        <ele>6.450533</ele>
        <time>2025-06-25T14:19:35.296Z</time>
      </trkpt>
      <trkpt lat="47.643803" lon="-2.069851">
        <ele>6.826369</ele>
        <time>2025-06-25T14:19:39.620Z</time>
      </trkpt>
      <trkpt lat="47.643843" lon="-2.069505">
        <ele>7.358657</ele>
        <time>2025-06-25T14:19:46.070Z</time>
      </trkpt>
      <trkpt lat="47.644034" lon="-2.068658">
        <ele>9.116182</ele>
        <time>2025-06-25T14:20:03.568Z</time>
      </trkpt>
      <trkpt lat="47.644050" lon="-2.068574">
        <ele>9.323595</ele>
        <time>2025-06-25T14:20:05.374Z</time>
      </trkpt>
      <trkpt lat="47.644120" lon="-2.068211">
        <ele>10.220745</ele>
        <time>2025-06-25T14:20:13.319Z</time>
      </trkpt>
      <trkpt lat="47.644472" lon="-2.066542">
        <ele>14.346226</ele>
        <time>2025-06-25T14:20:49.508Z</time>
      </trkpt>
      <trkpt lat="47.644542" lon="-2.066298">
        <ele>14.367428</ele>
        <time>2025-06-25T14:20:53.690Z</time>
      </trkpt>
      <trkpt lat="47.644693" lon="-2.065567">
        <ele>14.428555</ele>
        <time>2025-06-25T14:21:03.242Z</time>
      </trkpt>
      <trkpt lat="47.644861" lon="-2.065547">
        <ele>14.448555</ele>
        <time>2025-06-25T14:21:05.562Z</time>
      </trkpt>
      <trkpt lat="47.645926" lon="-2.064897">
        <ele>14.448745</ele>
        <time>2025-06-25T14:21:19.001Z</time>
      </trkpt>
      <trkpt lat="47.646071" lon="-2.064772">
        <ele>14.366495</ele>
        <time>2025-06-25T14:21:20.990Z</time>
      </trkpt>
      <trkpt lat="47.646273" lon="-2.064464">
        <ele>14.224447</ele>
        <time>2025-06-25T14:21:24.629Z</time>
      </trkpt>
      <trkpt lat="47.646579" lon="-2.063817">
        <ele>13.963211</ele>
        <time>2025-06-25T14:21:32.056Z</time>
      </trkpt>
      <trkpt lat="47.646813" lon="-2.063322">
        <ele>13.763379</ele>
        <time>2025-06-25T14:21:38.612Z</time>
      </trkpt>
      <trkpt lat="47.646983" lon="-2.063053">
        <ele>13.680235</ele>
        <time>2025-06-25T14:21:42.251Z</time>
      </trkpt>
      <trkpt lat="47.647644" lon="-2.062156">
        <ele>13.729167</ele>
        <time>2025-06-25T14:21:55.311Z</time>
      </trkpt>
      <trkpt lat="47.647768" lon="-2.061965">
        <ele>13.738930</ele>
        <time>2025-06-25T14:21:57.915Z</time>
      </trkpt>
      <trkpt lat="47.647831" lon="-2.061808">
        <ele>13.745656</ele>
        <time>2025-06-25T14:21:59.744Z</time>
      </trkpt>
      <trkpt lat="47.648271" lon="-2.060566">
        <ele>13.942019</ele>
        <time>2025-06-25T14:22:14.123Z</time>
      </trkpt>
      <trkpt lat="47.648541" lon="-2.059757">
        <ele>14.187248</ele>
        <time>2025-06-25T14:22:24.307Z</time>
      </trkpt>
      <trkpt lat="47.648644" lon="-2.059337">
        <ele>14.308652</ele>
        <time>2025-06-25T14:22:29.301Z</time>
      </trkpt>
      <trkpt lat="47.648692" lon="-2.059119">
        <ele>14.370948</ele>
        <time>2025-06-25T14:22:31.834Z</time>
      </trkpt>
      <trkpt lat="47.648969" lon="-2.057510">
        <ele>15.164117</ele>
        <time>2025-06-25T14:22:51.768Z</time>
      </trkpt>
      <trkpt lat="47.648989" lon="-2.057273">
        <ele>15.297873</ele>
        <time>2025-06-25T14:22:54.702Z</time>
      </trkpt>
      <trkpt lat="47.648989" lon="-2.057133">
        <ele>15.376273</ele>
        <time>2025-06-25T14:22:56.438Z</time>
      </trkpt>
      <trkpt lat="47.648461" lon="-2.053239">
        <ele>18.235162</ele>
        <time>2025-06-25T14:23:46.212Z</time>
      </trkpt>
      <trkpt lat="47.648437" lon="-2.052985">
        <ele>18.684354</ele>
        <time>2025-06-25T14:23:50.087Z</time>
      </trkpt>
      <trkpt lat="47.648442" lon="-2.052765">
        <ele>19.069867</ele>
        <time>2025-06-25T14:23:53.523Z</time>
      </trkpt>
      <trkpt lat="47.648542" lon="-2.052207">
        <ele>20.081096</ele>
        <time>2025-06-25T14:24:03.057Z</time>
      </trkpt>
      <trkpt lat="47.649091" lon="-2.050013">
        <ele>24.815989</ele>
        <time>2025-06-25T14:24:47.081Z</time>
      </trkpt>
      <trkpt lat="47.649214" lon="-2.049438">
        <ele>26.288704</ele>
        <time>2025-06-25T14:24:59.701Z</time>
      </trkpt>
      <trkpt lat="47.649322" lon="-2.048718">
        <ele>28.089356</ele>
        <time>2025-06-25T14:25:15.485Z</time>
      </trkpt>
      <trkpt lat="47.649386" lon="-2.047948">
        <ele>29.514342</ele>
        <time>2025-06-25T14:25:30.880Z</time>
      </trkpt>
      <trkpt lat="47.649378" lon="-2.047588">
        <ele>29.935649</ele>
        <time>2025-06-25T14:25:36.852Z</time>
      </trkpt>
      <trkpt lat="47.649342" lon="-2.047116">
        <ele>30.491256</ele>
        <time>2025-06-25T14:25:44.355Z</time>
      </trkpt>
      <trkpt lat="47.649258" lon="-2.046549">
        <ele>31.170303</ele>
        <time>2025-06-25T14:25:52.991Z</time>
      </trkpt>
      <trkpt lat="47.649166" lon="-2.045924">
        <ele>31.918591</ele>
        <time>2025-06-25T14:26:00.087Z</time>
      </trkpt>
      <trkpt lat="47.649141" lon="-2.045383">
        <ele>32.576669</ele>
        <time>2025-06-25T14:26:04.901Z</time>
      </trkpt>
      <trkpt lat="47.649170" lon="-2.044846">
        <ele>33.250018</ele>
        <time>2025-06-25T14:26:10.048Z</time>
      </trkpt>
      <trkpt lat="47.649215" lon="-2.044570">
        <ele>33.604949</ele>
        <time>2025-06-25T14:26:13.415Z</time>
      </trkpt>
      <trkpt lat="47.649279" lon="-2.044407">
        <ele>33.840760</ele>
        <time>2025-06-25T14:26:16.072Z</time>
      </trkpt>
      <trkpt lat="47.649406" lon="-2.044273">
        <ele>34.129851</ele>
        <time>2025-06-25T14:26:19.713Z</time>
      </trkpt>
      <trkpt lat="47.649388" lon="-2.044012">
        <ele>34.457778</ele>
        <time>2025-06-25T14:26:23.958Z</time>
      </trkpt>
      <trkpt lat="47.649298" lon="-2.043920">
        <ele>34.660524</ele>
        <time>2025-06-25T14:26:26.609Z</time>
      </trkpt>
      <trkpt lat="47.649253" lon="-2.043208">
        <ele>35.576570</ele>
        <time>2025-06-25T14:26:39.363Z</time>
      </trkpt>
      <trkpt lat="47.648852" lon="-2.040605">
        <ele>45.443604</ele>
        <time>2025-06-25T14:27:47.774Z</time>
      </trkpt>
      <trkpt lat="47.648680" lon="-2.039461">
        <ele>49.559757</ele>
        <time>2025-06-25T14:28:20.111Z</time>
      </trkpt>
      <trkpt lat="47.648596" lon="-2.038439">
        <ele>53.175278</ele>
        <time>2025-06-25T14:28:45.566Z</time>
      </trkpt>
      <trkpt lat="47.648578" lon="-2.037084">
        <ele>55.929703</ele>
        <time>2025-06-25T14:29:09.243Z</time>
      </trkpt>
      <trkpt lat="47.648499" lon="-2.035775">
        <ele>57.605718</ele>
        <time>2025-06-25T14:29:27.093Z</time>
      </trkpt>
      <trkpt lat="47.648217" lon="-2.033469">
        <ele>57.874757</ele>
        <time>2025-06-25T14:29:56.697Z</time>
      </trkpt>
      <trkpt lat="47.648246" lon="-2.033222">
        <ele>57.832638</ele>
        <time>2025-06-25T14:29:58.814Z</time>
      </trkpt>
      <trkpt lat="47.648238" lon="-2.032996">
        <ele>57.794619</ele>
        <time>2025-06-25T14:30:00.589Z</time>
      </trkpt>
      <trkpt lat="47.648932" lon="-2.030776">
        <ele>51.603108</ele>
        <time>2025-06-25T14:30:16.545Z</time>
      </trkpt>
      <trkpt lat="47.648990" lon="-2.030497">
        <ele>50.765023</ele>
        <time>2025-06-25T14:30:18.364Z</time>
      </trkpt>
      <trkpt lat="47.649012" lon="-2.030218">
        <ele>49.957307</ele>
        <time>2025-06-25T14:30:20.117Z</time>
      </trkpt>
      <trkpt lat="47.648994" lon="-2.029789">
        <ele>48.708941</ele>
        <time>2025-06-25T14:30:22.807Z</time>
      </trkpt>
      <trkpt lat="47.649164" lon="-2.029614">
        <ele>47.817051</ele>
        <time>2025-06-25T14:30:24.734Z</time>
      </trkpt>
      <trkpt lat="47.650563" lon="-2.028559">
        <ele>41.909297</ele>
        <time>2025-06-25T14:30:40.019Z</time>
      </trkpt>
      <trkpt lat="47.650636" lon="-2.028406">
        <ele>41.731478</ele>
        <time>2025-06-25T14:30:41.425Z</time>
      </trkpt>
      <trkpt lat="47.650678" lon="-2.028239">
        <ele>41.562413</ele>
        <time>2025-06-25T14:30:42.786Z</time>
      </trkpt>
      <trkpt lat="47.650751" lon="-2.027567">
        <ele>40.916839</ele>
        <time>2025-06-25T14:30:48.360Z</time>
      </trkpt>
      <trkpt lat="47.650762" lon="-2.027294">
        <ele>40.657457</ele>
        <time>2025-06-25T14:30:50.865Z</time>
      </trkpt>
      <trkpt lat="47.650673" lon="-2.024944">
        <ele>38.940088</ele>
        <time>2025-06-25T14:31:13.222Z</time>
      </trkpt>
      <trkpt lat="47.650675" lon="-2.023880">
        <ele>38.310938</ele>
        <time>2025-06-25T14:31:21.457Z</time>
      </trkpt>
      <trkpt lat="47.650635" lon="-2.023567">
        <ele>38.038762</ele>
        <time>2025-06-25T14:31:23.838Z</time>
      </trkpt>
      <trkpt lat="47.650579" lon="-2.023385">
        <ele>37.811941</ele>
        <time>2025-06-25T14:31:25.324Z</time>
      </trkpt>
      <trkpt lat="47.650337" lon="-2.022856">
        <ele>37.087052</ele>
        <time>2025-06-25T14:31:30.052Z</time>
      </trkpt>
      <trkpt lat="47.650252" lon="-2.022591">
        <ele>36.754327</ele>
        <time>2025-06-25T14:31:32.263Z</time>
      </trkpt>
      <trkpt lat="47.649873" lon="-2.021193">
        <ele>35.025462</ele>
        <time>2025-06-25T14:31:43.969Z</time>
      </trkpt>
      <trkpt lat="47.649754" lon="-2.020572">
        <ele>34.187086</ele>
        <time>2025-06-25T14:31:48.980Z</time>
      </trkpt>
      <trkpt lat="47.649744" lon="-2.019953">
        <ele>33.383065</ele>
        <time>2025-06-25T14:31:53.599Z</time>
      </trkpt>
      <trkpt lat="47.649765" lon="-2.019797">
        <ele>33.176489</ele>
        <time>2025-06-25T14:31:54.767Z</time>
      </trkpt>
      <trkpt lat="47.649911" lon="-2.019199">
        <ele>32.350546</ele>
        <time>2025-06-25T14:31:59.396Z</time>
      </trkpt>
      <trkpt lat="47.650081" lon="-2.018684">
        <ele>31.610979</ele>
        <time>2025-06-25T14:32:03.505Z</time>
      </trkpt>
      <trkpt lat="47.650450" lon="-2.017558">
        <ele>30.058160</ele>
        <time>2025-06-25T14:32:12.680Z</time>
      </trkpt>
      <trkpt lat="47.650785" lon="-2.016628">
        <ele>28.750342</ele>
        <time>2025-06-25T14:32:20.743Z</time>
      </trkpt>
      <trkpt lat="47.651077" lon="-2.015602">
        <ele>27.725447</ele>
        <time>2025-06-25T14:32:29.594Z</time>
      </trkpt>
      <trkpt lat="47.651817" lon="-2.013854">
        <ele>26.195670</ele>
        <time>2025-06-25T14:32:46.233Z</time>
      </trkpt>
      <trkpt lat="47.652018" lon="-2.013458">
        <ele>26.117326</ele>
        <time>2025-06-25T14:32:50.414Z</time>
      </trkpt>
      <trkpt lat="47.652119" lon="-2.013318">
        <ele>26.084913</ele>
        <time>2025-06-25T14:32:52.141Z</time>
      </trkpt>
      <trkpt lat="47.652652" lon="-2.012803">
        <ele>25.935745</ele>
        <time>2025-06-25T14:33:00.661Z</time>
      </trkpt>
      <trkpt lat="47.652730" lon="-2.012686">
        <ele>25.909736</ele>
        <time>2025-06-25T14:33:02.326Z</time>
      </trkpt>
      <trkpt lat="47.652784" lon="-2.012544">
        <ele>25.883972</ele>
        <time>2025-06-25T14:33:04.112Z</time>
      </trkpt>
      <trkpt lat="47.652831" lon="-2.012256">
        <ele>25.837151</ele>
        <time>2025-06-25T14:33:07.470Z</time>
      </trkpt>
      <trkpt lat="47.652775" lon="-2.011807">
        <ele>26.298397</ele>
        <time>2025-06-25T14:33:13.165Z</time>
      </trkpt>
      <trkpt lat="47.652637" lon="-2.011422">
        <ele>27.035197</ele>
        <time>2025-06-25T14:33:19.086Z</time>
      </trkpt>
      <trkpt lat="47.652306" lon="-2.010765">
        <ele>28.421289</ele>
        <time>2025-06-25T14:33:31.849Z</time>
      </trkpt>
      <trkpt lat="47.651997" lon="-2.009712">
        <ele>30.393515</ele>
        <time>2025-06-25T14:33:54.793Z</time>
      </trkpt>
      <trkpt lat="47.651853" lon="-2.008851">
        <ele>33.077804</ele>
        <time>2025-06-25T14:34:14.607Z</time>
      </trkpt>
      <trkpt lat="47.651823" lon="-2.008570">
        <ele>33.938662</ele>
        <time>2025-06-25T14:34:21.185Z</time>
      </trkpt>
      <trkpt lat="47.651827" lon="-2.008304">
        <ele>34.743721</ele>
        <time>2025-06-25T14:34:27.414Z</time>
      </trkpt>
      <trkpt lat="47.651903" lon="-2.007794">
        <ele>36.324178</ele>
        <time>2025-06-25T14:34:39.782Z</time>
      </trkpt>
      <trkpt lat="47.652246" lon="-2.006120">
        <ele>40.607786</ele>
        <time>2025-06-25T14:35:17.322Z</time>
      </trkpt>
      <trkpt lat="47.652333" lon="-2.004924">
        <ele>43.104385</ele>
        <time>2025-06-25T14:35:37.971Z</time>
      </trkpt>
      <trkpt lat="47.652539" lon="-2.003905">
        <ele>44.399608</ele>
        <time>2025-06-25T14:35:52.999Z</time>
      </trkpt>
      <trkpt lat="47.653369" lon="-2.000689">
        <ele>46.613611</ele>
        <time>2025-06-25T14:36:34.285Z</time>
      </trkpt>
      <trkpt lat="47.653388" lon="-2.000436">
        <ele>46.759437</ele>
        <time>2025-06-25T14:36:37.578Z</time>
      </trkpt>
      <trkpt lat="47.653275" lon="-1.998085">
        <ele>47.806964</ele>
        <time>2025-06-25T14:37:07.247Z</time>
      </trkpt>
      <trkpt lat="47.653292" lon="-1.997396">
        <ele>48.050215</ele>
        <time>2025-06-25T14:37:14.609Z</time>
      </trkpt>
      <trkpt lat="47.653303" lon="-1.996495">
        <ele>48.214323</ele>
        <time>2025-06-25T14:37:23.460Z</time>
      </trkpt>
      <trkpt lat="47.653218" lon="-1.994631">
        <ele>47.902390</ele>
        <time>2025-06-25T14:37:41.285Z</time>
      </trkpt>
      <trkpt lat="47.653242" lon="-1.994008">
        <ele>47.868572</ele>
        <time>2025-06-25T14:37:46.725Z</time>
      </trkpt>
      <trkpt lat="47.653320" lon="-1.993551">
        <ele>48.070758</ele>
        <time>2025-06-25T14:37:50.597Z</time>
      </trkpt>
      <trkpt lat="47.653533" lon="-1.992868">
        <ele>48.393543</ele>
        <time>2025-06-25T14:37:57.973Z</time>
      </trkpt>
      <trkpt lat="47.653769" lon="-1.992298">
        <ele>48.680482</ele>
        <time>2025-06-25T14:38:05.947Z</time>
      </trkpt>
      <trkpt lat="47.653825" lon="-1.992256">
        <ele>48.720427</ele>
        <time>2025-06-25T14:38:07.169Z</time>
      </trkpt>
      <trkpt lat="47.653746" lon="-1.991613">
        <ele>49.071678</ele>
        <time>2025-06-25T14:38:17.217Z</time>
      </trkpt>
      <trkpt lat="47.653735" lon="-1.991520">
        <ele>49.188417</ele>
        <time>2025-06-25T14:38:18.842Z</time>
      </trkpt>
      <trkpt lat="47.653661" lon="-1.990690">
        <ele>50.223533</ele>
        <time>2025-06-25T14:38:35.126Z</time>
      </trkpt>
      <trkpt lat="47.653687" lon="-1.990267">
        <ele>50.748680</ele>
        <time>2025-06-25T14:38:43.490Z</time>
      </trkpt>
      <trkpt lat="47.653740" lon="-1.989604">
        <ele>51.574129</ele>
        <time>2025-06-25T14:38:53.689Z</time>
      </trkpt>
      <trkpt lat="47.653729" lon="-1.989370">
        <ele>51.864137</ele>
        <time>2025-06-25T14:38:56.426Z</time>
      </trkpt>
      <trkpt lat="47.653763" lon="-1.989294">
        <ele>51.976934</ele>
        <time>2025-06-25T14:38:57.361Z</time>
      </trkpt>
      <trkpt lat="47.653770" lon="-1.988949">
        <ele>51.976691</ele>
        <time>2025-06-25T14:39:00.542Z</time>
      </trkpt>
      <trkpt lat="47.653821" lon="-1.988742">
        <ele>51.414372</ele>
        <time>2025-06-25T14:39:02.311Z</time>
      </trkpt>
      <trkpt lat="47.653941" lon="-1.988396">
        <ele>50.421518</ele>
        <time>2025-06-25T14:39:05.159Z</time>
      </trkpt>
      <trkpt lat="47.653962" lon="-1.988322">
        <ele>50.216658</ele>
        <time>2025-06-25T14:39:05.724Z</time>
      </trkpt>
      <trkpt lat="47.653955" lon="-1.988072">
        <ele>49.578302</ele>
        <time>2025-06-25T14:39:07.419Z</time>
      </trkpt>
      <trkpt lat="47.653922" lon="-1.987718">
        <ele>48.666563</ele>
        <time>2025-06-25T14:39:09.756Z</time>
      </trkpt>
      <trkpt lat="47.653681" lon="-1.985700">
        <ele>42.394703</ele>
        <time>2025-06-25T14:39:22.497Z</time>
      </trkpt>
      <trkpt lat="47.653576" lon="-1.984969">
        <ele>39.500210</ele>
        <time>2025-06-25T14:39:27.068Z</time>
      </trkpt>
      <trkpt lat="47.653497" lon="-1.984605">
        <ele>38.019232</ele>
        <time>2025-06-25T14:39:29.415Z</time>
      </trkpt>
      <trkpt lat="47.653388" lon="-1.983815">
        <ele>35.040692</ele>
        <time>2025-06-25T14:39:34.428Z</time>
      </trkpt>
      <trkpt lat="47.653264" lon="-1.982663">
        <ele>33.550054</ele>
        <time>2025-06-25T14:39:42.334Z</time>
      </trkpt>
      <trkpt lat="47.653259" lon="-1.982599">
        <ele>33.467730</ele>
        <time>2025-06-25T14:39:42.815Z</time>
      </trkpt>
      <trkpt lat="47.652937" lon="-1.979378">
        <ele>32.423471</ele>
        <time>2025-06-25T14:40:15.501Z</time>
      </trkpt>
      <trkpt lat="47.652874" lon="-1.978422">
        <ele>33.054317</ele>
        <time>2025-06-25T14:40:29.017Z</time>
      </trkpt>
      <trkpt lat="47.652875" lon="-1.977934">
        <ele>34.019379</ele>
        <time>2025-06-25T14:40:36.810Z</time>
      </trkpt>
      <trkpt lat="47.652888" lon="-1.977411">
        <ele>35.054356</ele>
        <time>2025-06-25T14:40:45.943Z</time>
      </trkpt>
      <trkpt lat="47.652976" lon="-1.976066">
        <ele>37.726713</ele>
        <time>2025-06-25T14:41:12.496Z</time>
      </trkpt>
      <trkpt lat="47.652985" lon="-1.975892">
        <ele>38.067022</ele>
        <time>2025-06-25T14:41:16.126Z</time>
      </trkpt>
      <trkpt lat="47.653055" lon="-1.974974">
        <ele>39.747802</ele>
        <time>2025-06-25T14:41:34.411Z</time>
      </trkpt>
      <trkpt lat="47.653103" lon="-1.974224">
        <ele>41.118417</ele>
        <time>2025-06-25T14:41:47.965Z</time>
      </trkpt>
      <trkpt lat="47.653400" lon="-1.969599">
        <ele>47.129446</ele>
        <time>2025-06-25T14:42:53.632Z</time>
      </trkpt>
      <trkpt lat="47.653569" lon="-1.967168">
        <ele>50.559902</ele>
        <time>2025-06-25T14:43:34.964Z</time>
      </trkpt>
      <trkpt lat="47.653686" lon="-1.965353">
        <ele>52.965008</ele>
        <time>2025-06-25T14:44:02.230Z</time>
      </trkpt>
      <trkpt lat="47.654113" lon="-1.958673">
        <ele>55.788929</ele>
        <time>2025-06-25T14:45:26.230Z</time>
      </trkpt>
      <trkpt lat="47.654141" lon="-1.958301">
        <ele>55.562889</ele>
        <time>2025-06-25T14:45:29.244Z</time>
      </trkpt>
      <trkpt lat="47.654185" lon="-1.957831">
        <ele>55.276340</ele>
        <time>2025-06-25T14:45:32.769Z</time>
      </trkpt>
      <trkpt lat="47.654293" lon="-1.957416">
        <ele>55.007679</ele>
        <time>2025-06-25T14:45:35.861Z</time>
      </trkpt>
      <trkpt lat="47.655297" lon="-1.954516">
        <ele>45.181597</ele>
        <time>2025-06-25T14:45:56.688Z</time>
      </trkpt>
      <trkpt lat="47.655518" lon="-1.953964">
        <ele>43.148850</ele>
        <time>2025-06-25T14:46:00.850Z</time>
      </trkpt>
      <trkpt lat="47.655756" lon="-1.953660">
        <ele>41.673351</ele>
        <time>2025-06-25T14:46:03.904Z</time>
      </trkpt>
      <trkpt lat="47.655911" lon="-1.953576">
        <ele>40.897905</ele>
        <time>2025-06-25T14:46:05.496Z</time>
      </trkpt>
      <trkpt lat="47.656770" lon="-1.953258">
        <ele>36.335374</ele>
        <time>2025-06-25T14:46:13.842Z</time>
      </trkpt>
      <trkpt lat="47.656939" lon="-1.953135">
        <ele>35.235297</ele>
        <time>2025-06-25T14:46:15.575Z</time>
      </trkpt>
      <trkpt lat="47.657103" lon="-1.952905">
        <ele>33.916702</ele>
        <time>2025-06-25T14:46:17.635Z</time>
      </trkpt>
      <trkpt lat="47.657201" lon="-1.952652">
        <ele>32.767726</ele>
        <time>2025-06-25T14:46:19.424Z</time>
      </trkpt>
      <trkpt lat="47.657472" lon="-1.951371">
        <ele>27.577319</ele>
        <time>2025-06-25T14:46:27.628Z</time>
      </trkpt>
      <trkpt lat="47.657784" lon="-1.948992">
        <ele>20.358236</ele>
        <time>2025-06-25T14:46:43.128Z</time>
      </trkpt>
      <trkpt lat="47.658293" lon="-1.946608">
        <ele>19.096365</ele>
        <time>2025-06-25T14:47:04.190Z</time>
      </trkpt>
      <trkpt lat="47.658768" lon="-1.944418">
        <ele>22.744378</ele>
        <time>2025-06-25T14:47:45.012Z</time>
      </trkpt>
      <trkpt lat="47.658825" lon="-1.944194">
        <ele>23.197959</ele>
        <time>2025-06-25T14:47:49.856Z</time>
      </trkpt>
      <trkpt lat="47.659019" lon="-1.943683">
        <ele>24.284778</ele>
        <time>2025-06-25T14:48:01.839Z</time>
      </trkpt>
      <trkpt lat="47.659762" lon="-1.942130">
        <ele>27.562184</ele>
        <time>2025-06-25T14:48:37.479Z</time>
      </trkpt>
      <trkpt lat="47.660329" lon="-1.940725">
        <ele>27.877243</ele>
        <time>2025-06-25T14:48:56.310Z</time>
      </trkpt>
      <trkpt lat="47.660473" lon="-1.940402">
        <ele>27.585963</ele>
        <time>2025-06-25T14:48:59.374Z</time>
      </trkpt>
      <trkpt lat="47.660757" lon="-1.939979">
        <ele>27.136830</ele>
        <time>2025-06-25T14:49:03.825Z</time>
      </trkpt>
      <trkpt lat="47.661112" lon="-1.939515">
        <ele>26.562766</ele>
        <time>2025-06-25T14:49:08.748Z</time>
      </trkpt>
      <trkpt lat="47.662570" lon="-1.937651">
        <ele>19.750163</ele>
        <time>2025-06-25T14:49:27.886Z</time>
      </trkpt>
      <trkpt lat="47.665048" lon="-1.934475">
        <ele>6.834322</ele>
        <time>2025-06-25T14:49:59.670Z</time>
      </trkpt>
      <trkpt lat="47.665408" lon="-1.933960">
        <ele>5.707449</ele>
        <time>2025-06-25T14:50:04.850Z</time>
      </trkpt>
      <trkpt lat="47.665577" lon="-1.933593">
        <ele>5.300324</ele>
        <time>2025-06-25T14:50:08.079Z</time>
      </trkpt>
      <trkpt lat="47.665690" lon="-1.933219">
        <ele>4.924955</ele>
        <time>2025-06-25T14:50:11.172Z</time>
      </trkpt>
      <trkpt lat="47.665788" lon="-1.932723">
        <ele>4.451613</ele>
        <time>2025-06-25T14:50:15.307Z</time>
      </trkpt>
      <trkpt lat="47.665982" lon="-1.931478">
        <ele>4.407277</ele>
        <time>2025-06-25T14:50:28.411Z</time>
      </trkpt>
      <trkpt lat="47.666109" lon="-1.930713">
        <ele>5.636147</ele>
        <time>2025-06-25T14:50:40.718Z</time>
      </trkpt>
      <trkpt lat="47.666153" lon="-1.930471">
        <ele>6.027102</ele>
        <time>2025-06-25T14:50:45.062Z</time>
      </trkpt>
      <trkpt lat="47.666332" lon="-1.929322">
        <ele>7.869166</ele>
        <time>2025-06-25T14:51:07.659Z</time>
      </trkpt>
      <trkpt lat="47.666501" lon="-1.928304">
        <ele>10.955299</ele>
        <time>2025-06-25T14:51:29.560Z</time>
      </trkpt>
      <trkpt lat="47.667025" lon="-1.925044">
        <ele>20.619664</ele>
        <time>2025-06-25T14:52:45.548Z</time>
      </trkpt>
      <trkpt lat="47.667148" lon="-1.924583">
        <ele>22.021692</ele>
        <time>2025-06-25T14:52:55.665Z</time>
      </trkpt>
      <trkpt lat="47.667256" lon="-1.924308">
        <ele>22.921796</ele>
        <time>2025-06-25T14:53:01.833Z</time>
      </trkpt>
      <trkpt lat="47.667322" lon="-1.924211">
        <ele>23.296221</ele>
        <time>2025-06-25T14:53:04.441Z</time>
      </trkpt>
      <trkpt lat="47.668235" lon="-1.923001">
        <ele>26.175590</ele>
        <time>2025-06-25T14:53:34.876Z</time>
      </trkpt>
      <trkpt lat="47.668468" lon="-1.922589">
        <ele>27.028072</ele>
        <time>2025-06-25T14:53:43.083Z</time>
      </trkpt>
      <trkpt lat="47.668547" lon="-1.922372">
        <ele>27.418937</ele>
        <time>2025-06-25T14:53:46.758Z</time>
      </trkpt>
      <trkpt lat="47.668895" lon="-1.921085">
        <ele>27.723169</ele>
        <time>2025-06-25T14:54:05.239Z</time>
      </trkpt>
      <trkpt lat="47.669005" lon="-1.920750">
        <ele>27.783288</ele>
        <time>2025-06-25T14:54:09.083Z</time>
      </trkpt>
      <trkpt lat="47.669194" lon="-1.920385">
        <ele>27.857559</ele>
        <time>2025-06-25T14:54:13.345Z</time>
      </trkpt>
      <trkpt lat="47.669327" lon="-1.920221">
        <ele>27.898969</ele>
        <time>2025-06-25T14:54:15.556Z</time>
      </trkpt>
      <trkpt lat="47.671085" lon="-1.918466">
        <ele>23.299212</ele>
        <time>2025-06-25T14:54:38.347Z</time>
      </trkpt>
      <trkpt lat="47.672277" lon="-1.917283">
        <ele>18.027784</ele>
        <time>2025-06-25T14:54:52.255Z</time>
      </trkpt>
      <trkpt lat="47.672960" lon="-1.916622">
        <ele>15.940853</ele>
        <time>2025-06-25T14:55:00.409Z</time>
      </trkpt>
      <trkpt lat="47.673035" lon="-1.916579">
        <ele>15.767044</ele>
        <time>2025-06-25T14:55:01.246Z</time>
      </trkpt>
      <trkpt lat="47.673032" lon="-1.916386">
        <ele>15.486007</ele>
        <time>2025-06-25T14:55:02.630Z</time>
      </trkpt>
      <trkpt lat="47.672963" lon="-1.916040">
        <ele>14.960686</ele>
        <time>2025-06-25T14:55:05.265Z</time>
      </trkpt>
      <trkpt lat="47.672857" lon="-1.915286">
        <ele>13.839370</ele>
        <time>2025-06-25T14:55:11.316Z</time>
      </trkpt>
      <trkpt lat="47.672847" lon="-1.915200">
        <ele>13.712321</ele>
        <time>2025-06-25T14:55:12.077Z</time>
      </trkpt>
      <trkpt lat="47.672734" lon="-1.914445">
        <ele>13.051170</ele>
        <time>2025-06-25T14:55:19.376Z</time>
      </trkpt>
      <trkpt lat="47.672707" lon="-1.914273">
        <ele>12.950199</ele>
        <time>2025-06-25T14:55:21.111Z</time>
      </trkpt>
      <trkpt lat="47.672679" lon="-1.914081">
        <ele>12.837885</ele>
        <time>2025-06-25T14:55:22.984Z</time>
      </trkpt>
      <trkpt lat="47.672532" lon="-1.913300">
        <ele>12.374261</ele>
        <time>2025-06-25T14:55:30.097Z</time>
      </trkpt>
      <trkpt lat="47.672459" lon="-1.912983">
        <ele>12.182722</ele>
        <time>2025-06-25T14:55:32.836Z</time>
      </trkpt>
      <trkpt lat="47.672401" lon="-1.912836">
        <ele>12.085315</ele>
        <time>2025-06-25T14:55:34.182Z</time>
      </trkpt>
      <trkpt lat="47.672377" lon="-1.912810">
        <ele>12.060093</ele>
        <time>2025-06-25T14:55:34.533Z</time>
      </trkpt>
      <trkpt lat="47.672357" lon="-1.912742">
        <ele>12.017669</ele>
        <time>2025-06-25T14:55:35.117Z</time>
      </trkpt>
      <trkpt lat="47.672389" lon="-1.912643">
        <ele>11.954886</ele>
        <time>2025-06-25T14:55:35.975Z</time>
      </trkpt>
      <trkpt lat="47.672463" lon="-1.912634">
        <ele>11.891847</ele>
        <time>2025-06-25T14:55:36.821Z</time>
      </trkpt>
      <trkpt lat="47.672547" lon="-1.912550">
        <ele>11.797970</ele>
        <time>2025-06-25T14:55:37.983Z</time>
      </trkpt>
      <trkpt lat="47.672739" lon="-1.912265">
        <ele>11.470443</ele>
        <time>2025-06-25T14:55:41.083Z</time>
      </trkpt>
      <trkpt lat="47.673010" lon="-1.911952">
        <ele>11.056233</ele>
        <time>2025-06-25T14:55:44.995Z</time>
      </trkpt>
      <trkpt lat="47.673130" lon="-1.911772">
        <ele>10.850450</ele>
        <time>2025-06-25T14:55:46.908Z</time>
      </trkpt>
      <trkpt lat="47.673203" lon="-1.911593">
        <ele>10.680434</ele>
        <time>2025-06-25T14:55:48.495Z</time>
      </trkpt>
      <trkpt lat="47.673257" lon="-1.911318">
        <ele>10.447713</ele>
        <time>2025-06-25T14:55:50.694Z</time>
      </trkpt>
      <trkpt lat="47.673268" lon="-1.909585">
        <ele>9.547683</ele>
        <time>2025-06-25T14:56:05.758Z</time>
      </trkpt>
      <trkpt lat="47.673321" lon="-1.908241">
        <ele>9.357606</ele>
        <time>2025-06-25T14:56:19.197Z</time>
      </trkpt>
      <trkpt lat="47.673460" lon="-1.907082">
        <ele>9.185333</ele>
        <time>2025-06-25T14:56:30.822Z</time>
      </trkpt>
      <trkpt lat="47.673729" lon="-1.905380">
        <ele>8.921097</ele>
        <time>2025-06-25T14:56:47.147Z</time>
      </trkpt>
      <trkpt lat="47.673922" lon="-1.904096">
        <ele>8.904547</ele>
        <time>2025-06-25T14:56:59.540Z</time>
      </trkpt>
      <trkpt lat="47.674498" lon="-1.900278">
        <ele>9.344588</ele>
        <time>2025-06-25T14:57:40.855Z</time>
      </trkpt>
      <trkpt lat="47.674715" lon="-1.898259">
        <ele>9.826590</ele>
        <time>2025-06-25T14:58:03.289Z</time>
      </trkpt>
      <trkpt lat="47.674792" lon="-1.897777">
        <ele>9.951573</ele>
        <time>2025-06-25T14:58:08.525Z</time>
      </trkpt>
      <trkpt lat="47.675282" lon="-1.896373">
        <ele>10.479821</ele>
        <time>2025-06-25T14:58:26.561Z</time>
      </trkpt>
      <trkpt lat="47.675393" lon="-1.896018">
        <ele>10.628071</ele>
        <time>2025-06-25T14:58:31.206Z</time>
      </trkpt>
      <trkpt lat="47.675703" lon="-1.894483">
        <ele>11.088558</ele>
        <time>2025-06-25T14:58:50.065Z</time>
      </trkpt>
      <trkpt lat="47.675906" lon="-1.893490">
        <ele>11.040800</ele>
        <time>2025-06-25T14:59:00.996Z</time>
      </trkpt>
      <trkpt lat="47.676061" lon="-1.892899">
        <ele>11.011612</ele>
        <time>2025-06-25T14:59:06.944Z</time>
      </trkpt>
      <trkpt lat="47.676392" lon="-1.892089">
        <ele>10.803920</ele>
        <time>2025-06-25T14:59:15.089Z</time>
      </trkpt>
      <trkpt lat="47.677241" lon="-1.890126">
        <ele>9.390408</ele>
        <time>2025-06-25T14:59:34.080Z</time>
      </trkpt>
      <trkpt lat="47.677325" lon="-1.889874">
        <ele>9.371998</ele>
        <time>2025-06-25T14:59:36.551Z</time>
      </trkpt>
      <trkpt lat="47.677625" lon="-1.888672">
        <ele>9.420567</ele>
        <time>2025-06-25T14:59:49.159Z</time>
      </trkpt>
      <trkpt lat="47.677782" lon="-1.887967">
        <ele>9.448700</ele>
        <time>2025-06-25T14:59:57.620Z</time>
      </trkpt>
      <trkpt lat="47.678504" lon="-1.884862">
        <ele>10.443400</ele>
        <time>2025-06-25T15:00:35.618Z</time>
      </trkpt>
      <trkpt lat="47.678662" lon="-1.884293">
        <ele>10.412889</ele>
        <time>2025-06-25T15:00:42.020Z</time>
      </trkpt>
      <trkpt lat="47.678778" lon="-1.884031">
        <ele>10.397345</ele>
        <time>2025-06-25T15:00:45.157Z</time>
      </trkpt>
      <trkpt lat="47.678961" lon="-1.883790">
        <ele>10.379337</ele>
        <time>2025-06-25T15:00:48.646Z</time>
      </trkpt>
      <trkpt lat="47.679139" lon="-1.883642">
        <ele>10.364318</ele>
        <time>2025-06-25T15:00:51.495Z</time>
      </trkpt>
      <trkpt lat="47.679771" lon="-1.883211">
        <ele>10.331762</ele>
        <time>2025-06-25T15:01:00.590Z</time>
      </trkpt>
      <trkpt lat="47.680947" lon="-1.882390">
        <ele>10.461747</ele>
        <time>2025-06-25T15:01:19.004Z</time>
      </trkpt>
      <trkpt lat="47.682836" lon="-1.881093">
        <ele>12.211242</ele>
        <time>2025-06-25T15:01:58.792Z</time>
      </trkpt>
      <trkpt lat="47.683590" lon="-1.880563">
        <ele>13.023298</ele>
        <time>2025-06-25T15:02:14.797Z</time>
      </trkpt>
      <trkpt lat="47.683896" lon="-1.880273">
        <ele>13.374519</ele>
        <time>2025-06-25T15:02:21.673Z</time>
      </trkpt>
      <trkpt lat="47.684086" lon="-1.879997">
        <ele>13.631664</ele>
        <time>2025-06-25T15:02:26.648Z</time>
      </trkpt>
      <trkpt lat="47.684342" lon="-1.879621">
        <ele>13.980018</ele>
        <time>2025-06-25T15:02:33.363Z</time>
      </trkpt>
      <trkpt lat="47.684737" lon="-1.878912">
        <ele>13.867805</ele>
        <time>2025-06-25T15:02:44.342Z</time>
      </trkpt>
      <trkpt lat="47.684910" lon="-1.878368">
        <ele>13.720294</ele>
        <time>2025-06-25T15:02:50.283Z</time>
      </trkpt>
      <trkpt lat="47.685028" lon="-1.878097">
        <ele>13.641163</ele>
        <time>2025-06-25T15:02:53.128Z</time>
      </trkpt>
      <trkpt lat="47.685241" lon="-1.877850">
        <ele>13.542750</ele>
        <time>2025-06-25T15:02:56.497Z</time>
      </trkpt>
      <trkpt lat="47.686259" lon="-1.876981">
        <ele>11.890588</ele>
        <time>2025-06-25T15:03:09.690Z</time>
      </trkpt>
      <trkpt lat="47.686997" lon="-1.876337">
        <ele>10.272622</ele>
        <time>2025-06-25T15:03:18.924Z</time>
      </trkpt>
      <trkpt lat="47.687099" lon="-1.876254">
        <ele>10.052775</ele>
        <time>2025-06-25T15:03:20.187Z</time>
      </trkpt>
      <trkpt lat="47.688690" lon="-1.874894">
        <ele>6.840928</ele>
        <time>2025-06-25T15:03:40.597Z</time>
      </trkpt>
      <trkpt lat="47.689749" lon="-1.873982">
        <ele>5.975559</ele>
        <time>2025-06-25T15:03:56.038Z</time>
      </trkpt>
      <trkpt lat="47.689923" lon="-1.873779">
        <ele>5.819150</ele>
        <time>2025-06-25T15:03:59.147Z</time>
      </trkpt>
      <trkpt lat="47.690098" lon="-1.873491">
        <ele>5.634516</ele>
        <time>2025-06-25T15:04:02.877Z</time>
      </trkpt>
      <trkpt lat="47.690294" lon="-1.872998">
        <ele>5.638826</ele>
        <time>2025-06-25T15:04:08.580Z</time>
      </trkpt>
      <trkpt lat="47.691178" lon="-1.870136">
        <ele>6.617426</ele>
        <time>2025-06-25T15:04:42.484Z</time>
      </trkpt>
      <trkpt lat="47.691157" lon="-1.869905">
        <ele>6.788686</ele>
        <time>2025-06-25T15:04:45.317Z</time>
      </trkpt>
      <trkpt lat="47.691292" lon="-1.869889">
        <ele>6.936507</ele>
        <time>2025-06-25T15:04:47.793Z</time>
      </trkpt>
      <trkpt lat="47.691514" lon="-1.869811">
        <ele>7.185504</ele>
        <time>2025-06-25T15:04:52.072Z</time>
      </trkpt>
      <trkpt lat="47.691763" lon="-1.869643">
        <ele>7.484002</ele>
        <time>2025-06-25T15:04:57.646Z</time>
      </trkpt>
      <trkpt lat="47.691977" lon="-1.869404">
        <ele>7.776224</ele>
        <time>2025-06-25T15:05:03.685Z</time>
      </trkpt>
      <trkpt lat="47.692197" lon="-1.869071">
        <ele>8.298337</ele>
        <time>2025-06-25T15:05:11.298Z</time>
      </trkpt>
      <trkpt lat="47.692307" lon="-1.868924">
        <ele>8.589700</ele>
        <time>2025-06-25T15:05:14.944Z</time>
      </trkpt>
      <trkpt lat="47.692457" lon="-1.868754">
        <ele>8.961230</ele>
        <time>2025-06-25T15:05:19.652Z</time>
      </trkpt>
      <trkpt lat="47.692603" lon="-1.868641">
        <ele>9.285421</ele>
        <time>2025-06-25T15:05:23.733Z</time>
      </trkpt>
      <trkpt lat="47.693056" lon="-1.868437">
        <ele>10.217584</ele>
        <time>2025-06-25T15:05:34.886Z</time>
      </trkpt>
      <trkpt lat="47.693502" lon="-1.868230">
        <ele>11.137740</ele>
        <time>2025-06-25T15:05:45.361Z</time>
      </trkpt>
      <trkpt lat="47.693823" lon="-1.868133">
        <ele>11.660748</ele>
        <time>2025-06-25T15:05:52.087Z</time>
      </trkpt>
      <trkpt lat="47.694016" lon="-1.868066">
        <ele>11.912843</ele>
        <time>2025-06-25T15:05:55.763Z</time>
      </trkpt>
      <trkpt lat="47.694392" lon="-1.867800">
        <ele>12.442542</ele>
        <time>2025-06-25T15:06:03.125Z</time>
      </trkpt>
      <trkpt lat="47.694372" lon="-1.867741">
        <ele>12.499097</ele>
        <time>2025-06-25T15:06:03.893Z</time>
      </trkpt>
      <trkpt lat="47.694292" lon="-1.866640">
        <ele>13.447162</ele>
        <time>2025-06-25T15:06:18.149Z</time>
      </trkpt>
      <trkpt lat="47.694325" lon="-1.866468">
        <ele>13.600280</ele>
        <time>2025-06-25T15:06:20.645Z</time>
      </trkpt>
      <trkpt lat="47.694393" lon="-1.863005">
        <ele>17.803852</ele>
        <time>2025-06-25T15:07:13.662Z</time>
      </trkpt>
      <trkpt lat="47.694443" lon="-1.862346">
        <ele>18.507876</ele>
        <time>2025-06-25T15:07:23.042Z</time>
      </trkpt>
      <trkpt lat="47.694579" lon="-1.862478">
        <ele>18.764093</ele>
        <time>2025-06-25T15:07:26.458Z</time>
      </trkpt>
      <trkpt lat="47.694699" lon="-1.862539">
        <ele>18.964131</ele>
        <time>2025-06-25T15:07:29.078Z</time>
      </trkpt>
      <trkpt lat="47.695443" lon="-1.862839">
        <ele>20.155616</ele>
        <time>2025-06-25T15:07:44.738Z</time>
      </trkpt>
      <trkpt lat="47.695514" lon="-1.862839">
        <ele>20.255431</ele>
        <time>2025-06-25T15:07:46.146Z</time>
      </trkpt>
      <trkpt lat="47.695594" lon="-1.862790">
        <ele>20.377081</ele>
        <time>2025-06-25T15:07:47.917Z</time>
      </trkpt>
      <trkpt lat="47.694264" lon="-1.859490">
        <ele>23.619300</ele>
        <time>2025-06-25T15:08:40.846Z</time>
      </trkpt>
      <trkpt lat="47.693396" lon="-1.857245">
        <ele>24.833367</ele>
        <time>2025-06-25T15:09:10.273Z</time>
      </trkpt>
      <trkpt lat="47.693279" lon="-1.856753">
        <ele>24.995138</ele>
        <time>2025-06-25T15:09:16.106Z</time>
      </trkpt>
      <trkpt lat="47.693250" lon="-1.856543">
        <ele>25.061599</ele>
        <time>2025-06-25T15:09:18.486Z</time>
      </trkpt>
      <trkpt lat="47.692752" lon="-1.851221">
        <ele>26.581640</ele>
        <time>2025-06-25T15:10:17.331Z</time>
      </trkpt>
      <trkpt lat="47.692656" lon="-1.850538">
        <ele>26.996747</ele>
        <time>2025-06-25T15:10:25.746Z</time>
      </trkpt>
      <trkpt lat="47.692464" lon="-1.850060">
        <ele>27.500756</ele>
        <time>2025-06-25T15:10:32.903Z</time>
      </trkpt>
      <trkpt lat="47.692311" lon="-1.849749">
        <ele>27.849546</ele>
        <time>2025-06-25T15:10:38.101Z</time>
      </trkpt>
      <trkpt lat="47.691027" lon="-1.847393">
        <ele>31.587162</ele>
        <time>2025-06-25T15:11:22.505Z</time>
      </trkpt>
      <trkpt lat="47.690789" lon="-1.846827">
        <ele>32.598352</ele>
        <time>2025-06-25T15:11:34.259Z</time>
      </trkpt>
      <trkpt lat="47.690715" lon="-1.846533">
        <ele>33.073949</ele>
        <time>2025-06-25T15:11:39.952Z</time>
      </trkpt>
      <trkpt lat="47.690664" lon="-1.845803">
        <ele>34.506712</ele>
        <time>2025-06-25T15:11:53.700Z</time>
      </trkpt>
      <trkpt lat="47.690663" lon="-1.843320">
        <ele>39.098851</ele>
        <time>2025-06-25T15:12:38.454Z</time>
      </trkpt>
      <trkpt lat="47.690644" lon="-1.837858">
        <ele>45.061731</ele>
        <time>2025-06-25T15:13:55.559Z</time>
      </trkpt>
      <trkpt lat="47.690648" lon="-1.837390">
        <ele>45.464130</ele>
        <time>2025-06-25T15:14:01.485Z</time>
      </trkpt>
      <trkpt lat="47.690682" lon="-1.837082">
        <ele>45.732473</ele>
        <time>2025-06-25T15:14:05.446Z</time>
      </trkpt>
      <trkpt lat="47.690777" lon="-1.836694">
        <ele>46.087441</ele>
        <time>2025-06-25T15:14:10.709Z</time>
      </trkpt>
      <trkpt lat="47.691002" lon="-1.836131">
        <ele>46.650366</ele>
        <time>2025-06-25T15:14:19.117Z</time>
      </trkpt>
      <trkpt lat="47.692286" lon="-1.833074">
        <ele>50.975988</ele>
        <time>2025-06-25T15:15:11.637Z</time>
      </trkpt>
      <trkpt lat="47.692521" lon="-1.832365">
        <ele>52.263888</ele>
        <time>2025-06-25T15:15:24.342Z</time>
      </trkpt>
      <trkpt lat="47.693103" lon="-1.830361">
        <ele>56.415768</ele>
        <time>2025-06-25T15:16:03.486Z</time>
      </trkpt>
      <trkpt lat="47.693699" lon="-1.828334">
        <ele>60.977531</ele>
        <time>2025-06-25T15:16:46.967Z</time>
      </trkpt>
      <trkpt lat="47.694015" lon="-1.827216">
        <ele>62.897274</ele>
        <time>2025-06-25T15:17:07.473Z</time>
      </trkpt>
      <trkpt lat="47.694059" lon="-1.826967">
        <ele>63.304848</ele>
        <time>2025-06-25T15:17:11.359Z</time>
      </trkpt>
      <trkpt lat="47.694080" lon="-1.826662">
        <ele>63.790241</ele>
        <time>2025-06-25T15:17:15.793Z</time>
      </trkpt>
      <trkpt lat="47.694105" lon="-1.822771">
        <ele>65.127180</ele>
        <time>2025-06-25T15:18:02.942Z</time>
      </trkpt>
      <trkpt lat="47.694108" lon="-1.822426">
        <ele>64.832378</ele>
        <time>2025-06-25T15:18:05.776Z</time>
      </trkpt>
      <trkpt lat="47.694116" lon="-1.821279">
        <ele>63.852296</ele>
        <time>2025-06-25T15:18:14.189Z</time>
      </trkpt>
      <trkpt lat="47.694094" lon="-1.820428">
        <ele>62.213339</ele>
        <time>2025-06-25T15:18:19.948Z</time>
      </trkpt>
      <trkpt lat="47.693915" lon="-1.817089">
        <ele>54.314290</ele>
        <time>2025-06-25T15:18:41.941Z</time>
      </trkpt>
      <trkpt lat="47.693920" lon="-1.816798">
        <ele>53.717153</ele>
        <time>2025-06-25T15:18:44.013Z</time>
      </trkpt>
      <trkpt lat="47.693955" lon="-1.816372">
        <ele>52.836794</ele>
        <time>2025-06-25T15:18:47.141Z</time>
      </trkpt>
      <trkpt lat="47.694119" lon="-1.815492">
        <ele>50.993367</ele>
        <time>2025-06-25T15:18:53.876Z</time>
      </trkpt>
      <trkpt lat="47.694160" lon="-1.815059">
        <ele>50.168038</ele>
        <time>2025-06-25T15:18:57.123Z</time>
      </trkpt>
      <trkpt lat="47.694193" lon="-1.812209">
        <ele>44.496059</ele>
        <time>2025-06-25T15:19:16.663Z</time>
      </trkpt>
      <trkpt lat="47.694177" lon="-1.811283">
        <ele>42.408271</ele>
        <time>2025-06-25T15:19:23.134Z</time>
      </trkpt>
      <trkpt lat="47.694082" lon="-1.810780">
        <ele>41.230778</ele>
        <time>2025-06-25T15:19:26.673Z</time>
      </trkpt>
      <trkpt lat="47.693960" lon="-1.810385">
        <ele>40.244348</ele>
        <time>2025-06-25T15:19:29.549Z</time>
      </trkpt>
      <trkpt lat="47.693384" lon="-1.808542">
        <ele>33.833702</ele>
        <time>2025-06-25T15:19:42.415Z</time>
      </trkpt>
      <trkpt lat="47.692060" lon="-1.804384">
        <ele>20.981962</ele>
        <time>2025-06-25T15:20:12.335Z</time>
      </trkpt>
      <trkpt lat="47.691972" lon="-1.803958">
        <ele>19.903382</ele>
        <time>2025-06-25T15:20:15.322Z</time>
      </trkpt>
      <trkpt lat="47.691915" lon="-1.803348">
        <ele>18.412740</ele>
        <time>2025-06-25T15:20:19.516Z</time>
      </trkpt>
      <trkpt lat="47.691922" lon="-1.802169">
        <ele>17.083343</ele>
        <time>2025-06-25T15:20:27.991Z</time>
      </trkpt>
      <trkpt lat="47.691971" lon="-1.794821">
        <ele>13.478068</ele>
        <time>2025-06-25T15:21:31.883Z</time>
      </trkpt>
      <trkpt lat="47.692071" lon="-1.793162">
        <ele>14.907252</ele>
        <time>2025-06-25T15:21:54.248Z</time>
      </trkpt>
      <trkpt lat="47.692267" lon="-1.790208">
        <ele>17.720406</ele>
        <time>2025-06-25T15:22:41.075Z</time>
      </trkpt>
      <trkpt lat="47.692327" lon="-1.789828">
        <ele>18.103477</ele>
        <time>2025-06-25T15:22:45.647Z</time>
      </trkpt>
      <trkpt lat="47.693208" lon="-1.785979">
        <ele>14.870448</ele>
        <time>2025-06-25T15:23:17.826Z</time>
      </trkpt>
      <trkpt lat="47.693258" lon="-1.785691">
        <ele>14.529916</ele>
        <time>2025-06-25T15:23:20.015Z</time>
      </trkpt>
      <trkpt lat="47.693300" lon="-1.785158">
        <ele>13.915501</ele>
        <time>2025-06-25T15:23:23.941Z</time>
      </trkpt>
      <trkpt lat="47.692857" lon="-1.780072">
        <ele>7.325843</ele>
        <time>2025-06-25T15:24:01.435Z</time>
      </trkpt>
      <trkpt lat="47.692741" lon="-1.778892">
        <ele>6.550568</ele>
        <time>2025-06-25T15:24:11.654Z</time>
      </trkpt>
      <trkpt lat="47.692700" lon="-1.778595">
        <ele>6.623033</ele>
        <time>2025-06-25T15:24:14.681Z</time>
      </trkpt>
      <trkpt lat="47.692647" lon="-1.778410">
        <ele>6.671089</ele>
        <time>2025-06-25T15:24:16.818Z</time>
      </trkpt>
      <trkpt lat="47.692561" lon="-1.778188">
        <ele>6.732311</ele>
        <time>2025-06-25T15:24:19.668Z</time>
      </trkpt>
      <trkpt lat="47.692386" lon="-1.777881">
        <ele>6.828466</ele>
        <time>2025-06-25T15:24:24.250Z</time>
      </trkpt>
      <trkpt lat="47.692062" lon="-1.777499">
        <ele>6.975344</ele>
        <time>2025-06-25T15:24:31.574Z</time>
      </trkpt>
      <trkpt lat="47.689501" lon="-1.774641">
        <ele>10.349236</ele>
        <time>2025-06-25T15:25:33.094Z</time>
      </trkpt>
      <trkpt lat="47.688165" lon="-1.773143">
        <ele>13.069944</ele>
        <time>2025-06-25T15:26:07.792Z</time>
      </trkpt>
      <trkpt lat="47.687956" lon="-1.772808">
        <ele>13.661718</ele>
        <time>2025-06-25T15:26:14.885Z</time>
      </trkpt>
      <trkpt lat="47.687833" lon="-1.772522">
        <ele>14.101434</ele>
        <time>2025-06-25T15:26:20.339Z</time>
      </trkpt>
      <trkpt lat="47.687762" lon="-1.772302">
        <ele>14.417537</ele>
        <time>2025-06-25T15:26:24.354Z</time>
      </trkpt>
      <trkpt lat="47.687669" lon="-1.771758">
        <ele>15.389153</ele>
        <time>2025-06-25T15:26:33.915Z</time>
      </trkpt>
      <trkpt lat="47.687194" lon="-1.767316">
        <ele>24.679813</ele>
        <time>2025-06-25T15:27:56.360Z</time>
      </trkpt>
      <trkpt lat="47.686647" lon="-1.762214">
        <ele>35.839351</ele>
        <time>2025-06-25T15:29:34.700Z</time>
      </trkpt>
      <trkpt lat="47.686619" lon="-1.761812">
        <ele>36.673592</ele>
        <time>2025-06-25T15:29:41.655Z</time>
      </trkpt>
      <trkpt lat="47.686600" lon="-1.761370">
        <ele>37.403455</ele>
        <time>2025-06-25T15:29:48.914Z</time>
      </trkpt>
      <trkpt lat="47.686629" lon="-1.760618">
        <ele>38.123325</ele>
        <time>2025-06-25T15:30:00.352Z</time>
      </trkpt>
      <trkpt lat="47.686935" lon="-1.755211">
        <ele>41.367518</ele>
        <time>2025-06-25T15:31:08.086Z</time>
      </trkpt>
      <trkpt lat="47.686936" lon="-1.755065">
        <ele>41.354298</ele>
        <time>2025-06-25T15:31:09.575Z</time>
      </trkpt>
      <trkpt lat="47.686896" lon="-1.754299">
        <ele>41.284731</ele>
        <time>2025-06-25T15:31:16.841Z</time>
      </trkpt>
      <trkpt lat="47.686047" lon="-1.747699">
        <ele>34.841718</ele>
        <time>2025-06-25T15:32:09.359Z</time>
      </trkpt>
      <trkpt lat="47.685834" lon="-1.746063">
        <ele>31.721983</ele>
        <time>2025-06-25T15:32:20.864Z</time>
      </trkpt>
      <trkpt lat="47.685776" lon="-1.745877">
        <ele>31.338201</ele>
        <time>2025-06-25T15:32:22.248Z</time>
      </trkpt>
      <trkpt lat="47.685737" lon="-1.745839">
        <ele>31.208486</ele>
        <time>2025-06-25T15:32:22.712Z</time>
      </trkpt>
      <trkpt lat="47.686145" lon="-1.744349">
        <ele>26.475783</ele>
        <time>2025-06-25T15:32:33.161Z</time>
      </trkpt>
      <trkpt lat="47.686455" lon="-1.743152">
        <ele>22.654340</ele>
        <time>2025-06-25T15:32:41.287Z</time>
      </trkpt>
      <trkpt lat="47.686891" lon="-1.741472">
        <ele>18.109279</ele>
        <time>2025-06-25T15:32:52.783Z</time>
      </trkpt>
      <trkpt lat="47.687022" lon="-1.740895">
        <ele>16.572159</ele>
        <time>2025-06-25T15:32:57.048Z</time>
      </trkpt>
      <trkpt lat="47.687048" lon="-1.740683">
        <ele>16.245074</ele>
        <time>2025-06-25T15:32:58.691Z</time>
      </trkpt>
      <trkpt lat="47.687203" lon="-1.739345">
        <ele>17.623248</ele>
        <time>2025-06-25T15:33:15.448Z</time>
      </trkpt>
      <trkpt lat="47.687218" lon="-1.739024">
        <ele>17.949880</ele>
        <time>2025-06-25T15:33:21.337Z</time>
      </trkpt>
      <trkpt lat="47.687237" lon="-1.738598">
        <ele>18.383262</ele>
        <time>2025-06-25T15:33:29.688Z</time>
      </trkpt>
      <trkpt lat="47.687183" lon="-1.737969">
        <ele>19.059789</ele>
        <time>2025-06-25T15:33:42.014Z</time>
      </trkpt>
      <trkpt lat="47.687168" lon="-1.737830">
        <ele>19.238304</ele>
        <time>2025-06-25T15:33:44.749Z</time>
      </trkpt>
      <trkpt lat="47.687154" lon="-1.737305">
        <ele>19.904575</ele>
        <time>2025-06-25T15:33:54.408Z</time>
      </trkpt>
      <trkpt lat="47.687179" lon="-1.736538">
        <ele>20.878340</ele>
        <time>2025-06-25T15:34:06.143Z</time>
      </trkpt>
      <trkpt lat="47.687184" lon="-1.736428">
        <ele>21.018148</ele>
        <time>2025-06-25T15:34:07.628Z</time>
      </trkpt>
      <trkpt lat="47.687198" lon="-1.736125">
        <ele>21.403284</ele>
        <time>2025-06-25T15:34:11.469Z</time>
      </trkpt>
      <trkpt lat="47.687237" lon="-1.735954">
        <ele>21.632234</ele>
        <time>2025-06-25T15:34:13.598Z</time>
      </trkpt>
      <trkpt lat="47.687137" lon="-1.735777">
        <ele>21.925259</ele>
        <time>2025-06-25T15:34:16.267Z</time>
      </trkpt>
      <trkpt lat="47.687132" lon="-1.735700">
        <ele>22.023355</ele>
        <time>2025-06-25T15:34:17.153Z</time>
      </trkpt>
      <trkpt lat="47.687088" lon="-1.734925">
        <ele>22.530391</ele>
        <time>2025-06-25T15:34:25.715Z</time>
      </trkpt>
      <trkpt lat="47.687043" lon="-1.733654">
        <ele>23.079503</ele>
        <time>2025-06-25T15:34:40.259Z</time>
      </trkpt>
      <trkpt lat="47.687039" lon="-1.733568">
        <ele>23.116695</ele>
        <time>2025-06-25T15:34:41.280Z</time>
      </trkpt>
      <trkpt lat="47.686997" lon="-1.732502">
        <ele>23.508310</ele>
        <time>2025-06-25T15:34:54.434Z</time>
      </trkpt>
      <trkpt lat="47.686972" lon="-1.731443">
        <ele>23.742102</ele>
        <time>2025-06-25T15:35:07.907Z</time>
      </trkpt>
      <trkpt lat="47.686988" lon="-1.731190">
        <ele>23.798168</ele>
        <time>2025-06-25T15:35:10.731Z</time>
      </trkpt>
      <trkpt lat="47.687060" lon="-1.730769">
        <ele>23.894004</ele>
        <time>2025-06-25T15:35:15.011Z</time>
      </trkpt>
      <trkpt lat="47.687250" lon="-1.730131">
        <ele>23.992279</ele>
        <time>2025-06-25T15:35:21.079Z</time>
      </trkpt>
      <trkpt lat="47.687593" lon="-1.729043">
        <ele>23.599522</ele>
        <time>2025-06-25T15:35:31.077Z</time>
      </trkpt>
      <trkpt lat="47.688374" lon="-1.726522">
        <ele>23.102383</ele>
        <time>2025-06-25T15:35:57.454Z</time>
      </trkpt>
      <trkpt lat="47.688481" lon="-1.725981">
        <ele>23.082479</ele>
        <time>2025-06-25T15:36:03.173Z</time>
      </trkpt>
      <trkpt lat="47.688528" lon="-1.725301">
        <ele>23.058350</ele>
        <time>2025-06-25T15:36:10.019Z</time>
      </trkpt>
      <trkpt lat="47.688628" lon="-1.720538">
        <ele>23.922499</ele>
        <time>2025-06-25T15:37:00.964Z</time>
      </trkpt>
      <trkpt lat="47.688642" lon="-1.720190">
        <ele>24.001604</ele>
        <time>2025-06-25T15:37:04.944Z</time>
      </trkpt>
      <trkpt lat="47.688685" lon="-1.718227">
        <ele>24.533451</ele>
        <time>2025-06-25T15:37:27.282Z</time>
      </trkpt>
      <trkpt lat="47.688725" lon="-1.717701">
        <ele>24.680152</ele>
        <time>2025-06-25T15:37:33.012Z</time>
      </trkpt>
      <trkpt lat="47.689305" lon="-1.713554">
        <ele>25.546573</ele>
        <time>2025-06-25T15:38:17.217Z</time>
      </trkpt>
      <trkpt lat="47.689349" lon="-1.713047">
        <ele>25.749039</ele>
        <time>2025-06-25T15:38:23.215Z</time>
      </trkpt>
      <trkpt lat="47.689319" lon="-1.712448">
        <ele>25.986937</ele>
        <time>2025-06-25T15:38:30.625Z</time>
      </trkpt>
      <trkpt lat="47.689066" lon="-1.710211">
        <ele>27.374583</ele>
        <time>2025-06-25T15:38:59.955Z</time>
      </trkpt>
      <trkpt lat="47.689016" lon="-1.709576">
        <ele>27.797317</ele>
        <time>2025-06-25T15:39:07.665Z</time>
      </trkpt>
      <trkpt lat="47.688974" lon="-1.708372">
        <ele>28.627750</ele>
        <time>2025-06-25T15:39:22.466Z</time>
      </trkpt>
      <trkpt lat="47.688959" lon="-1.707975">
        <ele>28.903657</ele>
        <time>2025-06-25T15:39:27.373Z</time>
      </trkpt>
      <trkpt lat="47.688918" lon="-1.707678">
        <ele>29.114030</ele>
        <time>2025-06-25T15:39:31.179Z</time>
      </trkpt>
      <trkpt lat="47.688835" lon="-1.707317">
        <ele>29.378732</ele>
        <time>2025-06-25T15:39:36.060Z</time>
      </trkpt>
      <trkpt lat="47.688475" lon="-1.706187">
        <ele>30.332055</ele>
        <time>2025-06-25T15:39:53.158Z</time>
      </trkpt>
      <trkpt lat="47.688378" lon="-1.705720">
        <ele>30.733006</ele>
        <time>2025-06-25T15:40:00.013Z</time>
      </trkpt>
      <trkpt lat="47.688257" lon="-1.704771">
        <ele>31.525413</ele>
        <time>2025-06-25T15:40:13.168Z</time>
      </trkpt>
      <trkpt lat="47.688075" lon="-1.704178">
        <ele>31.967949</ele>
        <time>2025-06-25T15:40:21.516Z</time>
      </trkpt>
      <trkpt lat="47.687727" lon="-1.703239">
        <ele>31.973189</ele>
        <time>2025-06-25T15:40:33.552Z</time>
      </trkpt>
      <trkpt lat="47.687599" lon="-1.702462">
        <ele>31.977100</ele>
        <time>2025-06-25T15:40:40.921Z</time>
      </trkpt>
      <trkpt lat="47.687591" lon="-1.702026">
        <ele>31.979232</ele>
        <time>2025-06-25T15:40:44.741Z</time>
      </trkpt>
      <trkpt lat="47.687637" lon="-1.701513">
        <ele>31.792032</ele>
        <time>2025-06-25T15:40:49.214Z</time>
      </trkpt>
      <trkpt lat="47.687719" lon="-1.701067">
        <ele>31.465276</ele>
        <time>2025-06-25T15:40:53.142Z</time>
      </trkpt>
      <trkpt lat="47.687802" lon="-1.700744">
        <ele>31.220929</ele>
        <time>2025-06-25T15:40:55.935Z</time>
      </trkpt>
      <trkpt lat="47.688102" lon="-1.699681">
        <ele>30.406303</ele>
        <time>2025-06-25T15:41:05.025Z</time>
      </trkpt>
      <trkpt lat="47.688257" lon="-1.698994">
        <ele>30.041143</ele>
        <time>2025-06-25T15:41:10.868Z</time>
      </trkpt>
      <trkpt lat="47.688361" lon="-1.698343">
        <ele>29.919386</ele>
        <time>2025-06-25T15:41:16.405Z</time>
      </trkpt>
      <trkpt lat="47.688390" lon="-1.698130">
        <ele>29.879841</ele>
        <time>2025-06-25T15:41:18.279Z</time>
      </trkpt>
      <trkpt lat="47.688506" lon="-1.697222">
        <ele>29.711657</ele>
        <time>2025-06-25T15:41:27.446Z</time>
      </trkpt>
      <trkpt lat="47.688555" lon="-1.695937">
        <ele>29.723212</ele>
        <time>2025-06-25T15:41:42.677Z</time>
      </trkpt>
      <trkpt lat="47.688539" lon="-1.695573">
        <ele>29.783869</ele>
        <time>2025-06-25T15:41:46.889Z</time>
      </trkpt>
      <trkpt lat="47.688433" lon="-1.694726">
        <ele>29.927126</ele>
        <time>2025-06-25T15:41:56.099Z</time>
      </trkpt>
      <trkpt lat="47.688278" lon="-1.693752">
        <ele>30.148227</ele>
        <time>2025-06-25T15:42:05.575Z</time>
      </trkpt>
      <trkpt lat="47.688228" lon="-1.693117">
        <ele>30.388516</ele>
        <time>2025-06-25T15:42:11.676Z</time>
      </trkpt>
      <trkpt lat="47.688217" lon="-1.692214">
        <ele>30.727960</ele>
        <time>2025-06-25T15:42:21.513Z</time>
      </trkpt>
      <trkpt lat="47.688126" lon="-1.691486">
        <ele>31.006253</ele>
        <time>2025-06-25T15:42:31.129Z</time>
      </trkpt>
      <trkpt lat="47.687650" lon="-1.689385">
        <ele>33.517008</ele>
        <time>2025-06-25T15:43:04.886Z</time>
      </trkpt>
      <trkpt lat="47.687065" lon="-1.687236">
        <ele>35.794936</ele>
        <time>2025-06-25T15:43:37.969Z</time>
      </trkpt>
      <trkpt lat="47.686901" lon="-1.686559">
        <ele>36.454496</ele>
        <time>2025-06-25T15:43:47.322Z</time>
      </trkpt>
      <trkpt lat="47.686907" lon="-1.686371">
        <ele>36.627028</ele>
        <time>2025-06-25T15:43:49.709Z</time>
      </trkpt>
      <trkpt lat="47.686932" lon="-1.686284">
        <ele>36.678903</ele>
        <time>2025-06-25T15:43:50.849Z</time>
      </trkpt>
      <trkpt lat="47.686175" lon="-1.685689">
        <ele>37.166290</ele>
        <time>2025-06-25T15:44:05.536Z</time>
      </trkpt>
      <trkpt lat="47.686203" lon="-1.685521">
        <ele>37.232595</ele>
        <time>2025-06-25T15:44:08.038Z</time>
      </trkpt>
      <trkpt lat="47.686225" lon="-1.683638">
        <ele>38.271050</ele>
        <time>2025-06-25T15:44:35.427Z</time>
      </trkpt>
      <trkpt lat="47.686184" lon="-1.683290">
        <ele>38.561485</ele>
        <time>2025-06-25T15:44:41.125Z</time>
      </trkpt>
      <trkpt lat="47.685688" lon="-1.681329">
        <ele>40.075836</ele>
        <time>2025-06-25T15:45:19.462Z</time>
      </trkpt>
      <trkpt lat="47.685670" lon="-1.681114">
        <ele>40.163606</ele>
        <time>2025-06-25T15:45:23.409Z</time>
      </trkpt>
      <trkpt lat="47.685705" lon="-1.680749">
        <ele>40.312964</ele>
        <time>2025-06-25T15:45:29.777Z</time>
      </trkpt>
      <trkpt lat="47.685779" lon="-1.680323">
        <ele>40.491195</ele>
        <time>2025-06-25T15:45:36.789Z</time>
      </trkpt>
      <trkpt lat="47.685754" lon="-1.680036">
        <ele>40.608431</ele>
        <time>2025-06-25T15:45:41.006Z</time>
      </trkpt>
      <trkpt lat="47.685710" lon="-1.679882">
        <ele>40.676205</ele>
        <time>2025-06-25T15:45:43.261Z</time>
      </trkpt>
      <trkpt lat="47.685481" lon="-1.679363">
        <ele>40.927595</ele>
        <time>2025-06-25T15:45:50.982Z</time>
      </trkpt>
      <trkpt lat="47.685353" lon="-1.679015">
        <ele>40.767447</ele>
        <time>2025-06-25T15:45:55.661Z</time>
      </trkpt>
      <trkpt lat="47.685164" lon="-1.677646">
        <ele>39.956897</ele>
        <time>2025-06-25T15:46:11.540Z</time>
      </trkpt>
      <trkpt lat="47.685105" lon="-1.676873">
        <ele>39.505680</ele>
        <time>2025-06-25T15:46:20.889Z</time>
      </trkpt>
      <trkpt lat="47.685107" lon="-1.676460">
        <ele>39.265600</ele>
        <time>2025-06-25T15:46:26.345Z</time>
      </trkpt>
      <trkpt lat="47.685145" lon="-1.675733">
        <ele>38.841068</ele>
        <time>2025-06-25T15:46:36.022Z</time>
      </trkpt>
      <trkpt lat="47.685231" lon="-1.674960">
        <ele>38.384925</ele>
        <time>2025-06-25T15:46:45.934Z</time>
      </trkpt>
      <trkpt lat="47.685513" lon="-1.672534">
        <ele>35.712643</ele>
        <time>2025-06-25T15:47:12.447Z</time>
      </trkpt>
      <trkpt lat="47.685738" lon="-1.671335">
        <ele>34.006937</ele>
        <time>2025-06-25T15:47:25.183Z</time>
      </trkpt>
      <trkpt lat="47.685851" lon="-1.670902">
        <ele>33.431189</ele>
        <time>2025-06-25T15:47:29.997Z</time>
      </trkpt>
      <trkpt lat="47.686092" lon="-1.670144">
        <ele>32.391904</ele>
        <time>2025-06-25T15:47:38.848Z</time>
      </trkpt>
      <trkpt lat="47.687056" lon="-1.667242">
        <ele>28.976752</ele>
        <time>2025-06-25T15:48:15.126Z</time>
      </trkpt>
      <trkpt lat="47.687234" lon="-1.666666">
        <ele>28.381563</ele>
        <time>2025-06-25T15:48:22.240Z</time>
      </trkpt>
      <trkpt lat="47.687258" lon="-1.666504">
        <ele>28.247188</ele>
        <time>2025-06-25T15:48:24.087Z</time>
      </trkpt>
      <trkpt lat="47.687302" lon="-1.666066">
        <ele>27.915296</ele>
        <time>2025-06-25T15:48:28.939Z</time>
      </trkpt>
      <trkpt lat="47.687150" lon="-1.665008">
        <ele>27.104525</ele>
        <time>2025-06-25T15:48:40.674Z</time>
      </trkpt>
      <trkpt lat="47.687113" lon="-1.664691">
        <ele>26.863406</ele>
        <time>2025-06-25T15:48:44.269Z</time>
      </trkpt>
      <trkpt lat="47.687049" lon="-1.664132">
        <ele>26.438448</ele>
        <time>2025-06-25T15:48:50.989Z</time>
      </trkpt>
      <trkpt lat="47.687048" lon="-1.663573">
        <ele>26.736215</ele>
        <time>2025-06-25T15:48:58.832Z</time>
      </trkpt>
      <trkpt lat="47.687318" lon="-1.661335">
        <ele>28.967847</ele>
        <time>2025-06-25T15:49:42.115Z</time>
      </trkpt>
      <trkpt lat="47.687455" lon="-1.660167">
        <ele>29.648929</ele>
        <time>2025-06-25T15:50:04.068Z</time>
      </trkpt>
      <trkpt lat="47.686717" lon="-1.659862">
        <ele>30.302630</ele>
        <time>2025-06-25T15:50:21.190Z</time>
      </trkpt>
      <trkpt lat="47.686425" lon="-1.659594">
        <ele>30.373562</ele>
        <time>2025-06-25T15:50:27.325Z</time>
      </trkpt>
      <trkpt lat="47.686311" lon="-1.659414">
        <ele>30.205102</ele>
        <time>2025-06-25T15:50:30.136Z</time>
      </trkpt>
      <trkpt lat="47.686289" lon="-1.659120">
        <ele>30.003465</ele>
        <time>2025-06-25T15:50:33.485Z</time>
      </trkpt>
      <trkpt lat="47.686320" lon="-1.658821">
        <ele>29.797250</ele>
        <time>2025-06-25T15:50:36.985Z</time>
      </trkpt>
      <trkpt lat="47.686271" lon="-1.658347">
        <ele>29.470364</ele>
        <time>2025-06-25T15:50:42.622Z</time>
      </trkpt>
      <trkpt lat="47.686189" lon="-1.658017">
        <ele>29.230586</ele>
        <time>2025-06-25T15:50:46.711Z</time>
      </trkpt>
      <trkpt lat="47.686073" lon="-1.657813">
        <ele>29.048563</ele>
        <time>2025-06-25T15:50:49.706Z</time>
      </trkpt>
      <trkpt lat="47.685739" lon="-1.657464">
        <ele>28.611071</ele>
        <time>2025-06-25T15:50:56.569Z</time>
      </trkpt>
      <trkpt lat="47.685463" lon="-1.657055">
        <ele>27.965011</ele>
        <time>2025-06-25T15:51:03.268Z</time>
      </trkpt>
      <trkpt lat="47.687187" lon="-1.655061">
        <ele>24.960602</ele>
        <time>2025-06-25T15:51:27.611Z</time>
      </trkpt>
      <trkpt lat="47.688089" lon="-1.654161">
        <ele>24.172832</ele>
        <time>2025-06-25T15:51:42.356Z</time>
      </trkpt>
      <trkpt lat="47.688290" lon="-1.653720">
        <ele>24.520394</ele>
        <time>2025-06-25T15:51:48.905Z</time>
      </trkpt>
      <trkpt lat="47.689239" lon="-1.650295">
        <ele>26.656971</ele>
        <time>2025-06-25T15:52:38.831Z</time>
      </trkpt>
      <trkpt lat="47.689570" lon="-1.649260">
        <ele>26.990271</ele>
        <time>2025-06-25T15:52:50.286Z</time>
      </trkpt>
      <trkpt lat="47.691538" lon="-1.644373">
        <ele>22.476980</ele>
        <time>2025-06-25T15:53:35.412Z</time>
      </trkpt>
      <trkpt lat="47.691628" lon="-1.644212">
        <ele>22.321650</ele>
        <time>2025-06-25T15:53:37.119Z</time>
      </trkpt>
      <trkpt lat="47.691855" lon="-1.644009">
        <ele>22.029502</ele>
        <time>2025-06-25T15:53:40.332Z</time>
      </trkpt>
      <trkpt lat="47.692945" lon="-1.643427">
        <ele>20.908768</ele>
        <time>2025-06-25T15:53:54.357Z</time>
      </trkpt>
      <trkpt lat="47.693931" lon="-1.642893">
        <ele>21.027418</ele>
        <time>2025-06-25T15:54:07.796Z</time>
      </trkpt>
      <trkpt lat="47.694362" lon="-1.642644">
        <ele>21.079700</ele>
        <time>2025-06-25T15:54:16.734Z</time>
      </trkpt>
      <trkpt lat="47.694428" lon="-1.642541">
        <ele>21.090522</ele>
        <time>2025-06-25T15:54:18.795Z</time>
      </trkpt>
      <trkpt lat="47.694029" lon="-1.641949">
        <ele>22.508311</ele>
        <time>2025-06-25T15:54:32.509Z</time>
      </trkpt>
      <trkpt lat="47.693853" lon="-1.641616">
        <ele>23.309912</ele>
        <time>2025-06-25T15:54:40.211Z</time>
      </trkpt>
      <trkpt lat="47.693675" lon="-1.641213">
        <ele>24.222514</ele>
        <time>2025-06-25T15:54:49.494Z</time>
      </trkpt>
      <trkpt lat="47.693507" lon="-1.640756">
        <ele>25.208384</ele>
        <time>2025-06-25T15:54:59.634Z</time>
      </trkpt>
      <trkpt lat="47.693442" lon="-1.640567">
        <ele>25.610221</ele>
        <time>2025-06-25T15:55:03.673Z</time>
      </trkpt>
      <trkpt lat="47.692997" lon="-1.639184">
        <ele>28.014423</ele>
        <time>2025-06-25T15:55:30.565Z</time>
      </trkpt>
      <trkpt lat="47.692351" lon="-1.637159">
        <ele>30.273604</ele>
        <time>2025-06-25T15:56:03.084Z</time>
      </trkpt>
      <trkpt lat="47.692251" lon="-1.636702">
        <ele>30.348780</ele>
        <time>2025-06-25T15:56:08.165Z</time>
      </trkpt>
      <trkpt lat="47.692213" lon="-1.636007">
        <ele>30.457863</ele>
        <time>2025-06-25T15:56:14.492Z</time>
      </trkpt>
      <trkpt lat="47.692262" lon="-1.633683">
        <ele>30.468515</ele>
        <time>2025-06-25T15:56:33.837Z</time>
      </trkpt>
      <trkpt lat="47.692244" lon="-1.632979">
        <ele>30.427396</ele>
        <time>2025-06-25T15:56:41.889Z</time>
      </trkpt>
      <trkpt lat="47.692154" lon="-1.632349">
        <ele>30.927400</ele>
        <time>2025-06-25T15:56:50.823Z</time>
      </trkpt>
      <trkpt lat="47.691778" lon="-1.630482">
        <ele>34.085618</ele>
        <time>2025-06-25T15:57:23.947Z</time>
      </trkpt>
      <trkpt lat="47.691337" lon="-1.628224">
        <ele>38.756661</ele>
        <time>2025-06-25T15:58:06.214Z</time>
      </trkpt>
      <trkpt lat="47.691221" lon="-1.627737">
        <ele>39.822133</ele>
        <time>2025-06-25T15:58:16.214Z</time>
      </trkpt>
      <trkpt lat="47.691096" lon="-1.627299">
        <ele>40.672505</ele>
        <time>2025-06-25T15:58:25.770Z</time>
      </trkpt>
      <trkpt lat="47.690300" lon="-1.625235">
        <ele>44.418313</ele>
        <time>2025-06-25T15:59:07.281Z</time>
      </trkpt>
      <trkpt lat="47.690415" lon="-1.625096">
        <ele>44.159609</ele>
        <time>2025-06-25T15:59:10.112Z</time>
      </trkpt>
      <trkpt lat="47.690910" lon="-1.624337">
        <ele>42.544983</ele>
        <time>2025-06-25T15:59:21.302Z</time>
      </trkpt>
      <trkpt lat="47.691295" lon="-1.623989">
        <ele>41.522099</ele>
        <time>2025-06-25T15:59:27.638Z</time>
      </trkpt>
      <trkpt lat="47.691863" lon="-1.623580">
        <ele>40.197257</ele>
        <time>2025-06-25T15:59:36.571Z</time>
      </trkpt>
      <trkpt lat="47.692398" lon="-1.622889">
        <ele>39.194961</ele>
        <time>2025-06-25T15:59:47.194Z</time>
      </trkpt>
      <trkpt lat="47.692481" lon="-1.622706">
        <ele>38.984959</ele>
        <time>2025-06-25T15:59:49.597Z</time>
      </trkpt>
      <trkpt lat="47.692513" lon="-1.622535">
        <ele>38.816051</ele>
        <time>2025-06-25T15:59:51.608Z</time>
      </trkpt>
      <trkpt lat="47.692583" lon="-1.621939">
        <ele>38.240287</ele>
        <time>2025-06-25T15:59:59.255Z</time>
      </trkpt>
      <trkpt lat="47.692584" lon="-1.621223">
        <ele>38.343873</ele>
        <time>2025-06-25T16:00:10.665Z</time>
      </trkpt>
      <trkpt lat="47.692473" lon="-1.620412">
        <ele>39.816983</ele>
        <time>2025-06-25T16:00:26.736Z</time>
      </trkpt>
      <trkpt lat="47.692324" lon="-1.619671">
        <ele>41.193552</ele>
        <time>2025-06-25T16:00:44.389Z</time>
      </trkpt>
      <trkpt lat="47.692244" lon="-1.619513">
        <ele>41.545476</ele>
        <time>2025-06-25T16:00:49.134Z</time>
      </trkpt>
      <trkpt lat="47.691829" lon="-1.618701">
        <ele>43.451761</ele>
        <time>2025-06-25T16:01:13.236Z</time>
      </trkpt>
      <trkpt lat="47.691625" lon="-1.617952">
        <ele>45.060571</ele>
        <time>2025-06-25T16:01:31.342Z</time>
      </trkpt>
      <trkpt lat="47.691363" lon="-1.616764">
        <ele>47.549760</ele>
        <time>2025-06-25T16:01:57.513Z</time>
      </trkpt>
      <trkpt lat="47.691216" lon="-1.616471">
        <ele>48.153437</ele>
        <time>2025-06-25T16:02:04.644Z</time>
      </trkpt>
      <trkpt lat="47.690938" lon="-1.616141">
        <ele>48.851663</ele>
        <time>2025-06-25T16:02:14.582Z</time>
      </trkpt>
      <trkpt lat="47.690812" lon="-1.615873">
        <ele>49.283426</ele>
        <time>2025-06-25T16:02:20.575Z</time>
      </trkpt>
      <trkpt lat="47.690762" lon="-1.615709">
        <ele>49.521217</ele>
        <time>2025-06-25T16:02:23.808Z</time>
      </trkpt>
      <trkpt lat="47.690635" lon="-1.614683">
        <ele>50.899071</ele>
        <time>2025-06-25T16:02:42.950Z</time>
      </trkpt>
      <trkpt lat="47.690624" lon="-1.614392">
        <ele>51.284027</ele>
        <time>2025-06-25T16:02:48.368Z</time>
      </trkpt>
      <trkpt lat="47.690641" lon="-1.614101">
        <ele>51.726061</ele>
        <time>2025-06-25T16:02:53.811Z</time>
      </trkpt>
      <trkpt lat="47.690956" lon="-1.610792">
        <ele>57.006699</ele>
        <time>2025-06-25T16:04:02.309Z</time>
      </trkpt>
      <trkpt lat="47.691013" lon="-1.610092">
        <ele>57.992297</ele>
        <time>2025-06-25T16:04:16.382Z</time>
      </trkpt>
      <trkpt lat="47.691025" lon="-1.609373">
        <ele>58.997628</ele>
        <time>2025-06-25T16:04:30.028Z</time>
      </trkpt>
      <trkpt lat="47.690905" lon="-1.607489">
        <ele>59.931781</ele>
        <time>2025-06-25T16:05:01.236Z</time>
      </trkpt>
      <trkpt lat="47.690518" lon="-1.604005">
        <ele>58.450692</ele>
        <time>2025-06-25T16:05:44.568Z</time>
      </trkpt>
      <trkpt lat="47.690461" lon="-1.603501">
        <ele>57.735634</ele>
        <time>2025-06-25T16:05:49.732Z</time>
      </trkpt>
      <trkpt lat="47.690230" lon="-1.602365">
        <ele>54.761630</ele>
        <time>2025-06-25T16:06:00.946Z</time>
      </trkpt>
      <trkpt lat="47.690164" lon="-1.601930">
        <ele>53.644120</ele>
        <time>2025-06-25T16:06:05.051Z</time>
      </trkpt>
      <trkpt lat="47.690153" lon="-1.601678">
        <ele>53.011252</ele>
        <time>2025-06-25T16:06:07.393Z</time>
      </trkpt>
      <trkpt lat="47.690252" lon="-1.600731">
        <ele>51.052017</ele>
        <time>2025-06-25T16:06:16.316Z</time>
      </trkpt>
      <trkpt lat="47.690209" lon="-1.599041">
        <ele>48.896650</ele>
        <time>2025-06-25T16:06:33.725Z</time>
      </trkpt>
      <trkpt lat="47.690228" lon="-1.598135">
        <ele>48.561035</ele>
        <time>2025-06-25T16:06:47.068Z</time>
      </trkpt>
      <trkpt lat="47.690206" lon="-1.597866">
        <ele>48.995240</ele>
        <time>2025-06-25T16:06:52.065Z</time>
      </trkpt>
      <trkpt lat="47.690037" lon="-1.597138">
        <ele>50.229183</ele>
        <time>2025-06-25T16:07:08.740Z</time>
      </trkpt>
      <trkpt lat="47.689610" lon="-1.595618">
        <ele>52.482242</ele>
        <time>2025-06-25T16:07:46.168Z</time>
      </trkpt>
      <trkpt lat="47.689577" lon="-1.595406">
        <ele>52.551763</ele>
        <time>2025-06-25T16:07:50.380Z</time>
      </trkpt>
      <trkpt lat="47.689593" lon="-1.595215">
        <ele>52.613257</ele>
        <time>2025-06-25T16:07:53.887Z</time>
      </trkpt>
      <trkpt lat="47.689633" lon="-1.595155">
        <ele>52.640237</ele>
        <time>2025-06-25T16:07:55.334Z</time>
      </trkpt>
      <trkpt lat="47.689770" lon="-1.595084">
        <ele>52.709105</ele>
        <time>2025-06-25T16:07:58.913Z</time>
      </trkpt>
      <trkpt lat="47.690601" lon="-1.595049">
        <ele>53.103683</ele>
        <time>2025-06-25T16:08:14.601Z</time>
      </trkpt>
      <trkpt lat="47.690911" lon="-1.594920">
        <ele>53.203910</ele>
        <time>2025-06-25T16:08:19.814Z</time>
      </trkpt>
      <trkpt lat="47.691974" lon="-1.594327">
        <ele>52.047480</ele>
        <time>2025-06-25T16:08:38.931Z</time>
      </trkpt>
      <trkpt lat="47.692099" lon="-1.594233">
        <ele>51.904792</ele>
        <time>2025-06-25T16:08:41.427Z</time>
      </trkpt>
      <trkpt lat="47.692223" lon="-1.594039">
        <ele>51.721390</ele>
        <time>2025-06-25T16:08:44.655Z</time>
      </trkpt>
      <trkpt lat="47.692451" lon="-1.593559">
        <ele>51.356279</ele>
        <time>2025-06-25T16:08:51.870Z</time>
      </trkpt>
      <trkpt lat="47.692529" lon="-1.593330">
        <ele>51.254489</ele>
        <time>2025-06-25T16:08:55.055Z</time>
      </trkpt>
      <trkpt lat="47.692591" lon="-1.593026">
        <ele>51.128507</ele>
        <time>2025-06-25T16:08:59.034Z</time>
      </trkpt>
      <trkpt lat="47.692707" lon="-1.591887">
        <ele>50.671629</ele>
        <time>2025-06-25T16:09:13.349Z</time>
      </trkpt>
      <trkpt lat="47.692861" lon="-1.590495">
        <ele>50.108934</ele>
        <time>2025-06-25T16:09:30.528Z</time>
      </trkpt>
      <trkpt lat="47.692988" lon="-1.589361">
        <ele>49.646799</ele>
        <time>2025-06-25T16:09:44.670Z</time>
      </trkpt>
      <trkpt lat="47.696788" lon="-1.589385">
        <ele>48.188610</ele>
        <time>2025-06-25T16:10:34.666Z</time>
      </trkpt>
      <trkpt lat="47.697014" lon="-1.587307">
        <ele>48.988711</ele>
        <time>2025-06-25T16:11:01.829Z</time>
      </trkpt>
      <trkpt lat="47.697010" lon="-1.586840">
        <ele>49.254605</ele>
        <time>2025-06-25T16:11:08.003Z</time>
      </trkpt>
      <trkpt lat="47.696966" lon="-1.586555">
        <ele>49.421076</ele>
        <time>2025-06-25T16:11:11.766Z</time>
      </trkpt>
      <trkpt lat="47.696399" lon="-1.584634">
        <ele>49.421769</ele>
        <time>2025-06-25T16:11:34.059Z</time>
      </trkpt>
      <trkpt lat="47.696093" lon="-1.583622">
        <ele>49.184817</ele>
        <time>2025-06-25T16:11:43.311Z</time>
      </trkpt>
      <trkpt lat="47.696059" lon="-1.583338">
        <ele>48.933708</ele>
        <time>2025-06-25T16:11:45.586Z</time>
      </trkpt>
      <trkpt lat="47.696095" lon="-1.582875">
        <ele>48.527976</ele>
        <time>2025-06-25T16:11:49.169Z</time>
      </trkpt>
      <trkpt lat="47.696504" lon="-1.581279">
        <ele>47.041331</ele>
        <time>2025-06-25T16:12:02.573Z</time>
      </trkpt>
      <trkpt lat="47.697249" lon="-1.578674">
        <ele>44.212574</ele>
        <time>2025-06-25T16:12:25.214Z</time>
      </trkpt>
      <trkpt lat="47.697823" lon="-1.576593">
        <ele>40.073953</ele>
        <time>2025-06-25T16:12:40.464Z</time>
      </trkpt>
      <trkpt lat="47.698024" lon="-1.575907">
        <ele>39.400274</ele>
        <time>2025-06-25T16:12:45.728Z</time>
      </trkpt>
      <trkpt lat="47.698509" lon="-1.574140">
        <ele>39.484833</ele>
        <time>2025-06-25T16:13:04.675Z</time>
      </trkpt>
      <trkpt lat="47.698608" lon="-1.573712">
        <ele>39.663620</ele>
        <time>2025-06-25T16:13:12.509Z</time>
      </trkpt>
      <trkpt lat="47.698659" lon="-1.573367">
        <ele>40.590328</ele>
        <time>2025-06-25T16:13:19.086Z</time>
      </trkpt>
      <trkpt lat="47.698680" lon="-1.573045">
        <ele>41.439074</ele>
        <time>2025-06-25T16:13:25.439Z</time>
      </trkpt>
      <trkpt lat="47.698641" lon="-1.571686">
        <ele>45.007744</ele>
        <time>2025-06-25T16:13:55.360Z</time>
      </trkpt>
      <trkpt lat="47.698453" lon="-1.566285">
        <ele>60.871780</ele>
        <time>2025-06-25T16:15:56.815Z</time>
      </trkpt>
      <trkpt lat="47.698438" lon="-1.564010">
        <ele>65.355091</ele>
        <time>2025-06-25T16:16:35.228Z</time>
      </trkpt>
      <trkpt lat="47.698468" lon="-1.562725">
        <ele>67.141272</ele>
        <time>2025-06-25T16:16:56.536Z</time>
      </trkpt>
      <trkpt lat="47.698526" lon="-1.562188">
        <ele>67.446082</ele>
        <time>2025-06-25T16:17:04.842Z</time>
      </trkpt>
      <trkpt lat="47.698703" lon="-1.561310">
        <ele>67.959751</ele>
        <time>2025-06-25T16:17:20.083Z</time>
      </trkpt>
      <trkpt lat="47.699677" lon="-1.558474">
        <ele>67.074821</ele>
        <time>2025-06-25T16:17:57.081Z</time>
      </trkpt>
      <trkpt lat="47.699910" lon="-1.557712">
        <ele>67.036413</ele>
        <time>2025-06-25T16:18:07.741Z</time>
      </trkpt>
      <trkpt lat="47.699926" lon="-1.557661">
        <ele>67.052545</ele>
        <time>2025-06-25T16:18:08.543Z</time>
      </trkpt>
      <trkpt lat="47.700118" lon="-1.556682">
        <ele>67.344897</ele>
        <time>2025-06-25T16:18:23.933Z</time>
      </trkpt>
      <trkpt lat="47.700201" lon="-1.555848">
        <ele>67.586604</ele>
        <time>2025-06-25T16:18:37.991Z</time>
      </trkpt>
      <trkpt lat="47.699832" lon="-1.551935">
        <ele>69.273132</ele>
        <time>2025-06-25T16:19:38.925Z</time>
      </trkpt>
      <trkpt lat="47.699680" lon="-1.550078">
        <ele>69.791138</ele>
        <time>2025-06-25T16:20:06.721Z</time>
      </trkpt>
      <trkpt lat="47.699593" lon="-1.548583">
        <ele>69.600772</ele>
        <time>2025-06-25T16:20:26.326Z</time>
      </trkpt>
      <trkpt lat="47.699481" lon="-1.547543">
        <ele>69.453411</ele>
        <time>2025-06-25T16:20:39.389Z</time>
      </trkpt>
      <trkpt lat="47.699075" lon="-1.544406">
        <ele>68.684518</ele>
        <time>2025-06-25T16:21:20.192Z</time>
      </trkpt>
      <trkpt lat="47.699013" lon="-1.544131">
        <ele>68.616837</ele>
        <time>2025-06-25T16:21:23.880Z</time>
      </trkpt>
      <trkpt lat="47.698704" lon="-1.543131">
        <ele>68.360047</ele>
        <time>2025-06-25T16:21:38.030Z</time>
      </trkpt>
      <trkpt lat="47.698676" lon="-1.542984">
        <ele>68.324394</ele>
        <time>2025-06-25T16:21:40.017Z</time>
      </trkpt>
      <trkpt lat="47.698826" lon="-1.539759">
        <ele>67.201546</ele>
        <time>2025-06-25T16:22:21.539Z</time>
      </trkpt>
      <trkpt lat="47.698944" lon="-1.539430">
        <ele>66.595033</ele>
        <time>2025-06-25T16:22:24.421Z</time>
      </trkpt>
      <trkpt lat="47.699130" lon="-1.539084">
        <ele>65.874601</ele>
        <time>2025-06-25T16:22:27.676Z</time>
      </trkpt>
      <trkpt lat="47.699245" lon="-1.538919">
        <ele>65.488159</ele>
        <time>2025-06-25T16:22:29.362Z</time>
      </trkpt>
      <trkpt lat="47.699359" lon="-1.538798">
        <ele>65.149497</ele>
        <time>2025-06-25T16:22:30.811Z</time>
      </trkpt>
      <trkpt lat="47.699635" lon="-1.538621">
        <ele>64.422831</ele>
        <time>2025-06-25T16:22:33.870Z</time>
      </trkpt>
      <trkpt lat="47.699760" lon="-1.538492">
        <ele>64.054936</ele>
        <time>2025-06-25T16:22:35.411Z</time>
      </trkpt>
      <trkpt lat="47.699869" lon="-1.538289">
        <ele>63.632451</ele>
        <time>2025-06-25T16:22:37.168Z</time>
      </trkpt>
      <trkpt lat="47.699977" lon="-1.537785">
        <ele>62.736760</ele>
        <time>2025-06-25T16:22:40.757Z</time>
      </trkpt>
      <trkpt lat="47.699878" lon="-1.534626">
        <ele>57.144257</ele>
        <time>2025-06-25T16:23:02.752Z</time>
      </trkpt>
      <trkpt lat="47.699432" lon="-1.532790">
        <ele>54.887754</ele>
        <time>2025-06-25T16:23:18.054Z</time>
      </trkpt>
      <trkpt lat="47.698884" lon="-1.530738">
        <ele>54.185364</ele>
        <time>2025-06-25T16:23:36.734Z</time>
      </trkpt>
      <trkpt lat="47.698093" lon="-1.527915">
        <ele>55.578035</ele>
        <time>2025-06-25T16:24:15.715Z</time>
      </trkpt>
      <trkpt lat="47.697978" lon="-1.527421">
        <ele>55.778252</ele>
        <time>2025-06-25T16:24:22.265Z</time>
      </trkpt>
      <trkpt lat="47.697978" lon="-1.527121">
        <ele>55.852523</ele>
        <time>2025-06-25T16:24:25.883Z</time>
      </trkpt>
      <trkpt lat="47.698021" lon="-1.526820">
        <ele>55.928701</ele>
        <time>2025-06-25T16:24:29.470Z</time>
      </trkpt>
      <trkpt lat="47.698731" lon="-1.525110">
        <ele>56.159144</ele>
        <time>2025-06-25T16:24:50.419Z</time>
      </trkpt>
      <trkpt lat="47.699306" lon="-1.523816">
        <ele>55.059854</ele>
        <time>2025-06-25T16:25:03.777Z</time>
      </trkpt>
      <trkpt lat="47.699422" lon="-1.523473">
        <ele>54.787712</ele>
        <time>2025-06-25T16:25:06.708Z</time>
      </trkpt>
      <trkpt lat="47.699480" lon="-1.523087">
        <ele>54.507324</ele>
        <time>2025-06-25T16:25:09.630Z</time>
      </trkpt>
      <trkpt lat="47.699509" lon="-1.522679">
        <ele>53.797934</ele>
        <time>2025-06-25T16:25:12.568Z</time>
      </trkpt>
      <trkpt lat="47.699497" lon="-1.519111">
        <ele>47.277486</ele>
        <time>2025-06-25T16:25:37.106Z</time>
      </trkpt>
      <trkpt lat="47.699536" lon="-1.517221">
        <ele>44.258441</ele>
        <time>2025-06-25T16:25:51.074Z</time>
      </trkpt>
      <trkpt lat="47.699568" lon="-1.515492">
        <ele>41.850837</ele>
        <time>2025-06-25T16:26:03.850Z</time>
      </trkpt>
      <trkpt lat="47.699531" lon="-1.515081">
        <ele>41.273647</ele>
        <time>2025-06-25T16:26:06.885Z</time>
      </trkpt>
      <trkpt lat="47.699428" lon="-1.514472">
        <ele>40.554614</ele>
        <time>2025-06-25T16:26:11.461Z</time>
      </trkpt>
      <trkpt lat="47.699412" lon="-1.513983">
        <ele>40.008540</ele>
        <time>2025-06-25T16:26:14.988Z</time>
      </trkpt>
      <trkpt lat="47.699421" lon="-1.513846">
        <ele>39.855005</ele>
        <time>2025-06-25T16:26:15.976Z</time>
      </trkpt>
      <trkpt lat="47.699464" lon="-1.513493">
        <ele>39.454872</ele>
        <time>2025-06-25T16:26:18.549Z</time>
      </trkpt>
      <trkpt lat="47.699754" lon="-1.511977">
        <ele>39.091461</ele>
        <time>2025-06-25T16:26:31.116Z</time>
      </trkpt>
      <trkpt lat="47.699800" lon="-1.511621">
        <ele>39.810332</ele>
        <time>2025-06-25T16:26:35.790Z</time>
      </trkpt>
      <trkpt lat="47.699817" lon="-1.511465">
        <ele>40.123721</ele>
        <time>2025-06-25T16:26:38.129Z</time>
      </trkpt>
      <trkpt lat="47.699873" lon="-1.510749">
        <ele>41.553161</ele>
        <time>2025-06-25T16:26:51.510Z</time>
      </trkpt>
      <trkpt lat="47.699792" lon="-1.509891">
        <ele>43.271301</ele>
        <time>2025-06-25T16:27:12.726Z</time>
      </trkpt>
      <trkpt lat="47.699647" lon="-1.509269">
        <ele>45.459750</ele>
        <time>2025-06-25T16:27:31.376Z</time>
      </trkpt>
      <trkpt lat="47.699481" lon="-1.508727">
        <ele>47.608086</ele>
        <time>2025-06-25T16:27:48.267Z</time>
      </trkpt>
      <trkpt lat="47.699427" lon="-1.508494">
        <ele>48.497130</ele>
        <time>2025-06-25T16:27:54.920Z</time>
      </trkpt>
      <trkpt lat="47.699402" lon="-1.508261">
        <ele>49.348346</ele>
        <time>2025-06-25T16:28:01.033Z</time>
      </trkpt>
      <trkpt lat="47.699404" lon="-1.507223">
        <ele>53.093184</ele>
        <time>2025-06-25T16:28:24.964Z</time>
      </trkpt>
      <trkpt lat="47.699156" lon="-1.504095">
        <ele>56.454127</ele>
        <time>2025-06-25T16:29:11.801Z</time>
      </trkpt>
      <trkpt lat="47.699243" lon="-1.502188">
        <ele>55.059209</ele>
        <time>2025-06-25T16:29:26.416Z</time>
      </trkpt>
      <trkpt lat="47.699247" lon="-1.501662">
        <ele>54.355828</ele>
        <time>2025-06-25T16:29:30.106Z</time>
      </trkpt>
      <trkpt lat="47.698940" lon="-1.500364">
        <ele>51.432123</ele>
        <time>2025-06-25T16:29:39.553Z</time>
      </trkpt>
      <trkpt lat="47.698781" lon="-1.499822">
        <ele>50.175673</ele>
        <time>2025-06-25T16:29:43.531Z</time>
      </trkpt>
      <trkpt lat="47.698724" lon="-1.499547">
        <ele>49.564190</ele>
        <time>2025-06-25T16:29:45.454Z</time>
      </trkpt>
      <trkpt lat="47.698721" lon="-1.499228">
        <ele>48.893079</ele>
        <time>2025-06-25T16:29:47.569Z</time>
      </trkpt>
      <trkpt lat="47.698778" lon="-1.498958">
        <ele>48.306628</ele>
        <time>2025-06-25T16:29:49.439Z</time>
      </trkpt>
      <trkpt lat="47.699228" lon="-1.497670">
        <ele>45.299048</ele>
        <time>2025-06-25T16:29:59.125Z</time>
      </trkpt>
      <trkpt lat="47.699348" lon="-1.497408">
        <ele>44.642256</ele>
        <time>2025-06-25T16:30:01.341Z</time>
      </trkpt>
      <trkpt lat="47.699499" lon="-1.497194">
        <ele>43.999682</ele>
        <time>2025-06-25T16:30:03.591Z</time>
      </trkpt>
      <trkpt lat="47.699731" lon="-1.496988">
        <ele>43.603001</ele>
        <time>2025-06-25T16:30:06.625Z</time>
      </trkpt>
      <trkpt lat="47.699969" lon="-1.496828">
        <ele>43.564987</ele>
        <time>2025-06-25T16:30:09.759Z</time>
      </trkpt>
      <trkpt lat="47.701473" lon="-1.496027">
        <ele>43.586191</ele>
        <time>2025-06-25T16:30:36.196Z</time>
      </trkpt>
      <trkpt lat="47.701914" lon="-1.495750">
        <ele>44.098425</ele>
        <time>2025-06-25T16:30:44.789Z</time>
      </trkpt>
      <trkpt lat="47.702080" lon="-1.495567">
        <ele>44.319563</ele>
        <time>2025-06-25T16:30:48.576Z</time>
      </trkpt>
      <trkpt lat="47.702449" lon="-1.495021">
        <ele>44.876695</ele>
        <time>2025-06-25T16:30:58.867Z</time>
      </trkpt>
      <trkpt lat="47.702593" lon="-1.494882">
        <ele>45.060408</ele>
        <time>2025-06-25T16:31:02.492Z</time>
      </trkpt>
      <trkpt lat="47.702781" lon="-1.494764">
        <ele>45.278751</ele>
        <time>2025-06-25T16:31:06.859Z</time>
      </trkpt>
      <trkpt lat="47.703012" lon="-1.494710">
        <ele>45.540174</ele>
        <time>2025-06-25T16:31:11.991Z</time>
      </trkpt>
      <trkpt lat="47.703561" lon="-1.494689">
        <ele>46.155052</ele>
        <time>2025-06-25T16:31:24.224Z</time>
      </trkpt>
      <trkpt lat="47.703951" lon="-1.494399">
        <ele>46.643326</ele>
        <time>2025-06-25T16:31:33.127Z</time>
      </trkpt>
      <trkpt lat="47.704138" lon="-1.494174">
        <ele>46.912726</ele>
        <time>2025-06-25T16:31:37.519Z</time>
      </trkpt>
      <trkpt lat="47.704261" lon="-1.493938">
        <ele>47.137635</ele>
        <time>2025-06-25T16:31:40.840Z</time>
      </trkpt>
      <trkpt lat="47.704339" lon="-1.493626">
        <ele>47.283763</ele>
        <time>2025-06-25T16:31:44.131Z</time>
      </trkpt>
      <trkpt lat="47.704391" lon="-1.493283">
        <ele>47.231584</ele>
        <time>2025-06-25T16:31:47.296Z</time>
      </trkpt>
      <trkpt lat="47.704413" lon="-1.492929">
        <ele>47.178824</ele>
        <time>2025-06-25T16:31:50.267Z</time>
      </trkpt>
      <trkpt lat="47.704196" lon="-1.490895">
        <ele>47.274023</ele>
        <time>2025-06-25T16:32:08.596Z</time>
      </trkpt>
      <trkpt lat="47.704639" lon="-1.490923">
        <ele>48.435113</ele>
        <time>2025-06-25T16:32:20.106Z</time>
      </trkpt>
      <trkpt lat="47.704794" lon="-1.490415">
        <ele>49.418025</ele>
        <time>2025-06-25T16:32:31.574Z</time>
      </trkpt>
      <trkpt lat="47.704841" lon="-1.490138">
        <ele>49.921429</ele>
        <time>2025-06-25T16:32:38.054Z</time>
      </trkpt>
      <trkpt lat="47.704966" lon="-1.489742">
        <ele>50.692210</ele>
        <time>2025-06-25T16:32:48.660Z</time>
      </trkpt>
      <trkpt lat="47.704969" lon="-1.489738">
        <ele>50.702764</ele>
        <time>2025-06-25T16:32:48.826Z</time>
      </trkpt>
      <trkpt lat="47.705020" lon="-1.489681">
        <ele>50.869870</ele>
        <time>2025-06-25T16:32:51.190Z</time>
      </trkpt>
      <trkpt lat="47.705145" lon="-1.489625">
        <ele>51.211748</ele>
        <time>2025-06-25T16:32:56.088Z</time>
      </trkpt>
      <trkpt lat="47.705146" lon="-1.489398">
        <ele>51.611771</ele>
        <time>2025-06-25T16:33:01.936Z</time>
      </trkpt>
      <trkpt lat="47.705235" lon="-1.488962">
        <ele>53.157226</ele>
        <time>2025-06-25T16:33:13.884Z</time>
      </trkpt>
      <trkpt lat="47.705348" lon="-1.488634">
        <ele>54.408991</ele>
        <time>2025-06-25T16:33:23.783Z</time>
      </trkpt>
      <trkpt lat="47.705619" lon="-1.488075">
        <ele>56.749399</ele>
        <time>2025-06-25T16:33:42.834Z</time>
      </trkpt>
      <trkpt lat="47.705657" lon="-1.487861">
        <ele>57.501249</ele>
        <time>2025-06-25T16:33:48.989Z</time>
      </trkpt>
      <trkpt lat="47.705654" lon="-1.487683">
        <ele>58.106112</ele>
        <time>2025-06-25T16:33:53.938Z</time>
      </trkpt>
      <trkpt lat="47.705892" lon="-1.487555">
        <ele>59.383815</ele>
        <time>2025-06-25T16:34:03.055Z</time>
      </trkpt>
      <trkpt lat="47.706148" lon="-1.487352">
        <ele>60.858357</ele>
        <time>2025-06-25T16:34:13.569Z</time>
      </trkpt>
      <trkpt lat="47.707783" lon="-1.485880">
        <ele>70.821227</ele>
        <time>2025-06-25T16:35:23.605Z</time>
      </trkpt>
      <trkpt lat="47.708276" lon="-1.485516">
        <ele>72.640784</ele>
        <time>2025-06-25T16:35:41.908Z</time>
      </trkpt>
      <trkpt lat="47.708904" lon="-1.485025">
        <ele>74.986266</ele>
        <time>2025-06-25T16:36:01.988Z</time>
      </trkpt>
      <trkpt lat="47.710305" lon="-1.483275">
        <ele>76.068640</ele>
        <time>2025-06-25T16:36:34.288Z</time>
      </trkpt>
      <trkpt lat="47.710501" lon="-1.483032">
        <ele>76.029003</ele>
        <time>2025-06-25T16:36:37.062Z</time>
      </trkpt>
      <trkpt lat="47.710703" lon="-1.482848">
        <ele>75.469662</ele>
        <time>2025-06-25T16:36:39.486Z</time>
      </trkpt>
      <trkpt lat="47.710886" lon="-1.482762">
        <ele>74.661055</ele>
        <time>2025-06-25T16:36:41.376Z</time>
      </trkpt>
      <trkpt lat="47.711055" lon="-1.482733">
        <ele>73.944327</ele>
        <time>2025-06-25T16:36:43.021Z</time>
      </trkpt>
      <trkpt lat="47.712047" lon="-1.482841">
        <ele>69.753829</ele>
        <time>2025-06-25T16:36:52.306Z</time>
      </trkpt>
      <trkpt lat="47.712367" lon="-1.482848">
        <ele>68.415921</ele>
        <time>2025-06-25T16:36:55.307Z</time>
      </trkpt>
      <trkpt lat="47.714613" lon="-1.482433">
        <ele>64.246678</ele>
        <time>2025-06-25T16:37:19.286Z</time>
      </trkpt>
      <trkpt lat="47.714708" lon="-1.482373">
        <ele>64.393853</ele>
        <time>2025-06-25T16:37:21.299Z</time>
      </trkpt>
      <trkpt lat="47.714748" lon="-1.482312">
        <ele>64.475568</ele>
        <time>2025-06-25T16:37:22.560Z</time>
      </trkpt>
      <trkpt lat="47.714668" lon="-1.482251">
        <ele>64.603769</ele>
        <time>2025-06-25T16:37:24.596Z</time>
      </trkpt>
      <trkpt lat="47.714534" lon="-1.482078">
        <ele>64.856846</ele>
        <time>2025-06-25T16:37:28.965Z</time>
      </trkpt>
      <trkpt lat="47.714392" lon="-1.481831">
        <ele>65.168520</ele>
        <time>2025-06-25T16:37:34.805Z</time>
      </trkpt>
      <trkpt lat="47.714302" lon="-1.481614">
        <ele>65.413068</ele>
        <time>2025-06-25T16:37:39.666Z</time>
      </trkpt>
      <trkpt lat="47.714194" lon="-1.481109">
        <ele>65.921417</ele>
        <time>2025-06-25T16:37:50.691Z</time>
      </trkpt>
      <trkpt lat="47.714171" lon="-1.480789">
        <ele>66.290468</ele>
        <time>2025-06-25T16:37:57.785Z</time>
      </trkpt>
      <trkpt lat="47.714187" lon="-1.478142">
        <ele>70.365133</ele>
        <time>2025-06-25T16:38:42.605Z</time>
      </trkpt>
      <trkpt lat="47.714199" lon="-1.474546">
        <ele>69.368621</ele>
        <time>2025-06-25T16:39:11.212Z</time>
      </trkpt>
      <trkpt lat="47.714225" lon="-1.468877">
        <ele>73.143225</ele>
        <time>2025-06-25T16:40:29.656Z</time>
      </trkpt>
      <trkpt lat="47.714225" lon="-1.468459">
        <ele>73.371703</ele>
        <time>2025-06-25T16:40:34.735Z</time>
      </trkpt>
      <trkpt lat="47.714132" lon="-1.462126">
        <ele>73.876423</ele>
        <time>2025-06-25T16:41:37.719Z</time>
      </trkpt>
      <trkpt lat="47.714098" lon="-1.461245">
        <ele>74.029124</ele>
        <time>2025-06-25T16:41:46.193Z</time>
      </trkpt>
      <trkpt lat="47.714045" lon="-1.460635">
        <ele>74.135556</ele>
        <time>2025-06-25T16:41:52.362Z</time>
      </trkpt>
      <trkpt lat="47.713337" lon="-1.454298">
        <ele>77.021475</ele>
        <time>2025-06-25T16:43:08.690Z</time>
      </trkpt>
      <trkpt lat="47.712753" lon="-1.449345">
        <ele>82.067282</ele>
        <time>2025-06-25T16:44:20.518Z</time>
      </trkpt>
      <trkpt lat="47.712455" lon="-1.447926">
        <ele>82.763320</ele>
        <time>2025-06-25T16:44:39.291Z</time>
      </trkpt>
      <trkpt lat="47.712123" lon="-1.446520">
        <ele>83.202762</ele>
        <time>2025-06-25T16:44:54.658Z</time>
      </trkpt>
      <trkpt lat="47.711866" lon="-1.445236">
        <ele>82.782619</ele>
        <time>2025-06-25T16:45:06.549Z</time>
      </trkpt>
      <trkpt lat="47.710774" lon="-1.438474">
        <ele>80.790673</ele>
        <time>2025-06-25T16:46:07.922Z</time>
      </trkpt>
      <trkpt lat="47.710681" lon="-1.437866">
        <ele>81.309623</ele>
        <time>2025-06-25T16:46:15.522Z</time>
      </trkpt>
      <trkpt lat="47.710533" lon="-1.436584">
        <ele>82.392228</ele>
        <time>2025-06-25T16:46:34.614Z</time>
      </trkpt>
      <trkpt lat="47.710431" lon="-1.435789">
        <ele>83.093005</ele>
        <time>2025-06-25T16:46:47.026Z</time>
      </trkpt>
      <trkpt lat="47.710073" lon="-1.432434">
        <ele>85.635755</ele>
        <time>2025-06-25T16:47:32.727Z</time>
      </trkpt>
      <trkpt lat="47.709906" lon="-1.431089">
        <ele>86.047662</ele>
        <time>2025-06-25T16:47:47.060Z</time>
      </trkpt>
      <trkpt lat="47.709444" lon="-1.428064">
        <ele>85.068457</ele>
        <time>2025-06-25T16:48:13.903Z</time>
      </trkpt>
      <trkpt lat="47.709413" lon="-1.427875">
        <ele>85.020240</ele>
        <time>2025-06-25T16:48:15.585Z</time>
      </trkpt>
      <trkpt lat="47.708907" lon="-1.424416">
        <ele>84.510306</ele>
        <time>2025-06-25T16:48:48.460Z</time>
      </trkpt>
      <trkpt lat="47.708841" lon="-1.423432">
        <ele>84.573705</ele>
        <time>2025-06-25T16:48:59.035Z</time>
      </trkpt>
      <trkpt lat="47.708832" lon="-1.422034">
        <ele>84.997938</ele>
        <time>2025-06-25T16:49:15.089Z</time>
      </trkpt>
      <trkpt lat="47.708807" lon="-1.416572">
        <ele>87.768213</ele>
        <time>2025-06-25T16:50:20.428Z</time>
      </trkpt>
      <trkpt lat="47.708802" lon="-1.415247">
        <ele>88.637410</ele>
        <time>2025-06-25T16:50:37.683Z</time>
      </trkpt>
      <trkpt lat="47.708805" lon="-1.413541">
        <ele>89.413722</ele>
        <time>2025-06-25T16:50:59.751Z</time>
      </trkpt>
      <trkpt lat="47.708838" lon="-1.413197">
        <ele>89.554459</ele>
        <time>2025-06-25T16:51:03.898Z</time>
      </trkpt>
      <trkpt lat="47.708902" lon="-1.412861">
        <ele>89.695895</ele>
        <time>2025-06-25T16:51:07.813Z</time>
      </trkpt>
      <trkpt lat="47.709190" lon="-1.411920">
        <ele>89.546628</ele>
        <time>2025-06-25T16:51:17.995Z</time>
      </trkpt>
      <trkpt lat="47.712616" lon="-1.401369">
        <ele>77.709402</ele>
        <time>2025-06-25T16:52:49.016Z</time>
      </trkpt>
      <trkpt lat="47.712804" lon="-1.400606">
        <ele>76.460755</ele>
        <time>2025-06-25T16:52:54.744Z</time>
      </trkpt>
      <trkpt lat="47.712972" lon="-1.399274">
        <ele>72.603698</ele>
        <time>2025-06-25T16:53:03.669Z</time>
      </trkpt>
      <trkpt lat="47.713099" lon="-1.398708">
        <ele>70.561734</ele>
        <time>2025-06-25T16:53:07.423Z</time>
      </trkpt>
      <trkpt lat="47.713174" lon="-1.398494">
        <ele>69.735938</ele>
        <time>2025-06-25T16:53:08.922Z</time>
      </trkpt>
      <trkpt lat="47.713267" lon="-1.398267">
        <ele>68.826364</ele>
        <time>2025-06-25T16:53:10.557Z</time>
      </trkpt>
      <trkpt lat="47.713983" lon="-1.396945">
        <ele>63.261847</ele>
        <time>2025-06-25T16:53:20.984Z</time>
      </trkpt>
      <trkpt lat="47.714388" lon="-1.396259">
        <ele>60.346467</ele>
        <time>2025-06-25T16:53:26.817Z</time>
      </trkpt>
      <trkpt lat="47.714601" lon="-1.395813">
        <ele>58.599340</ele>
        <time>2025-06-25T16:53:30.517Z</time>
      </trkpt>
      <trkpt lat="47.714922" lon="-1.394901">
        <ele>57.012657</ele>
        <time>2025-06-25T16:53:37.947Z</time>
      </trkpt>
      <trkpt lat="47.715188" lon="-1.394037">
        <ele>55.805540</ele>
        <time>2025-06-25T16:53:45.146Z</time>
      </trkpt>
      <trkpt lat="47.715334" lon="-1.393561">
        <ele>55.140939</ele>
        <time>2025-06-25T16:53:49.291Z</time>
      </trkpt>
      <trkpt lat="47.715557" lon="-1.392840">
        <ele>54.460776</ele>
        <time>2025-06-25T16:53:55.729Z</time>
      </trkpt>
      <trkpt lat="47.715683" lon="-1.392459">
        <ele>54.212884</ele>
        <time>2025-06-25T16:53:59.215Z</time>
      </trkpt>
      <trkpt lat="47.715713" lon="-1.392049">
        <ele>53.972069</ele>
        <time>2025-06-25T16:54:02.633Z</time>
      </trkpt>
      <trkpt lat="47.715697" lon="-1.391969">
        <ele>53.923336</ele>
        <time>2025-06-25T16:54:03.341Z</time>
      </trkpt>
      <trkpt lat="47.715734" lon="-1.391798">
        <ele>53.818451</ele>
        <time>2025-06-25T16:54:04.870Z</time>
      </trkpt>
      <trkpt lat="47.715855" lon="-1.391726">
        <ele>53.705336</ele>
        <time>2025-06-25T16:54:06.505Z</time>
      </trkpt>
      <trkpt lat="47.715935" lon="-1.391588">
        <ele>53.598971</ele>
        <time>2025-06-25T16:54:08.071Z</time>
      </trkpt>
      <trkpt lat="47.715970" lon="-1.391527">
        <ele>53.552160</ele>
        <time>2025-06-25T16:54:08.777Z</time>
      </trkpt>
      <trkpt lat="47.716166" lon="-1.390937">
        <ele>53.179038</ele>
        <time>2025-06-25T16:54:14.451Z</time>
      </trkpt>
      <trkpt lat="47.716248" lon="-1.390752">
        <ele>53.182584</ele>
        <time>2025-06-25T16:54:16.369Z</time>
      </trkpt>
      <trkpt lat="47.716573" lon="-1.390012">
        <ele>53.196731</ele>
        <time>2025-06-25T16:54:24.403Z</time>
      </trkpt>
      <trkpt lat="47.716709" lon="-1.389622">
        <ele>53.203764</ele>
        <time>2025-06-25T16:54:28.899Z</time>
      </trkpt>
      <trkpt lat="47.716855" lon="-1.388835">
        <ele>53.216832</ele>
        <time>2025-06-25T16:54:37.873Z</time>
      </trkpt>
      <trkpt lat="47.716859" lon="-1.388667">
        <ele>53.219524</ele>
        <time>2025-06-25T16:54:39.819Z</time>
      </trkpt>
      <trkpt lat="47.716853" lon="-1.388446">
        <ele>53.283801</ele>
        <time>2025-06-25T16:54:42.412Z</time>
      </trkpt>
      <trkpt lat="47.716834" lon="-1.388289">
        <ele>53.388036</ele>
        <time>2025-06-25T16:54:44.323Z</time>
      </trkpt>
      <trkpt lat="47.716802" lon="-1.388229">
        <ele>53.438066</ele>
        <time>2025-06-25T16:54:45.247Z</time>
      </trkpt>
      <trkpt lat="47.716785" lon="-1.388092">
        <ele>53.529096</ele>
        <time>2025-06-25T16:54:46.949Z</time>
      </trkpt>
      <trkpt lat="47.716822" lon="-1.387972">
        <ele>53.615350</ele>
        <time>2025-06-25T16:54:48.572Z</time>
      </trkpt>
      <trkpt lat="47.716898" lon="-1.387903">
        <ele>53.701844</ele>
        <time>2025-06-25T16:54:50.202Z</time>
      </trkpt>
      <trkpt lat="47.716948" lon="-1.387794">
        <ele>53.788047</ele>
        <time>2025-06-25T16:54:51.829Z</time>
      </trkpt>
      <trkpt lat="47.716998" lon="-1.387699">
        <ele>53.866861</ele>
        <time>2025-06-25T16:54:53.351Z</time>
      </trkpt>
      <trkpt lat="47.717077" lon="-1.387033">
        <ele>54.308757</ele>
        <time>2025-06-25T16:55:01.959Z</time>
      </trkpt>
      <trkpt lat="47.717187" lon="-1.386219">
        <ele>54.851271</ele>
        <time>2025-06-25T16:55:12.382Z</time>
      </trkpt>
      <trkpt lat="47.717291" lon="-1.385463">
        <ele>55.639182</ele>
        <time>2025-06-25T16:55:22.897Z</time>
      </trkpt>
      <trkpt lat="47.717311" lon="-1.385294">
        <ele>55.833487</ele>
        <time>2025-06-25T16:55:25.315Z</time>
      </trkpt>
      <trkpt lat="47.717546" lon="-1.383573">
        <ele>57.821996</ele>
        <time>2025-06-25T16:55:51.701Z</time>
      </trkpt>
      <trkpt lat="47.717546" lon="-1.383341">
        <ele>58.087036</ele>
        <time>2025-06-25T16:55:55.227Z</time>
      </trkpt>
      <trkpt lat="47.717539" lon="-1.383327">
        <ele>58.107306</ele>
        <time>2025-06-25T16:55:55.484Z</time>
      </trkpt>
      <trkpt lat="47.717537" lon="-1.383234">
        <ele>58.215432</ele>
        <time>2025-06-25T16:55:56.932Z</time>
      </trkpt>
      <trkpt lat="47.717564" lon="-1.383189">
        <ele>58.285498</ele>
        <time>2025-06-25T16:55:57.840Z</time>
      </trkpt>
      <trkpt lat="47.717595" lon="-1.383060">
        <ele>58.444679</ele>
        <time>2025-06-25T16:55:59.973Z</time>
      </trkpt>
      <trkpt lat="47.717615" lon="-1.382977">
        <ele>58.547128</ele>
        <time>2025-06-25T16:56:01.330Z</time>
      </trkpt>
      <trkpt lat="47.717708" lon="-1.382340">
        <ele>59.304582</ele>
        <time>2025-06-25T16:56:10.891Z</time>
      </trkpt>
      <trkpt lat="47.717770" lon="-1.381834">
        <ele>59.902250</ele>
        <time>2025-06-25T16:56:18.493Z</time>
      </trkpt>
      <trkpt lat="47.717768" lon="-1.381607">
        <ele>60.166057</ele>
        <time>2025-06-25T16:56:21.777Z</time>
      </trkpt>
      <trkpt lat="47.717771" lon="-1.381476">
        <ele>60.318374</ele>
        <time>2025-06-25T16:56:23.685Z</time>
      </trkpt>
      <trkpt lat="47.717735" lon="-1.381414">
        <ele>60.413543</ele>
        <time>2025-06-25T16:56:24.891Z</time>
      </trkpt>
      <trkpt lat="47.717728" lon="-1.381309">
        <ele>60.536155</ele>
        <time>2025-06-25T16:56:26.419Z</time>
      </trkpt>
      <trkpt lat="47.717761" lon="-1.381230">
        <ele>60.644213</ele>
        <time>2025-06-25T16:56:27.811Z</time>
      </trkpt>
      <trkpt lat="47.717818" lon="-1.381194">
        <ele>60.751184</ele>
        <time>2025-06-25T16:56:29.132Z</time>
      </trkpt>
      <trkpt lat="47.717850" lon="-1.381196">
        <ele>60.806504</ele>
        <time>2025-06-25T16:56:29.800Z</time>
      </trkpt>
      <trkpt lat="47.717918" lon="-1.380682">
        <ele>61.176096</ele>
        <time>2025-06-25T16:56:37.277Z</time>
      </trkpt>
      <trkpt lat="47.718026" lon="-1.379875">
        <ele>61.401512</ele>
        <time>2025-06-25T16:56:48.052Z</time>
      </trkpt>
      <trkpt lat="47.718120" lon="-1.379163">
        <ele>61.600291</ele>
        <time>2025-06-25T16:56:56.749Z</time>
      </trkpt>
      <trkpt lat="47.718139" lon="-1.379023">
        <ele>61.639417</ele>
        <time>2025-06-25T16:56:58.222Z</time>
      </trkpt>
      <trkpt lat="47.718158" lon="-1.378880">
        <ele>61.679350</ele>
        <time>2025-06-25T16:56:59.691Z</time>
      </trkpt>
      <trkpt lat="47.718199" lon="-1.378572">
        <ele>61.765365</ele>
        <time>2025-06-25T16:57:02.353Z</time>
      </trkpt>
      <trkpt lat="47.718158" lon="-1.378508">
        <ele>61.789575</ele>
        <time>2025-06-25T16:57:03.104Z</time>
      </trkpt>
      <trkpt lat="47.718160" lon="-1.378448">
        <ele>61.806033</ele>
        <time>2025-06-25T16:57:03.600Z</time>
      </trkpt>
      <trkpt lat="47.718200" lon="-1.378392">
        <ele>61.828409</ele>
        <time>2025-06-25T16:57:04.227Z</time>
      </trkpt>
      <trkpt lat="47.718244" lon="-1.378396">
        <ele>61.781897</ele>
        <time>2025-06-25T16:57:04.758Z</time>
      </trkpt>
      <trkpt lat="47.718271" lon="-1.378430">
        <ele>61.716357</ele>
        <time>2025-06-25T16:57:05.181Z</time>
      </trkpt>
      <trkpt lat="47.718280" lon="-1.378507">
        <ele>61.618976</ele>
        <time>2025-06-25T16:57:05.773Z</time>
      </trkpt>
      <trkpt lat="47.718662" lon="-1.378371">
        <ele>60.891472</ele>
        <time>2025-06-25T16:57:10.160Z</time>
      </trkpt>
      <trkpt lat="47.718694" lon="-1.378373">
        <ele>60.832153</ele>
        <time>2025-06-25T16:57:10.511Z</time>
      </trkpt>
      <trkpt lat="47.719059" lon="-1.378401">
        <ele>60.155246</ele>
        <time>2025-06-25T16:57:14.341Z</time>
      </trkpt>
      <trkpt lat="47.719171" lon="-1.378410">
        <ele>59.947511</ele>
        <time>2025-06-25T16:57:15.531Z</time>
      </trkpt>
      <trkpt lat="47.719618" lon="-1.378445">
        <ele>59.118486</ele>
        <time>2025-06-25T16:57:20.341Z</time>
      </trkpt>
      <trkpt lat="47.719705" lon="-1.378450">
        <ele>58.957235</ele>
        <time>2025-06-25T16:57:21.275Z</time>
      </trkpt>
      <trkpt lat="47.719820" lon="-1.378453">
        <ele>58.744214</ele>
        <time>2025-06-25T16:57:22.521Z</time>
      </trkpt>
      <trkpt lat="47.719958" lon="-1.378439">
        <ele>58.503382</ele>
        <time>2025-06-25T16:57:24.037Z</time>
      </trkpt>
      <trkpt lat="47.720113" lon="-1.378333">
        <ele>58.500575</ele>
        <time>2025-06-25T16:57:26.017Z</time>
      </trkpt>
      <trkpt lat="47.720153" lon="-1.378178">
        <ele>58.498738</ele>
        <time>2025-06-25T16:57:27.394Z</time>
      </trkpt>
      <trkpt lat="47.720211" lon="-1.377948">
        <ele>58.496020</ele>
        <time>2025-06-25T16:57:29.534Z</time>
      </trkpt>
      <trkpt lat="47.720416" lon="-1.377264">
        <ele>58.487732</ele>
        <time>2025-06-25T16:57:36.885Z</time>
      </trkpt>
      <trkpt lat="47.720455" lon="-1.377129">
        <ele>58.486106</ele>
        <time>2025-06-25T16:57:38.451Z</time>
      </trkpt>
      <trkpt lat="47.720478" lon="-1.377050">
        <ele>58.485154</ele>
        <time>2025-06-25T16:57:39.414Z</time>
      </trkpt>
      <trkpt lat="47.720565" lon="-1.376762">
        <ele>58.481660</ele>
        <time>2025-06-25T16:57:43.072Z</time>
      </trkpt>
      <trkpt lat="47.720579" lon="-1.376394">
        <ele>58.477581</ele>
        <time>2025-06-25T16:57:47.589Z</time>
      </trkpt>
      <trkpt lat="47.720577" lon="-1.376154">
        <ele>58.474924</ele>
        <time>2025-06-25T16:57:51.445Z</time>
      </trkpt>
      <trkpt lat="47.720575" lon="-1.375911">
        <ele>58.606999</ele>
        <time>2025-06-25T16:57:55.566Z</time>
      </trkpt>
      <trkpt lat="47.720574" lon="-1.375312">
        <ele>59.127143</ele>
        <time>2025-06-25T16:58:03.934Z</time>
      </trkpt>
      <trkpt lat="47.720554" lon="-1.374578">
        <ele>59.765034</ele>
        <time>2025-06-25T16:58:13.908Z</time>
      </trkpt>
      <trkpt lat="47.720517" lon="-1.374396">
        <ele>59.930133</ele>
        <time>2025-06-25T16:58:16.339Z</time>
      </trkpt>
      <trkpt lat="47.720467" lon="-1.374378">
        <ele>59.996536</ele>
        <time>2025-06-25T16:58:17.300Z</time>
      </trkpt>
      <trkpt lat="47.720452" lon="-1.374332">
        <ele>60.040925</ele>
        <time>2025-06-25T16:58:17.972Z</time>
      </trkpt>
      <trkpt lat="47.720328" lon="-1.374367">
        <ele>60.203839</ele>
        <time>2025-06-25T16:58:21.068Z</time>
      </trkpt>
      <trkpt lat="47.719609" lon="-1.374425">
        <ele>61.343469</ele>
        <time>2025-06-25T16:58:39.720Z</time>
      </trkpt>
      <trkpt lat="47.719391" lon="-1.374395">
        <ele>61.801951</ele>
        <time>2025-06-25T16:58:45.734Z</time>
      </trkpt>
      <trkpt lat="47.719033" lon="-1.374159">
        <ele>62.622090</ele>
        <time>2025-06-25T16:58:56.552Z</time>
      </trkpt>
      <trkpt lat="47.718903" lon="-1.374032">
        <ele>62.947869</ele>
        <time>2025-06-25T16:59:00.840Z</time>
      </trkpt>
      <trkpt lat="47.718733" lon="-1.373895">
        <ele>63.352838</ele>
        <time>2025-06-25T16:59:06.163Z</time>
      </trkpt>
      <trkpt lat="47.718722" lon="-1.373898">
        <ele>63.376258</ele>
        <time>2025-06-25T16:59:06.409Z</time>
      </trkpt>
      <trkpt lat="47.718679" lon="-1.373873">
        <ele>63.472952</ele>
        <time>2025-06-25T16:59:07.467Z</time>
      </trkpt>
      <trkpt lat="47.718674" lon="-1.373773">
        <ele>63.614230</ele>
        <time>2025-06-25T16:59:09.133Z</time>
      </trkpt>
      <trkpt lat="47.718693" lon="-1.373748">
        <ele>63.667370</ele>
        <time>2025-06-25T16:59:09.756Z</time>
      </trkpt>
      <trkpt lat="47.718727" lon="-1.373571">
        <ele>63.926711</ele>
        <time>2025-06-25T16:59:12.823Z</time>
      </trkpt>
      <trkpt lat="47.718724" lon="-1.373532">
        <ele>63.982016</ele>
        <time>2025-06-25T16:59:13.495Z</time>
      </trkpt>
      <trkpt lat="47.718701" lon="-1.373129">
        <ele>64.551843</ele>
        <time>2025-06-25T16:59:20.793Z</time>
      </trkpt>
      <trkpt lat="47.718770" lon="-1.373122">
        <ele>64.751092</ele>
        <time>2025-06-25T16:59:29.405Z</time>
      </trkpt>
      <trkpt lat="47.718807" lon="-1.373118">
        <ele>64.860221</ele>
        <time>2025-06-25T16:59:33.980Z</time>
      </trkpt>
      <trkpt lat="47.718894" lon="-1.373110">
        <ele>65.116634</ele>
        <time>2025-06-25T16:59:44.955Z</time>
      </trkpt>
      <trkpt lat="47.718807" lon="-1.373118">
        <ele>65.373046</ele>
        <time>2025-06-25T16:59:55.811Z</time>
      </trkpt>
      <trkpt lat="47.718770" lon="-1.373122">
        <ele>65.482175</ele>
        <time>2025-06-25T17:00:00.446Z</time>
      </trkpt>
      <trkpt lat="47.718701" lon="-1.373129">
        <ele>65.685621</ele>
        <time>2025-06-25T17:00:09.030Z</time>
      </trkpt>
      <trkpt lat="47.718695" lon="-1.373033">
        <ele>65.876428</ele>
        <time>2025-06-25T17:00:10.855Z</time>
      </trkpt>
      <trkpt lat="47.718602" lon="-1.372748">
        <ele>66.503304</ele>
        <time>2025-06-25T17:00:16.774Z</time>
      </trkpt>
      <trkpt lat="47.718564" lon="-1.372633">
        <ele>66.756866</ele>
        <time>2025-06-25T17:00:19.090Z</time>
      </trkpt>
      <trkpt lat="47.718526" lon="-1.372515">
        <ele>67.015770</ele>
        <time>2025-06-25T17:00:21.433Z</time>
      </trkpt>
      <trkpt lat="47.718497" lon="-1.372480">
        <ele>67.125658</ele>
        <time>2025-06-25T17:00:22.367Z</time>
      </trkpt>
      <trkpt lat="47.718473" lon="-1.372408">
        <ele>67.284681</ele>
        <time>2025-06-25T17:00:23.824Z</time>
      </trkpt>
      <trkpt lat="47.718470" lon="-1.372367">
        <ele>67.366301</ele>
        <time>2025-06-25T17:00:24.531Z</time>
      </trkpt>
      <trkpt lat="47.718484" lon="-1.372293">
        <ele>67.518432</ele>
        <time>2025-06-25T17:00:25.814Z</time>
      </trkpt>
      <trkpt lat="47.718542" lon="-1.372218">
        <ele>67.744576</ele>
        <time>2025-06-25T17:00:27.797Z</time>
      </trkpt>
      <trkpt lat="47.718583" lon="-1.372118">
        <ele>67.976337</ele>
        <time>2025-06-25T17:00:29.731Z</time>
      </trkpt>
      <trkpt lat="47.718628" lon="-1.371918">
        <ele>68.393698</ele>
        <time>2025-06-25T17:00:33.317Z</time>
      </trkpt>
      <trkpt lat="47.718661" lon="-1.371182">
        <ele>69.853699</ele>
        <time>2025-06-25T17:00:46.512Z</time>
      </trkpt>
      <trkpt lat="47.718679" lon="-1.370756">
        <ele>71.173101</ele>
        <time>2025-06-25T17:00:54.156Z</time>
      </trkpt>
      <trkpt lat="47.718637" lon="-1.370594">
        <ele>71.709753</ele>
        <time>2025-06-25T17:00:57.242Z</time>
      </trkpt>
      <trkpt lat="47.718622" lon="-1.370581">
        <ele>71.789532</ele>
        <time>2025-06-25T17:00:57.696Z</time>
      </trkpt>
      <trkpt lat="47.718596" lon="-1.370527">
        <ele>71.994793</ele>
        <time>2025-06-25T17:00:58.861Z</time>
      </trkpt>
      <trkpt lat="47.718595" lon="-1.370459">
        <ele>72.205038</ele>
        <time>2025-06-25T17:01:00.062Z</time>
      </trkpt>
      <trkpt lat="47.718619" lon="-1.370407">
        <ele>72.399964</ele>
        <time>2025-06-25T17:01:01.195Z</time>
      </trkpt>
      <trkpt lat="47.718532" lon="-1.370273">
        <ele>72.975594</ele>
        <time>2025-06-25T17:01:04.670Z</time>
      </trkpt>
      <trkpt lat="47.718483" lon="-1.370197">
        <ele>73.300978</ele>
        <time>2025-06-25T17:01:06.730Z</time>
      </trkpt>
      <trkpt lat="47.718316" lon="-1.369965">
        <ele>74.351228</ele>
        <time>2025-06-25T17:01:13.813Z</time>
      </trkpt>
      <trkpt lat="47.717965" lon="-1.369266">
        <ele>77.047410</ele>
        <time>2025-06-25T17:01:35.509Z</time>
      </trkpt>
      <trkpt lat="47.717857" lon="-1.369123">
        <ele>77.711955</ele>
        <time>2025-06-25T17:01:41.462Z</time>
      </trkpt>
      <trkpt lat="47.717770" lon="-1.369048">
        <ele>78.197676</ele>
        <time>2025-06-25T17:01:45.730Z</time>
      </trkpt>
      <trkpt lat="47.717620" lon="-1.368920">
        <ele>79.322538</ele>
        <time>2025-06-25T17:01:53.212Z</time>
      </trkpt>
      <trkpt lat="47.717557" lon="-1.368855">
        <ele>79.821293</ele>
        <time>2025-06-25T17:01:56.602Z</time>
      </trkpt>
      <trkpt lat="47.717378" lon="-1.368647">
        <ele>81.298949</ele>
        <time>2025-06-25T17:02:06.950Z</time>
      </trkpt>
      <trkpt lat="47.717137" lon="-1.368268">
        <ele>83.580737</ele>
        <time>2025-06-25T17:02:22.722Z</time>
      </trkpt>
      <trkpt lat="47.716862" lon="-1.367658">
        <ele>86.793598</ele>
        <time>2025-06-25T17:02:44.133Z</time>
      </trkpt>
      <trkpt lat="47.716571" lon="-1.366896">
        <ele>90.188546</ele>
        <time>2025-06-25T17:03:06.232Z</time>
      </trkpt>
      <trkpt lat="47.716396" lon="-1.366341">
        <ele>91.422279</ele>
        <time>2025-06-25T17:03:18.875Z</time>
      </trkpt>
      <trkpt lat="47.715956" lon="-1.365095">
        <ele>94.254776</ele>
        <time>2025-06-25T17:03:42.205Z</time>
      </trkpt>
      <trkpt lat="47.715754" lon="-1.364437">
        <ele>95.410808</ele>
        <time>2025-06-25T17:03:52.134Z</time>
      </trkpt>
      <trkpt lat="47.715637" lon="-1.364030">
        <ele>95.782934</ele>
        <time>2025-06-25T17:03:57.877Z</time>
      </trkpt>
      <trkpt lat="47.715450" lon="-1.363360">
        <ele>96.392809</ele>
        <time>2025-06-25T17:04:07.327Z</time>
      </trkpt>
      <trkpt lat="47.715276" lon="-1.362838">
        <ele>96.882612</ele>
        <time>2025-06-25T17:04:15.044Z</time>
      </trkpt>
      <trkpt lat="47.715229" lon="-1.362832">
        <ele>96.941562</ele>
        <time>2025-06-25T17:04:15.924Z</time>
      </trkpt>
      <trkpt lat="47.715211" lon="-1.362792">
        <ele>96.982023</ele>
        <time>2025-06-25T17:04:16.530Z</time>
      </trkpt>
      <trkpt lat="47.715216" lon="-1.362740">
        <ele>97.026188</ele>
        <time>2025-06-25T17:04:17.248Z</time>
      </trkpt>
      <trkpt lat="47.715245" lon="-1.362709">
        <ele>97.070828</ele>
        <time>2025-06-25T17:04:17.979Z</time>
      </trkpt>
      <trkpt lat="47.715210" lon="-1.362531">
        <ele>97.226749</ele>
        <time>2025-06-25T17:04:20.350Z</time>
      </trkpt>
      <trkpt lat="47.714878" lon="-1.361347">
        <ele>98.259426</ele>
        <time>2025-06-25T17:04:37.435Z</time>
      </trkpt>
      <trkpt lat="47.714721" lon="-1.360709">
        <ele>98.800241</ele>
        <time>2025-06-25T17:04:46.915Z</time>
      </trkpt>
      <trkpt lat="47.714506" lon="-1.359191">
        <ele>99.746493</ele>
        <time>2025-06-25T17:05:06.551Z</time>
      </trkpt>
      <trkpt lat="47.714396" lon="-1.358368">
        <ele>99.998459</ele>
        <time>2025-06-25T17:05:15.813Z</time>
      </trkpt>
      <trkpt lat="47.714284" lon="-1.357535">
        <ele>100.253544</ele>
        <time>2025-06-25T17:05:24.530Z</time>
      </trkpt>
      <trkpt lat="47.714164" lon="-1.357243">
        <ele>100.356290</ele>
        <time>2025-06-25T17:05:28.054Z</time>
      </trkpt>
      <trkpt lat="47.714072" lon="-1.357173">
        <ele>100.418670</ele>
        <time>2025-06-25T17:05:29.661Z</time>
      </trkpt>
      <trkpt lat="47.714031" lon="-1.357033">
        <ele>100.491099</ele>
        <time>2025-06-25T17:05:31.274Z</time>
      </trkpt>
      <trkpt lat="47.714037" lon="-1.356955">
        <ele>100.528341</ele>
        <time>2025-06-25T17:05:32.125Z</time>
      </trkpt>
      <trkpt lat="47.714099" lon="-1.356830">
        <ele>100.602008</ele>
        <time>2025-06-25T17:05:33.782Z</time>
      </trkpt>
      <trkpt lat="47.714102" lon="-1.356436">
        <ele>100.788921</ele>
        <time>2025-06-25T17:05:38.159Z</time>
      </trkpt>
      <trkpt lat="47.713648" lon="-1.352877">
        <ele>102.586940</ele>
        <time>2025-06-25T17:06:23.377Z</time>
      </trkpt>
      <trkpt lat="47.713503" lon="-1.352084">
        <ele>103.012670</ele>
        <time>2025-06-25T17:06:32.708Z</time>
      </trkpt>
      <trkpt lat="47.712777" lon="-1.348523">
        <ele>103.836419</ele>
        <time>2025-06-25T17:07:12.349Z</time>
      </trkpt>
      <trkpt lat="47.712580" lon="-1.347802">
        <ele>104.062834</ele>
        <time>2025-06-25T17:07:21.412Z</time>
      </trkpt>
      <trkpt lat="47.712303" lon="-1.346970">
        <ele>104.322183</ele>
        <time>2025-06-25T17:07:32.223Z</time>
      </trkpt>
      <trkpt lat="47.712126" lon="-1.346429">
        <ele>104.374220</ele>
        <time>2025-06-25T17:07:38.992Z</time>
      </trkpt>
      <trkpt lat="47.710958" lon="-1.342882">
        <ele>104.602961</ele>
        <time>2025-06-25T17:08:17.907Z</time>
      </trkpt>
      <trkpt lat="47.710675" lon="-1.342025">
        <ele>104.679530</ele>
        <time>2025-06-25T17:08:27.829Z</time>
      </trkpt>
      <trkpt lat="47.710337" lon="-1.340999">
        <ele>104.980636</ele>
        <time>2025-06-25T17:08:40.494Z</time>
      </trkpt>
      <trkpt lat="47.710097" lon="-1.340275">
        <ele>105.193371</ele>
        <time>2025-06-25T17:08:49.514Z</time>
      </trkpt>
      <trkpt lat="47.709221" lon="-1.337670">
        <ele>105.970326</ele>
        <time>2025-06-25T17:09:21.753Z</time>
      </trkpt>
      <trkpt lat="47.708315" lon="-1.335698">
        <ele>106.447600</ele>
        <time>2025-06-25T17:09:47.583Z</time>
      </trkpt>
      <trkpt lat="47.708076" lon="-1.335132">
        <ele>106.565763</ele>
        <time>2025-06-25T17:09:54.752Z</time>
      </trkpt>
      <trkpt lat="47.707967" lon="-1.334794">
        <ele>106.604831</ele>
        <time>2025-06-25T17:09:58.757Z</time>
      </trkpt>
      <trkpt lat="47.707614" lon="-1.333516">
        <ele>106.748826</ele>
        <time>2025-06-25T17:10:13.365Z</time>
      </trkpt>
      <trkpt lat="47.706559" lon="-1.329574">
        <ele>106.462211</ele>
        <time>2025-06-25T17:10:56.144Z</time>
      </trkpt>
      <trkpt lat="47.705056" lon="-1.323979">
        <ele>102.771144</ele>
        <time>2025-06-25T17:11:45.392Z</time>
      </trkpt>
      <trkpt lat="47.703257" lon="-1.317595">
        <ele>98.781086</ele>
        <time>2025-06-25T17:12:43.048Z</time>
      </trkpt>
      <trkpt lat="47.703071" lon="-1.317052">
        <ele>98.756482</ele>
        <time>2025-06-25T17:12:48.831Z</time>
      </trkpt>
      <trkpt lat="47.702956" lon="-1.316815">
        <ele>98.744683</ele>
        <time>2025-06-25T17:12:51.729Z</time>
      </trkpt>
      <trkpt lat="47.702747" lon="-1.316480">
        <ele>98.726236</ele>
        <time>2025-06-25T17:12:56.482Z</time>
      </trkpt>
      <trkpt lat="47.700442" lon="-1.313042">
        <ele>99.511788</ele>
        <time>2025-06-25T17:13:50.223Z</time>
      </trkpt>
      <trkpt lat="47.698052" lon="-1.309805">
        <ele>99.386730</ele>
        <time>2025-06-25T17:14:35.930Z</time>
      </trkpt>
      <trkpt lat="47.697717" lon="-1.309420">
        <ele>99.528103</ele>
        <time>2025-06-25T17:14:42.814Z</time>
      </trkpt>
      <trkpt lat="47.695478" lon="-1.307034">
        <ele>100.532348</ele>
        <time>2025-06-25T17:15:30.129Z</time>
      </trkpt>
      <trkpt lat="47.693605" lon="-1.304630">
        <ele>98.567271</ele>
        <time>2025-06-25T17:16:00.552Z</time>
      </trkpt>
      <trkpt lat="47.693483" lon="-1.304468">
        <ele>98.424698</ele>
        <time>2025-06-25T17:16:02.551Z</time>
      </trkpt>
      <trkpt lat="47.693136" lon="-1.303984">
        <ele>98.009980</ele>
        <time>2025-06-25T17:16:08.439Z</time>
      </trkpt>
      <trkpt lat="47.692800" lon="-1.303418">
        <ele>97.591753</ele>
        <time>2025-06-25T17:16:14.879Z</time>
      </trkpt>
      <trkpt lat="47.688344" lon="-1.295162">
        <ele>94.707238</ele>
        <time>2025-06-25T17:17:50.273Z</time>
      </trkpt>
      <trkpt lat="47.686470" lon="-1.291695">
        <ele>97.514515</ele>
        <time>2025-06-25T17:18:45.690Z</time>
      </trkpt>
      <trkpt lat="47.686177" lon="-1.291017">
        <ele>98.194074</ele>
        <time>2025-06-25T17:18:58.050Z</time>
      </trkpt>
      <trkpt lat="47.686003" lon="-1.290409">
        <ele>98.528785</ele>
        <time>2025-06-25T17:19:07.774Z</time>
      </trkpt>
      <trkpt lat="47.685935" lon="-1.290041">
        <ele>98.696097</ele>
        <time>2025-06-25T17:19:13.154Z</time>
      </trkpt>
      <trkpt lat="47.685879" lon="-1.289505">
        <ele>98.933911</ele>
        <time>2025-06-25T17:19:20.140Z</time>
      </trkpt>
      <trkpt lat="47.684968" lon="-1.277136">
        <ele>96.649767</ele>
        <time>2025-06-25T17:21:12.944Z</time>
      </trkpt>
      <trkpt lat="47.684252" lon="-1.267882">
        <ele>99.310025</ele>
        <time>2025-06-25T17:22:56.484Z</time>
      </trkpt>
      <trkpt lat="47.683992" lon="-1.264364">
        <ele>102.037340</ele>
        <time>2025-06-25T17:23:45.181Z</time>
      </trkpt>
      <trkpt lat="47.683980" lon="-1.264210">
        <ele>102.066307</ele>
        <time>2025-06-25T17:23:47.165Z</time>
      </trkpt>
      <trkpt lat="47.683511" lon="-1.257683">
        <ele>102.720690</ele>
        <time>2025-06-25T17:24:56.006Z</time>
      </trkpt>
      <trkpt lat="47.682959" lon="-1.249366">
        <ele>98.466845</ele>
        <time>2025-06-25T17:26:05.877Z</time>
      </trkpt>
      <trkpt lat="47.682660" lon="-1.244633">
        <ele>97.693276</ele>
        <time>2025-06-25T17:26:50.378Z</time>
      </trkpt>
      <trkpt lat="47.682340" lon="-1.239566">
        <ele>99.066704</ele>
        <time>2025-06-25T17:27:47.141Z</time>
      </trkpt>
      <trkpt lat="47.681869" lon="-1.232408">
        <ele>102.702399</ele>
        <time>2025-06-25T17:29:16.191Z</time>
      </trkpt>
      <trkpt lat="47.681302" lon="-1.224111">
        <ele>97.171006</ele>
        <time>2025-06-25T17:30:24.625Z</time>
      </trkpt>
      <trkpt lat="47.681276" lon="-1.223843">
        <ele>96.902190</ele>
        <time>2025-06-25T17:30:26.622Z</time>
      </trkpt>
      <trkpt lat="47.681064" lon="-1.222411">
        <ele>95.446546</ele>
        <time>2025-06-25T17:30:37.602Z</time>
      </trkpt>
      <trkpt lat="47.681008" lon="-1.222017">
        <ele>95.046763</ele>
        <time>2025-06-25T17:30:40.716Z</time>
      </trkpt>
      <trkpt lat="47.680876" lon="-1.220416">
        <ele>94.321257</ele>
        <time>2025-06-25T17:30:54.665Z</time>
      </trkpt>
      <trkpt lat="47.680822" lon="-1.219737">
        <ele>94.038919</ele>
        <time>2025-06-25T17:31:01.414Z</time>
      </trkpt>
      <trkpt lat="47.680740" lon="-1.218664">
        <ele>93.505438</ele>
        <time>2025-06-25T17:31:11.170Z</time>
      </trkpt>
      <trkpt lat="47.680727" lon="-1.218496">
        <ele>93.411034</ele>
        <time>2025-06-25T17:31:12.639Z</time>
      </trkpt>
      <trkpt lat="47.680720" lon="-1.217853">
        <ele>93.052032</ele>
        <time>2025-06-25T17:31:18.074Z</time>
      </trkpt>
      <trkpt lat="47.680813" lon="-1.216355">
        <ele>92.331940</ele>
        <time>2025-06-25T17:31:30.115Z</time>
      </trkpt>
      <trkpt lat="47.680852" lon="-1.215711">
        <ele>92.283726</ele>
        <time>2025-06-25T17:31:35.536Z</time>
      </trkpt>
      <trkpt lat="47.680848" lon="-1.215325">
        <ele>92.254940</ele>
        <time>2025-06-25T17:31:38.956Z</time>
      </trkpt>
      <trkpt lat="47.680687" lon="-1.213602">
        <ele>92.336047</ele>
        <time>2025-06-25T17:31:58.872Z</time>
      </trkpt>
      <trkpt lat="47.680527" lon="-1.212125">
        <ele>93.130435</ele>
        <time>2025-06-25T17:32:18.425Z</time>
      </trkpt>
      <trkpt lat="47.680323" lon="-1.210143">
        <ele>93.899709</ele>
        <time>2025-06-25T17:32:40.941Z</time>
      </trkpt>
      <trkpt lat="47.679327" lon="-1.200462">
        <ele>95.472668</ele>
        <time>2025-06-25T17:34:29.163Z</time>
      </trkpt>
      <trkpt lat="47.679282" lon="-1.200010">
        <ele>94.537793</ele>
        <time>2025-06-25T17:34:32.407Z</time>
      </trkpt>
      <trkpt lat="47.679260" lon="-1.199794">
        <ele>94.090815</ele>
        <time>2025-06-25T17:34:33.903Z</time>
      </trkpt>
      <trkpt lat="47.679091" lon="-1.198094">
        <ele>90.576400</ele>
        <time>2025-06-25T17:34:45.068Z</time>
      </trkpt>
      <trkpt lat="47.679064" lon="-1.197602">
        <ele>89.674282</ele>
        <time>2025-06-25T17:34:48.349Z</time>
      </trkpt>
      <trkpt lat="47.679134" lon="-1.194575">
        <ele>85.158715</ele>
        <time>2025-06-25T17:35:10.105Z</time>
      </trkpt>
      <trkpt lat="47.679152" lon="-1.193516">
        <ele>84.481125</ele>
        <time>2025-06-25T17:35:19.280Z</time>
      </trkpt>
      <trkpt lat="47.679137" lon="-1.193025">
        <ele>84.166740</ele>
        <time>2025-06-25T17:35:24.268Z</time>
      </trkpt>
      <trkpt lat="47.679089" lon="-1.192354">
        <ele>84.095268</ele>
        <time>2025-06-25T17:35:31.837Z</time>
      </trkpt>
      <trkpt lat="47.679046" lon="-1.191734">
        <ele>84.240785</ele>
        <time>2025-06-25T17:35:38.988Z</time>
      </trkpt>
      <trkpt lat="47.679005" lon="-1.191175">
        <ele>84.372067</ele>
        <time>2025-06-25T17:35:45.438Z</time>
      </trkpt>
      <trkpt lat="47.679001" lon="-1.191119">
        <ele>84.385215</ele>
        <time>2025-06-25T17:35:46.103Z</time>
      </trkpt>
      <trkpt lat="47.678961" lon="-1.190584">
        <ele>84.510889</ele>
        <time>2025-06-25T17:35:52.458Z</time>
      </trkpt>
      <trkpt lat="47.678932" lon="-1.190214">
        <ele>84.597856</ele>
        <time>2025-06-25T17:35:56.538Z</time>
      </trkpt>
      <trkpt lat="47.678910" lon="-1.189905">
        <ele>84.534696</ele>
        <time>2025-06-25T17:35:59.556Z</time>
      </trkpt>
      <trkpt lat="47.678850" lon="-1.189069">
        <ele>84.172916</ele>
        <time>2025-06-25T17:36:07.044Z</time>
      </trkpt>
      <trkpt lat="47.678834" lon="-1.188268">
        <ele>83.828084</ele>
        <time>2025-06-25T17:36:13.634Z</time>
      </trkpt>
      <trkpt lat="47.678958" lon="-1.187274">
        <ele>83.220910</ele>
        <time>2025-06-25T17:36:22.081Z</time>
      </trkpt>
      <trkpt lat="47.678971" lon="-1.187173">
        <ele>83.081485</ele>
        <time>2025-06-25T17:36:22.940Z</time>
      </trkpt>
      <trkpt lat="47.679014" lon="-1.186832">
        <ele>82.611087</ele>
        <time>2025-06-25T17:36:25.807Z</time>
      </trkpt>
      <trkpt lat="47.679064" lon="-1.186468">
        <ele>82.107376</ele>
        <time>2025-06-25T17:36:28.787Z</time>
      </trkpt>
      <trkpt lat="47.679110" lon="-1.185620">
        <ele>80.953856</ele>
        <time>2025-06-25T17:36:35.317Z</time>
      </trkpt>
      <trkpt lat="47.679092" lon="-1.185489">
        <ele>80.772574</ele>
        <time>2025-06-25T17:36:36.307Z</time>
      </trkpt>
      <trkpt lat="47.679021" lon="-1.185116">
        <ele>80.247004</ele>
        <time>2025-06-25T17:36:39.084Z</time>
      </trkpt>
      <trkpt lat="47.679068" lon="-1.183631">
        <ele>75.896638</ele>
        <time>2025-06-25T17:36:48.646Z</time>
      </trkpt>
      <trkpt lat="47.679045" lon="-1.183460">
        <ele>75.319382</ele>
        <time>2025-06-25T17:36:49.731Z</time>
      </trkpt>
      <trkpt lat="47.679097" lon="-1.183427">
        <ele>75.041351</ele>
        <time>2025-06-25T17:36:50.258Z</time>
      </trkpt>
      <trkpt lat="47.679137" lon="-1.183189">
        <ele>74.229311</ele>
        <time>2025-06-25T17:36:51.787Z</time>
      </trkpt>
      <trkpt lat="47.679905" lon="-1.180504">
        <ele>64.937288</ele>
        <time>2025-06-25T17:37:10.097Z</time>
      </trkpt>
      <trkpt lat="47.679995" lon="-1.180129">
        <ele>63.694174</ele>
        <time>2025-06-25T17:37:12.760Z</time>
      </trkpt>
      <trkpt lat="47.680080" lon="-1.179497">
        <ele>62.363766</ele>
        <time>2025-06-25T17:37:17.214Z</time>
      </trkpt>
      <trkpt lat="47.680104" lon="-1.178578">
        <ele>61.482602</ele>
        <time>2025-06-25T17:37:24.143Z</time>
      </trkpt>
      <trkpt lat="47.680108" lon="-1.178158">
        <ele>61.080156</ele>
        <time>2025-06-25T17:37:27.592Z</time>
      </trkpt>
      <trkpt lat="47.680297" lon="-1.166683">
        <ele>57.810784</ele>
        <time>2025-06-25T17:39:14.095Z</time>
      </trkpt>
      <trkpt lat="47.680369" lon="-1.162708">
        <ele>56.039886</ele>
        <time>2025-06-25T17:39:47.015Z</time>
      </trkpt>
      <trkpt lat="47.680393" lon="-1.161399">
        <ele>55.940404</ele>
        <time>2025-06-25T17:40:03.299Z</time>
      </trkpt>
      <trkpt lat="47.680490" lon="-1.155993">
        <ele>54.593076</ele>
        <time>2025-06-25T17:40:51.849Z</time>
      </trkpt>
      <trkpt lat="47.680491" lon="-1.155934">
        <ele>54.576761</ele>
        <time>2025-06-25T17:40:52.420Z</time>
      </trkpt>
      <trkpt lat="47.680611" lon="-1.149751">
        <ele>54.435913</ele>
        <time>2025-06-25T17:41:52.001Z</time>
      </trkpt>
      <trkpt lat="47.680603" lon="-1.149188">
        <ele>54.780245</ele>
        <time>2025-06-25T17:41:58.962Z</time>
      </trkpt>
      <trkpt lat="47.680375" lon="-1.144687">
        <ele>58.445661</ele>
        <time>2025-06-25T17:43:02.247Z</time>
      </trkpt>
      <trkpt lat="47.680246" lon="-1.142064">
        <ele>59.477613</ele>
        <time>2025-06-25T17:43:31.695Z</time>
      </trkpt>
      <trkpt lat="47.680013" lon="-1.137603">
        <ele>59.366326</ele>
        <time>2025-06-25T17:44:17.178Z</time>
      </trkpt>
      <trkpt lat="47.679984" lon="-1.136595">
        <ele>58.798482</ele>
        <time>2025-06-25T17:44:25.428Z</time>
      </trkpt>
      <trkpt lat="47.680021" lon="-1.135079">
        <ele>57.356237</ele>
        <time>2025-06-25T17:44:36.790Z</time>
      </trkpt>
      <trkpt lat="47.680051" lon="-1.134556">
        <ele>56.857207</ele>
        <time>2025-06-25T17:44:40.751Z</time>
      </trkpt>
      <trkpt lat="47.680154" lon="-1.133282">
        <ele>56.840328</ele>
        <time>2025-06-25T17:44:51.959Z</time>
      </trkpt>
      <trkpt lat="47.680157" lon="-1.133251">
        <ele>56.842725</ele>
        <time>2025-06-25T17:44:52.307Z</time>
      </trkpt>
      <trkpt lat="47.680173" lon="-1.133013">
        <ele>56.861032</ele>
        <time>2025-06-25T17:44:54.996Z</time>
      </trkpt>
      <trkpt lat="47.680191" lon="-1.132746">
        <ele>56.881571</ele>
        <time>2025-06-25T17:44:58.225Z</time>
      </trkpt>
      <trkpt lat="47.680200" lon="-1.132623">
        <ele>56.891041</ele>
        <time>2025-06-25T17:44:59.773Z</time>
      </trkpt>
      <trkpt lat="47.680210" lon="-1.132526">
        <ele>56.898552</ele>
        <time>2025-06-25T17:45:01.018Z</time>
      </trkpt>
      <trkpt lat="47.680219" lon="-1.132363">
        <ele>56.911070</ele>
        <time>2025-06-25T17:45:03.129Z</time>
      </trkpt>
      <trkpt lat="47.680239" lon="-1.132054">
        <ele>56.934830</ele>
        <time>2025-06-25T17:45:07.252Z</time>
      </trkpt>
      <trkpt lat="47.680242" lon="-1.132011">
        <ele>56.938139</ele>
        <time>2025-06-25T17:45:07.850Z</time>
      </trkpt>
      <trkpt lat="47.680262" lon="-1.131771">
        <ele>56.957099</ele>
        <time>2025-06-25T17:45:10.975Z</time>
      </trkpt>
      <trkpt lat="47.680299" lon="-1.131682">
        <ele>56.967538</ele>
        <time>2025-06-25T17:45:12.259Z</time>
      </trkpt>
      <trkpt lat="47.680376" lon="-1.131607">
        <ele>56.981188</ele>
        <time>2025-06-25T17:45:14.116Z</time>
      </trkpt>
      <trkpt lat="47.680816" lon="-1.131433">
        <ele>57.048685</ele>
        <time>2025-06-25T17:45:22.652Z</time>
      </trkpt>
      <trkpt lat="47.680854" lon="-1.131412">
        <ele>57.054695</ele>
        <time>2025-06-25T17:45:23.340Z</time>
      </trkpt>
      <trkpt lat="47.680936" lon="-1.131270">
        <ele>57.073366</ele>
        <time>2025-06-25T17:45:25.515Z</time>
      </trkpt>
      <trkpt lat="47.680940" lon="-1.131185">
        <ele>57.081870</ele>
        <time>2025-06-25T17:45:26.390Z</time>
      </trkpt>
      <trkpt lat="47.680995" lon="-1.131108">
        <ele>57.093074</ele>
        <time>2025-06-25T17:45:27.641Z</time>
      </trkpt>
      <trkpt lat="47.681044" lon="-1.131101">
        <ele>57.100372</ele>
        <time>2025-06-25T17:45:28.331Z</time>
      </trkpt>
      <trkpt lat="47.681068" lon="-1.131114">
        <ele>57.104158</ele>
        <time>2025-06-25T17:45:28.694Z</time>
      </trkpt>
      <trkpt lat="47.681162" lon="-1.130934">
        <ele>57.126894</ele>
        <time>2025-06-25T17:45:30.904Z</time>
      </trkpt>
      <trkpt lat="47.681224" lon="-1.130508">
        <ele>57.170391</ele>
        <time>2025-06-25T17:45:34.919Z</time>
      </trkpt>
      <trkpt lat="47.681267" lon="-1.130362">
        <ele>57.186296</ele>
        <time>2025-06-25T17:45:36.329Z</time>
      </trkpt>
      <trkpt lat="47.681345" lon="-1.130130">
        <ele>57.212176</ele>
        <time>2025-06-25T17:45:38.511Z</time>
      </trkpt>
      <trkpt lat="47.681591" lon="-1.129411">
        <ele>56.591270</ele>
        <time>2025-06-25T17:45:45.029Z</time>
      </trkpt>
      <trkpt lat="47.681704" lon="-1.129060">
        <ele>56.245811</ele>
        <time>2025-06-25T17:45:48.168Z</time>
      </trkpt>
      <trkpt lat="47.681771" lon="-1.128854">
        <ele>56.042674</ele>
        <time>2025-06-25T17:45:49.973Z</time>
      </trkpt>
      <trkpt lat="47.681837" lon="-1.128651">
        <ele>55.842510</ele>
        <time>2025-06-25T17:45:51.719Z</time>
      </trkpt>
      <trkpt lat="47.682613" lon="-1.126323">
        <ele>53.476448</ele>
        <time>2025-06-25T17:46:11.550Z</time>
      </trkpt>
      <trkpt lat="47.684938" lon="-1.119395">
        <ele>47.793076</ele>
        <time>2025-06-25T17:47:15.042Z</time>
      </trkpt>
      <trkpt lat="47.686211" lon="-1.115603">
        <ele>44.930246</ele>
        <time>2025-06-25T17:47:49.550Z</time>
      </trkpt>
      <trkpt lat="47.687974" lon="-1.110337">
        <ele>42.851085</ele>
        <time>2025-06-25T17:48:41.741Z</time>
      </trkpt>
      <trkpt lat="47.689744" lon="-1.105052">
        <ele>42.183304</ele>
        <time>2025-06-25T17:49:38.834Z</time>
      </trkpt>
      <trkpt lat="47.692713" lon="-1.096194">
        <ele>41.231158</ele>
        <time>2025-06-25T17:51:13.856Z</time>
      </trkpt>
      <trkpt lat="47.692872" lon="-1.095624">
        <ele>41.191307</ele>
        <time>2025-06-25T17:51:20.113Z</time>
      </trkpt>
      <trkpt lat="47.693161" lon="-1.094841">
        <ele>41.133630</ele>
        <time>2025-06-25T17:51:29.041Z</time>
      </trkpt>
      <trkpt lat="47.693213" lon="-1.094690">
        <ele>41.122675</ele>
        <time>2025-06-25T17:51:30.633Z</time>
      </trkpt>
      <trkpt lat="47.693377" lon="-1.094211">
        <ele>41.087965</ele>
        <time>2025-06-25T17:51:35.766Z</time>
      </trkpt>
      <trkpt lat="47.693495" lon="-1.093847">
        <ele>41.031444</ele>
        <time>2025-06-25T17:51:39.612Z</time>
      </trkpt>
      <trkpt lat="47.693688" lon="-1.093264">
        <ele>40.933327</ele>
        <time>2025-06-25T17:51:45.624Z</time>
      </trkpt>
      <trkpt lat="47.694001" lon="-1.092342">
        <ele>40.777380</ele>
        <time>2025-06-25T17:51:55.186Z</time>
      </trkpt>
      <trkpt lat="47.694061" lon="-1.092148">
        <ele>40.745138</ele>
        <time>2025-06-25T17:51:57.309Z</time>
      </trkpt>
      <trkpt lat="47.694114" lon="-1.091766">
        <ele>40.686236</ele>
        <time>2025-06-25T17:52:01.315Z</time>
      </trkpt>
      <trkpt lat="47.694116" lon="-1.091419">
        <ele>40.536813</ele>
        <time>2025-06-25T17:52:04.799Z</time>
      </trkpt>
      <trkpt lat="47.694109" lon="-1.091103">
        <ele>40.390966</ele>
        <time>2025-06-25T17:52:07.825Z</time>
      </trkpt>
      <trkpt lat="47.694095" lon="-1.090605">
        <ele>40.161043</ele>
        <time>2025-06-25T17:52:12.289Z</time>
      </trkpt>
      <trkpt lat="47.694085" lon="-1.090256">
        <ele>39.999906</ele>
        <time>2025-06-25T17:52:15.310Z</time>
      </trkpt>
      <trkpt lat="47.694081" lon="-1.089956">
        <ele>39.861492</ele>
        <time>2025-06-25T17:52:17.916Z</time>
      </trkpt>
      <trkpt lat="47.694058" lon="-1.089186">
        <ele>39.505948</ele>
        <time>2025-06-25T17:52:24.189Z</time>
      </trkpt>
      <trkpt lat="47.694078" lon="-1.088924">
        <ele>39.388121</ele>
        <time>2025-06-25T17:52:26.217Z</time>
      </trkpt>
      <trkpt lat="47.694292" lon="-1.088258">
        <ele>39.067918</ele>
        <time>2025-06-25T17:52:31.872Z</time>
      </trkpt>
      <trkpt lat="47.694433" lon="-1.087808">
        <ele>38.852553</ele>
        <time>2025-06-25T17:52:35.785Z</time>
      </trkpt>
      <trkpt lat="47.695270" lon="-1.085157">
        <ele>39.767222</ele>
        <time>2025-06-25T17:53:06.029Z</time>
      </trkpt>
      <trkpt lat="47.695355" lon="-1.084895">
        <ele>40.031127</ele>
        <time>2025-06-25T17:53:11.093Z</time>
      </trkpt>
      <trkpt lat="47.695400" lon="-1.084751">
        <ele>40.175184</ele>
        <time>2025-06-25T17:53:14.029Z</time>
      </trkpt>
      <trkpt lat="47.695866" lon="-1.083246">
        <ele>41.491878</ele>
        <time>2025-06-25T17:53:45.673Z</time>
      </trkpt>
      <trkpt lat="47.695957" lon="-1.082953">
        <ele>41.728078</ele>
        <time>2025-06-25T17:53:51.059Z</time>
      </trkpt>
      <trkpt lat="47.697484" lon="-1.078053">
        <ele>39.985231</ele>
        <time>2025-06-25T17:54:35.117Z</time>
      </trkpt>
      <trkpt lat="47.698549" lon="-1.074654">
        <ele>39.334728</ele>
        <time>2025-06-25T17:55:08.845Z</time>
      </trkpt>
      <trkpt lat="47.698605" lon="-1.074469">
        <ele>39.417155</ele>
        <time>2025-06-25T17:55:11.791Z</time>
      </trkpt>
      <trkpt lat="47.698685" lon="-1.074206">
        <ele>39.912558</ele>
        <time>2025-06-25T17:55:16.243Z</time>
      </trkpt>
      <trkpt lat="47.698986" lon="-1.073229">
        <ele>41.756917</ele>
        <time>2025-06-25T17:55:35.677Z</time>
      </trkpt>
      <trkpt lat="47.699340" lon="-1.072149">
        <ele>43.818872</ele>
        <time>2025-06-25T17:55:58.952Z</time>
      </trkpt>
      <trkpt lat="47.701844" lon="-1.064006">
        <ele>54.407490</ele>
        <time>2025-06-25T17:58:10.567Z</time>
      </trkpt>
      <trkpt lat="47.701930" lon="-1.063737">
        <ele>54.633607</ele>
        <time>2025-06-25T17:58:14.571Z</time>
      </trkpt>
      <trkpt lat="47.702394" lon="-1.062173">
        <ele>55.817567</ele>
        <time>2025-06-25T17:58:35.436Z</time>
      </trkpt>
      <trkpt lat="47.703429" lon="-1.058247">
        <ele>56.955719</ele>
        <time>2025-06-25T17:59:19.992Z</time>
      </trkpt>
      <trkpt lat="47.703725" lon="-1.057100">
        <ele>57.350394</ele>
        <time>2025-06-25T17:59:35.574Z</time>
      </trkpt>
      <trkpt lat="47.703864" lon="-1.056375">
        <ele>57.539051</ele>
        <time>2025-06-25T17:59:45.151Z</time>
      </trkpt>
      <trkpt lat="47.703897" lon="-1.055952">
        <ele>57.645620</ele>
        <time>2025-06-25T17:59:50.118Z</time>
      </trkpt>
      <trkpt lat="47.703899" lon="-1.055578">
        <ele>57.739220</ele>
        <time>2025-06-25T17:59:54.130Z</time>
      </trkpt>
      <trkpt lat="47.703853" lon="-1.055037">
        <ele>57.875687</ele>
        <time>2025-06-25T17:59:59.484Z</time>
      </trkpt>
      <trkpt lat="47.703541" lon="-1.052529">
        <ele>56.572742</ele>
        <time>2025-06-25T18:00:21.186Z</time>
      </trkpt>
      <trkpt lat="47.703197" lon="-1.049733">
        <ele>53.480844</ele>
        <time>2025-06-25T18:00:42.734Z</time>
      </trkpt>
      <trkpt lat="47.702748" lon="-1.046150">
        <ele>49.081120</ele>
        <time>2025-06-25T18:01:09.413Z</time>
      </trkpt>
      <trkpt lat="47.702712" lon="-1.045549">
        <ele>48.734476</ele>
        <time>2025-06-25T18:01:14.189Z</time>
      </trkpt>
      <trkpt lat="47.702714" lon="-1.045063">
        <ele>48.455260</ele>
        <time>2025-06-25T18:01:18.293Z</time>
      </trkpt>
      <trkpt lat="47.702873" lon="-1.041056">
        <ele>49.591190</ele>
        <time>2025-06-25T18:02:04.593Z</time>
      </trkpt>
      <trkpt lat="47.702972" lon="-1.038403">
        <ele>52.016310</ele>
        <time>2025-06-25T18:02:43.672Z</time>
      </trkpt>
      <trkpt lat="47.703002" lon="-1.037441">
        <ele>52.649617</ele>
        <time>2025-06-25T18:02:57.055Z</time>
      </trkpt>
      <trkpt lat="47.702970" lon="-1.036350">
        <ele>53.367760</ele>
        <time>2025-06-25T18:03:09.650Z</time>
      </trkpt>
      <trkpt lat="47.702950" lon="-1.036024">
        <ele>53.372175</ele>
        <time>2025-06-25T18:03:12.672Z</time>
      </trkpt>
      <trkpt lat="47.702882" lon="-1.034783">
        <ele>52.922258</ele>
        <time>2025-06-25T18:03:23.798Z</time>
      </trkpt>
      <trkpt lat="47.702857" lon="-1.034419">
        <ele>52.790044</ele>
        <time>2025-06-25T18:03:26.797Z</time>
      </trkpt>
      <trkpt lat="47.702848" lon="-1.034282">
        <ele>52.740304</ele>
        <time>2025-06-25T18:03:27.950Z</time>
      </trkpt>
      <trkpt lat="47.702840" lon="-1.034136">
        <ele>52.687372</ele>
        <time>2025-06-25T18:03:29.170Z</time>
      </trkpt>
      <trkpt lat="47.702817" lon="-1.033772">
        <ele>52.555263</ele>
        <time>2025-06-25T18:03:32.202Z</time>
      </trkpt>
      <trkpt lat="47.702813" lon="-1.033724">
        <ele>52.537786</ele>
        <time>2025-06-25T18:03:32.626Z</time>
      </trkpt>
      <trkpt lat="47.702765" lon="-1.032859">
        <ele>52.260783</ele>
        <time>2025-06-25T18:03:39.994Z</time>
      </trkpt>
      <trkpt lat="47.702740" lon="-1.032451">
        <ele>52.133838</ele>
        <time>2025-06-25T18:03:44.108Z</time>
      </trkpt>
      <trkpt lat="47.702715" lon="-1.032176">
        <ele>52.047853</ele>
        <time>2025-06-25T18:03:46.823Z</time>
      </trkpt>
      <trkpt lat="47.702709" lon="-1.032110">
        <ele>52.027216</ele>
        <time>2025-06-25T18:03:47.463Z</time>
      </trkpt>
      <trkpt lat="47.702700" lon="-1.032040">
        <ele>52.005134</ele>
        <time>2025-06-25T18:03:48.100Z</time>
      </trkpt>
      <trkpt lat="47.702678" lon="-1.031884">
        <ele>51.955746</ele>
        <time>2025-06-25T18:03:49.554Z</time>
      </trkpt>
      <trkpt lat="47.702615" lon="-1.031675">
        <ele>51.884786</ele>
        <time>2025-06-25T18:03:51.568Z</time>
      </trkpt>
      <trkpt lat="47.702592" lon="-1.031601">
        <ele>51.859529</ele>
        <time>2025-06-25T18:03:52.256Z</time>
      </trkpt>
      <trkpt lat="47.702607" lon="-1.031563">
        <ele>51.845878</ele>
        <time>2025-06-25T18:03:52.640Z</time>
      </trkpt>
      <trkpt lat="47.702635" lon="-1.031539">
        <ele>51.830995</ele>
        <time>2025-06-25T18:03:53.077Z</time>
      </trkpt>
      <trkpt lat="47.702820" lon="-1.031332">
        <ele>51.724367</ele>
        <time>2025-06-25T18:03:56.003Z</time>
      </trkpt>
      <trkpt lat="47.702827" lon="-1.031317">
        <ele>51.718711</ele>
        <time>2025-06-25T18:03:56.158Z</time>
      </trkpt>
      <trkpt lat="47.702875" lon="-1.031215">
        <ele>51.680145</ele>
        <time>2025-06-25T18:03:57.243Z</time>
      </trkpt>
      <trkpt lat="47.703032" lon="-1.030885">
        <ele>51.818837</ele>
        <time>2025-06-25T18:04:00.823Z</time>
      </trkpt>
      <trkpt lat="47.703240" lon="-1.030446">
        <ele>52.099963</ele>
        <time>2025-06-25T18:04:06.294Z</time>
      </trkpt>
      <trkpt lat="47.703333" lon="-1.030249">
        <ele>52.225965</ele>
        <time>2025-06-25T18:04:09.270Z</time>
      </trkpt>
      <trkpt lat="47.703359" lon="-1.030196">
        <ele>52.260308</ele>
        <time>2025-06-25T18:04:10.129Z</time>
      </trkpt>
      <trkpt lat="47.703476" lon="-1.029956">
        <ele>52.415484</ele>
        <time>2025-06-25T18:04:14.099Z</time>
      </trkpt>
      <trkpt lat="47.703553" lon="-1.029801">
        <ele>52.516363</ele>
        <time>2025-06-25T18:04:16.953Z</time>
      </trkpt>
      <trkpt lat="47.703623" lon="-1.029660">
        <ele>52.608108</ele>
        <time>2025-06-25T18:04:19.652Z</time>
      </trkpt>
      <trkpt lat="47.703646" lon="-1.029611">
        <ele>52.639390</ele>
        <time>2025-06-25T18:04:20.505Z</time>
      </trkpt>
      <trkpt lat="47.703694" lon="-1.029518">
        <ele>52.700759</ele>
        <time>2025-06-25T18:04:22.243Z</time>
      </trkpt>
      <trkpt lat="47.704106" lon="-1.028671">
        <ele>53.152154</ele>
        <time>2025-06-25T18:04:36.056Z</time>
      </trkpt>
      <trkpt lat="47.704235" lon="-1.028416">
        <ele>53.237304</ele>
        <time>2025-06-25T18:04:40.185Z</time>
      </trkpt>
      <trkpt lat="47.704144" lon="-1.028171">
        <ele>53.311998</ele>
        <time>2025-06-25T18:04:43.570Z</time>
      </trkpt>
      <trkpt lat="47.704134" lon="-1.028138">
        <ele>53.321658</ele>
        <time>2025-06-25T18:04:43.982Z</time>
      </trkpt>
      <trkpt lat="47.703986" lon="-1.027680">
        <ele>53.457269</ele>
        <time>2025-06-25T18:04:49.589Z</time>
      </trkpt>
      <trkpt lat="47.703834" lon="-1.027254">
        <ele>53.585970</ele>
        <time>2025-06-25T18:04:54.167Z</time>
      </trkpt>
      <trkpt lat="47.703753" lon="-1.027002">
        <ele>53.660512</ele>
        <time>2025-06-25T18:04:56.586Z</time>
      </trkpt>
      <trkpt lat="47.703615" lon="-1.026302">
        <ele>53.997889</ele>
        <time>2025-06-25T18:05:02.882Z</time>
      </trkpt>
      <trkpt lat="47.703545" lon="-1.026088">
        <ele>54.162874</ele>
        <time>2025-06-25T18:05:05.589Z</time>
      </trkpt>
      <trkpt lat="47.703425" lon="-1.025868">
        <ele>54.359235</ele>
        <time>2025-06-25T18:05:09.187Z</time>
      </trkpt>
      <trkpt lat="47.703024" lon="-1.025305">
        <ele>54.927659</ele>
        <time>2025-06-25T18:05:21.052Z</time>
      </trkpt>
      <trkpt lat="47.702669" lon="-1.024714">
        <ele>55.476955</ele>
        <time>2025-06-25T18:05:32.883Z</time>
      </trkpt>
      <trkpt lat="47.702395" lon="-1.024200">
        <ele>55.599119</ele>
        <time>2025-06-25T18:05:42.372Z</time>
      </trkpt>
      <trkpt lat="47.701818" lon="-1.022862">
        <ele>55.528541</ele>
        <time>2025-06-25T18:05:58.133Z</time>
      </trkpt>
      <trkpt lat="47.701701" lon="-1.022663">
        <ele>55.516804</ele>
        <time>2025-06-25T18:06:00.164Z</time>
      </trkpt>
      <trkpt lat="47.701592" lon="-1.022541">
        <ele>55.507799</ele>
        <time>2025-06-25T18:06:01.713Z</time>
      </trkpt>
      <trkpt lat="47.701470" lon="-1.022489">
        <ele>55.488526</ele>
        <time>2025-06-25T18:06:03.131Z</time>
      </trkpt>
      <trkpt lat="47.700876" lon="-1.022465">
        <ele>55.026852</ele>
        <time>2025-06-25T18:06:09.812Z</time>
      </trkpt>
      <trkpt lat="47.700772" lon="-1.022412">
        <ele>54.941430</ele>
        <time>2025-06-25T18:06:11.071Z</time>
      </trkpt>
      <trkpt lat="47.700624" lon="-1.022280">
        <ele>54.807318</ele>
        <time>2025-06-25T18:06:13.090Z</time>
      </trkpt>
      <trkpt lat="47.700459" lon="-1.022036">
        <ele>54.626454</ele>
        <time>2025-06-25T18:06:15.971Z</time>
      </trkpt>
      <trkpt lat="47.700364" lon="-1.021813">
        <ele>54.488453</ele>
        <time>2025-06-25T18:06:18.369Z</time>
      </trkpt>
      <trkpt lat="47.700165" lon="-1.020978">
        <ele>54.172845</ele>
        <time>2025-06-25T18:06:27.565Z</time>
      </trkpt>
      <trkpt lat="47.700029" lon="-1.020517">
        <ele>54.409400</ele>
        <time>2025-06-25T18:06:33.579Z</time>
      </trkpt>
      <trkpt lat="47.699917" lon="-1.020308">
        <ele>54.534957</ele>
        <time>2025-06-25T18:06:36.943Z</time>
      </trkpt>
      <trkpt lat="47.699661" lon="-1.019945">
        <ele>54.782063</ele>
        <time>2025-06-25T18:06:43.630Z</time>
      </trkpt>
      <trkpt lat="47.699563" lon="-1.019645">
        <ele>54.938785</ele>
        <time>2025-06-25T18:06:47.793Z</time>
      </trkpt>
      <trkpt lat="47.698761" lon="-1.014756">
        <ele>56.785099</ele>
        <time>2025-06-25T18:07:48.376Z</time>
      </trkpt>
      <trkpt lat="47.698636" lon="-1.014339">
        <ele>56.798280</ele>
        <time>2025-06-25T18:07:52.630Z</time>
      </trkpt>
      <trkpt lat="47.698092" lon="-1.012985">
        <ele>56.231306</ele>
        <time>2025-06-25T18:08:05.395Z</time>
      </trkpt>
      <trkpt lat="47.697999" lon="-1.012686">
        <ele>55.996705</ele>
        <time>2025-06-25T18:08:07.911Z</time>
      </trkpt>
      <trkpt lat="47.697891" lon="-1.012079">
        <ele>55.549523</ele>
        <time>2025-06-25T18:08:12.845Z</time>
      </trkpt>
      <trkpt lat="47.697886" lon="-1.011816">
        <ele>55.362129</ele>
        <time>2025-06-25T18:08:14.995Z</time>
      </trkpt>
      <trkpt lat="47.697913" lon="-1.011563">
        <ele>55.179680</ele>
        <time>2025-06-25T18:08:17.127Z</time>
      </trkpt>
      <trkpt lat="47.697959" lon="-1.011293">
        <ele>54.981310</ele>
        <time>2025-06-25T18:08:19.497Z</time>
      </trkpt>
      <trkpt lat="47.697970" lon="-1.010982">
        <ele>54.855175</ele>
        <time>2025-06-25T18:08:22.256Z</time>
      </trkpt>
      <trkpt lat="47.697872" lon="-1.010326">
        <ele>54.668160</ele>
        <time>2025-06-25T18:08:28.638Z</time>
      </trkpt>
      <trkpt lat="47.697809" lon="-1.010074">
        <ele>54.593343</ele>
        <time>2025-06-25T18:08:31.274Z</time>
      </trkpt>
      <trkpt lat="47.697704" lon="-1.009861">
        <ele>54.519863</ele>
        <time>2025-06-25T18:08:33.881Z</time>
      </trkpt>
      <trkpt lat="47.697373" lon="-1.009531">
        <ele>54.355032</ele>
        <time>2025-06-25T18:08:39.851Z</time>
      </trkpt>
      <trkpt lat="47.697269" lon="-1.009318">
        <ele>54.281795</ele>
        <time>2025-06-25T18:08:42.421Z</time>
      </trkpt>
      <trkpt lat="47.696707" lon="-1.007258">
        <ele>52.081545</ele>
        <time>2025-06-25T18:09:00.365Z</time>
      </trkpt>
      <trkpt lat="47.696666" lon="-1.007116">
        <ele>51.905077</ele>
        <time>2025-06-25T18:09:01.461Z</time>
      </trkpt>
      <trkpt lat="47.695765" lon="-1.003943">
        <ele>46.408495</ele>
        <time>2025-06-25T18:09:25.101Z</time>
      </trkpt>
      <trkpt lat="47.694824" lon="-1.000707">
        <ele>46.110024</ele>
        <time>2025-06-25T18:10:06.360Z</time>
      </trkpt>
      <trkpt lat="47.694387" lon="-0.999189">
        <ele>45.315152</ele>
        <time>2025-06-25T18:10:19.326Z</time>
      </trkpt>
      <trkpt lat="47.694024" lon="-0.997753">
        <ele>43.882466</ele>
        <time>2025-06-25T18:10:30.721Z</time>
      </trkpt>
      <trkpt lat="47.693886" lon="-0.997313">
        <ele>43.416404</ele>
        <time>2025-06-25T18:10:34.516Z</time>
      </trkpt>
      <trkpt lat="47.693302" lon="-0.996063">
        <ele>42.707790</ele>
        <time>2025-06-25T18:10:47.586Z</time>
      </trkpt>
      <trkpt lat="47.693223" lon="-0.995751">
        <ele>42.707185</ele>
        <time>2025-06-25T18:10:50.648Z</time>
      </trkpt>
      <trkpt lat="47.693240" lon="-0.995423">
        <ele>42.706588</ele>
        <time>2025-06-25T18:10:53.762Z</time>
      </trkpt>
      <trkpt lat="47.693519" lon="-0.994343">
        <ele>42.704487</ele>
        <time>2025-06-25T18:11:06.301Z</time>
      </trkpt>
      <trkpt lat="47.693566" lon="-0.994089">
        <ele>42.943581</ele>
        <time>2025-06-25T18:11:09.616Z</time>
      </trkpt>
      <trkpt lat="47.693650" lon="-0.992732">
        <ele>44.611794</ele>
        <time>2025-06-25T18:11:29.814Z</time>
      </trkpt>
      <trkpt lat="47.693599" lon="-0.992466">
        <ele>44.950376</ele>
        <time>2025-06-25T18:11:34.470Z</time>
      </trkpt>
      <trkpt lat="47.693501" lon="-0.992261">
        <ele>45.258186</ele>
        <time>2025-06-25T18:11:38.743Z</time>
      </trkpt>
      <trkpt lat="47.692741" lon="-0.991440">
        <ele>46.511127</ele>
        <time>2025-06-25T18:12:01.580Z</time>
      </trkpt>
      <trkpt lat="47.692182" lon="-0.990602">
        <ele>47.291159</ele>
        <time>2025-06-25T18:12:16.769Z</time>
      </trkpt>
      <trkpt lat="47.692055" lon="-0.990334">
        <ele>47.507856</ele>
        <time>2025-06-25T18:12:19.996Z</time>
      </trkpt>
      <trkpt lat="47.691754" lon="-0.989398">
        <ele>46.965257</ele>
        <time>2025-06-25T18:12:28.577Z</time>
      </trkpt>
      <trkpt lat="47.691569" lon="-0.989029">
        <ele>46.441605</ele>
        <time>2025-06-25T18:12:32.067Z</time>
      </trkpt>
      <trkpt lat="47.691352" lon="-0.988793">
        <ele>45.986895</ele>
        <time>2025-06-25T18:12:35.016Z</time>
      </trkpt>
      <trkpt lat="47.690721" lon="-0.988293">
        <ele>44.777723</ele>
        <time>2025-06-25T18:12:42.741Z</time>
      </trkpt>
      <trkpt lat="47.690047" lon="-0.987571">
        <ele>42.940254</ele>
        <time>2025-06-25T18:12:51.568Z</time>
      </trkpt>
      <trkpt lat="47.689975" lon="-0.987464">
        <ele>42.711997</ele>
        <time>2025-06-25T18:12:52.666Z</time>
      </trkpt>
      <trkpt lat="47.689893" lon="-0.987268">
        <ele>42.363830</ele>
        <time>2025-06-25T18:12:54.330Z</time>
      </trkpt>
      <trkpt lat="47.689853" lon="-0.987077">
        <ele>42.062042</ele>
        <time>2025-06-25T18:12:55.781Z</time>
      </trkpt>
      <trkpt lat="47.689474" lon="-0.984930">
        <ele>38.987103</ele>
        <time>2025-06-25T18:13:12.041Z</time>
      </trkpt>
      <trkpt lat="47.689350" lon="-0.984247">
        <ele>38.069180</ele>
        <time>2025-06-25T18:13:17.276Z</time>
      </trkpt>
      <trkpt lat="47.689211" lon="-0.982810">
        <ele>36.782279</ele>
        <time>2025-06-25T18:13:28.441Z</time>
      </trkpt>
      <trkpt lat="47.689061" lon="-0.982102">
        <ele>36.384241</ele>
        <time>2025-06-25T18:13:34.568Z</time>
      </trkpt>
      <trkpt lat="47.688920" lon="-0.981616">
        <ele>36.100439</ele>
        <time>2025-06-25T18:13:39.224Z</time>
      </trkpt>
      <trkpt lat="47.688512" lon="-0.980339">
        <ele>36.239480</ele>
        <time>2025-06-25T18:13:54.011Z</time>
      </trkpt>
      <trkpt lat="47.688238" lon="-0.979117">
        <ele>36.998425</ele>
        <time>2025-06-25T18:14:10.307Z</time>
      </trkpt>
      <trkpt lat="47.688114" lon="-0.978046">
        <ele>37.391214</ele>
        <time>2025-06-25T18:14:26.039Z</time>
      </trkpt>
      <trkpt lat="47.687995" lon="-0.977267">
        <ele>37.466283</ele>
        <time>2025-06-25T18:14:36.346Z</time>
      </trkpt>
      <trkpt lat="47.687890" lon="-0.976764">
        <ele>37.515774</ele>
        <time>2025-06-25T18:14:41.811Z</time>
      </trkpt>
      <trkpt lat="47.687771" lon="-0.976337">
        <ele>37.559205</ele>
        <time>2025-06-25T18:14:45.790Z</time>
      </trkpt>
      <trkpt lat="47.687725" lon="-0.976230">
        <ele>37.571137</ele>
        <time>2025-06-25T18:14:46.799Z</time>
      </trkpt>
      <trkpt lat="47.687626" lon="-0.976098">
        <ele>37.589708</ele>
        <time>2025-06-25T18:14:48.331Z</time>
      </trkpt>
      <trkpt lat="47.687278" lon="-0.975792">
        <ele>36.901036</ele>
        <time>2025-06-25T18:14:52.692Z</time>
      </trkpt>
      <trkpt lat="47.687137" lon="-0.975619">
        <ele>36.552277</ele>
        <time>2025-06-25T18:14:54.594Z</time>
      </trkpt>
      <trkpt lat="47.686757" lon="-0.974862">
        <ele>35.339987</ele>
        <time>2025-06-25T18:15:01.252Z</time>
      </trkpt>
      <trkpt lat="47.686498" lon="-0.974291">
        <ele>34.456051</ele>
        <time>2025-06-25T18:15:06.353Z</time>
      </trkpt>
      <trkpt lat="47.685713" lon="-0.971854">
        <ele>33.305402</ele>
        <time>2025-06-25T18:15:30.516Z</time>
      </trkpt>
      <trkpt lat="47.685205" lon="-0.969630">
        <ele>33.778325</ele>
        <time>2025-06-25T18:15:55.291Z</time>
      </trkpt>
      <trkpt lat="47.685078" lon="-0.969399">
        <ele>33.853348</ele>
        <time>2025-06-25T18:15:59.150Z</time>
      </trkpt>
      <trkpt lat="47.684914" lon="-0.969199">
        <ele>33.982925</ele>
        <time>2025-06-25T18:16:03.273Z</time>
      </trkpt>
      <trkpt lat="47.684262" lon="-0.968602">
        <ele>34.881449</ele>
        <time>2025-06-25T18:16:18.039Z</time>
      </trkpt>
      <trkpt lat="47.683883" lon="-0.968381">
        <ele>35.359098</ele>
        <time>2025-06-25T18:16:26.058Z</time>
      </trkpt>
      <trkpt lat="47.683469" lon="-0.968222">
        <ele>35.860745</ele>
        <time>2025-06-25T18:16:34.522Z</time>
      </trkpt>
      <trkpt lat="47.683348" lon="-0.968127">
        <ele>36.021644</ele>
        <time>2025-06-25T18:16:37.280Z</time>
      </trkpt>
      <trkpt lat="47.683234" lon="-0.967982">
        <ele>36.225881</ele>
        <time>2025-06-25T18:16:40.269Z</time>
      </trkpt>
      <trkpt lat="47.683184" lon="-0.967881">
        <ele>36.340735</ele>
        <time>2025-06-25T18:16:42.000Z</time>
      </trkpt>
      <trkpt lat="47.683125" lon="-0.967650">
        <ele>36.567082</ele>
        <time>2025-06-25T18:16:45.335Z</time>
      </trkpt>
      <trkpt lat="47.683065" lon="-0.966714">
        <ele>37.428469</ele>
        <time>2025-06-25T18:16:58.618Z</time>
      </trkpt>
      <trkpt lat="47.682983" lon="-0.966304">
        <ele>37.820313</ele>
        <time>2025-06-25T18:17:04.928Z</time>
      </trkpt>
      <trkpt lat="47.682815" lon="-0.965610">
        <ele>38.470427</ele>
        <time>2025-06-25T18:17:14.969Z</time>
      </trkpt>
      <trkpt lat="47.682718" lon="-0.965548">
        <ele>38.488323</ele>
        <time>2025-06-25T18:17:16.951Z</time>
      </trkpt>
      <trkpt lat="47.682688" lon="-0.965450">
        <ele>38.500606</ele>
        <time>2025-06-25T18:17:18.261Z</time>
      </trkpt>
      <trkpt lat="47.682316" lon="-0.965488">
        <ele>38.563798</ele>
        <time>2025-06-25T18:17:24.687Z</time>
      </trkpt>
      <trkpt lat="47.682098" lon="-0.965512">
        <ele>38.600845</ele>
        <time>2025-06-25T18:17:28.229Z</time>
      </trkpt>
      <trkpt lat="47.681393" lon="-0.965605">
        <ele>38.720793</ele>
        <time>2025-06-25T18:17:38.416Z</time>
      </trkpt>
      <trkpt lat="47.681290" lon="-0.965569">
        <ele>38.738726</ele>
        <time>2025-06-25T18:17:39.771Z</time>
      </trkpt>
      <trkpt lat="47.681315" lon="-0.965419">
        <ele>38.756357</ele>
        <time>2025-06-25T18:17:41.099Z</time>
      </trkpt>
      <trkpt lat="47.681735" lon="-0.964547">
        <ele>38.635811</ele>
        <time>2025-06-25T18:17:50.307Z</time>
      </trkpt>
      <trkpt lat="47.681857" lon="-0.964289">
        <ele>38.590188</ele>
        <time>2025-06-25T18:17:53.121Z</time>
      </trkpt>
      <trkpt lat="47.681905" lon="-0.964175">
        <ele>38.570731</ele>
        <time>2025-06-25T18:17:54.314Z</time>
      </trkpt>
      <trkpt lat="47.682181" lon="-0.963555">
        <ele>38.463175</ele>
        <time>2025-06-25T18:18:01.274Z</time>
      </trkpt>
      <trkpt lat="47.683045" lon="-0.962073">
        <ele>38.804910</ele>
        <time>2025-06-25T18:18:24.062Z</time>
      </trkpt>
      <trkpt lat="47.683134" lon="-0.961899">
        <ele>38.869512</ele>
        <time>2025-06-25T18:18:26.636Z</time>
      </trkpt>
      <trkpt lat="47.683220" lon="-0.961651">
        <ele>38.951983</ele>
        <time>2025-06-25T18:18:29.882Z</time>
      </trkpt>
      <trkpt lat="47.683320" lon="-0.961211">
        <ele>39.089272</ele>
        <time>2025-06-25T18:18:35.115Z</time>
      </trkpt>
      <trkpt lat="47.683382" lon="-0.960657">
        <ele>39.071035</ele>
        <time>2025-06-25T18:18:41.090Z</time>
      </trkpt>
      <trkpt lat="47.683521" lon="-0.959647">
        <ele>38.677823</ele>
        <time>2025-06-25T18:18:50.782Z</time>
      </trkpt>
      <trkpt lat="47.683778" lon="-0.958422">
        <ele>38.188410</ele>
        <time>2025-06-25T18:19:01.467Z</time>
      </trkpt>
      <trkpt lat="47.683940" lon="-0.957388">
        <ele>37.052318</ele>
        <time>2025-06-25T18:19:09.599Z</time>
      </trkpt>
      <trkpt lat="47.683971" lon="-0.957027">
        <ele>36.640904</ele>
        <time>2025-06-25T18:19:12.304Z</time>
      </trkpt>
      <trkpt lat="47.684022" lon="-0.955502">
        <ele>34.958321</ele>
        <time>2025-06-25T18:19:23.688Z</time>
      </trkpt>
      <trkpt lat="47.684103" lon="-0.954184">
        <ele>33.757353</ele>
        <time>2025-06-25T18:19:34.001Z</time>
      </trkpt>
      <trkpt lat="47.684263" lon="-0.952615">
        <ele>32.450437</ele>
        <time>2025-06-25T18:19:46.950Z</time>
      </trkpt>
      <trkpt lat="47.684337" lon="-0.950264">
        <ele>31.130905</ele>
        <time>2025-06-25T18:20:06.447Z</time>
      </trkpt>
      <trkpt lat="47.684300" lon="-0.949418">
        <ele>31.312066</ele>
        <time>2025-06-25T18:20:14.249Z</time>
      </trkpt>
      <trkpt lat="47.684122" lon="-0.946741">
        <ele>32.823773</ele>
        <time>2025-06-25T18:20:47.096Z</time>
      </trkpt>
      <trkpt lat="47.683963" lon="-0.944698">
        <ele>34.920296</ele>
        <time>2025-06-25T18:21:21.144Z</time>
      </trkpt>
      <trkpt lat="47.683807" lon="-0.944144">
        <ele>35.121417</ele>
        <time>2025-06-25T18:21:29.566Z</time>
      </trkpt>
      <trkpt lat="47.683705" lon="-0.943911">
        <ele>35.214500</ele>
        <time>2025-06-25T18:21:32.941Z</time>
      </trkpt>
      <trkpt lat="47.683571" lon="-0.943692">
        <ele>35.313615</ele>
        <time>2025-06-25T18:21:36.149Z</time>
      </trkpt>
      <trkpt lat="47.682623" lon="-0.942630">
        <ele>35.968930</ele>
        <time>2025-06-25T18:21:50.783Z</time>
      </trkpt>
      <trkpt lat="47.681873" lon="-0.941808">
        <ele>36.573906</ele>
        <time>2025-06-25T18:22:04.707Z</time>
      </trkpt>
      <trkpt lat="47.681719" lon="-0.941605">
        <ele>36.707548</ele>
        <time>2025-06-25T18:22:09.365Z</time>
      </trkpt>
      <trkpt lat="47.681259" lon="-0.940767">
        <ele>38.835434</ele>
        <time>2025-06-25T18:22:30.174Z</time>
      </trkpt>
      <trkpt lat="47.680582" lon="-0.939330">
        <ele>43.562835</ele>
        <time>2025-06-25T18:23:10.504Z</time>
      </trkpt>
      <trkpt lat="47.680433" lon="-0.938912">
        <ele>44.427509</ele>
        <time>2025-06-25T18:23:20.248Z</time>
      </trkpt>
      <trkpt lat="47.680225" lon="-0.938091">
        <ele>45.543929</ele>
        <time>2025-06-25T18:23:35.778Z</time>
      </trkpt>
      <trkpt lat="47.679489" lon="-0.934373">
        <ele>47.923287</ele>
        <time>2025-06-25T18:24:21.120Z</time>
      </trkpt>
      <trkpt lat="47.679175" lon="-0.932564">
        <ele>46.921243</ele>
        <time>2025-06-25T18:24:36.009Z</time>
      </trkpt>
      <trkpt lat="47.678983" lon="-0.931684">
        <ele>46.294492</ele>
        <time>2025-06-25T18:24:43.248Z</time>
      </trkpt>
      <trkpt lat="47.678830" lon="-0.930773">
        <ele>46.724190</ele>
        <time>2025-06-25T18:24:51.656Z</time>
      </trkpt>
      <trkpt lat="47.678628" lon="-0.929776">
        <ele>47.481720</ele>
        <time>2025-06-25T18:25:05.117Z</time>
      </trkpt>
      <trkpt lat="47.678576" lon="-0.929438">
        <ele>47.733981</ele>
        <time>2025-06-25T18:25:10.626Z</time>
      </trkpt>
      <trkpt lat="47.678432" lon="-0.927712">
        <ele>49.986885</ele>
        <time>2025-06-25T18:25:41.590Z</time>
      </trkpt>
      <trkpt lat="47.678326" lon="-0.927097">
        <ele>50.965083</ele>
        <time>2025-06-25T18:25:52.386Z</time>
      </trkpt>
      <trkpt lat="47.678007" lon="-0.926162">
        <ele>52.259473</ele>
        <time>2025-06-25T18:26:07.694Z</time>
      </trkpt>
      <trkpt lat="47.677608" lon="-0.925234">
        <ele>52.391965</ele>
        <time>2025-06-25T18:26:20.167Z</time>
      </trkpt>
      <trkpt lat="47.677479" lon="-0.924961">
        <ele>52.432097</ele>
        <time>2025-06-25T18:26:23.640Z</time>
      </trkpt>
      <trkpt lat="47.677384" lon="-0.924654">
        <ele>52.472754</ele>
        <time>2025-06-25T18:26:26.851Z</time>
      </trkpt>
      <trkpt lat="47.677245" lon="-0.923695">
        <ele>52.216047</ele>
        <time>2025-06-25T18:26:35.056Z</time>
      </trkpt>
      <trkpt lat="47.677132" lon="-0.923214">
        <ele>51.657203</ele>
        <time>2025-06-25T18:26:38.972Z</time>
      </trkpt>
      <trkpt lat="47.676839" lon="-0.922506">
        <ele>50.745561</ele>
        <time>2025-06-25T18:26:45.293Z</time>
      </trkpt>
      <trkpt lat="47.676738" lon="-0.922194">
        <ele>50.365797</ele>
        <time>2025-06-25T18:26:47.852Z</time>
      </trkpt>
      <trkpt lat="47.676662" lon="-0.921699">
        <ele>49.808847</ele>
        <time>2025-06-25T18:26:51.540Z</time>
      </trkpt>
      <trkpt lat="47.676564" lon="-0.920740">
        <ele>49.049106</ele>
        <time>2025-06-25T18:26:58.708Z</time>
      </trkpt>
      <trkpt lat="47.676430" lon="-0.919604">
        <ele>48.222190</ele>
        <time>2025-06-25T18:27:08.292Z</time>
      </trkpt>
      <trkpt lat="47.676316" lon="-0.919018">
        <ele>47.784841</ele>
        <time>2025-06-25T18:27:14.160Z</time>
      </trkpt>
      <trkpt lat="47.676263" lon="-0.917847">
        <ele>47.121386</ele>
        <time>2025-06-25T18:27:25.275Z</time>
      </trkpt>
      <trkpt lat="47.676217" lon="-0.917167">
        <ele>46.745470</ele>
        <time>2025-06-25T18:27:31.219Z</time>
      </trkpt>
      <trkpt lat="47.676209" lon="-0.916269">
        <ele>46.251484</ele>
        <time>2025-06-25T18:27:38.270Z</time>
      </trkpt>
      <trkpt lat="47.676357" lon="-0.912053">
        <ele>41.206298</ele>
        <time>2025-06-25T18:28:09.884Z</time>
      </trkpt>
      <trkpt lat="47.676422" lon="-0.910192">
        <ele>38.686036</ele>
        <time>2025-06-25T18:28:24.156Z</time>
      </trkpt>
      <trkpt lat="47.676486" lon="-0.909416">
        <ele>37.421450</ele>
        <time>2025-06-25T18:28:29.849Z</time>
      </trkpt>
      <trkpt lat="47.676556" lon="-0.909053">
        <ele>36.810681</ele>
        <time>2025-06-25T18:28:32.520Z</time>
      </trkpt>
      <trkpt lat="47.676668" lon="-0.908708">
        <ele>36.191157</ele>
        <time>2025-06-25T18:28:35.177Z</time>
      </trkpt>
      <trkpt lat="47.677115" lon="-0.907657">
        <ele>33.718192</ele>
        <time>2025-06-25T18:28:43.576Z</time>
      </trkpt>
      <trkpt lat="47.677209" lon="-0.907354">
        <ele>32.993553</ele>
        <time>2025-06-25T18:28:45.811Z</time>
      </trkpt>
      <trkpt lat="47.677264" lon="-0.907082">
        <ele>32.376683</ele>
        <time>2025-06-25T18:28:47.713Z</time>
      </trkpt>
      <trkpt lat="47.677349" lon="-0.906303">
        <ele>30.662569</ele>
        <time>2025-06-25T18:28:53.059Z</time>
      </trkpt>
      <trkpt lat="47.677401" lon="-0.905639">
        <ele>29.463511</ele>
        <time>2025-06-25T18:28:57.683Z</time>
      </trkpt>
      <trkpt lat="47.677347" lon="-0.904907">
        <ele>28.648737</ele>
        <time>2025-06-25T18:29:03.012Z</time>
      </trkpt>
      <trkpt lat="47.677331" lon="-0.904148">
        <ele>27.808523</ele>
        <time>2025-06-25T18:29:08.853Z</time>
      </trkpt>
      <trkpt lat="47.677394" lon="-0.902064">
        <ele>26.525187</ele>
        <time>2025-06-25T18:29:26.924Z</time>
      </trkpt>
      <trkpt lat="47.677499" lon="-0.901431">
        <ele>26.385934</ele>
        <time>2025-06-25T18:29:33.188Z</time>
      </trkpt>
      <trkpt lat="47.678037" lon="-0.899475">
        <ele>26.092199</ele>
        <time>2025-06-25T18:29:54.444Z</time>
      </trkpt>
      <trkpt lat="47.678359" lon="-0.898192">
        <ele>25.973557</ele>
        <time>2025-06-25T18:30:07.440Z</time>
      </trkpt>
      <trkpt lat="47.678456" lon="-0.897742">
        <ele>25.907660</ele>
        <time>2025-06-25T18:30:11.788Z</time>
      </trkpt>
      <trkpt lat="47.678582" lon="-0.896783">
        <ele>25.763763</ele>
        <time>2025-06-25T18:30:20.857Z</time>
      </trkpt>
      <trkpt lat="47.678641" lon="-0.896527">
        <ele>25.723914</ele>
        <time>2025-06-25T18:30:23.372Z</time>
      </trkpt>
      <trkpt lat="47.678698" lon="-0.896307">
        <ele>25.689199</ele>
        <time>2025-06-25T18:30:25.578Z</time>
      </trkpt>
      <trkpt lat="47.678979" lon="-0.895669">
        <ele>25.576922</ele>
        <time>2025-06-25T18:30:32.919Z</time>
      </trkpt>
      <trkpt lat="47.679120" lon="-0.895251">
        <ele>25.560526</ele>
        <time>2025-06-25T18:30:37.546Z</time>
      </trkpt>
      <trkpt lat="47.679153" lon="-0.894964">
        <ele>25.551324</ele>
        <time>2025-06-25T18:30:40.445Z</time>
      </trkpt>
      <trkpt lat="47.679178" lon="-0.893843">
        <ele>25.515877</ele>
        <time>2025-06-25T18:30:51.379Z</time>
      </trkpt>
      <trkpt lat="47.679207" lon="-0.893473">
        <ele>25.504104</ele>
        <time>2025-06-25T18:30:54.935Z</time>
      </trkpt>
      <trkpt lat="47.679466" lon="-0.891673">
        <ele>25.716031</ele>
        <time>2025-06-25T18:31:13.887Z</time>
      </trkpt>
      <trkpt lat="47.679631" lon="-0.890349">
        <ele>25.910703</ele>
        <time>2025-06-25T18:31:29.170Z</time>
      </trkpt>
      <trkpt lat="47.679625" lon="-0.889987">
        <ele>25.876769</ele>
        <time>2025-06-25T18:31:33.172Z</time>
      </trkpt>
      <trkpt lat="47.679313" lon="-0.888562">
        <ele>25.736346</ele>
        <time>2025-06-25T18:31:47.792Z</time>
      </trkpt>
      <trkpt lat="47.679237" lon="-0.888355">
        <ele>25.714250</ele>
        <time>2025-06-25T18:31:49.836Z</time>
      </trkpt>
      <trkpt lat="47.678691" lon="-0.887511">
        <ele>25.474370</ele>
        <time>2025-06-25T18:31:59.923Z</time>
      </trkpt>
      <trkpt lat="47.678384" lon="-0.886877">
        <ele>25.251296</ele>
        <time>2025-06-25T18:32:06.846Z</time>
      </trkpt>
      <trkpt lat="47.678262" lon="-0.886516">
        <ele>25.135916</ele>
        <time>2025-06-25T18:32:10.478Z</time>
      </trkpt>
      <trkpt lat="47.678111" lon="-0.885812">
        <ele>24.924860</ele>
        <time>2025-06-25T18:32:17.333Z</time>
      </trkpt>
      <trkpt lat="47.677965" lon="-0.885435">
        <ele>24.932598</ele>
        <time>2025-06-25T18:32:21.525Z</time>
      </trkpt>
      <trkpt lat="47.677237" lon="-0.882784">
        <ele>25.160357</ele>
        <time>2025-06-25T18:32:51.542Z</time>
      </trkpt>
      <trkpt lat="47.677189" lon="-0.882771">
        <ele>25.167372</ele>
        <time>2025-06-25T18:32:52.307Z</time>
      </trkpt>
      <trkpt lat="47.677177" lon="-0.882715">
        <ele>25.173061</ele>
        <time>2025-06-25T18:32:52.934Z</time>
      </trkpt>
      <trkpt lat="47.677201" lon="-0.882669">
        <ele>25.178694</ele>
        <time>2025-06-25T18:32:53.550Z</time>
      </trkpt>
      <trkpt lat="47.677258" lon="-0.882701">
        <ele>25.187455</ele>
        <time>2025-06-25T18:32:54.470Z</time>
      </trkpt>
      <trkpt lat="47.677504" lon="-0.882478">
        <ele>25.228889</ele>
        <time>2025-06-25T18:32:58.905Z</time>
      </trkpt>
      <trkpt lat="47.678401" lon="-0.881579">
        <ele>25.534677</ele>
        <time>2025-06-25T18:33:15.559Z</time>
      </trkpt>
      <trkpt lat="47.678549" lon="-0.881431">
        <ele>25.758401</ele>
        <time>2025-06-25T18:33:18.261Z</time>
      </trkpt>
      <trkpt lat="47.678780" lon="-0.881255">
        <ele>26.083946</ele>
        <time>2025-06-25T18:33:22.298Z</time>
      </trkpt>
      <trkpt lat="47.679052" lon="-0.881073">
        <ele>26.458026</ele>
        <time>2025-06-25T18:33:27.510Z</time>
      </trkpt>
      <trkpt lat="47.679118" lon="-0.880922">
        <ele>26.610014</ele>
        <time>2025-06-25T18:33:29.801Z</time>
      </trkpt>
      <trkpt lat="47.679067" lon="-0.880821">
        <ele>26.716599</ele>
        <time>2025-06-25T18:33:31.442Z</time>
      </trkpt>
      <trkpt lat="47.679061" lon="-0.880757">
        <ele>26.771152</ele>
        <time>2025-06-25T18:33:32.328Z</time>
      </trkpt>
      <trkpt lat="47.679093" lon="-0.880640">
        <ele>26.877767</ele>
        <time>2025-06-25T18:33:34.066Z</time>
      </trkpt>
      <trkpt lat="47.679167" lon="-0.880577">
        <ele>26.984720</ele>
        <time>2025-06-25T18:33:35.869Z</time>
      </trkpt>
      <trkpt lat="47.679210" lon="-0.880577">
        <ele>27.038639</ele>
        <time>2025-06-25T18:33:36.803Z</time>
      </trkpt>
      <trkpt lat="47.679305" lon="-0.880686">
        <ele>27.189166</ele>
        <time>2025-06-25T18:33:39.502Z</time>
      </trkpt>
      <trkpt lat="47.679314" lon="-0.880807">
        <ele>27.291941</ele>
        <time>2025-06-25T18:33:41.402Z</time>
      </trkpt>
      <trkpt lat="47.679470" lon="-0.880809">
        <ele>27.487560</ele>
        <time>2025-06-25T18:33:45.241Z</time>
      </trkpt>
      <trkpt lat="47.679511" lon="-0.880772">
        <ele>27.547716</ele>
        <time>2025-06-25T18:33:46.473Z</time>
      </trkpt>
      <trkpt lat="47.679909" lon="-0.880008">
        <ele>29.999226</ele>
        <time>2025-06-25T18:34:04.673Z</time>
      </trkpt>
      <trkpt lat="47.680180" lon="-0.879746">
        <ele>31.297609</ele>
        <time>2025-06-25T18:34:15.235Z</time>
      </trkpt>
      <trkpt lat="47.680731" lon="-0.879215">
        <ele>33.934983</ele>
        <time>2025-06-25T18:34:38.040Z</time>
      </trkpt>
      <trkpt lat="47.681283" lon="-0.878652">
        <ele>36.208625</ele>
        <time>2025-06-25T18:35:00.144Z</time>
      </trkpt>
      <trkpt lat="47.682505" lon="-0.877438">
        <ele>40.524426</ele>
        <time>2025-06-25T18:35:37.720Z</time>
      </trkpt>
      <trkpt lat="47.682618" lon="-0.877382">
        <ele>40.672229</ele>
        <time>2025-06-25T18:35:40.035Z</time>
      </trkpt>
      <trkpt lat="47.682618" lon="-0.877354">
        <ele>40.695618</ele>
        <time>2025-06-25T18:35:40.415Z</time>
      </trkpt>
      <trkpt lat="47.682669" lon="-0.877281">
        <ele>40.783496</ele>
        <time>2025-06-25T18:35:41.738Z</time>
      </trkpt>
      <trkpt lat="47.682671" lon="-0.876795">
        <ele>41.189468</ele>
        <time>2025-06-25T18:35:47.865Z</time>
      </trkpt>
      <trkpt lat="47.682724" lon="-0.876201">
        <ele>41.689986</ele>
        <time>2025-06-25T18:35:55.141Z</time>
      </trkpt>
      <trkpt lat="47.682875" lon="-0.875141">
        <ele>42.595027</ele>
        <time>2025-06-25T18:36:08.684Z</time>
      </trkpt>
      <trkpt lat="47.682917" lon="-0.874984">
        <ele>42.561377</ele>
        <time>2025-06-25T18:36:10.942Z</time>
      </trkpt>
      <trkpt lat="47.683053" lon="-0.874085">
        <ele>42.235799</ele>
        <time>2025-06-25T18:36:23.071Z</time>
      </trkpt>
      <trkpt lat="47.683115" lon="-0.873730">
        <ele>42.106210</ele>
        <time>2025-06-25T18:36:27.579Z</time>
      </trkpt>
      <trkpt lat="47.683211" lon="-0.873394">
        <ele>41.977237</ele>
        <time>2025-06-25T18:36:31.711Z</time>
      </trkpt>
      <trkpt lat="47.683262" lon="-0.873228">
        <ele>41.912763</ele>
        <time>2025-06-25T18:36:33.319Z</time>
      </trkpt>
      <trkpt lat="47.683481" lon="-0.872583">
        <ele>41.542015</ele>
        <time>2025-06-25T18:36:38.417Z</time>
      </trkpt>
      <trkpt lat="47.683545" lon="-0.872413">
        <ele>40.799635</ele>
        <time>2025-06-25T18:36:39.671Z</time>
      </trkpt>
      <trkpt lat="47.683619" lon="-0.872197">
        <ele>39.875889</ele>
        <time>2025-06-25T18:36:41.196Z</time>
      </trkpt>
      <trkpt lat="47.683709" lon="-0.871963">
        <ele>38.848718</ele>
        <time>2025-06-25T18:36:42.862Z</time>
      </trkpt>
      <trkpt lat="47.684029" lon="-0.871210">
        <ele>35.454720</ele>
        <time>2025-06-25T18:36:48.256Z</time>
      </trkpt>
      <trkpt lat="47.684272" lon="-0.870862">
        <ele>33.543711</ele>
        <time>2025-06-25T18:36:51.290Z</time>
      </trkpt>
      <trkpt lat="47.684325" lon="-0.870776">
        <ele>33.099327</ele>
        <time>2025-06-25T18:36:51.993Z</time>
      </trkpt>
      <trkpt lat="47.684346" lon="-0.870690">
        <ele>32.750649</ele>
        <time>2025-06-25T18:36:52.545Z</time>
      </trkpt>
      <trkpt lat="47.684449" lon="-0.870739">
        <ele>32.138337</ele>
        <time>2025-06-25T18:36:53.529Z</time>
      </trkpt>
      <trkpt lat="47.684665" lon="-0.870850">
        <ele>31.123946</ele>
        <time>2025-06-25T18:36:55.636Z</time>
      </trkpt>
      <trkpt lat="47.684830" lon="-0.870869">
        <ele>30.595104</ele>
        <time>2025-06-25T18:36:57.220Z</time>
      </trkpt>
      <trkpt lat="47.684863" lon="-0.870877">
        <ele>30.488257</ele>
        <time>2025-06-25T18:36:57.551Z</time>
      </trkpt>
      <trkpt lat="47.685337" lon="-0.870840">
        <ele>28.971493</ele>
        <time>2025-06-25T18:37:02.350Z</time>
      </trkpt>
      <trkpt lat="47.685358" lon="-0.870773">
        <ele>28.812505</ele>
        <time>2025-06-25T18:37:02.857Z</time>
      </trkpt>
      <trkpt lat="47.685384" lon="-0.870765">
        <ele>28.727658</ele>
        <time>2025-06-25T18:37:03.128Z</time>
      </trkpt>
      <trkpt lat="47.685459" lon="-0.870856">
        <ele>28.418205</ele>
        <time>2025-06-25T18:37:04.173Z</time>
      </trkpt>
      <trkpt lat="47.685761" lon="-0.870841">
        <ele>27.452621</ele>
        <time>2025-06-25T18:37:07.334Z</time>
      </trkpt>
      <trkpt lat="47.685858" lon="-0.870830">
        <ele>27.141754</ele>
        <time>2025-06-25T18:37:08.340Z</time>
      </trkpt>
      <trkpt lat="47.686035" lon="-0.870758">
        <ele>26.555324</ele>
        <time>2025-06-25T18:37:10.325Z</time>
      </trkpt>
      <trkpt lat="47.686087" lon="-0.870697">
        <ele>26.343591</ele>
        <time>2025-06-25T18:37:11.026Z</time>
      </trkpt>
      <trkpt lat="47.686117" lon="-0.870553">
        <ele>26.019325</ele>
        <time>2025-06-25T18:37:12.227Z</time>
      </trkpt>
      <trkpt lat="47.686162" lon="-0.869492">
        <ele>25.583912</ele>
        <time>2025-06-25T18:37:20.781Z</time>
      </trkpt>
      <trkpt lat="47.686200" lon="-0.869354">
        <ele>25.559169</ele>
        <time>2025-06-25T18:37:22.029Z</time>
      </trkpt>
      <trkpt lat="47.686255" lon="-0.869250">
        <ele>25.537222</ele>
        <time>2025-06-25T18:37:23.160Z</time>
      </trkpt>
      <trkpt lat="47.686340" lon="-0.869165">
        <ele>25.511963</ele>
        <time>2025-06-25T18:37:24.538Z</time>
      </trkpt>
      <trkpt lat="47.686609" lon="-0.869065">
        <ele>25.443607</ele>
        <time>2025-06-25T18:37:28.554Z</time>
      </trkpt>
      <trkpt lat="47.686583" lon="-0.868909">
        <ele>25.416938</ele>
        <time>2025-06-25T18:37:30.239Z</time>
      </trkpt>
      <trkpt lat="47.686587" lon="-0.868767">
        <ele>25.393353</ele>
        <time>2025-06-25T18:37:31.927Z</time>
      </trkpt>
      <trkpt lat="47.686704" lon="-0.867469">
        <ele>25.628702</ele>
        <time>2025-06-25T18:37:50.012Z</time>
      </trkpt>
      <trkpt lat="47.686733" lon="-0.866454">
        <ele>26.099972</ele>
        <time>2025-06-25T18:38:02.839Z</time>
      </trkpt>
      <trkpt lat="47.686929" lon="-0.864960">
        <ele>26.137024</ele>
        <time>2025-06-25T18:38:18.443Z</time>
      </trkpt>
      <trkpt lat="47.687090" lon="-0.863311">
        <ele>25.004004</ele>
        <time>2025-06-25T18:38:31.387Z</time>
      </trkpt>
      <trkpt lat="47.687259" lon="-0.860612">
        <ele>23.628199</ele>
        <time>2025-06-25T18:38:52.687Z</time>
      </trkpt>
      <trkpt lat="47.687297" lon="-0.860360">
        <ele>23.505307</ele>
        <time>2025-06-25T18:38:55.987Z</time>
      </trkpt>
      <trkpt lat="47.687390" lon="-0.859978">
        <ele>24.009910</ele>
        <time>2025-06-25T18:39:01.720Z</time>
      </trkpt>
      <trkpt lat="47.687488" lon="-0.859750">
        <ele>24.549429</ele>
        <time>2025-06-25T18:39:05.971Z</time>
      </trkpt>
      <trkpt lat="47.687809" lon="-0.857721">
        <ele>28.706367</ele>
        <time>2025-06-25T18:39:47.788Z</time>
      </trkpt>
      <trkpt lat="47.687909" lon="-0.857034">
        <ele>30.064468</ele>
        <time>2025-06-25T18:40:01.111Z</time>
      </trkpt>
      <trkpt lat="47.687932" lon="-0.855717">
        <ele>32.605791</ele>
        <time>2025-06-25T18:40:25.058Z</time>
      </trkpt>
      <trkpt lat="47.687992" lon="-0.854777">
        <ele>34.351095</ele>
        <time>2025-06-25T18:40:40.018Z</time>
      </trkpt>
      <trkpt lat="47.688006" lon="-0.854204">
        <ele>35.288107</ele>
        <time>2025-06-25T18:40:48.111Z</time>
      </trkpt>
      <trkpt lat="47.687991" lon="-0.853644">
        <ele>36.203982</ele>
        <time>2025-06-25T18:40:56.328Z</time>
      </trkpt>
      <trkpt lat="47.687951" lon="-0.853260">
        <ele>36.838983</ele>
        <time>2025-06-25T18:41:02.622Z</time>
      </trkpt>
      <trkpt lat="47.687883" lon="-0.852518">
        <ele>38.062744</ele>
        <time>2025-06-25T18:41:16.146Z</time>
      </trkpt>
      <trkpt lat="47.687880" lon="-0.852138">
        <ele>38.816063</ele>
        <time>2025-06-25T18:41:23.422Z</time>
      </trkpt>
      <trkpt lat="47.688010" lon="-0.851062">
        <ele>41.211673</ele>
        <time>2025-06-25T18:41:45.752Z</time>
      </trkpt>
      <trkpt lat="47.688010" lon="-0.850685">
        <ele>42.037826</ele>
        <time>2025-06-25T18:41:53.800Z</time>
      </trkpt>
      <trkpt lat="47.687978" lon="-0.850309">
        <ele>42.868346</ele>
        <time>2025-06-25T18:42:01.440Z</time>
      </trkpt>
      <trkpt lat="47.687785" lon="-0.849010">
        <ele>44.315089</ele>
        <time>2025-06-25T18:42:21.849Z</time>
      </trkpt>
      <trkpt lat="47.687673" lon="-0.847686">
        <ele>44.609011</ele>
        <time>2025-06-25T18:42:34.611Z</time>
      </trkpt>
      <trkpt lat="47.687596" lon="-0.847329">
        <ele>44.691582</ele>
        <time>2025-06-25T18:42:37.794Z</time>
      </trkpt>
      <trkpt lat="47.687013" lon="-0.845426">
        <ele>43.200878</ele>
        <time>2025-06-25T18:42:54.666Z</time>
      </trkpt>
      <trkpt lat="47.686395" lon="-0.841636">
        <ele>38.423776</ele>
        <time>2025-06-25T18:43:24.762Z</time>
      </trkpt>
      <trkpt lat="47.686318" lon="-0.840913">
        <ele>36.501172</ele>
        <time>2025-06-25T18:43:29.682Z</time>
      </trkpt>
      <trkpt lat="47.686289" lon="-0.840156">
        <ele>34.509665</ele>
        <time>2025-06-25T18:43:34.533Z</time>
      </trkpt>
      <trkpt lat="47.686325" lon="-0.839395">
        <ele>32.517602</ele>
        <time>2025-06-25T18:43:39.265Z</time>
      </trkpt>
      <trkpt lat="47.686443" lon="-0.837885">
        <ele>30.247762</ele>
        <time>2025-06-25T18:43:49.136Z</time>
      </trkpt>
      <trkpt lat="47.686554" lon="-0.837540">
        <ele>29.676805</ele>
        <time>2025-06-25T18:43:52.133Z</time>
      </trkpt>
      <trkpt lat="47.687038" lon="-0.836625">
        <ele>29.467177</ele>
        <time>2025-06-25T18:44:07.995Z</time>
      </trkpt>
      <trkpt lat="47.687156" lon="-0.836318">
        <ele>30.274168</ele>
        <time>2025-06-25T18:44:15.324Z</time>
      </trkpt>
      <trkpt lat="47.687445" lon="-0.834991">
        <ele>33.457940</ele>
        <time>2025-06-25T18:44:45.800Z</time>
      </trkpt>
      <trkpt lat="47.687715" lon="-0.834188">
        <ele>35.305506</ele>
        <time>2025-06-25T18:45:03.557Z</time>
      </trkpt>
      <trkpt lat="47.687958" lon="-0.832926">
        <ele>37.603592</ele>
        <time>2025-06-25T18:45:25.924Z</time>
      </trkpt>
      <trkpt lat="47.688056" lon="-0.832567">
        <ele>38.281830</ele>
        <time>2025-06-25T18:45:31.955Z</time>
      </trkpt>
      <trkpt lat="47.688198" lon="-0.832293">
        <ele>38.887233</ele>
        <time>2025-06-25T18:45:37.226Z</time>
      </trkpt>
      <trkpt lat="47.688996" lon="-0.831263">
        <ele>40.327564</ele>
        <time>2025-06-25T18:46:00.208Z</time>
      </trkpt>
      <trkpt lat="47.689183" lon="-0.830974">
        <ele>40.632705</ele>
        <time>2025-06-25T18:46:05.456Z</time>
      </trkpt>
      <trkpt lat="47.689338" lon="-0.830639">
        <ele>40.942138</ele>
        <time>2025-06-25T18:46:10.283Z</time>
      </trkpt>
      <trkpt lat="47.689401" lon="-0.830290">
        <ele>41.217185</ele>
        <time>2025-06-25T18:46:14.276Z</time>
      </trkpt>
      <trkpt lat="47.689400" lon="-0.829870">
        <ele>41.260333</ele>
        <time>2025-06-25T18:46:18.603Z</time>
      </trkpt>
      <trkpt lat="47.689344" lon="-0.829625">
        <ele>41.158711</ele>
        <time>2025-06-25T18:46:21.102Z</time>
      </trkpt>
      <trkpt lat="47.689215" lon="-0.829327">
        <ele>41.019556</ele>
        <time>2025-06-25T18:46:24.360Z</time>
      </trkpt>
      <trkpt lat="47.689170" lon="-0.829080">
        <ele>40.919053</ele>
        <time>2025-06-25T18:46:26.614Z</time>
      </trkpt>
      <trkpt lat="47.689154" lon="-0.828743">
        <ele>40.786364</ele>
        <time>2025-06-25T18:46:29.492Z</time>
      </trkpt>
      <trkpt lat="47.689027" lon="-0.827817">
        <ele>40.415194</ele>
        <time>2025-06-25T18:46:37.287Z</time>
      </trkpt>
      <trkpt lat="47.688992" lon="-0.827178">
        <ele>40.035406</ele>
        <time>2025-06-25T18:46:42.581Z</time>
      </trkpt>
      <trkpt lat="47.688889" lon="-0.826120">
        <ele>39.236117</ele>
        <time>2025-06-25T18:46:51.209Z</time>
      </trkpt>
      <trkpt lat="47.688868" lon="-0.825617">
        <ele>38.859305</ele>
        <time>2025-06-25T18:46:55.211Z</time>
      </trkpt>
      <trkpt lat="47.688893" lon="-0.825090">
        <ele>38.464293</ele>
        <time>2025-06-25T18:46:59.439Z</time>
      </trkpt>
      <trkpt lat="47.689003" lon="-0.824075">
        <ele>37.988964</ele>
        <time>2025-06-25T18:47:07.866Z</time>
      </trkpt>
      <trkpt lat="47.689095" lon="-0.822341">
        <ele>37.312239</ele>
        <time>2025-06-25T18:47:23.298Z</time>
      </trkpt>
      <trkpt lat="47.689028" lon="-0.821164">
        <ele>37.654980</ele>
        <time>2025-06-25T18:47:35.939Z</time>
      </trkpt>
      <trkpt lat="47.688913" lon="-0.819814">
        <ele>38.149138</ele>
        <time>2025-06-25T18:47:52.378Z</time>
      </trkpt>
      <trkpt lat="47.688877" lon="-0.818616">
        <ele>38.871288</ele>
        <time>2025-06-25T18:48:08.064Z</time>
      </trkpt>
      <trkpt lat="47.688879" lon="-0.817635">
        <ele>39.522135</ele>
        <time>2025-06-25T18:48:20.780Z</time>
      </trkpt>
      <trkpt lat="47.688879" lon="-0.816392">
        <ele>40.059126</ele>
        <time>2025-06-25T18:48:35.998Z</time>
      </trkpt>
      <trkpt lat="47.688819" lon="-0.815512">
        <ele>40.143717</ele>
        <time>2025-06-25T18:48:44.627Z</time>
      </trkpt>
      <trkpt lat="47.688689" lon="-0.814186">
        <ele>40.236614</ele>
        <time>2025-06-25T18:48:57.862Z</time>
      </trkpt>
      <trkpt lat="47.688483" lon="-0.812410">
        <ele>39.335364</ele>
        <time>2025-06-25T18:49:15.238Z</time>
      </trkpt>
      <trkpt lat="47.688474" lon="-0.811807">
        <ele>39.033734</ele>
        <time>2025-06-25T18:49:20.106Z</time>
      </trkpt>
      <trkpt lat="47.688579" lon="-0.810797">
        <ele>36.991095</ele>
        <time>2025-06-25T18:49:27.277Z</time>
      </trkpt>
      <trkpt lat="47.688658" lon="-0.810476">
        <ele>36.177531</ele>
        <time>2025-06-25T18:49:29.539Z</time>
      </trkpt>
      <trkpt lat="47.688856" lon="-0.809864">
        <ele>34.561229</ele>
        <time>2025-06-25T18:49:33.982Z</time>
      </trkpt>
      <trkpt lat="47.688910" lon="-0.809528">
        <ele>33.738949</ele>
        <time>2025-06-25T18:49:36.221Z</time>
      </trkpt>
      <trkpt lat="47.688981" lon="-0.807808">
        <ele>29.661272</ele>
        <time>2025-06-25T18:49:47.419Z</time>
      </trkpt>
      <trkpt lat="47.688989" lon="-0.807479">
        <ele>28.884099</ele>
        <time>2025-06-25T18:49:49.578Z</time>
      </trkpt>
      <trkpt lat="47.688949" lon="-0.806350">
        <ele>26.282715</ele>
        <time>2025-06-25T18:49:57.296Z</time>
      </trkpt>
      <trkpt lat="47.688990" lon="-0.805879">
        <ele>26.775265</ele>
        <time>2025-06-25T18:50:01.033Z</time>
      </trkpt>
      <trkpt lat="47.689171" lon="-0.805362">
        <ele>27.379635</ele>
        <time>2025-06-25T18:50:06.974Z</time>
      </trkpt>
      <trkpt lat="47.689237" lon="-0.805185">
        <ele>27.589486</ele>
        <time>2025-06-25T18:50:09.568Z</time>
      </trkpt>
      <trkpt lat="47.689751" lon="-0.803801">
        <ele>29.641486</ele>
        <time>2025-06-25T18:50:40.718Z</time>
      </trkpt>
      <trkpt lat="47.689894" lon="-0.803513">
        <ele>30.795839</ele>
        <time>2025-06-25T18:50:49.276Z</time>
      </trkpt>
      <trkpt lat="47.690095" lon="-0.803351">
        <ele>31.891617</ele>
        <time>2025-06-25T18:50:57.314Z</time>
      </trkpt>
      <trkpt lat="47.691233" lon="-0.802690">
        <ele>37.710365</ele>
        <time>2025-06-25T18:51:40.488Z</time>
      </trkpt>
      <trkpt lat="47.691359" lon="-0.802591">
        <ele>38.131131</ele>
        <time>2025-06-25T18:51:45.320Z</time>
      </trkpt>
      <trkpt lat="47.691404" lon="-0.802524">
        <ele>38.319202</ele>
        <time>2025-06-25T18:51:47.446Z</time>
      </trkpt>
      <trkpt lat="47.691453" lon="-0.802352">
        <ele>38.690323</ele>
        <time>2025-06-25T18:51:51.544Z</time>
      </trkpt>
      <trkpt lat="47.691471" lon="-0.801778">
        <ele>39.832125</ele>
        <time>2025-06-25T18:52:03.547Z</time>
      </trkpt>
      <trkpt lat="47.691434" lon="-0.801461">
        <ele>40.471418</ele>
        <time>2025-06-25T18:52:09.771Z</time>
      </trkpt>
      <trkpt lat="47.691364" lon="-0.801225">
        <ele>40.983870</ele>
        <time>2025-06-25T18:52:14.474Z</time>
      </trkpt>
      <trkpt lat="47.690819" lon="-0.800018">
        <ele>43.197684</ele>
        <time>2025-06-25T18:52:33.619Z</time>
      </trkpt>
      <trkpt lat="47.690684" lon="-0.799774">
        <ele>43.360455</ele>
        <time>2025-06-25T18:52:36.632Z</time>
      </trkpt>
      <trkpt lat="47.690193" lon="-0.798950">
        <ele>43.927583</ele>
        <time>2025-06-25T18:52:48.440Z</time>
      </trkpt>
      <trkpt lat="47.690239" lon="-0.798813">
        <ele>44.006483</ele>
        <time>2025-06-25T18:52:50.805Z</time>
      </trkpt>
      <trkpt lat="47.690235" lon="-0.797352">
        <ele>45.323827</ele>
        <time>2025-06-25T18:53:15.763Z</time>
      </trkpt>
      <trkpt lat="47.690242" lon="-0.796951">
        <ele>45.807844</ele>
        <time>2025-06-25T18:53:23.343Z</time>
      </trkpt>
      <trkpt lat="47.690266" lon="-0.795948">
        <ele>47.018847</ele>
        <time>2025-06-25T18:53:42.464Z</time>
      </trkpt>
      <trkpt lat="47.690312" lon="-0.795731">
        <ele>47.293360</ele>
        <time>2025-06-25T18:53:46.801Z</time>
      </trkpt>
      <trkpt lat="47.690425" lon="-0.795444">
        <ele>47.709777</ele>
        <time>2025-06-25T18:53:53.232Z</time>
      </trkpt>
      <trkpt lat="47.690515" lon="-0.795308">
        <ele>47.966491</ele>
        <time>2025-06-25T18:53:57.049Z</time>
      </trkpt>
      <trkpt lat="47.690622" lon="-0.795183">
        <ele>48.238689</ele>
        <time>2025-06-25T18:54:01.157Z</time>
      </trkpt>
      <trkpt lat="47.690778" lon="-0.795060">
        <ele>48.591853</ele>
        <time>2025-06-25T18:54:06.470Z</time>
      </trkpt>
      <trkpt lat="47.691666" lon="-0.794409">
        <ele>50.572010</ele>
        <time>2025-06-25T18:54:35.126Z</time>
      </trkpt>
      <trkpt lat="47.691822" lon="-0.794281">
        <ele>50.928377</ele>
        <time>2025-06-25T18:54:39.871Z</time>
      </trkpt>
      <trkpt lat="47.692605" lon="-0.793256">
        <ele>51.982437</ele>
        <time>2025-06-25T18:55:05.412Z</time>
      </trkpt>
      <trkpt lat="47.692866" lon="-0.792878">
        <ele>52.305664</ele>
        <time>2025-06-25T18:55:13.767Z</time>
      </trkpt>
      <trkpt lat="47.692977" lon="-0.792636">
        <ele>52.480462</ele>
        <time>2025-06-25T18:55:18.245Z</time>
      </trkpt>
      <trkpt lat="47.693262" lon="-0.791833">
        <ele>52.806736</ele>
        <time>2025-06-25T18:55:31.889Z</time>
      </trkpt>
      <trkpt lat="47.694202" lon="-0.789056">
        <ele>52.922690</ele>
        <time>2025-06-25T18:56:14.862Z</time>
      </trkpt>
      <trkpt lat="47.694453" lon="-0.788318">
        <ele>52.789064</ele>
        <time>2025-06-25T18:56:25.639Z</time>
      </trkpt>
      <trkpt lat="47.694723" lon="-0.787313">
        <ele>52.567509</ele>
        <time>2025-06-25T18:56:39.313Z</time>
      </trkpt>
      <trkpt lat="47.694747" lon="-0.786672">
        <ele>52.217400</ele>
        <time>2025-06-25T18:56:46.925Z</time>
      </trkpt>
      <trkpt lat="47.694725" lon="-0.786036">
        <ele>51.870100</ele>
        <time>2025-06-25T18:56:54.371Z</time>
      </trkpt>
      <trkpt lat="47.694694" lon="-0.785119">
        <ele>51.369384</ele>
        <time>2025-06-25T18:57:05.203Z</time>
      </trkpt>
      <trkpt lat="47.694543" lon="-0.782918">
        <ele>50.655043</ele>
        <time>2025-06-25T18:57:32.099Z</time>
      </trkpt>
      <trkpt lat="47.694466" lon="-0.781783">
        <ele>50.567712</ele>
        <time>2025-06-25T18:57:47.434Z</time>
      </trkpt>
      <trkpt lat="47.694678" lon="-0.777756">
        <ele>52.464294</ele>
        <time>2025-06-25T18:58:51.229Z</time>
      </trkpt>
      <trkpt lat="47.694747" lon="-0.777343">
        <ele>52.687092</ele>
        <time>2025-06-25T18:58:57.877Z</time>
      </trkpt>
      <trkpt lat="47.694954" lon="-0.776827">
        <ele>52.993835</ele>
        <time>2025-06-25T18:59:07.303Z</time>
      </trkpt>
      <trkpt lat="47.695127" lon="-0.776475">
        <ele>53.151984</ele>
        <time>2025-06-25T18:59:14.185Z</time>
      </trkpt>
      <trkpt lat="47.695273" lon="-0.775987">
        <ele>53.345760</ele>
        <time>2025-06-25T18:59:22.499Z</time>
      </trkpt>
      <trkpt lat="47.695310" lon="-0.775764">
        <ele>53.429097</ele>
        <time>2025-06-25T18:59:25.961Z</time>
      </trkpt>
      <trkpt lat="47.695282" lon="-0.774849">
        <ele>53.761447</ele>
        <time>2025-06-25T18:59:39.616Z</time>
      </trkpt>
      <trkpt lat="47.695017" lon="-0.771250">
        <ele>54.446672</ele>
        <time>2025-06-25T19:00:30.871Z</time>
      </trkpt>
      <trkpt lat="47.694969" lon="-0.770941">
        <ele>54.469646</ele>
        <time>2025-06-25T19:00:36.255Z</time>
      </trkpt>
      <trkpt lat="47.694908" lon="-0.770712">
        <ele>54.487487</ele>
        <time>2025-06-25T19:00:40.246Z</time>
      </trkpt>
      <trkpt lat="47.694669" lon="-0.770232">
        <ele>54.530741</ele>
        <time>2025-06-25T19:00:49.044Z</time>
      </trkpt>
      <trkpt lat="47.694668" lon="-0.770231">
        <ele>54.530871</ele>
        <time>2025-06-25T19:00:49.070Z</time>
      </trkpt>
      <trkpt lat="47.694613" lon="-0.770024">
        <ele>54.546993</ele>
        <time>2025-06-25T19:00:52.152Z</time>
      </trkpt>
      <trkpt lat="47.694590" lon="-0.769704">
        <ele>54.570307</ele>
        <time>2025-06-25T19:00:56.449Z</time>
      </trkpt>
      <trkpt lat="47.694575" lon="-0.769489">
        <ele>54.585966</ele>
        <time>2025-06-25T19:00:59.242Z</time>
      </trkpt>
      <trkpt lat="47.694641" lon="-0.768829">
        <ele>54.335424</ele>
        <time>2025-06-25T19:01:07.332Z</time>
      </trkpt>
      <trkpt lat="47.694739" lon="-0.768113">
        <ele>53.777514</ele>
        <time>2025-06-25T19:01:15.401Z</time>
      </trkpt>
      <trkpt lat="47.694894" lon="-0.767300">
        <ele>53.132305</ele>
        <time>2025-06-25T19:01:24.537Z</time>
      </trkpt>
      <trkpt lat="47.695147" lon="-0.766390">
        <ele>52.478895</ele>
        <time>2025-06-25T19:01:36.375Z</time>
      </trkpt>
      <trkpt lat="47.695632" lon="-0.764959">
        <ele>51.897701</ele>
        <time>2025-06-25T19:01:56.717Z</time>
      </trkpt>
      <trkpt lat="47.696072" lon="-0.763736">
        <ele>51.405560</ele>
        <time>2025-06-25T19:02:14.001Z</time>
      </trkpt>
      <trkpt lat="47.696681" lon="-0.762624">
        <ele>50.913327</ele>
        <time>2025-06-25T19:02:31.763Z</time>
      </trkpt>
      <trkpt lat="47.697207" lon="-0.761338">
        <ele>50.521029</ele>
        <time>2025-06-25T19:02:50.622Z</time>
      </trkpt>
      <trkpt lat="47.697371" lon="-0.760539">
        <ele>50.359676</ele>
        <time>2025-06-25T19:03:01.233Z</time>
      </trkpt>
      <trkpt lat="47.697479" lon="-0.759768">
        <ele>50.207558</ele>
        <time>2025-06-25T19:03:11.527Z</time>
      </trkpt>
      <trkpt lat="47.697549" lon="-0.759483">
        <ele>50.185098</ele>
        <time>2025-06-25T19:03:15.591Z</time>
      </trkpt>
      <trkpt lat="47.697722" lon="-0.759222">
        <ele>50.275657</ele>
        <time>2025-06-25T19:03:20.614Z</time>
      </trkpt>
      <trkpt lat="47.698225" lon="-0.758733">
        <ele>50.496447</ele>
        <time>2025-06-25T19:03:33.459Z</time>
      </trkpt>
      <trkpt lat="47.698652" lon="-0.758135">
        <ele>50.711977</ele>
        <time>2025-06-25T19:03:46.755Z</time>
      </trkpt>
      <trkpt lat="47.699637" lon="-0.756502">
        <ele>51.405853</ele>
        <time>2025-06-25T19:04:20.528Z</time>
      </trkpt>
      <trkpt lat="47.699820" lon="-0.756113">
        <ele>51.564729</ele>
        <time>2025-06-25T19:04:27.405Z</time>
      </trkpt>
      <trkpt lat="47.699890" lon="-0.755821">
        <ele>51.668491</ele>
        <time>2025-06-25T19:04:31.792Z</time>
      </trkpt>
      <trkpt lat="47.699965" lon="-0.754744">
        <ele>51.760961</ele>
        <time>2025-06-25T19:04:46.609Z</time>
      </trkpt>
      <trkpt lat="47.700106" lon="-0.754042">
        <ele>51.793209</ele>
        <time>2025-06-25T19:04:56.439Z</time>
      </trkpt>
      <trkpt lat="47.700959" lon="-0.751263">
        <ele>52.179051</ele>
        <time>2025-06-25T19:05:39.500Z</time>
      </trkpt>
      <trkpt lat="47.701030" lon="-0.750790">
        <ele>52.260014</ele>
        <time>2025-06-25T19:05:46.589Z</time>
      </trkpt>
      <trkpt lat="47.701039" lon="-0.750304">
        <ele>52.310890</ele>
        <time>2025-06-25T19:05:53.779Z</time>
      </trkpt>
      <trkpt lat="47.701023" lon="-0.750192">
        <ele>52.319838</ele>
        <time>2025-06-25T19:05:55.449Z</time>
      </trkpt>
      <trkpt lat="47.700870" lon="-0.749109">
        <ele>52.406321</ele>
        <time>2025-06-25T19:06:11.559Z</time>
      </trkpt>
      <trkpt lat="47.700875" lon="-0.748852">
        <ele>52.426414</ele>
        <time>2025-06-25T19:06:15.041Z</time>
      </trkpt>
      <trkpt lat="47.701152" lon="-0.748205">
        <ele>52.486343</ele>
        <time>2025-06-25T19:06:25.041Z</time>
      </trkpt>
      <trkpt lat="47.701302" lon="-0.747948">
        <ele>52.485188</ele>
        <time>2025-06-25T19:06:29.356Z</time>
      </trkpt>
      <trkpt lat="47.701419" lon="-0.747900">
        <ele>52.479582</ele>
        <time>2025-06-25T19:06:31.629Z</time>
      </trkpt>
      <trkpt lat="47.702001" lon="-0.747941">
        <ele>52.452671</ele>
        <time>2025-06-25T19:06:42.314Z</time>
      </trkpt>
      <trkpt lat="47.702301" lon="-0.747900">
        <ele>52.438757</ele>
        <time>2025-06-25T19:06:47.872Z</time>
      </trkpt>
      <trkpt lat="47.702592" lon="-0.747761">
        <ele>52.424639</ele>
        <time>2025-06-25T19:06:54.024Z</time>
      </trkpt>
      <trkpt lat="47.702831" lon="-0.747559">
        <ele>52.411940</ele>
        <time>2025-06-25T19:07:00.246Z</time>
      </trkpt>
      <trkpt lat="47.702981" lon="-0.747379">
        <ele>52.689078</ele>
        <time>2025-06-25T19:07:04.936Z</time>
      </trkpt>
      <trkpt lat="47.703360" lon="-0.746285">
        <ele>54.219508</ele>
        <time>2025-06-25T19:07:27.667Z</time>
      </trkpt>
      <trkpt lat="47.703417" lon="-0.746062">
        <ele>54.516208</ele>
        <time>2025-06-25T19:07:32.316Z</time>
      </trkpt>
      <trkpt lat="47.703750" lon="-0.745996">
        <ele>55.137115</ele>
        <time>2025-06-25T19:07:40.790Z</time>
      </trkpt>
      <trkpt lat="47.704203" lon="-0.745843">
        <ele>55.970101</ele>
        <time>2025-06-25T19:07:52.318Z</time>
      </trkpt>
      <trkpt lat="47.704740" lon="-0.745394">
        <ele>56.997345</ele>
        <time>2025-06-25T19:08:06.440Z</time>
      </trkpt>
      <trkpt lat="47.705292" lon="-0.745154">
        <ele>57.956188</ele>
        <time>2025-06-25T19:08:18.248Z</time>
      </trkpt>
      <trkpt lat="47.705552" lon="-0.744950">
        <ele>58.446354</ele>
        <time>2025-06-25T19:08:23.996Z</time>
      </trkpt>
      <trkpt lat="47.705737" lon="-0.744737">
        <ele>58.791052</ele>
        <time>2025-06-25T19:08:28.579Z</time>
      </trkpt>
      <trkpt lat="47.705876" lon="-0.744627">
        <ele>58.938413</ele>
        <time>2025-06-25T19:08:31.695Z</time>
      </trkpt>
      <trkpt lat="47.706297" lon="-0.744456">
        <ele>59.346809</ele>
        <time>2025-06-25T19:08:40.016Z</time>
      </trkpt>
      <trkpt lat="47.706688" lon="-0.744255">
        <ele>59.733956</ele>
        <time>2025-06-25T19:08:47.661Z</time>
      </trkpt>
      <trkpt lat="47.706709" lon="-0.744246">
        <ele>59.754407</ele>
        <time>2025-06-25T19:08:48.079Z</time>
      </trkpt>
      <trkpt lat="47.706931" lon="-0.744158">
        <ele>59.969404</ele>
        <time>2025-06-25T19:08:52.281Z</time>
      </trkpt>
      <trkpt lat="47.706929" lon="-0.744007">
        <ele>60.064504</ele>
        <time>2025-06-25T19:08:54.129Z</time>
      </trkpt>
      <trkpt lat="47.706818" lon="-0.743360">
        <ele>60.422616</ele>
        <time>2025-06-25T19:09:02.292Z</time>
      </trkpt>
      <trkpt lat="47.706607" lon="-0.741722">
        <ele>60.524171</ele>
        <time>2025-06-25T19:09:20.141Z</time>
      </trkpt>
      <trkpt lat="47.706564" lon="-0.741284">
        <ele>60.551125</ele>
        <time>2025-06-25T19:09:24.338Z</time>
      </trkpt>
      <trkpt lat="47.706454" lon="-0.740281">
        <ele>60.378803</ele>
        <time>2025-06-25T19:09:33.284Z</time>
      </trkpt>
      <trkpt lat="47.706423" lon="-0.740004">
        <ele>60.279154</ele>
        <time>2025-06-25T19:09:35.727Z</time>
      </trkpt>
      <trkpt lat="47.706407" lon="-0.739857">
        <ele>60.226311</ele>
        <time>2025-06-25T19:09:37.023Z</time>
      </trkpt>
      <trkpt lat="47.706354" lon="-0.739343">
        <ele>60.041779</ele>
        <time>2025-06-25T19:09:41.607Z</time>
      </trkpt>
      <trkpt lat="47.706331" lon="-0.739071">
        <ele>59.944496</ele>
        <time>2025-06-25T19:09:44.039Z</time>
      </trkpt>
      <trkpt lat="47.706313" lon="-0.738930">
        <ele>59.893567</ele>
        <time>2025-06-25T19:09:45.311Z</time>
      </trkpt>
      <trkpt lat="47.706226" lon="-0.738117">
        <ele>59.609024</ele>
        <time>2025-06-25T19:09:52.593Z</time>
      </trkpt>
      <trkpt lat="47.706183" lon="-0.737664">
        <ele>59.489524</ele>
        <time>2025-06-25T19:09:56.743Z</time>
      </trkpt>
      <trkpt lat="47.706126" lon="-0.737074">
        <ele>59.333830</ele>
        <time>2025-06-25T19:10:01.975Z</time>
      </trkpt>
      <trkpt lat="47.706042" lon="-0.736027">
        <ele>59.058406</ele>
        <time>2025-06-25T19:10:11.482Z</time>
      </trkpt>
      <trkpt lat="47.706034" lon="-0.735776">
        <ele>58.992768</ele>
        <time>2025-06-25T19:10:13.829Z</time>
      </trkpt>
      <trkpt lat="47.706045" lon="-0.735521">
        <ele>58.937501</ele>
        <time>2025-06-25T19:10:16.248Z</time>
      </trkpt>
      <trkpt lat="47.705973" lon="-0.735462">
        <ele>58.966670</ele>
        <time>2025-06-25T19:10:17.405Z</time>
      </trkpt>
      <trkpt lat="47.705957" lon="-0.735342">
        <ele>58.995874</ele>
        <time>2025-06-25T19:10:18.569Z</time>
      </trkpt>
      <trkpt lat="47.705983" lon="-0.735273">
        <ele>59.014752</ele>
        <time>2025-06-25T19:10:19.337Z</time>
      </trkpt>
      <trkpt lat="47.706058" lon="-0.735233">
        <ele>59.043020</ele>
        <time>2025-06-25T19:10:20.500Z</time>
      </trkpt>
      <trkpt lat="47.706169" lon="-0.733135">
        <ele>59.545410</ele>
        <time>2025-06-25T19:10:44.507Z</time>
      </trkpt>
      <trkpt lat="47.706154" lon="-0.732524">
        <ele>59.654015</ele>
        <time>2025-06-25T19:10:51.610Z</time>
      </trkpt>
      <trkpt lat="47.706070" lon="-0.731859">
        <ele>59.765789</ele>
        <time>2025-06-25T19:10:59.133Z</time>
      </trkpt>
      <trkpt lat="47.705936" lon="-0.731302">
        <ele>59.863506</ele>
        <time>2025-06-25T19:11:05.455Z</time>
      </trkpt>
      <trkpt lat="47.705853" lon="-0.731100">
        <ele>59.902605</ele>
        <time>2025-06-25T19:11:07.888Z</time>
      </trkpt>
      <trkpt lat="47.705066" lon="-0.729739">
        <ele>59.823169</ele>
        <time>2025-06-25T19:11:25.123Z</time>
      </trkpt>
      <trkpt lat="47.704973" lon="-0.729547">
        <ele>59.783867</ele>
        <time>2025-06-25T19:11:27.325Z</time>
      </trkpt>
      <trkpt lat="47.704803" lon="-0.729054">
        <ele>59.691837</ele>
        <time>2025-06-25T19:11:32.444Z</time>
      </trkpt>
      <trkpt lat="47.704608" lon="-0.728356">
        <ele>59.564853</ele>
        <time>2025-06-25T19:11:39.392Z</time>
      </trkpt>
      <trkpt lat="47.704164" lon="-0.726787">
        <ele>58.976090</ele>
        <time>2025-06-25T19:11:54.565Z</time>
      </trkpt>
      <trkpt lat="47.703466" lon="-0.724894">
        <ele>58.300953</ele>
        <time>2025-06-25T19:12:13.533Z</time>
      </trkpt>
      <trkpt lat="47.702991" lon="-0.723623">
        <ele>57.885007</ele>
        <time>2025-06-25T19:12:26.799Z</time>
      </trkpt>
      <trkpt lat="47.702843" lon="-0.723299">
        <ele>57.859094</ele>
        <time>2025-06-25T19:12:30.605Z</time>
      </trkpt>
      <trkpt lat="47.702129" lon="-0.721983">
        <ele>57.770510</ele>
        <time>2025-06-25T19:12:47.388Z</time>
      </trkpt>
      <trkpt lat="47.701474" lon="-0.720798">
        <ele>57.553277</ele>
        <time>2025-06-25T19:13:02.766Z</time>
      </trkpt>
      <trkpt lat="47.701399" lon="-0.720623">
        <ele>57.511528</ele>
        <time>2025-06-25T19:13:04.757Z</time>
      </trkpt>
      <trkpt lat="47.701298" lon="-0.720283">
        <ele>57.436743</ele>
        <time>2025-06-25T19:13:08.192Z</time>
      </trkpt>
      <trkpt lat="47.701219" lon="-0.719820">
        <ele>57.340627</ele>
        <time>2025-06-25T19:13:12.459Z</time>
      </trkpt>
      <trkpt lat="47.701118" lon="-0.719159">
        <ele>57.204231</ele>
        <time>2025-06-25T19:13:18.434Z</time>
      </trkpt>
      <trkpt lat="47.700993" lon="-0.718610">
        <ele>56.916946</ele>
        <time>2025-06-25T19:13:23.434Z</time>
      </trkpt>
      <trkpt lat="47.700296" lon="-0.716603">
        <ele>55.738675</ele>
        <time>2025-06-25T19:13:42.629Z</time>
      </trkpt>
      <trkpt lat="47.699692" lon="-0.714948">
        <ele>54.312720</ele>
        <time>2025-06-25T19:13:58.190Z</time>
      </trkpt>
      <trkpt lat="47.698798" lon="-0.712974">
        <ele>51.680880</ele>
        <time>2025-06-25T19:14:16.374Z</time>
      </trkpt>
      <trkpt lat="47.698425" lon="-0.712152">
        <ele>50.456137</ele>
        <time>2025-06-25T19:14:23.534Z</time>
      </trkpt>
      <trkpt lat="47.698239" lon="-0.711634">
        <ele>49.728836</ele>
        <time>2025-06-25T19:14:27.868Z</time>
      </trkpt>
      <trkpt lat="47.698197" lon="-0.711429">
        <ele>49.463381</ele>
        <time>2025-06-25T19:14:29.454Z</time>
      </trkpt>
      <trkpt lat="47.698159" lon="-0.711009">
        <ele>48.938412</ele>
        <time>2025-06-25T19:14:32.585Z</time>
      </trkpt>
      <trkpt lat="47.698124" lon="-0.709933">
        <ele>47.603924</ele>
        <time>2025-06-25T19:14:40.767Z</time>
      </trkpt>
      <trkpt lat="47.698013" lon="-0.709205">
        <ele>46.636819</ele>
        <time>2025-06-25T19:14:46.540Z</time>
      </trkpt>
      <trkpt lat="47.698075" lon="-0.708697">
        <ele>45.946561</ele>
        <time>2025-06-25T19:14:50.428Z</time>
      </trkpt>
      <trkpt lat="47.698029" lon="-0.707415">
        <ele>44.230130</ele>
        <time>2025-06-25T19:14:59.835Z</time>
      </trkpt>
      <trkpt lat="47.698004" lon="-0.707124">
        <ele>43.837914</ele>
        <time>2025-06-25T19:15:01.989Z</time>
      </trkpt>
      <trkpt lat="47.697887" lon="-0.706479">
        <ele>42.925002</ele>
        <time>2025-06-25T19:15:06.809Z</time>
      </trkpt>
      <trkpt lat="47.697704" lon="-0.705882">
        <ele>42.023022</ele>
        <time>2025-06-25T19:15:11.515Z</time>
      </trkpt>
      <trkpt lat="47.697135" lon="-0.704557">
        <ele>39.907954</ele>
        <time>2025-06-25T19:15:23.148Z</time>
      </trkpt>
      <trkpt lat="47.696479" lon="-0.703052">
        <ele>38.522846</ele>
        <time>2025-06-25T19:15:37.563Z</time>
      </trkpt>
      <trkpt lat="47.695546" lon="-0.700929">
        <ele>36.787648</ele>
        <time>2025-06-25T19:15:59.126Z</time>
      </trkpt>
      <trkpt lat="47.695359" lon="-0.700431">
        <ele>36.420671</ele>
        <time>2025-06-25T19:16:03.763Z</time>
      </trkpt>
      <trkpt lat="47.695213" lon="-0.699924">
        <ele>35.999345</ele>
        <time>2025-06-25T19:16:08.138Z</time>
      </trkpt>
      <trkpt lat="47.694434" lon="-0.696864">
        <ele>33.130866</ele>
        <time>2025-06-25T19:16:33.301Z</time>
      </trkpt>
      <trkpt lat="47.693214" lon="-0.692068">
        <ele>32.547342</ele>
        <time>2025-06-25T19:17:21.049Z</time>
      </trkpt>
      <trkpt lat="47.692887" lon="-0.690758">
        <ele>33.957321</ele>
        <time>2025-06-25T19:17:42.972Z</time>
      </trkpt>
      <trkpt lat="47.692526" lon="-0.689373">
        <ele>35.278080</ele>
        <time>2025-06-25T19:18:06.479Z</time>
      </trkpt>
      <trkpt lat="47.692344" lon="-0.688779">
        <ele>35.786582</ele>
        <time>2025-06-25T19:18:15.133Z</time>
      </trkpt>
      <trkpt lat="47.692157" lon="-0.688346">
        <ele>36.187420</ele>
        <time>2025-06-25T19:18:21.428Z</time>
      </trkpt>
      <trkpt lat="47.691896" lon="-0.687925">
        <ele>36.633369</ele>
        <time>2025-06-25T19:18:27.917Z</time>
      </trkpt>
      <trkpt lat="47.691154" lon="-0.686715">
        <ele>36.330219</ele>
        <time>2025-06-25T19:18:44.835Z</time>
      </trkpt>
      <trkpt lat="47.690932" lon="-0.686280">
        <ele>36.172655</ele>
        <time>2025-06-25T19:18:49.780Z</time>
      </trkpt>
      <trkpt lat="47.690326" lon="-0.684966">
        <ele>33.998154</ele>
        <time>2025-06-25T19:19:01.900Z</time>
      </trkpt>
      <trkpt lat="47.690227" lon="-0.684745">
        <ele>33.439788</ele>
        <time>2025-06-25T19:19:03.773Z</time>
      </trkpt>
      <trkpt lat="47.690135" lon="-0.684299">
        <ele>32.458629</ele>
        <time>2025-06-25T19:19:06.970Z</time>
      </trkpt>
      <trkpt lat="47.690077" lon="-0.684006">
        <ele>31.816247</ele>
        <time>2025-06-25T19:19:08.968Z</time>
      </trkpt>
      <trkpt lat="47.689911" lon="-0.683203">
        <ele>29.893851</ele>
        <time>2025-06-25T19:19:14.326Z</time>
      </trkpt>
      <trkpt lat="47.689897" lon="-0.682934">
        <ele>29.047052</ele>
        <time>2025-06-25T19:19:16.036Z</time>
      </trkpt>
      <trkpt lat="47.689875" lon="-0.682526">
        <ele>27.762409</ele>
        <time>2025-06-25T19:19:18.612Z</time>
      </trkpt>
      <trkpt lat="47.689735" lon="-0.680831">
        <ele>22.402605</ele>
        <time>2025-06-25T19:19:29.343Z</time>
      </trkpt>
      <trkpt lat="47.689707" lon="-0.680701">
        <ele>21.978723</ele>
        <time>2025-06-25T19:19:30.273Z</time>
      </trkpt>
      <trkpt lat="47.689678" lon="-0.680526">
        <ele>21.935813</ele>
        <time>2025-06-25T19:19:31.532Z</time>
      </trkpt>
      <trkpt lat="47.689473" lon="-0.679235">
        <ele>21.619997</ele>
        <time>2025-06-25T19:19:42.408Z</time>
      </trkpt>
      <trkpt lat="47.688935" lon="-0.676000">
        <ele>23.720488</ele>
        <time>2025-06-25T19:20:32.102Z</time>
      </trkpt>
      <trkpt lat="47.688659" lon="-0.674291">
        <ele>24.989457</ele>
        <time>2025-06-25T19:20:54.127Z</time>
      </trkpt>
      <trkpt lat="47.689506" lon="-0.673652">
        <ele>25.796270</ele>
        <time>2025-06-25T19:21:11.165Z</time>
      </trkpt>
      <trkpt lat="47.690750" lon="-0.672645">
        <ele>26.059304</ele>
        <time>2025-06-25T19:21:33.626Z</time>
      </trkpt>
      <trkpt lat="47.691102" lon="-0.672327">
        <ele>26.136702</ele>
        <time>2025-06-25T19:21:39.271Z</time>
      </trkpt>
      <trkpt lat="47.691507" lon="-0.671885">
        <ele>26.264073</ele>
        <time>2025-06-25T19:21:46.229Z</time>
      </trkpt>
      <trkpt lat="47.692059" lon="-0.671273">
        <ele>26.438646</ele>
        <time>2025-06-25T19:21:56.722Z</time>
      </trkpt>
      <trkpt lat="47.692576" lon="-0.670758">
        <ele>26.622264</ele>
        <time>2025-06-25T19:22:07.561Z</time>
      </trkpt>
      <trkpt lat="47.693727" lon="-0.669748">
        <ele>27.811721</ele>
        <time>2025-06-25T19:22:33.472Z</time>
      </trkpt>
      <trkpt lat="47.694181" lon="-0.669389">
        <ele>28.199853</ele>
        <time>2025-06-25T19:22:42.866Z</time>
      </trkpt>
      <trkpt lat="47.695745" lon="-0.668424">
        <ele>28.442162</ele>
        <time>2025-06-25T19:23:08.729Z</time>
      </trkpt>
      <trkpt lat="47.696932" lon="-0.667887">
        <ele>28.169989</ele>
        <time>2025-06-25T19:23:24.942Z</time>
      </trkpt>
      <trkpt lat="47.698757" lon="-0.667070">
        <ele>29.134489</ele>
        <time>2025-06-25T19:23:54.850Z</time>
      </trkpt>
      <trkpt lat="47.699084" lon="-0.666928">
        <ele>29.412804</ele>
        <time>2025-06-25T19:24:01.718Z</time>
      </trkpt>
      <trkpt lat="47.699130" lon="-0.666908">
        <ele>29.451959</ele>
        <time>2025-06-25T19:24:02.766Z</time>
      </trkpt>
      <trkpt lat="47.700337" lon="-0.666378">
        <ele>33.686380</ele>
        <time>2025-06-25T19:24:37.461Z</time>
      </trkpt>
      <trkpt lat="47.700566" lon="-0.666252">
        <ele>34.546756</ele>
        <time>2025-06-25T19:24:46.100Z</time>
      </trkpt>
      <trkpt lat="47.700671" lon="-0.666139">
        <ele>35.003543</ele>
        <time>2025-06-25T19:24:50.741Z</time>
      </trkpt>
      <trkpt lat="47.700703" lon="-0.666069">
        <ele>35.204197</ele>
        <time>2025-06-25T19:24:52.731Z</time>
      </trkpt>
      <trkpt lat="47.700743" lon="-0.665855">
        <ele>35.730839</ele>
        <time>2025-06-25T19:24:57.915Z</time>
      </trkpt>
      <trkpt lat="47.700761" lon="-0.665300">
        <ele>37.153556</ele>
        <time>2025-06-25T19:25:10.343Z</time>
      </trkpt>
      <trkpt lat="47.700801" lon="-0.664549">
        <ele>39.096603</ele>
        <time>2025-06-25T19:25:25.781Z</time>
      </trkpt>
      <trkpt lat="47.700837" lon="-0.664209">
        <ele>39.984322</ele>
        <time>2025-06-25T19:25:32.106Z</time>
      </trkpt>
      <trkpt lat="47.700905" lon="-0.663922">
        <ele>40.769089</ele>
        <time>2025-06-25T19:25:37.449Z</time>
      </trkpt>
      <trkpt lat="47.701364" lon="-0.662780">
        <ele>45.186510</ele>
        <time>2025-06-25T19:26:02.597Z</time>
      </trkpt>
      <trkpt lat="47.701563" lon="-0.662369">
        <ele>47.376602</ele>
        <time>2025-06-25T19:26:15.756Z</time>
      </trkpt>
      <trkpt lat="47.701780" lon="-0.662146">
        <ele>49.072391</ele>
        <time>2025-06-25T19:26:27.074Z</time>
      </trkpt>
      <trkpt lat="47.701968" lon="-0.662068">
        <ele>50.326946</ele>
        <time>2025-06-25T19:26:36.066Z</time>
      </trkpt>
      <trkpt lat="47.702587" lon="-0.662083">
        <ele>54.305391</ele>
        <time>2025-06-25T19:27:06.642Z</time>
      </trkpt>
      <trkpt lat="47.702893" lon="-0.662010">
        <ele>55.894039</ele>
        <time>2025-06-25T19:27:21.383Z</time>
      </trkpt>
      <trkpt lat="47.703054" lon="-0.661906">
        <ele>56.793937</ele>
        <time>2025-06-25T19:27:29.093Z</time>
      </trkpt>
      <trkpt lat="47.703249" lon="-0.661694">
        <ele>58.032480</ele>
        <time>2025-06-25T19:27:38.819Z</time>
      </trkpt>
      <trkpt lat="47.703630" lon="-0.661174">
        <ele>60.684278</ele>
        <time>2025-06-25T19:27:56.440Z</time>
      </trkpt>
      <trkpt lat="47.704454" lon="-0.659947">
        <ele>64.154409</ele>
        <time>2025-06-25T19:28:24.402Z</time>
      </trkpt>
      <trkpt lat="47.704622" lon="-0.659647">
        <ele>64.425076</ele>
        <time>2025-06-25T19:28:29.244Z</time>
      </trkpt>
      <trkpt lat="47.704846" lon="-0.659140">
        <ele>64.845690</ele>
        <time>2025-06-25T19:28:36.225Z</time>
      </trkpt>
      <trkpt lat="47.706669" lon="-0.654243">
        <ele>64.941384</ele>
        <time>2025-06-25T19:29:29.700Z</time>
      </trkpt>
      <trkpt lat="47.707320" lon="-0.652463">
        <ele>65.265805</ele>
        <time>2025-06-25T19:29:51.115Z</time>
      </trkpt>
      <trkpt lat="47.707437" lon="-0.651913">
        <ele>65.401341</ele>
        <time>2025-06-25T19:29:57.419Z</time>
      </trkpt>
      <trkpt lat="47.707528" lon="-0.651228">
        <ele>65.614360</ele>
        <time>2025-06-25T19:30:05.397Z</time>
      </trkpt>
      <trkpt lat="47.707650" lon="-0.650324">
        <ele>66.229287</ele>
        <time>2025-06-25T19:30:16.648Z</time>
      </trkpt>
      <trkpt lat="47.707735" lon="-0.649985">
        <ele>66.470568</ele>
        <time>2025-06-25T19:30:21.228Z</time>
      </trkpt>
      <trkpt lat="47.707807" lon="-0.649842">
        <ele>66.589684</ele>
        <time>2025-06-25T19:30:23.619Z</time>
      </trkpt>
      <trkpt lat="47.707912" lon="-0.649683">
        <ele>66.738263</ele>
        <time>2025-06-25T19:30:26.722Z</time>
      </trkpt>
      <trkpt lat="47.709328" lon="-0.648148">
        <ele>66.937109</ele>
        <time>2025-06-25T19:31:00.610Z</time>
      </trkpt>
      <trkpt lat="47.709825" lon="-0.647618">
        <ele>66.735167</ele>
        <time>2025-06-25T19:31:07.363Z</time>
      </trkpt>
      <trkpt lat="47.711204" lon="-0.646149">
        <ele>60.331062</ele>
        <time>2025-06-25T19:31:23.549Z</time>
      </trkpt>
      <trkpt lat="47.712929" lon="-0.644615">
        <ele>57.220908</ele>
        <time>2025-06-25T19:31:45.987Z</time>
      </trkpt>
      <trkpt lat="47.713123" lon="-0.644393">
        <ele>58.031306</ele>
        <time>2025-06-25T19:31:51.563Z</time>
      </trkpt>
      <trkpt lat="47.713211" lon="-0.644240">
        <ele>58.479567</ele>
        <time>2025-06-25T19:31:54.998Z</time>
      </trkpt>
      <trkpt lat="47.713325" lon="-0.643957">
        <ele>59.214133</ele>
        <time>2025-06-25T19:32:01.094Z</time>
      </trkpt>
      <trkpt lat="47.713630" lon="-0.642648">
        <ele>62.299139</ele>
        <time>2025-06-25T19:32:32.932Z</time>
      </trkpt>
      <trkpt lat="47.714309" lon="-0.638386">
        <ele>74.612357</ele>
        <time>2025-06-25T19:34:14.706Z</time>
      </trkpt>
      <trkpt lat="47.714441" lon="-0.637813">
        <ele>75.825109</ele>
        <time>2025-06-25T19:34:24.682Z</time>
      </trkpt>
      <trkpt lat="47.714672" lon="-0.637144">
        <ele>76.894711</ele>
        <time>2025-06-25T19:34:33.335Z</time>
      </trkpt>
      <trkpt lat="47.714698" lon="-0.637068">
        <ele>76.773272</ele>
        <time>2025-06-25T19:34:34.063Z</time>
      </trkpt>
      <trkpt lat="47.715201" lon="-0.635584">
        <ele>74.406491</ele>
        <time>2025-06-25T19:34:45.848Z</time>
      </trkpt>
      <trkpt lat="47.715436" lon="-0.634991">
        <ele>73.426245</ele>
        <time>2025-06-25T19:34:50.474Z</time>
      </trkpt>
      <trkpt lat="47.715671" lon="-0.634593">
        <ele>72.755227</ele>
        <time>2025-06-25T19:34:54.117Z</time>
      </trkpt>
      <trkpt lat="47.717058" lon="-0.632571">
        <ele>70.260924</ele>
        <time>2025-06-25T19:35:16.384Z</time>
      </trkpt>
      <trkpt lat="47.717359" lon="-0.631996">
        <ele>70.570558</ele>
        <time>2025-06-25T19:35:24.964Z</time>
      </trkpt>
      <trkpt lat="47.717651" lon="-0.631292">
        <ele>70.922047</ele>
        <time>2025-06-25T19:35:36.690Z</time>
      </trkpt>
      <trkpt lat="47.717767" lon="-0.630964">
        <ele>71.079532</ele>
        <time>2025-06-25T19:35:42.562Z</time>
      </trkpt>
      <trkpt lat="47.718754" lon="-0.626965">
        <ele>75.465695</ele>
        <time>2025-06-25T19:36:47.261Z</time>
      </trkpt>
      <trkpt lat="47.718903" lon="-0.626349">
        <ele>75.850890</ele>
        <time>2025-06-25T19:36:54.380Z</time>
      </trkpt>
      <trkpt lat="47.719039" lon="-0.625933">
        <ele>76.123052</ele>
        <time>2025-06-25T19:36:58.687Z</time>
      </trkpt>
      <trkpt lat="47.719171" lon="-0.625694">
        <ele>75.780226</ele>
        <time>2025-06-25T19:37:01.297Z</time>
      </trkpt>
      <trkpt lat="47.719794" lon="-0.624945">
        <ele>73.698892</ele>
        <time>2025-06-25T19:37:10.111Z</time>
      </trkpt>
      <trkpt lat="47.720033" lon="-0.624568">
        <ele>72.793667</ele>
        <time>2025-06-25T19:37:13.670Z</time>
      </trkpt>
      <trkpt lat="47.720731" lon="-0.623019">
        <ele>68.093652</ele>
        <time>2025-06-25T19:37:25.772Z</time>
      </trkpt>
      <trkpt lat="47.720978" lon="-0.622476">
        <ele>66.107664</ele>
        <time>2025-06-25T19:37:29.932Z</time>
      </trkpt>
      <trkpt lat="47.721195" lon="-0.622126">
        <ele>64.665566</ele>
        <time>2025-06-25T19:37:32.971Z</time>
      </trkpt>
      <trkpt lat="47.721340" lon="-0.621932">
        <ele>63.786962</ele>
        <time>2025-06-25T19:37:34.820Z</time>
      </trkpt>
      <trkpt lat="47.722029" lon="-0.621176">
        <ele>60.461321</ele>
        <time>2025-06-25T19:37:43.085Z</time>
      </trkpt>
      <trkpt lat="47.722220" lon="-0.620972">
        <ele>59.564241</ele>
        <time>2025-06-25T19:37:45.424Z</time>
      </trkpt>
      <trkpt lat="47.722412" lon="-0.620648">
        <ele>58.456321</ele>
        <time>2025-06-25T19:37:48.359Z</time>
      </trkpt>
      <trkpt lat="47.722487" lon="-0.620487">
        <ele>57.953826</ele>
        <time>2025-06-25T19:37:49.700Z</time>
      </trkpt>
      <trkpt lat="47.722646" lon="-0.619989">
        <ele>56.539439</ele>
        <time>2025-06-25T19:37:53.469Z</time>
      </trkpt>
      <trkpt lat="47.722706" lon="-0.619866">
        <ele>56.212588</ele>
        <time>2025-06-25T19:37:54.497Z</time>
      </trkpt>
      <trkpt lat="47.722776" lon="-0.619786">
        <ele>55.930227</ele>
        <time>2025-06-25T19:37:55.384Z</time>
      </trkpt>
      <trkpt lat="47.723039" lon="-0.619656">
        <ele>55.043910</ele>
        <time>2025-06-25T19:37:58.163Z</time>
      </trkpt>
      <trkpt lat="47.722910" lon="-0.618966">
        <ele>53.503287</ele>
        <time>2025-06-25T19:38:02.921Z</time>
      </trkpt>
      <trkpt lat="47.722655" lon="-0.617721">
        <ele>50.765515</ele>
        <time>2025-06-25T19:38:11.768Z</time>
      </trkpt>
      <trkpt lat="47.722486" lon="-0.616823">
        <ele>50.232422</ele>
        <time>2025-06-25T19:38:18.743Z</time>
      </trkpt>
      <trkpt lat="47.722460" lon="-0.616696">
        <ele>50.156529</ele>
        <time>2025-06-25T19:38:19.883Z</time>
      </trkpt>
      <trkpt lat="47.722292" lon="-0.615857">
        <ele>49.656077</ele>
        <time>2025-06-25T19:38:28.582Z</time>
      </trkpt>
      <trkpt lat="47.722191" lon="-0.615296">
        <ele>49.324068</ele>
        <time>2025-06-25T19:38:35.144Z</time>
      </trkpt>
      <trkpt lat="47.722242" lon="-0.615142">
        <ele>49.240259</ele>
        <time>2025-06-25T19:38:37.166Z</time>
      </trkpt>
      <trkpt lat="47.723342" lon="-0.613999">
        <ele>48.587854</ele>
        <time>2025-06-25T19:38:56.226Z</time>
      </trkpt>
      <trkpt lat="47.723382" lon="-0.613958">
        <ele>48.564235</ele>
        <time>2025-06-25T19:38:56.806Z</time>
      </trkpt>
      <trkpt lat="47.723706" lon="-0.613593">
        <ele>48.318742</ele>
        <time>2025-06-25T19:39:01.494Z</time>
      </trkpt>
      <trkpt lat="47.723863" lon="-0.613293">
        <ele>47.871879</ele>
        <time>2025-06-25T19:39:04.343Z</time>
      </trkpt>
      <trkpt lat="47.724223" lon="-0.612045">
        <ele>46.275440</ele>
        <time>2025-06-25T19:39:14.197Z</time>
      </trkpt>
      <trkpt lat="47.724814" lon="-0.609981">
        <ele>45.537533</ele>
        <time>2025-06-25T19:39:31.889Z</time>
      </trkpt>
      <trkpt lat="47.726419" lon="-0.605961">
        <ele>50.070316</ele>
        <time>2025-06-25T19:40:44.574Z</time>
      </trkpt>
      <trkpt lat="47.726619" lon="-0.605541">
        <ele>50.479987</ele>
        <time>2025-06-25T19:40:52.002Z</time>
      </trkpt>
      <trkpt lat="47.727082" lon="-0.604799">
        <ele>51.285725</ele>
        <time>2025-06-25T19:41:04.767Z</time>
      </trkpt>
      <trkpt lat="47.728183" lon="-0.603084">
        <ele>51.815287</ele>
        <time>2025-06-25T19:41:27.710Z</time>
      </trkpt>
      <trkpt lat="47.728421" lon="-0.602616">
        <ele>51.866259</ele>
        <time>2025-06-25T19:41:33.731Z</time>
      </trkpt>
      <trkpt lat="47.728509" lon="-0.602382">
        <ele>51.999190</ele>
        <time>2025-06-25T19:41:36.705Z</time>
      </trkpt>
      <trkpt lat="47.728628" lon="-0.601862">
        <ele>52.678922</ele>
        <time>2025-06-25T19:41:43.265Z</time>
      </trkpt>
      <trkpt lat="47.728785" lon="-0.600413">
        <ele>54.495193</ele>
        <time>2025-06-25T19:42:05.754Z</time>
      </trkpt>
      <trkpt lat="47.728875" lon="-0.600067">
        <ele>54.954272</ele>
        <time>2025-06-25T19:42:12.401Z</time>
      </trkpt>
      <trkpt lat="47.727597" lon="-0.597533">
        <ele>60.989915</ele>
        <time>2025-06-25T19:43:10.882Z</time>
      </trkpt>
      <trkpt lat="47.730880" lon="-0.594611">
        <ele>67.023102</ele>
        <time>2025-06-25T19:44:34.826Z</time>
      </trkpt>
      <trkpt lat="47.732760" lon="-0.592918">
        <ele>65.002114</ele>
        <time>2025-06-25T19:45:00.477Z</time>
      </trkpt>
      <trkpt lat="47.733027" lon="-0.592548">
        <ele>64.417416</ele>
        <time>2025-06-25T19:45:04.560Z</time>
      </trkpt>
      <trkpt lat="47.733093" lon="-0.592406">
        <ele>64.231440</ele>
        <time>2025-06-25T19:45:05.854Z</time>
      </trkpt>
      <trkpt lat="47.733204" lon="-0.592018">
        <ele>63.777145</ele>
        <time>2025-06-25T19:45:09.018Z</time>
      </trkpt>
      <trkpt lat="47.733475" lon="-0.590538">
        <ele>62.220631</ele>
        <time>2025-06-25T19:45:20.640Z</time>
      </trkpt>
      <trkpt lat="47.734064" lon="-0.587717">
        <ele>59.992671</ele>
        <time>2025-06-25T19:45:44.084Z</time>
      </trkpt>
      <trkpt lat="47.734467" lon="-0.584784">
        <ele>59.728016</ele>
        <time>2025-06-25T19:46:13.029Z</time>
      </trkpt>
      <trkpt lat="47.734525" lon="-0.584517">
        <ele>59.780099</ele>
        <time>2025-06-25T19:46:16.323Z</time>
      </trkpt>
      <trkpt lat="47.734662" lon="-0.584083">
        <ele>59.869093</ele>
        <time>2025-06-25T19:46:22.305Z</time>
      </trkpt>
      <trkpt lat="47.735085" lon="-0.583288">
        <ele>60.621475</ele>
        <time>2025-06-25T19:46:36.138Z</time>
      </trkpt>
      <trkpt lat="47.735243" lon="-0.582903">
        <ele>60.978348</ele>
        <time>2025-06-25T19:46:42.538Z</time>
      </trkpt>
      <trkpt lat="47.735382" lon="-0.582339">
        <ele>61.453641</ele>
        <time>2025-06-25T19:46:50.912Z</time>
      </trkpt>
      <trkpt lat="47.735543" lon="-0.581219">
        <ele>62.037346</ele>
        <time>2025-06-25T19:47:05.083Z</time>
      </trkpt>
      <trkpt lat="47.735638" lon="-0.580704">
        <ele>62.080725</ele>
        <time>2025-06-25T19:47:10.691Z</time>
      </trkpt>
      <trkpt lat="47.736291" lon="-0.578197">
        <ele>62.624451</ele>
        <time>2025-06-25T19:47:36.200Z</time>
      </trkpt>
      <trkpt lat="47.736319" lon="-0.578088">
        <ele>62.671801</ele>
        <time>2025-06-25T19:47:37.492Z</time>
      </trkpt>
      <trkpt lat="47.736448" lon="-0.577617">
        <ele>62.878176</ele>
        <time>2025-06-25T19:47:43.493Z</time>
      </trkpt>
      <trkpt lat="47.736514" lon="-0.577377">
        <ele>62.983397</ele>
        <time>2025-06-25T19:47:46.722Z</time>
      </trkpt>
      <trkpt lat="47.736704" lon="-0.577019">
        <ele>63.168461</ele>
        <time>2025-06-25T19:47:52.729Z</time>
      </trkpt>
      <trkpt lat="47.736830" lon="-0.576888">
        <ele>63.261230</ele>
        <time>2025-06-25T19:47:55.897Z</time>
      </trkpt>
      <trkpt lat="47.737120" lon="-0.576649">
        <ele>63.866442</ele>
        <time>2025-06-25T19:48:02.958Z</time>
      </trkpt>
      <trkpt lat="47.737252" lon="-0.576391">
        <ele>64.334624</ele>
        <time>2025-06-25T19:48:07.750Z</time>
      </trkpt>
      <trkpt lat="47.737370" lon="-0.575688">
        <ele>65.381069</ele>
        <time>2025-06-25T19:48:19.126Z</time>
      </trkpt>
      <trkpt lat="47.737413" lon="-0.575552">
        <ele>65.598108</ele>
        <time>2025-06-25T19:48:21.599Z</time>
      </trkpt>
      <trkpt lat="47.737593" lon="-0.575341">
        <ele>66.090326</ele>
        <time>2025-06-25T19:48:27.215Z</time>
      </trkpt>
      <trkpt lat="47.737838" lon="-0.575123">
        <ele>66.703464</ele>
        <time>2025-06-25T19:48:34.431Z</time>
      </trkpt>
      <trkpt lat="47.737876" lon="-0.575089">
        <ele>66.798702</ele>
        <time>2025-06-25T19:48:35.599Z</time>
      </trkpt>
      <trkpt lat="47.738141" lon="-0.574820">
        <ele>67.417033</ele>
        <time>2025-06-25T19:48:43.901Z</time>
      </trkpt>
      <trkpt lat="47.738775" lon="-0.574103">
        <ele>68.752218</ele>
        <time>2025-06-25T19:49:03.625Z</time>
      </trkpt>
      <trkpt lat="47.738997" lon="-0.573843">
        <ele>69.225908</ele>
        <time>2025-06-25T19:49:09.631Z</time>
      </trkpt>
      <trkpt lat="47.739210" lon="-0.573581">
        <ele>69.689274</ele>
        <time>2025-06-25T19:49:14.767Z</time>
      </trkpt>
      <trkpt lat="47.739308" lon="-0.573366">
        <ele>69.982065</ele>
        <time>2025-06-25T19:49:17.771Z</time>
      </trkpt>
      <trkpt lat="47.739826" lon="-0.572145">
        <ele>70.024094</ele>
        <time>2025-06-25T19:49:31.585Z</time>
      </trkpt>
      <trkpt lat="47.740786" lon="-0.569715">
        <ele>69.520062</ele>
        <time>2025-06-25T19:49:57.374Z</time>
      </trkpt>
      <trkpt lat="47.740865" lon="-0.569462">
        <ele>69.454744</ele>
        <time>2025-06-25T19:49:59.914Z</time>
      </trkpt>
      <trkpt lat="47.740933" lon="-0.568938">
        <ele>69.329780</ele>
        <time>2025-06-25T19:50:04.739Z</time>
      </trkpt>
      <trkpt lat="47.740941" lon="-0.568581">
        <ele>69.246138</ele>
        <time>2025-06-25T19:50:08.024Z</time>
      </trkpt>
      <trkpt lat="47.740900" lon="-0.567384">
        <ele>68.977942</ele>
        <time>2025-06-25T19:50:19.151Z</time>
      </trkpt>
      <trkpt lat="47.740916" lon="-0.567118">
        <ele>68.918418</ele>
        <time>2025-06-25T19:50:21.668Z</time>
      </trkpt>
      <trkpt lat="47.740959" lon="-0.566859">
        <ele>68.858957</ele>
        <time>2025-06-25T19:50:24.227Z</time>
      </trkpt>
      <trkpt lat="47.741851" lon="-0.564566">
        <ele>67.936291</ele>
        <time>2025-06-25T19:50:48.332Z</time>
      </trkpt>
      <trkpt lat="47.742404" lon="-0.563152">
        <ele>67.180330</ele>
        <time>2025-06-25T19:51:01.749Z</time>
      </trkpt>
      <trkpt lat="47.742527" lon="-0.562593">
        <ele>66.872278</ele>
        <time>2025-06-25T19:51:06.564Z</time>
      </trkpt>
      <trkpt lat="47.743027" lon="-0.558512">
        <ele>65.002899</ele>
        <time>2025-06-25T19:51:42.833Z</time>
      </trkpt>
      <trkpt lat="47.743053" lon="-0.557904">
        <ele>64.649137</ele>
        <time>2025-06-25T19:51:48.211Z</time>
      </trkpt>
      <trkpt lat="47.743010" lon="-0.557197">
        <ele>64.228652</ele>
        <time>2025-06-25T19:51:54.280Z</time>
      </trkpt>
      <trkpt lat="47.742943" lon="-0.556311">
        <ele>63.700542</ele>
        <time>2025-06-25T19:52:01.601Z</time>
      </trkpt>
      <trkpt lat="47.742955" lon="-0.555903">
        <ele>63.458641</ele>
        <time>2025-06-25T19:52:04.852Z</time>
      </trkpt>
      <trkpt lat="47.742991" lon="-0.555670">
        <ele>63.366770</ele>
        <time>2025-06-25T19:52:06.752Z</time>
      </trkpt>
      <trkpt lat="47.743262" lon="-0.554564">
        <ele>63.073992</ele>
        <time>2025-06-25T19:52:16.283Z</time>
      </trkpt>
      <trkpt lat="47.743316" lon="-0.554078">
        <ele>62.951475</ele>
        <time>2025-06-25T19:52:20.636Z</time>
      </trkpt>
      <trkpt lat="47.743297" lon="-0.553624">
        <ele>62.838337</ele>
        <time>2025-06-25T19:52:24.983Z</time>
      </trkpt>
      <trkpt lat="47.742992" lon="-0.551825">
        <ele>64.760038</ele>
        <time>2025-06-25T19:52:50.620Z</time>
      </trkpt>
      <trkpt lat="47.742949" lon="-0.551498">
        <ele>65.224823</ele>
        <time>2025-06-25T19:52:56.820Z</time>
      </trkpt>
      <trkpt lat="47.742948" lon="-0.550991">
        <ele>65.932061</ele>
        <time>2025-06-25T19:53:06.593Z</time>
      </trkpt>
      <trkpt lat="47.743030" lon="-0.550596">
        <ele>66.486036</ele>
        <time>2025-06-25T19:53:14.206Z</time>
      </trkpt>
      <trkpt lat="47.743111" lon="-0.550420">
        <ele>66.615342</ele>
        <time>2025-06-25T19:53:18.010Z</time>
      </trkpt>
      <trkpt lat="47.743202" lon="-0.550277">
        <ele>66.734710</ele>
        <time>2025-06-25T19:53:21.422Z</time>
      </trkpt>
      <trkpt lat="47.743501" lon="-0.549961">
        <ele>67.065439</ele>
        <time>2025-06-25T19:53:30.057Z</time>
      </trkpt>
      <trkpt lat="47.743942" lon="-0.549642">
        <ele>67.507595</ele>
        <time>2025-06-25T19:53:39.272Z</time>
      </trkpt>
      <trkpt lat="47.744446" lon="-0.549220">
        <ele>68.029087</ele>
        <time>2025-06-25T19:53:46.711Z</time>
      </trkpt>
      <trkpt lat="47.745197" lon="-0.548530">
        <ele>66.851650</ele>
        <time>2025-06-25T19:53:56.749Z</time>
      </trkpt>
      <trkpt lat="47.745368" lon="-0.548359">
        <ele>66.538433</ele>
        <time>2025-06-25T19:53:59.125Z</time>
      </trkpt>
      <trkpt lat="47.745488" lon="-0.548189">
        <ele>66.286520</ele>
        <time>2025-06-25T19:54:01.040Z</time>
      </trkpt>
      <trkpt lat="47.745619" lon="-0.547852">
        <ele>65.888665</ele>
        <time>2025-06-25T19:54:04.051Z</time>
      </trkpt>
      <trkpt lat="47.745682" lon="-0.547569">
        <ele>65.583977</ele>
        <time>2025-06-25T19:54:06.331Z</time>
      </trkpt>
      <trkpt lat="47.745802" lon="-0.546745">
        <ele>64.305536</ele>
        <time>2025-06-25T19:54:12.632Z</time>
      </trkpt>
      <trkpt lat="47.745953" lon="-0.546248">
        <ele>63.381787</ele>
        <time>2025-06-25T19:54:16.567Z</time>
      </trkpt>
      <trkpt lat="47.746182" lon="-0.545673">
        <ele>62.249861</ele>
        <time>2025-06-25T19:54:21.258Z</time>
      </trkpt>
      <trkpt lat="47.746968" lon="-0.544045">
        <ele>58.740439</ele>
        <time>2025-06-25T19:54:34.973Z</time>
      </trkpt>
      <trkpt lat="47.747208" lon="-0.543489">
        <ele>57.556168</ele>
        <time>2025-06-25T19:54:39.628Z</time>
      </trkpt>
      <trkpt lat="47.747321" lon="-0.543137">
        <ele>56.857017</ele>
        <time>2025-06-25T19:54:42.434Z</time>
      </trkpt>
      <trkpt lat="47.747511" lon="-0.542292">
        <ele>55.488414</ele>
        <time>2025-06-25T19:54:48.989Z</time>
      </trkpt>
      <trkpt lat="47.747611" lon="-0.541992">
        <ele>55.066044</ele>
        <time>2025-06-25T19:54:51.490Z</time>
      </trkpt>
      <trkpt lat="47.747830" lon="-0.541514">
        <ele>54.336429</ele>
        <time>2025-06-25T19:54:55.809Z</time>
      </trkpt>
      <trkpt lat="47.748867" lon="-0.539970">
        <ele>52.195857</ele>
        <time>2025-06-25T19:55:12.245Z</time>
      </trkpt>
      <trkpt lat="47.751301" lon="-0.536361">
        <ele>50.787232</ele>
        <time>2025-06-25T19:55:59.272Z</time>
      </trkpt>
      <trkpt lat="47.751381" lon="-0.536242">
        <ele>50.817833</ele>
        <time>2025-06-25T19:56:01.098Z</time>
      </trkpt>
      <trkpt lat="47.752450" lon="-0.534618">
        <ele>50.887035</ele>
        <time>2025-06-25T19:56:27.156Z</time>
      </trkpt>
      <trkpt lat="47.752616" lon="-0.534214">
        <ele>50.542363</ele>
        <time>2025-06-25T19:56:31.892Z</time>
      </trkpt>
      <trkpt lat="47.752865" lon="-0.533656">
        <ele>50.054831</ele>
        <time>2025-06-25T19:56:37.726Z</time>
      </trkpt>
      <trkpt lat="47.752941" lon="-0.533357">
        <ele>49.822135</ele>
        <time>2025-06-25T19:56:40.263Z</time>
      </trkpt>
      <trkpt lat="47.753029" lon="-0.532650">
        <ele>49.298722</ele>
        <time>2025-06-25T19:56:45.549Z</time>
      </trkpt>
      <trkpt lat="47.753087" lon="-0.531405">
        <ele>47.048991</ele>
        <time>2025-06-25T19:56:53.876Z</time>
      </trkpt>
      <trkpt lat="47.753101" lon="-0.530526">
        <ele>45.367898</ele>
        <time>2025-06-25T19:56:59.748Z</time>
      </trkpt>
      <trkpt lat="47.753136" lon="-0.530213">
        <ele>44.761231</ele>
        <time>2025-06-25T19:57:01.972Z</time>
      </trkpt>
      <trkpt lat="47.753171" lon="-0.529860">
        <ele>44.106001</ele>
        <time>2025-06-25T19:57:04.584Z</time>
      </trkpt>
      <trkpt lat="47.753278" lon="-0.529354">
        <ele>44.403903</ele>
        <time>2025-06-25T19:57:08.813Z</time>
      </trkpt>
      <trkpt lat="47.753785" lon="-0.527473">
        <ele>45.542026</ele>
        <time>2025-06-25T19:57:38.406Z</time>
      </trkpt>
      <trkpt lat="47.753836" lon="-0.527212">
        <ele>45.567899</ele>
        <time>2025-06-25T19:57:42.785Z</time>
      </trkpt>
      <trkpt lat="47.753846" lon="-0.526592">
        <ele>45.437999</ele>
        <time>2025-06-25T19:57:51.739Z</time>
      </trkpt>
      <trkpt lat="47.753817" lon="-0.526314">
        <ele>45.379074</ele>
        <time>2025-06-25T19:57:55.380Z</time>
      </trkpt>
      <trkpt lat="47.752747" lon="-0.521057">
        <ele>40.939093</ele>
        <time>2025-06-25T19:58:37.350Z</time>
      </trkpt>
      <trkpt lat="47.751812" lon="-0.516390">
        <ele>36.804906</ele>
        <time>2025-06-25T19:59:15.795Z</time>
      </trkpt>
      <trkpt lat="47.751657" lon="-0.515602">
        <ele>36.393012</ele>
        <time>2025-06-25T19:59:22.839Z</time>
      </trkpt>
      <trkpt lat="47.751608" lon="-0.515226">
        <ele>36.200870</ele>
        <time>2025-06-25T19:59:26.226Z</time>
      </trkpt>
      <trkpt lat="47.751587" lon="-0.514637">
        <ele>35.904966</ele>
        <time>2025-06-25T19:59:31.677Z</time>
      </trkpt>
      <trkpt lat="47.751642" lon="-0.514134">
        <ele>35.867980</ele>
        <time>2025-06-25T19:59:36.548Z</time>
      </trkpt>
      <trkpt lat="47.751780" lon="-0.513559">
        <ele>35.937099</ele>
        <time>2025-06-25T19:59:42.553Z</time>
      </trkpt>
      <trkpt lat="47.751911" lon="-0.513221">
        <ele>35.981266</ele>
        <time>2025-06-25T19:59:46.606Z</time>
      </trkpt>
      <trkpt lat="47.752512" lon="-0.512097">
        <ele>36.136654</ele>
        <time>2025-06-25T20:00:02.578Z</time>
      </trkpt>
      <trkpt lat="47.752536" lon="-0.512054">
        <ele>36.139552</ele>
        <time>2025-06-25T20:00:03.208Z</time>
      </trkpt>
      <trkpt lat="47.753336" lon="-0.510617">
        <ele>36.236310</ele>
        <time>2025-06-25T20:00:22.922Z</time>
      </trkpt>
      <trkpt lat="47.755087" lon="-0.507518">
        <ele>35.671932</ele>
        <time>2025-06-25T20:00:59.588Z</time>
      </trkpt>
      <trkpt lat="47.755177" lon="-0.507184">
        <ele>35.744065</ele>
        <time>2025-06-25T20:01:02.848Z</time>
      </trkpt>
      <trkpt lat="47.755427" lon="-0.506009">
        <ele>35.991126</ele>
        <time>2025-06-25T20:01:15.671Z</time>
      </trkpt>
      <trkpt lat="47.755679" lon="-0.505186">
        <ele>37.133974</ele>
        <time>2025-06-25T20:01:28.786Z</time>
      </trkpt>
      <trkpt lat="47.755944" lon="-0.504671">
        <ele>38.382399</ele>
        <time>2025-06-25T20:01:40.507Z</time>
      </trkpt>
      <trkpt lat="47.756671" lon="-0.503446">
        <ele>41.228606</ele>
        <time>2025-06-25T20:02:13.489Z</time>
      </trkpt>
      <trkpt lat="47.756845" lon="-0.503046">
        <ele>41.280266</ele>
        <time>2025-06-25T20:02:21.755Z</time>
      </trkpt>
      <trkpt lat="47.756946" lon="-0.502727">
        <ele>41.318499</ele>
        <time>2025-06-25T20:02:26.830Z</time>
      </trkpt>
      <trkpt lat="47.757112" lon="-0.501990">
        <ele>41.402778</ele>
        <time>2025-06-25T20:02:34.995Z</time>
      </trkpt>
      <trkpt lat="47.757881" lon="-0.498234">
        <ele>36.481535</ele>
        <time>2025-06-25T20:03:02.296Z</time>
      </trkpt>
      <trkpt lat="47.758030" lon="-0.497355">
        <ele>36.089795</ele>
        <time>2025-06-25T20:03:09.398Z</time>
      </trkpt>
      <trkpt lat="47.758039" lon="-0.496906">
        <ele>35.895678</ele>
        <time>2025-06-25T20:03:13.438Z</time>
      </trkpt>
      <trkpt lat="47.758018" lon="-0.496723">
        <ele>35.815452</ele>
        <time>2025-06-25T20:03:15.376Z</time>
      </trkpt>
      <trkpt lat="47.757952" lon="-0.496459">
        <ele>35.693734</ele>
        <time>2025-06-25T20:03:18.601Z</time>
      </trkpt>
      <trkpt lat="47.757868" lon="-0.496235">
        <ele>35.582893</ele>
        <time>2025-06-25T20:03:21.807Z</time>
      </trkpt>
      <trkpt lat="47.757778" lon="-0.495994">
        <ele>35.512777</ele>
        <time>2025-06-25T20:03:25.528Z</time>
      </trkpt>
      <trkpt lat="47.757669" lon="-0.495697">
        <ele>36.001406</ele>
        <time>2025-06-25T20:03:30.326Z</time>
      </trkpt>
      <trkpt lat="47.757652" lon="-0.495653">
        <ele>36.074690</ele>
        <time>2025-06-25T20:03:31.072Z</time>
      </trkpt>
      <trkpt lat="47.757601" lon="-0.495521">
        <ele>36.294542</ele>
        <time>2025-06-25T20:03:33.225Z</time>
      </trkpt>
      <trkpt lat="47.757582" lon="-0.495473">
        <ele>36.374980</ele>
        <time>2025-06-25T20:03:34.026Z</time>
      </trkpt>
      <trkpt lat="47.757450" lon="-0.495142">
        <ele>36.930732</ele>
        <time>2025-06-25T20:03:39.648Z</time>
      </trkpt>
      <trkpt lat="47.757356" lon="-0.494875">
        <ele>37.365966</ele>
        <time>2025-06-25T20:03:44.445Z</time>
      </trkpt>
      <trkpt lat="47.757347" lon="-0.494791">
        <ele>37.488798</ele>
        <time>2025-06-25T20:03:45.901Z</time>
      </trkpt>
      <trkpt lat="47.757512" lon="-0.494497">
        <ele>38.041845</ele>
        <time>2025-06-25T20:03:52.519Z</time>
      </trkpt>
      <trkpt lat="47.757604" lon="-0.494353">
        <ele>38.328714</ele>
        <time>2025-06-25T20:03:55.951Z</time>
      </trkpt>
      <trkpt lat="47.757815" lon="-0.493964">
        <ele>39.050494</ele>
        <time>2025-06-25T20:04:04.636Z</time>
      </trkpt>
      <trkpt lat="47.757952" lon="-0.493643">
        <ele>39.627853</ele>
        <time>2025-06-25T20:04:11.385Z</time>
      </trkpt>
      <trkpt lat="47.758024" lon="-0.493473">
        <ele>39.949456</ele>
        <time>2025-06-25T20:04:14.902Z</time>
      </trkpt>
      <trkpt lat="47.758165" lon="-0.493138">
        <ele>40.582087</ele>
        <time>2025-06-25T20:04:21.511Z</time>
      </trkpt>
      <trkpt lat="47.758161" lon="-0.492917">
        <ele>40.935951</ele>
        <time>2025-06-25T20:04:25.102Z</time>
      </trkpt>
      <trkpt lat="47.758192" lon="-0.492409">
        <ele>41.752407</ele>
        <time>2025-06-25T20:04:33.932Z</time>
      </trkpt>
      <trkpt lat="47.758204" lon="-0.492286">
        <ele>41.951345</ele>
        <time>2025-06-25T20:04:36.092Z</time>
      </trkpt>
      <trkpt lat="47.758279" lon="-0.491679">
        <ele>42.939192</ele>
        <time>2025-06-25T20:04:46.048Z</time>
      </trkpt>
      <trkpt lat="47.758295" lon="-0.491370">
        <ele>43.435246</ele>
        <time>2025-06-25T20:04:50.746Z</time>
      </trkpt>
      <trkpt lat="47.758298" lon="-0.491335">
        <ele>43.491721</ele>
        <time>2025-06-25T20:04:51.266Z</time>
      </trkpt>
      <trkpt lat="47.758273" lon="-0.491120">
        <ele>43.706118</ele>
        <time>2025-06-25T20:04:54.562Z</time>
      </trkpt>
      <trkpt lat="47.758232" lon="-0.490950">
        <ele>43.817945</ele>
        <time>2025-06-25T20:04:57.223Z</time>
      </trkpt>
      <trkpt lat="47.758159" lon="-0.490839">
        <ele>43.914091</ele>
        <time>2025-06-25T20:04:59.455Z</time>
      </trkpt>
      <trkpt lat="47.758254" lon="-0.490666">
        <ele>44.052400</ele>
        <time>2025-06-25T20:05:02.529Z</time>
      </trkpt>
      <trkpt lat="47.758153" lon="-0.490528">
        <ele>44.178710</ele>
        <time>2025-06-25T20:05:05.216Z</time>
      </trkpt>
      <trkpt lat="47.757905" lon="-0.488983">
        <ele>45.162216</ele>
        <time>2025-06-25T20:05:23.187Z</time>
      </trkpt>
      <trkpt lat="47.757859" lon="-0.488668">
        <ele>45.370065</ele>
        <time>2025-06-25T20:05:26.706Z</time>
      </trkpt>
      <trkpt lat="47.757854" lon="-0.488635">
        <ele>45.393066</ele>
        <time>2025-06-25T20:05:27.064Z</time>
      </trkpt>
      <trkpt lat="47.757838" lon="-0.488526">
        <ele>45.468926</ele>
        <time>2025-06-25T20:05:28.315Z</time>
      </trkpt>
      <trkpt lat="47.757814" lon="-0.488364">
        <ele>45.581721</ele>
        <time>2025-06-25T20:05:30.167Z</time>
      </trkpt>
      <trkpt lat="47.757733" lon="-0.487824">
        <ele>45.957923</ele>
        <time>2025-06-25T20:05:36.637Z</time>
      </trkpt>
      <trkpt lat="47.757717" lon="-0.487718">
        <ele>46.031792</ele>
        <time>2025-06-25T20:05:37.943Z</time>
      </trkpt>
      <trkpt lat="47.757701" lon="-0.487615">
        <ele>46.103672</ele>
        <time>2025-06-25T20:05:39.248Z</time>
      </trkpt>
      <trkpt lat="47.757686" lon="-0.487519">
        <ele>46.170687</ele>
        <time>2025-06-25T20:05:40.458Z</time>
      </trkpt>
      <trkpt lat="47.757660" lon="-0.487360">
        <ele>46.281952</ele>
        <time>2025-06-25T20:05:42.531Z</time>
      </trkpt>
      <trkpt lat="47.757610" lon="-0.487155">
        <ele>46.430232</ele>
        <time>2025-06-25T20:05:45.374Z</time>
      </trkpt>
      <trkpt lat="47.757576" lon="-0.486936">
        <ele>46.583061</ele>
        <time>2025-06-25T20:05:48.556Z</time>
      </trkpt>
      <trkpt lat="47.757573" lon="-0.486916">
        <ele>46.596994</ele>
        <time>2025-06-25T20:05:48.863Z</time>
      </trkpt>
      <trkpt lat="47.757407" lon="-0.485804">
        <ele>47.222126</ele>
        <time>2025-06-25T20:06:05.231Z</time>
      </trkpt>
      <trkpt lat="47.757381" lon="-0.485641">
        <ele>47.274083</ele>
        <time>2025-06-25T20:06:07.344Z</time>
      </trkpt>
      <trkpt lat="47.757355" lon="-0.485468">
        <ele>47.329063</ele>
        <time>2025-06-25T20:06:09.559Z</time>
      </trkpt>
      <trkpt lat="47.757320" lon="-0.485244">
        <ele>47.400387</ele>
        <time>2025-06-25T20:06:12.401Z</time>
      </trkpt>
      <trkpt lat="47.757304" lon="-0.485142">
        <ele>47.432872</ele>
        <time>2025-06-25T20:06:13.694Z</time>
      </trkpt>
      <trkpt lat="47.757261" lon="-0.484850">
        <ele>47.525582</ele>
        <time>2025-06-25T20:06:17.180Z</time>
      </trkpt>
      <trkpt lat="47.757242" lon="-0.484703">
        <ele>47.572008</ele>
        <time>2025-06-25T20:06:18.880Z</time>
      </trkpt>
      <trkpt lat="47.757154" lon="-0.484099">
        <ele>47.763686</ele>
        <time>2025-06-25T20:06:25.333Z</time>
      </trkpt>
      <trkpt lat="47.755521" lon="-0.473574">
        <ele>42.254668</ele>
        <time>2025-06-25T20:07:56.562Z</time>
      </trkpt>
      <trkpt lat="47.754412" lon="-0.466413">
        <ele>35.894482</ele>
        <time>2025-06-25T20:08:55.129Z</time>
      </trkpt>
      <trkpt lat="47.754043" lon="-0.464034">
        <ele>33.638622</ele>
        <time>2025-06-25T20:09:13.187Z</time>
      </trkpt>
      <trkpt lat="47.754024" lon="-0.463916">
        <ele>33.537910</ele>
        <time>2025-06-25T20:09:14.115Z</time>
      </trkpt>
      <trkpt lat="47.752544" lon="-0.454373">
        <ele>30.495060</ele>
        <time>2025-06-25T20:10:42.234Z</time>
      </trkpt>
      <trkpt lat="47.752149" lon="-0.451846">
        <ele>31.812608</ele>
        <time>2025-06-25T20:11:16.970Z</time>
      </trkpt>
      <trkpt lat="47.751540" lon="-0.447990">
        <ele>33.274664</ele>
        <time>2025-06-25T20:12:00.634Z</time>
      </trkpt>
      <trkpt lat="47.750834" lon="-0.443324">
        <ele>35.971464</ele>
        <time>2025-06-25T20:12:55.879Z</time>
      </trkpt>
      <trkpt lat="47.750324" lon="-0.440022">
        <ele>39.364631</ele>
        <time>2025-06-25T20:13:52.989Z</time>
      </trkpt>
      <trkpt lat="47.750068" lon="-0.438398">
        <ele>37.866278</ele>
        <time>2025-06-25T20:14:06.457Z</time>
      </trkpt>
      <trkpt lat="47.749911" lon="-0.437401">
        <ele>35.353937</ele>
        <time>2025-06-25T20:14:13.012Z</time>
      </trkpt>
      <trkpt lat="47.749879" lon="-0.437197">
        <ele>34.839980</ele>
        <time>2025-06-25T20:14:14.314Z</time>
      </trkpt>
      <trkpt lat="47.749862" lon="-0.437089">
        <ele>34.567836</ele>
        <time>2025-06-25T20:14:15.004Z</time>
      </trkpt>
      <trkpt lat="47.749710" lon="-0.436118">
        <ele>32.075444</ele>
        <time>2025-06-25T20:14:21.163Z</time>
      </trkpt>
      <trkpt lat="47.749610" lon="-0.435481">
        <ele>30.416598</ele>
        <time>2025-06-25T20:14:25.405Z</time>
      </trkpt>
      <trkpt lat="47.749500" lon="-0.434780">
        <ele>28.591124</ele>
        <time>2025-06-25T20:14:30.326Z</time>
      </trkpt>
      <trkpt lat="47.749382" lon="-0.434025">
        <ele>26.676197</ele>
        <time>2025-06-25T20:14:35.880Z</time>
      </trkpt>
      <trkpt lat="47.749241" lon="-0.433127">
        <ele>25.641971</ele>
        <time>2025-06-25T20:14:42.734Z</time>
      </trkpt>
      <trkpt lat="47.749117" lon="-0.432508">
        <ele>24.917590</ele>
        <time>2025-06-25T20:14:47.709Z</time>
      </trkpt>
      <trkpt lat="47.749098" lon="-0.432455">
        <ele>24.850228</ele>
        <time>2025-06-25T20:14:48.172Z</time>
      </trkpt>
      <trkpt lat="47.748982" lon="-0.432121">
        <ele>24.428617</ele>
        <time>2025-06-25T20:14:51.120Z</time>
      </trkpt>
      <trkpt lat="47.748865" lon="-0.431806">
        <ele>24.025014</ele>
        <time>2025-06-25T20:14:53.970Z</time>
      </trkpt>
      <trkpt lat="47.748678" lon="-0.431274">
        <ele>23.469145</ele>
        <time>2025-06-25T20:14:58.790Z</time>
      </trkpt>
      <trkpt lat="47.748643" lon="-0.431186">
        <ele>23.391402</ele>
        <time>2025-06-25T20:14:59.591Z</time>
      </trkpt>
      <trkpt lat="47.748627" lon="-0.431150">
        <ele>23.358589</ele>
        <time>2025-06-25T20:14:59.940Z</time>
      </trkpt>
      <trkpt lat="47.748322" lon="-0.430308">
        <ele>22.631357</ele>
        <time>2025-06-25T20:15:07.565Z</time>
      </trkpt>
      <trkpt lat="47.748274" lon="-0.430177">
        <ele>22.517918</ele>
        <time>2025-06-25T20:15:08.776Z</time>
      </trkpt>
      <trkpt lat="47.748186" lon="-0.429924">
        <ele>22.301327</ele>
        <time>2025-06-25T20:15:11.089Z</time>
      </trkpt>
      <trkpt lat="47.747884" lon="-0.429070">
        <ele>21.634850</ele>
        <time>2025-06-25T20:15:19.002Z</time>
      </trkpt>
      <trkpt lat="47.747387" lon="-0.427676">
        <ele>21.138417</ele>
        <time>2025-06-25T20:15:32.555Z</time>
      </trkpt>
      <trkpt lat="47.746285" lon="-0.424602">
        <ele>20.901898</ele>
        <time>2025-06-25T20:16:07.694Z</time>
      </trkpt>
      <trkpt lat="47.746196" lon="-0.424301">
        <ele>20.874101</ele>
        <time>2025-06-25T20:16:11.084Z</time>
      </trkpt>
      <trkpt lat="47.746110" lon="-0.423785">
        <ele>20.787562</ele>
        <time>2025-06-25T20:16:16.575Z</time>
      </trkpt>
      <trkpt lat="47.746115" lon="-0.422017">
        <ele>20.499756</ele>
        <time>2025-06-25T20:16:32.615Z</time>
      </trkpt>
      <trkpt lat="47.746122" lon="-0.421086">
        <ele>20.737761</ele>
        <time>2025-06-25T20:16:41.012Z</time>
      </trkpt>
      <trkpt lat="47.746119" lon="-0.419994">
        <ele>21.129523</ele>
        <time>2025-06-25T20:16:53.075Z</time>
      </trkpt>
      <trkpt lat="47.746118" lon="-0.418711">
        <ele>21.830442</ele>
        <time>2025-06-25T20:17:10.959Z</time>
      </trkpt>
      <trkpt lat="47.746119" lon="-0.418569">
        <ele>21.957823</ele>
        <time>2025-06-25T20:17:13.067Z</time>
      </trkpt>
      <trkpt lat="47.746112" lon="-0.418123">
        <ele>22.357995</ele>
        <time>2025-06-25T20:17:19.946Z</time>
      </trkpt>
      <trkpt lat="47.746096" lon="-0.417577">
        <ele>22.848223</ele>
        <time>2025-06-25T20:17:28.026Z</time>
      </trkpt>
      <trkpt lat="47.746104" lon="-0.416967">
        <ele>23.395498</ele>
        <time>2025-06-25T20:17:35.909Z</time>
      </trkpt>
      <trkpt lat="47.746085" lon="-0.416790">
        <ele>23.556278</ele>
        <time>2025-06-25T20:17:38.075Z</time>
      </trkpt>
      <trkpt lat="47.746018" lon="-0.416536">
        <ele>23.801020</ele>
        <time>2025-06-25T20:17:41.359Z</time>
      </trkpt>
      <trkpt lat="47.746025" lon="-0.416360">
        <ele>23.868015</ele>
        <time>2025-06-25T20:17:43.394Z</time>
      </trkpt>
      <trkpt lat="47.746047" lon="-0.416311">
        <ele>23.883912</ele>
        <time>2025-06-25T20:17:44.113Z</time>
      </trkpt>
      <trkpt lat="47.746160" lon="-0.416259">
        <ele>23.931377</ele>
        <time>2025-06-25T20:17:46.099Z</time>
      </trkpt>
      <trkpt lat="47.746323" lon="-0.416219">
        <ele>23.997670</ele>
        <time>2025-06-25T20:17:48.888Z</time>
      </trkpt>
      <trkpt lat="47.746500" lon="-0.416130">
        <ele>24.072645</ele>
        <time>2025-06-25T20:17:51.943Z</time>
      </trkpt>
      <trkpt lat="47.747454" lon="-0.415586">
        <ele>24.482636</ele>
        <time>2025-06-25T20:18:07.809Z</time>
      </trkpt>
      <trkpt lat="47.747632" lon="-0.415448">
        <ele>24.586395</ele>
        <time>2025-06-25T20:18:11.082Z</time>
      </trkpt>
      <trkpt lat="47.747840" lon="-0.415193">
        <ele>24.893216</ele>
        <time>2025-06-25T20:18:15.561Z</time>
      </trkpt>
      <trkpt lat="47.748036" lon="-0.414706">
        <ele>25.327599</ele>
        <time>2025-06-25T20:18:22.348Z</time>
      </trkpt>
      <trkpt lat="47.748297" lon="-0.413880">
        <ele>26.026086</ele>
        <time>2025-06-25T20:18:34.566Z</time>
      </trkpt>
      <trkpt lat="47.748452" lon="-0.413413">
        <ele>26.424667</ele>
        <time>2025-06-25T20:18:41.981Z</time>
      </trkpt>
      <trkpt lat="47.748556" lon="-0.413054">
        <ele>26.803608</ele>
        <time>2025-06-25T20:18:47.751Z</time>
      </trkpt>
      <trkpt lat="47.748715" lon="-0.412533">
        <ele>27.518663</ele>
        <time>2025-06-25T20:18:56.636Z</time>
      </trkpt>
      <trkpt lat="47.749333" lon="-0.410642">
        <ele>29.990878</ele>
        <time>2025-06-25T20:19:29.217Z</time>
      </trkpt>
      <trkpt lat="47.749404" lon="-0.410423">
        <ele>30.064760</ele>
        <time>2025-06-25T20:19:32.521Z</time>
      </trkpt>
      <trkpt lat="47.749923" lon="-0.408747">
        <ele>30.625477</ele>
        <time>2025-06-25T20:19:52.998Z</time>
      </trkpt>
      <trkpt lat="47.751449" lon="-0.402677">
        <ele>27.185238</ele>
        <time>2025-06-25T20:20:48.037Z</time>
      </trkpt>
      <trkpt lat="47.751832" lon="-0.401723">
        <ele>25.911181</ele>
        <time>2025-06-25T20:20:56.033Z</time>
      </trkpt>
      <trkpt lat="47.752305" lon="-0.400661">
        <ele>24.730586</ele>
        <time>2025-06-25T20:21:05.290Z</time>
      </trkpt>
      <trkpt lat="47.754313" lon="-0.395932">
        <ele>23.313522</ele>
        <time>2025-06-25T20:21:57.132Z</time>
      </trkpt>
      <trkpt lat="47.754458" lon="-0.395585">
        <ele>23.414149</ele>
        <time>2025-06-25T20:22:01.248Z</time>
      </trkpt>
      <trkpt lat="47.754822" lon="-0.394411">
        <ele>23.732564</ele>
        <time>2025-06-25T20:22:15.967Z</time>
      </trkpt>
      <trkpt lat="47.755228" lon="-0.393018">
        <ele>24.967762</ele>
        <time>2025-06-25T20:22:36.401Z</time>
      </trkpt>
      <trkpt lat="47.755547" lon="-0.391418">
        <ele>26.578773</ele>
        <time>2025-06-25T20:23:00.467Z</time>
      </trkpt>
      <trkpt lat="47.755561" lon="-0.391136">
        <ele>26.860293</ele>
        <time>2025-06-25T20:23:04.482Z</time>
      </trkpt>
      <trkpt lat="47.755560" lon="-0.390471">
        <ele>27.522359</ele>
        <time>2025-06-25T20:23:13.808Z</time>
      </trkpt>
      <trkpt lat="47.755587" lon="-0.390212">
        <ele>27.783298</ele>
        <time>2025-06-25T20:23:17.478Z</time>
      </trkpt>
      <trkpt lat="47.755668" lon="-0.389892">
        <ele>28.123718</ele>
        <time>2025-06-25T20:23:22.284Z</time>
      </trkpt>
      <trkpt lat="47.755925" lon="-0.389202">
        <ele>28.909051</ele>
        <time>2025-06-25T20:23:33.178Z</time>
      </trkpt>
      <trkpt lat="47.755993" lon="-0.388948">
        <ele>29.140214</ele>
        <time>2025-06-25T20:23:36.844Z</time>
      </trkpt>
      <trkpt lat="47.756314" lon="-0.387254">
        <ele>30.364452</ele>
        <time>2025-06-25T20:23:59.760Z</time>
      </trkpt>
      <trkpt lat="47.756877" lon="-0.384283">
        <ele>31.584605</ele>
        <time>2025-06-25T20:24:35.873Z</time>
      </trkpt>
      <trkpt lat="47.757308" lon="-0.381923">
        <ele>30.985095</ele>
        <time>2025-06-25T20:24:58.333Z</time>
      </trkpt>
      <trkpt lat="47.757351" lon="-0.381467">
        <ele>30.828339</ele>
        <time>2025-06-25T20:25:02.160Z</time>
      </trkpt>
      <trkpt lat="47.757357" lon="-0.381003">
        <ele>30.450863</ele>
        <time>2025-06-25T20:25:05.935Z</time>
      </trkpt>
      <trkpt lat="47.757352" lon="-0.377687">
        <ele>27.140160</ele>
        <time>2025-06-25T20:25:31.205Z</time>
      </trkpt>
      <trkpt lat="47.757327" lon="-0.377122">
        <ele>26.592169</ele>
        <time>2025-06-25T20:25:35.466Z</time>
      </trkpt>
      <trkpt lat="47.757253" lon="-0.376109">
        <ele>25.606015</ele>
        <time>2025-06-25T20:25:43.490Z</time>
      </trkpt>
      <trkpt lat="47.757208" lon="-0.375316">
        <ele>25.360685</ele>
        <time>2025-06-25T20:25:50.274Z</time>
      </trkpt>
      <trkpt lat="47.757203" lon="-0.372774">
        <ele>24.952162</ele>
        <time>2025-06-25T20:26:15.485Z</time>
      </trkpt>
      <trkpt lat="47.757196" lon="-0.372057">
        <ele>24.910435</ele>
        <time>2025-06-25T20:26:22.382Z</time>
      </trkpt>
      <trkpt lat="47.757169" lon="-0.371652">
        <ele>24.886752</ele>
        <time>2025-06-25T20:26:26.303Z</time>
      </trkpt>
      <trkpt lat="47.757035" lon="-0.370836">
        <ele>24.837871</ele>
        <time>2025-06-25T20:26:34.323Z</time>
      </trkpt>
      <trkpt lat="47.756811" lon="-0.370136">
        <ele>24.838015</ele>
        <time>2025-06-25T20:26:41.939Z</time>
      </trkpt>
      <trkpt lat="47.756303" lon="-0.368869">
        <ele>24.862748</ele>
        <time>2025-06-25T20:26:56.924Z</time>
      </trkpt>
      <trkpt lat="47.755326" lon="-0.366379">
        <ele>24.927420</ele>
        <time>2025-06-25T20:27:26.590Z</time>
      </trkpt>
      <trkpt lat="47.755007" lon="-0.365279">
        <ele>24.684431</ele>
        <time>2025-06-25T20:27:37.692Z</time>
      </trkpt>
      <trkpt lat="47.754901" lon="-0.364763">
        <ele>24.516218</ele>
        <time>2025-06-25T20:27:42.458Z</time>
      </trkpt>
      <trkpt lat="47.754820" lon="-0.364359">
        <ele>24.384783</ele>
        <time>2025-06-25T20:27:46.114Z</time>
      </trkpt>
      <trkpt lat="47.754375" lon="-0.361747">
        <ele>23.731651</ele>
        <time>2025-06-25T20:28:10.016Z</time>
      </trkpt>
      <trkpt lat="47.754286" lon="-0.360866">
        <ele>23.548504</ele>
        <time>2025-06-25T20:28:18.787Z</time>
      </trkpt>
      <trkpt lat="47.754241" lon="-0.358986">
        <ele>23.722577</ele>
        <time>2025-06-25T20:28:38.342Z</time>
      </trkpt>
      <trkpt lat="47.754267" lon="-0.358784">
        <ele>23.741608</ele>
        <time>2025-06-25T20:28:40.431Z</time>
      </trkpt>
      <trkpt lat="47.754320" lon="-0.358594">
        <ele>23.760642</ele>
        <time>2025-06-25T20:28:42.561Z</time>
      </trkpt>
      <trkpt lat="47.754395" lon="-0.358436">
        <ele>23.778540</ele>
        <time>2025-06-25T20:28:44.591Z</time>
      </trkpt>
      <trkpt lat="47.754557" lon="-0.358243">
        <ele>23.823806</ele>
        <time>2025-06-25T20:28:47.852Z</time>
      </trkpt>
      <trkpt lat="47.754911" lon="-0.357937">
        <ele>23.961831</ele>
        <time>2025-06-25T20:28:54.460Z</time>
      </trkpt>
      <trkpt lat="47.755084" lon="-0.357733">
        <ele>24.036254</ele>
        <time>2025-06-25T20:28:58.038Z</time>
      </trkpt>
      <trkpt lat="47.755210" lon="-0.357567">
        <ele>24.092996</ele>
        <time>2025-06-25T20:29:00.774Z</time>
      </trkpt>
      <trkpt lat="47.755443" lon="-0.357111">
        <ele>24.222803</ele>
        <time>2025-06-25T20:29:06.973Z</time>
      </trkpt>
      <trkpt lat="47.756164" lon="-0.355533">
        <ele>24.741064</ele>
        <time>2025-06-25T20:29:28.163Z</time>
      </trkpt>
      <trkpt lat="47.756473" lon="-0.354781">
        <ele>25.008509</ele>
        <time>2025-06-25T20:29:37.690Z</time>
      </trkpt>
      <trkpt lat="47.756928" lon="-0.353321">
        <ele>25.618266</ele>
        <time>2025-06-25T20:29:56.396Z</time>
      </trkpt>
      <trkpt lat="47.757053" lon="-0.352982">
        <ele>25.785927</ele>
        <time>2025-06-25T20:30:01.225Z</time>
      </trkpt>
      <trkpt lat="47.757193" lon="-0.352707">
        <ele>25.935509</ele>
        <time>2025-06-25T20:30:05.496Z</time>
      </trkpt>
      <trkpt lat="47.757470" lon="-0.352329">
        <ele>26.177976</ele>
        <time>2025-06-25T20:30:12.327Z</time>
      </trkpt>
      <trkpt lat="47.757684" lon="-0.352165">
        <ele>26.333253</ele>
        <time>2025-06-25T20:30:16.659Z</time>
      </trkpt>
      <trkpt lat="47.759127" lon="-0.351297">
        <ele>26.556633</ele>
        <time>2025-06-25T20:30:40.457Z</time>
      </trkpt>
      <trkpt lat="47.759491" lon="-0.351024">
        <ele>26.576873</ele>
        <time>2025-06-25T20:30:46.153Z</time>
      </trkpt>
      <trkpt lat="47.759588" lon="-0.350915">
        <ele>26.556584</ele>
        <time>2025-06-25T20:30:47.880Z</time>
      </trkpt>
      <trkpt lat="47.759723" lon="-0.350725">
        <ele>26.525567</ele>
        <time>2025-06-25T20:30:50.521Z</time>
      </trkpt>
      <trkpt lat="47.760513" lon="-0.349319">
        <ele>26.319975</ele>
        <time>2025-06-25T20:31:08.313Z</time>
      </trkpt>
      <trkpt lat="47.760898" lon="-0.348708">
        <ele>26.177307</ele>
        <time>2025-06-25T20:31:16.071Z</time>
      </trkpt>
      <trkpt lat="47.761639" lon="-0.347621">
        <ele>25.878762</ele>
        <time>2025-06-25T20:31:29.910Z</time>
      </trkpt>
      <trkpt lat="47.761851" lon="-0.347108">
        <ele>25.774431</ele>
        <time>2025-06-25T20:31:35.795Z</time>
      </trkpt>
      <trkpt lat="47.761984" lon="-0.346622">
        <ele>25.751991</ele>
        <time>2025-06-25T20:31:41.220Z</time>
      </trkpt>
      <trkpt lat="47.762035" lon="-0.346016">
        <ele>25.725874</ele>
        <time>2025-06-25T20:31:47.590Z</time>
      </trkpt>
      <trkpt lat="47.762033" lon="-0.345466">
        <ele>25.702353</ele>
        <time>2025-06-25T20:31:53.140Z</time>
      </trkpt>
      <trkpt lat="47.762049" lon="-0.344938">
        <ele>25.679750</ele>
        <time>2025-06-25T20:31:58.311Z</time>
      </trkpt>
      <trkpt lat="47.762150" lon="-0.344147">
        <ele>25.650598</ele>
        <time>2025-06-25T20:32:05.587Z</time>
      </trkpt>
      <trkpt lat="47.762408" lon="-0.343131">
        <ele>25.617739</ele>
        <time>2025-06-25T20:32:15.166Z</time>
      </trkpt>
      <trkpt lat="47.762517" lon="-0.342788">
        <ele>25.606261</ele>
        <time>2025-06-25T20:32:18.771Z</time>
      </trkpt>
      <trkpt lat="47.762892" lon="-0.341822">
        <ele>25.898848</ele>
        <time>2025-06-25T20:32:31.672Z</time>
      </trkpt>
      <trkpt lat="47.762994" lon="-0.341503">
        <ele>26.240364</ele>
        <time>2025-06-25T20:32:36.449Z</time>
      </trkpt>
      <trkpt lat="47.763059" lon="-0.341186">
        <ele>26.560774</ele>
        <time>2025-06-25T20:32:41.117Z</time>
      </trkpt>
      <trkpt lat="47.763141" lon="-0.340252">
        <ele>27.471413</ele>
        <time>2025-06-25T20:32:54.968Z</time>
      </trkpt>
      <trkpt lat="47.763241" lon="-0.339443">
        <ele>28.258133</ele>
        <time>2025-06-25T20:33:07.352Z</time>
      </trkpt>
      <trkpt lat="47.763747" lon="-0.336363">
        <ele>30.725393</ele>
        <time>2025-06-25T20:33:49.762Z</time>
      </trkpt>
      <trkpt lat="47.763867" lon="-0.336039">
        <ele>30.846803</ele>
        <time>2025-06-25T20:33:53.849Z</time>
      </trkpt>
      <trkpt lat="47.764503" lon="-0.335129">
        <ele>31.277644</ele>
        <time>2025-06-25T20:34:07.522Z</time>
      </trkpt>
      <trkpt lat="47.764883" lon="-0.334490">
        <ele>31.574068</ele>
        <time>2025-06-25T20:34:16.190Z</time>
      </trkpt>
      <trkpt lat="47.765117" lon="-0.334081">
        <ele>31.769688</ele>
        <time>2025-06-25T20:34:21.896Z</time>
      </trkpt>
      <trkpt lat="47.765634" lon="-0.333045">
        <ele>32.239640</ele>
        <time>2025-06-25T20:34:37.032Z</time>
      </trkpt>
      <trkpt lat="47.765780" lon="-0.332468">
        <ele>32.561170</ele>
        <time>2025-06-25T20:34:44.720Z</time>
      </trkpt>
      <trkpt lat="47.765793" lon="-0.332201">
        <ele>32.774732</ele>
        <time>2025-06-25T20:34:48.176Z</time>
      </trkpt>
      <trkpt lat="47.765789" lon="-0.331682">
        <ele>33.188800</ele>
        <time>2025-06-25T20:34:55.039Z</time>
      </trkpt>
      <trkpt lat="47.765765" lon="-0.329552">
        <ele>34.777884</ele>
        <time>2025-06-25T20:35:24.023Z</time>
      </trkpt>
      <trkpt lat="47.765793" lon="-0.329242">
        <ele>34.953124</ele>
        <time>2025-06-25T20:35:27.694Z</time>
      </trkpt>
      <trkpt lat="47.765866" lon="-0.328944">
        <ele>35.130822</ele>
        <time>2025-06-25T20:35:31.338Z</time>
      </trkpt>
      <trkpt lat="47.765998" lon="-0.328499">
        <ele>35.403333</ele>
        <time>2025-06-25T20:35:36.876Z</time>
      </trkpt>
      <trkpt lat="47.766141" lon="-0.328056">
        <ele>35.678662</ele>
        <time>2025-06-25T20:35:42.931Z</time>
      </trkpt>
      <trkpt lat="47.766244" lon="-0.327633">
        <ele>35.930720</ele>
        <time>2025-06-25T20:35:48.475Z</time>
      </trkpt>
      <trkpt lat="47.766313" lon="-0.327128">
        <ele>36.185792</ele>
        <time>2025-06-25T20:35:54.515Z</time>
      </trkpt>
      <trkpt lat="47.766333" lon="-0.326804">
        <ele>36.337836</ele>
        <time>2025-06-25T20:35:58.314Z</time>
      </trkpt>
      <trkpt lat="47.766324" lon="-0.326606">
        <ele>36.430574</ele>
        <time>2025-06-25T20:36:00.692Z</time>
      </trkpt>
      <trkpt lat="47.766318" lon="-0.326491">
        <ele>36.484475</ele>
        <time>2025-06-25T20:36:02.116Z</time>
      </trkpt>
      <trkpt lat="47.766306" lon="-0.325399">
        <ele>36.994840</ele>
        <time>2025-06-25T20:36:15.728Z</time>
      </trkpt>
      <trkpt lat="47.766354" lon="-0.325291">
        <ele>37.055344</ele>
        <time>2025-06-25T20:36:17.269Z</time>
      </trkpt>
      <trkpt lat="47.766365" lon="-0.324712">
        <ele>37.249868</ele>
        <time>2025-06-25T20:36:23.853Z</time>
      </trkpt>
      <trkpt lat="47.766387" lon="-0.324576">
        <ele>37.230703</ele>
        <time>2025-06-25T20:36:25.227Z</time>
      </trkpt>
      <trkpt lat="47.766486" lon="-0.324150">
        <ele>37.168951</ele>
        <time>2025-06-25T20:36:29.564Z</time>
      </trkpt>
      <trkpt lat="47.766800" lon="-0.323271">
        <ele>37.032575</ele>
        <time>2025-06-25T20:36:38.690Z</time>
      </trkpt>
      <trkpt lat="47.766901" lon="-0.322976">
        <ele>36.987219</ele>
        <time>2025-06-25T20:36:41.691Z</time>
      </trkpt>
      <trkpt lat="47.767012" lon="-0.322688">
        <ele>36.941736</ele>
        <time>2025-06-25T20:36:44.738Z</time>
      </trkpt>
      <trkpt lat="47.767101" lon="-0.322433">
        <ele>36.902372</ele>
        <time>2025-06-25T20:36:47.376Z</time>
      </trkpt>
      <trkpt lat="47.767126" lon="-0.322269">
        <ele>36.816541</ele>
        <time>2025-06-25T20:36:48.890Z</time>
      </trkpt>
      <trkpt lat="47.767097" lon="-0.321498">
        <ele>36.397249</ele>
        <time>2025-06-25T20:36:55.633Z</time>
      </trkpt>
      <trkpt lat="47.767109" lon="-0.321231">
        <ele>36.251949</ele>
        <time>2025-06-25T20:36:57.965Z</time>
      </trkpt>
      <trkpt lat="47.767145" lon="-0.321029">
        <ele>36.138478</ele>
        <time>2025-06-25T20:36:59.777Z</time>
      </trkpt>
      <trkpt lat="47.767197" lon="-0.320877">
        <ele>36.045869</ele>
        <time>2025-06-25T20:37:01.240Z</time>
      </trkpt>
      <trkpt lat="47.767449" lon="-0.320410">
        <ele>35.720693</ele>
        <time>2025-06-25T20:37:06.253Z</time>
      </trkpt>
      <trkpt lat="47.767740" lon="-0.319932">
        <ele>35.343419</ele>
        <time>2025-06-25T20:37:11.384Z</time>
      </trkpt>
      <trkpt lat="47.767975" lon="-0.319404">
        <ele>34.878587</ele>
        <time>2025-06-25T20:37:16.319Z</time>
      </trkpt>
      <trkpt lat="47.768076" lon="-0.319018">
        <ele>34.574543</ele>
        <time>2025-06-25T20:37:19.523Z</time>
      </trkpt>
      <trkpt lat="47.768170" lon="-0.318471">
        <ele>34.160120</ele>
        <time>2025-06-25T20:37:23.948Z</time>
      </trkpt>
      <trkpt lat="47.768263" lon="-0.317180">
        <ele>33.375590</ele>
        <time>2025-06-25T20:37:35.157Z</time>
      </trkpt>
      <trkpt lat="47.768287" lon="-0.316500">
        <ele>33.180722</ele>
        <time>2025-06-25T20:37:41.482Z</time>
      </trkpt>
      <trkpt lat="47.768304" lon="-0.316097">
        <ele>33.065166</ele>
        <time>2025-06-25T20:37:45.195Z</time>
      </trkpt>
      <trkpt lat="47.768326" lon="-0.315583">
        <ele>32.917774</ele>
        <time>2025-06-25T20:37:49.831Z</time>
      </trkpt>
      <trkpt lat="47.768379" lon="-0.314297">
        <ele>33.116019</ele>
        <time>2025-06-25T20:38:01.486Z</time>
      </trkpt>
      <trkpt lat="47.768415" lon="-0.313975">
        <ele>33.337116</ele>
        <time>2025-06-25T20:38:04.827Z</time>
      </trkpt>
      <trkpt lat="47.768487" lon="-0.313664">
        <ele>33.559910</ele>
        <time>2025-06-25T20:38:08.493Z</time>
      </trkpt>
      <trkpt lat="47.768608" lon="-0.313293">
        <ele>33.839219</ele>
        <time>2025-06-25T20:38:13.575Z</time>
      </trkpt>
      <trkpt lat="47.771060" lon="-0.306144">
        <ele>44.928942</ele>
        <time>2025-06-25T20:40:24.599Z</time>
      </trkpt>
      <trkpt lat="47.772362" lon="-0.302343">
        <ele>47.458123</ele>
        <time>2025-06-25T20:41:16.353Z</time>
      </trkpt>
      <trkpt lat="47.773222" lon="-0.299820">
        <ele>47.044976</ele>
        <time>2025-06-25T20:41:41.745Z</time>
      </trkpt>
      <trkpt lat="47.773329" lon="-0.299377">
        <ele>46.883378</ele>
        <time>2025-06-25T20:41:45.795Z</time>
      </trkpt>
      <trkpt lat="47.773347" lon="-0.299247">
        <ele>46.837814</ele>
        <time>2025-06-25T20:41:46.940Z</time>
      </trkpt>
      <trkpt lat="47.773451" lon="-0.298526">
        <ele>46.584671</ele>
        <time>2025-06-25T20:41:53.370Z</time>
      </trkpt>
      <trkpt lat="47.773549" lon="-0.297453">
        <ele>46.315557</ele>
        <time>2025-06-25T20:42:03.228Z</time>
      </trkpt>
      <trkpt lat="47.773600" lon="-0.295672">
        <ele>46.094515</ele>
        <time>2025-06-25T20:42:20.668Z</time>
      </trkpt>
      <trkpt lat="47.773742" lon="-0.290471">
        <ele>45.242157</ele>
        <time>2025-06-25T20:43:10.296Z</time>
      </trkpt>
      <trkpt lat="47.773808" lon="-0.289426">
        <ele>44.760728</ele>
        <time>2025-06-25T20:43:19.138Z</time>
      </trkpt>
      <trkpt lat="47.773870" lon="-0.288964">
        <ele>44.419529</ele>
        <time>2025-06-25T20:43:22.936Z</time>
      </trkpt>
      <trkpt lat="47.774112" lon="-0.287572">
        <ele>43.378221</ele>
        <time>2025-06-25T20:43:34.331Z</time>
      </trkpt>
      <trkpt lat="47.774488" lon="-0.285622">
        <ele>42.271608</ele>
        <time>2025-06-25T20:43:51.124Z</time>
      </trkpt>
      <trkpt lat="47.774645" lon="-0.285115">
        <ele>41.983800</ele>
        <time>2025-06-25T20:43:56.117Z</time>
      </trkpt>
      <trkpt lat="47.774862" lon="-0.284611">
        <ele>41.764170</ele>
        <time>2025-06-25T20:44:01.594Z</time>
      </trkpt>
      <trkpt lat="47.775158" lon="-0.284089">
        <ele>41.690438</ele>
        <time>2025-06-25T20:44:08.155Z</time>
      </trkpt>
      <trkpt lat="47.775518" lon="-0.283538">
        <ele>41.607479</ele>
        <time>2025-06-25T20:44:15.830Z</time>
      </trkpt>
      <trkpt lat="47.776531" lon="-0.282114">
        <ele>41.333112</ele>
        <time>2025-06-25T20:44:35.719Z</time>
      </trkpt>
      <trkpt lat="47.777258" lon="-0.280941">
        <ele>41.085312</ele>
        <time>2025-06-25T20:44:50.191Z</time>
      </trkpt>
      <trkpt lat="47.777824" lon="-0.280046">
        <ele>41.209804</ele>
        <time>2025-06-25T20:45:02.520Z</time>
      </trkpt>
      <trkpt lat="47.777954" lon="-0.279849">
        <ele>41.238576</ele>
        <time>2025-06-25T20:45:05.584Z</time>
      </trkpt>
      <trkpt lat="47.779347" lon="-0.278108">
        <ele>41.210538</ele>
        <time>2025-06-25T20:45:34.800Z</time>
      </trkpt>
      <trkpt lat="47.780175" lon="-0.277068">
        <ele>40.812814</ele>
        <time>2025-06-25T20:45:48.761Z</time>
      </trkpt>
      <trkpt lat="47.780794" lon="-0.276343">
        <ele>40.088585</ele>
        <time>2025-06-25T20:45:58.247Z</time>
      </trkpt>
      <trkpt lat="47.781459" lon="-0.275470">
        <ele>39.319277</ele>
        <time>2025-06-25T20:46:09.052Z</time>
      </trkpt>
      <trkpt lat="47.782823" lon="-0.273805">
        <ele>38.235834</ele>
        <time>2025-06-25T20:46:31.996Z</time>
      </trkpt>
      <trkpt lat="47.783270" lon="-0.273254">
        <ele>38.222466</ele>
        <time>2025-06-25T20:46:40.089Z</time>
      </trkpt>
      <trkpt lat="47.783477" lon="-0.272948">
        <ele>38.215746</ele>
        <time>2025-06-25T20:46:44.354Z</time>
      </trkpt>
      <trkpt lat="47.783680" lon="-0.272535">
        <ele>38.207828</ele>
        <time>2025-06-25T20:46:49.568Z</time>
      </trkpt>
      <trkpt lat="47.784811" lon="-0.269944">
        <ele>39.007718</ele>
        <time>2025-06-25T20:47:23.997Z</time>
      </trkpt>
      <trkpt lat="47.785506" lon="-0.268429">
        <ele>39.926616</ele>
        <time>2025-06-25T20:47:46.449Z</time>
      </trkpt>
      <trkpt lat="47.786927" lon="-0.265252">
        <ele>41.761242</ele>
        <time>2025-06-25T20:48:32.615Z</time>
      </trkpt>
      <trkpt lat="47.788541" lon="-0.261640">
        <ele>41.620840</ele>
        <time>2025-06-25T20:49:14.054Z</time>
      </trkpt>
      <trkpt lat="47.788826" lon="-0.260954">
        <ele>41.584365</ele>
        <time>2025-06-25T20:49:22.260Z</time>
      </trkpt>
      <trkpt lat="47.789347" lon="-0.259493">
        <ele>41.658105</ele>
        <time>2025-06-25T20:49:39.702Z</time>
      </trkpt>
      <trkpt lat="47.789745" lon="-0.258180">
        <ele>41.717909</ele>
        <time>2025-06-25T20:49:53.941Z</time>
      </trkpt>
      <trkpt lat="47.789863" lon="-0.257818">
        <ele>41.714395</ele>
        <time>2025-06-25T20:49:57.828Z</time>
      </trkpt>
      <trkpt lat="47.790114" lon="-0.257242">
        <ele>41.708400</ele>
        <time>2025-06-25T20:50:04.300Z</time>
      </trkpt>
      <trkpt lat="47.790349" lon="-0.256832">
        <ele>41.703693</ele>
        <time>2025-06-25T20:50:09.422Z</time>
      </trkpt>
      <trkpt lat="47.790654" lon="-0.256305">
        <ele>41.697619</ele>
        <time>2025-06-25T20:50:16.630Z</time>
      </trkpt>
      <trkpt lat="47.790938" lon="-0.255813">
        <ele>41.943620</ele>
        <time>2025-06-25T20:50:23.877Z</time>
      </trkpt>
      <trkpt lat="47.791269" lon="-0.255089">
        <ele>42.324617</ele>
        <time>2025-06-25T20:50:33.870Z</time>
      </trkpt>
      <trkpt lat="47.791682" lon="-0.254017">
        <ele>42.861863</ele>
        <time>2025-06-25T20:50:49.287Z</time>
      </trkpt>
      <trkpt lat="47.791974" lon="-0.253295">
        <ele>42.993233</ele>
        <time>2025-06-25T20:50:59.614Z</time>
      </trkpt>
      <trkpt lat="47.792536" lon="-0.252309">
        <ele>43.194801</ele>
        <time>2025-06-25T20:51:13.569Z</time>
      </trkpt>
      <trkpt lat="47.792853" lon="-0.253035">
        <ele>43.144327</ele>
        <time>2025-06-25T20:51:21.096Z</time>
      </trkpt>
      <trkpt lat="47.792964" lon="-0.253285">
        <ele>43.020434</ele>
        <time>2025-06-25T20:51:23.528Z</time>
      </trkpt>
      <trkpt lat="47.793104" lon="-0.253601">
        <ele>42.863935</ele>
        <time>2025-06-25T20:51:26.606Z</time>
      </trkpt>
      <trkpt lat="47.793253" lon="-0.253886">
        <ele>42.714630</ele>
        <time>2025-06-25T20:51:29.530Z</time>
      </trkpt>
      <trkpt lat="47.793311" lon="-0.253989">
        <ele>42.659066</ele>
        <time>2025-06-25T20:51:30.652Z</time>
      </trkpt>
      <trkpt lat="47.793664" lon="-0.254584">
        <ele>42.330879</ele>
        <time>2025-06-25T20:51:37.602Z</time>
      </trkpt>
      <trkpt lat="47.794018" lon="-0.255206">
        <ele>42.393907</ele>
        <time>2025-06-25T20:51:45.210Z</time>
      </trkpt>
      <trkpt lat="47.794110" lon="-0.255349">
        <ele>42.495773</ele>
        <time>2025-06-25T20:51:47.395Z</time>
      </trkpt>
      <trkpt lat="47.794286" lon="-0.255133">
        <ele>42.670460</ele>
        <time>2025-06-25T20:51:51.308Z</time>
      </trkpt>
      <trkpt lat="47.794555" lon="-0.254804">
        <ele>42.937083</ele>
        <time>2025-06-25T20:51:57.882Z</time>
      </trkpt>
      <trkpt lat="47.794984" lon="-0.254390">
        <ele>43.328620</ele>
        <time>2025-06-25T20:52:08.043Z</time>
      </trkpt>
      <trkpt lat="47.795167" lon="-0.254299">
        <ele>43.476378</ele>
        <time>2025-06-25T20:52:11.875Z</time>
      </trkpt>
      <trkpt lat="47.795456" lon="-0.254262">
        <ele>43.720486</ele>
        <time>2025-06-25T20:52:17.680Z</time>
      </trkpt>
      <trkpt lat="47.795831" lon="-0.254235">
        <ele>44.050402</ele>
        <time>2025-06-25T20:52:25.505Z</time>
      </trkpt>
      <trkpt lat="47.796407" lon="-0.254083">
        <ele>44.564452</ele>
        <time>2025-06-25T20:52:36.997Z</time>
      </trkpt>
      <trkpt lat="47.797047" lon="-0.253791">
        <ele>45.104772</ele>
        <time>2025-06-25T20:52:48.173Z</time>
      </trkpt>
      <trkpt lat="47.797362" lon="-0.253520">
        <ele>44.746471</ele>
        <time>2025-06-25T20:52:53.261Z</time>
      </trkpt>
      <trkpt lat="47.797793" lon="-0.253005">
        <ele>44.202187</ele>
        <time>2025-06-25T20:52:59.980Z</time>
      </trkpt>
      <trkpt lat="47.798304" lon="-0.252699">
        <ele>43.659750</ele>
        <time>2025-06-25T20:53:06.282Z</time>
      </trkpt>
      <trkpt lat="47.798778" lon="-0.252466">
        <ele>43.155450</ele>
        <time>2025-06-25T20:53:11.930Z</time>
      </trkpt>
      <trkpt lat="47.799912" lon="-0.251984">
        <ele>41.916625</ele>
        <time>2025-06-25T20:53:25.836Z</time>
      </trkpt>
      <trkpt lat="47.802904" lon="-0.250733">
        <ele>40.940359</ele>
        <time>2025-06-25T20:54:09.492Z</time>
      </trkpt>
      <trkpt lat="47.803824" lon="-0.250353">
        <ele>40.881700</ele>
        <time>2025-06-25T20:54:24.025Z</time>
      </trkpt>
      <trkpt lat="47.803907" lon="-0.250318">
        <ele>40.886273</ele>
        <time>2025-06-25T20:54:25.354Z</time>
      </trkpt>
      <trkpt lat="47.804068" lon="-0.250251">
        <ele>40.895134</ele>
        <time>2025-06-25T20:54:27.946Z</time>
      </trkpt>
      <trkpt lat="47.809668" lon="-0.247883">
        <ele>41.308930</ele>
        <time>2025-06-25T20:55:55.190Z</time>
      </trkpt>
      <trkpt lat="47.810433" lon="-0.247553">
        <ele>41.468729</ele>
        <time>2025-06-25T20:56:07.778Z</time>
      </trkpt>
      <trkpt lat="47.810721" lon="-0.247392">
        <ele>41.535109</ele>
        <time>2025-06-25T20:56:12.851Z</time>
      </trkpt>
      <trkpt lat="47.811114" lon="-0.247028">
        <ele>41.718467</ele>
        <time>2025-06-25T20:56:20.567Z</time>
      </trkpt>
      <trkpt lat="47.811433" lon="-0.246652">
        <ele>41.879649</ele>
        <time>2025-06-25T20:56:27.445Z</time>
      </trkpt>
      <trkpt lat="47.814124" lon="-0.243369">
        <ele>43.201223</ele>
        <time>2025-06-25T20:57:24.011Z</time>
      </trkpt>
      <trkpt lat="47.815979" lon="-0.241123">
        <ele>44.182465</ele>
        <time>2025-06-25T20:58:03.325Z</time>
      </trkpt>
      <trkpt lat="47.816522" lon="-0.240472">
        <ele>44.576839</ele>
        <time>2025-06-25T20:58:15.035Z</time>
      </trkpt>
      <trkpt lat="47.817439" lon="-0.239355">
        <ele>45.495227</ele>
        <time>2025-06-25T20:58:35.922Z</time>
      </trkpt>
      <trkpt lat="47.817773" lon="-0.238943">
        <ele>45.821128</ele>
        <time>2025-06-25T20:58:44.316Z</time>
      </trkpt>
      <trkpt lat="47.818067" lon="-0.238581">
        <ele>46.070795</ele>
        <time>2025-06-25T20:58:52.001Z</time>
      </trkpt>
      <trkpt lat="47.818256" lon="-0.238382">
        <ele>46.222285</ele>
        <time>2025-06-25T20:58:56.534Z</time>
      </trkpt>
      <trkpt lat="47.818385" lon="-0.238305">
        <ele>46.313242</ele>
        <time>2025-06-25T20:58:59.176Z</time>
      </trkpt>
      <trkpt lat="47.818424" lon="-0.238277">
        <ele>46.341578</ele>
        <time>2025-06-25T20:58:59.998Z</time>
      </trkpt>
      <trkpt lat="47.818564" lon="-0.238210">
        <ele>46.437819</ele>
        <time>2025-06-25T20:59:02.658Z</time>
      </trkpt>
      <trkpt lat="47.818784" lon="-0.237971">
        <ele>46.616043</ele>
        <time>2025-06-25T20:59:07.304Z</time>
      </trkpt>
      <trkpt lat="47.818829" lon="-0.237955">
        <ele>46.646322</ele>
        <time>2025-06-25T20:59:08.103Z</time>
      </trkpt>
      <trkpt lat="47.818904" lon="-0.237754">
        <ele>46.747377</ele>
        <time>2025-06-25T20:59:10.561Z</time>
      </trkpt>
      <trkpt lat="47.819096" lon="-0.237534">
        <ele>46.905926</ele>
        <time>2025-06-25T20:59:14.184Z</time>
      </trkpt>
      <trkpt lat="47.819457" lon="-0.237042">
        <ele>46.720734</ele>
        <time>2025-06-25T20:59:20.822Z</time>
      </trkpt>
      <trkpt lat="47.820352" lon="-0.235901">
        <ele>46.118367</ele>
        <time>2025-06-25T20:59:35.611Z</time>
      </trkpt>
      <trkpt lat="47.821514" lon="-0.234387">
        <ele>45.757793</ele>
        <time>2025-06-25T20:59:57.201Z</time>
      </trkpt>
      <trkpt lat="47.821868" lon="-0.233971">
        <ele>45.674552</ele>
        <time>2025-06-25T21:00:04.005Z</time>
      </trkpt>
      <trkpt lat="47.822279" lon="-0.233615">
        <ele>45.828831</ele>
        <time>2025-06-25T21:00:11.414Z</time>
      </trkpt>
      <trkpt lat="47.824780" lon="-0.231611">
        <ele>46.850336</ele>
        <time>2025-06-25T21:00:58.136Z</time>
      </trkpt>
      <trkpt lat="47.825440" lon="-0.231038">
        <ele>47.103735</ele>
        <time>2025-06-25T21:01:10.442Z</time>
      </trkpt>
      <trkpt lat="47.826179" lon="-0.230200">
        <ele>47.381780</ele>
        <time>2025-06-25T21:01:25.212Z</time>
      </trkpt>
      <trkpt lat="47.826810" lon="-0.229493">
        <ele>47.637696</ele>
        <time>2025-06-25T21:01:37.880Z</time>
      </trkpt>
      <trkpt lat="47.827052" lon="-0.229165">
        <ele>47.751199</ele>
        <time>2025-06-25T21:01:43.223Z</time>
      </trkpt>
      <trkpt lat="47.827495" lon="-0.228408">
        <ele>47.985075</ele>
        <time>2025-06-25T21:01:54.309Z</time>
      </trkpt>
      <trkpt lat="47.828449" lon="-0.226655">
        <ele>48.406628</ele>
        <time>2025-06-25T21:02:18.810Z</time>
      </trkpt>
      <trkpt lat="47.829008" lon="-0.225620">
        <ele>48.611601</ele>
        <time>2025-06-25T21:02:32.521Z</time>
      </trkpt>
      <trkpt lat="47.829466" lon="-0.224936">
        <ele>48.711884</ele>
        <time>2025-06-25T21:02:42.373Z</time>
      </trkpt>
      <trkpt lat="47.830010" lon="-0.224220">
        <ele>48.824132</ele>
        <time>2025-06-25T21:02:53.536Z</time>
      </trkpt>
      <trkpt lat="47.834429" lon="-0.219420">
        <ele>49.986959</ele>
        <time>2025-06-25T21:04:19.212Z</time>
      </trkpt>
      <trkpt lat="47.834767" lon="-0.218870">
        <ele>50.058086</ele>
        <time>2025-06-25T21:04:27.057Z</time>
      </trkpt>
      <trkpt lat="47.836126" lon="-0.216383">
        <ele>49.978302</ele>
        <time>2025-06-25T21:05:00.112Z</time>
      </trkpt>
      <trkpt lat="47.837433" lon="-0.213781">
        <ele>48.767308</ele>
        <time>2025-06-25T21:05:28.107Z</time>
      </trkpt>
      <trkpt lat="47.837600" lon="-0.213282">
        <ele>48.482304</ele>
        <time>2025-06-25T21:05:32.732Z</time>
      </trkpt>
      <trkpt lat="47.838720" lon="-0.208014">
        <ele>45.809067</ele>
        <time>2025-06-25T21:06:18.950Z</time>
      </trkpt>
      <trkpt lat="47.838795" lon="-0.207810">
        <ele>45.724220</ele>
        <time>2025-06-25T21:06:21.544Z</time>
      </trkpt>
      <trkpt lat="47.838939" lon="-0.207351">
        <ele>46.028317</ele>
        <time>2025-06-25T21:06:27.608Z</time>
      </trkpt>
      <trkpt lat="47.839133" lon="-0.207092">
        <ele>46.322859</ele>
        <time>2025-06-25T21:06:32.631Z</time>
      </trkpt>
      <trkpt lat="47.839192" lon="-0.206968">
        <ele>46.438214</ele>
        <time>2025-06-25T21:06:34.719Z</time>
      </trkpt>
      <trkpt lat="47.839926" lon="-0.205549">
        <ele>47.737283</ele>
        <time>2025-06-25T21:07:00.446Z</time>
      </trkpt>
      <trkpt lat="47.840083" lon="-0.205126">
        <ele>47.767581</ele>
        <time>2025-06-25T21:07:06.397Z</time>
      </trkpt>
      <trkpt lat="47.840148" lon="-0.204751">
        <ele>47.791858</ele>
        <time>2025-06-25T21:07:10.779Z</time>
      </trkpt>
      <trkpt lat="47.840228" lon="-0.204020">
        <ele>47.838283</ele>
        <time>2025-06-25T21:07:18.166Z</time>
      </trkpt>
      <trkpt lat="47.840435" lon="-0.202205">
        <ele>47.390679</ele>
        <time>2025-06-25T21:07:33.803Z</time>
      </trkpt>
      <trkpt lat="47.840483" lon="-0.201955">
        <ele>47.236664</ele>
        <time>2025-06-25T21:07:35.934Z</time>
      </trkpt>
      <trkpt lat="47.840574" lon="-0.201742">
        <ele>47.087114</ele>
        <time>2025-06-25T21:07:38.014Z</time>
      </trkpt>
      <trkpt lat="47.840670" lon="-0.201648">
        <ele>46.985741</ele>
        <time>2025-06-25T21:07:39.419Z</time>
      </trkpt>
      <trkpt lat="47.842142" lon="-0.200951">
        <ele>45.585532</ele>
        <time>2025-06-25T21:07:58.463Z</time>
      </trkpt>
      <trkpt lat="47.842563" lon="-0.200905">
        <ele>45.192928</ele>
        <time>2025-06-25T21:08:03.747Z</time>
      </trkpt>
      <trkpt lat="47.843853" lon="-0.200781">
        <ele>42.925435</ele>
        <time>2025-06-25T21:08:19.621Z</time>
      </trkpt>
      <trkpt lat="47.843930" lon="-0.200625">
        <ele>42.606187</ele>
        <time>2025-06-25T21:08:21.117Z</time>
      </trkpt>
      <trkpt lat="47.844299" lon="-0.200028">
        <ele>41.268170</ele>
        <time>2025-06-25T21:08:26.815Z</time>
      </trkpt>
      <trkpt lat="47.844393" lon="-0.199864">
        <ele>40.912617</ele>
        <time>2025-06-25T21:08:28.258Z</time>
      </trkpt>
      <trkpt lat="47.844441" lon="-0.199722">
        <ele>40.650499</ele>
        <time>2025-06-25T21:08:29.312Z</time>
      </trkpt>
      <trkpt lat="47.844491" lon="-0.199253">
        <ele>39.497119</ele>
        <time>2025-06-25T21:08:32.368Z</time>
      </trkpt>
      <trkpt lat="47.844508" lon="-0.198724">
        <ele>37.710034</ele>
        <time>2025-06-25T21:08:35.658Z</time>
      </trkpt>
      <trkpt lat="47.844502" lon="-0.197988">
        <ele>35.226316</ele>
        <time>2025-06-25T21:08:40.131Z</time>
      </trkpt>
      <trkpt lat="47.844481" lon="-0.197017">
        <ele>31.948104</ele>
        <time>2025-06-25T21:08:46.172Z</time>
      </trkpt>
      <trkpt lat="47.844478" lon="-0.196900">
        <ele>31.553015</ele>
        <time>2025-06-25T21:08:46.926Z</time>
      </trkpt>
      <trkpt lat="47.844436" lon="-0.195341">
        <ele>30.679781</ele>
        <time>2025-06-25T21:08:58.301Z</time>
      </trkpt>
      <trkpt lat="47.844424" lon="-0.194917">
        <ele>30.533784</ele>
        <time>2025-06-25T21:09:04.157Z</time>
      </trkpt>
      <trkpt lat="47.844414" lon="-0.194178">
        <ele>30.279496</ele>
        <time>2025-06-25T21:09:15.888Z</time>
      </trkpt>
      <trkpt lat="47.844411" lon="-0.194003">
        <ele>30.408265</ele>
        <time>2025-06-25T21:09:18.905Z</time>
      </trkpt>
      <trkpt lat="47.844401" lon="-0.192220">
        <ele>32.919458</ele>
        <time>2025-06-25T21:09:49.914Z</time>
      </trkpt>
      <trkpt lat="47.844229" lon="-0.187964">
        <ele>36.648598</ele>
        <time>2025-06-25T21:10:43.060Z</time>
      </trkpt>
      <trkpt lat="47.843986" lon="-0.179150">
        <ele>45.540761</ele>
        <time>2025-06-25T21:12:49.322Z</time>
      </trkpt>
      <trkpt lat="47.843991" lon="-0.178508">
        <ele>46.093151</ele>
        <time>2025-06-25T21:12:57.326Z</time>
      </trkpt>
      <trkpt lat="47.844016" lon="-0.178107">
        <ele>46.439642</ele>
        <time>2025-06-25T21:13:02.290Z</time>
      </trkpt>
      <trkpt lat="47.844090" lon="-0.177497">
        <ele>46.590615</ele>
        <time>2025-06-25T21:13:09.499Z</time>
      </trkpt>
      <trkpt lat="47.844255" lon="-0.176603">
        <ele>46.756440</ele>
        <time>2025-06-25T21:13:19.347Z</time>
      </trkpt>
      <trkpt lat="47.845869" lon="-0.168872">
        <ele>47.525203</ele>
        <time>2025-06-25T21:14:39.157Z</time>
      </trkpt>
      <trkpt lat="47.847214" lon="-0.162390">
        <ele>53.788145</ele>
        <time>2025-06-25T21:16:16.048Z</time>
      </trkpt>
      <trkpt lat="47.849064" lon="-0.153586">
        <ele>58.092435</ele>
        <time>2025-06-25T21:18:03.450Z</time>
      </trkpt>
      <trkpt lat="47.849504" lon="-0.151693">
        <ele>59.253653</ele>
        <time>2025-06-25T21:18:27.808Z</time>
      </trkpt>
      <trkpt lat="47.849718" lon="-0.151041">
        <ele>59.777760</ele>
        <time>2025-06-25T21:18:37.455Z</time>
      </trkpt>
      <trkpt lat="47.850489" lon="-0.149109">
        <ele>60.506520</ele>
        <time>2025-06-25T21:19:06.772Z</time>
      </trkpt>
      <trkpt lat="47.852673" lon="-0.143651">
        <ele>59.810070</ele>
        <time>2025-06-25T21:20:03.503Z</time>
      </trkpt>
      <trkpt lat="47.852869" lon="-0.143011">
        <ele>59.787245</ele>
        <time>2025-06-25T21:20:11.274Z</time>
      </trkpt>
      <trkpt lat="47.853076" lon="-0.141940">
        <ele>60.373330</ele>
        <time>2025-06-25T21:20:24.975Z</time>
      </trkpt>
      <trkpt lat="47.853263" lon="-0.140827">
        <ele>60.976669</ele>
        <time>2025-06-25T21:20:39.709Z</time>
      </trkpt>
      <trkpt lat="47.853916" lon="-0.136946">
        <ele>61.949850</ele>
        <time>2025-06-25T21:21:25.264Z</time>
      </trkpt>
      <trkpt lat="47.854386" lon="-0.134287">
        <ele>61.303077</ele>
        <time>2025-06-25T21:21:48.486Z</time>
      </trkpt>
      <trkpt lat="47.854875" lon="-0.131343">
        <ele>60.597966</ele>
        <time>2025-06-25T21:22:16.658Z</time>
      </trkpt>
      <trkpt lat="47.854974" lon="-0.130572">
        <ele>60.496375</ele>
        <time>2025-06-25T21:22:24.636Z</time>
      </trkpt>
      <trkpt lat="47.855013" lon="-0.130048">
        <ele>60.409286</ele>
        <time>2025-06-25T21:22:29.897Z</time>
      </trkpt>
      <trkpt lat="47.855019" lon="-0.129824">
        <ele>60.313818</ele>
        <time>2025-06-25T21:22:32.086Z</time>
      </trkpt>
      <trkpt lat="47.854990" lon="-0.128532">
        <ele>59.763299</ele>
        <time>2025-06-25T21:22:43.643Z</time>
      </trkpt>
      <trkpt lat="47.854866" lon="-0.127541">
        <ele>59.333996</ele>
        <time>2025-06-25T21:22:51.822Z</time>
      </trkpt>
      <trkpt lat="47.854458" lon="-0.125219">
        <ele>57.486353</ele>
        <time>2025-06-25T21:23:11.049Z</time>
      </trkpt>
      <trkpt lat="47.854369" lon="-0.124510">
        <ele>56.893253</ele>
        <time>2025-06-25T21:23:16.844Z</time>
      </trkpt>
      <trkpt lat="47.854331" lon="-0.123961">
        <ele>56.416608</ele>
        <time>2025-06-25T21:23:21.255Z</time>
      </trkpt>
      <trkpt lat="47.854358" lon="-0.122703">
        <ele>55.329613</ele>
        <time>2025-06-25T21:23:31.135Z</time>
      </trkpt>
      <trkpt lat="47.854442" lon="-0.121897">
        <ele>54.687243</ele>
        <time>2025-06-25T21:23:37.513Z</time>
      </trkpt>
      <trkpt lat="47.854584" lon="-0.121184">
        <ele>54.201412</ele>
        <time>2025-06-25T21:23:43.443Z</time>
      </trkpt>
      <trkpt lat="47.854959" lon="-0.119643">
        <ele>53.130644</ele>
        <time>2025-06-25T21:23:57.297Z</time>
      </trkpt>
      <trkpt lat="47.855106" lon="-0.119103">
        <ele>52.922060</ele>
        <time>2025-06-25T21:24:02.354Z</time>
      </trkpt>
      <trkpt lat="47.855306" lon="-0.118272">
        <ele>52.607227</ele>
        <time>2025-06-25T21:24:10.113Z</time>
      </trkpt>
      <trkpt lat="47.855665" lon="-0.117100">
        <ele>52.161507</ele>
        <time>2025-06-25T21:24:21.578Z</time>
      </trkpt>
      <trkpt lat="47.856756" lon="-0.113946">
        <ele>51.617895</ele>
        <time>2025-06-25T21:24:55.335Z</time>
      </trkpt>
      <trkpt lat="47.856922" lon="-0.113413">
        <ele>51.543645</ele>
        <time>2025-06-25T21:25:00.876Z</time>
      </trkpt>
      <trkpt lat="47.856993" lon="-0.112923">
        <ele>51.480303</ele>
        <time>2025-06-25T21:25:05.559Z</time>
      </trkpt>
      <trkpt lat="47.857003" lon="-0.112430">
        <ele>51.417981</ele>
        <time>2025-06-25T21:25:10.138Z</time>
      </trkpt>
      <trkpt lat="47.856845" lon="-0.110081">
        <ele>51.048628</ele>
        <time>2025-06-25T21:25:32.702Z</time>
      </trkpt>
      <trkpt lat="47.856878" lon="-0.109556">
        <ele>50.912672</ele>
        <time>2025-06-25T21:25:37.770Z</time>
      </trkpt>
      <trkpt lat="47.856927" lon="-0.109269">
        <ele>50.540996</ele>
        <time>2025-06-25T21:25:40.471Z</time>
      </trkpt>
      <trkpt lat="47.857042" lon="-0.108809">
        <ele>49.924904</ele>
        <time>2025-06-25T21:25:44.655Z</time>
      </trkpt>
      <trkpt lat="47.857201" lon="-0.108467">
        <ele>49.402714</ele>
        <time>2025-06-25T21:25:47.949Z</time>
      </trkpt>
      <trkpt lat="47.857475" lon="-0.108093">
        <ele>48.707744</ele>
        <time>2025-06-25T21:25:52.064Z</time>
      </trkpt>
      <trkpt lat="47.857716" lon="-0.107915">
        <ele>48.204645</ele>
        <time>2025-06-25T21:25:54.873Z</time>
      </trkpt>
      <trkpt lat="47.860011" lon="-0.106872">
        <ele>40.076662</ele>
        <time>2025-06-25T21:26:18.372Z</time>
      </trkpt>
      <trkpt lat="47.860275" lon="-0.106726">
        <ele>39.379729</ele>
        <time>2025-06-25T21:26:21.227Z</time>
      </trkpt>
      <trkpt lat="47.860675" lon="-0.106360">
        <ele>38.218051</ele>
        <time>2025-06-25T21:26:26.143Z</time>
      </trkpt>
      <trkpt lat="47.861483" lon="-0.105570">
        <ele>36.138523</ele>
        <time>2025-06-25T21:26:37.164Z</time>
      </trkpt>
      <trkpt lat="47.863959" lon="-0.103066">
        <ele>33.913124</ele>
        <time>2025-06-25T21:27:15.006Z</time>
      </trkpt>
      <trkpt lat="47.864121" lon="-0.102902">
        <ele>33.806581</ele>
        <time>2025-06-25T21:27:17.787Z</time>
      </trkpt>
      <trkpt lat="47.864435" lon="-0.102599">
        <ele>33.771665</ele>
        <time>2025-06-25T21:27:23.408Z</time>
      </trkpt>
      <trkpt lat="47.865717" lon="-0.101355">
        <ele>34.500458</ele>
        <time>2025-06-25T21:27:50.201Z</time>
      </trkpt>
      <trkpt lat="47.866227" lon="-0.100799">
        <ele>34.573942</ele>
        <time>2025-06-25T21:28:00.465Z</time>
      </trkpt>
      <trkpt lat="47.866323" lon="-0.100697">
        <ele>34.579315</ele>
        <time>2025-06-25T21:28:02.244Z</time>
      </trkpt>
      <trkpt lat="47.866881" lon="-0.100387">
        <ele>34.606455</ele>
        <time>2025-06-25T21:28:10.971Z</time>
      </trkpt>
      <trkpt lat="47.867306" lon="-0.100153">
        <ele>34.627104</ele>
        <time>2025-06-25T21:28:17.217Z</time>
      </trkpt>
      <trkpt lat="47.867598" lon="-0.099938">
        <ele>34.569042</ele>
        <time>2025-06-25T21:28:21.703Z</time>
      </trkpt>
      <trkpt lat="47.868322" lon="-0.099326">
        <ele>34.333170</ele>
        <time>2025-06-25T21:28:34.234Z</time>
      </trkpt>
      <trkpt lat="47.868849" lon="-0.098807">
        <ele>34.154171</ele>
        <time>2025-06-25T21:28:43.351Z</time>
      </trkpt>
      <trkpt lat="47.869031" lon="-0.098566">
        <ele>33.927021</ele>
        <time>2025-06-25T21:28:46.390Z</time>
      </trkpt>
      <trkpt lat="47.869126" lon="-0.098440">
        <ele>33.736678</ele>
        <time>2025-06-25T21:28:47.865Z</time>
      </trkpt>
      <trkpt lat="47.869198" lon="-0.098346">
        <ele>33.593412</ele>
        <time>2025-06-25T21:28:48.953Z</time>
      </trkpt>
      <trkpt lat="47.869188" lon="-0.098324">
        <ele>33.566727</ele>
        <time>2025-06-25T21:28:49.153Z</time>
      </trkpt>
      <trkpt lat="47.869181" lon="-0.098244">
        <ele>33.485714</ele>
        <time>2025-06-25T21:28:49.743Z</time>
      </trkpt>
      <trkpt lat="47.869235" lon="-0.098166">
        <ele>33.373160</ele>
        <time>2025-06-25T21:28:50.561Z</time>
      </trkpt>
      <trkpt lat="47.869208" lon="-0.098029">
        <ele>33.229777</ele>
        <time>2025-06-25T21:28:51.591Z</time>
      </trkpt>
      <trkpt lat="47.869158" lon="-0.097849">
        <ele>33.034147</ele>
        <time>2025-06-25T21:28:52.985Z</time>
      </trkpt>
      <trkpt lat="47.868979" lon="-0.097397">
        <ele>32.507081</ele>
        <time>2025-06-25T21:28:56.731Z</time>
      </trkpt>
      <trkpt lat="47.868869" lon="-0.096593">
        <ele>31.683119</ele>
        <time>2025-06-25T21:29:02.681Z</time>
      </trkpt>
      <trkpt lat="47.868721" lon="-0.095435">
        <ele>32.299439</ele>
        <time>2025-06-25T21:29:14.176Z</time>
      </trkpt>
      <trkpt lat="47.868708" lon="-0.095326">
        <ele>32.403360</ele>
        <time>2025-06-25T21:29:15.719Z</time>
      </trkpt>
      <trkpt lat="47.868702" lon="-0.095278">
        <ele>32.449192</ele>
        <time>2025-06-25T21:29:16.388Z</time>
      </trkpt>
      <trkpt lat="47.868646" lon="-0.094791">
        <ele>32.912995</ele>
        <time>2025-06-25T21:29:24.410Z</time>
      </trkpt>
      <trkpt lat="47.868641" lon="-0.094745">
        <ele>32.956738</ele>
        <time>2025-06-25T21:29:25.234Z</time>
      </trkpt>
      <trkpt lat="47.868598" lon="-0.094356">
        <ele>33.326808</ele>
        <time>2025-06-25T21:29:32.411Z</time>
      </trkpt>
      <trkpt lat="47.868373" lon="-0.092556">
        <ele>34.853604</ele>
        <time>2025-06-25T21:30:02.937Z</time>
      </trkpt>
      <trkpt lat="47.868749" lon="-0.092298">
        <ele>35.331650</ele>
        <time>2025-06-25T21:30:10.400Z</time>
      </trkpt>
      <trkpt lat="47.870985" lon="-0.090707">
        <ele>35.528751</ele>
        <time>2025-06-25T21:30:43.870Z</time>
      </trkpt>
      <trkpt lat="47.871266" lon="-0.090448">
        <ele>35.736966</ele>
        <time>2025-06-25T21:30:49.169Z</time>
      </trkpt>
      <trkpt lat="47.871434" lon="-0.090212">
        <ele>35.882450</ele>
        <time>2025-06-25T21:30:53.179Z</time>
      </trkpt>
      <trkpt lat="47.871584" lon="-0.089880">
        <ele>36.051677</ele>
        <time>2025-06-25T21:30:58.057Z</time>
      </trkpt>
      <trkpt lat="47.871645" lon="-0.089688">
        <ele>36.141492</ele>
        <time>2025-06-25T21:31:00.654Z</time>
      </trkpt>
      <trkpt lat="47.871821" lon="-0.088899">
        <ele>36.493013</ele>
        <time>2025-06-25T21:31:11.008Z</time>
      </trkpt>
      <trkpt lat="47.871880" lon="-0.088742">
        <ele>36.569093</ele>
        <time>2025-06-25T21:31:13.335Z</time>
      </trkpt>
      <trkpt lat="47.871958" lon="-0.088623">
        <ele>36.643767</ele>
        <time>2025-06-25T21:31:15.500Z</time>
      </trkpt>
      <trkpt lat="47.872096" lon="-0.088525">
        <ele>36.755396</ele>
        <time>2025-06-25T21:31:18.459Z</time>
      </trkpt>
      <trkpt lat="47.872274" lon="-0.088427">
        <ele>36.893969</ele>
        <time>2025-06-25T21:31:22.081Z</time>
      </trkpt>
      <trkpt lat="47.872460" lon="-0.088291">
        <ele>37.045260</ele>
        <time>2025-06-25T21:31:25.913Z</time>
      </trkpt>
      <trkpt lat="47.872528" lon="-0.088194">
        <ele>37.113990</ele>
        <time>2025-06-25T21:31:27.663Z</time>
      </trkpt>
      <trkpt lat="47.872574" lon="-0.088068">
        <ele>37.184262</ele>
        <time>2025-06-25T21:31:29.386Z</time>
      </trkpt>
      <trkpt lat="47.872594" lon="-0.087849">
        <ele>37.292531</ele>
        <time>2025-06-25T21:31:32.031Z</time>
      </trkpt>
      <trkpt lat="47.872541" lon="-0.087530">
        <ele>37.453519</ele>
        <time>2025-06-25T21:31:35.872Z</time>
      </trkpt>
      <trkpt lat="47.871879" lon="-0.084732">
        <ele>38.150166</ele>
        <time>2025-06-25T21:32:09.294Z</time>
      </trkpt>
      <trkpt lat="47.871826" lon="-0.084295">
        <ele>38.199940</ele>
        <time>2025-06-25T21:32:13.440Z</time>
      </trkpt>
      <trkpt lat="47.872116" lon="-0.079345">
        <ele>36.000414</ele>
        <time>2025-06-25T21:32:54.730Z</time>
      </trkpt>
      <trkpt lat="47.870811" lon="-0.064491">
        <ele>40.041548</ele>
        <time>2025-06-25T21:35:41.708Z</time>
      </trkpt>
      <trkpt lat="47.870758" lon="-0.063983">
        <ele>40.220230</ele>
        <time>2025-06-25T21:35:47.305Z</time>
      </trkpt>
      <trkpt lat="47.870699" lon="-0.063744">
        <ele>40.308743</ele>
        <time>2025-06-25T21:35:50.197Z</time>
      </trkpt>
      <trkpt lat="47.870612" lon="-0.063552">
        <ele>40.389272</ele>
        <time>2025-06-25T21:35:52.866Z</time>
      </trkpt>
      <trkpt lat="47.870460" lon="-0.063375">
        <ele>40.489205</ele>
        <time>2025-06-25T21:35:56.207Z</time>
      </trkpt>
      <trkpt lat="47.870277" lon="-0.063191">
        <ele>40.603572</ele>
        <time>2025-06-25T21:36:00.073Z</time>
      </trkpt>
      <trkpt lat="47.870084" lon="-0.062988">
        <ele>40.783957</ele>
        <time>2025-06-25T21:36:04.224Z</time>
      </trkpt>
      <trkpt lat="47.869948" lon="-0.062796">
        <ele>40.950258</ele>
        <time>2025-06-25T21:36:07.551Z</time>
      </trkpt>
      <trkpt lat="47.869849" lon="-0.062547">
        <ele>41.122648</ele>
        <time>2025-06-25T21:36:11.012Z</time>
      </trkpt>
      <trkpt lat="47.869817" lon="-0.062374">
        <ele>41.229528</ele>
        <time>2025-06-25T21:36:13.213Z</time>
      </trkpt>
      <trkpt lat="47.869809" lon="-0.062097">
        <ele>41.394656</ele>
        <time>2025-06-25T21:36:16.651Z</time>
      </trkpt>
      <trkpt lat="47.869845" lon="-0.061841">
        <ele>41.550439</ele>
        <time>2025-06-25T21:36:19.934Z</time>
      </trkpt>
      <trkpt lat="47.870251" lon="-0.060500">
        <ele>42.544594</ele>
        <time>2025-06-25T21:36:38.363Z</time>
      </trkpt>
      <trkpt lat="47.870323" lon="-0.060095">
        <ele>42.953082</ele>
        <time>2025-06-25T21:36:43.715Z</time>
      </trkpt>
      <trkpt lat="47.870353" lon="-0.059648">
        <ele>43.391062</ele>
        <time>2025-06-25T21:36:49.645Z</time>
      </trkpt>
      <trkpt lat="47.870335" lon="-0.059185">
        <ele>43.843222</ele>
        <time>2025-06-25T21:36:55.999Z</time>
      </trkpt>
      <trkpt lat="47.870026" lon="-0.055672">
        <ele>48.086650</ele>
        <time>2025-06-25T21:37:49.723Z</time>
      </trkpt>
      <trkpt lat="47.869699" lon="-0.052065">
        <ele>52.253867</ele>
        <time>2025-06-25T21:38:44.078Z</time>
      </trkpt>
      <trkpt lat="47.869684" lon="-0.051632">
        <ele>52.580744</ele>
        <time>2025-06-25T21:38:49.145Z</time>
      </trkpt>
      <trkpt lat="47.869713" lon="-0.051141">
        <ele>52.952345</ele>
        <time>2025-06-25T21:38:54.438Z</time>
      </trkpt>
      <trkpt lat="47.870122" lon="-0.048022">
        <ele>56.704679</ele>
        <time>2025-06-25T21:39:35.071Z</time>
      </trkpt>
      <trkpt lat="47.870250" lon="-0.047110">
        <ele>58.684807</ele>
        <time>2025-06-25T21:39:57.376Z</time>
      </trkpt>
      <trkpt lat="47.870326" lon="-0.046624">
        <ele>60.139853</ele>
        <time>2025-06-25T21:40:10.274Z</time>
      </trkpt>
      <trkpt lat="47.870427" lon="-0.046170">
        <ele>61.534495</ele>
        <time>2025-06-25T21:40:23.015Z</time>
      </trkpt>
      <trkpt lat="47.870944" lon="-0.044431">
        <ele>65.799073</ele>
        <time>2025-06-25T21:40:59.365Z</time>
      </trkpt>
      <trkpt lat="47.871433" lon="-0.042806">
        <ele>67.500380</ele>
        <time>2025-06-25T21:41:21.557Z</time>
      </trkpt>
      <trkpt lat="47.871980" lon="-0.041207">
        <ele>67.807612</ele>
        <time>2025-06-25T21:41:38.897Z</time>
      </trkpt>
      <trkpt lat="47.872090" lon="-0.040875">
        <ele>67.824745</ele>
        <time>2025-06-25T21:41:42.543Z</time>
      </trkpt>
      <trkpt lat="47.872164" lon="-0.040665">
        <ele>67.835720</ele>
        <time>2025-06-25T21:41:44.963Z</time>
      </trkpt>
      <trkpt lat="47.872211" lon="-0.040530">
        <ele>67.842757</ele>
        <time>2025-06-25T21:41:46.526Z</time>
      </trkpt>
      <trkpt lat="47.872360" lon="-0.040209">
        <ele>67.855158</ele>
        <time>2025-06-25T21:41:50.600Z</time>
      </trkpt>
      <trkpt lat="47.872780" lon="-0.039352">
        <ele>67.548311</ele>
        <time>2025-06-25T21:42:01.427Z</time>
      </trkpt>
      <trkpt lat="47.872916" lon="-0.038965">
        <ele>67.422003</ele>
        <time>2025-06-25T21:42:05.890Z</time>
      </trkpt>
      <trkpt lat="47.873382" lon="-0.037487">
        <ele>66.783472</ele>
        <time>2025-06-25T21:42:19.164Z</time>
      </trkpt>
      <trkpt lat="47.873447" lon="-0.037158">
        <ele>66.562078</ele>
        <time>2025-06-25T21:42:21.771Z</time>
      </trkpt>
      <trkpt lat="47.873413" lon="-0.036874">
        <ele>66.375855</ele>
        <time>2025-06-25T21:42:23.992Z</time>
      </trkpt>
      <trkpt lat="47.873351" lon="-0.036658">
        <ele>66.224195</ele>
        <time>2025-06-25T21:42:25.843Z</time>
      </trkpt>
      <trkpt lat="47.873108" lon="-0.035991">
        <ele>65.734229</ele>
        <time>2025-06-25T21:42:31.979Z</time>
      </trkpt>
      <trkpt lat="47.872969" lon="-0.035534">
        <ele>65.410316</ele>
        <time>2025-06-25T21:42:36.266Z</time>
      </trkpt>
      <trkpt lat="47.872843" lon="-0.034755">
        <ele>65.733743</ele>
        <time>2025-06-25T21:42:44.818Z</time>
      </trkpt>
      <trkpt lat="47.872571" lon="-0.033684">
        <ele>66.343015</ele>
        <time>2025-06-25T21:42:59.813Z</time>
      </trkpt>
      <trkpt lat="47.872268" lon="-0.032490">
        <ele>67.038234</ele>
        <time>2025-06-25T21:43:16.664Z</time>
      </trkpt>
      <trkpt lat="47.872223" lon="-0.032186">
        <ele>67.214853</ele>
        <time>2025-06-25T21:43:20.691Z</time>
      </trkpt>
      <trkpt lat="47.872211" lon="-0.031894">
        <ele>67.380825</ele>
        <time>2025-06-25T21:43:24.471Z</time>
      </trkpt>
      <trkpt lat="47.872349" lon="-0.030403">
        <ele>68.234733</ele>
        <time>2025-06-25T21:43:42.401Z</time>
      </trkpt>
      <trkpt lat="47.872467" lon="-0.029614">
        <ele>68.414616</ele>
        <time>2025-06-25T21:43:51.063Z</time>
      </trkpt>
      <trkpt lat="47.872819" lon="-0.028214">
        <ele>68.659110</ele>
        <time>2025-06-25T21:44:06.816Z</time>
      </trkpt>
      <trkpt lat="47.872965" lon="-0.027114">
        <ele>68.824531</ele>
        <time>2025-06-25T21:44:18.144Z</time>
      </trkpt>
      <trkpt lat="47.872977" lon="-0.027026">
        <ele>68.836638</ele>
        <time>2025-06-25T21:44:19.065Z</time>
      </trkpt>
      <trkpt lat="47.873339" lon="-0.024280">
        <ele>69.455055</ele>
        <time>2025-06-25T21:44:48.357Z</time>
      </trkpt>
      <trkpt lat="47.873662" lon="-0.021881">
        <ele>70.404728</ele>
        <time>2025-06-25T21:45:18.373Z</time>
      </trkpt>
      <trkpt lat="47.873774" lon="-0.021146">
        <ele>70.612305</ele>
        <time>2025-06-25T21:45:26.991Z</time>
      </trkpt>
      <trkpt lat="47.873864" lon="-0.020740">
        <ele>70.730066</ele>
        <time>2025-06-25T21:45:31.567Z</time>
      </trkpt>
      <trkpt lat="47.873964" lon="-0.020516">
        <ele>70.804170</ele>
        <time>2025-06-25T21:45:34.359Z</time>
      </trkpt>
      <trkpt lat="47.874094" lon="-0.020321">
        <ele>70.879885</ele>
        <time>2025-06-25T21:45:37.103Z</time>
      </trkpt>
      <trkpt lat="47.875863" lon="-0.018799">
        <ele>71.005909</ele>
        <time>2025-06-25T21:46:07.390Z</time>
      </trkpt>
      <trkpt lat="47.876206" lon="-0.018409">
        <ele>71.035380</ele>
        <time>2025-06-25T21:46:13.714Z</time>
      </trkpt>
      <trkpt lat="47.877673" lon="-0.016144">
        <ele>71.129870</ele>
        <time>2025-06-25T21:46:45.843Z</time>
      </trkpt>
      <trkpt lat="47.878572" lon="-0.014746">
        <ele>70.849597</ele>
        <time>2025-06-25T21:47:05.262Z</time>
      </trkpt>
      <trkpt lat="47.878845" lon="-0.014362">
        <ele>70.423092</ele>
        <time>2025-06-25T21:47:10.206Z</time>
      </trkpt>
      <trkpt lat="47.879163" lon="-0.014057">
        <ele>69.993407</ele>
        <time>2025-06-25T21:47:14.914Z</time>
      </trkpt>
      <trkpt lat="47.879881" lon="-0.013448">
        <ele>69.010988</ele>
        <time>2025-06-25T21:47:24.120Z</time>
      </trkpt>
      <trkpt lat="47.880069" lon="-0.013239">
        <ele>68.392017</ele>
        <time>2025-06-25T21:47:26.628Z</time>
      </trkpt>
      <trkpt lat="47.880394" lon="-0.012745">
        <ele>67.167014</ele>
        <time>2025-06-25T21:47:31.489Z</time>
      </trkpt>
      <trkpt lat="47.881383" lon="-0.011044">
        <ele>63.768513</ele>
        <time>2025-06-25T21:47:47.038Z</time>
      </trkpt>
      <trkpt lat="47.881533" lon="-0.010638">
        <ele>63.363527</ele>
        <time>2025-06-25T21:47:50.497Z</time>
      </trkpt>
      <trkpt lat="47.881646" lon="-0.010135">
        <ele>62.900056</ele>
        <time>2025-06-25T21:47:54.669Z</time>
      </trkpt>
      <trkpt lat="47.881867" lon="-0.008716">
        <ele>62.135698</ele>
        <time>2025-06-25T21:48:08.949Z</time>
      </trkpt>
      <trkpt lat="47.882230" lon="-0.006039">
        <ele>62.644034</ele>
        <time>2025-06-25T21:48:41.937Z</time>
      </trkpt>
      <trkpt lat="47.882578" lon="-0.002639">
        <ele>59.740553</ele>
        <time>2025-06-25T21:49:09.454Z</time>
      </trkpt>
      <trkpt lat="47.882617" lon="-0.002407">
        <ele>59.386251</ele>
        <time>2025-06-25T21:49:11.107Z</time>
      </trkpt>
      <trkpt lat="47.882738" lon="-0.002110">
        <ele>58.871478</ele>
        <time>2025-06-25T21:49:13.489Z</time>
      </trkpt>
      <trkpt lat="47.883065" lon="-0.001582">
        <ele>57.806852</ele>
        <time>2025-06-25T21:49:18.368Z</time>
      </trkpt>
      <trkpt lat="47.883109" lon="-0.001475">
        <ele>57.620928</ele>
        <time>2025-06-25T21:49:19.209Z</time>
      </trkpt>
      <trkpt lat="47.883170" lon="-0.001239">
        <ele>57.478465</ele>
        <time>2025-06-25T21:49:20.919Z</time>
      </trkpt>
      <trkpt lat="47.883190" lon="-0.000937">
        <ele>57.332838</ele>
        <time>2025-06-25T21:49:22.979Z</time>
      </trkpt>
      <trkpt lat="47.883229" lon="-0.000863">
        <ele>57.287674</ele>
        <time>2025-06-25T21:49:23.615Z</time>
      </trkpt>
      <trkpt lat="47.883306" lon="-0.000791">
        <ele>57.222639</ele>
        <time>2025-06-25T21:49:24.566Z</time>
      </trkpt>
      <trkpt lat="47.883646" lon="-0.000694">
        <ele>56.974941</ele>
        <time>2025-06-25T21:49:28.314Z</time>
      </trkpt>
      <trkpt lat="47.883730" lon="-0.000642">
        <ele>56.909861</ele>
        <time>2025-06-25T21:49:29.402Z</time>
      </trkpt>
      <trkpt lat="47.884131" lon="-0.000063">
        <ele>56.510450</ele>
        <time>2025-06-25T21:49:38.302Z</time>
      </trkpt>
      <trkpt lat="47.884233" lon="0.000126">
        <ele>56.394035</ele>
        <time>2025-06-25T21:49:41.880Z</time>
      </trkpt>
      <trkpt lat="47.884304" lon="0.000333">
        <ele>56.405055</ele>
        <time>2025-06-25T21:49:45.612Z</time>
      </trkpt>
      <trkpt lat="47.884578" lon="0.001409">
        <ele>59.195807</ele>
        <time>2025-06-25T21:50:08.428Z</time>
      </trkpt>
      <trkpt lat="47.884737" lon="0.002285">
        <ele>61.396272</ele>
        <time>2025-06-25T21:50:28.625Z</time>
      </trkpt>
      <trkpt lat="47.884945" lon="0.003562">
        <ele>64.093034</ele>
        <time>2025-06-25T21:50:54.577Z</time>
      </trkpt>
      <trkpt lat="47.884985" lon="0.003975">
        <ele>64.826016</ele>
        <time>2025-06-25T21:51:01.759Z</time>
      </trkpt>
      <trkpt lat="47.885005" lon="0.006937">
        <ele>69.113030</ele>
        <time>2025-06-25T21:51:47.091Z</time>
      </trkpt>
      <trkpt lat="47.885196" lon="0.010080">
        <ele>71.063833</ele>
        <time>2025-06-25T21:52:29.576Z</time>
      </trkpt>
      <trkpt lat="47.885242" lon="0.010636">
        <ele>71.226762</ele>
        <time>2025-06-25T21:52:34.429Z</time>
      </trkpt>
      <trkpt lat="47.885299" lon="0.010846">
        <ele>71.268616</ele>
        <time>2025-06-25T21:52:36.196Z</time>
      </trkpt>
      <trkpt lat="47.885347" lon="0.011006">
        <ele>70.833883</ele>
        <time>2025-06-25T21:52:37.503Z</time>
      </trkpt>
      <trkpt lat="47.885491" lon="0.011281">
        <ele>69.968529</ele>
        <time>2025-06-25T21:52:40.008Z</time>
      </trkpt>
      <trkpt lat="47.885773" lon="0.011663">
        <ele>68.559489</ele>
        <time>2025-06-25T21:52:43.853Z</time>
      </trkpt>
      <trkpt lat="47.886051" lon="0.011922">
        <ele>67.347156</ele>
        <time>2025-06-25T21:52:47.031Z</time>
      </trkpt>
      <trkpt lat="47.886771" lon="0.012469">
        <ele>64.337004</ele>
        <time>2025-06-25T21:52:54.606Z</time>
      </trkpt>
      <trkpt lat="47.887764" lon="0.013308">
        <ele>59.789302</ele>
        <time>2025-06-25T21:53:05.417Z</time>
      </trkpt>
      <trkpt lat="47.887917" lon="0.013561">
        <ele>58.878986</ele>
        <time>2025-06-25T21:53:07.706Z</time>
      </trkpt>
      <trkpt lat="47.888181" lon="0.014094">
        <ele>57.437025</ele>
        <time>2025-06-25T21:53:12.482Z</time>
      </trkpt>
      <trkpt lat="47.888371" lon="0.014576">
        <ele>57.296719</ele>
        <time>2025-06-25T21:53:17.176Z</time>
      </trkpt>
      <trkpt lat="47.888274" lon="0.014702">
        <ele>57.248579</ele>
        <time>2025-06-25T21:53:19.111Z</time>
      </trkpt>
      <trkpt lat="47.888222" lon="0.014874">
        <ele>57.201233</ele>
        <time>2025-06-25T21:53:21.112Z</time>
      </trkpt>
      <trkpt lat="47.888213" lon="0.015450">
        <ele>57.056649</ele>
        <time>2025-06-25T21:53:27.822Z</time>
      </trkpt>
      <trkpt lat="47.888218" lon="0.016301">
        <ele>56.843086</ele>
        <time>2025-06-25T21:53:37.999Z</time>
      </trkpt>
      <trkpt lat="47.888278" lon="0.017389">
        <ele>55.495338</ele>
        <time>2025-06-25T21:53:47.077Z</time>
      </trkpt>
      <trkpt lat="47.888479" lon="0.018407">
        <ele>53.979524</ele>
        <time>2025-06-25T21:53:54.409Z</time>
      </trkpt>
      <trkpt lat="47.888498" lon="0.018854">
        <ele>53.339758</ele>
        <time>2025-06-25T21:53:57.427Z</time>
      </trkpt>
      <trkpt lat="47.888454" lon="0.019323">
        <ele>52.639679</ele>
        <time>2025-06-25T21:54:00.617Z</time>
      </trkpt>
      <trkpt lat="47.888303" lon="0.020140">
        <ele>51.334843</ele>
        <time>2025-06-25T21:54:06.517Z</time>
      </trkpt>
      <trkpt lat="47.888079" lon="0.021158">
        <ele>49.685202</ele>
        <time>2025-06-25T21:54:14.436Z</time>
      </trkpt>
      <trkpt lat="47.887965" lon="0.021730">
        <ele>48.780701</ele>
        <time>2025-06-25T21:54:18.996Z</time>
      </trkpt>
      <trkpt lat="47.887907" lon="0.021924">
        <ele>48.519917</ele>
        <time>2025-06-25T21:54:20.614Z</time>
      </trkpt>
      <trkpt lat="47.887493" lon="0.022672">
        <ele>47.329147</ele>
        <time>2025-06-25T21:54:27.891Z</time>
      </trkpt>
      <trkpt lat="47.887462" lon="0.022758">
        <ele>47.209272</ele>
        <time>2025-06-25T21:54:28.602Z</time>
      </trkpt>
      <trkpt lat="47.887461" lon="0.022925">
        <ele>47.004226</ele>
        <time>2025-06-25T21:54:29.832Z</time>
      </trkpt>
      <trkpt lat="47.887551" lon="0.023153">
        <ele>46.679398</ele>
        <time>2025-06-25T21:54:31.777Z</time>
      </trkpt>
      <trkpt lat="47.887585" lon="0.023229">
        <ele>46.567230</ele>
        <time>2025-06-25T21:54:32.447Z</time>
      </trkpt>
      <trkpt lat="47.887614" lon="0.023447">
        <ele>46.294362</ele>
        <time>2025-06-25T21:54:34.088Z</time>
      </trkpt>
      <trkpt lat="47.887742" lon="0.023637">
        <ele>45.963699</ele>
        <time>2025-06-25T21:54:36.078Z</time>
      </trkpt>
      <trkpt lat="47.887832" lon="0.023879">
        <ele>45.623947</ele>
        <time>2025-06-25T21:54:38.122Z</time>
      </trkpt>
      <trkpt lat="47.888035" lon="0.024417">
        <ele>45.178996</ele>
        <time>2025-06-25T21:54:42.718Z</time>
      </trkpt>
      <trkpt lat="47.888076" lon="0.024524">
        <ele>45.097555</ele>
        <time>2025-06-25T21:54:43.663Z</time>
      </trkpt>
      <trkpt lat="47.888471" lon="0.025534">
        <ele>44.324880</ele>
        <time>2025-06-25T21:54:53.198Z</time>
      </trkpt>
      <trkpt lat="47.888581" lon="0.025795">
        <ele>44.121162</ele>
        <time>2025-06-25T21:54:55.848Z</time>
      </trkpt>
      <trkpt lat="47.888752" lon="0.026271">
        <ele>43.760367</ele>
        <time>2025-06-25T21:55:01.011Z</time>
      </trkpt>
      <trkpt lat="47.888754" lon="0.026371">
        <ele>43.656967</ele>
        <time>2025-06-25T21:55:02.128Z</time>
      </trkpt>
      <trkpt lat="47.888756" lon="0.026634">
        <ele>43.385127</ele>
        <time>2025-06-25T21:55:05.049Z</time>
      </trkpt>
      <trkpt lat="47.888817" lon="0.026860">
        <ele>43.133334</ele>
        <time>2025-06-25T21:55:07.697Z</time>
      </trkpt>
      <trkpt lat="47.888819" lon="0.027006">
        <ele>42.982405</ele>
        <time>2025-06-25T21:55:09.214Z</time>
      </trkpt>
      <trkpt lat="47.888998" lon="0.026985">
        <ele>42.705661</ele>
        <time>2025-06-25T21:55:11.930Z</time>
      </trkpt>
      <trkpt lat="47.889114" lon="0.027287">
        <ele>42.345952</ele>
        <time>2025-06-25T21:55:15.117Z</time>
      </trkpt>
      <trkpt lat="47.889143" lon="0.027319">
        <ele>42.290349</ele>
        <time>2025-06-25T21:55:15.586Z</time>
      </trkpt>
      <trkpt lat="47.889314" lon="0.027300">
        <ele>42.026058</ele>
        <time>2025-06-25T21:55:17.638Z</time>
      </trkpt>
      <trkpt lat="47.889418" lon="0.027322">
        <ele>41.864159</ele>
        <time>2025-06-25T21:55:18.730Z</time>
      </trkpt>
      <trkpt lat="47.889561" lon="0.027367">
        <ele>41.638901</ele>
        <time>2025-06-25T21:55:20.177Z</time>
      </trkpt>
      <trkpt lat="47.889673" lon="0.027674">
        <ele>41.277689</ele>
        <time>2025-06-25T21:55:22.460Z</time>
      </trkpt>
      <trkpt lat="47.889688" lon="0.027711">
        <ele>41.233003</ele>
        <time>2025-06-25T21:55:22.745Z</time>
      </trkpt>
      <trkpt lat="47.889832" lon="0.028288">
        <ele>40.284697</ele>
        <time>2025-06-25T21:55:26.818Z</time>
      </trkpt>
      <trkpt lat="47.889849" lon="0.028429">
        <ele>40.021821</ele>
        <time>2025-06-25T21:55:27.755Z</time>
      </trkpt>
      <trkpt lat="47.889861" lon="0.028486">
        <ele>39.912195</ele>
        <time>2025-06-25T21:55:28.144Z</time>
      </trkpt>
      <trkpt lat="47.889934" lon="0.028922">
        <ele>39.087599</ele>
        <time>2025-06-25T21:55:31.078Z</time>
      </trkpt>
      <trkpt lat="47.889935" lon="0.028929">
        <ele>39.074466</ele>
        <time>2025-06-25T21:55:31.131Z</time>
      </trkpt>
      <trkpt lat="47.890126" lon="0.030182">
        <ele>36.716631</ele>
        <time>2025-06-25T21:55:39.901Z</time>
      </trkpt>
      <trkpt lat="47.890137" lon="0.030252">
        <ele>36.584705</ele>
        <time>2025-06-25T21:55:40.459Z</time>
      </trkpt>
      <trkpt lat="47.890252" lon="0.031110">
        <ele>36.197323</ele>
        <time>2025-06-25T21:55:50.003Z</time>
      </trkpt>
      <trkpt lat="47.890253" lon="0.031390">
        <ele>36.253548</ele>
        <time>2025-06-25T21:55:53.485Z</time>
      </trkpt>
      <trkpt lat="47.890381" lon="0.031458">
        <ele>36.294237</ele>
        <time>2025-06-25T21:55:55.942Z</time>
      </trkpt>
      <trkpt lat="47.890775" lon="0.031462">
        <ele>36.412224</ele>
        <time>2025-06-25T21:56:02.907Z</time>
      </trkpt>
      <trkpt lat="47.891267" lon="0.031441">
        <ele>36.559616</ele>
        <time>2025-06-25T21:56:11.375Z</time>
      </trkpt>
      <trkpt lat="47.891540" lon="0.031391">
        <ele>36.631349</ele>
        <time>2025-06-25T21:56:15.854Z</time>
      </trkpt>
      <trkpt lat="47.892955" lon="0.030988">
        <ele>36.887689</ele>
        <time>2025-06-25T21:56:38.954Z</time>
      </trkpt>
      <trkpt lat="47.893102" lon="0.030945">
        <ele>36.914345</ele>
        <time>2025-06-25T21:56:40.994Z</time>
      </trkpt>
      <trkpt lat="47.893333" lon="0.030877">
        <ele>36.915727</ele>
        <time>2025-06-25T21:56:44.104Z</time>
      </trkpt>
      <trkpt lat="47.893615" lon="0.030793">
        <ele>36.865303</ele>
        <time>2025-06-25T21:56:48.004Z</time>
      </trkpt>
      <trkpt lat="47.893825" lon="0.030856">
        <ele>36.827743</ele>
        <time>2025-06-25T21:56:50.972Z</time>
      </trkpt>
      <trkpt lat="47.893918" lon="0.030983">
        <ele>36.805632</ele>
        <time>2025-06-25T21:56:52.682Z</time>
      </trkpt>
      <trkpt lat="47.893931" lon="0.031087">
        <ele>36.793195</ele>
        <time>2025-06-25T21:56:53.648Z</time>
      </trkpt>
      <trkpt lat="47.894015" lon="0.031185">
        <ele>36.774494</ele>
        <time>2025-06-25T21:56:55.107Z</time>
      </trkpt>
      <trkpt lat="47.894091" lon="0.031178">
        <ele>36.761143</ele>
        <time>2025-06-25T21:56:56.099Z</time>
      </trkpt>
      <trkpt lat="47.894240" lon="0.031252">
        <ele>36.733606</ele>
        <time>2025-06-25T21:56:58.160Z</time>
      </trkpt>
      <trkpt lat="47.894385" lon="0.031277">
        <ele>36.708012</ele>
        <time>2025-06-25T21:57:00.106Z</time>
      </trkpt>
      <trkpt lat="47.894520" lon="0.031224">
        <ele>36.683534</ele>
        <time>2025-06-25T21:57:02.016Z</time>
      </trkpt>
      <trkpt lat="47.894614" lon="0.031228">
        <ele>36.667045</ele>
        <time>2025-06-25T21:57:03.373Z</time>
      </trkpt>
      <trkpt lat="47.894751" lon="0.031301">
        <ele>36.641535</ele>
        <time>2025-06-25T21:57:05.525Z</time>
      </trkpt>
      <trkpt lat="47.895022" lon="0.031549">
        <ele>36.905029</ele>
        <time>2025-06-25T21:57:10.713Z</time>
      </trkpt>
      <trkpt lat="47.895246" lon="0.031700">
        <ele>37.258840</ele>
        <time>2025-06-25T21:57:15.199Z</time>
      </trkpt>
      <trkpt lat="47.895495" lon="0.031812">
        <ele>37.633176</ele>
        <time>2025-06-25T21:57:20.203Z</time>
      </trkpt>
      <trkpt lat="47.895923" lon="0.031903">
        <ele>38.255435</ele>
        <time>2025-06-25T21:57:28.859Z</time>
      </trkpt>
      <trkpt lat="47.896209" lon="0.031919">
        <ele>38.667372</ele>
        <time>2025-06-25T21:57:35.142Z</time>
      </trkpt>
      <trkpt lat="47.896458" lon="0.031932">
        <ele>39.025983</ele>
        <time>2025-06-25T21:57:41.009Z</time>
      </trkpt>
      <trkpt lat="47.896924" lon="0.031932">
        <ele>40.341275</ele>
        <time>2025-06-25T21:57:53.234Z</time>
      </trkpt>
      <trkpt lat="47.897416" lon="0.031815">
        <ele>42.006648</ele>
        <time>2025-06-25T21:58:07.570Z</time>
      </trkpt>
      <trkpt lat="47.898177" lon="0.031546">
        <ele>44.620891</ele>
        <time>2025-06-25T21:58:31.283Z</time>
      </trkpt>
      <trkpt lat="47.898405" lon="0.031540">
        <ele>45.367475</ele>
        <time>2025-06-25T21:58:37.939Z</time>
      </trkpt>
      <trkpt lat="47.899045" lon="0.031648">
        <ele>47.311678</ele>
        <time>2025-06-25T21:58:55.294Z</time>
      </trkpt>
      <trkpt lat="47.899968" lon="0.031739">
        <ele>50.103889</ele>
        <time>2025-06-25T21:59:19.004Z</time>
      </trkpt>
      <trkpt lat="47.900722" lon="0.031689">
        <ele>52.269733</ele>
        <time>2025-06-25T21:59:39.662Z</time>
      </trkpt>
      <trkpt lat="47.901105" lon="0.031666">
        <ele>53.351658</ele>
        <time>2025-06-25T21:59:50.549Z</time>
      </trkpt>
      <trkpt lat="47.901522" lon="0.031684">
        <ele>54.529168</ele>
        <time>2025-06-25T22:00:01.732Z</time>
      </trkpt>
      <trkpt lat="47.901942" lon="0.031864">
        <ele>55.739612</ele>
        <time>2025-06-25T22:00:12.498Z</time>
      </trkpt>
      <trkpt lat="47.902302" lon="0.032175">
        <ele>56.139967</ele>
        <time>2025-06-25T22:00:21.488Z</time>
      </trkpt>
      <trkpt lat="47.902486" lon="0.032401">
        <ele>56.369345</ele>
        <time>2025-06-25T22:00:26.232Z</time>
      </trkpt>
      <trkpt lat="47.903152" lon="0.033432">
        <ele>57.293041</ele>
        <time>2025-06-25T22:00:42.705Z</time>
      </trkpt>
      <trkpt lat="47.903523" lon="0.033888">
        <ele>57.332591</ele>
        <time>2025-06-25T22:00:50.169Z</time>
      </trkpt>
      <trkpt lat="47.904987" lon="0.034730">
        <ele>56.619732</ele>
        <time>2025-06-25T22:01:10.871Z</time>
      </trkpt>
      <trkpt lat="47.905432" lon="0.034870">
        <ele>56.019477</ele>
        <time>2025-06-25T22:01:16.364Z</time>
      </trkpt>
      <trkpt lat="47.905678" lon="0.034889">
        <ele>55.694358</ele>
        <time>2025-06-25T22:01:19.269Z</time>
      </trkpt>
      <trkpt lat="47.907410" lon="0.034875">
        <ele>53.201513</ele>
        <time>2025-06-25T22:01:38.931Z</time>
      </trkpt>
      <trkpt lat="47.907663" lon="0.034901">
        <ele>52.793291</ele>
        <time>2025-06-25T22:01:41.726Z</time>
      </trkpt>
      <trkpt lat="47.908746" lon="0.035273">
        <ele>51.407713</ele>
        <time>2025-06-25T22:01:54.358Z</time>
      </trkpt>
      <trkpt lat="47.909061" lon="0.035324">
        <ele>51.354383</ele>
        <time>2025-06-25T22:01:58.334Z</time>
      </trkpt>
      <trkpt lat="47.910030" lon="0.035201">
        <ele>51.190698</ele>
        <time>2025-06-25T22:02:13.478Z</time>
      </trkpt>
      <trkpt lat="47.910375" lon="0.035109">
        <ele>51.328446</ele>
        <time>2025-06-25T22:02:20.044Z</time>
      </trkpt>
      <trkpt lat="47.911639" lon="0.034601">
        <ele>53.236372</ele>
        <time>2025-06-25T22:02:46.072Z</time>
      </trkpt>
      <trkpt lat="47.911783" lon="0.034566">
        <ele>53.449015</ele>
        <time>2025-06-25T22:02:49.370Z</time>
      </trkpt>
      <trkpt lat="47.912311" lon="0.034639">
        <ele>54.625531</ele>
        <time>2025-06-25T22:03:02.182Z</time>
      </trkpt>
      <trkpt lat="47.913421" lon="0.034858">
        <ele>57.726832</ele>
        <time>2025-06-25T22:03:32.844Z</time>
      </trkpt>
      <trkpt lat="47.913832" lon="0.035038">
        <ele>58.854226</ele>
        <time>2025-06-25T22:03:44.237Z</time>
      </trkpt>
      <trkpt lat="47.913963" lon="0.035133">
        <ele>59.106648</ele>
        <time>2025-06-25T22:03:47.909Z</time>
      </trkpt>
      <trkpt lat="47.914504" lon="0.035950">
        <ele>60.440655</ele>
        <time>2025-06-25T22:04:05.451Z</time>
      </trkpt>
      <trkpt lat="47.914649" lon="0.036091">
        <ele>60.740601</ele>
        <time>2025-06-25T22:04:08.925Z</time>
      </trkpt>
      <trkpt lat="47.914787" lon="0.036159">
        <ele>60.992461</ele>
        <time>2025-06-25T22:04:11.691Z</time>
      </trkpt>
      <trkpt lat="47.915182" lon="0.036275">
        <ele>61.690135</ele>
        <time>2025-06-25T22:04:19.119Z</time>
      </trkpt>
      <trkpt lat="47.915361" lon="0.036405">
        <ele>62.010678</ele>
        <time>2025-06-25T22:04:22.824Z</time>
      </trkpt>
      <trkpt lat="47.915884" lon="0.037131">
        <ele>63.062326</ele>
        <time>2025-06-25T22:04:36.799Z</time>
      </trkpt>
      <trkpt lat="47.916027" lon="0.037295">
        <ele>63.327851</ele>
        <time>2025-06-25T22:04:40.546Z</time>
      </trkpt>
      <trkpt lat="47.916930" lon="0.037819">
        <ele>64.706956</ele>
        <time>2025-06-25T22:05:01.970Z</time>
      </trkpt>
      <trkpt lat="47.917332" lon="0.038036">
        <ele>65.209005</ele>
        <time>2025-06-25T22:05:11.716Z</time>
      </trkpt>
      <trkpt lat="47.918301" lon="0.038237">
        <ele>66.357930</ele>
        <time>2025-06-25T22:05:31.008Z</time>
      </trkpt>
      <trkpt lat="47.918531" lon="0.038352">
        <ele>66.627962</ele>
        <time>2025-06-25T22:05:34.915Z</time>
      </trkpt>
      <trkpt lat="47.920097" lon="0.039368">
        <ele>65.648354</ele>
        <time>2025-06-25T22:05:57.459Z</time>
      </trkpt>
      <trkpt lat="47.920673" lon="0.039706">
        <ele>64.488373</ele>
        <time>2025-06-25T22:06:04.388Z</time>
      </trkpt>
      <trkpt lat="47.920808" lon="0.039753">
        <ele>64.200831</ele>
        <time>2025-06-25T22:06:05.869Z</time>
      </trkpt>
      <trkpt lat="47.921764" lon="0.039714">
        <ele>62.217122</ele>
        <time>2025-06-25T22:06:15.858Z</time>
      </trkpt>
      <trkpt lat="47.922011" lon="0.039739">
        <ele>61.745375</ele>
        <time>2025-06-25T22:06:18.433Z</time>
      </trkpt>
      <trkpt lat="47.925501" lon="0.040685">
        <ele>56.631158</ele>
        <time>2025-06-25T22:06:59.924Z</time>
      </trkpt>
      <trkpt lat="47.925972" lon="0.040718">
        <ele>56.161636</ele>
        <time>2025-06-25T22:07:05.603Z</time>
      </trkpt>
      <trkpt lat="47.926809" lon="0.040690">
        <ele>55.327971</ele>
        <time>2025-06-25T22:07:15.511Z</time>
      </trkpt>
      <trkpt lat="47.927030" lon="0.040649">
        <ele>55.106213</ele>
        <time>2025-06-25T22:07:18.211Z</time>
      </trkpt>
      <trkpt lat="47.927199" lon="0.040576">
        <ele>54.931022</ele>
        <time>2025-06-25T22:07:20.430Z</time>
      </trkpt>
      <trkpt lat="47.927436" lon="0.040362">
        <ele>55.188038</ele>
        <time>2025-06-25T22:07:24.241Z</time>
      </trkpt>
      <trkpt lat="47.927904" lon="0.039758">
        <ele>56.099222</ele>
        <time>2025-06-25T22:07:35.362Z</time>
      </trkpt>
      <trkpt lat="47.928665" lon="0.038457">
        <ele>57.974010</ele>
        <time>2025-06-25T22:08:04.297Z</time>
      </trkpt>
      <trkpt lat="47.928844" lon="0.038277">
        <ele>58.482581</ele>
        <time>2025-06-25T22:08:09.994Z</time>
      </trkpt>
      <trkpt lat="47.929010" lon="0.038190">
        <ele>58.897131</ele>
        <time>2025-06-25T22:08:14.493Z</time>
      </trkpt>
      <trkpt lat="47.929159" lon="0.038134">
        <ele>59.259169</ele>
        <time>2025-06-25T22:08:18.346Z</time>
      </trkpt>
      <trkpt lat="47.929499" lon="0.038121">
        <ele>60.060548</ele>
        <time>2025-06-25T22:08:26.535Z</time>
      </trkpt>
      <trkpt lat="47.929819" lon="0.038280">
        <ele>60.855228</ele>
        <time>2025-06-25T22:08:34.432Z</time>
      </trkpt>
      <trkpt lat="47.930129" lon="0.038561">
        <ele>61.709825</ele>
        <time>2025-06-25T22:08:42.845Z</time>
      </trkpt>
      <trkpt lat="47.930328" lon="0.038683">
        <ele>62.091428</ele>
        <time>2025-06-25T22:08:47.835Z</time>
      </trkpt>
      <trkpt lat="47.931257" lon="0.038969">
        <ele>63.717327</ele>
        <time>2025-06-25T22:09:09.780Z</time>
      </trkpt>
      <trkpt lat="47.931840" lon="0.038922">
        <ele>64.718089</ele>
        <time>2025-06-25T22:09:22.128Z</time>
      </trkpt>
      <trkpt lat="47.931969" lon="0.038959">
        <ele>64.857691</ele>
        <time>2025-06-25T22:09:24.692Z</time>
      </trkpt>
      <trkpt lat="47.933732" lon="0.039828">
        <ele>65.394432</ele>
        <time>2025-06-25T22:09:52.974Z</time>
      </trkpt>
      <trkpt lat="47.933923" lon="0.039890">
        <ele>65.436479</ele>
        <time>2025-06-25T22:09:55.716Z</time>
      </trkpt>
      <trkpt lat="47.934290" lon="0.039889">
        <ele>65.515424</ele>
        <time>2025-06-25T22:10:01.246Z</time>
      </trkpt>
      <trkpt lat="47.934403" lon="0.039917">
        <ele>65.540064</ele>
        <time>2025-06-25T22:10:02.978Z</time>
      </trkpt>
      <trkpt lat="47.934523" lon="0.039978">
        <ele>65.567333</ele>
        <time>2025-06-25T22:10:04.916Z</time>
      </trkpt>
      <trkpt lat="47.934941" lon="0.040302">
        <ele>65.668651</ele>
        <time>2025-06-25T22:10:12.264Z</time>
      </trkpt>
      <trkpt lat="47.935103" lon="0.040418">
        <ele>65.707301</ele>
        <time>2025-06-25T22:10:15.151Z</time>
      </trkpt>
      <trkpt lat="47.936228" lon="0.041105">
        <ele>66.421134</ele>
        <time>2025-06-25T22:10:35.994Z</time>
      </trkpt>
      <trkpt lat="47.937132" lon="0.041613">
        <ele>67.144823</ele>
        <time>2025-06-25T22:10:53.414Z</time>
      </trkpt>
      <trkpt lat="47.938718" lon="0.042522">
        <ele>69.084280</ele>
        <time>2025-06-25T22:11:26.837Z</time>
      </trkpt>
      <trkpt lat="47.938983" lon="0.042628">
        <ele>69.361742</ele>
        <time>2025-06-25T22:11:32.362Z</time>
      </trkpt>
      <trkpt lat="47.938984" lon="0.042690">
        <ele>69.403760</ele>
        <time>2025-06-25T22:11:33.182Z</time>
      </trkpt>
      <trkpt lat="47.940105" lon="0.043876">
        <ele>70.793357</ele>
        <time>2025-06-25T22:11:59.497Z</time>
      </trkpt>
      <trkpt lat="47.940339" lon="0.044104">
        <ele>70.865727</ele>
        <time>2025-06-25T22:12:04.178Z</time>
      </trkpt>
      <trkpt lat="47.940969" lon="0.044472">
        <ele>70.925681</ele>
        <time>2025-06-25T22:12:14.483Z</time>
      </trkpt>
      <trkpt lat="47.940972" lon="0.044474">
        <ele>70.925972</ele>
        <time>2025-06-25T22:12:14.529Z</time>
      </trkpt>
      <trkpt lat="47.941235" lon="0.044737">
        <ele>70.954026</ele>
        <time>2025-06-25T22:12:18.908Z</time>
      </trkpt>
      <trkpt lat="47.941255" lon="0.044764">
        <ele>70.956416</ele>
        <time>2025-06-25T22:12:19.277Z</time>
      </trkpt>
      <trkpt lat="47.941875" lon="0.045614">
        <ele>71.139378</ele>
        <time>2025-06-25T22:12:30.966Z</time>
      </trkpt>
      <trkpt lat="47.942025" lon="0.045775">
        <ele>71.223768</ele>
        <time>2025-06-25T22:12:33.681Z</time>
      </trkpt>
      <trkpt lat="47.942486" lon="0.046078">
        <ele>71.453855</ele>
        <time>2025-06-25T22:12:41.644Z</time>
      </trkpt>
      <trkpt lat="47.943268" lon="0.046531">
        <ele>71.849134</ele>
        <time>2025-06-25T22:12:57.006Z</time>
      </trkpt>
      <trkpt lat="47.943300" lon="0.046592">
        <ele>71.900255</ele>
        <time>2025-06-25T22:12:58.066Z</time>
      </trkpt>
      <trkpt lat="47.943368" lon="0.046588">
        <ele>71.967284</ele>
        <time>2025-06-25T22:12:59.477Z</time>
      </trkpt>
      <trkpt lat="47.943864" lon="0.046893">
        <ele>72.495651</ele>
        <time>2025-06-25T22:13:10.620Z</time>
      </trkpt>
      <trkpt lat="47.944387" lon="0.047218">
        <ele>73.053637</ele>
        <time>2025-06-25T22:13:21.605Z</time>
      </trkpt>
      <trkpt lat="47.944451" lon="0.047208">
        <ele>73.117020</ele>
        <time>2025-06-25T22:13:22.801Z</time>
      </trkpt>
      <trkpt lat="47.944637" lon="0.048093">
        <ele>73.599594</ele>
        <time>2025-06-25T22:13:33.617Z</time>
      </trkpt>
      <trkpt lat="47.944767" lon="0.048697">
        <ele>73.604252</ele>
        <time>2025-06-25T22:13:40.181Z</time>
      </trkpt>
      <trkpt lat="47.944816" lon="0.048924">
        <ele>73.606003</ele>
        <time>2025-06-25T22:13:42.434Z</time>
      </trkpt>
      <trkpt lat="47.945297" lon="0.050992">
        <ele>73.364919</ele>
        <time>2025-06-25T22:14:03.155Z</time>
      </trkpt>
      <trkpt lat="47.945369" lon="0.051209">
        <ele>73.258433</ele>
        <time>2025-06-25T22:14:05.367Z</time>
      </trkpt>
      <trkpt lat="47.945556" lon="0.051619">
        <ele>73.040318</ele>
        <time>2025-06-25T22:14:09.787Z</time>
      </trkpt>
      <trkpt lat="47.945487" lon="0.051758">
        <ele>72.964242</ele>
        <time>2025-06-25T22:14:11.890Z</time>
      </trkpt>
      <trkpt lat="47.945486" lon="0.051844">
        <ele>72.926419</ele>
        <time>2025-06-25T22:14:12.937Z</time>
      </trkpt>
      <trkpt lat="47.945718" lon="0.052827">
        <ele>72.468122</ele>
        <time>2025-06-25T22:14:25.146Z</time>
      </trkpt>
      <trkpt lat="47.945888" lon="0.054011">
        <ele>71.364102</ele>
        <time>2025-06-25T22:14:38.702Z</time>
      </trkpt>
      <trkpt lat="47.945909" lon="0.054347">
        <ele>71.046572</ele>
        <time>2025-06-25T22:14:42.437Z</time>
      </trkpt>
      <trkpt lat="47.945553" lon="0.055712">
        <ele>69.680712</ele>
        <time>2025-06-25T22:14:58.513Z</time>
      </trkpt>
      <trkpt lat="47.945443" lon="0.056407">
        <ele>69.043291</ele>
        <time>2025-06-25T22:15:06.378Z</time>
      </trkpt>
      <trkpt lat="47.945378" lon="0.056650">
        <ele>68.809740</ele>
        <time>2025-06-25T22:15:09.276Z</time>
      </trkpt>
      <trkpt lat="47.944318" lon="0.059269">
        <ele>66.425090</ele>
        <time>2025-06-25T22:15:44.007Z</time>
      </trkpt>
      <trkpt lat="47.943932" lon="0.059991">
        <ele>65.799672</ele>
        <time>2025-06-25T22:15:55.109Z</time>
      </trkpt>
      <trkpt lat="47.943298" lon="0.061002">
        <ele>65.263676</ele>
        <time>2025-06-25T22:16:12.202Z</time>
      </trkpt>
      <trkpt lat="47.941767" lon="0.064565">
        <ele>64.166397</ele>
        <time>2025-06-25T22:17:05.053Z</time>
      </trkpt>
      <trkpt lat="47.941209" lon="0.066006">
        <ele>64.630398</ele>
        <time>2025-06-25T22:17:30.373Z</time>
      </trkpt>
      <trkpt lat="47.941358" lon="0.066162">
        <ele>64.706135</ele>
        <time>2025-06-25T22:17:34.735Z</time>
      </trkpt>
      <trkpt lat="47.943219" lon="0.067559">
        <ele>64.986172</ele>
        <time>2025-06-25T22:18:19.378Z</time>
      </trkpt>
      <trkpt lat="47.943477" lon="0.067656">
        <ele>64.801619</ele>
        <time>2025-06-25T22:18:24.056Z</time>
      </trkpt>
      <trkpt lat="47.943836" lon="0.067741">
        <ele>64.173199</ele>
        <time>2025-06-25T22:18:30.166Z</time>
      </trkpt>
      <trkpt lat="47.944109" lon="0.067884">
        <ele>63.673008</ele>
        <time>2025-06-25T22:18:34.840Z</time>
      </trkpt>
      <trkpt lat="47.944781" lon="0.068406">
        <ele>62.363346</ele>
        <time>2025-06-25T22:18:46.494Z</time>
      </trkpt>
      <trkpt lat="47.945711" lon="0.069271">
        <ele>60.626691</ele>
        <time>2025-06-25T22:19:03.700Z</time>
      </trkpt>
      <trkpt lat="47.945980" lon="0.069488">
        <ele>60.156920</ele>
        <time>2025-06-25T22:19:08.699Z</time>
      </trkpt>
      <trkpt lat="47.948411" lon="0.071395">
        <ele>57.513603</ele>
        <time>2025-06-25T22:19:57.135Z</time>
      </trkpt>
      <trkpt lat="47.948880" lon="0.071969">
        <ele>57.325316</ele>
        <time>2025-06-25T22:20:08.667Z</time>
      </trkpt>
      <trkpt lat="47.949270" lon="0.072538">
        <ele>57.156015</ele>
        <time>2025-06-25T22:20:19.476Z</time>
      </trkpt>
      <trkpt lat="47.949390" lon="0.072688">
        <ele>57.107424</ele>
        <time>2025-06-25T22:20:22.592Z</time>
      </trkpt>
      <trkpt lat="47.949836" lon="0.073227">
        <ele>56.916880</ele>
        <time>2025-06-25T22:20:34.031Z</time>
      </trkpt>
      <trkpt lat="47.950193" lon="0.073942">
        <ele>56.710721</ele>
        <time>2025-06-25T22:20:45.679Z</time>
      </trkpt>
      <trkpt lat="47.950377" lon="0.074443">
        <ele>56.578637</ele>
        <time>2025-06-25T22:20:52.859Z</time>
      </trkpt>
      <trkpt lat="47.950691" lon="0.075225">
        <ele>56.277757</ele>
        <time>2025-06-25T22:21:03.988Z</time>
      </trkpt>
      <trkpt lat="47.950833" lon="0.075553">
        <ele>56.029821</ele>
        <time>2025-06-25T22:21:08.733Z</time>
      </trkpt>
      <trkpt lat="47.951554" lon="0.077089">
        <ele>54.839101</ele>
        <time>2025-06-25T22:21:30.634Z</time>
      </trkpt>
      <trkpt lat="47.952018" lon="0.078415">
        <ele>53.680470</ele>
        <time>2025-06-25T22:21:47.202Z</time>
      </trkpt>
      <trkpt lat="47.952352" lon="0.079032">
        <ele>53.049373</ele>
        <time>2025-06-25T22:21:56.001Z</time>
      </trkpt>
      <trkpt lat="47.952557" lon="0.079488">
        <ele>52.612486</ele>
        <time>2025-06-25T22:22:02.339Z</time>
      </trkpt>
      <trkpt lat="47.952694" lon="0.079992">
        <ele>52.629126</ele>
        <time>2025-06-25T22:22:09.058Z</time>
      </trkpt>
      <trkpt lat="47.952784" lon="0.080217">
        <ele>52.655702</ele>
        <time>2025-06-25T22:22:12.594Z</time>
      </trkpt>
      <trkpt lat="47.953276" lon="0.080485">
        <ele>52.735001</ele>
        <time>2025-06-25T22:22:23.866Z</time>
      </trkpt>
      <trkpt lat="47.953513" lon="0.080732">
        <ele>52.778763</ele>
        <time>2025-06-25T22:22:30.330Z</time>
      </trkpt>
      <trkpt lat="47.953658" lon="0.081030">
        <ele>52.816116</ele>
        <time>2025-06-25T22:22:35.921Z</time>
      </trkpt>
      <trkpt lat="47.953685" lon="0.081086">
        <ele>52.823113</ele>
        <time>2025-06-25T22:22:37.031Z</time>
      </trkpt>
      <trkpt lat="47.953907" lon="0.082239">
        <ele>52.947095</ele>
        <time>2025-06-25T22:22:55.762Z</time>
      </trkpt>
      <trkpt lat="47.954037" lon="0.083554">
        <ele>53.085218</ele>
        <time>2025-06-25T22:23:14.097Z</time>
      </trkpt>
      <trkpt lat="47.954380" lon="0.085754">
        <ele>52.351433</ele>
        <time>2025-06-25T22:23:41.408Z</time>
      </trkpt>
      <trkpt lat="47.954404" lon="0.085898">
        <ele>52.288339</ele>
        <time>2025-06-25T22:23:43.135Z</time>
      </trkpt>
      <trkpt lat="47.954398" lon="0.086020">
        <ele>52.236326</ele>
        <time>2025-06-25T22:23:44.564Z</time>
      </trkpt>
      <trkpt lat="47.954477" lon="0.086235">
        <ele>52.132057</ele>
        <time>2025-06-25T22:23:46.638Z</time>
      </trkpt>
      <trkpt lat="47.954647" lon="0.086762">
        <ele>51.907874</ele>
        <time>2025-06-25T22:23:51.749Z</time>
      </trkpt>
      <trkpt lat="47.954814" lon="0.086944">
        <ele>51.807429</ele>
        <time>2025-06-25T22:23:54.501Z</time>
      </trkpt>
      <trkpt lat="47.955080" lon="0.087137">
        <ele>51.663750</ele>
        <time>2025-06-25T22:23:58.446Z</time>
      </trkpt>
      <trkpt lat="47.955286" lon="0.087319">
        <ele>51.547463</ele>
        <time>2025-06-25T22:24:01.847Z</time>
      </trkpt>
      <trkpt lat="47.955477" lon="0.087526">
        <ele>51.432804</ele>
        <time>2025-06-25T22:24:05.154Z</time>
      </trkpt>
      <trkpt lat="47.955676" lon="0.087656">
        <ele>51.327277</ele>
        <time>2025-06-25T22:24:08.197Z</time>
      </trkpt>
      <trkpt lat="47.955872" lon="0.087735">
        <ele>51.228647</ele>
        <time>2025-06-25T22:24:10.932Z</time>
      </trkpt>
      <trkpt lat="47.956669" lon="0.087663">
        <ele>50.737078</ele>
        <time>2025-06-25T22:24:20.968Z</time>
      </trkpt>
      <trkpt lat="47.956794" lon="0.087807">
        <ele>50.631282</ele>
        <time>2025-06-25T22:24:22.853Z</time>
      </trkpt>
      <trkpt lat="47.956832" lon="0.087924">
        <ele>50.572927</ele>
        <time>2025-06-25T22:24:23.891Z</time>
      </trkpt>
      <trkpt lat="47.956868" lon="0.088149">
        <ele>50.469111</ele>
        <time>2025-06-25T22:24:25.751Z</time>
      </trkpt>
      <trkpt lat="47.956874" lon="0.088332">
        <ele>50.386888</ele>
        <time>2025-06-25T22:24:27.234Z</time>
      </trkpt>
      <trkpt lat="47.956824" lon="0.088579">
        <ele>50.271088</ele>
        <time>2025-06-25T22:24:29.401Z</time>
      </trkpt>
      <trkpt lat="47.956695" lon="0.088826">
        <ele>50.130519</ele>
        <time>2025-06-25T22:24:32.171Z</time>
      </trkpt>
      <trkpt lat="47.956646" lon="0.088907">
        <ele>50.081534</ele>
        <time>2025-06-25T22:24:33.173Z</time>
      </trkpt>
      <trkpt lat="47.956198" lon="0.089653">
        <ele>50.132602</ele>
        <time>2025-06-25T22:24:42.847Z</time>
      </trkpt>
      <trkpt lat="47.956184" lon="0.089676">
        <ele>50.143883</ele>
        <time>2025-06-25T22:24:43.161Z</time>
      </trkpt>
      <trkpt lat="47.956130" lon="0.089767">
        <ele>50.188016</ele>
        <time>2025-06-25T22:24:44.446Z</time>
      </trkpt>
      <trkpt lat="47.956078" lon="0.089907">
        <ele>50.246125</ele>
        <time>2025-06-25T22:24:46.153Z</time>
      </trkpt>
      <trkpt lat="47.956061" lon="0.090041">
        <ele>50.295629</ele>
        <time>2025-06-25T22:24:47.675Z</time>
      </trkpt>
      <trkpt lat="47.956094" lon="0.090249">
        <ele>50.373218</ele>
        <time>2025-06-25T22:24:50.198Z</time>
      </trkpt>
      <trkpt lat="47.956466" lon="0.091062">
        <ele>50.730619</ele>
        <time>2025-06-25T22:25:02.495Z</time>
      </trkpt>
      <trkpt lat="47.957860" lon="0.093694">
        <ele>52.673087</ele>
        <time>2025-06-25T22:25:44.624Z</time>
      </trkpt>
      <trkpt lat="47.958087" lon="0.094027">
        <ele>52.826701</ele>
        <time>2025-06-25T22:25:50.220Z</time>
      </trkpt>
      <trkpt lat="47.958137" lon="0.094100">
        <ele>52.860457</ele>
        <time>2025-06-25T22:25:51.411Z</time>
      </trkpt>
      <trkpt lat="47.958265" lon="0.094276">
        <ele>52.944453</ele>
        <time>2025-06-25T22:25:54.403Z</time>
      </trkpt>
      <trkpt lat="47.958465" lon="0.094632">
        <ele>53.094674</ele>
        <time>2025-06-25T22:25:59.675Z</time>
      </trkpt>
      <trkpt lat="47.958966" lon="0.096317">
        <ele>53.334249</ele>
        <time>2025-06-25T22:26:19.023Z</time>
      </trkpt>
      <trkpt lat="47.959189" lon="0.096919">
        <ele>53.211466</ele>
        <time>2025-06-25T22:26:25.381Z</time>
      </trkpt>
      <trkpt lat="47.959460" lon="0.097479">
        <ele>53.088157</ele>
        <time>2025-06-25T22:26:31.482Z</time>
      </trkpt>
      <trkpt lat="47.959682" lon="0.097898">
        <ele>52.992803</ele>
        <time>2025-06-25T22:26:36.095Z</time>
      </trkpt>
      <trkpt lat="47.960057" lon="0.098396">
        <ele>52.778574</ele>
        <time>2025-06-25T22:26:42.626Z</time>
      </trkpt>
      <trkpt lat="47.960446" lon="0.098751">
        <ele>52.577320</ele>
        <time>2025-06-25T22:26:48.716Z</time>
      </trkpt>
      <trkpt lat="47.960593" lon="0.099003">
        <ele>52.478524</ele>
        <time>2025-06-25T22:26:51.776Z</time>
      </trkpt>
      <trkpt lat="47.960837" lon="0.099728">
        <ele>52.238658</ele>
        <time>2025-06-25T22:26:59.227Z</time>
      </trkpt>
      <trkpt lat="47.961082" lon="0.100634">
        <ele>52.132336</ele>
        <time>2025-06-25T22:27:08.337Z</time>
      </trkpt>
      <trkpt lat="47.961253" lon="0.101111">
        <ele>52.095136</ele>
        <time>2025-06-25T22:27:13.454Z</time>
      </trkpt>
      <trkpt lat="47.962142" lon="0.102875">
        <ele>52.031893</ele>
        <time>2025-06-25T22:27:35.348Z</time>
      </trkpt>
      <trkpt lat="47.962756" lon="0.103953">
        <ele>52.079075</ele>
        <time>2025-06-25T22:27:49.912Z</time>
      </trkpt>
      <trkpt lat="47.963400" lon="0.104860">
        <ele>52.185061</ele>
        <time>2025-06-25T22:28:03.146Z</time>
      </trkpt>
      <trkpt lat="47.963436" lon="0.104948">
        <ele>52.195450</ele>
        <time>2025-06-25T22:28:04.194Z</time>
      </trkpt>
      <trkpt lat="47.963598" lon="0.105345">
        <ele>52.242288</ele>
        <time>2025-06-25T22:28:09.018Z</time>
      </trkpt>
      <trkpt lat="47.963779" lon="0.106127">
        <ele>52.325645</ele>
        <time>2025-06-25T22:28:17.649Z</time>
      </trkpt>
      <trkpt lat="47.963875" lon="0.107439">
        <ele>52.475575</ele>
        <time>2025-06-25T22:28:31.600Z</time>
      </trkpt>
      <trkpt lat="47.963959" lon="0.107897">
        <ele>52.531917</ele>
        <time>2025-06-25T22:28:36.720Z</time>
      </trkpt>
      <trkpt lat="47.964182" lon="0.108481">
        <ele>52.611682</ele>
        <time>2025-06-25T22:28:43.877Z</time>
      </trkpt>
      <trkpt lat="47.964769" lon="0.109876">
        <ele>52.587209</ele>
        <time>2025-06-25T22:29:00.301Z</time>
      </trkpt>
      <trkpt lat="47.965881" lon="0.112551">
        <ele>52.386698</ele>
        <time>2025-06-25T22:29:29.770Z</time>
      </trkpt>
      <trkpt lat="47.966464" lon="0.114029">
        <ele>52.379366</ele>
        <time>2025-06-25T22:29:47.661Z</time>
      </trkpt>
      <trkpt lat="47.966909" lon="0.114943">
        <ele>52.450625</ele>
        <time>2025-06-25T22:29:59.582Z</time>
      </trkpt>
      <trkpt lat="47.967267" lon="0.115959">
        <ele>52.485821</ele>
        <time>2025-06-25T22:30:10.843Z</time>
      </trkpt>
      <trkpt lat="47.967993" lon="0.117986">
        <ele>52.018398</ele>
        <time>2025-06-25T22:30:31.568Z</time>
      </trkpt>
      <trkpt lat="47.968093" lon="0.118208">
        <ele>51.967450</ele>
        <time>2025-06-25T22:30:34.058Z</time>
      </trkpt>
      <trkpt lat="47.968210" lon="0.118413">
        <ele>51.960054</ele>
        <time>2025-06-25T22:30:36.628Z</time>
      </trkpt>
      <trkpt lat="47.968450" lon="0.118743">
        <ele>51.946676</ele>
        <time>2025-06-25T22:30:41.399Z</time>
      </trkpt>
      <trkpt lat="47.969132" lon="0.119345">
        <ele>51.914189</ele>
        <time>2025-06-25T22:30:53.279Z</time>
      </trkpt>
      <trkpt lat="47.969308" lon="0.119546">
        <ele>51.905103</ele>
        <time>2025-06-25T22:30:56.670Z</time>
      </trkpt>
      <trkpt lat="47.969471" lon="0.119847">
        <ele>51.894473</ele>
        <time>2025-06-25T22:31:00.622Z</time>
      </trkpt>
      <trkpt lat="47.969819" lon="0.120699">
        <ele>51.845434</ele>
        <time>2025-06-25T22:31:10.397Z</time>
      </trkpt>
      <trkpt lat="47.969981" lon="0.121023">
        <ele>51.825486</ele>
        <time>2025-06-25T22:31:14.205Z</time>
      </trkpt>
      <trkpt lat="47.971536" lon="0.123461">
        <ele>51.792984</ele>
        <time>2025-06-25T22:31:46.902Z</time>
      </trkpt>
      <trkpt lat="47.972049" lon="0.124228">
        <ele>51.902843</ele>
        <time>2025-06-25T22:31:58.366Z</time>
      </trkpt>
      <trkpt lat="47.972510" lon="0.124821">
        <ele>52.096609</ele>
        <time>2025-06-25T22:32:08.307Z</time>
      </trkpt>
      <trkpt lat="47.972751" lon="0.125055">
        <ele>52.188157</ele>
        <time>2025-06-25T22:32:13.039Z</time>
      </trkpt>
      <trkpt lat="47.973459" lon="0.125553">
        <ele>52.392549</ele>
        <time>2025-06-25T22:32:25.743Z</time>
      </trkpt>
      <trkpt lat="47.973746" lon="0.125909">
        <ele>52.425870</ele>
        <time>2025-06-25T22:32:31.601Z</time>
      </trkpt>
      <trkpt lat="47.974772" lon="0.127717">
        <ele>52.423824</ele>
        <time>2025-06-25T22:32:55.202Z</time>
      </trkpt>
      <trkpt lat="47.974860" lon="0.128047">
        <ele>52.349257</ele>
        <time>2025-06-25T22:32:58.407Z</time>
      </trkpt>
      <trkpt lat="47.974868" lon="0.128636">
        <ele>52.225590</ele>
        <time>2025-06-25T22:33:03.704Z</time>
      </trkpt>
      <trkpt lat="47.974861" lon="0.128689">
        <ele>52.214250</ele>
        <time>2025-06-25T22:33:04.189Z</time>
      </trkpt>
      <trkpt lat="47.974952" lon="0.129062">
        <ele>52.130913</ele>
        <time>2025-06-25T22:33:07.719Z</time>
      </trkpt>
      <trkpt lat="47.975056" lon="0.129281">
        <ele>52.074549</ele>
        <time>2025-06-25T22:33:10.109Z</time>
      </trkpt>
      <trkpt lat="47.975194" lon="0.129447">
        <ele>52.018991</ele>
        <time>2025-06-25T22:33:12.467Z</time>
      </trkpt>
      <trkpt lat="47.975458" lon="0.129663">
        <ele>51.994092</ele>
        <time>2025-06-25T22:33:16.523Z</time>
      </trkpt>
      <trkpt lat="47.975510" lon="0.129703">
        <ele>52.002796</ele>
        <time>2025-06-25T22:33:17.325Z</time>
      </trkpt>
      <trkpt lat="47.975864" lon="0.130007">
        <ele>52.063559</ele>
        <time>2025-06-25T22:33:23.143Z</time>
      </trkpt>
      <trkpt lat="47.976184" lon="0.130436">
        <ele>52.127543</ele>
        <time>2025-06-25T22:33:29.870Z</time>
      </trkpt>
      <trkpt lat="47.976399" lon="0.130669">
        <ele>52.167070</ele>
        <time>2025-06-25T22:33:34.252Z</time>
      </trkpt>
      <trkpt lat="47.976681" lon="0.130896">
        <ele>52.214739</ele>
        <time>2025-06-25T22:33:39.665Z</time>
      </trkpt>
      <trkpt lat="47.977239" lon="0.131268">
        <ele>52.297875</ele>
        <time>2025-06-25T22:33:50.167Z</time>
      </trkpt>
      <trkpt lat="47.977759" lon="0.131686">
        <ele>52.375417</ele>
        <time>2025-06-25T22:33:59.660Z</time>
      </trkpt>
      <trkpt lat="47.977912" lon="0.131931">
        <ele>52.404870</ele>
        <time>2025-06-25T22:34:03.028Z</time>
      </trkpt>
      <trkpt lat="47.978186" lon="0.132572">
        <ele>52.471724</ele>
        <time>2025-06-25T22:34:10.225Z</time>
      </trkpt>
      <trkpt lat="47.978339" lon="0.132953">
        <ele>52.334745</ele>
        <time>2025-06-25T22:34:14.187Z</time>
      </trkpt>
      <trkpt lat="47.978713" lon="0.134506">
        <ele>51.754482</ele>
        <time>2025-06-25T22:34:28.379Z</time>
      </trkpt>
      <trkpt lat="47.978935" lon="0.135295">
        <ele>51.492832</ele>
        <time>2025-06-25T22:34:35.971Z</time>
      </trkpt>
      <trkpt lat="47.979827" lon="0.137592">
        <ele>51.070407</ele>
        <time>2025-06-25T22:35:00.953Z</time>
      </trkpt>
      <trkpt lat="47.980071" lon="0.138547">
        <ele>51.095463</ele>
        <time>2025-06-25T22:35:10.835Z</time>
      </trkpt>
      <trkpt lat="47.980163" lon="0.138999">
        <ele>51.107043</ele>
        <time>2025-06-25T22:35:15.472Z</time>
      </trkpt>
      <trkpt lat="47.980460" lon="0.141293">
        <ele>51.570856</ele>
        <time>2025-06-25T22:35:39.904Z</time>
      </trkpt>
      <trkpt lat="47.980534" lon="0.141660">
        <ele>51.697176</ele>
        <time>2025-06-25T22:35:44.317Z</time>
      </trkpt>
      <trkpt lat="47.980603" lon="0.141835">
        <ele>51.764112</ele>
        <time>2025-06-25T22:35:46.691Z</time>
      </trkpt>
      <trkpt lat="47.981292" lon="0.142919">
        <ele>52.793622</ele>
        <time>2025-06-25T22:36:05.184Z</time>
      </trkpt>
      <trkpt lat="47.981807" lon="0.143908">
        <ele>54.132016</ele>
        <time>2025-06-25T22:36:23.349Z</time>
      </trkpt>
      <trkpt lat="47.981977" lon="0.144118">
        <ele>54.484014</ele>
        <time>2025-06-25T22:36:28.404Z</time>
      </trkpt>
      <trkpt lat="47.982586" lon="0.144638">
        <ele>55.952092</ele>
        <time>2025-06-25T22:36:44.768Z</time>
      </trkpt>
      <trkpt lat="47.982747" lon="0.145660">
        <ele>57.619767</ele>
        <time>2025-06-25T22:37:01.621Z</time>
      </trkpt>
      <trkpt lat="47.982886" lon="0.146304">
        <ele>58.694546</ele>
        <time>2025-06-25T22:37:12.577Z</time>
      </trkpt>
      <trkpt lat="47.983030" lon="0.146841">
        <ele>59.727026</ele>
        <time>2025-06-25T22:37:22.615Z</time>
      </trkpt>
      <trkpt lat="47.983215" lon="0.147414">
        <ele>60.988255</ele>
        <time>2025-06-25T22:37:34.762Z</time>
      </trkpt>
      <trkpt lat="47.983791" lon="0.148938">
        <ele>64.457980</ele>
        <time>2025-06-25T22:38:08.441Z</time>
      </trkpt>
      <trkpt lat="47.983812" lon="0.149211">
        <ele>64.477532</ele>
        <time>2025-06-25T22:38:12.485Z</time>
      </trkpt>
      <trkpt lat="47.983802" lon="0.149545">
        <ele>64.470763</ele>
        <time>2025-06-25T22:38:16.233Z</time>
      </trkpt>
      <trkpt lat="47.983794" lon="0.149846">
        <ele>64.464664</ele>
        <time>2025-06-25T22:38:19.093Z</time>
      </trkpt>
      <trkpt lat="47.983763" lon="0.150585">
        <ele>64.449673</ele>
        <time>2025-06-25T22:38:25.655Z</time>
      </trkpt>
      <trkpt lat="47.983728" lon="0.150889">
        <ele>64.443428</ele>
        <time>2025-06-25T22:38:28.156Z</time>
      </trkpt>
      <trkpt lat="47.983639" lon="0.150914">
        <ele>64.440689</ele>
        <time>2025-06-25T22:38:29.165Z</time>
      </trkpt>
      <trkpt lat="47.983603" lon="0.150958">
        <ele>64.439282</ele>
        <time>2025-06-25T22:38:29.737Z</time>
      </trkpt>
      <trkpt lat="47.983571" lon="0.151084">
        <ele>64.436553</ele>
        <time>2025-06-25T22:38:30.744Z</time>
      </trkpt>
      <trkpt lat="47.983618" lon="0.151242">
        <ele>64.433053</ele>
        <time>2025-06-25T22:38:32.088Z</time>
      </trkpt>
      <trkpt lat="47.983729" lon="0.151289">
        <ele>64.429563</ele>
        <time>2025-06-25T22:38:33.445Z</time>
      </trkpt>
      <trkpt lat="47.983722" lon="0.151428">
        <ele>64.414917</ele>
        <time>2025-06-25T22:38:34.473Z</time>
      </trkpt>
      <trkpt lat="47.983674" lon="0.153026">
        <ele>64.156742</ele>
        <time>2025-06-25T22:38:49.168Z</time>
      </trkpt>
      <trkpt lat="47.983661" lon="0.153443">
        <ele>64.089366</ele>
        <time>2025-06-25T22:38:53.805Z</time>
      </trkpt>
      <trkpt lat="47.983652" lon="0.153830">
        <ele>64.026867</ele>
        <time>2025-06-25T22:38:58.171Z</time>
      </trkpt>
      <trkpt lat="47.983668" lon="0.154220">
        <ele>63.931174</ele>
        <time>2025-06-25T22:39:02.536Z</time>
      </trkpt>
      <trkpt lat="47.983816" lon="0.155121">
        <ele>63.623461</ele>
        <time>2025-06-25T22:39:11.524Z</time>
      </trkpt>
      <trkpt lat="47.983915" lon="0.155613">
        <ele>63.453059</ele>
        <time>2025-06-25T22:39:16.110Z</time>
      </trkpt>
      <trkpt lat="47.983958" lon="0.155705">
        <ele>63.415841</ele>
        <time>2025-06-25T22:39:17.079Z</time>
      </trkpt>
      <trkpt lat="47.983922" lon="0.155818">
        <ele>63.374332</ele>
        <time>2025-06-25T22:39:18.140Z</time>
      </trkpt>
      <trkpt lat="47.983944" lon="0.155897">
        <ele>63.345952</ele>
        <time>2025-06-25T22:39:18.864Z</time>
      </trkpt>
      <trkpt lat="47.983994" lon="0.155937">
        <ele>63.317846</ele>
        <time>2025-06-25T22:39:19.576Z</time>
      </trkpt>
      <trkpt lat="47.984024" lon="0.156405">
        <ele>63.161909</ele>
        <time>2025-06-25T22:39:23.358Z</time>
      </trkpt>
      <trkpt lat="47.984060" lon="0.156628">
        <ele>63.065569</ele>
        <time>2025-06-25T22:39:25.138Z</time>
      </trkpt>
      <trkpt lat="47.984126" lon="0.157028">
        <ele>62.771793</ele>
        <time>2025-06-25T22:39:28.259Z</time>
      </trkpt>
      <trkpt lat="47.984340" lon="0.158314">
        <ele>61.826840</ele>
        <time>2025-06-25T22:39:38.674Z</time>
      </trkpt>
      <trkpt lat="47.984411" lon="0.158722">
        <ele>61.526227</ele>
        <time>2025-06-25T22:39:42.134Z</time>
      </trkpt>
      <trkpt lat="47.984462" lon="0.159071">
        <ele>61.271496</ele>
        <time>2025-06-25T22:39:45.140Z</time>
      </trkpt>
      <trkpt lat="47.984464" lon="0.159095">
        <ele>61.254250</ele>
        <time>2025-06-25T22:39:45.356Z</time>
      </trkpt>
      <trkpt lat="47.984539" lon="0.160314">
        <ele>61.193217</ele>
        <time>2025-06-25T22:39:57.456Z</time>
      </trkpt>
      <trkpt lat="47.984602" lon="0.160671">
        <ele>61.195179</ele>
        <time>2025-06-25T22:40:01.472Z</time>
      </trkpt>
      <trkpt lat="47.984675" lon="0.160848">
        <ele>61.196284</ele>
        <time>2025-06-25T22:40:03.682Z</time>
      </trkpt>
      <trkpt lat="47.984865" lon="0.161271">
        <ele>61.198993</ele>
        <time>2025-06-25T22:40:09.366Z</time>
      </trkpt>
      <trkpt lat="47.985168" lon="0.161951">
        <ele>60.830782</ele>
        <time>2025-06-25T22:40:17.841Z</time>
      </trkpt>
      <trkpt lat="47.985378" lon="0.162430">
        <ele>60.217850</ele>
        <time>2025-06-25T22:40:22.691Z</time>
      </trkpt>
      <trkpt lat="47.985480" lon="0.162662">
        <ele>59.920729</ele>
        <time>2025-06-25T22:40:24.800Z</time>
      </trkpt>
      <trkpt lat="47.985795" lon="0.163380">
        <ele>59.001782</ele>
        <time>2025-06-25T22:40:31.023Z</time>
      </trkpt>
      <trkpt lat="47.985841" lon="0.163480">
        <ele>58.871899</ele>
        <time>2025-06-25T22:40:31.881Z</time>
      </trkpt>
      <trkpt lat="47.985869" lon="0.163542">
        <ele>58.791839</ele>
        <time>2025-06-25T22:40:32.407Z</time>
      </trkpt>
      <trkpt lat="47.986006" lon="0.163862">
        <ele>58.385229</ele>
        <time>2025-06-25T22:40:35.043Z</time>
      </trkpt>
      <trkpt lat="47.986078" lon="0.164032">
        <ele>58.127891</ele>
        <time>2025-06-25T22:40:36.425Z</time>
      </trkpt>
      <trkpt lat="47.986463" lon="0.164809">
        <ele>56.812882</ele>
        <time>2025-06-25T22:40:43.085Z</time>
      </trkpt>
      <trkpt lat="47.986852" lon="0.165422">
        <ele>55.663862</ele>
        <time>2025-06-25T22:40:49.420Z</time>
      </trkpt>
      <trkpt lat="47.986903" lon="0.165495">
        <ele>55.520326</ele>
        <time>2025-06-25T22:40:50.225Z</time>
      </trkpt>
      <trkpt lat="47.987074" lon="0.165742">
        <ele>55.036952</ele>
        <time>2025-06-25T22:40:53.011Z</time>
      </trkpt>
      <trkpt lat="47.987316" lon="0.166027">
        <ele>54.578603</ele>
        <time>2025-06-25T22:40:56.696Z</time>
      </trkpt>
      <trkpt lat="47.987547" lon="0.166255">
        <ele>54.380819</ele>
        <time>2025-06-25T22:41:00.103Z</time>
      </trkpt>
      <trkpt lat="47.987836" lon="0.166444">
        <ele>54.155447</ele>
        <time>2025-06-25T22:41:04.060Z</time>
      </trkpt>
      <trkpt lat="47.987998" lon="0.166529">
        <ele>54.032786</ele>
        <time>2025-06-25T22:41:06.312Z</time>
      </trkpt>
      <trkpt lat="47.988255" lon="0.166678">
        <ele>53.835848</ele>
        <time>2025-06-25T22:41:10.019Z</time>
      </trkpt>
      <trkpt lat="47.989384" lon="0.167359">
        <ele>52.870962</ele>
        <time>2025-06-25T22:41:26.174Z</time>
      </trkpt>
      <trkpt lat="47.989699" lon="0.167634">
        <ele>52.551128</ele>
        <time>2025-06-25T22:41:30.884Z</time>
      </trkpt>
      <trkpt lat="47.989829" lon="0.167789">
        <ele>52.405323</ele>
        <time>2025-06-25T22:41:32.976Z</time>
      </trkpt>
      <trkpt lat="47.989917" lon="0.167950">
        <ele>52.283360</ele>
        <time>2025-06-25T22:41:34.684Z</time>
      </trkpt>
      <trkpt lat="47.990043" lon="0.168234">
        <ele>52.083443</ele>
        <time>2025-06-25T22:41:37.438Z</time>
      </trkpt>
      <trkpt lat="47.990108" lon="0.168381">
        <ele>51.980070</ele>
        <time>2025-06-25T22:41:38.833Z</time>
      </trkpt>
      <trkpt lat="47.990322" lon="0.168860">
        <ele>51.561618</ele>
        <time>2025-06-25T22:41:43.259Z</time>
      </trkpt>
      <trkpt lat="47.990647" lon="0.169594">
        <ele>50.794195</ele>
        <time>2025-06-25T22:41:49.904Z</time>
      </trkpt>
      <trkpt lat="47.990971" lon="0.170357">
        <ele>50.006262</ele>
        <time>2025-06-25T22:41:57.061Z</time>
      </trkpt>
      <trkpt lat="47.991642" lon="0.171940">
        <ele>48.810527</ele>
        <time>2025-06-25T22:42:12.599Z</time>
      </trkpt>
      <trkpt lat="47.991915" lon="0.172509">
        <ele>48.444998</ele>
        <time>2025-06-25T22:42:18.622Z</time>
      </trkpt>
      <trkpt lat="47.991972" lon="0.172630">
        <ele>48.367744</ele>
        <time>2025-06-25T22:42:19.935Z</time>
      </trkpt>
      <trkpt lat="47.992168" lon="0.173029">
        <ele>48.109334</ele>
        <time>2025-06-25T22:42:24.217Z</time>
      </trkpt>
      <trkpt lat="47.992290" lon="0.173271">
        <ele>48.003178</ele>
        <time>2025-06-25T22:42:26.761Z</time>
      </trkpt>
      <trkpt lat="47.992343" lon="0.173377">
        <ele>47.966757</ele>
        <time>2025-06-25T22:42:27.868Z</time>
      </trkpt>
      <trkpt lat="47.992646" lon="0.173908">
        <ele>47.774681</ele>
        <time>2025-06-25T22:42:33.874Z</time>
      </trkpt>
      <trkpt lat="47.992718" lon="0.174032">
        <ele>47.729493</ele>
        <time>2025-06-25T22:42:35.376Z</time>
      </trkpt>
      <trkpt lat="47.992728" lon="0.174050">
        <ele>47.723054</ele>
        <time>2025-06-25T22:42:35.598Z</time>
      </trkpt>
      <trkpt lat="47.992791" lon="0.174158">
        <ele>47.683619</ele>
        <time>2025-06-25T22:42:36.922Z</time>
      </trkpt>
      <trkpt lat="47.993155" lon="0.174786">
        <ele>47.454941</ele>
        <time>2025-06-25T22:42:44.858Z</time>
      </trkpt>
      <trkpt lat="47.993344" lon="0.175066">
        <ele>47.345476</ele>
        <time>2025-06-25T22:42:48.532Z</time>
      </trkpt>
      <trkpt lat="47.993493" lon="0.175288">
        <ele>47.291738</ele>
        <time>2025-06-25T22:42:51.353Z</time>
      </trkpt>
      <trkpt lat="47.994164" lon="0.176189">
        <ele>47.115500</ele>
        <time>2025-06-25T22:43:04.146Z</time>
      </trkpt>
      <trkpt lat="47.994384" lon="0.176481">
        <ele>47.058014</ele>
        <time>2025-06-25T22:43:08.286Z</time>
      </trkpt>
      <trkpt lat="47.994738" lon="0.176926">
        <ele>46.965948</ele>
        <time>2025-06-25T22:43:14.878Z</time>
      </trkpt>
      <trkpt lat="47.994794" lon="0.177005">
        <ele>46.940250</ele>
        <time>2025-06-25T22:43:15.982Z</time>
      </trkpt>
      <trkpt lat="47.995328" lon="0.177692">
        <ele>46.705120</ele>
        <time>2025-06-25T22:43:26.204Z</time>
      </trkpt>
      <trkpt lat="47.995776" lon="0.178266">
        <ele>46.508202</ele>
        <time>2025-06-25T22:43:34.300Z</time>
      </trkpt>
      <trkpt lat="47.996266" lon="0.178901">
        <ele>46.209924</ele>
        <time>2025-06-25T22:43:42.645Z</time>
      </trkpt>
      <trkpt lat="47.996524" lon="0.179248">
        <ele>45.972656</ele>
        <time>2025-06-25T22:43:46.889Z</time>
      </trkpt>
      <trkpt lat="47.996715" lon="0.179512">
        <ele>45.794811</ele>
        <time>2025-06-25T22:43:50.066Z</time>
      </trkpt>
      <trkpt lat="47.996751" lon="0.179561">
        <ele>45.761525</ele>
        <time>2025-06-25T22:43:50.667Z</time>
      </trkpt>
      <trkpt lat="47.997068" lon="0.180027">
        <ele>45.457568</ele>
        <time>2025-06-25T22:43:56.245Z</time>
      </trkpt>
      <trkpt lat="47.997360" lon="0.180414">
        <ele>45.190780</ele>
        <time>2025-06-25T22:44:01.243Z</time>
      </trkpt>
      <trkpt lat="47.997507" lon="0.180552">
        <ele>45.193695</ele>
        <time>2025-06-25T22:44:03.573Z</time>
      </trkpt>
      <trkpt lat="47.998180" lon="0.181030">
        <ele>45.591760</ele>
        <time>2025-06-25T22:44:15.962Z</time>
      </trkpt>
      <trkpt lat="47.998644" lon="0.181368">
        <ele>45.867514</ele>
        <time>2025-06-25T22:44:25.811Z</time>
      </trkpt>
      <trkpt lat="47.998901" lon="0.181556">
        <ele>46.020372</ele>
        <time>2025-06-25T22:44:30.971Z</time>
      </trkpt>
      <trkpt lat="47.999047" lon="0.181663">
        <ele>46.104936</ele>
        <time>2025-06-25T22:44:33.818Z</time>
      </trkpt>
      <trkpt lat="47.999221" lon="0.181800">
        <ele>46.169802</ele>
        <time>2025-06-25T22:44:37.481Z</time>
      </trkpt>
      <trkpt lat="47.999516" lon="0.182075">
        <ele>46.284474</ele>
        <time>2025-06-25T22:44:43.678Z</time>
      </trkpt>
      <trkpt lat="47.999555" lon="0.182114">
        <ele>46.299951</ele>
        <time>2025-06-25T22:44:44.461Z</time>
      </trkpt>
      <trkpt lat="47.999766" lon="0.182331">
        <ele>46.384428</ele>
        <time>2025-06-25T22:44:48.743Z</time>
      </trkpt>
      <trkpt lat="47.999847" lon="0.182411">
        <ele>46.416450</ele>
        <time>2025-06-25T22:44:50.190Z</time>
      </trkpt>
      <trkpt lat="47.999933" lon="0.182496">
        <ele>46.450456</ele>
        <time>2025-06-25T22:44:51.724Z</time>
      </trkpt>
      <trkpt lat="48.000083" lon="0.182646">
        <ele>46.509983</ele>
        <time>2025-06-25T22:44:54.254Z</time>
      </trkpt>
      <trkpt lat="48.000146" lon="0.182711">
        <ele>46.535232</ele>
        <time>2025-06-25T22:44:55.360Z</time>
      </trkpt>
      <trkpt lat="48.000280" lon="0.182847">
        <ele>46.588655</ele>
        <time>2025-06-25T22:44:57.624Z</time>
      </trkpt>
      <trkpt lat="48.000361" lon="0.182929">
        <ele>46.620922</ele>
        <time>2025-06-25T22:44:58.961Z</time>
      </trkpt>
      <trkpt lat="48.000698" lon="0.183287">
        <ele>46.774782</ele>
        <time>2025-06-25T22:45:05.169Z</time>
      </trkpt>
      <trkpt lat="48.000809" lon="0.183405">
        <ele>46.832212</ele>
        <time>2025-06-25T22:45:07.437Z</time>
      </trkpt>
      <trkpt lat="48.000893" lon="0.183542">
        <ele>46.884633</ele>
        <time>2025-06-25T22:45:09.560Z</time>
      </trkpt>
      <trkpt lat="48.000958" lon="0.183647">
        <ele>46.924987</ele>
        <time>2025-06-25T22:45:11.138Z</time>
      </trkpt>
      <trkpt lat="48.000996" lon="0.183845">
        <ele>46.983097</ele>
        <time>2025-06-25T22:45:13.358Z</time>
      </trkpt>
      <trkpt lat="48.001036" lon="0.184048">
        <ele>47.042796</ele>
        <time>2025-06-25T22:45:15.655Z</time>
      </trkpt>
      <trkpt lat="48.001034" lon="0.184542">
        <ele>47.182160</ele>
        <time>2025-06-25T22:45:21.250Z</time>
      </trkpt>
      <trkpt lat="48.001052" lon="0.185766">
        <ele>47.445480</ele>
        <time>2025-06-25T22:45:35.711Z</time>
      </trkpt>
      <trkpt lat="48.001067" lon="0.187082">
        <ele>47.409292</ele>
        <time>2025-06-25T22:45:49.917Z</time>
      </trkpt>
      <trkpt lat="48.001083" lon="0.188130">
        <ele>47.380469</ele>
        <time>2025-06-25T22:45:58.681Z</time>
      </trkpt>
      <trkpt lat="48.001093" lon="0.188759">
        <ele>47.609381</ele>
        <time>2025-06-25T22:46:03.984Z</time>
      </trkpt>
      <trkpt lat="48.001095" lon="0.188943">
        <ele>47.683725</ele>
        <time>2025-06-25T22:46:05.753Z</time>
      </trkpt>
      <trkpt lat="48.001096" lon="0.189063">
        <ele>47.732207</ele>
        <time>2025-06-25T22:46:07.198Z</time>
      </trkpt>
      <trkpt lat="48.001112" lon="0.190440">
        <ele>48.288583</ele>
        <time>2025-06-25T22:46:25.072Z</time>
      </trkpt>
      <trkpt lat="48.001114" lon="0.190685">
        <ele>48.387568</ele>
        <time>2025-06-25T22:46:28.049Z</time>
      </trkpt>
      <trkpt lat="48.001118" lon="0.190862">
        <ele>48.459115</ele>
        <time>2025-06-25T22:46:30.101Z</time>
      </trkpt>
      <trkpt lat="48.001073" lon="0.190902">
        <ele>48.579919</ele>
        <time>2025-06-25T22:46:30.935Z</time>
      </trkpt>
      <trkpt lat="48.001057" lon="0.190990">
        <ele>48.743575</ele>
        <time>2025-06-25T22:46:32.021Z</time>
      </trkpt>
      <trkpt lat="48.001091" lon="0.191067">
        <ele>48.909141</ele>
        <time>2025-06-25T22:46:33.003Z</time>
      </trkpt>
      <trkpt lat="48.001137" lon="0.191083">
        <ele>49.035816</ele>
        <time>2025-06-25T22:46:33.887Z</time>
      </trkpt>
      <trkpt lat="48.001178" lon="0.191057">
        <ele>49.155273</ele>
        <time>2025-06-25T22:46:34.742Z</time>
      </trkpt>
      <trkpt lat="48.001255" lon="0.191078">
        <ele>49.365207</ele>
        <time>2025-06-25T22:46:36.385Z</time>
      </trkpt>
      <trkpt lat="48.002007" lon="0.191249">
        <ele>51.405374</ele>
        <time>2025-06-25T22:46:56.458Z</time>
      </trkpt>
      <trkpt lat="48.002170" lon="0.191287">
        <ele>51.847846</ele>
        <time>2025-06-25T22:47:00.239Z</time>
      </trkpt>
      <trkpt lat="48.002165" lon="0.191378">
        <ele>52.011706</ele>
        <time>2025-06-25T22:47:01.592Z</time>
      </trkpt>
      <trkpt lat="48.002168" lon="0.191486">
        <ele>52.205691</ele>
        <time>2025-06-25T22:47:03.392Z</time>
      </trkpt>
      <trkpt lat="48.002301" lon="0.191960">
        <ele>53.128105</ele>
        <time>2025-06-25T22:47:12.534Z</time>
      </trkpt>
      <trkpt lat="48.002511" lon="0.192707">
        <ele>55.516774</ele>
        <time>2025-06-25T22:47:32.201Z</time>
      </trkpt>
      <trkpt lat="48.002598" lon="0.193110">
        <ele>56.825906</ele>
        <time>2025-06-25T22:47:43.492Z</time>
      </trkpt>
      <trkpt lat="48.002686" lon="0.193304">
        <ele>57.550497</ele>
        <time>2025-06-25T22:47:49.220Z</time>
      </trkpt>
      <trkpt lat="48.002715" lon="0.193404">
        <ele>57.887439</ele>
        <time>2025-06-25T22:47:51.745Z</time>
      </trkpt>
      <trkpt lat="48.002778" lon="0.193627">
        <ele>58.635783</ele>
        <time>2025-06-25T22:47:57.075Z</time>
      </trkpt>
      <trkpt lat="48.002848" lon="0.193874">
        <ele>59.465060</ele>
        <time>2025-06-25T22:48:02.943Z</time>
      </trkpt>
      <trkpt lat="48.002882" lon="0.193993">
        <ele>59.865088</ele>
        <time>2025-06-25T22:48:05.789Z</time>
      </trkpt>
      <trkpt lat="48.002918" lon="0.194118">
        <ele>60.285806</ele>
        <time>2025-06-25T22:48:08.745Z</time>
      </trkpt>
      <trkpt lat="48.003027" lon="0.194504">
        <ele>61.581052</ele>
        <time>2025-06-25T22:48:17.924Z</time>
      </trkpt>
      <trkpt lat="48.003043" lon="0.194561">
        <ele>61.654084</ele>
        <time>2025-06-25T22:48:19.273Z</time>
      </trkpt>
      <trkpt lat="48.003146" lon="0.194920">
        <ele>62.035660</ele>
        <time>2025-06-25T22:48:27.233Z</time>
      </trkpt>
      <trkpt lat="48.003405" lon="0.195833">
        <ele>63.004382</ele>
        <time>2025-06-25T22:48:42.680Z</time>
      </trkpt>
      <trkpt lat="48.003451" lon="0.195995">
        <ele>63.176293</ele>
        <time>2025-06-25T22:48:45.127Z</time>
      </trkpt>
      <trkpt lat="48.003475" lon="0.196074">
        <ele>63.261047</ele>
        <time>2025-06-25T22:48:46.307Z</time>
      </trkpt>
      <trkpt lat="48.004168" lon="0.195905">
        <ele>64.180178</ele>
        <time>2025-06-25T22:48:56.299Z</time>
      </trkpt>
      <trkpt lat="48.004171" lon="0.195903">
        <ele>64.176592</ele>
        <time>2025-06-25T22:48:56.331Z</time>
      </trkpt>
      <trkpt lat="48.004343" lon="0.195798">
        <ele>63.973753</ele>
        <time>2025-06-25T22:48:58.322Z</time>
      </trkpt>
      <trkpt lat="48.004465" lon="0.195734">
        <ele>63.832595</ele>
        <time>2025-06-25T22:49:00.339Z</time>
      </trkpt>
      <trkpt lat="48.005145" lon="0.195304">
        <ele>63.026502</ele>
        <time>2025-06-25T22:49:12.159Z</time>
      </trkpt>
      <trkpt lat="48.005216" lon="0.195289">
        <ele>62.948218</ele>
        <time>2025-06-25T22:49:13.289Z</time>
      </trkpt>
      <trkpt lat="48.005274" lon="0.195330">
        <ele>62.878172</ele>
        <time>2025-06-25T22:49:14.658Z</time>
      </trkpt>
      <trkpt lat="48.005272" lon="0.195735">
        <ele>62.582336</ele>
        <time>2025-06-25T22:49:17.850Z</time>
      </trkpt>
      <trkpt lat="48.005272" lon="0.195889">
        <ele>62.469848</ele>
        <time>2025-06-25T22:49:19.220Z</time>
      </trkpt>
      <trkpt lat="48.005291" lon="0.195945">
        <ele>62.423984</ele>
        <time>2025-06-25T22:49:19.694Z</time>
      </trkpt>
      <trkpt lat="48.005481" lon="0.195723">
        <ele>62.338542</ele>
        <time>2025-06-25T22:49:24.352Z</time>
      </trkpt>
      <trkpt lat="48.005564" lon="0.195625">
        <ele>62.426012</ele>
        <time>2025-06-25T22:49:26.133Z</time>
      </trkpt>
      <trkpt lat="48.005564" lon="0.195625">
        <ele>62.426012</ele>
        <time>2025-06-25T22:49:26.160Z</time>
      </trkpt>
      <trkpt lat="48.005564" lon="0.195625">
        <ele>62.426012</ele>
        <time>2025-06-25T22:49:26.160Z</time>
      </trkpt>
      <trkpt lat="48.006068" lon="0.196317">
        <ele>62.991961</ele>
        <time>2025-06-25T22:49:38.844Z</time>
      </trkpt>
      <trkpt lat="48.006572" lon="0.197009">
        <ele>63.557907</ele>
        <time>2025-06-25T22:49:51.527Z</time>
      </trkpt>
      <trkpt lat="48.006572" lon="0.197009">
        <ele>63.557907</ele>
        <time>2025-06-25T22:49:51.531Z</time>
      </trkpt>
      <trkpt lat="48.007036" lon="0.197645">
        <ele>64.009814</ele>
        <time>2025-06-25T22:50:03.199Z</time>
      </trkpt>
      <trkpt lat="48.007499" lon="0.198282">
        <ele>64.421591</ele>
        <time>2025-06-25T22:50:14.864Z</time>
      </trkpt>
      <trkpt lat="48.007578" lon="0.198514">
        <ele>64.535557</ele>
        <time>2025-06-25T22:50:18.668Z</time>
      </trkpt>
      <trkpt lat="48.007609" lon="0.198632">
        <ele>64.591056</ele>
        <time>2025-06-25T22:50:20.549Z</time>
      </trkpt>
      <trkpt lat="48.007619" lon="0.198748">
        <ele>64.642260</ele>
        <time>2025-06-25T22:50:29.272Z</time>
      </trkpt>
      <trkpt lat="48.007651" lon="0.198784">
        <ele>64.668467</ele>
        <time>2025-06-25T22:50:29.966Z</time>
      </trkpt>
      <trkpt lat="48.007699" lon="0.198837">
        <ele>64.707518</ele>
        <time>2025-06-25T22:50:30.840Z</time>
      </trkpt>
      <trkpt lat="48.007755" lon="0.198735">
        <ele>64.765283</ele>
        <time>2025-06-25T22:50:32.254Z</time>
      </trkpt>
      <trkpt lat="48.007797" lon="0.198718">
        <ele>64.793756</ele>
        <time>2025-06-25T22:50:32.929Z</time>
      </trkpt>
      <trkpt lat="48.007878" lon="0.198861">
        <ele>64.875784</ele>
        <time>2025-06-25T22:50:34.900Z</time>
      </trkpt>
      <trkpt lat="48.007932" lon="0.198954">
        <ele>64.937230</ele>
        <time>2025-06-25T22:50:36.156Z</time>
      </trkpt>
      <trkpt lat="48.008179" lon="0.199407">
        <ele>65.752606</ele>
        <time>2025-06-25T22:50:42.471Z</time>
      </trkpt>
      <trkpt lat="48.008287" lon="0.199250">
        <ele>66.066796</ele>
        <time>2025-06-25T22:50:52.959Z</time>
      </trkpt>
      <trkpt lat="48.008308" lon="0.199217">
        <ele>66.130342</ele>
        <time>2025-06-25T22:50:55.058Z</time>
      </trkpt>
      <trkpt lat="48.008339" lon="0.199174">
        <ele>66.218542</ele>
        <time>2025-06-25T22:50:58.013Z</time>
      </trkpt>
      <trkpt lat="48.008308" lon="0.199217">
        <ele>66.306742</ele>
        <time>2025-06-25T22:51:00.967Z</time>
      </trkpt>
      <trkpt lat="48.008287" lon="0.199250">
        <ele>66.370287</ele>
        <time>2025-06-25T22:51:03.066Z</time>
      </trkpt>
      <trkpt lat="48.008179" lon="0.199407">
        <ele>66.684478</ele>
        <time>2025-06-25T22:51:13.556Z</time>
      </trkpt>
      <trkpt lat="48.008384" lon="0.199717">
        <ele>67.292640</ele>
        <time>2025-06-25T22:51:20.697Z</time>
      </trkpt>
      <trkpt lat="48.008471" lon="0.199850">
        <ele>67.552170</ele>
        <time>2025-06-25T22:51:23.769Z</time>
      </trkpt>
      <trkpt lat="48.008901" lon="0.200503">
        <ele>69.021810</ele>
        <time>2025-06-25T22:51:41.225Z</time>
      </trkpt>
      <trkpt lat="48.008990" lon="0.200639">
        <ele>69.618544</ele>
        <time>2025-06-25T22:51:45.451Z</time>
      </trkpt>
      <trkpt lat="48.009034" lon="0.200707">
        <ele>69.915276</ele>
        <time>2025-06-25T22:51:47.684Z</time>
      </trkpt>
      <trkpt lat="48.009132" lon="0.200856">
        <ele>70.570666</ele>
        <time>2025-06-25T22:51:52.561Z</time>
      </trkpt>
      <trkpt lat="48.009188" lon="0.200944">
        <ele>70.951617</ele>
        <time>2025-06-25T22:51:55.408Z</time>
      </trkpt>
      <trkpt lat="48.009252" lon="0.201042">
        <ele>71.381181</ele>
        <time>2025-06-25T22:51:58.767Z</time>
      </trkpt>
      <trkpt lat="48.009805" lon="0.201857">
        <ele>75.022206</ele>
        <time>2025-06-25T22:52:26.551Z</time>
      </trkpt>
      <trkpt lat="48.010071" lon="0.202253">
        <ele>76.782354</ele>
        <time>2025-06-25T22:52:39.618Z</time>
      </trkpt>
      <trkpt lat="48.010634" lon="0.203129">
        <ele>79.655268</ele>
        <time>2025-06-25T22:53:04.602Z</time>
      </trkpt>
      <trkpt lat="48.010672" lon="0.203199">
        <ele>79.861920</ele>
        <time>2025-06-25T22:53:06.275Z</time>
      </trkpt>
      <trkpt lat="48.010972" lon="0.203638">
        <ele>81.300502</ele>
        <time>2025-06-25T22:53:17.677Z</time>
      </trkpt>
      <trkpt lat="48.011236" lon="0.203878">
        <ele>82.359296</ele>
        <time>2025-06-25T22:53:25.798Z</time>
      </trkpt>
      <trkpt lat="48.011351" lon="0.203990">
        <ele>82.829618</ele>
        <time>2025-06-25T22:53:29.292Z</time>
      </trkpt>
      <trkpt lat="48.011781" lon="0.204574">
        <ele>84.064058</ele>
        <time>2025-06-25T22:53:43.768Z</time>
      </trkpt>
      <trkpt lat="48.011847" lon="0.204710">
        <ele>84.260893</ele>
        <time>2025-06-25T22:53:46.442Z</time>
      </trkpt>
      <trkpt lat="48.011902" lon="0.204874">
        <ele>84.475813</ele>
        <time>2025-06-25T22:53:49.284Z</time>
      </trkpt>
      <trkpt lat="48.011939" lon="0.205010">
        <ele>84.647811</ele>
        <time>2025-06-25T22:53:51.595Z</time>
      </trkpt>
      <trkpt lat="48.011977" lon="0.205113">
        <ele>84.785610</ele>
        <time>2025-06-25T22:53:53.467Z</time>
      </trkpt>
      <trkpt lat="48.012199" lon="0.205713">
        <ele>85.588867</ele>
        <time>2025-06-25T22:54:03.354Z</time>
      </trkpt>
      <trkpt lat="48.012289" lon="0.205957">
        <ele>85.915287</ele>
        <time>2025-06-25T22:54:06.853Z</time>
      </trkpt>
      <trkpt lat="48.012301" lon="0.205984">
        <ele>85.953263</ele>
        <time>2025-06-25T22:54:07.245Z</time>
      </trkpt>
      <trkpt lat="48.012318" lon="0.206055">
        <ele>86.041607</ele>
        <time>2025-06-25T22:54:08.126Z</time>
      </trkpt>
      <trkpt lat="48.012297" lon="0.206083">
        <ele>86.090886</ele>
        <time>2025-06-25T22:54:08.612Z</time>
      </trkpt>
      <trkpt lat="48.012278" lon="0.206091">
        <ele>86.125454</ele>
        <time>2025-06-25T22:54:08.952Z</time>
      </trkpt>
      <trkpt lat="48.012269" lon="0.206101">
        <ele>86.145092</ele>
        <time>2025-06-25T22:54:09.159Z</time>
      </trkpt>
      <trkpt lat="48.012262" lon="0.206216">
        <ele>86.280372</ele>
        <time>2025-06-25T22:54:10.467Z</time>
      </trkpt>
      <trkpt lat="48.012275" lon="0.206296">
        <ele>86.376818</ele>
        <time>2025-06-25T22:54:11.390Z</time>
      </trkpt>
      <trkpt lat="48.012044" lon="0.207293">
        <ele>86.941544</ele>
        <time>2025-06-25T22:54:23.618Z</time>
      </trkpt>
      <trkpt lat="48.011915" lon="0.207943">
        <ele>87.287579</ele>
        <time>2025-06-25T22:54:31.313Z</time>
      </trkpt>
      <trkpt lat="48.011891" lon="0.208103">
        <ele>87.371267</ele>
        <time>2025-06-25T22:54:33.218Z</time>
      </trkpt>
      <trkpt lat="48.011801" lon="0.209070">
        <ele>87.902497</ele>
        <time>2025-06-25T22:54:45.080Z</time>
      </trkpt>
      <trkpt lat="48.011740" lon="0.210116">
        <ele>88.676803</ele>
        <time>2025-06-25T22:54:59.254Z</time>
      </trkpt>
      <trkpt lat="48.011854" lon="0.211498">
        <ele>89.703689</ele>
        <time>2025-06-25T22:55:17.364Z</time>
      </trkpt>
      <trkpt lat="48.011904" lon="0.211958">
        <ele>90.144610</ele>
        <time>2025-06-25T22:55:23.378Z</time>
      </trkpt>
      <trkpt lat="48.011942" lon="0.212286">
        <ele>90.478809</ele>
        <time>2025-06-25T22:55:27.095Z</time>
      </trkpt>
      <trkpt lat="48.011968" lon="0.212514">
        <ele>90.711013</ele>
        <time>2025-06-25T22:55:29.686Z</time>
      </trkpt>
      <trkpt lat="48.012021" lon="0.212818">
        <ele>91.026409</ele>
        <time>2025-06-25T22:55:33.442Z</time>
      </trkpt>
      <trkpt lat="48.012064" lon="0.213033">
        <ele>91.251699</ele>
        <time>2025-06-25T22:55:36.309Z</time>
      </trkpt>
      <trkpt lat="48.012128" lon="0.213353">
        <ele>91.587014</ele>
        <time>2025-06-25T22:55:40.993Z</time>
      </trkpt>
      <trkpt lat="48.012166" lon="0.213541">
        <ele>91.784185</ele>
        <time>2025-06-25T22:55:43.877Z</time>
      </trkpt>
      <trkpt lat="48.012274" lon="0.213862">
        <ele>92.144915</ele>
        <time>2025-06-25T22:55:49.513Z</time>
      </trkpt>
      <trkpt lat="48.012534" lon="0.214424">
        <ele>93.158249</ele>
        <time>2025-06-25T22:56:01.504Z</time>
      </trkpt>
      <trkpt lat="48.012664" lon="0.214700">
        <ele>93.811069</ele>
        <time>2025-06-25T22:56:07.398Z</time>
      </trkpt>
      <trkpt lat="48.012787" lon="0.215073">
        <ele>94.615330</ele>
        <time>2025-06-25T22:56:14.774Z</time>
      </trkpt>
      <trkpt lat="48.012958" lon="0.215722">
        <ele>95.964335</ele>
        <time>2025-06-25T22:56:28.720Z</time>
      </trkpt>
      <trkpt lat="48.013103" lon="0.216349">
        <ele>97.247354</ele>
        <time>2025-06-25T22:56:40.769Z</time>
      </trkpt>
      <trkpt lat="48.013158" lon="0.216604">
        <ele>97.713083</ele>
        <time>2025-06-25T22:56:45.068Z</time>
      </trkpt>
      <trkpt lat="48.013186" lon="0.216733">
        <ele>97.819156</ele>
        <time>2025-06-25T22:56:47.172Z</time>
      </trkpt>
      <trkpt lat="48.013311" lon="0.217311">
        <ele>98.294263</ele>
        <time>2025-06-25T22:56:55.942Z</time>
      </trkpt>
      <trkpt lat="48.013372" lon="0.217818">
        <ele>98.697164</ele>
        <time>2025-06-25T22:57:03.003Z</time>
      </trkpt>
      <trkpt lat="48.013411" lon="0.218010">
        <ele>98.854103</ele>
        <time>2025-06-25T22:57:05.765Z</time>
      </trkpt>
      <trkpt lat="48.013467" lon="0.218232">
        <ele>99.039669</ele>
        <time>2025-06-25T22:57:08.876Z</time>
      </trkpt>
      <trkpt lat="48.013768" lon="0.219377">
        <ele>99.756499</ele>
        <time>2025-06-25T22:57:21.680Z</time>
      </trkpt>
      <trkpt lat="48.013871" lon="0.219762">
        <ele>99.721491</ele>
        <time>2025-06-25T22:57:25.419Z</time>
      </trkpt>
      <trkpt lat="48.013899" lon="0.219865">
        <ele>99.712105</ele>
        <time>2025-06-25T22:57:26.385Z</time>
      </trkpt>
      <trkpt lat="48.014009" lon="0.220248">
        <ele>99.676915</ele>
        <time>2025-06-25T22:57:30.067Z</time>
      </trkpt>
      <trkpt lat="48.014357" lon="0.221498">
        <ele>99.562607</ele>
        <time>2025-06-25T22:57:42.767Z</time>
      </trkpt>
      <trkpt lat="48.014410" lon="0.221644">
        <ele>99.583503</ele>
        <time>2025-06-25T22:57:44.547Z</time>
      </trkpt>
      <trkpt lat="48.014633" lon="0.222715">
        <ele>100.175117</ele>
        <time>2025-06-25T22:57:57.206Z</time>
      </trkpt>
      <trkpt lat="48.014746" lon="0.223290">
        <ele>100.491207</ele>
        <time>2025-06-25T22:58:04.727Z</time>
      </trkpt>
      <trkpt lat="48.014788" lon="0.223532">
        <ele>100.623072</ele>
        <time>2025-06-25T22:58:07.884Z</time>
      </trkpt>
      <trkpt lat="48.014874" lon="0.223987">
        <ele>100.872449</ele>
        <time>2025-06-25T22:58:13.817Z</time>
      </trkpt>
      <trkpt lat="48.014920" lon="0.224244">
        <ele>101.057541</ele>
        <time>2025-06-25T22:58:17.263Z</time>
      </trkpt>
      <trkpt lat="48.015137" lon="0.225447">
        <ele>102.428763</ele>
        <time>2025-06-25T22:58:35.150Z</time>
      </trkpt>
      <trkpt lat="48.015184" lon="0.225716">
        <ele>102.734735</ele>
        <time>2025-06-25T22:58:39.341Z</time>
      </trkpt>
      <trkpt lat="48.015317" lon="0.226765">
        <ele>103.909734</ele>
        <time>2025-06-25T22:58:55.295Z</time>
      </trkpt>
      <trkpt lat="48.015367" lon="0.227397">
        <ele>104.336828</ele>
        <time>2025-06-25T22:59:04.605Z</time>
      </trkpt>
      <trkpt lat="48.015401" lon="0.227727">
        <ele>104.556486</ele>
        <time>2025-06-25T22:59:09.139Z</time>
      </trkpt>
      <trkpt lat="48.015436" lon="0.228124">
        <ele>104.819920</ele>
        <time>2025-06-25T22:59:14.091Z</time>
      </trkpt>
      <trkpt lat="48.015522" lon="0.229087">
        <ele>105.459071</ele>
        <time>2025-06-25T22:59:24.611Z</time>
      </trkpt>
      <trkpt lat="48.015543" lon="0.229332">
        <ele>105.621567</ele>
        <time>2025-06-25T22:59:27.266Z</time>
      </trkpt>
      <trkpt lat="48.015591" lon="0.229872">
        <ele>105.916860</ele>
        <time>2025-06-25T22:59:33.567Z</time>
      </trkpt>
      <trkpt lat="48.015596" lon="0.230232">
        <ele>106.100446</ele>
        <time>2025-06-25T22:59:37.972Z</time>
      </trkpt>
      <trkpt lat="48.015625" lon="0.230515">
        <ele>106.246418</ele>
        <time>2025-06-25T22:59:41.482Z</time>
      </trkpt>
      <trkpt lat="48.015635" lon="0.230620">
        <ele>106.300492</ele>
        <time>2025-06-25T22:59:42.745Z</time>
      </trkpt>
      <trkpt lat="48.015620" lon="0.230651">
        <ele>106.319999</ele>
        <time>2025-06-25T22:59:43.243Z</time>
      </trkpt>
      <trkpt lat="48.015625" lon="0.230749">
        <ele>106.370110</ele>
        <time>2025-06-25T22:59:44.420Z</time>
      </trkpt>
      <trkpt lat="48.015654" lon="0.230787">
        <ele>106.399503</ele>
        <time>2025-06-25T22:59:45.081Z</time>
      </trkpt>
      <trkpt lat="48.015663" lon="0.230871">
        <ele>106.442876</ele>
        <time>2025-06-25T22:59:46.142Z</time>
      </trkpt>
      <trkpt lat="48.015727" lon="0.231255">
        <ele>106.644644</ele>
        <time>2025-06-25T22:59:50.875Z</time>
      </trkpt>
      <trkpt lat="48.015759" lon="0.231717">
        <ele>106.881455</ele>
        <time>2025-06-25T22:59:56.552Z</time>
      </trkpt>
      <trkpt lat="48.015793" lon="0.232142">
        <ele>107.092598</ele>
        <time>2025-06-25T23:00:01.890Z</time>
      </trkpt>
      <trkpt lat="48.015882" lon="0.233061">
        <ele>107.451098</ele>
        <time>2025-06-25T23:00:13.319Z</time>
      </trkpt>
      <trkpt lat="48.015907" lon="0.233330">
        <ele>107.555948</ele>
        <time>2025-06-25T23:00:16.259Z</time>
      </trkpt>
      <trkpt lat="48.015970" lon="0.234194">
        <ele>107.891490</ele>
        <time>2025-06-25T23:00:25.624Z</time>
      </trkpt>
      <trkpt lat="48.015974" lon="0.234425">
        <ele>107.980703</ele>
        <time>2025-06-25T23:00:28.303Z</time>
      </trkpt>
      <trkpt lat="48.015949" lon="0.235049">
        <ele>108.116725</ele>
        <time>2025-06-25T23:00:35.752Z</time>
      </trkpt>
      <trkpt lat="48.015867" lon="0.236321">
        <ele>108.152125</ele>
        <time>2025-06-25T23:00:48.747Z</time>
      </trkpt>
      <trkpt lat="48.015862" lon="0.236396">
        <ele>108.154213</ele>
        <time>2025-06-25T23:00:49.479Z</time>
      </trkpt>
      <trkpt lat="48.015826" lon="0.237002">
        <ele>108.171066</ele>
        <time>2025-06-25T23:00:55.291Z</time>
      </trkpt>
      <trkpt lat="48.015830" lon="0.237793">
        <ele>108.129204</ele>
        <time>2025-06-25T23:01:02.537Z</time>
      </trkpt>
      <trkpt lat="48.015837" lon="0.238393">
        <ele>108.038836</ele>
        <time>2025-06-25T23:01:07.772Z</time>
      </trkpt>
      <trkpt lat="48.015815" lon="0.238594">
        <ele>108.008165</ele>
        <time>2025-06-25T23:01:09.564Z</time>
      </trkpt>
      <trkpt lat="48.015766" lon="0.238722">
        <ele>107.985956</ele>
        <time>2025-06-25T23:01:10.854Z</time>
      </trkpt>
      <trkpt lat="48.015780" lon="0.238893">
        <ele>107.960013</ele>
        <time>2025-06-25T23:01:12.339Z</time>
      </trkpt>
      <trkpt lat="48.015815" lon="0.238962">
        <ele>107.946973</ele>
        <time>2025-06-25T23:01:13.077Z</time>
      </trkpt>
      <trkpt lat="48.015901" lon="0.239028">
        <ele>107.925210</ele>
        <time>2025-06-25T23:01:14.282Z</time>
      </trkpt>
      <trkpt lat="48.016155" lon="0.239807">
        <ele>107.794706</ele>
        <time>2025-06-25T23:01:22.778Z</time>
      </trkpt>
      <trkpt lat="48.016380" lon="0.240524">
        <ele>108.086668</ele>
        <time>2025-06-25T23:01:32.070Z</time>
      </trkpt>
      <trkpt lat="48.016463" lon="0.240786">
        <ele>108.217797</ele>
        <time>2025-06-25T23:01:35.502Z</time>
      </trkpt>
      <trkpt lat="48.016412" lon="0.240863">
        <ele>108.266811</ele>
        <time>2025-06-25T23:01:36.807Z</time>
      </trkpt>
      <trkpt lat="48.016406" lon="0.241023">
        <ele>108.339297</ele>
        <time>2025-06-25T23:01:38.747Z</time>
      </trkpt>
      <trkpt lat="48.016456" lon="0.241112">
        <ele>108.391868</ele>
        <time>2025-06-25T23:01:40.151Z</time>
      </trkpt>
      <trkpt lat="48.016570" lon="0.241127">
        <ele>108.469254</ele>
        <time>2025-06-25T23:01:42.250Z</time>
      </trkpt>
      <trkpt lat="48.016621" lon="0.241254">
        <ele>108.536256</ele>
        <time>2025-06-25T23:01:44.052Z</time>
      </trkpt>
      <trkpt lat="48.016736" lon="0.241581">
        <ele>108.703363</ele>
        <time>2025-06-25T23:01:48.789Z</time>
      </trkpt>
      <trkpt lat="48.017175" lon="0.242677">
        <ele>109.016009</ele>
        <time>2025-06-25T23:02:04.168Z</time>
      </trkpt>
      <trkpt lat="48.017316" lon="0.242562">
        <ele>109.024189</ele>
        <time>2025-06-25T23:02:06.548Z</time>
      </trkpt>
      <trkpt lat="48.017425" lon="0.242555">
        <ele>109.029746</ele>
        <time>2025-06-25T23:02:08.105Z</time>
      </trkpt>
      <trkpt lat="48.017631" lon="0.242697">
        <ele>109.041299</ele>
        <time>2025-06-25T23:02:11.289Z</time>
      </trkpt>
      <trkpt lat="48.017945" lon="0.242997">
        <ele>109.060278</ele>
        <time>2025-06-25T23:02:16.434Z</time>
      </trkpt>
      <trkpt lat="48.018394" lon="0.243473">
        <ele>109.081359</ele>
        <time>2025-06-25T23:02:23.973Z</time>
      </trkpt>
      <trkpt lat="48.018413" lon="0.243495">
        <ele>109.078878</ele>
        <time>2025-06-25T23:02:24.319Z</time>
      </trkpt>
      <trkpt lat="48.019459" lon="0.244720">
        <ele>108.941730</ele>
        <time>2025-06-25T23:02:43.796Z</time>
      </trkpt>
      <trkpt lat="48.019916" lon="0.245312">
        <ele>108.845179</ele>
        <time>2025-06-25T23:02:52.291Z</time>
      </trkpt>
      <trkpt lat="48.020703" lon="0.246701">
        <ele>108.515655</ele>
        <time>2025-06-25T23:03:09.172Z</time>
      </trkpt>
      <trkpt lat="48.021087" lon="0.246446">
        <ele>108.396386</ele>
        <time>2025-06-25T23:03:14.942Z</time>
      </trkpt>
      <trkpt lat="48.021544" lon="0.246200">
        <ele>108.202212</ele>
        <time>2025-06-25T23:03:21.725Z</time>
      </trkpt>
      <trkpt lat="48.022590" lon="0.245900">
        <ele>107.776430</ele>
        <time>2025-06-25T23:03:36.043Z</time>
      </trkpt>
      <trkpt lat="48.022776" lon="0.245901">
        <ele>107.702073</ele>
        <time>2025-06-25T23:03:38.497Z</time>
      </trkpt>
      <trkpt lat="48.023171" lon="0.246002">
        <ele>107.535227</ele>
        <time>2025-06-25T23:03:43.727Z</time>
      </trkpt>
      <trkpt lat="48.024711" lon="0.246702">
        <ele>106.934037</ele>
        <time>2025-06-25T23:04:05.250Z</time>
      </trkpt>
      <trkpt lat="48.024995" lon="0.246858">
        <ele>106.918082</ele>
        <time>2025-06-25T23:04:09.806Z</time>
      </trkpt>
      <trkpt lat="48.024999" lon="0.246862">
        <ele>106.917828</ele>
        <time>2025-06-25T23:04:09.876Z</time>
      </trkpt>
      <trkpt lat="48.025464" lon="0.247248">
        <ele>106.889780</ele>
        <time>2025-06-25T23:04:18.047Z</time>
      </trkpt>
      <trkpt lat="48.025630" lon="0.247339">
        <ele>106.880456</ele>
        <time>2025-06-25T23:04:20.828Z</time>
      </trkpt>
      <trkpt lat="48.025789" lon="0.247359">
        <ele>106.872042</ele>
        <time>2025-06-25T23:04:23.342Z</time>
      </trkpt>
      <trkpt lat="48.025927" lon="0.247317">
        <ele>106.864615</ele>
        <time>2025-06-25T23:04:25.533Z</time>
      </trkpt>
      <trkpt lat="48.025948" lon="0.247467">
        <ele>106.859210</ele>
        <time>2025-06-25T23:04:27.084Z</time>
      </trkpt>
      <trkpt lat="48.025979" lon="0.247618">
        <ele>106.853639</ele>
        <time>2025-06-25T23:04:28.663Z</time>
      </trkpt>
      <trkpt lat="48.026233" lon="0.248310">
        <ele>106.801720</ele>
        <time>2025-06-25T23:04:36.097Z</time>
      </trkpt>
      <trkpt lat="48.026760" lon="0.249685">
        <ele>106.688693</ele>
        <time>2025-06-25T23:04:50.719Z</time>
      </trkpt>
      <trkpt lat="48.026997" lon="0.250391">
        <ele>106.760611</ele>
        <time>2025-06-25T23:04:58.866Z</time>
      </trkpt>
      <trkpt lat="48.027302" lon="0.251487">
        <ele>107.106984</ele>
        <time>2025-06-25T23:05:12.763Z</time>
      </trkpt>
      <trkpt lat="48.027525" lon="0.252475">
        <ele>107.411238</ele>
        <time>2025-06-25T23:05:25.341Z</time>
      </trkpt>
      <trkpt lat="48.027735" lon="0.253563">
        <ele>106.216206</ele>
        <time>2025-06-25T23:05:35.888Z</time>
      </trkpt>
      <trkpt lat="48.027923" lon="0.254836">
        <ele>104.658374</ele>
        <time>2025-06-25T23:05:45.271Z</time>
      </trkpt>
      <trkpt lat="48.027916" lon="0.255897">
        <ele>101.805091</ele>
        <time>2025-06-25T23:05:52.160Z</time>
      </trkpt>
      <trkpt lat="48.027856" lon="0.255963">
        <ele>101.420204</ele>
        <time>2025-06-25T23:05:52.862Z</time>
      </trkpt>
      <trkpt lat="48.027958" lon="0.256923">
        <ele>98.061160</ele>
        <time>2025-06-25T23:05:58.885Z</time>
      </trkpt>
      <trkpt lat="48.028064" lon="0.257632">
        <ele>95.550623</ele>
        <time>2025-06-25T23:06:03.317Z</time>
      </trkpt>
      <trkpt lat="48.028572" lon="0.259630">
        <ele>89.346216</ele>
        <time>2025-06-25T23:06:16.479Z</time>
      </trkpt>
      <trkpt lat="48.028862" lon="0.260331">
        <ele>87.508587</ele>
        <time>2025-06-25T23:06:22.520Z</time>
      </trkpt>
      <trkpt lat="48.029333" lon="0.261218">
        <ele>90.464515</ele>
        <time>2025-06-25T23:06:41.029Z</time>
      </trkpt>
      <trkpt lat="48.029575" lon="0.261595">
        <ele>91.828329</ele>
        <time>2025-06-25T23:06:53.934Z</time>
      </trkpt>
      <trkpt lat="48.029766" lon="0.261825">
        <ele>92.785361</ele>
        <time>2025-06-25T23:07:04.120Z</time>
      </trkpt>
      <trkpt lat="48.030442" lon="0.262669">
        <ele>96.994300</ele>
        <time>2025-06-25T23:07:43.009Z</time>
      </trkpt>
      <trkpt lat="48.030529" lon="0.262817">
        <ele>97.713288</ele>
        <time>2025-06-25T23:07:48.660Z</time>
      </trkpt>
      <trkpt lat="48.030587" lon="0.262984">
        <ele>98.399903</ele>
        <time>2025-06-25T23:07:53.876Z</time>
      </trkpt>
      <trkpt lat="48.030630" lon="0.263211">
        <ele>99.260753</ele>
        <time>2025-06-25T23:08:00.209Z</time>
      </trkpt>
      <trkpt lat="48.030650" lon="0.263467">
        <ele>100.201181</ele>
        <time>2025-06-25T23:08:06.960Z</time>
      </trkpt>
      <trkpt lat="48.030644" lon="0.264165">
        <ele>102.748205</ele>
        <time>2025-06-25T23:08:23.872Z</time>
      </trkpt>
      <trkpt lat="48.030642" lon="0.265134">
        <ele>102.556715</ele>
        <time>2025-06-25T23:08:39.223Z</time>
      </trkpt>
      <trkpt lat="48.030660" lon="0.265533">
        <ele>101.529793</ele>
        <time>2025-06-25T23:08:42.420Z</time>
      </trkpt>
      <trkpt lat="48.030704" lon="0.265861">
        <ele>100.670742</ele>
        <time>2025-06-25T23:08:44.726Z</time>
      </trkpt>
      <trkpt lat="48.031863" lon="0.269514">
        <ele>82.896062</ele>
        <time>2025-06-25T23:09:08.509Z</time>
      </trkpt>
      <trkpt lat="48.032156" lon="0.270554">
        <ele>79.667200</ele>
        <time>2025-06-25T23:09:15.490Z</time>
      </trkpt>
      <trkpt lat="48.032259" lon="0.271182">
        <ele>77.820033</ele>
        <time>2025-06-25T23:09:19.831Z</time>
      </trkpt>
      <trkpt lat="48.032264" lon="0.271514">
        <ele>76.871375</ele>
        <time>2025-06-25T23:09:22.176Z</time>
      </trkpt>
      <trkpt lat="48.032129" lon="0.272822">
        <ele>74.302411</ele>
        <time>2025-06-25T23:09:31.786Z</time>
      </trkpt>
      <trkpt lat="48.032094" lon="0.273176">
        <ele>73.866972</ele>
        <time>2025-06-25T23:09:34.434Z</time>
      </trkpt>
      <trkpt lat="48.032112" lon="0.273523">
        <ele>73.443466</ele>
        <time>2025-06-25T23:09:37.022Z</time>
      </trkpt>
      <trkpt lat="48.032193" lon="0.273767">
        <ele>73.111989</ele>
        <time>2025-06-25T23:09:39.064Z</time>
      </trkpt>
      <trkpt lat="48.032419" lon="0.274273">
        <ele>72.371572</ele>
        <time>2025-06-25T23:09:43.632Z</time>
      </trkpt>
      <trkpt lat="48.032728" lon="0.274946">
        <ele>71.695787</ele>
        <time>2025-06-25T23:09:49.966Z</time>
      </trkpt>
      <trkpt lat="48.032945" lon="0.275497">
        <ele>71.366561</ele>
        <time>2025-06-25T23:09:55.269Z</time>
      </trkpt>
      <trkpt lat="48.033033" lon="0.275776">
        <ele>71.207741</ele>
        <time>2025-06-25T23:09:57.959Z</time>
      </trkpt>
      <trkpt lat="48.033162" lon="0.276385">
        <ele>70.878843</ele>
        <time>2025-06-25T23:10:03.628Z</time>
      </trkpt>
      <trkpt lat="48.033264" lon="0.276971">
        <ele>70.567089</ele>
        <time>2025-06-25T23:10:09.092Z</time>
      </trkpt>
      <trkpt lat="48.033379" lon="0.277651">
        <ele>70.259644</ele>
        <time>2025-06-25T23:10:15.580Z</time>
      </trkpt>
      <trkpt lat="48.033482" lon="0.278082">
        <ele>70.061429</ele>
        <time>2025-06-25T23:10:19.780Z</time>
      </trkpt>
      <trkpt lat="48.033692" lon="0.278784">
        <ele>69.728379</ele>
        <time>2025-06-25T23:10:26.773Z</time>
      </trkpt>
      <trkpt lat="48.034143" lon="0.280275">
        <ele>67.945815</ele>
        <time>2025-06-25T23:10:39.866Z</time>
      </trkpt>
      <trkpt lat="48.034342" lon="0.280857">
        <ele>66.816771</ele>
        <time>2025-06-25T23:10:44.436Z</time>
      </trkpt>
      <trkpt lat="48.034520" lon="0.281297">
        <ele>65.928536</ele>
        <time>2025-06-25T23:10:47.851Z</time>
      </trkpt>
      <trkpt lat="48.034911" lon="0.282058">
        <ele>64.374248</ele>
        <time>2025-06-25T23:10:54.204Z</time>
      </trkpt>
      <trkpt lat="48.034942" lon="0.282177">
        <ele>64.202978</ele>
        <time>2025-06-25T23:10:55.056Z</time>
      </trkpt>
      <trkpt lat="48.035051" lon="0.282269">
        <ele>63.951960</ele>
        <time>2025-06-25T23:10:56.309Z</time>
      </trkpt>
      <trkpt lat="48.035244" lon="0.282515">
        <ele>63.443376</ele>
        <time>2025-06-25T23:10:58.885Z</time>
      </trkpt>
      <trkpt lat="48.035368" lon="0.282713">
        <ele>63.079575</ele>
        <time>2025-06-25T23:11:00.770Z</time>
      </trkpt>
      <trkpt lat="48.035465" lon="0.282906">
        <ele>62.755794</ele>
        <time>2025-06-25T23:11:02.482Z</time>
      </trkpt>
      <trkpt lat="48.035536" lon="0.283172">
        <ele>62.371705</ele>
        <time>2025-06-25T23:11:04.591Z</time>
      </trkpt>
      <trkpt lat="48.035705" lon="0.284403">
        <ele>61.156415</ele>
        <time>2025-06-25T23:11:15.864Z</time>
      </trkpt>
      <trkpt lat="48.036085" lon="0.285803">
        <ele>61.297401</ele>
        <time>2025-06-25T23:11:33.000Z</time>
      </trkpt>
      <trkpt lat="48.036299" lon="0.287039">
        <ele>61.059576</ele>
        <time>2025-06-25T23:11:46.455Z</time>
      </trkpt>
      <trkpt lat="48.036574" lon="0.288895">
        <ele>59.642015</ele>
        <time>2025-06-25T23:12:01.706Z</time>
      </trkpt>
      <trkpt lat="48.036586" lon="0.289517">
        <ele>58.912502</ele>
        <time>2025-06-25T23:12:06.217Z</time>
      </trkpt>
      <trkpt lat="48.036821" lon="0.290662">
        <ele>56.790672</ele>
        <time>2025-06-25T23:12:14.509Z</time>
      </trkpt>
      <trkpt lat="48.036868" lon="0.290871">
        <ele>56.400040</ele>
        <time>2025-06-25T23:12:16.007Z</time>
      </trkpt>
      <trkpt lat="48.037145" lon="0.292001">
        <ele>54.443017</ele>
        <time>2025-06-25T23:12:24.198Z</time>
      </trkpt>
      <trkpt lat="48.037463" lon="0.292928">
        <ele>53.554314</ele>
        <time>2025-06-25T23:12:31.964Z</time>
      </trkpt>
      <trkpt lat="48.037552" lon="0.293183">
        <ele>53.308956</ele>
        <time>2025-06-25T23:12:34.303Z</time>
      </trkpt>
      <trkpt lat="48.037926" lon="0.294069">
        <ele>52.415220</ele>
        <time>2025-06-25T23:12:43.690Z</time>
      </trkpt>
      <trkpt lat="48.038415" lon="0.295010">
        <ele>52.078381</ele>
        <time>2025-06-25T23:12:55.845Z</time>
      </trkpt>
      <trkpt lat="48.038596" lon="0.295359">
        <ele>51.982285</ele>
        <time>2025-06-25T23:12:59.865Z</time>
      </trkpt>
      <trkpt lat="48.038783" lon="0.295738">
        <ele>51.879806</ele>
        <time>2025-06-25T23:13:03.936Z</time>
      </trkpt>
      <trkpt lat="48.039688" lon="0.297918">
        <ele>51.319447</ele>
        <time>2025-06-25T23:13:26.333Z</time>
      </trkpt>
      <trkpt lat="48.040445" lon="0.299839">
        <ele>51.633391</ele>
        <time>2025-06-25T23:13:49.778Z</time>
      </trkpt>
      <trkpt lat="48.040967" lon="0.301237">
        <ele>52.219867</ele>
        <time>2025-06-25T23:14:09.453Z</time>
      </trkpt>
      <trkpt lat="48.041193" lon="0.301842">
        <ele>52.507412</ele>
        <time>2025-06-25T23:14:17.984Z</time>
      </trkpt>
      <trkpt lat="48.041472" lon="0.302764">
        <ele>52.927318</ele>
        <time>2025-06-25T23:14:29.419Z</time>
      </trkpt>
      <trkpt lat="48.041736" lon="0.303829">
        <ele>53.460900</ele>
        <time>2025-06-25T23:14:41.778Z</time>
      </trkpt>
      <trkpt lat="48.042038" lon="0.305205">
        <ele>54.257972</ele>
        <time>2025-06-25T23:14:58.810Z</time>
      </trkpt>
      <trkpt lat="48.042567" lon="0.307907">
        <ele>56.142809</ele>
        <time>2025-06-25T23:15:36.468Z</time>
      </trkpt>
      <trkpt lat="48.042852" lon="0.309321">
        <ele>56.855777</ele>
        <time>2025-06-25T23:15:53.408Z</time>
      </trkpt>
      <trkpt lat="48.042884" lon="0.309477">
        <ele>56.904168</ele>
        <time>2025-06-25T23:15:55.128Z</time>
      </trkpt>
      <trkpt lat="48.043609" lon="0.313060">
        <ele>58.030932</ele>
        <time>2025-06-25T23:16:35.829Z</time>
      </trkpt>
      <trkpt lat="48.043724" lon="0.313631">
        <ele>58.212642</ele>
        <time>2025-06-25T23:16:42.791Z</time>
      </trkpt>
      <trkpt lat="48.043908" lon="0.314184">
        <ele>58.426464</ele>
        <time>2025-06-25T23:16:50.051Z</time>
      </trkpt>
      <trkpt lat="48.044432" lon="0.315718">
        <ele>59.030086</ele>
        <time>2025-06-25T23:17:09.832Z</time>
      </trkpt>
      <trkpt lat="48.044639" lon="0.316995">
        <ele>59.374396</ele>
        <time>2025-06-25T23:17:23.977Z</time>
      </trkpt>
      <trkpt lat="48.044959" lon="0.319296">
        <ele>59.857773</ele>
        <time>2025-06-25T23:17:49.287Z</time>
      </trkpt>
      <trkpt lat="48.045207" lon="0.322192">
        <ele>60.237442</ele>
        <time>2025-06-25T23:18:19.632Z</time>
      </trkpt>
      <trkpt lat="48.045273" lon="0.323068">
        <ele>60.297427</ele>
        <time>2025-06-25T23:18:28.254Z</time>
      </trkpt>
      <trkpt lat="48.045276" lon="0.323392">
        <ele>60.319476</ele>
        <time>2025-06-25T23:18:31.446Z</time>
      </trkpt>
      <trkpt lat="48.045269" lon="0.323779">
        <ele>60.345818</ele>
        <time>2025-06-25T23:18:35.303Z</time>
      </trkpt>
      <trkpt lat="48.045114" lon="0.325124">
        <ele>60.709915</ele>
        <time>2025-06-25T23:18:49.891Z</time>
      </trkpt>
      <trkpt lat="48.045059" lon="0.325683">
        <ele>60.892546</ele>
        <time>2025-06-25T23:18:56.522Z</time>
      </trkpt>
      <trkpt lat="48.044808" lon="0.328081">
        <ele>61.648672</ele>
        <time>2025-06-25T23:19:24.815Z</time>
      </trkpt>
      <trkpt lat="48.044606" lon="0.329759">
        <ele>62.133551</ele>
        <time>2025-06-25T23:19:42.636Z</time>
      </trkpt>
      <trkpt lat="48.044398" lon="0.331207">
        <ele>62.461497</ele>
        <time>2025-06-25T23:19:58.867Z</time>
      </trkpt>
      <trkpt lat="48.044341" lon="0.331599">
        <ele>62.550327</ele>
        <time>2025-06-25T23:20:03.362Z</time>
      </trkpt>
      <trkpt lat="48.044169" lon="0.332828">
        <ele>62.678411</ele>
        <time>2025-06-25T23:20:16.858Z</time>
      </trkpt>
      <trkpt lat="48.043944" lon="0.334275">
        <ele>62.737947</ele>
        <time>2025-06-25T23:20:31.252Z</time>
      </trkpt>
      <trkpt lat="48.043183" lon="0.337615">
        <ele>62.491847</ele>
        <time>2025-06-25T23:21:05.287Z</time>
      </trkpt>
      <trkpt lat="48.043100" lon="0.338169">
        <ele>62.418278</ele>
        <time>2025-06-25T23:21:10.854Z</time>
      </trkpt>
      <trkpt lat="48.043086" lon="0.338558">
        <ele>62.367798</ele>
        <time>2025-06-25T23:21:14.613Z</time>
      </trkpt>
      <trkpt lat="48.043178" lon="0.339527">
        <ele>62.240973</ele>
        <time>2025-06-25T23:21:23.833Z</time>
      </trkpt>
      <trkpt lat="48.043317" lon="0.340196">
        <ele>61.983477</ele>
        <time>2025-06-25T23:21:30.174Z</time>
      </trkpt>
      <trkpt lat="48.043489" lon="0.340869">
        <ele>61.594815</ele>
        <time>2025-06-25T23:21:36.356Z</time>
      </trkpt>
      <trkpt lat="48.043744" lon="0.341661">
        <ele>61.120621</ele>
        <time>2025-06-25T23:21:43.580Z</time>
      </trkpt>
      <trkpt lat="48.044042" lon="0.342431">
        <ele>60.623091</ele>
        <time>2025-06-25T23:21:50.730Z</time>
      </trkpt>
      <trkpt lat="48.044417" lon="0.343328">
        <ele>59.961933</ele>
        <time>2025-06-25T23:21:59.245Z</time>
      </trkpt>
      <trkpt lat="48.044748" lon="0.344109">
        <ele>59.384040</ele>
        <time>2025-06-25T23:22:06.912Z</time>
      </trkpt>
      <trkpt lat="48.045212" lon="0.344824">
        <ele>59.071238</ele>
        <time>2025-06-25T23:22:15.522Z</time>
      </trkpt>
      <trkpt lat="48.045254" lon="0.344941">
        <ele>59.071482</ele>
        <time>2025-06-25T23:22:16.736Z</time>
      </trkpt>
      <trkpt lat="48.045387" lon="0.345546">
        <ele>59.072652</ele>
        <time>2025-06-25T23:22:22.777Z</time>
      </trkpt>
      <trkpt lat="48.045405" lon="0.345678">
        <ele>59.072900</ele>
        <time>2025-06-25T23:22:24.135Z</time>
      </trkpt>
      <trkpt lat="48.045434" lon="0.345916">
        <ele>59.073344</ele>
        <time>2025-06-25T23:22:26.665Z</time>
      </trkpt>
      <trkpt lat="48.045448" lon="0.346057">
        <ele>59.073606</ele>
        <time>2025-06-25T23:22:28.209Z</time>
      </trkpt>
      <trkpt lat="48.045592" lon="0.347082">
        <ele>59.098907</ele>
        <time>2025-06-25T23:22:39.896Z</time>
      </trkpt>
      <trkpt lat="48.045643" lon="0.347293">
        <ele>59.136698</ele>
        <time>2025-06-25T23:22:42.398Z</time>
      </trkpt>
      <trkpt lat="48.045738" lon="0.347687">
        <ele>59.207245</ele>
        <time>2025-06-25T23:22:47.156Z</time>
      </trkpt>
      <trkpt lat="48.045792" lon="0.347856">
        <ele>59.238794</ele>
        <time>2025-06-25T23:22:49.255Z</time>
      </trkpt>
      <trkpt lat="48.045862" lon="0.348070">
        <ele>59.278922</ele>
        <time>2025-06-25T23:22:51.870Z</time>
      </trkpt>
      <trkpt lat="48.046023" lon="0.348580">
        <ele>59.373918</ele>
        <time>2025-06-25T23:22:57.862Z</time>
      </trkpt>
      <trkpt lat="48.046103" lon="0.348686">
        <ele>59.400844</ele>
        <time>2025-06-25T23:22:59.514Z</time>
      </trkpt>
      <trkpt lat="48.046311" lon="0.349092">
        <ele>59.486998</ele>
        <time>2025-06-25T23:23:04.577Z</time>
      </trkpt>
      <trkpt lat="48.046408" lon="0.349407">
        <ele>59.523973</ele>
        <time>2025-06-25T23:23:07.918Z</time>
      </trkpt>
      <trkpt lat="48.046414" lon="0.349581">
        <ele>59.516275</ele>
        <time>2025-06-25T23:23:09.604Z</time>
      </trkpt>
      <trkpt lat="48.046399" lon="0.349775">
        <ele>59.507646</ele>
        <time>2025-06-25T23:23:11.501Z</time>
      </trkpt>
      <trkpt lat="48.046341" lon="0.350048">
        <ele>59.494989</ele>
        <time>2025-06-25T23:23:14.260Z</time>
      </trkpt>
      <trkpt lat="48.046060" lon="0.350782">
        <ele>59.457617</ele>
        <time>2025-06-25T23:23:22.524Z</time>
      </trkpt>
      <trkpt lat="48.045949" lon="0.351152">
        <ele>59.439699</ele>
        <time>2025-06-25T23:23:26.487Z</time>
      </trkpt>
      <trkpt lat="48.045734" lon="0.351935">
        <ele>59.436930</ele>
        <time>2025-06-25T23:23:34.650Z</time>
      </trkpt>
      <trkpt lat="48.045613" lon="0.352615">
        <ele>59.554231</ele>
        <time>2025-06-25T23:23:41.286Z</time>
      </trkpt>
      <trkpt lat="48.045498" lon="0.353698">
        <ele>59.737030</ele>
        <time>2025-06-25T23:23:52.267Z</time>
      </trkpt>
      <trkpt lat="48.045482" lon="0.353991">
        <ele>59.786036</ele>
        <time>2025-06-25T23:23:55.574Z</time>
      </trkpt>
      <trkpt lat="48.045497" lon="0.354243">
        <ele>59.828210</ele>
        <time>2025-06-25T23:23:58.580Z</time>
      </trkpt>
      <trkpt lat="48.045574" lon="0.354663">
        <ele>60.176544</ele>
        <time>2025-06-25T23:24:04.030Z</time>
      </trkpt>
      <trkpt lat="48.045974" lon="0.356206">
        <ele>62.231164</ele>
        <time>2025-06-25T23:24:28.539Z</time>
      </trkpt>
      <trkpt lat="48.046243" lon="0.357418">
        <ele>64.025961</ele>
        <time>2025-06-25T23:24:49.703Z</time>
      </trkpt>
      <trkpt lat="48.046273" lon="0.357632">
        <ele>64.389315</ele>
        <time>2025-06-25T23:24:53.328Z</time>
      </trkpt>
      <trkpt lat="48.046357" lon="0.358513">
        <ele>65.868151</ele>
        <time>2025-06-25T23:25:08.213Z</time>
      </trkpt>
      <trkpt lat="48.047107" lon="0.358602">
        <ele>67.707736</ele>
        <time>2025-06-25T23:25:31.164Z</time>
      </trkpt>
      <trkpt lat="48.047307" lon="0.358656">
        <ele>67.989765</ele>
        <time>2025-06-25T23:25:37.185Z</time>
      </trkpt>
      <trkpt lat="48.047867" lon="0.358814">
        <ele>68.780589</ele>
        <time>2025-06-25T23:25:53.422Z</time>
      </trkpt>
      <trkpt lat="48.048058" lon="0.358828">
        <ele>69.045961</ele>
        <time>2025-06-25T23:25:58.716Z</time>
      </trkpt>
      <trkpt lat="48.048384" lon="0.358789">
        <ele>69.499801</ele>
        <time>2025-06-25T23:26:07.211Z</time>
      </trkpt>
      <trkpt lat="48.048989" lon="0.358718">
        <ele>70.041489</ele>
        <time>2025-06-25T23:26:20.513Z</time>
      </trkpt>
      <trkpt lat="48.049803" lon="0.358967">
        <ele>69.235305</ele>
        <time>2025-06-25T23:26:34.801Z</time>
      </trkpt>
      <trkpt lat="48.050164" lon="0.359050">
        <ele>68.880907</ele>
        <time>2025-06-25T23:26:40.758Z</time>
      </trkpt>
      <trkpt lat="48.050690" lon="0.359001">
        <ele>68.374703</ele>
        <time>2025-06-25T23:26:49.404Z</time>
      </trkpt>
      <trkpt lat="48.051052" lon="0.359491">
        <ele>67.949671</ele>
        <time>2025-06-25T23:26:57.644Z</time>
      </trkpt>
      <trkpt lat="48.051389" lon="0.360151">
        <ele>67.466327</ele>
        <time>2025-06-25T23:27:07.861Z</time>
      </trkpt>
      <trkpt lat="48.051648" lon="0.360720">
        <ele>67.065699</ele>
        <time>2025-06-25T23:27:16.278Z</time>
      </trkpt>
      <trkpt lat="48.051994" lon="0.361591">
        <ele>66.380798</ele>
        <time>2025-06-25T23:27:28.428Z</time>
      </trkpt>
      <trkpt lat="48.052892" lon="0.363553">
        <ele>64.733794</ele>
        <time>2025-06-25T23:27:55.332Z</time>
      </trkpt>
      <trkpt lat="48.053183" lon="0.364028">
        <ele>64.428318</ele>
        <time>2025-06-25T23:28:02.548Z</time>
      </trkpt>
      <trkpt lat="48.053527" lon="0.364504">
        <ele>64.095964</ele>
        <time>2025-06-25T23:28:10.593Z</time>
      </trkpt>
      <trkpt lat="48.053709" lon="0.364881">
        <ele>63.875487</ele>
        <time>2025-06-25T23:28:16.208Z</time>
      </trkpt>
      <trkpt lat="48.054053" lon="0.365828">
        <ele>64.142753</ele>
        <time>2025-06-25T23:28:31.294Z</time>
      </trkpt>
      <trkpt lat="48.055047" lon="0.369008">
        <ele>67.785789</ele>
        <time>2025-06-25T23:29:36.921Z</time>
      </trkpt>
      <trkpt lat="48.055321" lon="0.370047">
        <ele>69.040755</ele>
        <time>2025-06-25T23:29:57.696Z</time>
      </trkpt>
      <trkpt lat="48.056226" lon="0.372706">
        <ele>70.798716</ele>
        <time>2025-06-25T23:30:42.621Z</time>
      </trkpt>
      <trkpt lat="48.056785" lon="0.374844">
        <ele>72.712397</ele>
        <time>2025-06-25T23:31:22.670Z</time>
      </trkpt>
      <trkpt lat="48.057190" lon="0.376569">
        <ele>73.128615</ele>
        <time>2025-06-25T23:31:52.384Z</time>
      </trkpt>
      <trkpt lat="48.057410" lon="0.378325">
        <ele>72.223871</ele>
        <time>2025-06-25T23:32:13.429Z</time>
      </trkpt>
      <trkpt lat="48.057481" lon="0.378522">
        <ele>71.843854</ele>
        <time>2025-06-25T23:32:15.692Z</time>
      </trkpt>
      <trkpt lat="48.057700" lon="0.378757">
        <ele>71.159231</ele>
        <time>2025-06-25T23:32:19.648Z</time>
      </trkpt>
      <trkpt lat="48.057916" lon="0.378138">
        <ele>69.973617</ele>
        <time>2025-06-25T23:32:24.348Z</time>
      </trkpt>
      <trkpt lat="48.058175" lon="0.377444">
        <ele>68.633455</ele>
        <time>2025-06-25T23:32:29.633Z</time>
      </trkpt>
      <trkpt lat="48.058287" lon="0.377067">
        <ele>68.061533</ele>
        <time>2025-06-25T23:32:32.511Z</time>
      </trkpt>
      <trkpt lat="48.058358" lon="0.376691">
        <ele>67.519896</ele>
        <time>2025-06-25T23:32:35.309Z</time>
      </trkpt>
      <trkpt lat="48.058811" lon="0.376865">
        <ele>66.549869</ele>
        <time>2025-06-25T23:32:40.463Z</time>
      </trkpt>
      <trkpt lat="48.059463" lon="0.377801">
        <ele>64.841633</ele>
        <time>2025-06-25T23:32:50.823Z</time>
      </trkpt>
      <trkpt lat="48.059879" lon="0.378628">
        <ele>64.291373</ele>
        <time>2025-06-25T23:32:58.928Z</time>
      </trkpt>
      <trkpt lat="48.060288" lon="0.379561">
        <ele>63.698199</ele>
        <time>2025-06-25T23:33:08.690Z</time>
      </trkpt>
      <trkpt lat="48.060711" lon="0.380677">
        <ele>63.628091</ele>
        <time>2025-06-25T23:33:22.069Z</time>
      </trkpt>
      <trkpt lat="48.061003" lon="0.381253">
        <ele>63.716035</ele>
        <time>2025-06-25T23:33:30.021Z</time>
      </trkpt>
      <trkpt lat="48.062446" lon="0.384110">
        <ele>64.071862</ele>
        <time>2025-06-25T23:34:07.264Z</time>
      </trkpt>
      <trkpt lat="48.063185" lon="0.385247">
        <ele>63.894502</ele>
        <time>2025-06-25T23:34:22.166Z</time>
      </trkpt>
      <trkpt lat="48.063637" lon="0.385612">
        <ele>63.793319</ele>
        <time>2025-06-25T23:34:29.431Z</time>
      </trkpt>
      <trkpt lat="48.064318" lon="0.385880">
        <ele>63.520402</ele>
        <time>2025-06-25T23:34:39.311Z</time>
      </trkpt>
      <trkpt lat="48.065051" lon="0.386048">
        <ele>63.115449</ele>
        <time>2025-06-25T23:34:49.131Z</time>
      </trkpt>
      <trkpt lat="48.065495" lon="0.386353">
        <ele>62.848656</ele>
        <time>2025-06-25T23:34:55.272Z</time>
      </trkpt>
      <trkpt lat="48.065567" lon="0.386490">
        <ele>62.785051</ele>
        <time>2025-06-25T23:34:56.730Z</time>
      </trkpt>
      <trkpt lat="48.065695" lon="0.386469">
        <ele>62.719397</ele>
        <time>2025-06-25T23:34:58.326Z</time>
      </trkpt>
      <trkpt lat="48.065787" lon="0.386620">
        <ele>62.655249</ele>
        <time>2025-06-25T23:35:00.018Z</time>
      </trkpt>
      <trkpt lat="48.066156" lon="0.387013">
        <ele>62.442484</ele>
        <time>2025-06-25T23:35:05.684Z</time>
      </trkpt>
      <trkpt lat="48.066685" lon="0.387900">
        <ele>62.069265</ele>
        <time>2025-06-25T23:35:16.248Z</time>
      </trkpt>
      <trkpt lat="48.066992" lon="0.388277">
        <ele>61.938108</ele>
        <time>2025-06-25T23:35:21.922Z</time>
      </trkpt>
      <trkpt lat="48.067602" lon="0.388818">
        <ele>62.506788</ele>
        <time>2025-06-25T23:35:33.421Z</time>
      </trkpt>
      <trkpt lat="48.067753" lon="0.389032">
        <ele>62.673579</ele>
        <time>2025-06-25T23:35:37.182Z</time>
      </trkpt>
      <trkpt lat="48.067913" lon="0.389378">
        <ele>62.899079</ele>
        <time>2025-06-25T23:35:42.526Z</time>
      </trkpt>
      <trkpt lat="48.068409" lon="0.390716">
        <ele>64.045213</ele>
        <time>2025-06-25T23:36:03.844Z</time>
      </trkpt>
      <trkpt lat="48.068733" lon="0.392073">
        <ele>65.491919</ele>
        <time>2025-06-25T23:36:24.956Z</time>
      </trkpt>
      <trkpt lat="48.068983" lon="0.392862">
        <ele>66.191978</ele>
        <time>2025-06-25T23:36:36.435Z</time>
      </trkpt>
      <trkpt lat="48.069252" lon="0.393448">
        <ele>66.512674</ele>
        <time>2025-06-25T23:36:44.919Z</time>
      </trkpt>
      <trkpt lat="48.069426" lon="0.393692">
        <ele>66.673640</ele>
        <time>2025-06-25T23:36:48.971Z</time>
      </trkpt>
      <trkpt lat="48.069698" lon="0.393912">
        <ele>66.882352</ele>
        <time>2025-06-25T23:36:54.008Z</time>
      </trkpt>
      <trkpt lat="48.071496" lon="0.395093">
        <ele>67.838166</ele>
        <time>2025-06-25T23:37:26.464Z</time>
      </trkpt>
      <trkpt lat="48.071774" lon="0.395273">
        <ele>67.962719</ele>
        <time>2025-06-25T23:37:31.418Z</time>
      </trkpt>
      <trkpt lat="48.071989" lon="0.395461">
        <ele>67.977187</ele>
        <time>2025-06-25T23:37:35.433Z</time>
      </trkpt>
      <trkpt lat="48.072136" lon="0.395672">
        <ele>67.944916</ele>
        <time>2025-06-25T23:37:38.622Z</time>
      </trkpt>
      <trkpt lat="48.072291" lon="0.396021">
        <ele>67.900551</ele>
        <time>2025-06-25T23:37:42.969Z</time>
      </trkpt>
      <trkpt lat="48.072360" lon="0.396276">
        <ele>67.871425</ele>
        <time>2025-06-25T23:37:45.757Z</time>
      </trkpt>
      <trkpt lat="48.072458" lon="0.397487">
        <ele>67.742282</ele>
        <time>2025-06-25T23:37:56.914Z</time>
      </trkpt>
      <trkpt lat="48.072575" lon="0.398666">
        <ele>67.275795</ele>
        <time>2025-06-25T23:38:07.024Z</time>
      </trkpt>
      <trkpt lat="48.072997" lon="0.400339">
        <ele>66.490357</ele>
        <time>2025-06-25T23:38:21.868Z</time>
      </trkpt>
      <trkpt lat="48.073277" lon="0.401639">
        <ele>67.165698</ele>
        <time>2025-06-25T23:38:35.986Z</time>
      </trkpt>
      <trkpt lat="48.073769" lon="0.404190">
        <ele>69.434235</ele>
        <time>2025-06-25T23:39:13.831Z</time>
      </trkpt>
      <trkpt lat="48.074035" lon="0.405411">
        <ele>70.961525</ele>
        <time>2025-06-25T23:39:33.290Z</time>
      </trkpt>
      <trkpt lat="48.074677" lon="0.408683">
        <ele>74.695590</ele>
        <time>2025-06-25T23:40:23.628Z</time>
      </trkpt>
      <trkpt lat="48.074828" lon="0.409896">
        <ele>75.532383</ele>
        <time>2025-06-25T23:40:39.074Z</time>
      </trkpt>
      <trkpt lat="48.075046" lon="0.412001">
        <ele>76.213058</ele>
        <time>2025-06-25T23:41:02.318Z</time>
      </trkpt>
      <trkpt lat="48.075225" lon="0.413465">
        <ele>76.353772</ele>
        <time>2025-06-25T23:41:17.060Z</time>
      </trkpt>
      <trkpt lat="48.075434" lon="0.414253">
        <ele>76.278978</ele>
        <time>2025-06-25T23:41:24.842Z</time>
      </trkpt>
      <trkpt lat="48.075659" lon="0.414673">
        <ele>76.231486</ele>
        <time>2025-06-25T23:41:29.894Z</time>
      </trkpt>
      <trkpt lat="48.075924" lon="0.415065">
        <ele>76.182291</ele>
        <time>2025-06-25T23:41:35.198Z</time>
      </trkpt>
      <trkpt lat="48.076839" lon="0.416022">
        <ele>77.098353</ele>
        <time>2025-06-25T23:41:51.877Z</time>
      </trkpt>
      <trkpt lat="48.077045" lon="0.416218">
        <ele>77.426821</ele>
        <time>2025-06-25T23:41:56.615Z</time>
      </trkpt>
      <trkpt lat="48.077140" lon="0.416314">
        <ele>77.581065</ele>
        <time>2025-06-25T23:41:58.996Z</time>
      </trkpt>
      <trkpt lat="48.077240" lon="0.416438">
        <ele>77.755809</ele>
        <time>2025-06-25T23:42:01.861Z</time>
      </trkpt>
      <trkpt lat="48.077431" lon="0.416659">
        <ele>78.080670</ele>
        <time>2025-06-25T23:42:07.648Z</time>
      </trkpt>
      <trkpt lat="48.077847" lon="0.417235">
        <ele>79.270998</ele>
        <time>2025-06-25T23:42:22.540Z</time>
      </trkpt>
      <trkpt lat="48.078444" lon="0.417933">
        <ele>81.778515</ele>
        <time>2025-06-25T23:42:45.111Z</time>
      </trkpt>
      <trkpt lat="48.078690" lon="0.417798">
        <ele>82.645785</ele>
        <time>2025-06-25T23:42:52.932Z</time>
      </trkpt>
      <trkpt lat="48.079009" lon="0.417647">
        <ele>83.753226</ele>
        <time>2025-06-25T23:43:02.560Z</time>
      </trkpt>
      <trkpt lat="48.079096" lon="0.417644">
        <ele>84.041274</ele>
        <time>2025-06-25T23:43:04.969Z</time>
      </trkpt>
      <trkpt lat="48.079460" lon="0.417796">
        <ele>85.135845</ele>
        <time>2025-06-25T23:43:14.763Z</time>
      </trkpt>
      <trkpt lat="48.079668" lon="0.417935">
        <ele>85.740359</ele>
        <time>2025-06-25T23:43:20.373Z</time>
      </trkpt>
      <trkpt lat="48.080461" lon="0.418723">
        <ele>88.266385</ele>
        <time>2025-06-25T23:43:43.788Z</time>
      </trkpt>
      <trkpt lat="48.080957" lon="0.419197">
        <ele>90.156247</ele>
        <time>2025-06-25T23:43:58.130Z</time>
      </trkpt>
      <trkpt lat="48.081302" lon="0.419474">
        <ele>91.813990</ele>
        <time>2025-06-25T23:44:09.363Z</time>
      </trkpt>
      <trkpt lat="48.081474" lon="0.419620">
        <ele>92.651255</ele>
        <time>2025-06-25T23:44:15.547Z</time>
      </trkpt>
      <trkpt lat="48.082369" lon="0.420456">
        <ele>97.136594</ele>
        <time>2025-06-25T23:44:52.497Z</time>
      </trkpt>
      <trkpt lat="48.083419" lon="0.421330">
        <ele>102.636049</ele>
        <time>2025-06-25T23:45:36.138Z</time>
      </trkpt>
      <trkpt lat="48.084000" lon="0.422001">
        <ele>105.450031</ele>
        <time>2025-06-25T23:45:57.291Z</time>
      </trkpt>
      <trkpt lat="48.084484" lon="0.422773">
        <ele>106.656264</ele>
        <time>2025-06-25T23:46:12.808Z</time>
      </trkpt>
      <trkpt lat="48.084954" lon="0.423601">
        <ele>107.894181</ele>
        <time>2025-06-25T23:46:26.431Z</time>
      </trkpt>
      <trkpt lat="48.085550" lon="0.425219">
        <ele>109.111877</ele>
        <time>2025-06-25T23:46:48.498Z</time>
      </trkpt>
      <trkpt lat="48.085602" lon="0.425358">
        <ele>109.204167</ele>
        <time>2025-06-25T23:46:50.493Z</time>
      </trkpt>
      <trkpt lat="48.085774" lon="0.425797">
        <ele>109.498994</ele>
        <time>2025-06-25T23:46:56.915Z</time>
      </trkpt>
      <trkpt lat="48.086035" lon="0.426356">
        <ele>109.924877</ele>
        <time>2025-06-25T23:47:05.495Z</time>
      </trkpt>
      <trkpt lat="48.086593" lon="0.427394">
        <ele>110.866007</ele>
        <time>2025-06-25T23:47:22.179Z</time>
      </trkpt>
      <trkpt lat="48.087769" lon="0.429502">
        <ele>112.844578</ele>
        <time>2025-06-25T23:47:57.844Z</time>
      </trkpt>
      <trkpt lat="48.088513" lon="0.430786">
        <ele>112.879398</ele>
        <time>2025-06-25T23:48:20.387Z</time>
      </trkpt>
      <trkpt lat="48.089097" lon="0.431596">
        <ele>111.488560</ele>
        <time>2025-06-25T23:48:29.712Z</time>
      </trkpt>
      <trkpt lat="48.089382" lon="0.431930">
        <ele>110.856243</ele>
        <time>2025-06-25T23:48:33.269Z</time>
      </trkpt>
      <trkpt lat="48.089770" lon="0.432292">
        <ele>109.266097</ele>
        <time>2025-06-25T23:48:37.567Z</time>
      </trkpt>
      <trkpt lat="48.090882" lon="0.432881">
        <ele>103.336343</ele>
        <time>2025-06-25T23:48:48.425Z</time>
      </trkpt>
      <trkpt lat="48.091679" lon="0.433549">
        <ele>100.296882</ele>
        <time>2025-06-25T23:48:57.452Z</time>
      </trkpt>
      <trkpt lat="48.091858" lon="0.433655">
        <ele>99.887105</ele>
        <time>2025-06-25T23:48:59.587Z</time>
      </trkpt>
      <trkpt lat="48.092007" lon="0.433687">
        <ele>99.566670</ele>
        <time>2025-06-25T23:49:01.327Z</time>
      </trkpt>
      <trkpt lat="48.092904" lon="0.433705">
        <ele>97.656983</ele>
        <time>2025-06-25T23:49:11.933Z</time>
      </trkpt>
      <trkpt lat="48.093071" lon="0.433739">
        <ele>97.536939</ele>
        <time>2025-06-25T23:49:14.128Z</time>
      </trkpt>
      <trkpt lat="48.093132" lon="0.433771">
        <ele>97.505341</ele>
        <time>2025-06-25T23:49:14.983Z</time>
      </trkpt>
      <trkpt lat="48.093310" lon="0.433865">
        <ele>97.413070</ele>
        <time>2025-06-25T23:49:17.417Z</time>
      </trkpt>
      <trkpt lat="48.093786" lon="0.434138">
        <ele>97.163884</ele>
        <time>2025-06-25T23:49:24.055Z</time>
      </trkpt>
      <trkpt lat="48.094809" lon="0.434850">
        <ele>96.752510</ele>
        <time>2025-06-25T23:49:39.641Z</time>
      </trkpt>
      <trkpt lat="48.095767" lon="0.435657">
        <ele>96.861834</ele>
        <time>2025-06-25T23:49:57.180Z</time>
      </trkpt>
      <trkpt lat="48.096572" lon="0.436516">
        <ele>96.648541</ele>
        <time>2025-06-25T23:50:12.141Z</time>
      </trkpt>
      <trkpt lat="48.097639" lon="0.437723">
        <ele>95.949543</ele>
        <time>2025-06-25T23:50:29.340Z</time>
      </trkpt>
      <trkpt lat="48.098944" lon="0.439517">
        <ele>93.981942</ele>
        <time>2025-06-25T23:50:50.216Z</time>
      </trkpt>
      <trkpt lat="48.099858" lon="0.440779">
        <ele>93.347419</ele>
        <time>2025-06-25T23:51:06.556Z</time>
      </trkpt>
      <trkpt lat="48.100210" lon="0.441144">
        <ele>93.128901</ele>
        <time>2025-06-25T23:51:12.648Z</time>
      </trkpt>
      <trkpt lat="48.100656" lon="0.441549">
        <ele>93.080034</ele>
        <time>2025-06-25T23:51:20.237Z</time>
      </trkpt>
      <trkpt lat="48.100929" lon="0.441792">
        <ele>93.077266</ele>
        <time>2025-06-25T23:51:24.942Z</time>
      </trkpt>
      <trkpt lat="48.101333" lon="0.442171">
        <ele>93.073111</ele>
        <time>2025-06-25T23:51:32.107Z</time>
      </trkpt>
      <trkpt lat="48.101952" lon="0.442813">
        <ele>93.004948</ele>
        <time>2025-06-25T23:51:43.437Z</time>
      </trkpt>
      <trkpt lat="48.102418" lon="0.443337">
        <ele>92.802529</ele>
        <time>2025-06-25T23:51:51.603Z</time>
      </trkpt>
      <trkpt lat="48.102634" lon="0.443569">
        <ele>92.710198</ele>
        <time>2025-06-25T23:51:55.171Z</time>
      </trkpt>
      <trkpt lat="48.103151" lon="0.444350">
        <ele>92.455117</ele>
        <time>2025-06-25T23:52:04.842Z</time>
      </trkpt>
      <trkpt lat="48.103275" lon="0.444490">
        <ele>92.388497</ele>
        <time>2025-06-25T23:52:06.880Z</time>
      </trkpt>
      <trkpt lat="48.103645" lon="0.444797">
        <ele>92.197429</ele>
        <time>2025-06-25T23:52:12.304Z</time>
      </trkpt>
      <trkpt lat="48.104041" lon="0.445288">
        <ele>91.965203</ele>
        <time>2025-06-25T23:52:18.905Z</time>
      </trkpt>
      <trkpt lat="48.104431" lon="0.445899">
        <ele>91.710256</ele>
        <time>2025-06-25T23:52:26.665Z</time>
      </trkpt>
      <trkpt lat="48.104766" lon="0.446646">
        <ele>91.634521</ele>
        <time>2025-06-25T23:52:35.667Z</time>
      </trkpt>
      <trkpt lat="48.104954" lon="0.447137">
        <ele>91.637700</ele>
        <time>2025-06-25T23:52:41.530Z</time>
      </trkpt>
      <trkpt lat="48.105225" lon="0.447880">
        <ele>91.642455</ele>
        <time>2025-06-25T23:52:50.388Z</time>
      </trkpt>
      <trkpt lat="48.105339" lon="0.448331">
        <ele>91.645163</ele>
        <time>2025-06-25T23:52:55.295Z</time>
      </trkpt>
      <trkpt lat="48.105384" lon="0.448927">
        <ele>91.428523</ele>
        <time>2025-06-25T23:53:00.802Z</time>
      </trkpt>
      <trkpt lat="48.105432" lon="0.449977">
        <ele>90.905769</ele>
        <time>2025-06-25T23:53:09.653Z</time>
      </trkpt>
      <trkpt lat="48.105510" lon="0.450761">
        <ele>90.512060</ele>
        <time>2025-06-25T23:53:16.041Z</time>
      </trkpt>
      <trkpt lat="48.106020" lon="0.452812">
        <ele>89.619459</ele>
        <time>2025-06-25T23:53:34.390Z</time>
      </trkpt>
      <trkpt lat="48.106154" lon="0.453233">
        <ele>89.438816</ele>
        <time>2025-06-25T23:53:38.699Z</time>
      </trkpt>
      <trkpt lat="48.106293" lon="0.453599">
        <ele>89.275728</ele>
        <time>2025-06-25T23:53:42.746Z</time>
      </trkpt>
      <trkpt lat="48.106926" lon="0.454948">
        <ele>89.456165</ele>
        <time>2025-06-25T23:53:59.243Z</time>
      </trkpt>
      <trkpt lat="48.107211" lon="0.455419">
        <ele>89.531176</ele>
        <time>2025-06-25T23:54:06.089Z</time>
      </trkpt>
      <trkpt lat="48.107300" lon="0.455597">
        <ele>89.557419</ele>
        <time>2025-06-25T23:54:08.552Z</time>
      </trkpt>
      <trkpt lat="48.107461" lon="0.456251">
        <ele>89.679252</ele>
        <time>2025-06-25T23:54:16.406Z</time>
      </trkpt>
      <trkpt lat="48.107414" lon="0.456342">
        <ele>89.702271</ele>
        <time>2025-06-25T23:54:17.718Z</time>
      </trkpt>
      <trkpt lat="48.107400" lon="0.456452">
        <ele>89.724676</ele>
        <time>2025-06-25T23:54:18.985Z</time>
      </trkpt>
      <trkpt lat="48.107455" lon="0.456999">
        <ele>89.835357</ele>
        <time>2025-06-25T23:54:25.423Z</time>
      </trkpt>
      <trkpt lat="48.107565" lon="0.457433">
        <ele>89.928239</ele>
        <time>2025-06-25T23:54:30.927Z</time>
      </trkpt>
      <trkpt lat="48.107660" lon="0.457626">
        <ele>89.976213</ele>
        <time>2025-06-25T23:54:33.633Z</time>
      </trkpt>
      <trkpt lat="48.107690" lon="0.457663">
        <ele>89.987859</ele>
        <time>2025-06-25T23:54:34.268Z</time>
      </trkpt>
      <trkpt lat="48.108106" lon="0.458250">
        <ele>89.969551</ele>
        <time>2025-06-25T23:54:42.515Z</time>
      </trkpt>
      <trkpt lat="48.108351" lon="0.458470">
        <ele>89.621219</ele>
        <time>2025-06-25T23:54:46.127Z</time>
      </trkpt>
      <trkpt lat="48.108326" lon="0.458636">
        <ele>89.482665</ele>
        <time>2025-06-25T23:54:47.519Z</time>
      </trkpt>
      <trkpt lat="48.108360" lon="0.458797">
        <ele>89.345178</ele>
        <time>2025-06-25T23:54:48.863Z</time>
      </trkpt>
      <trkpt lat="48.108821" lon="0.460093">
        <ele>88.149581</ele>
        <time>2025-06-25T23:54:59.935Z</time>
      </trkpt>
      <trkpt lat="48.109253" lon="0.461595">
        <ele>86.872282</ele>
        <time>2025-06-25T23:55:12.426Z</time>
      </trkpt>
      <trkpt lat="48.109991" lon="0.463254">
        <ele>85.634300</ele>
        <time>2025-06-25T23:55:29.356Z</time>
      </trkpt>
      <trkpt lat="48.110159" lon="0.463679">
        <ele>85.479400</ele>
        <time>2025-06-25T23:55:33.681Z</time>
      </trkpt>
      <trkpt lat="48.110268" lon="0.464071">
        <ele>85.346222</ele>
        <time>2025-06-25T23:55:37.451Z</time>
      </trkpt>
      <trkpt lat="48.110448" lon="0.464892">
        <ele>85.075208</ele>
        <time>2025-06-25T23:55:45.307Z</time>
      </trkpt>
      <trkpt lat="48.110649" lon="0.466601">
        <ele>84.713645</ele>
        <time>2025-06-25T23:56:01.773Z</time>
      </trkpt>
      <trkpt lat="48.110662" lon="0.466712">
        <ele>84.692138</ele>
        <time>2025-06-25T23:56:02.874Z</time>
      </trkpt>
      <trkpt lat="48.110897" lon="0.468817">
        <ele>84.014610</ele>
        <time>2025-06-25T23:56:22.105Z</time>
      </trkpt>
      <trkpt lat="48.111064" lon="0.469884">
        <ele>83.520953</ele>
        <time>2025-06-25T23:56:31.200Z</time>
      </trkpt>
      <trkpt lat="48.111210" lon="0.470668">
        <ele>83.250543</ele>
        <time>2025-06-25T23:56:37.891Z</time>
      </trkpt>
      <trkpt lat="48.111781" lon="0.473057">
        <ele>83.177665</ele>
        <time>2025-06-25T23:57:01.870Z</time>
      </trkpt>
      <trkpt lat="48.112045" lon="0.474257">
        <ele>84.587649</ele>
        <time>2025-06-25T23:57:20.056Z</time>
      </trkpt>
      <trkpt lat="48.113117" lon="0.478697">
        <ele>90.352959</ele>
        <time>2025-06-25T23:58:34.929Z</time>
      </trkpt>
      <trkpt lat="48.113284" lon="0.479216">
        <ele>90.619178</ele>
        <time>2025-06-25T23:58:42.969Z</time>
      </trkpt>
      <trkpt lat="48.113645" lon="0.480021">
        <ele>91.067271</ele>
        <time>2025-06-25T23:58:54.023Z</time>
      </trkpt>
      <trkpt lat="48.114084" lon="0.480783">
        <ele>90.113264</ele>
        <time>2025-06-25T23:59:01.653Z</time>
      </trkpt>
      <trkpt lat="48.114248" lon="0.481124">
        <ele>89.234734</ele>
        <time>2025-06-25T23:59:04.548Z</time>
      </trkpt>
      <trkpt lat="48.114399" lon="0.481417">
        <ele>88.460989</ele>
        <time>2025-06-25T23:59:07.005Z</time>
      </trkpt>
      <trkpt lat="48.114538" lon="0.481824">
        <ele>87.505332</ele>
        <time>2025-06-25T23:59:09.981Z</time>
      </trkpt>
      <trkpt lat="48.115311" lon="0.485344">
        <ele>78.409904</ele>
        <time>2025-06-25T23:59:34.033Z</time>
      </trkpt>
      <trkpt lat="48.115353" lon="0.485528">
        <ele>78.168449</ele>
        <time>2025-06-25T23:59:35.385Z</time>
      </trkpt>
      <trkpt lat="48.115423" lon="0.486112">
        <ele>77.431709</ele>
        <time>2025-06-25T23:59:39.631Z</time>
      </trkpt>
      <trkpt lat="48.115604" lon="0.489058">
        <ele>74.845746</ele>
        <time>2025-06-26T00:00:03.316Z</time>
      </trkpt>
      <trkpt lat="48.115673" lon="0.489425">
        <ele>74.725757</ele>
        <time>2025-06-26T00:00:06.702Z</time>
      </trkpt>
      <trkpt lat="48.115787" lon="0.489845">
        <ele>74.583075</ele>
        <time>2025-06-26T00:00:10.924Z</time>
      </trkpt>
      <trkpt lat="48.115940" lon="0.490529">
        <ele>74.385250</ele>
        <time>2025-06-26T00:00:18.194Z</time>
      </trkpt>
      <trkpt lat="48.116523" lon="0.494188">
        <ele>76.664017</ele>
        <time>2025-06-26T00:01:04.154Z</time>
      </trkpt>
      <trkpt lat="48.116572" lon="0.494604">
        <ele>77.010660</ele>
        <time>2025-06-26T00:01:10.123Z</time>
      </trkpt>
      <trkpt lat="48.116591" lon="0.495508">
        <ele>77.752852</ele>
        <time>2025-06-26T00:01:22.971Z</time>
      </trkpt>
      <trkpt lat="48.116623" lon="0.495797">
        <ele>77.988201</ele>
        <time>2025-06-26T00:01:27.150Z</time>
      </trkpt>
      <trkpt lat="48.117073" lon="0.497643">
        <ele>79.252623</ele>
        <time>2025-06-26T00:01:52.495Z</time>
      </trkpt>
      <trkpt lat="48.117092" lon="0.497936">
        <ele>79.442026</ele>
        <time>2025-06-26T00:01:55.868Z</time>
      </trkpt>
      <trkpt lat="48.117113" lon="0.499796">
        <ele>79.889218</ele>
        <time>2025-06-26T00:02:15.497Z</time>
      </trkpt>
      <trkpt lat="48.117339" lon="0.501165">
        <ele>80.201491</ele>
        <time>2025-06-26T00:02:29.250Z</time>
      </trkpt>
      <trkpt lat="48.117527" lon="0.501871">
        <ele>80.887803</ele>
        <time>2025-06-26T00:02:37.833Z</time>
      </trkpt>
      <trkpt lat="48.117781" lon="0.502667">
        <ele>81.684417</ele>
        <time>2025-06-26T00:02:49.667Z</time>
      </trkpt>
      <trkpt lat="48.117843" lon="0.502924">
        <ele>81.931156</ele>
        <time>2025-06-26T00:02:53.789Z</time>
      </trkpt>
      <trkpt lat="48.117871" lon="0.503187">
        <ele>82.171626</ele>
        <time>2025-06-26T00:02:58.047Z</time>
      </trkpt>
      <trkpt lat="48.117865" lon="0.503466">
        <ele>82.423674</ele>
        <time>2025-06-26T00:03:02.746Z</time>
      </trkpt>
      <trkpt lat="48.117714" lon="0.505333">
        <ele>85.742334</ele>
        <time>2025-06-26T00:03:36.052Z</time>
      </trkpt>
      <trkpt lat="48.117347" lon="0.507210">
        <ele>88.563089</ele>
        <time>2025-06-26T00:04:08.359Z</time>
      </trkpt>
      <trkpt lat="48.117328" lon="0.507451">
        <ele>88.843689</ele>
        <time>2025-06-26T00:04:11.929Z</time>
      </trkpt>
      <trkpt lat="48.117341" lon="0.507679">
        <ele>89.108280</ele>
        <time>2025-06-26T00:04:15.224Z</time>
      </trkpt>
      <trkpt lat="48.117391" lon="0.507873">
        <ele>89.348734</ele>
        <time>2025-06-26T00:04:18.147Z</time>
      </trkpt>
      <trkpt lat="48.117706" lon="0.508667">
        <ele>90.416689</ele>
        <time>2025-06-26T00:04:30.278Z</time>
      </trkpt>
      <trkpt lat="48.118073" lon="0.509619">
        <ele>90.340238</ele>
        <time>2025-06-26T00:04:42.171Z</time>
      </trkpt>
      <trkpt lat="48.118170" lon="0.509908">
        <ele>90.313507</ele>
        <time>2025-06-26T00:04:45.280Z</time>
      </trkpt>
      <trkpt lat="48.117782" lon="0.510163">
        <ele>90.261058</ele>
        <time>2025-06-26T00:04:51.004Z</time>
      </trkpt>
      <trkpt lat="48.116634" lon="0.510827">
        <ele>89.459187</ele>
        <time>2025-06-26T00:05:05.956Z</time>
      </trkpt>
      <trkpt lat="48.116049" lon="0.511192">
        <ele>88.864770</ele>
        <time>2025-06-26T00:05:13.740Z</time>
      </trkpt>
      <trkpt lat="48.115870" lon="0.511341">
        <ele>88.672687</ele>
        <time>2025-06-26T00:05:16.278Z</time>
      </trkpt>
      <trkpt lat="48.115868" lon="0.511343">
        <ele>88.670431</ele>
        <time>2025-06-26T00:05:16.304Z</time>
      </trkpt>
      <trkpt lat="48.115529" lon="0.511717">
        <ele>88.346601</ele>
        <time>2025-06-26T00:05:21.580Z</time>
      </trkpt>
      <trkpt lat="48.114687" lon="0.512753">
        <ele>87.621225</ele>
        <time>2025-06-26T00:05:35.522Z</time>
      </trkpt>
      <trkpt lat="48.114130" lon="0.513439">
        <ele>87.299179</ele>
        <time>2025-06-26T00:05:44.965Z</time>
      </trkpt>
      <trkpt lat="48.113940" lon="0.513596">
        <ele>87.280211</ele>
        <time>2025-06-26T00:05:48.103Z</time>
      </trkpt>
      <trkpt lat="48.114022" lon="0.513990">
        <ele>87.256125</ele>
        <time>2025-06-26T00:05:52.381Z</time>
      </trkpt>
      <trkpt lat="48.114694" lon="0.515306">
        <ele>87.089505</ele>
        <time>2025-06-26T00:06:09.384Z</time>
      </trkpt>
      <trkpt lat="48.114734" lon="0.515574">
        <ele>86.898461</ele>
        <time>2025-06-26T00:06:12.143Z</time>
      </trkpt>
      <trkpt lat="48.114616" lon="0.516551">
        <ele>86.207752</ele>
        <time>2025-06-26T00:06:20.590Z</time>
      </trkpt>
      <trkpt lat="48.114506" lon="0.516731">
        <ele>86.037992</ele>
        <time>2025-06-26T00:06:22.458Z</time>
      </trkpt>
      <trkpt lat="48.114432" lon="0.516836">
        <ele>85.931778</ele>
        <time>2025-06-26T00:06:23.618Z</time>
      </trkpt>
      <trkpt lat="48.114518" lon="0.517303">
        <ele>85.594763</ele>
        <time>2025-06-26T00:06:27.206Z</time>
      </trkpt>
      <trkpt lat="48.114573" lon="0.517481">
        <ele>85.458313</ele>
        <time>2025-06-26T00:06:28.660Z</time>
      </trkpt>
      <trkpt lat="48.114754" lon="0.517856">
        <ele>85.198381</ele>
        <time>2025-06-26T00:06:32.096Z</time>
      </trkpt>
      <trkpt lat="48.114770" lon="0.517935">
        <ele>85.163876</ele>
        <time>2025-06-26T00:06:32.700Z</time>
      </trkpt>
      <trkpt lat="48.114803" lon="0.518463">
        <ele>84.942228</ele>
        <time>2025-06-26T00:06:36.714Z</time>
      </trkpt>
      <trkpt lat="48.114963" lon="0.519657">
        <ele>84.433230</ele>
        <time>2025-06-26T00:06:47.179Z</time>
      </trkpt>
      <trkpt lat="48.114982" lon="0.519795">
        <ele>84.374338</ele>
        <time>2025-06-26T00:06:48.797Z</time>
      </trkpt>
      <trkpt lat="48.115005" lon="0.520011">
        <ele>84.282917</ele>
        <time>2025-06-26T00:06:51.422Z</time>
      </trkpt>
      <trkpt lat="48.114791" lon="0.520339">
        <ele>84.214046</ele>
        <time>2025-06-26T00:06:57.042Z</time>
      </trkpt>
      <trkpt lat="48.114513" lon="0.520811">
        <ele>84.385063</ele>
        <time>2025-06-26T00:07:04.819Z</time>
      </trkpt>
      <trkpt lat="48.114375" lon="0.521244">
        <ele>84.515430</ele>
        <time>2025-06-26T00:07:10.804Z</time>
      </trkpt>
      <trkpt lat="48.114052" lon="0.522381">
        <ele>84.851167</ele>
        <time>2025-06-26T00:07:24.161Z</time>
      </trkpt>
      <trkpt lat="48.113986" lon="0.522617">
        <ele>84.881649</ele>
        <time>2025-06-26T00:07:26.466Z</time>
      </trkpt>
      <trkpt lat="48.113973" lon="0.522664">
        <ele>84.872050</ele>
        <time>2025-06-26T00:07:26.913Z</time>
      </trkpt>
      <trkpt lat="48.113857" lon="0.523149">
        <ele>84.774844</ele>
        <time>2025-06-26T00:07:31.337Z</time>
      </trkpt>
      <trkpt lat="48.113710" lon="0.523888">
        <ele>84.629350</ele>
        <time>2025-06-26T00:07:38.155Z</time>
      </trkpt>
      <trkpt lat="48.113696" lon="0.524229">
        <ele>84.564888</ele>
        <time>2025-06-26T00:07:41.283Z</time>
      </trkpt>
      <trkpt lat="48.113721" lon="0.525549">
        <ele>84.386116</ele>
        <time>2025-06-26T00:07:53.823Z</time>
      </trkpt>
      <trkpt lat="48.113593" lon="0.526566">
        <ele>84.377563</ele>
        <time>2025-06-26T00:08:03.810Z</time>
      </trkpt>
      <trkpt lat="48.113101" lon="0.528525">
        <ele>84.581349</ele>
        <time>2025-06-26T00:08:24.857Z</time>
      </trkpt>
      <trkpt lat="48.113016" lon="0.529086">
        <ele>84.730920</ele>
        <time>2025-06-26T00:08:31.210Z</time>
      </trkpt>
      <trkpt lat="48.112949" lon="0.530202">
        <ele>85.022258</ele>
        <time>2025-06-26T00:08:44.523Z</time>
      </trkpt>
      <trkpt lat="48.112831" lon="0.531172">
        <ele>85.012031</ele>
        <time>2025-06-26T00:08:55.443Z</time>
      </trkpt>
      <trkpt lat="48.112730" lon="0.531659">
        <ele>84.977182</ele>
        <time>2025-06-26T00:09:00.413Z</time>
      </trkpt>
      <trkpt lat="48.112221" lon="0.533300">
        <ele>84.759764</ele>
        <time>2025-06-26T00:09:16.607Z</time>
      </trkpt>
      <trkpt lat="48.111909" lon="0.534140">
        <ele>84.488005</ele>
        <time>2025-06-26T00:09:24.703Z</time>
      </trkpt>
      <trkpt lat="48.111777" lon="0.534391">
        <ele>84.397673</ele>
        <time>2025-06-26T00:09:27.398Z</time>
      </trkpt>
      <trkpt lat="48.111427" lon="0.534882">
        <ele>84.194611</ele>
        <time>2025-06-26T00:09:33.993Z</time>
      </trkpt>
      <trkpt lat="48.110958" lon="0.535610">
        <ele>84.927556</ele>
        <time>2025-06-26T00:09:44.518Z</time>
      </trkpt>
      <trkpt lat="48.110791" lon="0.535880">
        <ele>85.320810</ele>
        <time>2025-06-26T00:09:49.070Z</time>
      </trkpt>
      <trkpt lat="48.110680" lon="0.536062">
        <ele>85.584191</ele>
        <time>2025-06-26T00:09:52.328Z</time>
      </trkpt>
      <trkpt lat="48.110340" lon="0.536399">
        <ele>86.236648</ele>
        <time>2025-06-26T00:10:01.155Z</time>
      </trkpt>
      <trkpt lat="48.109559" lon="0.537035">
        <ele>88.439443</ele>
        <time>2025-06-26T00:10:26.454Z</time>
      </trkpt>
      <trkpt lat="48.109513" lon="0.537138">
        <ele>88.728568</ele>
        <time>2025-06-26T00:10:29.105Z</time>
      </trkpt>
      <trkpt lat="48.109515" lon="0.537294">
        <ele>89.092621</ele>
        <time>2025-06-26T00:10:32.416Z</time>
      </trkpt>
      <trkpt lat="48.109551" lon="0.537493">
        <ele>89.573675</ele>
        <time>2025-06-26T00:10:36.848Z</time>
      </trkpt>
      <trkpt lat="48.109755" lon="0.538182">
        <ele>91.332237</ele>
        <time>2025-06-26T00:10:52.331Z</time>
      </trkpt>
      <trkpt lat="48.109768" lon="0.538347">
        <ele>91.719890</ele>
        <time>2025-06-26T00:10:55.619Z</time>
      </trkpt>
      <trkpt lat="48.109740" lon="0.538677">
        <ele>92.496048</ele>
        <time>2025-06-26T00:11:02.041Z</time>
      </trkpt>
      <trkpt lat="48.109746" lon="0.538997">
        <ele>93.242976</ele>
        <time>2025-06-26T00:11:08.035Z</time>
      </trkpt>
      <trkpt lat="48.109839" lon="0.539527">
        <ele>93.543321</ele>
        <time>2025-06-26T00:11:17.162Z</time>
      </trkpt>
      <trkpt lat="48.110115" lon="0.540235">
        <ele>93.942540</ele>
        <time>2025-06-26T00:11:27.730Z</time>
      </trkpt>
      <trkpt lat="48.110457" lon="0.541150">
        <ele>94.453158</ele>
        <time>2025-06-26T00:11:37.103Z</time>
      </trkpt>
      <trkpt lat="48.110695" lon="0.541777">
        <ele>94.409551</ele>
        <time>2025-06-26T00:11:43.215Z</time>
      </trkpt>
      <trkpt lat="48.110768" lon="0.542060">
        <ele>94.275945</ele>
        <time>2025-06-26T00:11:45.764Z</time>
      </trkpt>
      <trkpt lat="48.110843" lon="0.542713">
        <ele>93.984152</ele>
        <time>2025-06-26T00:11:51.309Z</time>
      </trkpt>
      <trkpt lat="48.111141" lon="0.543811">
        <ele>93.462194</ele>
        <time>2025-06-26T00:12:01.663Z</time>
      </trkpt>
      <trkpt lat="48.111528" lon="0.544786">
        <ele>92.549119</ele>
        <time>2025-06-26T00:12:11.581Z</time>
      </trkpt>
      <trkpt lat="48.111885" lon="0.545917">
        <ele>91.489684</ele>
        <time>2025-06-26T00:12:21.312Z</time>
      </trkpt>
      <trkpt lat="48.111923" lon="0.546140">
        <ele>91.294782</ele>
        <time>2025-06-26T00:12:23.000Z</time>
      </trkpt>
      <trkpt lat="48.111922" lon="0.546343">
        <ele>91.117565</ele>
        <time>2025-06-26T00:12:24.467Z</time>
      </trkpt>
      <trkpt lat="48.111867" lon="0.546669">
        <ele>90.602198</ele>
        <time>2025-06-26T00:12:26.865Z</time>
      </trkpt>
      <trkpt lat="48.111493" lon="0.548493">
        <ele>87.677671</ele>
        <time>2025-06-26T00:12:40.405Z</time>
      </trkpt>
      <trkpt lat="48.111239" lon="0.549768">
        <ele>85.780164</ele>
        <time>2025-06-26T00:12:50.025Z</time>
      </trkpt>
      <trkpt lat="48.110937" lon="0.551285">
        <ele>83.606515</ele>
        <time>2025-06-26T00:13:01.526Z</time>
      </trkpt>
      <trkpt lat="48.110885" lon="0.551618">
        <ele>83.252751</ele>
        <time>2025-06-26T00:13:04.004Z</time>
      </trkpt>
      <trkpt lat="48.110892" lon="0.551923">
        <ele>83.128596</ele>
        <time>2025-06-26T00:13:06.254Z</time>
      </trkpt>
      <trkpt lat="48.111143" lon="0.553211">
        <ele>82.582745</ele>
        <time>2025-06-26T00:13:17.199Z</time>
      </trkpt>
      <trkpt lat="48.111214" lon="0.553787">
        <ele>82.344455</ele>
        <time>2025-06-26T00:13:23.436Z</time>
      </trkpt>
      <trkpt lat="48.111400" lon="0.555832">
        <ele>83.065608</ele>
        <time>2025-06-26T00:13:50.328Z</time>
      </trkpt>
      <trkpt lat="48.111621" lon="0.558144">
        <ele>83.473723</ele>
        <time>2025-06-26T00:14:14.910Z</time>
      </trkpt>
      <trkpt lat="48.112023" lon="0.562411">
        <ele>82.467813</ele>
        <time>2025-06-26T00:14:53.319Z</time>
      </trkpt>
      <trkpt lat="48.112047" lon="0.562661">
        <ele>82.368132</ele>
        <time>2025-06-26T00:14:55.619Z</time>
      </trkpt>
      <trkpt lat="48.112076" lon="0.562953">
        <ele>82.251621</ele>
        <time>2025-06-26T00:14:58.335Z</time>
      </trkpt>
      <trkpt lat="48.112179" lon="0.563449">
        <ele>82.046616</ele>
        <time>2025-06-26T00:15:03.079Z</time>
      </trkpt>
      <trkpt lat="48.112343" lon="0.563910">
        <ele>81.840460</ele>
        <time>2025-06-26T00:15:07.695Z</time>
      </trkpt>
      <trkpt lat="48.112618" lon="0.564658">
        <ele>81.488029</ele>
        <time>2025-06-26T00:15:14.883Z</time>
      </trkpt>
      <trkpt lat="48.112840" lon="0.565061">
        <ele>81.054183</ele>
        <time>2025-06-26T00:15:19.083Z</time>
      </trkpt>
      <trkpt lat="48.113052" lon="0.565304">
        <ele>80.722162</ele>
        <time>2025-06-26T00:15:22.210Z</time>
      </trkpt>
      <trkpt lat="48.113493" lon="0.565651">
        <ele>80.102602</ele>
        <time>2025-06-26T00:15:27.943Z</time>
      </trkpt>
      <trkpt lat="48.113966" lon="0.566104">
        <ele>79.404342</ele>
        <time>2025-06-26T00:15:34.457Z</time>
      </trkpt>
      <trkpt lat="48.114937" lon="0.567450">
        <ele>78.243631</ele>
        <time>2025-06-26T00:15:50.749Z</time>
      </trkpt>
      <trkpt lat="48.115163" lon="0.567709">
        <ele>78.002471</ele>
        <time>2025-06-26T00:15:54.399Z</time>
      </trkpt>
      <trkpt lat="48.115784" lon="0.568208">
        <ele>77.677563</ele>
        <time>2025-06-26T00:16:03.816Z</time>
      </trkpt>
      <trkpt lat="48.116218" lon="0.568680">
        <ele>77.575793</ele>
        <time>2025-06-26T00:16:11.369Z</time>
      </trkpt>
      <trkpt lat="48.116542" lon="0.569063">
        <ele>77.497476</ele>
        <time>2025-06-26T00:16:17.394Z</time>
      </trkpt>
      <trkpt lat="48.116938" lon="0.569343">
        <ele>77.415535</ele>
        <time>2025-06-26T00:16:23.924Z</time>
      </trkpt>
      <trkpt lat="48.117131" lon="0.569534">
        <ele>77.483709</ele>
        <time>2025-06-26T00:16:27.394Z</time>
      </trkpt>
      <trkpt lat="48.117763" lon="0.570358">
        <ele>77.730648</ele>
        <time>2025-06-26T00:16:39.962Z</time>
      </trkpt>
      <trkpt lat="48.117897" lon="0.570471">
        <ele>77.775969</ele>
        <time>2025-06-26T00:16:42.491Z</time>
      </trkpt>
      <trkpt lat="48.118457" lon="0.570706">
        <ele>77.951705</ele>
        <time>2025-06-26T00:16:52.551Z</time>
      </trkpt>
      <trkpt lat="48.118800" lon="0.570758">
        <ele>78.234227</ele>
        <time>2025-06-26T00:16:58.832Z</time>
      </trkpt>
      <trkpt lat="48.119076" lon="0.570873">
        <ele>78.468994</ele>
        <time>2025-06-26T00:17:04.212Z</time>
      </trkpt>
      <trkpt lat="48.120100" lon="0.572135">
        <ele>79.414813</ele>
        <time>2025-06-26T00:17:28.876Z</time>
      </trkpt>
      <trkpt lat="48.120204" lon="0.572217">
        <ele>79.411933</ele>
        <time>2025-06-26T00:17:30.890Z</time>
      </trkpt>
      <trkpt lat="48.120364" lon="0.572279">
        <ele>79.407883</ele>
        <time>2025-06-26T00:17:33.648Z</time>
      </trkpt>
      <trkpt lat="48.121007" lon="0.572263">
        <ele>79.392124</ele>
        <time>2025-06-26T00:17:42.681Z</time>
      </trkpt>
      <trkpt lat="48.121354" lon="0.572245">
        <ele>79.383616</ele>
        <time>2025-06-26T00:17:47.195Z</time>
      </trkpt>
      <trkpt lat="48.122144" lon="0.572183">
        <ele>79.392643</ele>
        <time>2025-06-26T00:17:57.842Z</time>
      </trkpt>
      <trkpt lat="48.122371" lon="0.572142">
        <ele>79.402063</ele>
        <time>2025-06-26T00:18:01.000Z</time>
      </trkpt>
      <trkpt lat="48.122745" lon="0.572041">
        <ele>79.417721</ele>
        <time>2025-06-26T00:18:06.377Z</time>
      </trkpt>
      <trkpt lat="48.123878" lon="0.571572">
        <ele>79.663025</ele>
        <time>2025-06-26T00:18:26.662Z</time>
      </trkpt>
      <trkpt lat="48.125861" lon="0.570771">
        <ele>80.594481</ele>
        <time>2025-06-26T00:19:01.051Z</time>
      </trkpt>
      <trkpt lat="48.126423" lon="0.570672">
        <ele>80.782887</ele>
        <time>2025-06-26T00:19:09.993Z</time>
      </trkpt>
      <trkpt lat="48.126618" lon="0.570698">
        <ele>80.848069</ele>
        <time>2025-06-26T00:19:12.984Z</time>
      </trkpt>
      <trkpt lat="48.126772" lon="0.570753">
        <ele>80.900780</ele>
        <time>2025-06-26T00:19:15.370Z</time>
      </trkpt>
      <trkpt lat="48.127930" lon="0.571511">
        <ele>81.338207</ele>
        <time>2025-06-26T00:19:35.158Z</time>
      </trkpt>
      <trkpt lat="48.128084" lon="0.571590">
        <ele>81.394969</ele>
        <time>2025-06-26T00:19:37.842Z</time>
      </trkpt>
      <trkpt lat="48.128330" lon="0.571634">
        <ele>81.481362</ele>
        <time>2025-06-26T00:19:41.969Z</time>
      </trkpt>
      <trkpt lat="48.128420" lon="0.571645">
        <ele>81.512850</ele>
        <time>2025-06-26T00:19:43.544Z</time>
      </trkpt>
      <trkpt lat="48.128740" lon="0.571700">
        <ele>81.674863</ele>
        <time>2025-06-26T00:19:49.093Z</time>
      </trkpt>
      <trkpt lat="48.129337" lon="0.571981">
        <ele>82.270574</ele>
        <time>2025-06-26T00:20:00.562Z</time>
      </trkpt>
      <trkpt lat="48.129464" lon="0.572004">
        <ele>82.392354</ele>
        <time>2025-06-26T00:20:02.892Z</time>
      </trkpt>
      <trkpt lat="48.129770" lon="0.572009">
        <ele>82.683674</ele>
        <time>2025-06-26T00:20:08.360Z</time>
      </trkpt>
      <trkpt lat="48.130705" lon="0.571902">
        <ele>83.567932</ele>
        <time>2025-06-26T00:20:26.954Z</time>
      </trkpt>
      <trkpt lat="48.130964" lon="0.571842">
        <ele>83.809568</ele>
        <time>2025-06-26T00:20:32.279Z</time>
      </trkpt>
      <trkpt lat="48.131205" lon="0.571658">
        <ele>84.058957</ele>
        <time>2025-06-26T00:20:37.714Z</time>
      </trkpt>
      <trkpt lat="48.131449" lon="0.571342">
        <ele>84.356320</ele>
        <time>2025-06-26T00:20:44.103Z</time>
      </trkpt>
      <trkpt lat="48.132086" lon="0.569985">
        <ele>84.715438</ele>
        <time>2025-06-26T00:21:02.232Z</time>
      </trkpt>
      <trkpt lat="48.132244" lon="0.570028">
        <ele>84.624613</ele>
        <time>2025-06-26T00:21:04.318Z</time>
      </trkpt>
      <trkpt lat="48.132357" lon="0.570181">
        <ele>84.538472</ele>
        <time>2025-06-26T00:21:06.263Z</time>
      </trkpt>
      <trkpt lat="48.132460" lon="0.570848">
        <ele>84.280042</ele>
        <time>2025-06-26T00:21:11.975Z</time>
      </trkpt>
      <trkpt lat="48.132535" lon="0.571172">
        <ele>84.150592</ele>
        <time>2025-06-26T00:21:14.759Z</time>
      </trkpt>
      <trkpt lat="48.132657" lon="0.571554">
        <ele>83.990736</ele>
        <time>2025-06-26T00:21:18.137Z</time>
      </trkpt>
      <trkpt lat="48.132723" lon="0.571669">
        <ele>83.923722</ele>
        <time>2025-06-26T00:21:19.340Z</time>
      </trkpt>
      <trkpt lat="48.132841" lon="0.571813">
        <ele>83.786035</ele>
        <time>2025-06-26T00:21:21.131Z</time>
      </trkpt>
      <trkpt lat="48.133083" lon="0.572023">
        <ele>83.533022</ele>
        <time>2025-06-26T00:21:24.535Z</time>
      </trkpt>
      <trkpt lat="48.133700" lon="0.572493">
        <ele>82.906805</ele>
        <time>2025-06-26T00:21:33.254Z</time>
      </trkpt>
      <trkpt lat="48.135702" lon="0.574026">
        <ele>81.029728</ele>
        <time>2025-06-26T00:22:01.232Z</time>
      </trkpt>
      <trkpt lat="48.136182" lon="0.574437">
        <ele>80.768019</ele>
        <time>2025-06-26T00:22:08.536Z</time>
      </trkpt>
      <trkpt lat="48.138561" lon="0.576877">
        <ele>80.070561</ele>
        <time>2025-06-26T00:22:49.334Z</time>
      </trkpt>
      <trkpt lat="48.139113" lon="0.577396">
        <ele>80.030003</ele>
        <time>2025-06-26T00:22:58.329Z</time>
      </trkpt>
      <trkpt lat="48.140087" lon="0.578114">
        <ele>80.136396</ele>
        <time>2025-06-26T00:23:14.115Z</time>
      </trkpt>
      <trkpt lat="48.141316" lon="0.579212">
        <ele>81.016386</ele>
        <time>2025-06-26T00:23:39.706Z</time>
      </trkpt>
      <trkpt lat="48.141724" lon="0.579602">
        <ele>81.417723</ele>
        <time>2025-06-26T00:23:48.721Z</time>
      </trkpt>
      <trkpt lat="48.141949" lon="0.579871">
        <ele>81.656426</ele>
        <time>2025-06-26T00:23:54.073Z</time>
      </trkpt>
      <trkpt lat="48.142124" lon="0.580129">
        <ele>81.955218</ele>
        <time>2025-06-26T00:23:58.639Z</time>
      </trkpt>
      <trkpt lat="48.142299" lon="0.580575">
        <ele>82.384359</ele>
        <time>2025-06-26T00:24:05.084Z</time>
      </trkpt>
      <trkpt lat="48.142781" lon="0.582158">
        <ele>83.827571</ele>
        <time>2025-06-26T00:24:28.253Z</time>
      </trkpt>
      <trkpt lat="48.142937" lon="0.582535">
        <ele>84.138548</ele>
        <time>2025-06-26T00:24:34.957Z</time>
      </trkpt>
      <trkpt lat="48.143409" lon="0.583499">
        <ele>84.935923</ele>
        <time>2025-06-26T00:24:51.840Z</time>
      </trkpt>
      <trkpt lat="48.143480" lon="0.583697">
        <ele>85.085823</ele>
        <time>2025-06-26T00:24:54.662Z</time>
      </trkpt>
      <trkpt lat="48.143558" lon="0.584017">
        <ele>85.313016</ele>
        <time>2025-06-26T00:24:58.665Z</time>
      </trkpt>
      <trkpt lat="48.143711" lon="0.584992">
        <ele>85.597012</ele>
        <time>2025-06-26T00:25:08.668Z</time>
      </trkpt>
      <trkpt lat="48.143729" lon="0.585093">
        <ele>85.570623</ele>
        <time>2025-06-26T00:25:09.568Z</time>
      </trkpt>
      <trkpt lat="48.143868" lon="0.586229">
        <ele>85.279079</ele>
        <time>2025-06-26T00:25:19.277Z</time>
      </trkpt>
      <trkpt lat="48.144138" lon="0.587306">
        <ele>85.071503</ele>
        <time>2025-06-26T00:25:29.585Z</time>
      </trkpt>
      <trkpt lat="48.144274" lon="0.588054">
        <ele>85.362091</ele>
        <time>2025-06-26T00:25:37.240Z</time>
      </trkpt>
      <trkpt lat="48.144355" lon="0.588705">
        <ele>85.610305</ele>
        <time>2025-06-26T00:25:44.658Z</time>
      </trkpt>
      <trkpt lat="48.144423" lon="0.589564">
        <ele>85.934534</ele>
        <time>2025-06-26T00:25:55.622Z</time>
      </trkpt>
      <trkpt lat="48.144576" lon="0.590844">
        <ele>86.887421</ele>
        <time>2025-06-26T00:26:13.639Z</time>
      </trkpt>
      <trkpt lat="48.144680" lon="0.591296">
        <ele>87.280749</ele>
        <time>2025-06-26T00:26:20.697Z</time>
      </trkpt>
      <trkpt lat="48.144816" lon="0.591605">
        <ele>87.585269</ele>
        <time>2025-06-26T00:26:26.145Z</time>
      </trkpt>
      <trkpt lat="48.145433" lon="0.592787">
        <ele>87.856234</ele>
        <time>2025-06-26T00:26:43.866Z</time>
      </trkpt>
      <trkpt lat="48.145748" lon="0.593343">
        <ele>87.441776</ele>
        <time>2025-06-26T00:26:49.911Z</time>
      </trkpt>
      <trkpt lat="48.146453" lon="0.594266">
        <ele>86.695747</ele>
        <time>2025-06-26T00:27:00.291Z</time>
      </trkpt>
      <trkpt lat="48.146715" lon="0.594655">
        <ele>86.600045</ele>
        <time>2025-06-26T00:27:04.359Z</time>
      </trkpt>
      <trkpt lat="48.146836" lon="0.594967">
        <ele>86.537561</ele>
        <time>2025-06-26T00:27:07.192Z</time>
      </trkpt>
      <trkpt lat="48.147040" lon="0.595837">
        <ele>86.377895</ele>
        <time>2025-06-26T00:27:15.916Z</time>
      </trkpt>
      <trkpt lat="48.147188" lon="0.596130">
        <ele>86.314266</ele>
        <time>2025-06-26T00:27:20.353Z</time>
      </trkpt>
      <trkpt lat="48.147373" lon="0.596430">
        <ele>86.280221</ele>
        <time>2025-06-26T00:27:26.079Z</time>
      </trkpt>
      <trkpt lat="48.147872" lon="0.597034">
        <ele>86.887672</ele>
        <time>2025-06-26T00:27:41.601Z</time>
      </trkpt>
      <trkpt lat="48.148195" lon="0.597346">
        <ele>87.251596</ele>
        <time>2025-06-26T00:27:49.743Z</time>
      </trkpt>
      <trkpt lat="48.148271" lon="0.597419">
        <ele>87.337085</ele>
        <time>2025-06-26T00:27:51.331Z</time>
      </trkpt>
      <trkpt lat="48.148491" lon="0.597605">
        <ele>87.576299</ele>
        <time>2025-06-26T00:27:55.196Z</time>
      </trkpt>
      <trkpt lat="48.148590" lon="0.597689">
        <ele>87.684039</ele>
        <time>2025-06-26T00:27:56.857Z</time>
      </trkpt>
      <trkpt lat="48.148791" lon="0.597859">
        <ele>87.902614</ele>
        <time>2025-06-26T00:28:00.118Z</time>
      </trkpt>
      <trkpt lat="48.149252" lon="0.598524">
        <ele>87.896835</ele>
        <time>2025-06-26T00:28:08.205Z</time>
      </trkpt>
      <trkpt lat="48.149905" lon="0.599339">
        <ele>87.812536</ele>
        <time>2025-06-26T00:28:18.943Z</time>
      </trkpt>
      <trkpt lat="48.150273" lon="0.599661">
        <ele>87.851619</ele>
        <time>2025-06-26T00:28:27.634Z</time>
      </trkpt>
      <trkpt lat="48.151272" lon="0.600283">
        <ele>89.165802</ele>
        <time>2025-06-26T00:28:51.892Z</time>
      </trkpt>
      <trkpt lat="48.151544" lon="0.600545">
        <ele>89.558592</ele>
        <time>2025-06-26T00:28:58.319Z</time>
      </trkpt>
      <trkpt lat="48.151730" lon="0.600830">
        <ele>89.881728</ele>
        <time>2025-06-26T00:29:03.084Z</time>
      </trkpt>
      <trkpt lat="48.152739" lon="0.602590">
        <ele>89.323811</ele>
        <time>2025-06-26T00:29:23.801Z</time>
      </trkpt>
      <trkpt lat="48.153495" lon="0.603758">
        <ele>88.597452</ele>
        <time>2025-06-26T00:29:36.880Z</time>
      </trkpt>
      <trkpt lat="48.153609" lon="0.603908">
        <ele>88.481079</ele>
        <time>2025-06-26T00:29:38.740Z</time>
      </trkpt>
      <trkpt lat="48.153799" lon="0.604226">
        <ele>88.262595</ele>
        <time>2025-06-26T00:29:42.355Z</time>
      </trkpt>
      <trkpt lat="48.153988" lon="0.604746">
        <ele>87.959523</ele>
        <time>2025-06-26T00:29:47.660Z</time>
      </trkpt>
      <trkpt lat="48.154092" lon="0.604961">
        <ele>87.823604</ele>
        <time>2025-06-26T00:29:50.094Z</time>
      </trkpt>
      <trkpt lat="48.154661" lon="0.605465">
        <ele>87.411828</ele>
        <time>2025-06-26T00:29:59.385Z</time>
      </trkpt>
      <trkpt lat="48.154768" lon="0.605679">
        <ele>87.301489</ele>
        <time>2025-06-26T00:30:01.918Z</time>
      </trkpt>
      <trkpt lat="48.154843" lon="0.605915">
        <ele>87.193637</ele>
        <time>2025-06-26T00:30:04.353Z</time>
      </trkpt>
      <trkpt lat="48.154983" lon="0.606564">
        <ele>86.912222</ele>
        <time>2025-06-26T00:30:10.239Z</time>
      </trkpt>
      <trkpt lat="48.155226" lon="0.607289">
        <ele>86.435501</ele>
        <time>2025-06-26T00:30:16.547Z</time>
      </trkpt>
      <trkpt lat="48.155701" lon="0.608276">
        <ele>85.329893</ele>
        <time>2025-06-26T00:30:25.855Z</time>
      </trkpt>
      <trkpt lat="48.155928" lon="0.608748">
        <ele>84.801297</ele>
        <time>2025-06-26T00:30:30.437Z</time>
      </trkpt>
      <trkpt lat="48.156160" lon="0.609338">
        <ele>84.159618</ele>
        <time>2025-06-26T00:30:36.046Z</time>
      </trkpt>
      <trkpt lat="48.156754" lon="0.610654">
        <ele>82.296498</ele>
        <time>2025-06-26T00:30:47.994Z</time>
      </trkpt>
      <trkpt lat="48.156792" lon="0.610816">
        <ele>82.095143</ele>
        <time>2025-06-26T00:30:49.218Z</time>
      </trkpt>
      <trkpt lat="48.156796" lon="0.610974">
        <ele>81.909746</ele>
        <time>2025-06-26T00:30:50.357Z</time>
      </trkpt>
      <trkpt lat="48.156771" lon="0.611126">
        <ele>81.726181</ele>
        <time>2025-06-26T00:30:51.481Z</time>
      </trkpt>
      <trkpt lat="48.156709" lon="0.611264">
        <ele>81.531093</ele>
        <time>2025-06-26T00:30:52.676Z</time>
      </trkpt>
      <trkpt lat="48.156642" lon="0.611399">
        <ele>81.333796</ele>
        <time>2025-06-26T00:30:53.889Z</time>
      </trkpt>
      <trkpt lat="48.156603" lon="0.611524">
        <ele>81.171988</ele>
        <time>2025-06-26T00:30:54.884Z</time>
      </trkpt>
      <trkpt lat="48.156588" lon="0.611688">
        <ele>81.043428</ele>
        <time>2025-06-26T00:30:56.092Z</time>
      </trkpt>
      <trkpt lat="48.156610" lon="0.611860">
        <ele>80.963985</ele>
        <time>2025-06-26T00:30:57.367Z</time>
      </trkpt>
      <trkpt lat="48.156687" lon="0.612054">
        <ele>80.861585</ele>
        <time>2025-06-26T00:30:59.039Z</time>
      </trkpt>
      <trkpt lat="48.157234" lon="0.612594">
        <ele>80.416219</ele>
        <time>2025-06-26T00:31:06.768Z</time>
      </trkpt>
      <trkpt lat="48.157520" lon="0.612943">
        <ele>80.165454</ele>
        <time>2025-06-26T00:31:12.355Z</time>
      </trkpt>
      <trkpt lat="48.160060" lon="0.616860">
        <ele>81.888295</ele>
        <time>2025-06-26T00:32:16.658Z</time>
      </trkpt>
      <trkpt lat="48.160468" lon="0.617606">
        <ele>82.161739</ele>
        <time>2025-06-26T00:32:26.679Z</time>
      </trkpt>
      <trkpt lat="48.161263" lon="0.619428">
        <ele>82.451670</ele>
        <time>2025-06-26T00:32:48.523Z</time>
      </trkpt>
      <trkpt lat="48.161441" lon="0.619746">
        <ele>82.602280</ele>
        <time>2025-06-26T00:32:53.164Z</time>
      </trkpt>
      <trkpt lat="48.162559" lon="0.620995">
        <ele>83.644069</ele>
        <time>2025-06-26T00:33:18.808Z</time>
      </trkpt>
      <trkpt lat="48.162720" lon="0.621215">
        <ele>83.806838</ele>
        <time>2025-06-26T00:33:22.863Z</time>
      </trkpt>
      <trkpt lat="48.162977" lon="0.621676">
        <ele>83.714073</ele>
        <time>2025-06-26T00:33:30.079Z</time>
      </trkpt>
      <trkpt lat="48.163577" lon="0.622464">
        <ele>83.504456</ele>
        <time>2025-06-26T00:33:41.932Z</time>
      </trkpt>
      <trkpt lat="48.163718" lon="0.622701">
        <ele>83.448790</ele>
        <time>2025-06-26T00:33:44.621Z</time>
      </trkpt>
      <trkpt lat="48.164090" lon="0.623578">
        <ele>82.948425</ele>
        <time>2025-06-26T00:33:52.666Z</time>
      </trkpt>
      <trkpt lat="48.164352" lon="0.624036">
        <ele>82.404711</ele>
        <time>2025-06-26T00:33:57.062Z</time>
      </trkpt>
      <trkpt lat="48.164513" lon="0.624594">
        <ele>81.856856</ele>
        <time>2025-06-26T00:34:01.577Z</time>
      </trkpt>
      <trkpt lat="48.164599" lon="0.624781">
        <ele>81.652174</ele>
        <time>2025-06-26T00:34:03.320Z</time>
      </trkpt>
      <trkpt lat="48.164723" lon="0.624970">
        <ele>81.413279</ele>
        <time>2025-06-26T00:34:05.412Z</time>
      </trkpt>
      <trkpt lat="48.164861" lon="0.625111">
        <ele>81.187661</ele>
        <time>2025-06-26T00:34:07.440Z</time>
      </trkpt>
      <trkpt lat="48.164945" lon="0.625190">
        <ele>81.053696</ele>
        <time>2025-06-26T00:34:08.683Z</time>
      </trkpt>
      <trkpt lat="48.165029" lon="0.625256">
        <ele>80.925571</ele>
        <time>2025-06-26T00:34:09.891Z</time>
      </trkpt>
      <trkpt lat="48.165353" lon="0.625538">
        <ele>80.935696</ele>
        <time>2025-06-26T00:34:14.956Z</time>
      </trkpt>
      <trkpt lat="48.165571" lon="0.625783">
        <ele>80.952261</ele>
        <time>2025-06-26T00:34:19.075Z</time>
      </trkpt>
      <trkpt lat="48.166326" lon="0.626818">
        <ele>81.014463</ele>
        <time>2025-06-26T00:34:36.062Z</time>
      </trkpt>
      <trkpt lat="48.167645" lon="0.628518">
        <ele>81.868731</ele>
        <time>2025-06-26T00:35:03.860Z</time>
      </trkpt>
      <trkpt lat="48.168235" lon="0.629121">
        <ele>83.065790</ele>
        <time>2025-06-26T00:35:18.191Z</time>
      </trkpt>
      <trkpt lat="48.168898" lon="0.627473">
        <ele>85.779249</ele>
        <time>2025-06-26T00:35:50.233Z</time>
      </trkpt>
      <trkpt lat="48.169449" lon="0.626189">
        <ele>88.244871</ele>
        <time>2025-06-26T00:36:16.843Z</time>
      </trkpt>
      <trkpt lat="48.169638" lon="0.625730">
        <ele>89.115978</ele>
        <time>2025-06-26T00:36:25.833Z</time>
      </trkpt>
      <trkpt lat="48.169915" lon="0.625082">
        <ele>90.148656</ele>
        <time>2025-06-26T00:36:37.574Z</time>
      </trkpt>
      <trkpt lat="48.170206" lon="0.624730">
        <ele>90.225931</ele>
        <time>2025-06-26T00:36:44.920Z</time>
      </trkpt>
      <trkpt lat="48.170318" lon="0.624725">
        <ele>90.249090</ele>
        <time>2025-06-26T00:36:46.907Z</time>
      </trkpt>
      <trkpt lat="48.170541" lon="0.625061">
        <ele>90.314429</ele>
        <time>2025-06-26T00:36:52.065Z</time>
      </trkpt>
      <trkpt lat="48.170615" lon="0.625219">
        <ele>90.341041</ele>
        <time>2025-06-26T00:36:53.992Z</time>
      </trkpt>
      <trkpt lat="48.171583" lon="0.627255">
        <ele>89.930476</ele>
        <time>2025-06-26T00:37:14.665Z</time>
      </trkpt>
      <trkpt lat="48.171825" lon="0.627637">
        <ele>89.706494</ele>
        <time>2025-06-26T00:37:19.110Z</time>
      </trkpt>
      <trkpt lat="48.172117" lon="0.627972">
        <ele>89.472128</ele>
        <time>2025-06-26T00:37:23.961Z</time>
      </trkpt>
      <trkpt lat="48.173769" lon="0.629552">
        <ele>89.679309</ele>
        <time>2025-06-26T00:37:54.302Z</time>
      </trkpt>
      <trkpt lat="48.174451" lon="0.629998">
        <ele>90.031145</ele>
        <time>2025-06-26T00:38:06.999Z</time>
      </trkpt>
      <trkpt lat="48.175379" lon="0.630478">
        <ele>90.504889</ele>
        <time>2025-06-26T00:38:23.806Z</time>
      </trkpt>
      <trkpt lat="48.175532" lon="0.630629">
        <ele>90.602928</ele>
        <time>2025-06-26T00:38:26.874Z</time>
      </trkpt>
      <trkpt lat="48.175697" lon="0.630844">
        <ele>90.732921</ele>
        <time>2025-06-26T00:38:30.518Z</time>
      </trkpt>
      <trkpt lat="48.176232" lon="0.631602">
        <ele>91.170626</ele>
        <time>2025-06-26T00:38:43.070Z</time>
      </trkpt>
      <trkpt lat="48.176638" lon="0.632062">
        <ele>91.473235</ele>
        <time>2025-06-26T00:38:52.147Z</time>
      </trkpt>
      <trkpt lat="48.178097" lon="0.633445">
        <ele>91.827849</ele>
        <time>2025-06-26T00:39:21.783Z</time>
      </trkpt>
      <trkpt lat="48.179276" lon="0.634270">
        <ele>90.309013</ele>
        <time>2025-06-26T00:39:36.865Z</time>
      </trkpt>
      <trkpt lat="48.179416" lon="0.634401">
        <ele>90.045499</ele>
        <time>2025-06-26T00:39:38.637Z</time>
      </trkpt>
      <trkpt lat="48.179549" lon="0.634577">
        <ele>89.762249</ele>
        <time>2025-06-26T00:39:40.534Z</time>
      </trkpt>
      <trkpt lat="48.179639" lon="0.634780">
        <ele>89.502673</ele>
        <time>2025-06-26T00:39:42.287Z</time>
      </trkpt>
      <trkpt lat="48.179641" lon="0.635121">
        <ele>89.139558</ele>
        <time>2025-06-26T00:39:44.780Z</time>
      </trkpt>
      <trkpt lat="48.179592" lon="0.635767">
        <ele>88.738756</ele>
        <time>2025-06-26T00:39:49.663Z</time>
      </trkpt>
      <trkpt lat="48.179605" lon="0.636145">
        <ele>88.548054</ele>
        <time>2025-06-26T00:39:52.602Z</time>
      </trkpt>
      <trkpt lat="48.179651" lon="0.636355">
        <ele>88.436687</ele>
        <time>2025-06-26T00:39:54.342Z</time>
      </trkpt>
      <trkpt lat="48.179751" lon="0.636563">
        <ele>88.307491</ele>
        <time>2025-06-26T00:39:56.369Z</time>
      </trkpt>
      <trkpt lat="48.179849" lon="0.636672">
        <ele>88.215300</ele>
        <time>2025-06-26T00:39:57.871Z</time>
      </trkpt>
      <trkpt lat="48.180670" lon="0.637212">
        <ele>87.761721</ele>
        <time>2025-06-26T00:40:11.314Z</time>
      </trkpt>
      <trkpt lat="48.182766" lon="0.638575">
        <ele>89.241395</ele>
        <time>2025-06-26T00:40:54.895Z</time>
      </trkpt>
      <trkpt lat="48.183611" lon="0.639080">
        <ele>89.274754</ele>
        <time>2025-06-26T00:41:07.629Z</time>
      </trkpt>
      <trkpt lat="48.184135" lon="0.639240">
        <ele>88.982550</ele>
        <time>2025-06-26T00:41:14.070Z</time>
      </trkpt>
      <trkpt lat="48.185327" lon="0.639849">
        <ele>87.567549</ele>
        <time>2025-06-26T00:41:28.944Z</time>
      </trkpt>
      <trkpt lat="48.185447" lon="0.639892">
        <ele>87.428913</ele>
        <time>2025-06-26T00:41:30.426Z</time>
      </trkpt>
      <trkpt lat="48.185552" lon="0.640010">
        <ele>87.281482</ele>
        <time>2025-06-26T00:41:32.000Z</time>
      </trkpt>
      <trkpt lat="48.185617" lon="0.640143">
        <ele>87.200521</ele>
        <time>2025-06-26T00:41:33.329Z</time>
      </trkpt>
      <trkpt lat="48.185783" lon="0.640065">
        <ele>87.083967</ele>
        <time>2025-06-26T00:41:35.476Z</time>
      </trkpt>
      <trkpt lat="48.185898" lon="0.640074">
        <ele>87.006809</ele>
        <time>2025-06-26T00:41:36.904Z</time>
      </trkpt>
      <trkpt lat="48.186059" lon="0.640168">
        <ele>86.891051</ele>
        <time>2025-06-26T00:41:39.066Z</time>
      </trkpt>
      <trkpt lat="48.186880" lon="0.640657">
        <ele>86.299175</ele>
        <time>2025-06-26T00:41:50.872Z</time>
      </trkpt>
      <trkpt lat="48.187197" lon="0.640955">
        <ele>86.045722</ele>
        <time>2025-06-26T00:41:55.966Z</time>
      </trkpt>
      <trkpt lat="48.187412" lon="0.641306">
        <ele>85.772047</ele>
        <time>2025-06-26T00:42:00.100Z</time>
      </trkpt>
      <trkpt lat="48.187457" lon="0.641414">
        <ele>85.698924</ele>
        <time>2025-06-26T00:42:01.169Z</time>
      </trkpt>
      <trkpt lat="48.187602" lon="0.641715">
        <ele>85.485708</ele>
        <time>2025-06-26T00:42:04.192Z</time>
      </trkpt>
      <trkpt lat="48.187563" lon="0.642077">
        <ele>85.275167</ele>
        <time>2025-06-26T00:42:07.121Z</time>
      </trkpt>
      <trkpt lat="48.187554" lon="0.642690">
        <ele>84.923123</ele>
        <time>2025-06-26T00:42:12.153Z</time>
      </trkpt>
      <trkpt lat="48.187512" lon="0.643292">
        <ele>84.575593</ele>
        <time>2025-06-26T00:42:17.143Z</time>
      </trkpt>
      <trkpt lat="48.187502" lon="0.643409">
        <ele>84.508784</ele>
        <time>2025-06-26T00:42:18.085Z</time>
      </trkpt>
      <trkpt lat="48.187462" lon="0.643875">
        <ele>84.413439</ele>
        <time>2025-06-26T00:42:21.917Z</time>
      </trkpt>
      <trkpt lat="48.187424" lon="0.644211">
        <ele>84.344281</ele>
        <time>2025-06-26T00:42:24.809Z</time>
      </trkpt>
      <trkpt lat="48.187354" lon="0.644516">
        <ele>84.278823</ele>
        <time>2025-06-26T00:42:27.577Z</time>
      </trkpt>
      <trkpt lat="48.187057" lon="0.645607">
        <ele>84.039682</ele>
        <time>2025-06-26T00:42:39.300Z</time>
      </trkpt>
      <trkpt lat="48.186951" lon="0.645937">
        <ele>83.965348</ele>
        <time>2025-06-26T00:42:43.081Z</time>
      </trkpt>
      <trkpt lat="48.186902" lon="0.646110">
        <ele>84.001499</ele>
        <time>2025-06-26T00:42:45.028Z</time>
      </trkpt>
      <trkpt lat="48.186838" lon="0.646520">
        <ele>84.099473</ele>
        <time>2025-06-26T00:42:49.438Z</time>
      </trkpt>
      <trkpt lat="48.186596" lon="0.648118">
        <ele>84.480748</ele>
        <time>2025-06-26T00:43:07.083Z</time>
      </trkpt>
      <trkpt lat="48.186540" lon="0.648406">
        <ele>84.550548</ele>
        <time>2025-06-26T00:43:10.488Z</time>
      </trkpt>
      <trkpt lat="48.186498" lon="0.648587">
        <ele>84.597594</ele>
        <time>2025-06-26T00:43:12.680Z</time>
      </trkpt>
      <trkpt lat="48.186468" lon="0.648893">
        <ele>84.700938</ele>
        <time>2025-06-26T00:43:16.257Z</time>
      </trkpt>
      <trkpt lat="48.186442" lon="0.649157">
        <ele>84.790106</ele>
        <time>2025-06-26T00:43:19.265Z</time>
      </trkpt>
      <trkpt lat="48.186436" lon="0.649324">
        <ele>84.845987</ele>
        <time>2025-06-26T00:43:21.237Z</time>
      </trkpt>
      <trkpt lat="48.186441" lon="0.649427">
        <ele>84.880494</ele>
        <time>2025-06-26T00:43:22.378Z</time>
      </trkpt>
      <trkpt lat="48.186453" lon="0.649502">
        <ele>84.906265</ele>
        <time>2025-06-26T00:43:23.281Z</time>
      </trkpt>
      <trkpt lat="48.186545" lon="0.650112">
        <ele>85.115236</ele>
        <time>2025-06-26T00:43:30.310Z</time>
      </trkpt>
      <trkpt lat="48.186560" lon="0.650204">
        <ele>85.146882</ele>
        <time>2025-06-26T00:43:31.399Z</time>
      </trkpt>
      <trkpt lat="48.186597" lon="0.650443">
        <ele>85.228864</ele>
        <time>2025-06-26T00:43:34.127Z</time>
      </trkpt>
      <trkpt lat="48.186673" lon="0.650620">
        <ele>85.299209</ele>
        <time>2025-06-26T00:43:36.434Z</time>
      </trkpt>
      <trkpt lat="48.186637" lon="0.650642">
        <ele>85.318691</ele>
        <time>2025-06-26T00:43:37.053Z</time>
      </trkpt>
      <trkpt lat="48.186634" lon="0.650909">
        <ele>85.407916</ele>
        <time>2025-06-26T00:43:44.203Z</time>
      </trkpt>
      <trkpt lat="48.186637" lon="0.650642">
        <ele>85.492356</ele>
        <time>2025-06-26T00:43:51.026Z</time>
      </trkpt>
      <trkpt lat="48.186673" lon="0.650620">
        <ele>85.496828</ele>
        <time>2025-06-26T00:43:51.635Z</time>
      </trkpt>
      <trkpt lat="48.186857" lon="0.650956">
        <ele>85.530177</ele>
        <time>2025-06-26T00:43:56.480Z</time>
      </trkpt>
      <trkpt lat="48.186913" lon="0.651063">
        <ele>85.540610</ele>
        <time>2025-06-26T00:43:58.064Z</time>
      </trkpt>
      <trkpt lat="48.187166" lon="0.651558">
        <ele>85.588447</ele>
        <time>2025-06-26T00:44:04.400Z</time>
      </trkpt>
      <trkpt lat="48.187263" lon="0.651696">
        <ele>85.603827</ele>
        <time>2025-06-26T00:44:06.270Z</time>
      </trkpt>
      <trkpt lat="48.187262" lon="0.652181">
        <ele>85.641025</ele>
        <time>2025-06-26T00:44:10.789Z</time>
      </trkpt>
      <trkpt lat="48.187223" lon="0.652460">
        <ele>85.662889</ele>
        <time>2025-06-26T00:44:14.575Z</time>
      </trkpt>
      <trkpt lat="48.187133" lon="0.653037">
        <ele>85.773703</ele>
        <time>2025-06-26T00:44:22.546Z</time>
      </trkpt>
      <trkpt lat="48.187078" lon="0.653360">
        <ele>85.958544</ele>
        <time>2025-06-26T00:44:27.363Z</time>
      </trkpt>
      <trkpt lat="48.187051" lon="0.653500">
        <ele>86.039351</ele>
        <time>2025-06-26T00:44:29.494Z</time>
      </trkpt>
      <trkpt lat="48.187033" lon="0.653592">
        <ele>86.092513</ele>
        <time>2025-06-26T00:44:30.875Z</time>
      </trkpt>
      <trkpt lat="48.187009" lon="0.653717">
        <ele>86.164637</ele>
        <time>2025-06-26T00:44:32.746Z</time>
      </trkpt>
      <trkpt lat="48.186991" lon="0.653814">
        <ele>86.220465</ele>
        <time>2025-06-26T00:44:34.179Z</time>
      </trkpt>
      <trkpt lat="48.186965" lon="0.653949">
        <ele>86.298378</ele>
        <time>2025-06-26T00:44:36.142Z</time>
      </trkpt>
      <trkpt lat="48.186944" lon="0.654057">
        <ele>86.360755</ele>
        <time>2025-06-26T00:44:37.656Z</time>
      </trkpt>
      <trkpt lat="48.186923" lon="0.654245">
        <ele>86.466447</ele>
        <time>2025-06-26T00:44:40.194Z</time>
      </trkpt>
      <trkpt lat="48.186712" lon="0.655487">
        <ele>87.177099</ele>
        <time>2025-06-26T00:45:01.168Z</time>
      </trkpt>
      <trkpt lat="48.186632" lon="0.656023">
        <ele>88.250121</ele>
        <time>2025-06-26T00:45:10.469Z</time>
      </trkpt>
      <trkpt lat="48.186608" lon="0.656185">
        <ele>88.587692</ele>
        <time>2025-06-26T00:45:13.408Z</time>
      </trkpt>
      <trkpt lat="48.186451" lon="0.657089">
        <ele>90.487939</ele>
        <time>2025-06-26T00:45:30.475Z</time>
      </trkpt>
      <trkpt lat="48.186367" lon="0.657650">
        <ele>91.657531</ele>
        <time>2025-06-26T00:45:41.970Z</time>
      </trkpt>
      <trkpt lat="48.186439" lon="0.657665">
        <ele>91.879316</ele>
        <time>2025-06-26T00:45:44.217Z</time>
      </trkpt>
      <trkpt lat="48.186670" lon="0.657626">
        <ele>92.588560</ele>
        <time>2025-06-26T00:45:51.712Z</time>
      </trkpt>
      <trkpt lat="48.187048" lon="0.659239">
        <ele>95.693218</ele>
        <time>2025-06-26T00:46:22.918Z</time>
      </trkpt>
      <trkpt lat="48.187198" lon="0.659703">
        <ele>96.626510</ele>
        <time>2025-06-26T00:46:31.347Z</time>
      </trkpt>
      <trkpt lat="48.187580" lon="0.660419">
        <ele>97.850396</ele>
        <time>2025-06-26T00:46:44.253Z</time>
      </trkpt>
      <trkpt lat="48.187682" lon="0.660664">
        <ele>98.057638</ele>
        <time>2025-06-26T00:46:47.966Z</time>
      </trkpt>
      <trkpt lat="48.187742" lon="0.660908">
        <ele>98.244232</ele>
        <time>2025-06-26T00:46:51.254Z</time>
      </trkpt>
      <trkpt lat="48.187734" lon="0.661050">
        <ele>98.346478</ele>
        <time>2025-06-26T00:46:53.074Z</time>
      </trkpt>
      <trkpt lat="48.187685" lon="0.661124">
        <ele>98.421309</ele>
        <time>2025-06-26T00:46:54.405Z</time>
      </trkpt>
      <trkpt lat="48.187677" lon="0.661227">
        <ele>98.495709</ele>
        <time>2025-06-26T00:46:55.742Z</time>
      </trkpt>
      <trkpt lat="48.187729" lon="0.661331">
        <ele>98.588980</ele>
        <time>2025-06-26T00:46:57.416Z</time>
      </trkpt>
      <trkpt lat="48.187786" lon="0.661351">
        <ele>98.651979</ele>
        <time>2025-06-26T00:46:58.542Z</time>
      </trkpt>
      <trkpt lat="48.187838" lon="0.661837">
        <ele>99.005136</ele>
        <time>2025-06-26T00:47:04.775Z</time>
      </trkpt>
      <trkpt lat="48.187903" lon="0.662176">
        <ele>99.258220</ele>
        <time>2025-06-26T00:47:09.111Z</time>
      </trkpt>
      <trkpt lat="48.188071" lon="0.662731">
        <ele>99.443001</ele>
        <time>2025-06-26T00:47:15.983Z</time>
      </trkpt>
      <trkpt lat="48.188436" lon="0.663463">
        <ele>99.252654</ele>
        <time>2025-06-26T00:47:25.500Z</time>
      </trkpt>
      <trkpt lat="48.188683" lon="0.664078">
        <ele>99.103146</ele>
        <time>2025-06-26T00:47:31.901Z</time>
      </trkpt>
      <trkpt lat="48.188752" lon="0.664251">
        <ele>99.061167</ele>
        <time>2025-06-26T00:47:33.583Z</time>
      </trkpt>
      <trkpt lat="48.189323" lon="0.665745">
        <ele>98.554234</ele>
        <time>2025-06-26T00:47:47.144Z</time>
      </trkpt>
      <trkpt lat="48.189639" lon="0.666860">
        <ele>98.142998</ele>
        <time>2025-06-26T00:47:57.976Z</time>
      </trkpt>
      <trkpt lat="48.189738" lon="0.667138">
        <ele>98.036019</ele>
        <time>2025-06-26T00:48:01.440Z</time>
      </trkpt>
      <trkpt lat="48.189828" lon="0.667466">
        <ele>98.184156</ele>
        <time>2025-06-26T00:48:05.640Z</time>
      </trkpt>
      <trkpt lat="48.189914" lon="0.667855">
        <ele>98.395357</ele>
        <time>2025-06-26T00:48:10.831Z</time>
      </trkpt>
      <trkpt lat="48.190106" lon="0.668653">
        <ele>98.832556</ele>
        <time>2025-06-26T00:48:22.123Z</time>
      </trkpt>
      <trkpt lat="48.190198" lon="0.669395">
        <ele>99.221490</ele>
        <time>2025-06-26T00:48:31.319Z</time>
      </trkpt>
      <trkpt lat="48.190198" lon="0.669856">
        <ele>99.427141</ele>
        <time>2025-06-26T00:48:36.562Z</time>
      </trkpt>
      <trkpt lat="48.190150" lon="0.670866">
        <ele>99.590294</ele>
        <time>2025-06-26T00:48:46.679Z</time>
      </trkpt>
      <trkpt lat="48.190090" lon="0.672365">
        <ele>99.832262</ele>
        <time>2025-06-26T00:49:01.703Z</time>
      </trkpt>
      <trkpt lat="48.190095" lon="0.672724">
        <ele>100.134605</ele>
        <time>2025-06-26T00:49:05.962Z</time>
      </trkpt>
      <trkpt lat="48.190127" lon="0.673011">
        <ele>100.449483</ele>
        <time>2025-06-26T00:49:09.526Z</time>
      </trkpt>
      <trkpt lat="48.190146" lon="0.673191">
        <ele>100.646689</ele>
        <time>2025-06-26T00:49:11.830Z</time>
      </trkpt>
      <trkpt lat="48.190260" lon="0.673882">
        <ele>101.416979</ele>
        <time>2025-06-26T00:49:21.341Z</time>
      </trkpt>
      <trkpt lat="48.190573" lon="0.674992">
        <ele>102.721139</ele>
        <time>2025-06-26T00:49:40.139Z</time>
      </trkpt>
      <trkpt lat="48.190738" lon="0.675860">
        <ele>104.658654</ele>
        <time>2025-06-26T00:49:56.246Z</time>
      </trkpt>
      <trkpt lat="48.190886" lon="0.677155">
        <ele>107.547726</ele>
        <time>2025-06-26T00:50:22.597Z</time>
      </trkpt>
      <trkpt lat="48.191048" lon="0.678008">
        <ele>109.257633</ele>
        <time>2025-06-26T00:50:39.607Z</time>
      </trkpt>
      <trkpt lat="48.191389" lon="0.678876">
        <ele>110.806197</ele>
        <time>2025-06-26T00:50:56.408Z</time>
      </trkpt>
      <trkpt lat="48.191909" lon="0.679834">
        <ele>112.705019</ele>
        <time>2025-06-26T00:51:13.490Z</time>
      </trkpt>
      <trkpt lat="48.192485" lon="0.680741">
        <ele>115.273704</ele>
        <time>2025-06-26T00:51:32.761Z</time>
      </trkpt>
      <trkpt lat="48.192842" lon="0.681726">
        <ele>117.618323</ele>
        <time>2025-06-26T00:51:55.808Z</time>
      </trkpt>
      <trkpt lat="48.192745" lon="0.682445">
        <ele>118.921669</ele>
        <time>2025-06-26T00:52:12.235Z</time>
      </trkpt>
      <trkpt lat="48.192719" lon="0.682874">
        <ele>119.509295</ele>
        <time>2025-06-26T00:52:20.577Z</time>
      </trkpt>
      <trkpt lat="48.192665" lon="0.683226">
        <ele>120.002020</ele>
        <time>2025-06-26T00:52:26.845Z</time>
      </trkpt>
      <trkpt lat="48.192666" lon="0.683614">
        <ele>120.531307</ele>
        <time>2025-06-26T00:52:33.141Z</time>
      </trkpt>
      <trkpt lat="48.192666" lon="0.683662">
        <ele>120.596785</ele>
        <time>2025-06-26T00:52:33.855Z</time>
      </trkpt>
      <trkpt lat="48.192648" lon="0.684640">
        <ele>121.931415</ele>
        <time>2025-06-26T00:52:46.124Z</time>
      </trkpt>
      <trkpt lat="48.192651" lon="0.685932">
        <ele>122.061169</ele>
        <time>2025-06-26T00:52:56.755Z</time>
      </trkpt>
      <trkpt lat="48.192681" lon="0.686102">
        <ele>122.044140</ele>
        <time>2025-06-26T00:52:58.268Z</time>
      </trkpt>
      <trkpt lat="48.192739" lon="0.686242">
        <ele>122.028177</ele>
        <time>2025-06-26T00:52:59.734Z</time>
      </trkpt>
      <trkpt lat="48.192842" lon="0.686354">
        <ele>122.009697</ele>
        <time>2025-06-26T00:53:01.565Z</time>
      </trkpt>
      <trkpt lat="48.193245" lon="0.686660">
        <ele>121.944083</ele>
        <time>2025-06-26T00:53:08.427Z</time>
      </trkpt>
      <trkpt lat="48.193442" lon="0.686840">
        <ele>121.910574</ele>
        <time>2025-06-26T00:53:12.129Z</time>
      </trkpt>
      <trkpt lat="48.193604" lon="0.687049">
        <ele>122.142035</ele>
        <time>2025-06-26T00:53:15.630Z</time>
      </trkpt>
      <trkpt lat="48.193766" lon="0.687325">
        <ele>122.433574</ele>
        <time>2025-06-26T00:53:19.925Z</time>
      </trkpt>
      <trkpt lat="48.194039" lon="0.687908">
        <ele>122.998401</ele>
        <time>2025-06-26T00:53:29.215Z</time>
      </trkpt>
      <trkpt lat="48.194265" lon="0.688541">
        <ele>123.567672</ele>
        <time>2025-06-26T00:53:39.428Z</time>
      </trkpt>
      <trkpt lat="48.194406" lon="0.689014">
        <ele>123.978439</ele>
        <time>2025-06-26T00:53:46.783Z</time>
      </trkpt>
      <trkpt lat="48.194798" lon="0.690798">
        <ele>126.432237</ele>
        <time>2025-06-26T00:54:13.916Z</time>
      </trkpt>
      <trkpt lat="48.194965" lon="0.691936">
        <ele>128.220109</ele>
        <time>2025-06-26T00:54:32.831Z</time>
      </trkpt>
      <trkpt lat="48.195068" lon="0.692389">
        <ele>129.295175</ele>
        <time>2025-06-26T00:54:41.448Z</time>
      </trkpt>
      <trkpt lat="48.195195" lon="0.692716">
        <ele>130.145234</ele>
        <time>2025-06-26T00:54:48.570Z</time>
      </trkpt>
      <trkpt lat="48.195667" lon="0.693507">
        <ele>132.529787</ele>
        <time>2025-06-26T00:55:09.513Z</time>
      </trkpt>
      <trkpt lat="48.195761" lon="0.693706">
        <ele>133.077612</ele>
        <time>2025-06-26T00:55:14.518Z</time>
      </trkpt>
      <trkpt lat="48.196457" lon="0.695754">
        <ele>138.638115</ele>
        <time>2025-06-26T00:56:01.070Z</time>
      </trkpt>
      <trkpt lat="48.197214" lon="0.697723">
        <ele>143.331289</ele>
        <time>2025-06-26T00:56:42.416Z</time>
      </trkpt>
      <trkpt lat="48.198150" lon="0.699989">
        <ele>147.786898</ele>
        <time>2025-06-26T00:57:25.747Z</time>
      </trkpt>
      <trkpt lat="48.198344" lon="0.700442">
        <ele>148.598361</ele>
        <time>2025-06-26T00:57:33.988Z</time>
      </trkpt>
      <trkpt lat="48.198558" lon="0.700832">
        <ele>149.359650</ele>
        <time>2025-06-26T00:57:41.702Z</time>
      </trkpt>
      <trkpt lat="48.199028" lon="0.701519">
        <ele>150.897778</ele>
        <time>2025-06-26T00:57:57.401Z</time>
      </trkpt>
      <trkpt lat="48.199190" lon="0.701820">
        <ele>151.504402</ele>
        <time>2025-06-26T00:58:03.858Z</time>
      </trkpt>
      <trkpt lat="48.199295" lon="0.702107">
        <ele>152.017753</ele>
        <time>2025-06-26T00:58:09.432Z</time>
      </trkpt>
      <trkpt lat="48.199416" lon="0.702597">
        <ele>152.837107</ele>
        <time>2025-06-26T00:58:18.511Z</time>
      </trkpt>
      <trkpt lat="48.199704" lon="0.704093">
        <ele>153.847201</ele>
        <time>2025-06-26T00:58:42.709Z</time>
      </trkpt>
      <trkpt lat="48.201104" lon="0.711320">
        <ele>153.855463</ele>
        <time>2025-06-26T00:59:52.204Z</time>
      </trkpt>
      <trkpt lat="48.202470" lon="0.718317">
        <ele>154.664219</ele>
        <time>2025-06-26T01:01:01.863Z</time>
      </trkpt>
      <trkpt lat="48.202674" lon="0.719297">
        <ele>157.541015</ele>
        <time>2025-06-26T01:01:23.216Z</time>
      </trkpt>
      <trkpt lat="48.202816" lon="0.719799">
        <ele>159.806092</ele>
        <time>2025-06-26T01:01:37.860Z</time>
      </trkpt>
      <trkpt lat="48.203045" lon="0.720436">
        <ele>162.812208</ele>
        <time>2025-06-26T01:01:59.610Z</time>
      </trkpt>
      <trkpt lat="48.203250" lon="0.720917">
        <ele>165.183574</ele>
        <time>2025-06-26T01:02:17.745Z</time>
      </trkpt>
      <trkpt lat="48.203441" lon="0.721302">
        <ele>167.051978</ele>
        <time>2025-06-26T01:02:33.421Z</time>
      </trkpt>
      <trkpt lat="48.203989" lon="0.722199">
        <ele>171.527176</ele>
        <time>2025-06-26T01:03:06.625Z</time>
      </trkpt>
      <trkpt lat="48.205145" lon="0.724008">
        <ele>177.326311</ele>
        <time>2025-06-26T01:03:55.285Z</time>
      </trkpt>
      <trkpt lat="48.207287" lon="0.727434">
        <ele>177.175580</ele>
        <time>2025-06-26T01:04:38.078Z</time>
      </trkpt>
      <trkpt lat="48.207557" lon="0.727766">
        <ele>176.444895</ele>
        <time>2025-06-26T01:04:41.803Z</time>
      </trkpt>
      <trkpt lat="48.209727" lon="0.730013">
        <ele>171.383971</ele>
        <time>2025-06-26T01:05:09.162Z</time>
      </trkpt>
      <trkpt lat="48.213923" lon="0.734250">
        <ele>180.231454</ele>
        <time>2025-06-26T01:07:12.013Z</time>
      </trkpt>
      <trkpt lat="48.215214" lon="0.735556">
        <ele>177.964271</ele>
        <time>2025-06-26T01:07:29.968Z</time>
      </trkpt>
      <trkpt lat="48.215315" lon="0.735715">
        <ele>177.541013</ele>
        <time>2025-06-26T01:07:31.397Z</time>
      </trkpt>
      <trkpt lat="48.215386" lon="0.735898">
        <ele>177.133001</ele>
        <time>2025-06-26T01:07:32.757Z</time>
      </trkpt>
      <trkpt lat="48.215505" lon="0.736346">
        <ele>176.203756</ele>
        <time>2025-06-26T01:07:35.817Z</time>
      </trkpt>
      <trkpt lat="48.215661" lon="0.736696">
        <ele>175.175287</ele>
        <time>2025-06-26T01:07:38.445Z</time>
      </trkpt>
      <trkpt lat="48.218688" lon="0.741516">
        <ele>153.119986</ele>
        <time>2025-06-26T01:08:19.621Z</time>
      </trkpt>
      <trkpt lat="48.220359" lon="0.744231">
        <ele>146.177958</ele>
        <time>2025-06-26T01:08:46.633Z</time>
      </trkpt>
      <trkpt lat="48.220607" lon="0.744537">
        <ele>145.260214</ele>
        <time>2025-06-26T01:08:49.978Z</time>
      </trkpt>
      <trkpt lat="48.222741" lon="0.746306">
        <ele>133.598250</ele>
        <time>2025-06-26T01:09:13.338Z</time>
      </trkpt>
      <trkpt lat="48.223553" lon="0.746936">
        <ele>127.995793</ele>
        <time>2025-06-26T01:09:21.532Z</time>
      </trkpt>
      <trkpt lat="48.223684" lon="0.747011">
        <ele>127.136447</ele>
        <time>2025-06-26T01:09:22.784Z</time>
      </trkpt>
      <trkpt lat="48.223766" lon="0.746997">
        <ele>126.661417</ele>
        <time>2025-06-26T01:09:23.510Z</time>
      </trkpt>
      <trkpt lat="48.224324" lon="0.746348">
        <ele>122.651600</ele>
        <time>2025-06-26T01:09:29.788Z</time>
      </trkpt>
      <trkpt lat="48.224685" lon="0.745999">
        <ele>120.212489</ele>
        <time>2025-06-26T01:09:33.723Z</time>
      </trkpt>
      <trkpt lat="48.224773" lon="0.746052">
        <ele>119.673883</ele>
        <time>2025-06-26T01:09:34.621Z</time>
      </trkpt>
      <trkpt lat="48.224920" lon="0.746320">
        <ele>118.360180</ele>
        <time>2025-06-26T01:09:36.862Z</time>
      </trkpt>
      <trkpt lat="48.224970" lon="0.746407">
        <ele>117.925371</ele>
        <time>2025-06-26T01:09:37.619Z</time>
      </trkpt>
      <trkpt lat="48.225105" lon="0.746646">
        <ele>116.840670</ele>
        <time>2025-06-26T01:09:39.737Z</time>
      </trkpt>
      <trkpt lat="48.225205" lon="0.746939">
        <ele>116.923673</ele>
        <time>2025-06-26T01:09:42.046Z</time>
      </trkpt>
      <trkpt lat="48.225214" lon="0.747027">
        <ele>116.946120</ele>
        <time>2025-06-26T01:09:42.700Z</time>
      </trkpt>
      <trkpt lat="48.225253" lon="0.747402">
        <ele>117.041814</ele>
        <time>2025-06-26T01:09:45.680Z</time>
      </trkpt>
      <trkpt lat="48.225283" lon="0.747743">
        <ele>117.128536</ele>
        <time>2025-06-26T01:09:49.121Z</time>
      </trkpt>
      <trkpt lat="48.225353" lon="0.748041">
        <ele>117.208204</ele>
        <time>2025-06-26T01:09:53.223Z</time>
      </trkpt>
      <trkpt lat="48.225541" lon="0.748371">
        <ele>117.317679</ele>
        <time>2025-06-26T01:09:59.505Z</time>
      </trkpt>
      <trkpt lat="48.225960" lon="0.749003">
        <ele>117.751882</ele>
        <time>2025-06-26T01:10:14.143Z</time>
      </trkpt>
      <trkpt lat="48.226086" lon="0.749460">
        <ele>118.828936</ele>
        <time>2025-06-26T01:10:23.286Z</time>
      </trkpt>
      <trkpt lat="48.226108" lon="0.749639">
        <ele>119.225316</ele>
        <time>2025-06-26T01:10:26.916Z</time>
      </trkpt>
      <trkpt lat="48.226104" lon="0.749978">
        <ele>119.963658</ele>
        <time>2025-06-26T01:10:33.815Z</time>
      </trkpt>
      <trkpt lat="48.226149" lon="0.750374">
        <ele>120.838467</ele>
        <time>2025-06-26T01:10:41.904Z</time>
      </trkpt>
      <trkpt lat="48.226430" lon="0.751186">
        <ele>122.831062</ele>
        <time>2025-06-26T01:10:59.376Z</time>
      </trkpt>
      <trkpt lat="48.226499" lon="0.751383">
        <ele>123.315737</ele>
        <time>2025-06-26T01:11:03.455Z</time>
      </trkpt>
      <trkpt lat="48.226597" lon="0.751886">
        <ele>124.002146</ele>
        <time>2025-06-26T01:11:12.631Z</time>
      </trkpt>
      <trkpt lat="48.226651" lon="0.752162">
        <ele>124.360404</ele>
        <time>2025-06-26T01:11:17.401Z</time>
      </trkpt>
      <trkpt lat="48.226750" lon="0.752623">
        <ele>124.963642</ele>
        <time>2025-06-26T01:11:24.902Z</time>
      </trkpt>
      <trkpt lat="48.227096" lon="0.754136">
        <ele>126.940973</ele>
        <time>2025-06-26T01:11:45.833Z</time>
      </trkpt>
      <trkpt lat="48.227340" lon="0.755003">
        <ele>128.025133</ele>
        <time>2025-06-26T01:11:57.759Z</time>
      </trkpt>
      <trkpt lat="48.227575" lon="0.755589">
        <ele>128.813013</ele>
        <time>2025-06-26T01:12:07.632Z</time>
      </trkpt>
      <trkpt lat="48.227742" lon="0.756200">
        <ele>129.573754</ele>
        <time>2025-06-26T01:12:18.270Z</time>
      </trkpt>
      <trkpt lat="48.227804" lon="0.757081">
        <ele>130.507368</ele>
        <time>2025-06-26T01:12:33.265Z</time>
      </trkpt>
      <trkpt lat="48.227818" lon="0.757735">
        <ele>131.171064</ele>
        <time>2025-06-26T01:12:43.703Z</time>
      </trkpt>
      <trkpt lat="48.227890" lon="0.758180">
        <ele>131.635551</ele>
        <time>2025-06-26T01:12:50.390Z</time>
      </trkpt>
      <trkpt lat="48.228056" lon="0.758791">
        <ele>132.304846</ele>
        <time>2025-06-26T01:12:58.743Z</time>
      </trkpt>
      <trkpt lat="48.228449" lon="0.759788">
        <ele>132.264417</ele>
        <time>2025-06-26T01:13:09.177Z</time>
      </trkpt>
      <trkpt lat="48.229033" lon="0.761258">
        <ele>131.586629</ele>
        <time>2025-06-26T01:13:22.964Z</time>
      </trkpt>
      <trkpt lat="48.229424" lon="0.761958">
        <ele>131.961599</ele>
        <time>2025-06-26T01:13:31.295Z</time>
      </trkpt>
      <trkpt lat="48.229693" lon="0.762484">
        <ele>132.319841</ele>
        <time>2025-06-26T01:13:38.865Z</time>
      </trkpt>
      <trkpt lat="48.230674" lon="0.765166">
        <ele>135.618194</ele>
        <time>2025-06-26T01:14:24.360Z</time>
      </trkpt>
      <trkpt lat="48.230731" lon="0.765474">
        <ele>136.081532</ele>
        <time>2025-06-26T01:14:29.706Z</time>
      </trkpt>
      <trkpt lat="48.230747" lon="0.766182">
        <ele>137.125834</ele>
        <time>2025-06-26T01:14:41.815Z</time>
      </trkpt>
      <trkpt lat="48.230795" lon="0.766633">
        <ele>137.845911</ele>
        <time>2025-06-26T01:14:49.802Z</time>
      </trkpt>
      <trkpt lat="48.230865" lon="0.766929">
        <ele>138.341128</ele>
        <time>2025-06-26T01:14:55.314Z</time>
      </trkpt>
      <trkpt lat="48.231367" lon="0.768070">
        <ele>140.497006</ele>
        <time>2025-06-26T01:15:17.597Z</time>
      </trkpt>
      <trkpt lat="48.231777" lon="0.768873">
        <ele>141.806666</ele>
        <time>2025-06-26T01:15:32.104Z</time>
      </trkpt>
      <trkpt lat="48.232864" lon="0.770731">
        <ele>144.749481</ele>
        <time>2025-06-26T01:16:06.209Z</time>
      </trkpt>
      <trkpt lat="48.233421" lon="0.771988">
        <ele>147.426310</ele>
        <time>2025-06-26T01:16:32.166Z</time>
      </trkpt>
      <trkpt lat="48.233473" lon="0.772230">
        <ele>147.877158</ele>
        <time>2025-06-26T01:16:37.090Z</time>
      </trkpt>
      <trkpt lat="48.233442" lon="0.772575">
        <ele>148.494397</ele>
        <time>2025-06-26T01:16:43.947Z</time>
      </trkpt>
      <trkpt lat="48.232872" lon="0.775049">
        <ele>152.831672</ele>
        <time>2025-06-26T01:17:30.400Z</time>
      </trkpt>
      <trkpt lat="48.232750" lon="0.775637">
        <ele>153.416079</ele>
        <time>2025-06-26T01:17:37.217Z</time>
      </trkpt>
      <trkpt lat="48.232682" lon="0.775843">
        <ele>153.471442</ele>
        <time>2025-06-26T01:17:39.446Z</time>
      </trkpt>
      <trkpt lat="48.232566" lon="0.776128">
        <ele>153.551870</ele>
        <time>2025-06-26T01:17:42.478Z</time>
      </trkpt>
      <trkpt lat="48.232288" lon="0.776650">
        <ele>153.712808</ele>
        <time>2025-06-26T01:17:48.089Z</time>
      </trkpt>
      <trkpt lat="48.232222" lon="0.777049">
        <ele>153.811809</ele>
        <time>2025-06-26T01:17:51.870Z</time>
      </trkpt>
      <trkpt lat="48.232309" lon="0.777859">
        <ele>154.071183</ele>
        <time>2025-06-26T01:18:01.670Z</time>
      </trkpt>
      <trkpt lat="48.232426" lon="0.778947">
        <ele>155.322918</ele>
        <time>2025-06-26T01:18:18.097Z</time>
      </trkpt>
      <trkpt lat="48.232415" lon="0.779315">
        <ele>155.741307</ele>
        <time>2025-06-26T01:18:23.940Z</time>
      </trkpt>
      <trkpt lat="48.232209" lon="0.780527">
        <ele>157.147698</ele>
        <time>2025-06-26T01:18:42.784Z</time>
      </trkpt>
      <trkpt lat="48.232218" lon="0.781019">
        <ele>157.628688</ele>
        <time>2025-06-26T01:18:49.403Z</time>
      </trkpt>
      <trkpt lat="48.232255" lon="0.781535">
        <ele>158.135864</ele>
        <time>2025-06-26T01:18:56.110Z</time>
      </trkpt>
      <trkpt lat="48.232246" lon="0.782676">
        <ele>159.250988</ele>
        <time>2025-06-26T01:19:10.790Z</time>
      </trkpt>
      <trkpt lat="48.232294" lon="0.782932">
        <ele>159.510887</ele>
        <time>2025-06-26T01:19:14.456Z</time>
      </trkpt>
      <trkpt lat="48.232591" lon="0.783604">
        <ele>161.036525</ele>
        <time>2025-06-26T01:19:26.735Z</time>
      </trkpt>
      <trkpt lat="48.232677" lon="0.783870">
        <ele>161.680296</ele>
        <time>2025-06-26T01:19:31.741Z</time>
      </trkpt>
      <trkpt lat="48.232863" lon="0.784668">
        <ele>163.521058</ele>
        <time>2025-06-26T01:19:47.602Z</time>
      </trkpt>
      <trkpt lat="48.233165" lon="0.785331">
        <ele>165.269829</ele>
        <time>2025-06-26T01:20:04.466Z</time>
      </trkpt>
      <trkpt lat="48.233319" lon="0.785729">
        <ele>166.815919</ele>
        <time>2025-06-26T01:20:14.700Z</time>
      </trkpt>
      <trkpt lat="48.233355" lon="0.785902">
        <ele>167.519646</ele>
        <time>2025-06-26T01:20:18.811Z</time>
      </trkpt>
      <trkpt lat="48.233368" lon="0.786096">
        <ele>168.276697</ele>
        <time>2025-06-26T01:20:23.298Z</time>
      </trkpt>
      <trkpt lat="48.233259" lon="0.787464">
        <ele>173.626135</ele>
        <time>2025-06-26T01:20:57.844Z</time>
      </trkpt>
      <trkpt lat="48.233262" lon="0.787754">
        <ele>174.752263</ele>
        <time>2025-06-26T01:21:05.813Z</time>
      </trkpt>
      <trkpt lat="48.233399" lon="0.788552">
        <ele>178.873027</ele>
        <time>2025-06-26T01:21:30.474Z</time>
      </trkpt>
      <trkpt lat="48.233588" lon="0.789303">
        <ele>183.509249</ele>
        <time>2025-06-26T01:21:57.170Z</time>
      </trkpt>
      <trkpt lat="48.233639" lon="0.789647">
        <ele>185.544443</ele>
        <time>2025-06-26T01:22:09.444Z</time>
      </trkpt>
      <trkpt lat="48.233627" lon="0.790010">
        <ele>187.643328</ele>
        <time>2025-06-26T01:22:22.328Z</time>
      </trkpt>
      <trkpt lat="48.233654" lon="0.790381">
        <ele>189.798583</ele>
        <time>2025-06-26T01:22:35.698Z</time>
      </trkpt>
      <trkpt lat="48.234104" lon="0.791908">
        <ele>198.520511</ele>
        <time>2025-06-26T01:23:31.728Z</time>
      </trkpt>
      <trkpt lat="48.234154" lon="0.792187">
        <ele>199.991652</ele>
        <time>2025-06-26T01:23:40.294Z</time>
      </trkpt>
      <trkpt lat="48.234163" lon="0.792478">
        <ele>201.474970</ele>
        <time>2025-06-26T01:23:48.593Z</time>
      </trkpt>
      <trkpt lat="48.234081" lon="0.792995">
        <ele>204.181048</ele>
        <time>2025-06-26T01:24:02.967Z</time>
      </trkpt>
      <trkpt lat="48.233873" lon="0.793612">
        <ele>206.783728</ele>
        <time>2025-06-26T01:24:19.902Z</time>
      </trkpt>
      <trkpt lat="48.233685" lon="0.794480">
        <ele>209.572759</ele>
        <time>2025-06-26T01:24:39.910Z</time>
      </trkpt>
      <trkpt lat="48.233659" lon="0.795082">
        <ele>211.416148</ele>
        <time>2025-06-26T01:24:52.425Z</time>
      </trkpt>
      <trkpt lat="48.233772" lon="0.796776">
        <ele>216.928917</ele>
        <time>2025-06-26T01:25:27.375Z</time>
      </trkpt>
      <trkpt lat="48.233829" lon="0.798083">
        <ele>221.350896</ele>
        <time>2025-06-26T01:25:57.898Z</time>
      </trkpt>
      <trkpt lat="48.233763" lon="0.798727">
        <ele>223.691361</ele>
        <time>2025-06-26T01:26:15.996Z</time>
      </trkpt>
      <trkpt lat="48.233394" lon="0.799562">
        <ele>227.686444</ele>
        <time>2025-06-26T01:26:45.671Z</time>
      </trkpt>
      <trkpt lat="48.233253" lon="0.800222">
        <ele>230.449833</ele>
        <time>2025-06-26T01:27:05.160Z</time>
      </trkpt>
      <trkpt lat="48.233237" lon="0.800975">
        <ele>233.453509</ele>
        <time>2025-06-26T01:27:23.118Z</time>
      </trkpt>
      <trkpt lat="48.233019" lon="0.801892">
        <ele>233.605780</ele>
        <time>2025-06-26T01:27:38.732Z</time>
      </trkpt>
      <trkpt lat="48.232480" lon="0.803077">
        <ele>233.706756</ele>
        <time>2025-06-26T01:27:49.894Z</time>
      </trkpt>
      <trkpt lat="48.232343" lon="0.803614">
        <ele>233.420996</ele>
        <time>2025-06-26T01:27:53.815Z</time>
      </trkpt>
      <trkpt lat="48.232156" lon="0.805069">
        <ele>231.680093</ele>
        <time>2025-06-26T01:28:04.401Z</time>
      </trkpt>
      <trkpt lat="48.231970" lon="0.806484">
        <ele>230.783230</ele>
        <time>2025-06-26T01:28:16.161Z</time>
      </trkpt>
      <trkpt lat="48.232068" lon="0.808191">
        <ele>231.582681</ele>
        <time>2025-06-26T01:28:35.173Z</time>
      </trkpt>
      <trkpt lat="48.232082" lon="0.809244">
        <ele>233.477450</ele>
        <time>2025-06-26T01:28:52.829Z</time>
      </trkpt>
      <trkpt lat="48.232222" lon="0.810428">
        <ele>237.094283</ele>
        <time>2025-06-26T01:29:20.007Z</time>
      </trkpt>
      <trkpt lat="48.232437" lon="0.811600">
        <ele>240.475807</ele>
        <time>2025-06-26T01:29:51.537Z</time>
      </trkpt>
      <trkpt lat="48.232495" lon="0.811867">
        <ele>241.034888</ele>
        <time>2025-06-26T01:29:58.958Z</time>
      </trkpt>
      <trkpt lat="48.232702" lon="0.812821">
        <ele>243.032281</ele>
        <time>2025-06-26T01:30:21.142Z</time>
      </trkpt>
      <trkpt lat="48.232710" lon="0.813222">
        <ele>243.830926</ele>
        <time>2025-06-26T01:30:27.922Z</time>
      </trkpt>
      <trkpt lat="48.232655" lon="0.813606">
        <ele>244.612844</ele>
        <time>2025-06-26T01:30:32.749Z</time>
      </trkpt>
      <trkpt lat="48.232462" lon="0.814485">
        <ele>243.822158</ele>
        <time>2025-06-26T01:30:39.789Z</time>
      </trkpt>
      <trkpt lat="48.232395" lon="0.814824">
        <ele>242.902870</ele>
        <time>2025-06-26T01:30:42.099Z</time>
      </trkpt>
      <trkpt lat="48.232345" lon="0.815206">
        <ele>241.890777</ele>
        <time>2025-06-26T01:30:44.538Z</time>
      </trkpt>
      <trkpt lat="48.232323" lon="0.815592">
        <ele>240.883608</ele>
        <time>2025-06-26T01:30:46.941Z</time>
      </trkpt>
      <trkpt lat="48.232348" lon="0.816092">
        <ele>239.580077</ele>
        <time>2025-06-26T01:30:50.045Z</time>
      </trkpt>
      <trkpt lat="48.232544" lon="0.817292">
        <ele>236.163317</ele>
        <time>2025-06-26T01:30:57.823Z</time>
      </trkpt>
      <trkpt lat="48.232561" lon="0.817550">
        <ele>235.417676</ele>
        <time>2025-06-26T01:30:59.493Z</time>
      </trkpt>
      <trkpt lat="48.232551" lon="0.817877">
        <ele>234.476220</ele>
        <time>2025-06-26T01:31:01.619Z</time>
      </trkpt>
      <trkpt lat="48.232572" lon="0.818126">
        <ele>233.754368</ele>
        <time>2025-06-26T01:31:03.250Z</time>
      </trkpt>
      <trkpt lat="48.232660" lon="0.818589">
        <ele>232.369615</ele>
        <time>2025-06-26T01:31:06.378Z</time>
      </trkpt>
      <trkpt lat="48.232715" lon="0.819027">
        <ele>231.087724</ele>
        <time>2025-06-26T01:31:09.266Z</time>
      </trkpt>
      <trkpt lat="48.232716" lon="0.819938">
        <ele>229.255929</ele>
        <time>2025-06-26T01:31:15.213Z</time>
      </trkpt>
      <trkpt lat="48.232740" lon="0.820545">
        <ele>228.176332</ele>
        <time>2025-06-26T01:31:19.289Z</time>
      </trkpt>
      <trkpt lat="48.232778" lon="0.820732">
        <ele>227.829216</ele>
        <time>2025-06-26T01:31:20.644Z</time>
      </trkpt>
      <trkpt lat="48.232899" lon="0.821046">
        <ele>227.185156</ele>
        <time>2025-06-26T01:31:23.218Z</time>
      </trkpt>
      <trkpt lat="48.233160" lon="0.821462">
        <ele>226.170528</ele>
        <time>2025-06-26T01:31:27.477Z</time>
      </trkpt>
      <trkpt lat="48.233480" lon="0.821875">
        <ele>225.636764</ele>
        <time>2025-06-26T01:31:32.787Z</time>
      </trkpt>
      <trkpt lat="48.233772" lon="0.822420">
        <ele>225.462206</ele>
        <time>2025-06-26T01:31:39.351Z</time>
      </trkpt>
      <trkpt lat="48.233955" lon="0.822794">
        <ele>225.346389</ele>
        <time>2025-06-26T01:31:43.826Z</time>
      </trkpt>
      <trkpt lat="48.234143" lon="0.823190">
        <ele>225.225026</ele>
        <time>2025-06-26T01:31:48.430Z</time>
      </trkpt>
      <trkpt lat="48.234450" lon="0.823747">
        <ele>225.065595</ele>
        <time>2025-06-26T01:31:55.266Z</time>
      </trkpt>
      <trkpt lat="48.234911" lon="0.824461">
        <ele>225.166632</ele>
        <time>2025-06-26T01:32:05.034Z</time>
      </trkpt>
      <trkpt lat="48.235831" lon="0.825775">
        <ele>225.282162</ele>
        <time>2025-06-26T01:32:25.748Z</time>
      </trkpt>
      <trkpt lat="48.237010" lon="0.827066">
        <ele>224.846652</ele>
        <time>2025-06-26T01:32:46.026Z</time>
      </trkpt>
      <trkpt lat="48.237075" lon="0.827137">
        <ele>224.822662</ele>
        <time>2025-06-26T01:32:47.016Z</time>
      </trkpt>
      <trkpt lat="48.238081" lon="0.828179">
        <ele>223.840928</ele>
        <time>2025-06-26T01:33:01.764Z</time>
      </trkpt>
      <trkpt lat="48.238237" lon="0.828339">
        <ele>223.681981</ele>
        <time>2025-06-26T01:33:04.063Z</time>
      </trkpt>
      <trkpt lat="48.239938" lon="0.829746">
        <ele>222.688312</ele>
        <time>2025-06-26T01:33:29.735Z</time>
      </trkpt>
      <trkpt lat="48.240674" lon="0.830410">
        <ele>222.559572</ele>
        <time>2025-06-26T01:33:42.562Z</time>
      </trkpt>
      <trkpt lat="48.242039" lon="0.830893">
        <ele>222.405589</ele>
        <time>2025-06-26T01:34:04.631Z</time>
      </trkpt>
      <trkpt lat="48.242961" lon="0.831762">
        <ele>221.042986</ele>
        <time>2025-06-26T01:34:17.887Z</time>
      </trkpt>
      <trkpt lat="48.243324" lon="0.831838">
        <ele>220.584217</ele>
        <time>2025-06-26T01:34:21.896Z</time>
      </trkpt>
      <trkpt lat="48.246283" lon="0.831944">
        <ele>214.595843</ele>
        <time>2025-06-26T01:34:53.279Z</time>
      </trkpt>
      <trkpt lat="48.247426" lon="0.832445">
        <ele>213.317067</ele>
        <time>2025-06-26T01:35:09.196Z</time>
      </trkpt>
      <trkpt lat="48.248001" lon="0.832663">
        <ele>213.291406</ele>
        <time>2025-06-26T01:35:18.419Z</time>
      </trkpt>
      <trkpt lat="48.247983" lon="0.832398">
        <ele>213.283730</ele>
        <time>2025-06-26T01:35:38.231Z</time>
      </trkpt>
      <trkpt lat="48.248001" lon="0.832663">
        <ele>213.276055</ele>
        <time>2025-06-26T01:35:58.015Z</time>
      </trkpt>
      <trkpt lat="48.249372" lon="0.833185">
        <ele>213.540135</ele>
        <time>2025-06-26T01:36:18.853Z</time>
      </trkpt>
      <trkpt lat="48.249665" lon="0.833137">
        <ele>213.633222</ele>
        <time>2025-06-26T01:36:23.817Z</time>
      </trkpt>
      <trkpt lat="48.250001" lon="0.832584">
        <ele>213.790660</ele>
        <time>2025-06-26T01:36:32.649Z</time>
      </trkpt>
      <trkpt lat="48.250212" lon="0.832116">
        <ele>213.901053</ele>
        <time>2025-06-26T01:36:39.708Z</time>
      </trkpt>
      <trkpt lat="48.250998" lon="0.830610">
        <ele>214.264476</ele>
        <time>2025-06-26T01:37:00.868Z</time>
      </trkpt>
      <trkpt lat="48.251091" lon="0.830522">
        <ele>214.295828</ele>
        <time>2025-06-26T01:37:02.350Z</time>
      </trkpt>
      <trkpt lat="48.251212" lon="0.830451">
        <ele>214.332882</ele>
        <time>2025-06-26T01:37:04.065Z</time>
      </trkpt>
      <trkpt lat="48.251467" lon="0.830368">
        <ele>214.031023</ele>
        <time>2025-06-26T01:37:07.384Z</time>
      </trkpt>
      <trkpt lat="48.252684" lon="0.830333">
        <ele>212.567786</ele>
        <time>2025-06-26T01:37:21.580Z</time>
      </trkpt>
      <trkpt lat="48.253300" lon="0.830248">
        <ele>211.880687</ele>
        <time>2025-06-26T01:37:28.592Z</time>
      </trkpt>
      <trkpt lat="48.253949" lon="0.830207">
        <ele>211.226358</ele>
        <time>2025-06-26T01:37:36.174Z</time>
      </trkpt>
      <trkpt lat="48.254314" lon="0.830290">
        <ele>210.854496</ele>
        <time>2025-06-26T01:37:40.745Z</time>
      </trkpt>
      <trkpt lat="48.254731" lon="0.830479">
        <ele>210.415733</ele>
        <time>2025-06-26T01:37:46.591Z</time>
      </trkpt>
      <trkpt lat="48.254955" lon="0.830514">
        <ele>210.342783</ele>
        <time>2025-06-26T01:37:49.783Z</time>
      </trkpt>
      <trkpt lat="48.255455" lon="0.830411">
        <ele>210.288542</ele>
        <time>2025-06-26T01:37:57.199Z</time>
      </trkpt>
      <trkpt lat="48.255831" lon="0.830335">
        <ele>210.247766</ele>
        <time>2025-06-26T01:38:02.887Z</time>
      </trkpt>
      <trkpt lat="48.256798" lon="0.830476">
        <ele>210.129306</ele>
        <time>2025-06-26T01:38:17.127Z</time>
      </trkpt>
      <trkpt lat="48.257923" lon="0.830954">
        <ele>209.931648</ele>
        <time>2025-06-26T01:38:33.527Z</time>
      </trkpt>
      <trkpt lat="48.258209" lon="0.831013">
        <ele>209.882842</ele>
        <time>2025-06-26T01:38:37.665Z</time>
      </trkpt>
      <trkpt lat="48.258891" lon="0.831063">
        <ele>209.576585</ele>
        <time>2025-06-26T01:38:47.419Z</time>
      </trkpt>
      <trkpt lat="48.259780" lon="0.831334">
        <ele>209.119553</ele>
        <time>2025-06-26T01:38:59.470Z</time>
      </trkpt>
      <trkpt lat="48.260128" lon="0.831356">
        <ele>208.940351</ele>
        <time>2025-06-26T01:39:03.764Z</time>
      </trkpt>
      <trkpt lat="48.261184" lon="0.831538">
        <ele>208.257496</ele>
        <time>2025-06-26T01:39:16.713Z</time>
      </trkpt>
      <trkpt lat="48.261677" lon="0.831789">
        <ele>207.923080</ele>
        <time>2025-06-26T01:39:23.501Z</time>
      </trkpt>
      <trkpt lat="48.261963" lon="0.832051">
        <ele>207.869016</ele>
        <time>2025-06-26T01:39:28.608Z</time>
      </trkpt>
      <trkpt lat="48.262205" lon="0.832786">
        <ele>208.118262</ele>
        <time>2025-06-26T01:39:38.054Z</time>
      </trkpt>
      <trkpt lat="48.262356" lon="0.833285">
        <ele>208.284874</ele>
        <time>2025-06-26T01:39:44.861Z</time>
      </trkpt>
      <trkpt lat="48.262527" lon="0.833695">
        <ele>208.431937</ele>
        <time>2025-06-26T01:39:51.007Z</time>
      </trkpt>
      <trkpt lat="48.263777" lon="0.835633">
        <ele>207.077319</ele>
        <time>2025-06-26T01:40:17.729Z</time>
      </trkpt>
      <trkpt lat="48.263764" lon="0.836180">
        <ele>206.668297</ele>
        <time>2025-06-26T01:40:21.487Z</time>
      </trkpt>
      <trkpt lat="48.263983" lon="0.837812">
        <ele>200.736716</ele>
        <time>2025-06-26T01:40:31.781Z</time>
      </trkpt>
      <trkpt lat="48.264035" lon="0.838521">
        <ele>198.086383</ele>
        <time>2025-06-26T01:40:36.056Z</time>
      </trkpt>
      <trkpt lat="48.264356" lon="0.840272">
        <ele>191.102807</ele>
        <time>2025-06-26T01:40:47.054Z</time>
      </trkpt>
      <trkpt lat="48.264484" lon="0.841237">
        <ele>187.282162</ele>
        <time>2025-06-26T01:40:53.177Z</time>
      </trkpt>
      <trkpt lat="48.264620" lon="0.843609">
        <ele>178.804424</ele>
        <time>2025-06-26T01:41:08.110Z</time>
      </trkpt>
      <trkpt lat="48.264661" lon="0.843979">
        <ele>177.486923</ele>
        <time>2025-06-26T01:41:10.430Z</time>
      </trkpt>
      <trkpt lat="48.264877" lon="0.845100">
        <ele>172.476623</ele>
        <time>2025-06-26T01:41:17.559Z</time>
      </trkpt>
      <trkpt lat="48.265091" lon="0.845829">
        <ele>168.880156</ele>
        <time>2025-06-26T01:41:22.355Z</time>
      </trkpt>
      <trkpt lat="48.265227" lon="0.846451">
        <ele>165.924876</ele>
        <time>2025-06-26T01:41:26.262Z</time>
      </trkpt>
      <trkpt lat="48.265398" lon="0.848018">
        <ele>157.483189</ele>
        <time>2025-06-26T01:41:35.568Z</time>
      </trkpt>
      <trkpt lat="48.265456" lon="0.848469">
        <ele>154.940579</ele>
        <time>2025-06-26T01:41:38.238Z</time>
      </trkpt>
      <trkpt lat="48.265577" lon="0.848984">
        <ele>151.917519</ele>
        <time>2025-06-26T01:41:41.414Z</time>
      </trkpt>
      <trkpt lat="48.265998" lon="0.850436">
        <ele>144.298353</ele>
        <time>2025-06-26T01:41:50.704Z</time>
      </trkpt>
      <trkpt lat="48.266094" lon="0.850780">
        <ele>142.610927</ele>
        <time>2025-06-26T01:41:52.923Z</time>
      </trkpt>
      <trkpt lat="48.266190" lon="0.851124">
        <ele>140.923503</ele>
        <time>2025-06-26T01:41:55.165Z</time>
      </trkpt>
      <trkpt lat="48.266346" lon="0.851776">
        <ele>137.789223</ele>
        <time>2025-06-26T01:41:59.404Z</time>
      </trkpt>
      <trkpt lat="48.266401" lon="0.852134">
        <ele>137.161041</ele>
        <time>2025-06-26T01:42:01.753Z</time>
      </trkpt>
      <trkpt lat="48.266498" lon="0.853079">
        <ele>136.976796</ele>
        <time>2025-06-26T01:42:08.425Z</time>
      </trkpt>
      <trkpt lat="48.266520" lon="0.853243">
        <ele>136.944560</ele>
        <time>2025-06-26T01:42:09.847Z</time>
      </trkpt>
      <trkpt lat="48.266525" lon="0.853273">
        <ele>136.938601</ele>
        <time>2025-06-26T01:42:10.110Z</time>
      </trkpt>
      <trkpt lat="48.266891" lon="0.855334">
        <ele>139.643220</ele>
        <time>2025-06-26T01:42:46.962Z</time>
      </trkpt>
      <trkpt lat="48.266927" lon="0.855604">
        <ele>140.631124</ele>
        <time>2025-06-26T01:42:53.502Z</time>
      </trkpt>
      <trkpt lat="48.266927" lon="0.855797">
        <ele>141.323538</ele>
        <time>2025-06-26T01:42:58.218Z</time>
      </trkpt>
      <trkpt lat="48.266870" lon="0.856022">
        <ele>142.187239</ele>
        <time>2025-06-26T01:43:04.312Z</time>
      </trkpt>
      <trkpt lat="48.266781" lon="0.856183">
        <ele>142.938053</ele>
        <time>2025-06-26T01:43:09.940Z</time>
      </trkpt>
      <trkpt lat="48.266919" lon="0.856329">
        <ele>143.847748</ele>
        <time>2025-06-26T01:43:18.009Z</time>
      </trkpt>
      <trkpt lat="48.267298" lon="0.856993">
        <ele>147.332518</ele>
        <time>2025-06-26T01:43:47.233Z</time>
      </trkpt>
      <trkpt lat="48.267380" lon="0.857234">
        <ele>148.859635</ele>
        <time>2025-06-26T01:43:56.488Z</time>
      </trkpt>
      <trkpt lat="48.267450" lon="0.857599">
        <ele>151.002816</ele>
        <time>2025-06-26T01:44:09.787Z</time>
      </trkpt>
      <trkpt lat="48.267512" lon="0.857961">
        <ele>153.111823</ele>
        <time>2025-06-26T01:44:23.223Z</time>
      </trkpt>
      <trkpt lat="48.267564" lon="0.858283">
        <ele>154.981316</ele>
        <time>2025-06-26T01:44:35.458Z</time>
      </trkpt>
      <trkpt lat="48.267618" lon="0.858536">
        <ele>156.480381</ele>
        <time>2025-06-26T01:44:45.479Z</time>
      </trkpt>
      <trkpt lat="48.267755" lon="0.858911">
        <ele>158.893923</ele>
        <time>2025-06-26T01:45:01.858Z</time>
      </trkpt>
      <trkpt lat="48.268308" lon="0.860065">
        <ele>166.787368</ele>
        <time>2025-06-26T01:45:54.339Z</time>
      </trkpt>
      <trkpt lat="48.268377" lon="0.860451">
        <ele>168.987269</ele>
        <time>2025-06-26T01:46:08.828Z</time>
      </trkpt>
      <trkpt lat="48.268431" lon="0.861205">
        <ele>173.161385</ele>
        <time>2025-06-26T01:46:35.662Z</time>
      </trkpt>
      <trkpt lat="48.268546" lon="0.861792">
        <ele>176.520327</ele>
        <time>2025-06-26T01:46:56.487Z</time>
      </trkpt>
      <trkpt lat="48.268699" lon="0.862242">
        <ele>178.473417</ele>
        <time>2025-06-26T01:47:13.093Z</time>
      </trkpt>
      <trkpt lat="48.269095" lon="0.862896">
        <ele>181.890625</ele>
        <time>2025-06-26T01:47:40.209Z</time>
      </trkpt>
      <trkpt lat="48.269201" lon="0.863194">
        <ele>183.196580</ele>
        <time>2025-06-26T01:47:49.973Z</time>
      </trkpt>
      <trkpt lat="48.269229" lon="0.863346">
        <ele>183.806162</ele>
        <time>2025-06-26T01:47:54.455Z</time>
      </trkpt>
      <trkpt lat="48.269411" lon="0.864245">
        <ele>187.083686</ele>
        <time>2025-06-26T01:48:18.706Z</time>
      </trkpt>
      <trkpt lat="48.269552" lon="0.865158">
        <ele>188.112216</ele>
        <time>2025-06-26T01:48:37.600Z</time>
      </trkpt>
      <trkpt lat="48.269597" lon="0.865703">
        <ele>188.714876</ele>
        <time>2025-06-26T01:48:46.876Z</time>
      </trkpt>
      <trkpt lat="48.269684" lon="0.869363">
        <ele>190.677212</ele>
        <time>2025-06-26T01:49:37.890Z</time>
      </trkpt>
      <trkpt lat="48.269578" lon="0.871582">
        <ele>193.850672</ele>
        <time>2025-06-26T01:50:19.660Z</time>
      </trkpt>
      <trkpt lat="48.269585" lon="0.872127">
        <ele>194.665636</ele>
        <time>2025-06-26T01:50:31.782Z</time>
      </trkpt>
      <trkpt lat="48.269679" lon="0.873213">
        <ele>197.397518</ele>
        <time>2025-06-26T01:50:57.847Z</time>
      </trkpt>
      <trkpt lat="48.269734" lon="0.873560">
        <ele>198.307967</ele>
        <time>2025-06-26T01:51:06.708Z</time>
      </trkpt>
      <trkpt lat="48.269967" lon="0.874537">
        <ele>200.956887</ele>
        <time>2025-06-26T01:51:32.336Z</time>
      </trkpt>
      <trkpt lat="48.270082" lon="0.874834">
        <ele>201.770567</ele>
        <time>2025-06-26T01:51:40.504Z</time>
      </trkpt>
      <trkpt lat="48.270622" lon="0.875680">
        <ele>203.719022</ele>
        <time>2025-06-26T01:52:06.023Z</time>
      </trkpt>
      <trkpt lat="48.271020" lon="0.876660">
        <ele>205.627376</ele>
        <time>2025-06-26T01:52:27.406Z</time>
      </trkpt>
      <trkpt lat="48.271512" lon="0.877659">
        <ele>206.704326</ele>
        <time>2025-06-26T01:52:48.185Z</time>
      </trkpt>
      <trkpt lat="48.272125" lon="0.878731">
        <ele>207.553781</ele>
        <time>2025-06-26T01:53:10.960Z</time>
      </trkpt>
      <trkpt lat="48.272481" lon="0.879412">
        <ele>207.415428</ele>
        <time>2025-06-26T01:53:23.405Z</time>
      </trkpt>
      <trkpt lat="48.276683" lon="0.877502">
        <ele>202.212432</ele>
        <time>2025-06-26T01:54:15.422Z</time>
      </trkpt>
      <trkpt lat="48.279438" lon="0.876263">
        <ele>195.702575</ele>
        <time>2025-06-26T01:54:46.541Z</time>
      </trkpt>
      <trkpt lat="48.279488" lon="0.876486">
        <ele>195.125963</ele>
        <time>2025-06-26T01:54:48.132Z</time>
      </trkpt>
      <trkpt lat="48.279588" lon="0.876733">
        <ele>194.417523</ele>
        <time>2025-06-26T01:54:50.070Z</time>
      </trkpt>
      <trkpt lat="48.280080" lon="0.877655">
        <ele>191.521699</ele>
        <time>2025-06-26T01:54:57.772Z</time>
      </trkpt>
      <trkpt lat="48.280666" lon="0.878621">
        <ele>186.048458</ele>
        <time>2025-06-26T01:55:05.882Z</time>
      </trkpt>
      <trkpt lat="48.280844" lon="0.878868">
        <ele>184.264170</ele>
        <time>2025-06-26T01:55:08.076Z</time>
      </trkpt>
      <trkpt lat="48.281430" lon="0.879490">
        <ele>178.980619</ele>
        <time>2025-06-26T01:55:14.388Z</time>
      </trkpt>
      <trkpt lat="48.281616" lon="0.879758">
        <ele>176.972849</ele>
        <time>2025-06-26T01:55:16.607Z</time>
      </trkpt>
      <trkpt lat="48.281915" lon="0.880391">
        <ele>171.559811</ele>
        <time>2025-06-26T01:55:21.022Z</time>
      </trkpt>
      <trkpt lat="48.282065" lon="0.880895">
        <ele>167.709806</ele>
        <time>2025-06-26T01:55:24.143Z</time>
      </trkpt>
      <trkpt lat="48.282165" lon="0.881131">
        <ele>165.758821</ele>
        <time>2025-06-26T01:55:25.723Z</time>
      </trkpt>
      <trkpt lat="48.282308" lon="0.881721">
        <ele>161.380221</ele>
        <time>2025-06-26T01:55:29.276Z</time>
      </trkpt>
      <trkpt lat="48.282422" lon="0.882054">
        <ele>158.768880</ele>
        <time>2025-06-26T01:55:31.411Z</time>
      </trkpt>
      <trkpt lat="48.282815" lon="0.882891">
        <ele>155.261485</ele>
        <time>2025-06-26T01:55:37.413Z</time>
      </trkpt>
      <trkpt lat="48.282972" lon="0.883073">
        <ele>154.283339</ele>
        <time>2025-06-26T01:55:39.252Z</time>
      </trkpt>
      <trkpt lat="48.283172" lon="0.883245">
        <ele>153.146597</ele>
        <time>2025-06-26T01:55:41.473Z</time>
      </trkpt>
      <trkpt lat="48.283365" lon="0.883315">
        <ele>152.167188</ele>
        <time>2025-06-26T01:55:43.501Z</time>
      </trkpt>
      <trkpt lat="48.283511" lon="0.883411">
        <ele>151.381041</ele>
        <time>2025-06-26T01:55:45.261Z</time>
      </trkpt>
      <trkpt lat="48.283586" lon="0.883556">
        <ele>150.778178</ele>
        <time>2025-06-26T01:55:46.687Z</time>
      </trkpt>
      <trkpt lat="48.283632" lon="0.883754">
        <ele>150.089742</ele>
        <time>2025-06-26T01:55:48.440Z</time>
      </trkpt>
      <trkpt lat="48.283668" lon="0.884141">
        <ele>149.713827</ele>
        <time>2025-06-26T01:55:52.235Z</time>
      </trkpt>
      <trkpt lat="48.283718" lon="0.884291">
        <ele>149.775284</ele>
        <time>2025-06-26T01:55:54.157Z</time>
      </trkpt>
      <trkpt lat="48.283861" lon="0.884527">
        <ele>149.892208</ele>
        <time>2025-06-26T01:55:58.012Z</time>
      </trkpt>
      <trkpt lat="48.284029" lon="0.884734">
        <ele>150.011804</ele>
        <time>2025-06-26T01:56:02.137Z</time>
      </trkpt>
      <trkpt lat="48.284534" lon="0.883830">
        <ele>150.444180</ele>
        <time>2025-06-26T01:56:16.704Z</time>
      </trkpt>
      <trkpt lat="48.284841" lon="0.883420">
        <ele>150.874183</ele>
        <time>2025-06-26T01:56:24.196Z</time>
      </trkpt>
      <trkpt lat="48.285095" lon="0.883149">
        <ele>151.655538</ele>
        <time>2025-06-26T01:56:29.691Z</time>
      </trkpt>
      <trkpt lat="48.285316" lon="0.883017">
        <ele>152.252056</ele>
        <time>2025-06-26T01:56:33.968Z</time>
      </trkpt>
      <trkpt lat="48.285841" lon="0.882795">
        <ele>153.620065</ele>
        <time>2025-06-26T01:56:46.389Z</time>
      </trkpt>
      <trkpt lat="48.286066" lon="0.882660">
        <ele>154.227756</ele>
        <time>2025-06-26T01:56:53.176Z</time>
      </trkpt>
      <trkpt lat="48.286207" lon="0.882529">
        <ele>154.643559</ele>
        <time>2025-06-26T01:56:58.331Z</time>
      </trkpt>
      <trkpt lat="48.286634" lon="0.882803">
        <ele>157.267985</ele>
        <time>2025-06-26T01:57:14.876Z</time>
      </trkpt>
      <trkpt lat="48.286849" lon="0.883065">
        <ele>159.444885</ele>
        <time>2025-06-26T01:57:26.078Z</time>
      </trkpt>
      <trkpt lat="48.287151" lon="0.883548">
        <ele>162.913266</ele>
        <time>2025-06-26T01:57:46.755Z</time>
      </trkpt>
      <trkpt lat="48.287504" lon="0.884205">
        <ele>167.332284</ele>
        <time>2025-06-26T01:58:17.134Z</time>
      </trkpt>
      <trkpt lat="48.287717" lon="0.884731">
        <ele>170.581262</ele>
        <time>2025-06-26T01:58:39.457Z</time>
      </trkpt>
      <trkpt lat="48.287956" lon="0.885423">
        <ele>174.746237</ele>
        <time>2025-06-26T01:59:06.500Z</time>
      </trkpt>
      <trkpt lat="48.288074" lon="0.885627">
        <ele>176.190208</ele>
        <time>2025-06-26T01:59:15.319Z</time>
      </trkpt>
      <trkpt lat="48.288199" lon="0.886126">
        <ele>179.038495</ele>
        <time>2025-06-26T01:59:31.787Z</time>
      </trkpt>
      <trkpt lat="48.288338" lon="0.886957">
        <ele>183.615772</ele>
        <time>2025-06-26T01:59:55.404Z</time>
      </trkpt>
      <trkpt lat="48.288443" lon="0.888411">
        <ele>189.295314</ele>
        <time>2025-06-26T02:00:31.728Z</time>
      </trkpt>
      <trkpt lat="48.288472" lon="0.889130">
        <ele>192.079706</ele>
        <time>2025-06-26T02:00:49.901Z</time>
      </trkpt>
      <trkpt lat="48.288598" lon="0.890576">
        <ele>196.996196</ele>
        <time>2025-06-26T02:01:26.431Z</time>
      </trkpt>
      <trkpt lat="48.288690" lon="0.890689">
        <ele>197.546612</ele>
        <time>2025-06-26T02:01:30.591Z</time>
      </trkpt>
      <trkpt lat="48.288631" lon="0.890951">
        <ele>198.399190</ele>
        <time>2025-06-26T02:01:37.003Z</time>
      </trkpt>
      <trkpt lat="48.288686" lon="0.891348">
        <ele>199.649136</ele>
        <time>2025-06-26T02:01:45.954Z</time>
      </trkpt>
      <trkpt lat="48.289634" lon="0.895792">
        <ele>210.389825</ele>
        <time>2025-06-26T02:03:14.713Z</time>
      </trkpt>
      <trkpt lat="48.289691" lon="0.896324">
        <ele>211.263566</ele>
        <time>2025-06-26T02:03:23.683Z</time>
      </trkpt>
      <trkpt lat="48.289819" lon="0.896812">
        <ele>212.114113</ele>
        <time>2025-06-26T02:03:31.576Z</time>
      </trkpt>
      <trkpt lat="48.290105" lon="0.897531">
        <ele>213.246571</ele>
        <time>2025-06-26T02:03:42.835Z</time>
      </trkpt>
      <trkpt lat="48.290263" lon="0.897769">
        <ele>213.474406</ele>
        <time>2025-06-26T02:03:46.775Z</time>
      </trkpt>
      <trkpt lat="48.291134" lon="0.898833">
        <ele>214.617581</ele>
        <time>2025-06-26T02:04:05.725Z</time>
      </trkpt>
      <trkpt lat="48.291762" lon="0.899484">
        <ele>216.033525</ele>
        <time>2025-06-26T02:04:22.596Z</time>
      </trkpt>
      <trkpt lat="48.292472" lon="0.900274">
        <ele>218.135308</ele>
        <time>2025-06-26T02:04:45.330Z</time>
      </trkpt>
      <trkpt lat="48.292704" lon="0.900467">
        <ele>218.766200</ele>
        <time>2025-06-26T02:04:52.160Z</time>
      </trkpt>
      <trkpt lat="48.293040" lon="0.900811">
        <ele>219.791080</ele>
        <time>2025-06-26T02:05:02.516Z</time>
      </trkpt>
      <trkpt lat="48.293275" lon="0.900941">
        <ele>220.450704</ele>
        <time>2025-06-26T02:05:08.935Z</time>
      </trkpt>
      <trkpt lat="48.293770" lon="0.901018">
        <ele>221.761578</ele>
        <time>2025-06-26T02:05:21.700Z</time>
      </trkpt>
      <trkpt lat="48.293093" lon="0.904412">
        <ele>227.448351</ele>
        <time>2025-06-26T02:06:20.983Z</time>
      </trkpt>
      <trkpt lat="48.292767" lon="0.907034">
        <ele>229.966482</ele>
        <time>2025-06-26T02:06:55.591Z</time>
      </trkpt>
      <trkpt lat="48.292739" lon="0.907443">
        <ele>230.312509</ele>
        <time>2025-06-26T02:07:00.966Z</time>
      </trkpt>
      <trkpt lat="48.292746" lon="0.908297">
        <ele>230.760735</ele>
        <time>2025-06-26T02:07:12.364Z</time>
      </trkpt>
      <trkpt lat="48.292710" lon="0.909482">
        <ele>231.372227</ele>
        <time>2025-06-26T02:07:27.322Z</time>
      </trkpt>
      <trkpt lat="48.292502" lon="0.913665">
        <ele>231.672577</ele>
        <time>2025-06-26T02:08:08.123Z</time>
      </trkpt>
      <trkpt lat="48.292532" lon="0.914257">
        <ele>231.644098</ele>
        <time>2025-06-26T02:08:13.758Z</time>
      </trkpt>
      <trkpt lat="48.292492" lon="0.914616">
        <ele>231.626637</ele>
        <time>2025-06-26T02:08:17.311Z</time>
      </trkpt>
      <trkpt lat="48.292307" lon="0.915624">
        <ele>231.571803</ele>
        <time>2025-06-26T02:08:27.493Z</time>
      </trkpt>
      <trkpt lat="48.292280" lon="0.915936">
        <ele>231.542526</ele>
        <time>2025-06-26T02:08:30.554Z</time>
      </trkpt>
      <trkpt lat="48.292292" lon="0.916158">
        <ele>231.521800</ele>
        <time>2025-06-26T02:08:32.710Z</time>
      </trkpt>
      <trkpt lat="48.292361" lon="0.916613">
        <ele>231.478375</ele>
        <time>2025-06-26T02:08:37.179Z</time>
      </trkpt>
      <trkpt lat="48.292354" lon="0.917764">
        <ele>231.371267</ele>
        <time>2025-06-26T02:08:47.937Z</time>
      </trkpt>
      <trkpt lat="48.292327" lon="0.918198">
        <ele>231.330705</ele>
        <time>2025-06-26T02:08:51.956Z</time>
      </trkpt>
      <trkpt lat="48.292264" lon="0.918559">
        <ele>231.418230</ele>
        <time>2025-06-26T02:08:55.423Z</time>
      </trkpt>
      <trkpt lat="48.292180" lon="0.918792">
        <ele>231.482452</ele>
        <time>2025-06-26T02:08:57.914Z</time>
      </trkpt>
      <trkpt lat="48.291709" lon="0.920189">
        <ele>231.861989</ele>
        <time>2025-06-26T02:09:14.371Z</time>
      </trkpt>
      <trkpt lat="48.291529" lon="0.920898">
        <ele>232.330664</ele>
        <time>2025-06-26T02:09:23.880Z</time>
      </trkpt>
      <trkpt lat="48.291392" lon="0.921636">
        <ele>233.385138</ele>
        <time>2025-06-26T02:09:34.624Z</time>
      </trkpt>
      <trkpt lat="48.291350" lon="0.922058">
        <ele>233.972383</ele>
        <time>2025-06-26T02:09:41.087Z</time>
      </trkpt>
      <trkpt lat="48.291249" lon="0.924368">
        <ele>238.552078</ele>
        <time>2025-06-26T02:10:21.309Z</time>
      </trkpt>
      <trkpt lat="48.291190" lon="0.925141">
        <ele>240.650096</ele>
        <time>2025-06-26T02:10:37.175Z</time>
      </trkpt>
      <trkpt lat="48.291097" lon="0.926182">
        <ele>243.756212</ele>
        <time>2025-06-26T02:11:01.963Z</time>
      </trkpt>
      <trkpt lat="48.291001" lon="0.926649">
        <ele>245.814914</ele>
        <time>2025-06-26T02:11:15.284Z</time>
      </trkpt>
      <trkpt lat="48.290833" lon="0.927174">
        <ele>248.268625</ele>
        <time>2025-06-26T02:11:32.462Z</time>
      </trkpt>
      <trkpt lat="48.289966" lon="0.929470">
        <ele>254.974317</ele>
        <time>2025-06-26T02:12:42.899Z</time>
      </trkpt>
      <trkpt lat="48.290040" lon="0.929642">
        <ele>255.076544</ele>
        <time>2025-06-26T02:12:45.170Z</time>
      </trkpt>
      <trkpt lat="48.290233" lon="0.929728">
        <ele>255.227544</ele>
        <time>2025-06-26T02:12:47.705Z</time>
      </trkpt>
      <trkpt lat="48.291218" lon="0.929567">
        <ele>253.583280</ele>
        <time>2025-06-26T02:12:57.082Z</time>
      </trkpt>
      <trkpt lat="48.291804" lon="0.929562">
        <ele>249.660633</ele>
        <time>2025-06-26T02:13:02.332Z</time>
      </trkpt>
      <trkpt lat="48.292225" lon="0.929438">
        <ele>246.788929</ele>
        <time>2025-06-26T02:13:06.176Z</time>
      </trkpt>
      <trkpt lat="48.292380" lon="0.929356">
        <ele>245.688990</ele>
        <time>2025-06-26T02:13:07.644Z</time>
      </trkpt>
      <trkpt lat="48.292703" lon="0.929063">
        <ele>243.060711</ele>
        <time>2025-06-26T02:13:11.012Z</time>
      </trkpt>
      <trkpt lat="48.292957" lon="0.928998">
        <ele>240.999045</ele>
        <time>2025-06-26T02:13:13.293Z</time>
      </trkpt>
      <trkpt lat="48.293326" lon="0.929006">
        <ele>238.046131</ele>
        <time>2025-06-26T02:13:16.559Z</time>
      </trkpt>
      <trkpt lat="48.294195" lon="0.928913">
        <ele>231.075098</ele>
        <time>2025-06-26T02:13:24.210Z</time>
      </trkpt>
      <trkpt lat="48.294559" lon="0.929052">
        <ele>228.267386</ele>
        <time>2025-06-26T02:13:27.517Z</time>
      </trkpt>
      <trkpt lat="48.294734" lon="0.929266">
        <ele>226.752348</ele>
        <time>2025-06-26T02:13:29.514Z</time>
      </trkpt>
      <trkpt lat="48.295355" lon="0.930087">
        <ele>221.198334</ele>
        <time>2025-06-26T02:13:36.940Z</time>
      </trkpt>
      <trkpt lat="48.296333" lon="0.930994">
        <ele>214.794492</ele>
        <time>2025-06-26T02:13:47.672Z</time>
      </trkpt>
      <trkpt lat="48.296604" lon="0.931064">
        <ele>213.596719</ele>
        <time>2025-06-26T02:13:50.303Z</time>
      </trkpt>
      <trkpt lat="48.297311" lon="0.930876">
        <ele>210.469225</ele>
        <time>2025-06-26T02:13:57.294Z</time>
      </trkpt>
      <trkpt lat="48.297685" lon="0.930854">
        <ele>209.086437</ele>
        <time>2025-06-26T02:14:01.066Z</time>
      </trkpt>
      <trkpt lat="48.298338" lon="0.931042">
        <ele>207.504528</ele>
        <time>2025-06-26T02:14:08.025Z</time>
      </trkpt>
      <trkpt lat="48.298788" lon="0.931225">
        <ele>206.395364</ele>
        <time>2025-06-26T02:14:13.086Z</time>
      </trkpt>
      <trkpt lat="48.299223" lon="0.931198">
        <ele>205.359495</ele>
        <time>2025-06-26T02:14:17.923Z</time>
      </trkpt>
      <trkpt lat="48.299391" lon="0.931289">
        <ele>205.029258</ele>
        <time>2025-06-26T02:14:19.937Z</time>
      </trkpt>
      <trkpt lat="48.299871" lon="0.931668">
        <ele>204.455858</ele>
        <time>2025-06-26T02:14:26.159Z</time>
      </trkpt>
      <trkpt lat="48.300394" lon="0.930794">
        <ele>203.628811</ele>
        <time>2025-06-26T02:14:35.561Z</time>
      </trkpt>
      <trkpt lat="48.301451" lon="0.929929">
        <ele>203.761434</ele>
        <time>2025-06-26T02:14:52.673Z</time>
      </trkpt>
      <trkpt lat="48.301870" lon="0.929290">
        <ele>204.177884</ele>
        <time>2025-06-26T02:15:03.020Z</time>
      </trkpt>
      <trkpt lat="48.301981" lon="0.929152">
        <ele>204.278386</ele>
        <time>2025-06-26T02:15:05.962Z</time>
      </trkpt>
      <trkpt lat="48.302212" lon="0.928986">
        <ele>204.457031</ele>
        <time>2025-06-26T02:15:11.804Z</time>
      </trkpt>
      <trkpt lat="48.302633" lon="0.928787">
        <ele>206.429717</ele>
        <time>2025-06-26T02:15:23.447Z</time>
      </trkpt>
      <trkpt lat="48.302750" lon="0.928773">
        <ele>206.955417</ele>
        <time>2025-06-26T02:15:26.804Z</time>
      </trkpt>
      <trkpt lat="48.302553" lon="0.929524">
        <ele>209.360648</ele>
        <time>2025-06-26T02:15:43.854Z</time>
      </trkpt>
      <trkpt lat="48.302431" lon="0.929814">
        <ele>210.382971</ele>
        <time>2025-06-26T02:15:51.868Z</time>
      </trkpt>
      <trkpt lat="48.302328" lon="0.930211">
        <ele>211.652587</ele>
        <time>2025-06-26T02:16:02.972Z</time>
      </trkpt>
      <trkpt lat="48.302189" lon="0.931418">
        <ele>217.151794</ele>
        <time>2025-06-26T02:16:38.502Z</time>
      </trkpt>
      <trkpt lat="48.302203" lon="0.931911">
        <ele>219.597184</ele>
        <time>2025-06-26T02:16:53.365Z</time>
      </trkpt>
      <trkpt lat="48.302342" lon="0.932474">
        <ele>222.573219</ele>
        <time>2025-06-26T02:17:11.797Z</time>
      </trkpt>
      <trkpt lat="48.302678" lon="0.933467">
        <ele>227.827587</ele>
        <time>2025-06-26T02:17:46.686Z</time>
      </trkpt>
      <trkpt lat="48.302853" lon="0.933783">
        <ele>229.616042</ele>
        <time>2025-06-26T02:17:58.874Z</time>
      </trkpt>
      <trkpt lat="48.303038" lon="0.933998">
        <ele>231.145045</ele>
        <time>2025-06-26T02:18:09.025Z</time>
      </trkpt>
      <trkpt lat="48.303174" lon="0.934207">
        <ele>232.416738</ele>
        <time>2025-06-26T02:18:17.208Z</time>
      </trkpt>
      <trkpt lat="48.303238" lon="0.934492">
        <ele>233.725091</ele>
        <time>2025-06-26T02:18:25.376Z</time>
      </trkpt>
      <trkpt lat="48.303234" lon="0.934851">
        <ele>235.286797</ele>
        <time>2025-06-26T02:18:34.681Z</time>
      </trkpt>
      <trkpt lat="48.303177" lon="0.935377">
        <ele>237.604820</ele>
        <time>2025-06-26T02:18:47.545Z</time>
      </trkpt>
      <trkpt lat="48.303070" lon="0.936036">
        <ele>239.081132</ele>
        <time>2025-06-26T02:19:02.195Z</time>
      </trkpt>
      <trkpt lat="48.302627" lon="0.939437">
        <ele>246.330831</ele>
        <time>2025-06-26T02:19:59.503Z</time>
      </trkpt>
      <trkpt lat="48.302631" lon="0.939958">
        <ele>247.397075</ele>
        <time>2025-06-26T02:20:08.306Z</time>
      </trkpt>
      <trkpt lat="48.302724" lon="0.940510">
        <ele>248.562353</ele>
        <time>2025-06-26T02:20:19.226Z</time>
      </trkpt>
      <trkpt lat="48.302774" lon="0.941122">
        <ele>250.667503</ele>
        <time>2025-06-26T02:20:32.702Z</time>
      </trkpt>
      <trkpt lat="48.302845" lon="0.941481">
        <ele>252.173546</ele>
        <time>2025-06-26T02:20:41.798Z</time>
      </trkpt>
      <trkpt lat="48.303431" lon="0.943300">
        <ele>260.167228</ele>
        <time>2025-06-26T02:21:39.602Z</time>
      </trkpt>
      <trkpt lat="48.303760" lon="0.945112">
        <ele>265.610026</ele>
        <time>2025-06-26T02:22:24.940Z</time>
      </trkpt>
      <trkpt lat="48.303663" lon="0.946288">
        <ele>267.535702</ele>
        <time>2025-06-26T02:22:41.327Z</time>
      </trkpt>
      <trkpt lat="48.303566" lon="0.946958">
        <ele>267.359464</ele>
        <time>2025-06-26T02:22:47.200Z</time>
      </trkpt>
      <trkpt lat="48.303376" lon="0.947761">
        <ele>267.140403</ele>
        <time>2025-06-26T02:22:54.038Z</time>
      </trkpt>
      <trkpt lat="48.303195" lon="0.949228">
        <ele>266.981504</ele>
        <time>2025-06-26T02:23:05.535Z</time>
      </trkpt>
      <trkpt lat="48.303030" lon="0.950124">
        <ele>267.002225</ele>
        <time>2025-06-26T02:23:13.568Z</time>
      </trkpt>
      <trkpt lat="48.302931" lon="0.950900">
        <ele>267.019836</ele>
        <time>2025-06-26T02:23:23.316Z</time>
      </trkpt>
      <trkpt lat="48.302856" lon="0.951709">
        <ele>268.148555</ele>
        <time>2025-06-26T02:23:37.477Z</time>
      </trkpt>
      <trkpt lat="48.302612" lon="0.953377">
        <ele>271.165013</ele>
        <time>2025-06-26T02:24:10.923Z</time>
      </trkpt>
      <trkpt lat="48.302576" lon="0.955781">
        <ele>272.925114</ele>
        <time>2025-06-26T02:24:39.346Z</time>
      </trkpt>
      <trkpt lat="48.302529" lon="0.956300">
        <ele>273.213348</ele>
        <time>2025-06-26T02:24:44.448Z</time>
      </trkpt>
      <trkpt lat="48.302443" lon="0.956772">
        <ele>273.564126</ele>
        <time>2025-06-26T02:24:49.960Z</time>
      </trkpt>
      <trkpt lat="48.302422" lon="0.957352">
        <ele>274.017242</ele>
        <time>2025-06-26T02:24:57.091Z</time>
      </trkpt>
      <trkpt lat="48.302609" lon="0.958217">
        <ele>274.726749</ele>
        <time>2025-06-26T02:25:09.667Z</time>
      </trkpt>
      <trkpt lat="48.302760" lon="0.959929">
        <ele>275.336341</ele>
        <time>2025-06-26T02:25:33.776Z</time>
      </trkpt>
      <trkpt lat="48.302788" lon="0.960665">
        <ele>275.284986</ele>
        <time>2025-06-26T02:25:40.516Z</time>
      </trkpt>
      <trkpt lat="48.302917" lon="0.961405">
        <ele>275.231695</ele>
        <time>2025-06-26T02:25:46.602Z</time>
      </trkpt>
      <trkpt lat="48.303249" lon="0.962242">
        <ele>274.796493</ele>
        <time>2025-06-26T02:25:53.947Z</time>
      </trkpt>
      <trkpt lat="48.304383" lon="0.966088">
        <ele>272.546057</ele>
        <time>2025-06-26T02:26:29.525Z</time>
      </trkpt>
      <trkpt lat="48.304654" lon="0.967542">
        <ele>271.721262</ele>
        <time>2025-06-26T02:26:43.243Z</time>
      </trkpt>
      <trkpt lat="48.305083" lon="0.970229">
        <ele>270.142092</ele>
        <time>2025-06-26T02:27:05.006Z</time>
      </trkpt>
      <trkpt lat="48.305206" lon="0.970817">
        <ele>269.835598</ele>
        <time>2025-06-26T02:27:09.976Z</time>
      </trkpt>
      <trkpt lat="48.305964" lon="0.974633">
        <ele>268.840586</ele>
        <time>2025-06-26T02:27:47.943Z</time>
      </trkpt>
      <trkpt lat="48.306535" lon="0.976586">
        <ele>267.766608</ele>
        <time>2025-06-26T02:28:06.404Z</time>
      </trkpt>
      <trkpt lat="48.306810" lon="0.977670">
        <ele>266.541184</ele>
        <time>2025-06-26T02:28:15.209Z</time>
      </trkpt>
      <trkpt lat="48.307209" lon="0.979714">
        <ele>263.710373</ele>
        <time>2025-06-26T02:28:30.436Z</time>
      </trkpt>
      <trkpt lat="48.307370" lon="0.980743">
        <ele>262.185896</ele>
        <time>2025-06-26T02:28:37.978Z</time>
      </trkpt>
      <trkpt lat="48.307448" lon="0.981012">
        <ele>261.762698</ele>
        <time>2025-06-26T02:28:40.084Z</time>
      </trkpt>
      <trkpt lat="48.308273" lon="0.982954">
        <ele>258.731560</ele>
        <time>2025-06-26T02:28:56.832Z</time>
      </trkpt>
      <trkpt lat="48.309325" lon="0.984938">
        <ele>256.839434</ele>
        <time>2025-06-26T02:29:16.001Z</time>
      </trkpt>
      <trkpt lat="48.309749" lon="0.986289">
        <ele>256.751357</ele>
        <time>2025-06-26T02:29:33.567Z</time>
      </trkpt>
      <trkpt lat="48.309785" lon="0.986537">
        <ele>256.705977</ele>
        <time>2025-06-26T02:29:37.174Z</time>
      </trkpt>
      <trkpt lat="48.309812" lon="0.987336">
        <ele>256.084144</ele>
        <time>2025-06-26T02:29:47.794Z</time>
      </trkpt>
      <trkpt lat="48.309871" lon="0.987760">
        <ele>255.747450</ele>
        <time>2025-06-26T02:29:52.239Z</time>
      </trkpt>
      <trkpt lat="48.309964" lon="0.988178">
        <ele>255.404859</ele>
        <time>2025-06-26T02:29:55.723Z</time>
      </trkpt>
      <trkpt lat="48.310233" lon="0.988955">
        <ele>254.724011</ele>
        <time>2025-06-26T02:30:01.786Z</time>
      </trkpt>
      <trkpt lat="48.310453" lon="0.989252">
        <ele>253.478843</ele>
        <time>2025-06-26T02:30:04.649Z</time>
      </trkpt>
      <trkpt lat="48.311023" lon="0.990239">
        <ele>248.926271</ele>
        <time>2025-06-26T02:30:12.567Z</time>
      </trkpt>
      <trkpt lat="48.311234" lon="0.990544">
        <ele>247.393558</ele>
        <time>2025-06-26T02:30:15.220Z</time>
      </trkpt>
      <trkpt lat="48.311490" lon="0.990789">
        <ele>245.804472</ele>
        <time>2025-06-26T02:30:18.057Z</time>
      </trkpt>
      <trkpt lat="48.311569" lon="0.990867">
        <ele>245.309563</ele>
        <time>2025-06-26T02:30:18.968Z</time>
      </trkpt>
      <trkpt lat="48.311776" lon="0.990961">
        <ele>245.002601</ele>
        <time>2025-06-26T02:30:21.071Z</time>
      </trkpt>
      <trkpt lat="48.311749" lon="0.991348">
        <ele>244.721928</ele>
        <time>2025-06-26T02:30:23.697Z</time>
      </trkpt>
      <trkpt lat="48.311715" lon="0.991776">
        <ele>244.411019</ele>
        <time>2025-06-26T02:30:26.764Z</time>
      </trkpt>
      <trkpt lat="48.311549" lon="0.993066">
        <ele>243.463289</ele>
        <time>2025-06-26T02:30:40.799Z</time>
      </trkpt>
      <trkpt lat="48.311327" lon="0.994772">
        <ele>244.523345</ele>
        <time>2025-06-26T02:31:06.612Z</time>
      </trkpt>
      <trkpt lat="48.311192" lon="0.995810">
        <ele>245.428815</ele>
        <time>2025-06-26T02:31:20.686Z</time>
      </trkpt>
      <trkpt lat="48.311044" lon="0.997440">
        <ele>244.555477</ele>
        <time>2025-06-26T02:31:36.815Z</time>
      </trkpt>
      <trkpt lat="48.311030" lon="0.997684">
        <ele>244.383783</ele>
        <time>2025-06-26T02:31:38.672Z</time>
      </trkpt>
      <trkpt lat="48.310973" lon="0.998435">
        <ele>243.853867</ele>
        <time>2025-06-26T02:31:44.138Z</time>
      </trkpt>
      <trkpt lat="48.310926" lon="1.000460">
        <ele>240.010413</ele>
        <time>2025-06-26T02:31:57.666Z</time>
      </trkpt>
      <trkpt lat="48.310926" lon="1.000837">
        <ele>239.235221</ele>
        <time>2025-06-26T02:32:00.173Z</time>
      </trkpt>
      <trkpt lat="48.311081" lon="1.000914">
        <ele>238.730538</ele>
        <time>2025-06-26T02:32:01.805Z</time>
      </trkpt>
      <trkpt lat="48.314512" lon="1.004590">
        <ele>229.554769</ele>
        <time>2025-06-26T02:32:46.989Z</time>
      </trkpt>
      <trkpt lat="48.316310" lon="1.006522">
        <ele>229.843337</ele>
        <time>2025-06-26T02:33:19.773Z</time>
      </trkpt>
      <trkpt lat="48.318802" lon="1.009179">
        <ele>237.423298</ele>
        <time>2025-06-26T02:34:36.069Z</time>
      </trkpt>
      <trkpt lat="48.319295" lon="1.009633">
        <ele>240.342967</ele>
        <time>2025-06-26T02:34:55.001Z</time>
      </trkpt>
      <trkpt lat="48.319708" lon="1.010299">
        <ele>243.401362</ele>
        <time>2025-06-26T02:35:18.742Z</time>
      </trkpt>
      <trkpt lat="48.320374" lon="1.012349">
        <ele>250.653267</ele>
        <time>2025-06-26T02:36:22.384Z</time>
      </trkpt>
      <trkpt lat="48.322572" lon="1.019232">
        <ele>257.775645</ele>
        <time>2025-06-26T02:37:59.211Z</time>
      </trkpt>
      <trkpt lat="48.322998" lon="1.020538">
        <ele>258.057918</ele>
        <time>2025-06-26T02:38:12.865Z</time>
      </trkpt>
      <trkpt lat="48.323343" lon="1.022066">
        <ele>257.006559</ele>
        <time>2025-06-26T02:38:26.340Z</time>
      </trkpt>
      <trkpt lat="48.324958" lon="1.029081">
        <ele>249.709441</ele>
        <time>2025-06-26T02:39:22.912Z</time>
      </trkpt>
      <trkpt lat="48.325104" lon="1.030566">
        <ele>248.043754</ele>
        <time>2025-06-26T02:39:34.001Z</time>
      </trkpt>
      <trkpt lat="48.325303" lon="1.032714">
        <ele>245.901329</ele>
        <time>2025-06-26T02:39:50.884Z</time>
      </trkpt>
      <trkpt lat="48.325668" lon="1.036820">
        <ele>241.181353</ele>
        <time>2025-06-26T02:40:22.199Z</time>
      </trkpt>
      <trkpt lat="48.326588" lon="1.047435">
        <ele>226.240535</ele>
        <time>2025-06-26T02:41:38.391Z</time>
      </trkpt>
      <trkpt lat="48.326887" lon="1.050665">
        <ele>227.342579</ele>
        <time>2025-06-26T02:42:20.541Z</time>
      </trkpt>
      <trkpt lat="48.327270" lon="1.055166">
        <ele>229.155285</ele>
        <time>2025-06-26T02:43:15.198Z</time>
      </trkpt>
      <trkpt lat="48.327297" lon="1.055678">
        <ele>228.732821</ele>
        <time>2025-06-26T02:43:18.958Z</time>
      </trkpt>
      <trkpt lat="48.327289" lon="1.055922">
        <ele>228.531878</ele>
        <time>2025-06-26T02:43:20.724Z</time>
      </trkpt>
      <trkpt lat="48.327259" lon="1.056190">
        <ele>228.308334</ele>
        <time>2025-06-26T02:43:22.677Z</time>
      </trkpt>
      <trkpt lat="48.327108" lon="1.056804">
        <ele>227.769852</ele>
        <time>2025-06-26T02:43:27.314Z</time>
      </trkpt>
      <trkpt lat="48.325960" lon="1.060796">
        <ele>224.650445</ele>
        <time>2025-06-26T02:44:03.600Z</time>
      </trkpt>
      <trkpt lat="48.325949" lon="1.060834">
        <ele>224.607278</ele>
        <time>2025-06-26T02:44:03.936Z</time>
      </trkpt>
      <trkpt lat="48.325348" lon="1.062879">
        <ele>222.094284</ele>
        <time>2025-06-26T02:44:20.337Z</time>
      </trkpt>
      <trkpt lat="48.325325" lon="1.062960">
        <ele>221.965972</ele>
        <time>2025-06-26T02:44:20.978Z</time>
      </trkpt>
      <trkpt lat="48.325076" lon="1.063811">
        <ele>220.611494</ele>
        <time>2025-06-26T02:44:27.580Z</time>
      </trkpt>
      <trkpt lat="48.324981" lon="1.064126">
        <ele>220.107598</ele>
        <time>2025-06-26T02:44:30.042Z</time>
      </trkpt>
      <trkpt lat="48.324884" lon="1.064630">
        <ele>219.343221</ele>
        <time>2025-06-26T02:44:33.776Z</time>
      </trkpt>
      <trkpt lat="48.324867" lon="1.064776">
        <ele>219.127288</ele>
        <time>2025-06-26T02:44:34.814Z</time>
      </trkpt>
      <trkpt lat="48.324433" lon="1.068334">
        <ele>215.747037</ele>
        <time>2025-06-26T02:45:01.437Z</time>
      </trkpt>
      <trkpt lat="48.324251" lon="1.069663">
        <ele>216.332267</ele>
        <time>2025-06-26T02:45:19.701Z</time>
      </trkpt>
      <trkpt lat="48.324078" lon="1.070174">
        <ele>216.579587</ele>
        <time>2025-06-26T02:45:29.114Z</time>
      </trkpt>
      <trkpt lat="48.323952" lon="1.070469">
        <ele>216.865586</ele>
        <time>2025-06-26T02:45:34.863Z</time>
      </trkpt>
      <trkpt lat="48.322283" lon="1.073703">
        <ele>220.335620</ele>
        <time>2025-06-26T02:46:28.492Z</time>
      </trkpt>
      <trkpt lat="48.322067" lon="1.074233">
        <ele>220.774873</ele>
        <time>2025-06-26T02:46:35.712Z</time>
      </trkpt>
      <trkpt lat="48.322023" lon="1.074498">
        <ele>220.967876</ele>
        <time>2025-06-26T02:46:39.074Z</time>
      </trkpt>
      <trkpt lat="48.321993" lon="1.074678">
        <ele>221.110871</ele>
        <time>2025-06-26T02:46:41.314Z</time>
      </trkpt>
      <trkpt lat="48.321968" lon="1.075118">
        <ele>221.613721</ele>
        <time>2025-06-26T02:46:46.892Z</time>
      </trkpt>
      <trkpt lat="48.321976" lon="1.075667">
        <ele>222.239013</ele>
        <time>2025-06-26T02:46:54.398Z</time>
      </trkpt>
      <trkpt lat="48.322231" lon="1.080656">
        <ele>227.939441</ele>
        <time>2025-06-26T02:48:11.549Z</time>
      </trkpt>
      <trkpt lat="48.322242" lon="1.081287">
        <ele>228.081962</ele>
        <time>2025-06-26T02:48:17.760Z</time>
      </trkpt>
      <trkpt lat="48.322220" lon="1.082127">
        <ele>228.271770</ele>
        <time>2025-06-26T02:48:25.176Z</time>
      </trkpt>
      <trkpt lat="48.322056" lon="1.084450">
        <ele>228.154421</ele>
        <time>2025-06-26T02:48:46.605Z</time>
      </trkpt>
      <trkpt lat="48.321866" lon="1.087528">
        <ele>227.452229</ele>
        <time>2025-06-26T02:49:16.195Z</time>
      </trkpt>
      <trkpt lat="48.321874" lon="1.089057">
        <ele>226.508128</ele>
        <time>2025-06-26T02:49:28.452Z</time>
      </trkpt>
      <trkpt lat="48.321947" lon="1.092297">
        <ele>223.766509</ele>
        <time>2025-06-26T02:49:53.405Z</time>
      </trkpt>
      <trkpt lat="48.322033" lon="1.093283">
        <ele>222.928820</ele>
        <time>2025-06-26T02:50:01.389Z</time>
      </trkpt>
      <trkpt lat="48.322567" lon="1.096250">
        <ele>221.125470</ele>
        <time>2025-06-26T02:50:26.890Z</time>
      </trkpt>
      <trkpt lat="48.322861" lon="1.098178">
        <ele>219.997953</ele>
        <time>2025-06-26T02:50:43.779Z</time>
      </trkpt>
      <trkpt lat="48.323139" lon="1.100041">
        <ele>218.381393</ele>
        <time>2025-06-26T02:50:58.825Z</time>
      </trkpt>
      <trkpt lat="48.323381" lon="1.103469">
        <ele>214.720553</ele>
        <time>2025-06-26T02:51:24.637Z</time>
      </trkpt>
      <trkpt lat="48.323500" lon="1.104183">
        <ele>213.940463</ele>
        <time>2025-06-26T02:51:30.158Z</time>
      </trkpt>
      <trkpt lat="48.323663" lon="1.104935">
        <ele>213.523331</ele>
        <time>2025-06-26T02:51:36.222Z</time>
      </trkpt>
      <trkpt lat="48.323672" lon="1.104976">
        <ele>213.500560</ele>
        <time>2025-06-26T02:51:36.554Z</time>
      </trkpt>
      <trkpt lat="48.323693" lon="1.105072">
        <ele>213.447262</ele>
        <time>2025-06-26T02:51:37.338Z</time>
      </trkpt>
      <trkpt lat="48.323782" lon="1.105374">
        <ele>213.273050</ele>
        <time>2025-06-26T02:51:39.953Z</time>
      </trkpt>
      <trkpt lat="48.324288" lon="1.106686">
        <ele>212.663793</ele>
        <time>2025-06-26T02:51:53.546Z</time>
      </trkpt>
      <trkpt lat="48.324440" lon="1.107630">
        <ele>213.358438</ele>
        <time>2025-06-26T02:52:05.438Z</time>
      </trkpt>
      <trkpt lat="48.324490" lon="1.107951">
        <ele>213.594226</ele>
        <time>2025-06-26T02:52:09.993Z</time>
      </trkpt>
      <trkpt lat="48.324506" lon="1.108057">
        <ele>213.671964</ele>
        <time>2025-06-26T02:52:11.518Z</time>
      </trkpt>
      <trkpt lat="48.324640" lon="1.108937">
        <ele>214.317615</ele>
        <time>2025-06-26T02:52:24.620Z</time>
      </trkpt>
      <trkpt lat="48.324657" lon="1.109230">
        <ele>214.514463</ele>
        <time>2025-06-26T02:52:28.714Z</time>
      </trkpt>
      <trkpt lat="48.324658" lon="1.109394">
        <ele>214.591442</ele>
        <time>2025-06-26T02:52:30.959Z</time>
      </trkpt>
      <trkpt lat="48.324576" lon="1.110102">
        <ele>214.928755</ele>
        <time>2025-06-26T02:52:40.606Z</time>
      </trkpt>
      <trkpt lat="48.324569" lon="1.110414">
        <ele>215.075281</ele>
        <time>2025-06-26T02:52:44.491Z</time>
      </trkpt>
      <trkpt lat="48.324568" lon="1.111175">
        <ele>215.432468</ele>
        <time>2025-06-26T02:52:52.728Z</time>
      </trkpt>
      <trkpt lat="48.324509" lon="1.111802">
        <ele>215.729692</ele>
        <time>2025-06-26T02:52:59.032Z</time>
      </trkpt>
      <trkpt lat="48.324470" lon="1.112127">
        <ele>215.673521</ele>
        <time>2025-06-26T02:53:02.194Z</time>
      </trkpt>
      <trkpt lat="48.324454" lon="1.112518">
        <ele>215.550026</ele>
        <time>2025-06-26T02:53:05.900Z</time>
      </trkpt>
      <trkpt lat="48.324451" lon="1.112812">
        <ele>215.457333</ele>
        <time>2025-06-26T02:53:08.674Z</time>
      </trkpt>
      <trkpt lat="48.324483" lon="1.113130">
        <ele>215.355943</ele>
        <time>2025-06-26T02:53:11.671Z</time>
      </trkpt>
      <trkpt lat="48.324659" lon="1.113788">
        <ele>215.132357</ele>
        <time>2025-06-26T02:53:17.899Z</time>
      </trkpt>
      <trkpt lat="48.324913" lon="1.114478">
        <ele>214.847255</ele>
        <time>2025-06-26T02:53:24.588Z</time>
      </trkpt>
      <trkpt lat="48.326052" lon="1.117155">
        <ele>212.272258</ele>
        <time>2025-06-26T02:53:49.239Z</time>
      </trkpt>
      <trkpt lat="48.326703" lon="1.119386">
        <ele>210.749627</ele>
        <time>2025-06-26T02:54:09.156Z</time>
      </trkpt>
      <trkpt lat="48.327627" lon="1.121960">
        <ele>209.666280</ele>
        <time>2025-06-26T02:54:35.428Z</time>
      </trkpt>
      <trkpt lat="48.327970" lon="1.122725">
        <ele>209.177158</ele>
        <time>2025-06-26T02:54:43.680Z</time>
      </trkpt>
      <trkpt lat="48.328352" lon="1.123514">
        <ele>208.659769</ele>
        <time>2025-06-26T02:54:51.675Z</time>
      </trkpt>
      <trkpt lat="48.329785" lon="1.126503">
        <ele>206.278748</ele>
        <time>2025-06-26T02:55:19.696Z</time>
      </trkpt>
      <trkpt lat="48.329845" lon="1.126629">
        <ele>206.363355</ele>
        <time>2025-06-26T02:55:21.218Z</time>
      </trkpt>
      <trkpt lat="48.333844" lon="1.134979">
        <ele>212.434588</ele>
        <time>2025-06-26T02:57:32.369Z</time>
      </trkpt>
      <trkpt lat="48.334862" lon="1.137123">
        <ele>213.810605</ele>
        <time>2025-06-26T02:58:04.664Z</time>
      </trkpt>
      <trkpt lat="48.335222" lon="1.137890">
        <ele>213.765298</ele>
        <time>2025-06-26T02:58:13.939Z</time>
      </trkpt>
      <trkpt lat="48.335398" lon="1.138442">
        <ele>213.735756</ele>
        <time>2025-06-26T02:58:19.491Z</time>
      </trkpt>
      <trkpt lat="48.335510" lon="1.139073">
        <ele>213.704241</ele>
        <time>2025-06-26T02:58:25.207Z</time>
      </trkpt>
      <trkpt lat="48.335710" lon="1.140573">
        <ele>213.043740</ele>
        <time>2025-06-26T02:58:39.218Z</time>
      </trkpt>
      <trkpt lat="48.335800" lon="1.141036">
        <ele>212.793789</ele>
        <time>2025-06-26T02:58:43.410Z</time>
      </trkpt>
      <trkpt lat="48.335925" lon="1.141435">
        <ele>212.565238</ele>
        <time>2025-06-26T02:58:47.111Z</time>
      </trkpt>
      <trkpt lat="48.337694" lon="1.145436">
        <ele>207.730087</ele>
        <time>2025-06-26T02:59:22.944Z</time>
      </trkpt>
      <trkpt lat="48.338012" lon="1.146219">
        <ele>206.854198</ele>
        <time>2025-06-26T02:59:30.205Z</time>
      </trkpt>
      <trkpt lat="48.338293" lon="1.147226">
        <ele>206.327607</ele>
        <time>2025-06-26T02:59:39.386Z</time>
      </trkpt>
      <trkpt lat="48.339804" lon="1.153237">
        <ele>204.446032</ele>
        <time>2025-06-26T03:00:36.241Z</time>
      </trkpt>
      <trkpt lat="48.339835" lon="1.153364">
        <ele>204.428771</ele>
        <time>2025-06-26T03:00:37.644Z</time>
      </trkpt>
      <trkpt lat="48.339951" lon="1.153833">
        <ele>204.364926</ele>
        <time>2025-06-26T03:00:42.979Z</time>
      </trkpt>
      <trkpt lat="48.341079" lon="1.158196">
        <ele>205.720602</ele>
        <time>2025-06-26T03:01:36.119Z</time>
      </trkpt>
      <trkpt lat="48.341242" lon="1.158653">
        <ele>205.856950</ele>
        <time>2025-06-26T03:01:41.466Z</time>
      </trkpt>
      <trkpt lat="48.342676" lon="1.161772">
        <ele>206.330006</ele>
        <time>2025-06-26T03:02:18.972Z</time>
      </trkpt>
      <trkpt lat="48.342852" lon="1.162269">
        <ele>206.575604</ele>
        <time>2025-06-26T03:02:25.427Z</time>
      </trkpt>
      <trkpt lat="48.342987" lon="1.162961">
        <ele>206.890134</ele>
        <time>2025-06-26T03:02:34.227Z</time>
      </trkpt>
      <trkpt lat="48.343094" lon="1.164298">
        <ele>207.458280</ele>
        <time>2025-06-26T03:02:51.461Z</time>
      </trkpt>
      <trkpt lat="48.343266" lon="1.166465">
        <ele>208.306216</ele>
        <time>2025-06-26T03:03:16.202Z</time>
      </trkpt>
      <trkpt lat="48.343279" lon="1.167563">
        <ele>208.315410</ele>
        <time>2025-06-26T03:03:26.526Z</time>
      </trkpt>
      <trkpt lat="48.343275" lon="1.168258">
        <ele>208.321228</ele>
        <time>2025-06-26T03:03:32.958Z</time>
      </trkpt>
      <trkpt lat="48.343277" lon="1.169524">
        <ele>208.391164</ele>
        <time>2025-06-26T03:03:45.868Z</time>
      </trkpt>
      <trkpt lat="48.343283" lon="1.170240">
        <ele>208.493029</ele>
        <time>2025-06-26T03:03:53.895Z</time>
      </trkpt>
      <trkpt lat="48.343263" lon="1.170805">
        <ele>208.573519</ele>
        <time>2025-06-26T03:04:00.301Z</time>
      </trkpt>
      <trkpt lat="48.343210" lon="1.171140">
        <ele>208.622507</ele>
        <time>2025-06-26T03:04:04.094Z</time>
      </trkpt>
      <trkpt lat="48.342897" lon="1.172230">
        <ele>208.324851</ele>
        <time>2025-06-26T03:04:15.301Z</time>
      </trkpt>
      <trkpt lat="48.342798" lon="1.172552">
        <ele>208.074741</ele>
        <time>2025-06-26T03:04:18.286Z</time>
      </trkpt>
      <trkpt lat="48.342530" lon="1.173401">
        <ele>207.412150</ele>
        <time>2025-06-26T03:04:25.762Z</time>
      </trkpt>
      <trkpt lat="48.342253" lon="1.174400">
        <ele>206.562980</ele>
        <time>2025-06-26T03:04:33.825Z</time>
      </trkpt>
      <trkpt lat="48.342207" lon="1.174879">
        <ele>206.033929</ele>
        <time>2025-06-26T03:04:37.407Z</time>
      </trkpt>
      <trkpt lat="48.342208" lon="1.175121">
        <ele>205.769384</ele>
        <time>2025-06-26T03:04:39.198Z</time>
      </trkpt>
      <trkpt lat="48.342237" lon="1.175375">
        <ele>205.487659</ele>
        <time>2025-06-26T03:04:41.136Z</time>
      </trkpt>
      <trkpt lat="48.342284" lon="1.175611">
        <ele>205.218348</ele>
        <time>2025-06-26T03:04:43.001Z</time>
      </trkpt>
      <trkpt lat="48.342599" lon="1.176706">
        <ele>203.914067</ele>
        <time>2025-06-26T03:04:52.039Z</time>
      </trkpt>
      <trkpt lat="48.342649" lon="1.176876">
        <ele>203.729698</ele>
        <time>2025-06-26T03:04:53.463Z</time>
      </trkpt>
      <trkpt lat="48.343405" lon="1.179471">
        <ele>201.215058</ele>
        <time>2025-06-26T03:05:15.281Z</time>
      </trkpt>
      <trkpt lat="48.343467" lon="1.179982">
        <ele>201.044690</ele>
        <time>2025-06-26T03:05:19.489Z</time>
      </trkpt>
      <trkpt lat="48.343416" lon="1.180571">
        <ele>200.849876</ele>
        <time>2025-06-26T03:05:24.462Z</time>
      </trkpt>
      <trkpt lat="48.343010" lon="1.183026">
        <ele>201.070732</ele>
        <time>2025-06-26T03:05:50.427Z</time>
      </trkpt>
      <trkpt lat="48.342993" lon="1.183131">
        <ele>201.130756</ele>
        <time>2025-06-26T03:05:51.844Z</time>
      </trkpt>
      <trkpt lat="48.342842" lon="1.184083">
        <ele>201.674365</ele>
        <time>2025-06-26T03:06:04.783Z</time>
      </trkpt>
      <trkpt lat="48.342780" lon="1.184755">
        <ele>202.085976</ele>
        <time>2025-06-26T03:06:14.491Z</time>
      </trkpt>
      <trkpt lat="48.342780" lon="1.185063">
        <ele>202.300175</ele>
        <time>2025-06-26T03:06:18.838Z</time>
      </trkpt>
      <trkpt lat="48.342948" lon="1.187123">
        <ele>203.743541</ele>
        <time>2025-06-26T03:06:44.924Z</time>
      </trkpt>
      <trkpt lat="48.343119" lon="1.189007">
        <ele>204.523926</ele>
        <time>2025-06-26T03:07:05.284Z</time>
      </trkpt>
      <trkpt lat="48.343224" lon="1.193745">
        <ele>206.865167</ele>
        <time>2025-06-26T03:08:02.303Z</time>
      </trkpt>
      <trkpt lat="48.343264" lon="1.195776">
        <ele>207.633984</ele>
        <time>2025-06-26T03:08:26.263Z</time>
      </trkpt>
      <trkpt lat="48.343292" lon="1.196071">
        <ele>207.632529</ele>
        <time>2025-06-26T03:08:29.639Z</time>
      </trkpt>
      <trkpt lat="48.343356" lon="1.196350">
        <ele>207.631087</ele>
        <time>2025-06-26T03:08:32.844Z</time>
      </trkpt>
      <trkpt lat="48.343450" lon="1.196550">
        <ele>207.629891</ele>
        <time>2025-06-26T03:08:35.404Z</time>
      </trkpt>
      <trkpt lat="48.343916" lon="1.197281">
        <ele>207.624944</ele>
        <time>2025-06-26T03:08:45.071Z</time>
      </trkpt>
      <trkpt lat="48.344945" lon="1.199606">
        <ele>206.051978</ele>
        <time>2025-06-26T03:09:07.496Z</time>
      </trkpt>
      <trkpt lat="48.345143" lon="1.200208">
        <ele>205.741287</ele>
        <time>2025-06-26T03:09:12.844Z</time>
      </trkpt>
      <trkpt lat="48.345628" lon="1.202052">
        <ele>205.099225</ele>
        <time>2025-06-26T03:09:30.793Z</time>
      </trkpt>
      <trkpt lat="48.345736" lon="1.202958">
        <ele>204.516962</ele>
        <time>2025-06-26T03:09:39.783Z</time>
      </trkpt>
      <trkpt lat="48.345823" lon="1.203701">
        <ele>203.904657</ele>
        <time>2025-06-26T03:09:46.076Z</time>
      </trkpt>
      <trkpt lat="48.345873" lon="1.203960">
        <ele>203.685766</ele>
        <time>2025-06-26T03:09:48.233Z</time>
      </trkpt>
      <trkpt lat="48.346036" lon="1.204677">
        <ele>203.070752</ele>
        <time>2025-06-26T03:09:53.864Z</time>
      </trkpt>
      <trkpt lat="48.346236" lon="1.205604">
        <ele>201.771797</ele>
        <time>2025-06-26T03:10:00.628Z</time>
      </trkpt>
      <trkpt lat="48.346375" lon="1.206905">
        <ele>199.644973</ele>
        <time>2025-06-26T03:10:09.862Z</time>
      </trkpt>
      <trkpt lat="48.346453" lon="1.207398">
        <ele>198.827018</ele>
        <time>2025-06-26T03:10:13.470Z</time>
      </trkpt>
      <trkpt lat="48.346662" lon="1.208222">
        <ele>197.692217</ele>
        <time>2025-06-26T03:10:19.790Z</time>
      </trkpt>
      <trkpt lat="48.347382" lon="1.210228">
        <ele>195.263381</ele>
        <time>2025-06-26T03:10:36.852Z</time>
      </trkpt>
      <trkpt lat="48.347878" lon="1.211095">
        <ele>195.107932</ele>
        <time>2025-06-26T03:10:47.513Z</time>
      </trkpt>
      <trkpt lat="48.348065" lon="1.211474">
        <ele>195.043791</ele>
        <time>2025-06-26T03:10:53.112Z</time>
      </trkpt>
      <trkpt lat="48.348290" lon="1.212079">
        <ele>194.949584</ele>
        <time>2025-06-26T03:11:00.802Z</time>
      </trkpt>
      <trkpt lat="48.348525" lon="1.212948">
        <ele>193.808230</ele>
        <time>2025-06-26T03:11:09.461Z</time>
      </trkpt>
      <trkpt lat="48.348635" lon="1.213499">
        <ele>192.950136</ele>
        <time>2025-06-26T03:11:13.998Z</time>
      </trkpt>
      <trkpt lat="48.349479" lon="1.219733">
        <ele>183.180001</ele>
        <time>2025-06-26T03:11:57.827Z</time>
      </trkpt>
      <trkpt lat="48.349601" lon="1.220432">
        <ele>182.271199</ele>
        <time>2025-06-26T03:12:03.473Z</time>
      </trkpt>
      <trkpt lat="48.349874" lon="1.221432">
        <ele>181.492773</ele>
        <time>2025-06-26T03:12:12.572Z</time>
      </trkpt>
      <trkpt lat="48.350066" lon="1.222007">
        <ele>181.029429</ele>
        <time>2025-06-26T03:12:18.122Z</time>
      </trkpt>
      <trkpt lat="48.350229" lon="1.222398">
        <ele>180.697089</ele>
        <time>2025-06-26T03:12:21.911Z</time>
      </trkpt>
      <trkpt lat="48.350509" lon="1.223016">
        <ele>179.662518</ele>
        <time>2025-06-26T03:12:27.642Z</time>
      </trkpt>
      <trkpt lat="48.350644" lon="1.223388">
        <ele>178.950262</ele>
        <time>2025-06-26T03:12:30.728Z</time>
      </trkpt>
      <trkpt lat="48.350742" lon="1.223767">
        <ele>178.266866</ele>
        <time>2025-06-26T03:12:33.604Z</time>
      </trkpt>
      <trkpt lat="48.350770" lon="1.224165">
        <ele>177.594316</ele>
        <time>2025-06-26T03:12:36.371Z</time>
      </trkpt>
      <trkpt lat="48.350768" lon="1.227258">
        <ele>171.691761</ele>
        <time>2025-06-26T03:12:56.956Z</time>
      </trkpt>
      <trkpt lat="48.350769" lon="1.227505">
        <ele>171.195078</ele>
        <time>2025-06-26T03:12:58.655Z</time>
      </trkpt>
      <trkpt lat="48.350787" lon="1.230619">
        <ele>167.874300</ele>
        <time>2025-06-26T03:13:22.274Z</time>
      </trkpt>
      <trkpt lat="48.350789" lon="1.230865">
        <ele>167.960239</ele>
        <time>2025-06-26T03:13:24.422Z</time>
      </trkpt>
      <trkpt lat="48.350795" lon="1.233381">
        <ele>169.043320</ele>
        <time>2025-06-26T03:13:53.692Z</time>
      </trkpt>
      <trkpt lat="48.350818" lon="1.236683">
        <ele>175.172343</ele>
        <time>2025-06-26T03:14:53.877Z</time>
      </trkpt>
      <trkpt lat="48.350852" lon="1.237818">
        <ele>177.365396</ele>
        <time>2025-06-26T03:15:13.771Z</time>
      </trkpt>
      <trkpt lat="48.350856" lon="1.237957">
        <ele>177.633952</ele>
        <time>2025-06-26T03:15:16.127Z</time>
      </trkpt>
      <trkpt lat="48.350899" lon="1.239639">
        <ele>180.469776</ele>
        <time>2025-06-26T03:15:44.538Z</time>
      </trkpt>
      <trkpt lat="48.350931" lon="1.240022">
        <ele>181.052960</ele>
        <time>2025-06-26T03:15:51.024Z</time>
      </trkpt>
      <trkpt lat="48.351170" lon="1.241839">
        <ele>183.473426</ele>
        <time>2025-06-26T03:16:18.990Z</time>
      </trkpt>
      <trkpt lat="48.351176" lon="1.242200">
        <ele>183.755030</ele>
        <time>2025-06-26T03:16:23.865Z</time>
      </trkpt>
      <trkpt lat="48.351141" lon="1.242545">
        <ele>184.027186</ele>
        <time>2025-06-26T03:16:28.488Z</time>
      </trkpt>
      <trkpt lat="48.350478" lon="1.245806">
        <ele>185.728613</ele>
        <time>2025-06-26T03:17:09.040Z</time>
      </trkpt>
      <trkpt lat="48.350458" lon="1.246199">
        <ele>185.840428</ele>
        <time>2025-06-26T03:17:12.915Z</time>
      </trkpt>
      <trkpt lat="48.350483" lon="1.246562">
        <ele>185.943958</ele>
        <time>2025-06-26T03:17:16.351Z</time>
      </trkpt>
      <trkpt lat="48.350878" lon="1.248848">
        <ele>184.895924</ele>
        <time>2025-06-26T03:17:36.276Z</time>
      </trkpt>
      <trkpt lat="48.351076" lon="1.249898">
        <ele>184.332758</ele>
        <time>2025-06-26T03:17:45.196Z</time>
      </trkpt>
      <trkpt lat="48.351180" lon="1.250769">
        <ele>183.846778</ele>
        <time>2025-06-26T03:17:52.490Z</time>
      </trkpt>
      <trkpt lat="48.351184" lon="1.251166">
        <ele>183.628736</ele>
        <time>2025-06-26T03:17:55.820Z</time>
      </trkpt>
      <trkpt lat="48.351036" lon="1.254044">
        <ele>182.375440</ele>
        <time>2025-06-26T03:18:20.736Z</time>
      </trkpt>
      <trkpt lat="48.350842" lon="1.256803">
        <ele>181.429456</ele>
        <time>2025-06-26T03:18:44.512Z</time>
      </trkpt>
      <trkpt lat="48.350814" lon="1.257180">
        <ele>181.305010</ele>
        <time>2025-06-26T03:18:48.123Z</time>
      </trkpt>
      <trkpt lat="48.350736" lon="1.258184">
        <ele>181.473790</ele>
        <time>2025-06-26T03:18:58.720Z</time>
      </trkpt>
      <trkpt lat="48.350665" lon="1.259519">
        <ele>181.744314</ele>
        <time>2025-06-26T03:19:13.733Z</time>
      </trkpt>
      <trkpt lat="48.350707" lon="1.259916">
        <ele>181.825515</ele>
        <time>2025-06-26T03:19:18.252Z</time>
      </trkpt>
      <trkpt lat="48.350790" lon="1.260430">
        <ele>181.892699</ele>
        <time>2025-06-26T03:19:24.077Z</time>
      </trkpt>
      <trkpt lat="48.350687" lon="1.261013">
        <ele>181.967434</ele>
        <time>2025-06-26T03:19:30.429Z</time>
      </trkpt>
      <trkpt lat="48.350541" lon="1.261710">
        <ele>182.057971</ele>
        <time>2025-06-26T03:19:37.561Z</time>
      </trkpt>
      <trkpt lat="48.350474" lon="1.262617">
        <ele>182.162425</ele>
        <time>2025-06-26T03:19:46.761Z</time>
      </trkpt>
      <trkpt lat="48.350428" lon="1.263370">
        <ele>182.120444</ele>
        <time>2025-06-26T03:19:54.332Z</time>
      </trkpt>
      <trkpt lat="48.350450" lon="1.263715">
        <ele>182.101203</ele>
        <time>2025-06-26T03:19:57.717Z</time>
      </trkpt>
      <trkpt lat="48.350546" lon="1.264219">
        <ele>182.072095</ele>
        <time>2025-06-26T03:20:02.790Z</time>
      </trkpt>
      <trkpt lat="48.351585" lon="1.267243">
        <ele>181.599457</ele>
        <time>2025-06-26T03:20:34.220Z</time>
      </trkpt>
      <trkpt lat="48.353336" lon="1.272258">
        <ele>180.716640</ele>
        <time>2025-06-26T03:21:26.570Z</time>
      </trkpt>
      <trkpt lat="48.353572" lon="1.272931">
        <ele>180.701727</ele>
        <time>2025-06-26T03:21:34.642Z</time>
      </trkpt>
      <trkpt lat="48.353941" lon="1.273980">
        <ele>180.694553</ele>
        <time>2025-06-26T03:21:47.212Z</time>
      </trkpt>
      <trkpt lat="48.354037" lon="1.274397">
        <ele>180.691886</ele>
        <time>2025-06-26T03:21:51.490Z</time>
      </trkpt>
      <trkpt lat="48.354069" lon="1.274550">
        <ele>180.690916</ele>
        <time>2025-06-26T03:21:52.965Z</time>
      </trkpt>
      <trkpt lat="48.354522" lon="1.277003">
        <ele>179.673062</ele>
        <time>2025-06-26T03:22:14.759Z</time>
      </trkpt>
      <trkpt lat="48.355823" lon="1.281754">
        <ele>176.522006</ele>
        <time>2025-06-26T03:22:56.540Z</time>
      </trkpt>
      <trkpt lat="48.356001" lon="1.282431">
        <ele>176.098069</ele>
        <time>2025-06-26T03:23:02.743Z</time>
      </trkpt>
      <trkpt lat="48.356891" lon="1.286173">
        <ele>174.947982</ele>
        <time>2025-06-26T03:23:37.909Z</time>
      </trkpt>
      <trkpt lat="48.357048" lon="1.286751">
        <ele>174.829375</ele>
        <time>2025-06-26T03:23:43.639Z</time>
      </trkpt>
      <trkpt lat="48.357380" lon="1.287757">
        <ele>174.728422</ele>
        <time>2025-06-26T03:23:54.544Z</time>
      </trkpt>
      <trkpt lat="48.358597" lon="1.291308">
        <ele>174.998356</ele>
        <time>2025-06-26T03:24:36.534Z</time>
      </trkpt>
      <trkpt lat="48.358823" lon="1.292037">
        <ele>174.992299</ele>
        <time>2025-06-26T03:24:43.934Z</time>
      </trkpt>
      <trkpt lat="48.359423" lon="1.294264">
        <ele>174.494179</ele>
        <time>2025-06-26T03:25:05.014Z</time>
      </trkpt>
      <trkpt lat="48.361297" lon="1.301219">
        <ele>174.283526</ele>
        <time>2025-06-26T03:26:20.283Z</time>
      </trkpt>
      <trkpt lat="48.361644" lon="1.303012">
        <ele>173.819726</ele>
        <time>2025-06-26T03:26:36.217Z</time>
      </trkpt>
      <trkpt lat="48.361867" lon="1.304950">
        <ele>173.059074</ele>
        <time>2025-06-26T03:26:52.750Z</time>
      </trkpt>
      <trkpt lat="48.362096" lon="1.307150">
        <ele>173.449890</ele>
        <time>2025-06-26T03:27:16.671Z</time>
      </trkpt>
      <trkpt lat="48.362203" lon="1.307755">
        <ele>173.570844</ele>
        <time>2025-06-26T03:27:24.048Z</time>
      </trkpt>
      <trkpt lat="48.362400" lon="1.308459">
        <ele>173.743391</ele>
        <time>2025-06-26T03:27:32.890Z</time>
      </trkpt>
      <trkpt lat="48.363149" lon="1.310889">
        <ele>174.105504</ele>
        <time>2025-06-26T03:28:01.012Z</time>
      </trkpt>
      <trkpt lat="48.364154" lon="1.314117">
        <ele>173.700445</ele>
        <time>2025-06-26T03:28:33.834Z</time>
      </trkpt>
      <trkpt lat="48.365567" lon="1.317711">
        <ele>173.079464</ele>
        <time>2025-06-26T03:29:12.691Z</time>
      </trkpt>
      <trkpt lat="48.365732" lon="1.318208">
        <ele>173.052712</ele>
        <time>2025-06-26T03:29:17.996Z</time>
      </trkpt>
      <trkpt lat="48.365815" lon="1.318529">
        <ele>173.036126</ele>
        <time>2025-06-26T03:29:21.302Z</time>
      </trkpt>
      <trkpt lat="48.366649" lon="1.323030">
        <ele>172.836133</ele>
        <time>2025-06-26T03:30:06.960Z</time>
      </trkpt>
      <trkpt lat="48.366737" lon="1.324016">
        <ele>172.724415</ele>
        <time>2025-06-26T03:30:16.345Z</time>
      </trkpt>
      <trkpt lat="48.366778" lon="1.324264">
        <ele>172.695716</ele>
        <time>2025-06-26T03:30:18.689Z</time>
      </trkpt>
      <trkpt lat="48.366845" lon="1.324455">
        <ele>172.671462</ele>
        <time>2025-06-26T03:30:20.663Z</time>
      </trkpt>
      <trkpt lat="48.367013" lon="1.324676">
        <ele>172.633749</ele>
        <time>2025-06-26T03:30:23.740Z</time>
      </trkpt>
      <trkpt lat="48.367193" lon="1.324838">
        <ele>172.597900</ele>
        <time>2025-06-26T03:30:26.719Z</time>
      </trkpt>
      <trkpt lat="48.367724" lon="1.325180">
        <ele>172.486631</ele>
        <time>2025-06-26T03:30:34.893Z</time>
      </trkpt>
      <trkpt lat="48.367782" lon="1.325309">
        <ele>172.466695</ele>
        <time>2025-06-26T03:30:36.323Z</time>
      </trkpt>
      <trkpt lat="48.367779" lon="1.325413">
        <ele>172.453372</ele>
        <time>2025-06-26T03:30:37.251Z</time>
      </trkpt>
      <trkpt lat="48.367742" lon="1.325512">
        <ele>172.438834</ele>
        <time>2025-06-26T03:30:38.287Z</time>
      </trkpt>
      <trkpt lat="48.367499" lon="1.325934">
        <ele>172.367358</ele>
        <time>2025-06-26T03:30:43.567Z</time>
      </trkpt>
      <trkpt lat="48.367233" lon="1.326356">
        <ele>172.292906</ele>
        <time>2025-06-26T03:30:49.202Z</time>
      </trkpt>
      <trkpt lat="48.366943" lon="1.326739">
        <ele>172.228146</ele>
        <time>2025-06-26T03:30:54.809Z</time>
      </trkpt>
      <trkpt lat="48.366895" lon="1.326852">
        <ele>172.215531</ele>
        <time>2025-06-26T03:30:56.076Z</time>
      </trkpt>
      <trkpt lat="48.366843" lon="1.326832">
        <ele>172.207933</ele>
        <time>2025-06-26T03:30:56.827Z</time>
      </trkpt>
      <trkpt lat="48.366672" lon="1.326855">
        <ele>172.183628</ele>
        <time>2025-06-26T03:30:59.212Z</time>
      </trkpt>
      <trkpt lat="48.366669" lon="1.327045">
        <ele>172.165753</ele>
        <time>2025-06-26T03:31:00.963Z</time>
      </trkpt>
      <trkpt lat="48.366637" lon="1.327151">
        <ele>172.154802</ele>
        <time>2025-06-26T03:31:02.034Z</time>
      </trkpt>
      <trkpt lat="48.366079" lon="1.327961">
        <ele>172.045056</ele>
        <time>2025-06-26T03:31:12.703Z</time>
      </trkpt>
      <trkpt lat="48.366080" lon="1.328107">
        <ele>172.031323</ele>
        <time>2025-06-26T03:31:14.071Z</time>
      </trkpt>
      <trkpt lat="48.365967" lon="1.328519">
        <ele>172.040023</ele>
        <time>2025-06-26T03:31:18.504Z</time>
      </trkpt>
      <trkpt lat="48.366254" lon="1.329568">
        <ele>172.441857</ele>
        <time>2025-06-26T03:31:31.068Z</time>
      </trkpt>
      <trkpt lat="48.366437" lon="1.330029">
        <ele>172.632072</ele>
        <time>2025-06-26T03:31:37.470Z</time>
      </trkpt>
      <trkpt lat="48.366797" lon="1.330908">
        <ele>172.981476</ele>
        <time>2025-06-26T03:31:50.036Z</time>
      </trkpt>
      <trkpt lat="48.367488" lon="1.332155">
        <ele>173.314718</ele>
        <time>2025-06-26T03:32:08.044Z</time>
      </trkpt>
      <trkpt lat="48.367532" lon="1.332262">
        <ele>173.340542</ele>
        <time>2025-06-26T03:32:09.273Z</time>
      </trkpt>
      <trkpt lat="48.367564" lon="1.332387">
        <ele>173.368033</ele>
        <time>2025-06-26T03:32:10.572Z</time>
      </trkpt>
      <trkpt lat="48.367519" lon="1.332505">
        <ele>173.395955</ele>
        <time>2025-06-26T03:32:11.891Z</time>
      </trkpt>
      <trkpt lat="48.367521" lon="1.332631">
        <ele>173.421820</ele>
        <time>2025-06-26T03:32:13.103Z</time>
      </trkpt>
      <trkpt lat="48.367694" lon="1.333525">
        <ele>173.456905</ele>
        <time>2025-06-26T03:32:21.999Z</time>
      </trkpt>
      <trkpt lat="48.367705" lon="1.333685">
        <ele>173.437553</ele>
        <time>2025-06-26T03:32:23.513Z</time>
      </trkpt>
      <trkpt lat="48.367722" lon="1.333940">
        <ele>173.406720</ele>
        <time>2025-06-26T03:32:25.882Z</time>
      </trkpt>
      <trkpt lat="48.367666" lon="1.335201">
        <ele>173.254673</ele>
        <time>2025-06-26T03:32:37.585Z</time>
      </trkpt>
      <trkpt lat="48.367707" lon="1.336244">
        <ele>173.098084</ele>
        <time>2025-06-26T03:32:47.792Z</time>
      </trkpt>
      <trkpt lat="48.367738" lon="1.337140">
        <ele>172.934453</ele>
        <time>2025-06-26T03:32:56.003Z</time>
      </trkpt>
      <trkpt lat="48.367706" lon="1.337634">
        <ele>172.843931</ele>
        <time>2025-06-26T03:33:00.515Z</time>
      </trkpt>
      <trkpt lat="48.367636" lon="1.338361">
        <ele>172.709958</ele>
        <time>2025-06-26T03:33:07.224Z</time>
      </trkpt>
      <trkpt lat="48.367346" lon="1.340093">
        <ele>172.090337</ele>
        <time>2025-06-26T03:33:22.870Z</time>
      </trkpt>
      <trkpt lat="48.366561" lon="1.342257">
        <ele>171.281167</ele>
        <time>2025-06-26T03:33:44.354Z</time>
      </trkpt>
      <trkpt lat="48.366372" lon="1.342844">
        <ele>171.078980</ele>
        <time>2025-06-26T03:33:50.006Z</time>
      </trkpt>
      <trkpt lat="48.366311" lon="1.343036">
        <ele>171.013013</ele>
        <time>2025-06-26T03:33:51.928Z</time>
      </trkpt>
      <trkpt lat="48.366194" lon="1.343365">
        <ele>170.897345</ele>
        <time>2025-06-26T03:33:55.379Z</time>
      </trkpt>
      <trkpt lat="48.366108" lon="1.343833">
        <ele>170.790672</ele>
        <time>2025-06-26T03:33:59.794Z</time>
      </trkpt>
      <trkpt lat="48.366071" lon="1.344324">
        <ele>170.682697</ele>
        <time>2025-06-26T03:34:04.315Z</time>
      </trkpt>
      <trkpt lat="48.366067" lon="1.344840">
        <ele>170.569940</ele>
        <time>2025-06-26T03:34:09.093Z</time>
      </trkpt>
      <trkpt lat="48.366123" lon="1.345439">
        <ele>170.437764</ele>
        <time>2025-06-26T03:34:14.719Z</time>
      </trkpt>
      <trkpt lat="48.366218" lon="1.346214">
        <ele>170.241732</ele>
        <time>2025-06-26T03:34:21.877Z</time>
      </trkpt>
      <trkpt lat="48.366359" lon="1.351772">
        <ele>168.571044</ele>
        <time>2025-06-26T03:35:10.336Z</time>
      </trkpt>
      <trkpt lat="48.366601" lon="1.355214">
        <ele>169.841038</ele>
        <time>2025-06-26T03:35:50.179Z</time>
      </trkpt>
      <trkpt lat="48.366270" lon="1.358416">
        <ele>171.371979</ele>
        <time>2025-06-26T03:36:30.739Z</time>
      </trkpt>
      <trkpt lat="48.366062" lon="1.360760">
        <ele>171.435773</ele>
        <time>2025-06-26T03:36:53.941Z</time>
      </trkpt>
      <trkpt lat="48.365573" lon="1.366145">
        <ele>168.977168</ele>
        <time>2025-06-26T03:37:39.282Z</time>
      </trkpt>
      <trkpt lat="48.365473" lon="1.367013">
        <ele>168.559923</ele>
        <time>2025-06-26T03:37:46.705Z</time>
      </trkpt>
      <trkpt lat="48.365421" lon="1.367447">
        <ele>168.351052</ele>
        <time>2025-06-26T03:37:50.521Z</time>
      </trkpt>
      <trkpt lat="48.365068" lon="1.369254">
        <ele>168.053913</ele>
        <time>2025-06-26T03:38:08.351Z</time>
      </trkpt>
      <trkpt lat="48.364868" lon="1.370280">
        <ele>167.895620</ele>
        <time>2025-06-26T03:38:18.696Z</time>
      </trkpt>
      <trkpt lat="48.364679" lon="1.372294">
        <ele>167.498967</ele>
        <time>2025-06-26T03:38:36.931Z</time>
      </trkpt>
      <trkpt lat="48.364439" lon="1.373797">
        <ele>167.676765</ele>
        <time>2025-06-26T03:38:51.501Z</time>
      </trkpt>
      <trkpt lat="48.364422" lon="1.374006">
        <ele>167.734589</ele>
        <time>2025-06-26T03:38:53.681Z</time>
      </trkpt>
      <trkpt lat="48.364466" lon="1.374166">
        <ele>167.782143</ele>
        <time>2025-06-26T03:38:55.529Z</time>
      </trkpt>
      <trkpt lat="48.364528" lon="1.374251">
        <ele>167.816807</ele>
        <time>2025-06-26T03:38:56.896Z</time>
      </trkpt>
      <trkpt lat="48.366131" lon="1.375053">
        <ele>168.951066</ele>
        <time>2025-06-26T03:39:28.535Z</time>
      </trkpt>
      <trkpt lat="48.366314" lon="1.375246">
        <ele>169.150802</ele>
        <time>2025-06-26T03:39:32.778Z</time>
      </trkpt>
      <trkpt lat="48.366427" lon="1.375467">
        <ele>169.316412</ele>
        <time>2025-06-26T03:39:36.247Z</time>
      </trkpt>
      <trkpt lat="48.366534" lon="1.375864">
        <ele>169.570835</ele>
        <time>2025-06-26T03:39:41.464Z</time>
      </trkpt>
      <trkpt lat="48.366563" lon="1.376049">
        <ele>169.683714</ele>
        <time>2025-06-26T03:39:43.725Z</time>
      </trkpt>
      <trkpt lat="48.366554" lon="1.376476">
        <ele>169.754995</ele>
        <time>2025-06-26T03:39:48.677Z</time>
      </trkpt>
      <trkpt lat="48.366509" lon="1.376945">
        <ele>169.765780</ele>
        <time>2025-06-26T03:39:53.970Z</time>
      </trkpt>
      <trkpt lat="48.366501" lon="1.377457">
        <ele>169.777437</ele>
        <time>2025-06-26T03:39:59.333Z</time>
      </trkpt>
      <trkpt lat="48.366509" lon="1.377715">
        <ele>169.783315</ele>
        <time>2025-06-26T03:40:01.826Z</time>
      </trkpt>
      <trkpt lat="48.366647" lon="1.378815">
        <ele>169.808794</ele>
        <time>2025-06-26T03:40:11.843Z</time>
      </trkpt>
      <trkpt lat="48.366609" lon="1.379563">
        <ele>169.553683</ele>
        <time>2025-06-26T03:40:18.210Z</time>
      </trkpt>
      <trkpt lat="48.366640" lon="1.379799">
        <ele>169.468968</ele>
        <time>2025-06-26T03:40:20.252Z</time>
      </trkpt>
      <trkpt lat="48.366930" lon="1.380226">
        <ele>169.253940</ele>
        <time>2025-06-26T03:40:25.524Z</time>
      </trkpt>
      <trkpt lat="48.367207" lon="1.380672">
        <ele>169.038944</ele>
        <time>2025-06-26T03:40:30.925Z</time>
      </trkpt>
      <trkpt lat="48.367239" lon="1.380868">
        <ele>168.967872</ele>
        <time>2025-06-26T03:40:32.713Z</time>
      </trkpt>
      <trkpt lat="48.367203" lon="1.381067">
        <ele>168.895245</ele>
        <time>2025-06-26T03:40:34.528Z</time>
      </trkpt>
      <trkpt lat="48.367171" lon="1.381138">
        <ele>168.865032</ele>
        <time>2025-06-26T03:40:35.312Z</time>
      </trkpt>
      <trkpt lat="48.367199" lon="1.381248">
        <ele>168.845484</ele>
        <time>2025-06-26T03:40:36.365Z</time>
      </trkpt>
      <trkpt lat="48.367217" lon="1.381263">
        <ele>168.841954</ele>
        <time>2025-06-26T03:40:36.641Z</time>
      </trkpt>
      <trkpt lat="48.367281" lon="1.381453">
        <ele>168.817674</ele>
        <time>2025-06-26T03:40:38.576Z</time>
      </trkpt>
      <trkpt lat="48.367321" lon="1.381546">
        <ele>168.805047</ele>
        <time>2025-06-26T03:40:39.591Z</time>
      </trkpt>
      <trkpt lat="48.367385" lon="1.381647">
        <ele>168.789139</ele>
        <time>2025-06-26T03:40:40.855Z</time>
      </trkpt>
      <trkpt lat="48.367602" lon="1.381854">
        <ele>168.745064</ele>
        <time>2025-06-26T03:40:44.465Z</time>
      </trkpt>
      <trkpt lat="48.367786" lon="1.382095">
        <ele>168.703219</ele>
        <time>2025-06-26T03:40:47.963Z</time>
      </trkpt>
      <trkpt lat="48.367848" lon="1.382203">
        <ele>168.686951</ele>
        <time>2025-06-26T03:40:49.366Z</time>
      </trkpt>
      <trkpt lat="48.368029" lon="1.383666">
        <ele>168.565856</ele>
        <time>2025-06-26T03:41:03.630Z</time>
      </trkpt>
      <trkpt lat="48.368105" lon="1.383953">
        <ele>168.587467</ele>
        <time>2025-06-26T03:41:06.785Z</time>
      </trkpt>
      <trkpt lat="48.368336" lon="1.384611">
        <ele>168.639521</ele>
        <time>2025-06-26T03:41:14.590Z</time>
      </trkpt>
      <trkpt lat="48.368480" lon="1.385134">
        <ele>168.679120</ele>
        <time>2025-06-26T03:41:20.509Z</time>
      </trkpt>
      <trkpt lat="48.368558" lon="1.385360">
        <ele>168.696933</ele>
        <time>2025-06-26T03:41:23.187Z</time>
      </trkpt>
      <trkpt lat="48.368681" lon="1.385542">
        <ele>168.715092</ele>
        <time>2025-06-26T03:41:25.843Z</time>
      </trkpt>
      <trkpt lat="48.370088" lon="1.386898">
        <ele>168.428383</ele>
        <time>2025-06-26T03:41:50.212Z</time>
      </trkpt>
      <trkpt lat="48.370204" lon="1.387031">
        <ele>168.397682</ele>
        <time>2025-06-26T03:41:52.160Z</time>
      </trkpt>
      <trkpt lat="48.371495" lon="1.388796">
        <ele>166.870823</ele>
        <time>2025-06-26T03:42:13.978Z</time>
      </trkpt>
      <trkpt lat="48.373136" lon="1.391111">
        <ele>163.541479</ele>
        <time>2025-06-26T03:42:39.736Z</time>
      </trkpt>
      <trkpt lat="48.373702" lon="1.391927">
        <ele>162.216467</ele>
        <time>2025-06-26T03:42:48.465Z</time>
      </trkpt>
      <trkpt lat="48.374376" lon="1.393095">
        <ele>160.557204</ele>
        <time>2025-06-26T03:43:00.028Z</time>
      </trkpt>
      <trkpt lat="48.375707" lon="1.395530">
        <ele>157.862943</ele>
        <time>2025-06-26T03:43:24.824Z</time>
      </trkpt>
      <trkpt lat="48.376012" lon="1.396110">
        <ele>157.304248</ele>
        <time>2025-06-26T03:43:30.764Z</time>
      </trkpt>
      <trkpt lat="48.376460" lon="1.396783">
        <ele>156.584661</ele>
        <time>2025-06-26T03:43:38.480Z</time>
      </trkpt>
      <trkpt lat="48.376669" lon="1.397047">
        <ele>156.240587</ele>
        <time>2025-06-26T03:43:41.781Z</time>
      </trkpt>
      <trkpt lat="48.377333" lon="1.397757">
        <ele>155.074244</ele>
        <time>2025-06-26T03:43:51.328Z</time>
      </trkpt>
      <trkpt lat="48.378110" lon="1.398781">
        <ele>153.590785</ele>
        <time>2025-06-26T03:44:03.048Z</time>
      </trkpt>
      <trkpt lat="48.378303" lon="1.399113">
        <ele>153.162806</ele>
        <time>2025-06-26T03:44:06.313Z</time>
      </trkpt>
      <trkpt lat="48.378510" lon="1.399551">
        <ele>152.641356</ele>
        <time>2025-06-26T03:44:10.315Z</time>
      </trkpt>
      <trkpt lat="48.379550" lon="1.402078">
        <ele>150.149889</ele>
        <time>2025-06-26T03:44:33.736Z</time>
      </trkpt>
      <trkpt lat="48.380051" lon="1.402898">
        <ele>149.362537</ele>
        <time>2025-06-26T03:44:43.354Z</time>
      </trkpt>
      <trkpt lat="48.380168" lon="1.403096">
        <ele>149.120757</ele>
        <time>2025-06-26T03:44:45.508Z</time>
      </trkpt>
      <trkpt lat="48.380334" lon="1.403402">
        <ele>148.707402</ele>
        <time>2025-06-26T03:44:48.641Z</time>
      </trkpt>
      <trkpt lat="48.380996" lon="1.404635">
        <ele>147.048671</ele>
        <time>2025-06-26T03:45:00.481Z</time>
      </trkpt>
      <trkpt lat="48.381300" lon="1.405129">
        <ele>146.344758</ele>
        <time>2025-06-26T03:45:05.367Z</time>
      </trkpt>
      <trkpt lat="48.381859" lon="1.405792">
        <ele>145.230361</ele>
        <time>2025-06-26T03:45:13.382Z</time>
      </trkpt>
      <trkpt lat="48.382589" lon="1.406043">
        <ele>144.057728</ele>
        <time>2025-06-26T03:45:21.920Z</time>
      </trkpt>
      <trkpt lat="48.382808" lon="1.406046">
        <ele>143.714753</ele>
        <time>2025-06-26T03:45:24.410Z</time>
      </trkpt>
      <trkpt lat="48.383726" lon="1.406093">
        <ele>143.910917</ele>
        <time>2025-06-26T03:45:36.344Z</time>
      </trkpt>
      <trkpt lat="48.384495" lon="1.406162">
        <ele>144.151906</ele>
        <time>2025-06-26T03:45:51.178Z</time>
      </trkpt>
      <trkpt lat="48.387012" lon="1.406366">
        <ele>147.268172</ele>
        <time>2025-06-26T03:46:47.528Z</time>
      </trkpt>
      <trkpt lat="48.387256" lon="1.406421">
        <ele>147.215014</ele>
        <time>2025-06-26T03:46:51.124Z</time>
      </trkpt>
      <trkpt lat="48.387500" lon="1.406522">
        <ele>147.160492</ele>
        <time>2025-06-26T03:46:54.436Z</time>
      </trkpt>
      <trkpt lat="48.387696" lon="1.406650">
        <ele>147.114462</ele>
        <time>2025-06-26T03:46:57.038Z</time>
      </trkpt>
      <trkpt lat="48.387931" lon="1.406872">
        <ele>147.054691</ele>
        <time>2025-06-26T03:47:00.226Z</time>
      </trkpt>
      <trkpt lat="48.388860" lon="1.407927">
        <ele>144.940105</ele>
        <time>2025-06-26T03:47:12.581Z</time>
      </trkpt>
      <trkpt lat="48.389892" lon="1.409100">
        <ele>142.528843</ele>
        <time>2025-06-26T03:47:26.419Z</time>
      </trkpt>
      <trkpt lat="48.391146" lon="1.410715">
        <ele>141.038640</ele>
        <time>2025-06-26T03:47:47.724Z</time>
      </trkpt>
      <trkpt lat="48.392559" lon="1.412397">
        <ele>141.177244</ele>
        <time>2025-06-26T03:48:14.815Z</time>
      </trkpt>
      <trkpt lat="48.392641" lon="1.412494">
        <ele>141.273765</ele>
        <time>2025-06-26T03:48:16.362Z</time>
      </trkpt>
      <trkpt lat="48.392836" lon="1.412735">
        <ele>141.507271</ele>
        <time>2025-06-26T03:48:20.472Z</time>
      </trkpt>
      <trkpt lat="48.393530" lon="1.413589">
        <ele>142.336867</ele>
        <time>2025-06-26T03:48:38.403Z</time>
      </trkpt>
      <trkpt lat="48.393606" lon="1.413684">
        <ele>142.428294</ele>
        <time>2025-06-26T03:48:40.454Z</time>
      </trkpt>
      <trkpt lat="48.393644" lon="1.413730">
        <ele>142.473424</ele>
        <time>2025-06-26T03:48:41.414Z</time>
      </trkpt>
      <trkpt lat="48.393698" lon="1.413796">
        <ele>142.537799</ele>
        <time>2025-06-26T03:48:42.870Z</time>
      </trkpt>
      <trkpt lat="48.394157" lon="1.414346">
        <ele>143.332266</ele>
        <time>2025-06-26T03:48:54.904Z</time>
      </trkpt>
      <trkpt lat="48.394610" lon="1.413749">
        <ele>144.177618</ele>
        <time>2025-06-26T03:49:07.583Z</time>
      </trkpt>
      <trkpt lat="48.394982" lon="1.413116">
        <ele>144.965860</ele>
        <time>2025-06-26T03:49:18.400Z</time>
      </trkpt>
      <trkpt lat="48.395130" lon="1.412628">
        <ele>145.568417</ele>
        <time>2025-06-26T03:49:25.544Z</time>
      </trkpt>
      <trkpt lat="48.395297" lon="1.412658">
        <ele>145.874471</ele>
        <time>2025-06-26T03:49:29.093Z</time>
      </trkpt>
      <trkpt lat="48.395940" lon="1.413111">
        <ele>147.166267</ele>
        <time>2025-06-26T03:49:44.772Z</time>
      </trkpt>
      <trkpt lat="48.396165" lon="1.412454">
        <ele>148.059477</ele>
        <time>2025-06-26T03:49:56.248Z</time>
      </trkpt>
      <trkpt lat="48.396881" lon="1.412953">
        <ele>149.426808</ele>
        <time>2025-06-26T03:50:15.111Z</time>
      </trkpt>
      <trkpt lat="48.396925" lon="1.412877">
        <ele>149.541082</ele>
        <time>2025-06-26T03:50:16.629Z</time>
      </trkpt>
      <trkpt lat="48.397214" lon="1.412315">
        <ele>150.346678</ele>
        <time>2025-06-26T03:50:27.322Z</time>
      </trkpt>
      <trkpt lat="48.397394" lon="1.411890">
        <ele>150.917972</ele>
        <time>2025-06-26T03:50:34.354Z</time>
      </trkpt>
      <trkpt lat="48.397792" lon="1.410645">
        <ele>151.904714</ele>
        <time>2025-06-26T03:50:55.685Z</time>
      </trkpt>
      <trkpt lat="48.397905" lon="1.410459">
        <ele>152.028261</ele>
        <time>2025-06-26T03:50:59.312Z</time>
      </trkpt>
      <trkpt lat="48.398317" lon="1.410911">
        <ele>152.404463</ele>
        <time>2025-06-26T03:51:07.692Z</time>
      </trkpt>
      <trkpt lat="48.398468" lon="1.410980">
        <ele>152.520927</ele>
        <time>2025-06-26T03:51:10.462Z</time>
      </trkpt>
      <trkpt lat="48.398797" lon="1.410931">
        <ele>152.764936</ele>
        <time>2025-06-26T03:51:16.434Z</time>
      </trkpt>
      <trkpt lat="48.399537" lon="1.410581">
        <ele>153.239883</ele>
        <time>2025-06-26T03:51:31.164Z</time>
      </trkpt>
      <trkpt lat="48.399952" lon="1.410458">
        <ele>153.496344</ele>
        <time>2025-06-26T03:51:38.892Z</time>
      </trkpt>
      <trkpt lat="48.400051" lon="1.410457">
        <ele>153.556374</ele>
        <time>2025-06-26T03:51:40.583Z</time>
      </trkpt>
      <trkpt lat="48.400168" lon="1.410465">
        <ele>153.627390</ele>
        <time>2025-06-26T03:51:42.544Z</time>
      </trkpt>
      <trkpt lat="48.400388" lon="1.410497">
        <ele>153.761408</ele>
        <time>2025-06-26T03:51:46.049Z</time>
      </trkpt>
      <trkpt lat="48.400541" lon="1.410556">
        <ele>153.857171</ele>
        <time>2025-06-26T03:51:48.433Z</time>
      </trkpt>
      <trkpt lat="48.400528" lon="1.410689">
        <ele>153.866033</ele>
        <time>2025-06-26T03:51:50.245Z</time>
      </trkpt>
      <trkpt lat="48.400594" lon="1.410700">
        <ele>153.844988</ele>
        <time>2025-06-26T03:51:52.041Z</time>
      </trkpt>
      <trkpt lat="48.400918" lon="1.410963">
        <ele>153.728340</ele>
        <time>2025-06-26T03:51:59.180Z</time>
      </trkpt>
      <trkpt lat="48.402157" lon="1.412481">
        <ele>153.142076</ele>
        <time>2025-06-26T03:52:28.979Z</time>
      </trkpt>
      <trkpt lat="48.402983" lon="1.413545">
        <ele>152.488902</ele>
        <time>2025-06-26T03:52:48.948Z</time>
      </trkpt>
      <trkpt lat="48.403599" lon="1.414227">
        <ele>151.929553</ele>
        <time>2025-06-26T03:53:02.633Z</time>
      </trkpt>
      <trkpt lat="48.404937" lon="1.415866">
        <ele>150.569240</ele>
        <time>2025-06-26T03:53:32.725Z</time>
      </trkpt>
      <trkpt lat="48.405232" lon="1.416166">
        <ele>150.509877</ele>
        <time>2025-06-26T03:53:39.222Z</time>
      </trkpt>
      <trkpt lat="48.405653" lon="1.416477">
        <ele>150.431674</ele>
        <time>2025-06-26T03:53:48.177Z</time>
      </trkpt>
      <trkpt lat="48.406692" lon="1.416893">
        <ele>150.591359</ele>
        <time>2025-06-26T03:54:11.623Z</time>
      </trkpt>
      <trkpt lat="48.407011" lon="1.417067">
        <ele>150.852597</ele>
        <time>2025-06-26T03:54:19.705Z</time>
      </trkpt>
      <trkpt lat="48.407494" lon="1.417405">
        <ele>151.262679</ele>
        <time>2025-06-26T03:54:32.460Z</time>
      </trkpt>
      <trkpt lat="48.407898" lon="1.417679">
        <ele>151.603835</ele>
        <time>2025-06-26T03:54:43.121Z</time>
      </trkpt>
      <trkpt lat="48.407950" lon="1.417759">
        <ele>151.661065</ele>
        <time>2025-06-26T03:54:44.905Z</time>
      </trkpt>
      <trkpt lat="48.412199" lon="1.427321">
        <ele>157.486179</ele>
        <time>2025-06-26T03:57:43.527Z</time>
      </trkpt>
      <trkpt lat="48.412208" lon="1.427415">
        <ele>157.505557</ele>
        <time>2025-06-26T03:57:44.865Z</time>
      </trkpt>
      <trkpt lat="48.412187" lon="1.427509">
        <ele>157.525793</ele>
        <time>2025-06-26T03:57:46.266Z</time>
      </trkpt>
      <trkpt lat="48.411715" lon="1.428566">
        <ele>157.785724</ele>
        <time>2025-06-26T03:58:03.717Z</time>
      </trkpt>
      <trkpt lat="48.411726" lon="1.428738">
        <ele>157.820982</ele>
        <time>2025-06-26T03:58:06.011Z</time>
      </trkpt>
      <trkpt lat="48.413539" lon="1.432926">
        <ele>158.144431</ele>
        <time>2025-06-26T03:59:13.856Z</time>
      </trkpt>
      <trkpt lat="48.413575" lon="1.431839">
        <ele>158.241342</ele>
        <time>2025-06-26T03:59:25.139Z</time>
      </trkpt>
      <trkpt lat="48.413777" lon="1.431137">
        <ele>158.394914</ele>
        <time>2025-06-26T03:59:33.261Z</time>
      </trkpt>
      <trkpt lat="48.413777" lon="1.431002">
        <ele>158.422010</ele>
        <time>2025-06-26T03:59:34.692Z</time>
      </trkpt>
      <trkpt lat="48.413727" lon="1.430756">
        <ele>158.473649</ele>
        <time>2025-06-26T03:59:37.446Z</time>
      </trkpt>
      <trkpt lat="48.413822" lon="1.430696">
        <ele>158.504798</ele>
        <time>2025-06-26T03:59:39.111Z</time>
      </trkpt>
      <trkpt lat="48.413910" lon="1.430639">
        <ele>158.533764</ele>
        <time>2025-06-26T03:59:40.662Z</time>
      </trkpt>
      <trkpt lat="48.414350" lon="1.430806">
        <ele>158.670975</ele>
        <time>2025-06-26T03:59:48.095Z</time>
      </trkpt>
      <trkpt lat="48.414410" lon="1.430869">
        <ele>158.693090</ele>
        <time>2025-06-26T03:59:49.289Z</time>
      </trkpt>
      <trkpt lat="48.416194" lon="1.429490">
        <ele>159.226294</ele>
        <time>2025-06-26T04:00:21.583Z</time>
      </trkpt>
      <trkpt lat="48.417147" lon="1.428702">
        <ele>159.174397</ele>
        <time>2025-06-26T04:00:37.731Z</time>
      </trkpt>
      <trkpt lat="48.417393" lon="1.428551">
        <ele>159.161715</ele>
        <time>2025-06-26T04:00:41.507Z</time>
      </trkpt>
      <trkpt lat="48.418458" lon="1.427679">
        <ele>158.932487</ele>
        <time>2025-06-26T04:00:58.143Z</time>
      </trkpt>
      <trkpt lat="48.419089" lon="1.427172">
        <ele>158.744840</ele>
        <time>2025-06-26T04:01:07.968Z</time>
      </trkpt>
      <trkpt lat="48.419291" lon="1.426991">
        <ele>158.683170</ele>
        <time>2025-06-26T04:01:11.263Z</time>
      </trkpt>
      <trkpt lat="48.419951" lon="1.426760">
        <ele>158.645580</ele>
        <time>2025-06-26T04:01:21.013Z</time>
      </trkpt>
      <trkpt lat="48.420591" lon="1.426462">
        <ele>158.619513</ele>
        <time>2025-06-26T04:01:31.099Z</time>
      </trkpt>
      <trkpt lat="48.420928" lon="1.426200">
        <ele>158.604756</ele>
        <time>2025-06-26T04:01:36.814Z</time>
      </trkpt>
      <trkpt lat="48.421186" lon="1.425773">
        <ele>158.601214</ele>
        <time>2025-06-26T04:01:42.541Z</time>
      </trkpt>
      <trkpt lat="48.421514" lon="1.425028">
        <ele>158.603974</ele>
        <time>2025-06-26T04:01:51.305Z</time>
      </trkpt>
      <trkpt lat="48.422232" lon="1.423218">
        <ele>158.577880</ele>
        <time>2025-06-26T04:02:12.147Z</time>
      </trkpt>
      <trkpt lat="48.422612" lon="1.422413">
        <ele>158.533964</ele>
        <time>2025-06-26T04:02:22.141Z</time>
      </trkpt>
      <trkpt lat="48.422950" lon="1.421857">
        <ele>158.500444</ele>
        <time>2025-06-26T04:02:29.450Z</time>
      </trkpt>
      <trkpt lat="48.422985" lon="1.421799">
        <ele>158.496959</ele>
        <time>2025-06-26T04:02:30.214Z</time>
      </trkpt>
      <trkpt lat="48.424984" lon="1.429557">
        <ele>154.545443</ele>
        <time>2025-06-26T04:04:09.671Z</time>
      </trkpt>
      <trkpt lat="48.425374" lon="1.431103">
        <ele>153.453238</ele>
        <time>2025-06-26T04:04:27.186Z</time>
      </trkpt>
      <trkpt lat="48.425705" lon="1.432571">
        <ele>153.144916</ele>
        <time>2025-06-26T04:04:46.661Z</time>
      </trkpt>
      <trkpt lat="48.425893" lon="1.433431">
        <ele>153.895911</ele>
        <time>2025-06-26T04:05:03.447Z</time>
      </trkpt>
      <trkpt lat="48.426086" lon="1.434084">
        <ele>154.488802</ele>
        <time>2025-06-26T04:05:17.673Z</time>
      </trkpt>
      <trkpt lat="48.426129" lon="1.434172">
        <ele>154.579442</ele>
        <time>2025-06-26T04:05:19.886Z</time>
      </trkpt>
      <trkpt lat="48.426227" lon="1.434264">
        <ele>154.723753</ele>
        <time>2025-06-26T04:05:23.281Z</time>
      </trkpt>
      <trkpt lat="48.426297" lon="1.434378">
        <ele>154.852574</ele>
        <time>2025-06-26T04:05:26.135Z</time>
      </trkpt>
      <trkpt lat="48.426351" lon="1.434590">
        <ele>154.960288</ele>
        <time>2025-06-26T04:05:30.082Z</time>
      </trkpt>
      <trkpt lat="48.426350" lon="1.434700">
        <ele>154.894120</ele>
        <time>2025-06-26T04:05:31.895Z</time>
      </trkpt>
      <trkpt lat="48.426311" lon="1.434801">
        <ele>154.823835</ele>
        <time>2025-06-26T04:05:33.732Z</time>
      </trkpt>
      <trkpt lat="48.426245" lon="1.434878">
        <ele>154.748180</ele>
        <time>2025-06-26T04:05:35.644Z</time>
      </trkpt>
      <trkpt lat="48.425084" lon="1.435802">
        <ele>153.558100</ele>
        <time>2025-06-26T04:05:57.396Z</time>
      </trkpt>
      <trkpt lat="48.424963" lon="1.436064">
        <ele>153.366102</ele>
        <time>2025-06-26T04:06:00.645Z</time>
      </trkpt>
      <trkpt lat="48.424914" lon="1.436570">
        <ele>153.032595</ele>
        <time>2025-06-26T04:06:05.918Z</time>
      </trkpt>
      <trkpt lat="48.425076" lon="1.437882">
        <ele>152.161736</ele>
        <time>2025-06-26T04:06:20.531Z</time>
      </trkpt>
      <trkpt lat="48.425114" lon="1.438423">
        <ele>151.806727</ele>
        <time>2025-06-26T04:06:27.321Z</time>
      </trkpt>
      <trkpt lat="48.425091" lon="1.438511">
        <ele>151.745008</ele>
        <time>2025-06-26T04:06:28.628Z</time>
      </trkpt>
      <trkpt lat="48.425019" lon="1.438604">
        <ele>151.651755</ele>
        <time>2025-06-26T04:06:30.595Z</time>
      </trkpt>
      <trkpt lat="48.425067" lon="1.438673">
        <ele>151.606896</ele>
        <time>2025-06-26T04:06:32.061Z</time>
      </trkpt>
      <trkpt lat="48.425420" lon="1.439626">
        <ele>152.576435</ele>
        <time>2025-06-26T04:06:49.982Z</time>
      </trkpt>
      <trkpt lat="48.425670" lon="1.440774">
        <ele>153.649747</ele>
        <time>2025-06-26T04:07:11.955Z</time>
      </trkpt>
      <trkpt lat="48.425900" lon="1.441380">
        <ele>154.270191</ele>
        <time>2025-06-26T04:07:24.851Z</time>
      </trkpt>
      <trkpt lat="48.426168" lon="1.441922">
        <ele>154.871278</ele>
        <time>2025-06-26T04:07:37.085Z</time>
      </trkpt>
      <trkpt lat="48.426615" lon="1.442815">
        <ele>155.866000</ele>
        <time>2025-06-26T04:07:55.858Z</time>
      </trkpt>
      <trkpt lat="48.426738" lon="1.443040">
        <ele>156.125239</ele>
        <time>2025-06-26T04:08:00.583Z</time>
      </trkpt>
      <trkpt lat="48.426854" lon="1.443254">
        <ele>156.370965</ele>
        <time>2025-06-26T04:08:05.054Z</time>
      </trkpt>
      <trkpt lat="48.426886" lon="1.443315">
        <ele>156.416753</ele>
        <time>2025-06-26T04:08:06.310Z</time>
      </trkpt>
      <trkpt lat="48.427258" lon="1.444042">
        <ele>156.521219</ele>
        <time>2025-06-26T04:08:20.008Z</time>
      </trkpt>
      <trkpt lat="48.427258" lon="1.444042">
        <ele>156.521219</ele>
        <time>2025-06-26T04:08:20.009Z</time>
      </trkpt>
      <trkpt lat="48.427326" lon="1.444240">
        <ele>156.546589</ele>
        <time>2025-06-26T04:08:23.085Z</time>
      </trkpt>
      <trkpt lat="48.427444" lon="1.444581">
        <ele>156.590351</ele>
        <time>2025-06-26T04:08:28.220Z</time>
      </trkpt>
      <trkpt lat="48.427499" lon="1.444738">
        <ele>156.610553</ele>
        <time>2025-06-26T04:08:30.540Z</time>
      </trkpt>
      <trkpt lat="48.427716" lon="1.445362">
        <ele>156.690719</ele>
        <time>2025-06-26T04:08:39.585Z</time>
      </trkpt>
      <trkpt lat="48.428289" lon="1.447009">
        <ele>156.357683</ele>
        <time>2025-06-26T04:09:02.960Z</time>
      </trkpt>
      <trkpt lat="48.428956" lon="1.449002">
        <ele>155.943698</ele>
        <time>2025-06-26T04:09:30.987Z</time>
      </trkpt>
      <trkpt lat="48.430041" lon="1.452550">
        <ele>155.605436</ele>
        <time>2025-06-26T04:10:22.747Z</time>
      </trkpt>
      <trkpt lat="48.430380" lon="1.453366">
        <ele>155.457305</ele>
        <time>2025-06-26T04:10:35.492Z</time>
      </trkpt>
      <trkpt lat="48.430456" lon="1.453424">
        <ele>155.427705</ele>
        <time>2025-06-26T04:10:37.159Z</time>
      </trkpt>
      <trkpt lat="48.431345" lon="1.452875">
        <ele>155.093880</ele>
        <time>2025-06-26T04:10:55.171Z</time>
      </trkpt>
      <trkpt lat="48.431849" lon="1.454770">
        <ele>154.651388</ele>
        <time>2025-06-26T04:11:20.053Z</time>
      </trkpt>
      <trkpt lat="48.432139" lon="1.455634">
        <ele>154.446808</ele>
        <time>2025-06-26T04:11:32.290Z</time>
      </trkpt>
      <trkpt lat="48.432469" lon="1.456940">
        <ele>154.992341</ele>
        <time>2025-06-26T04:11:52.663Z</time>
      </trkpt>
      <trkpt lat="48.432851" lon="1.456812">
        <ele>155.311070</ele>
        <time>2025-06-26T04:11:59.675Z</time>
      </trkpt>
      <trkpt lat="48.433189" lon="1.456839">
        <ele>155.586752</ele>
        <time>2025-06-26T04:12:06.086Z</time>
      </trkpt>
      <trkpt lat="48.433363" lon="1.456928">
        <ele>155.736411</ele>
        <time>2025-06-26T04:12:09.826Z</time>
      </trkpt>
      <trkpt lat="48.433557" lon="1.457084">
        <ele>155.947561</ele>
        <time>2025-06-26T04:12:14.568Z</time>
      </trkpt>
      <trkpt lat="48.433830" lon="1.457440">
        <ele>156.391995</ele>
        <time>2025-06-26T04:12:22.586Z</time>
      </trkpt>
      <trkpt lat="48.433948" lon="1.457685">
        <ele>156.639287</ele>
        <time>2025-06-26T04:12:27.973Z</time>
      </trkpt>
      <trkpt lat="48.434076" lon="1.458188">
        <ele>157.079335</ele>
        <time>2025-06-26T04:12:37.282Z</time>
      </trkpt>
      <trkpt lat="48.434166" lon="1.458662">
        <ele>157.482053</ele>
        <time>2025-06-26T04:12:45.446Z</time>
      </trkpt>
      <trkpt lat="48.436071" lon="1.458988">
        <ele>158.890828</ele>
        <time>2025-06-26T04:13:28.949Z</time>
      </trkpt>
      <trkpt lat="48.436072" lon="1.459045">
        <ele>158.912436</ele>
        <time>2025-06-26T04:13:29.794Z</time>
      </trkpt>
      <trkpt lat="48.437153" lon="1.459459">
        <ele>158.978272</ele>
        <time>2025-06-26T04:13:53.801Z</time>
      </trkpt>
      <trkpt lat="48.437260" lon="1.459832">
        <ele>158.938907</ele>
        <time>2025-06-26T04:13:59.107Z</time>
      </trkpt>
      <trkpt lat="48.437408" lon="1.460266">
        <ele>158.891638</ele>
        <time>2025-06-26T04:14:05.134Z</time>
      </trkpt>
      <trkpt lat="48.437608" lon="1.460850">
        <ele>158.813401</ele>
        <time>2025-06-26T04:14:12.926Z</time>
      </trkpt>
      <trkpt lat="48.437930" lon="1.461840">
        <ele>158.314949</ele>
        <time>2025-06-26T04:14:25.954Z</time>
      </trkpt>
      <trkpt lat="48.437931" lon="1.461971">
        <ele>158.255722</ele>
        <time>2025-06-26T04:14:27.502Z</time>
      </trkpt>
      <trkpt lat="48.438062" lon="1.462016">
        <ele>158.164167</ele>
        <time>2025-06-26T04:14:29.929Z</time>
      </trkpt>
      <trkpt lat="48.438060" lon="1.462185">
        <ele>158.087753</ele>
        <time>2025-06-26T04:14:31.944Z</time>
      </trkpt>
      <trkpt lat="48.438094" lon="1.462291">
        <ele>158.034526</ele>
        <time>2025-06-26T04:14:33.357Z</time>
      </trkpt>
      <trkpt lat="48.438135" lon="1.462104">
        <ele>157.945491</ele>
        <time>2025-06-26T04:14:35.759Z</time>
      </trkpt>
      <trkpt lat="48.439615" lon="1.462624">
        <ele>156.661924</ele>
        <time>2025-06-26T04:15:03.577Z</time>
      </trkpt>
      <trkpt lat="48.439693" lon="1.463171">
        <ele>156.318914</ele>
        <time>2025-06-26T04:15:07.984Z</time>
      </trkpt>
      <trkpt lat="48.439756" lon="1.463676">
        <ele>156.003885</ele>
        <time>2025-06-26T04:15:11.959Z</time>
      </trkpt>
      <trkpt lat="48.439912" lon="1.464937">
        <ele>155.256909</ele>
        <time>2025-06-26T04:15:21.719Z</time>
      </trkpt>
      <trkpt lat="48.440117" lon="1.466605">
        <ele>154.458821</ele>
        <time>2025-06-26T04:15:36.255Z</time>
      </trkpt>
      <trkpt lat="48.440262" lon="1.467962">
        <ele>155.157761</ele>
        <time>2025-06-26T04:15:53.308Z</time>
      </trkpt>
      <trkpt lat="48.440303" lon="1.468279">
        <ele>155.321992</ele>
        <time>2025-06-26T04:15:57.616Z</time>
      </trkpt>
      <trkpt lat="48.440421" lon="1.469311">
        <ele>155.844215</ele>
        <time>2025-06-26T04:16:10.862Z</time>
      </trkpt>
      <trkpt lat="48.440531" lon="1.470188">
        <ele>156.253004</ele>
        <time>2025-06-26T04:16:21.965Z</time>
      </trkpt>
      <trkpt lat="48.440589" lon="1.470647">
        <ele>156.467009</ele>
        <time>2025-06-26T04:16:27.155Z</time>
      </trkpt>
      <trkpt lat="48.440607" lon="1.470789">
        <ele>156.533223</ele>
        <time>2025-06-26T04:16:28.773Z</time>
      </trkpt>
      <trkpt lat="48.440791" lon="1.471943">
        <ele>157.035310</ele>
        <time>2025-06-26T04:16:41.717Z</time>
      </trkpt>
      <trkpt lat="48.440791" lon="1.471943">
        <ele>157.035310</ele>
        <time>2025-06-26T04:16:41.721Z</time>
      </trkpt>
      <trkpt lat="48.440202" lon="1.472833">
        <ele>157.327231</ele>
        <time>2025-06-26T04:16:57.178Z</time>
      </trkpt>
      <trkpt lat="48.440202" lon="1.472833">
        <ele>157.327231</ele>
        <time>2025-06-26T04:16:57.186Z</time>
      </trkpt>
      <trkpt lat="48.439696" lon="1.473519">
        <ele>157.565446</ele>
        <time>2025-06-26T04:17:09.798Z</time>
      </trkpt>
      <trkpt lat="48.439189" lon="1.474205">
        <ele>157.699509</ele>
        <time>2025-06-26T04:17:22.426Z</time>
      </trkpt>
      <trkpt lat="48.439853" lon="1.475002">
        <ele>157.825895</ele>
        <time>2025-06-26T04:17:35.429Z</time>
      </trkpt>
      <trkpt lat="48.440620" lon="1.475865">
        <ele>158.011507</ele>
        <time>2025-06-26T04:17:50.623Z</time>
      </trkpt>
      <trkpt lat="48.440692" lon="1.475948">
        <ele>158.032425</ele>
        <time>2025-06-26T04:17:52.068Z</time>
      </trkpt>
      <trkpt lat="48.441368" lon="1.476779">
        <ele>158.233729</ele>
        <time>2025-06-26T04:18:05.433Z</time>
      </trkpt>
      <trkpt lat="48.441682" lon="1.477211">
        <ele>158.370168</ele>
        <time>2025-06-26T04:18:12.416Z</time>
      </trkpt>
      <trkpt lat="48.441727" lon="1.477253">
        <ele>158.399904</ele>
        <time>2025-06-26T04:18:13.325Z</time>
      </trkpt>
      <trkpt lat="48.441837" lon="1.477259">
        <ele>158.461745</ele>
        <time>2025-06-26T04:18:15.220Z</time>
      </trkpt>
      <trkpt lat="48.441891" lon="1.477223">
        <ele>158.494918</ele>
        <time>2025-06-26T04:18:16.237Z</time>
      </trkpt>
      <trkpt lat="48.442073" lon="1.477274">
        <ele>158.598922</ele>
        <time>2025-06-26T04:18:19.421Z</time>
      </trkpt>
      <trkpt lat="48.442155" lon="1.477615">
        <ele>158.734106</ele>
        <time>2025-06-26T04:18:23.445Z</time>
      </trkpt>
      <trkpt lat="48.442297" lon="1.478080">
        <ele>158.924892</ele>
        <time>2025-06-26T04:18:29.099Z</time>
      </trkpt>
      <trkpt lat="48.442381" lon="1.478309">
        <ele>159.022419</ele>
        <time>2025-06-26T04:18:32.032Z</time>
      </trkpt>
      <trkpt lat="48.442511" lon="1.478603">
        <ele>159.154104</ele>
        <time>2025-06-26T04:18:36.177Z</time>
      </trkpt>
      <trkpt lat="48.442527" lon="1.478639">
        <ele>159.170254</ele>
        <time>2025-06-26T04:18:36.688Z</time>
      </trkpt>
      <trkpt lat="48.442696" lon="1.479145">
        <ele>159.340916</ele>
        <time>2025-06-26T04:18:43.654Z</time>
      </trkpt>
      <trkpt lat="48.442854" lon="1.479794">
        <ele>159.439968</ele>
        <time>2025-06-26T04:18:51.554Z</time>
      </trkpt>
      <trkpt lat="48.442911" lon="1.480054">
        <ele>159.479202</ele>
        <time>2025-06-26T04:18:54.369Z</time>
      </trkpt>
      <trkpt lat="48.443001" lon="1.480387">
        <ele>159.530722</ele>
        <time>2025-06-26T04:18:58.021Z</time>
      </trkpt>
      <trkpt lat="48.443126" lon="1.480655">
        <ele>159.577661</ele>
        <time>2025-06-26T04:19:01.577Z</time>
      </trkpt>
      <trkpt lat="48.443140" lon="1.480685">
        <ele>159.582917</ele>
        <time>2025-06-26T04:19:02.009Z</time>
      </trkpt>
      <trkpt lat="48.443309" lon="1.480922">
        <ele>159.632771</ele>
        <time>2025-06-26T04:19:05.835Z</time>
      </trkpt>
      <trkpt lat="48.443500" lon="1.481203">
        <ele>159.690415</ele>
        <time>2025-06-26T04:19:10.120Z</time>
      </trkpt>
      <trkpt lat="48.443556" lon="1.481320">
        <ele>159.670030</ele>
        <time>2025-06-26T04:19:11.383Z</time>
      </trkpt>
      <trkpt lat="48.443673" lon="1.481661">
        <ele>159.400844</ele>
        <time>2025-06-26T04:19:14.407Z</time>
      </trkpt>
      <trkpt lat="48.443773" lon="1.482052">
        <ele>159.107019</ele>
        <time>2025-06-26T04:19:17.546Z</time>
      </trkpt>
      <trkpt lat="48.443926" lon="1.482663">
        <ele>158.649102</ele>
        <time>2025-06-26T04:19:23.330Z</time>
      </trkpt>
      <trkpt lat="48.444073" lon="1.483357">
        <ele>158.138293</ele>
        <time>2025-06-26T04:19:29.062Z</time>
      </trkpt>
      <trkpt lat="48.443879" lon="1.483411">
        <ele>157.929770</ele>
        <time>2025-06-26T04:19:31.212Z</time>
      </trkpt>
      <trkpt lat="48.443804" lon="1.483463">
        <ele>157.842513</ele>
        <time>2025-06-26T04:19:32.096Z</time>
      </trkpt>
      <trkpt lat="48.443740" lon="1.483559">
        <ele>157.755542</ele>
        <time>2025-06-26T04:19:33.091Z</time>
      </trkpt>
      <trkpt lat="48.443676" lon="1.483746">
        <ele>157.630336</ele>
        <time>2025-06-26T04:19:34.620Z</time>
      </trkpt>
      <trkpt lat="48.443666" lon="1.483898">
        <ele>157.539450</ele>
        <time>2025-06-26T04:19:35.730Z</time>
      </trkpt>
      <trkpt lat="48.443852" lon="1.483983">
        <ele>157.365112</ele>
        <time>2025-06-26T04:19:38.017Z</time>
      </trkpt>
      <trkpt lat="48.443952" lon="1.483742">
        <ele>157.195970</ele>
        <time>2025-06-26T04:19:40.447Z</time>
      </trkpt>
      <trkpt lat="48.444109" lon="1.483555">
        <ele>157.016490</ele>
        <time>2025-06-26T04:19:43.381Z</time>
      </trkpt>
      <trkpt lat="48.444156" lon="1.483526">
        <ele>156.970937</ele>
        <time>2025-06-26T04:19:44.139Z</time>
      </trkpt>
      <trkpt lat="48.444459" lon="1.483410">
        <ele>156.690523</ele>
        <time>2025-06-26T04:19:47.953Z</time>
      </trkpt>
      <trkpt lat="48.444561" lon="1.483423">
        <ele>156.598704</ele>
        <time>2025-06-26T04:19:49.130Z</time>
      </trkpt>
      <trkpt lat="48.444669" lon="1.483589">
        <ele>156.460355</ele>
        <time>2025-06-26T04:19:51.679Z</time>
      </trkpt>
      <trkpt lat="48.444713" lon="1.483566">
        <ele>156.418582</ele>
        <time>2025-06-26T04:19:52.227Z</time>
      </trkpt>
      <trkpt lat="48.444952" lon="1.483599">
        <ele>156.203305</ele>
        <time>2025-06-26T04:19:55.249Z</time>
      </trkpt>
      <trkpt lat="48.445073" lon="1.483617">
        <ele>156.242134</ele>
        <time>2025-06-26T04:19:57.032Z</time>
      </trkpt>
      <trkpt lat="48.445144" lon="1.483757">
        <ele>156.299890</ele>
        <time>2025-06-26T04:19:58.964Z</time>
      </trkpt>
      <trkpt lat="48.445695" lon="1.484290">
        <ele>156.623343</ele>
        <time>2025-06-26T04:20:10.708Z</time>
      </trkpt>
      <trkpt lat="48.446129" lon="1.484666">
        <ele>156.870652</ele>
        <time>2025-06-26T04:20:19.947Z</time>
      </trkpt>
      <trkpt lat="48.446214" lon="1.484756">
        <ele>156.921970</ele>
        <time>2025-06-26T04:20:22.234Z</time>
      </trkpt>
      <trkpt lat="48.446687" lon="1.485451">
        <ele>157.337999</ele>
        <time>2025-06-26T04:20:37.421Z</time>
      </trkpt>
      <trkpt lat="48.447008" lon="1.485877">
        <ele>157.660744</ele>
        <time>2025-06-26T04:20:44.730Z</time>
      </trkpt>
      <trkpt lat="48.447041" lon="1.485996">
        <ele>157.725311</ele>
        <time>2025-06-26T04:20:46.242Z</time>
      </trkpt>
      <trkpt lat="48.447512" lon="1.486621">
        <ele>158.198848</ele>
        <time>2025-06-26T04:20:56.886Z</time>
      </trkpt>
      <trkpt lat="48.447529" lon="1.486725">
        <ele>158.252467</ele>
        <time>2025-06-26T04:20:58.084Z</time>
      </trkpt>
      <trkpt lat="48.447135" lon="1.487303">
        <ele>158.851524</ele>
        <time>2025-06-26T04:21:08.539Z</time>
      </trkpt>
      <trkpt lat="48.447118" lon="1.487328">
        <ele>158.883693</ele>
        <time>2025-06-26T04:21:09.091Z</time>
      </trkpt>
      <trkpt lat="48.447100" lon="1.487356">
        <ele>158.918728</ele>
        <time>2025-06-26T04:21:09.708Z</time>
      </trkpt>
      <trkpt lat="48.446641" lon="1.486438">
        <ele>159.951644</ele>
        <time>2025-06-26T04:21:27.184Z</time>
      </trkpt>
      <trkpt lat="48.446604" lon="1.486369">
        <ele>160.031367</ele>
        <time>2025-06-26T04:21:28.390Z</time>
      </trkpt>
      <trkpt lat="48.446584" lon="1.486332">
        <ele>160.074252</ele>
        <time>2025-06-26T04:21:29.000Z</time>
      </trkpt>
      <trkpt lat="48.446512" lon="1.486415">
        <ele>160.197027</ele>
        <time>2025-06-26T04:21:30.890Z</time>
      </trkpt>
      <trkpt lat="48.446365" lon="1.486583">
        <ele>160.446898</ele>
        <time>2025-06-26T04:21:34.572Z</time>
      </trkpt>
      <trkpt lat="48.446048" lon="1.486991">
        <ele>160.604140</ele>
        <time>2025-06-26T04:21:42.445Z</time>
      </trkpt>
      <trkpt lat="48.445979" lon="1.487080">
        <ele>160.367798</ele>
        <time>2025-06-26T04:21:44.146Z</time>
      </trkpt>
      <trkpt lat="48.446026" lon="1.487174">
        <ele>160.164578</ele>
        <time>2025-06-26T04:21:45.969Z</time>
      </trkpt>
      <trkpt lat="48.446259" lon="1.487370">
        <ele>159.470148</ele>
        <time>2025-06-26T04:21:51.878Z</time>
      </trkpt>
      <trkpt lat="48.446678" lon="1.487723">
        <ele>158.220917</ele>
        <time>2025-06-26T04:22:07.674Z</time>
      </trkpt>
      <trkpt lat="48.446737" lon="1.487813">
        <ele>158.002468</ele>
        <time>2025-06-26T04:22:10.136Z</time>
      </trkpt>
      <trkpt lat="48.446929" lon="1.488220">
        <ele>157.140264</ele>
        <time>2025-06-26T04:22:19.384Z</time>
      </trkpt>
      <trkpt lat="48.446909" lon="1.488246">
        <ele>157.071531</ele>
        <time>2025-06-26T04:22:20.119Z</time>
      </trkpt>
      <trkpt lat="48.447227" lon="1.488771">
        <ele>155.010386</ele>
        <time>2025-06-26T04:22:24.457Z</time>
      </trkpt>
      <trkpt lat="48.447248" lon="1.488807">
        <ele>154.728581</ele>
        <time>2025-06-26T04:22:24.741Z</time>
      </trkpt>
      <trkpt lat="48.447364" lon="1.489006">
        <ele>153.171313</ele>
        <time>2025-06-26T04:22:26.280Z</time>
      </trkpt>
      <trkpt lat="48.447533" lon="1.489500">
        <ele>149.904029</ele>
        <time>2025-06-26T04:22:29.447Z</time>
      </trkpt>
      <trkpt lat="48.447339" lon="1.489712">
        <ele>147.780674</ele>
        <time>2025-06-26T04:22:31.518Z</time>
      </trkpt>
      <trkpt lat="48.447203" lon="1.489864">
        <ele>146.280383</ele>
        <time>2025-06-26T04:22:32.965Z</time>
      </trkpt>
      <trkpt lat="48.447061" lon="1.490085">
        <ele>144.471745</ele>
        <time>2025-06-26T04:22:34.697Z</time>
      </trkpt>
      <trkpt lat="48.446969" lon="1.490300">
        <ele>142.967769</ele>
        <time>2025-06-26T04:22:36.143Z</time>
      </trkpt>
      <trkpt lat="48.446945" lon="1.490475">
        <ele>141.917323</ele>
        <time>2025-06-26T04:22:37.166Z</time>
      </trkpt>
      <trkpt lat="48.446777" lon="1.490536">
        <ele>140.385949</ele>
        <time>2025-06-26T04:22:41.453Z</time>
      </trkpt>
      <trkpt lat="48.446754" lon="1.490543">
        <ele>140.221027</ele>
        <time>2025-06-26T04:22:42.066Z</time>
      </trkpt>
      <trkpt lat="48.446692" lon="1.490561">
        <ele>139.989353</ele>
        <time>2025-06-26T04:22:43.736Z</time>
      </trkpt>
      <trkpt lat="48.446528" lon="1.490711">
        <ele>139.285509</ele>
        <time>2025-06-26T04:22:57.047Z</time>
      </trkpt>
      <trkpt lat="48.446562" lon="1.491266">
        <ele>137.928956</ele>
        <time>2025-06-26T04:23:22.764Z</time>
      </trkpt>
      <trkpt lat="48.446982" lon="1.491146">
        <ele>136.360440</ele>
        <time>2025-06-26T04:23:28.988Z</time>
      </trkpt>
      <trkpt lat="48.446955" lon="1.490792">
        <ele>135.493176</ele>
        <time>2025-06-26T04:23:32.060Z</time>
      </trkpt>
      <trkpt lat="48.447078" lon="1.490769">
        <ele>135.038399</ele>
        <time>2025-06-26T04:23:33.687Z</time>
      </trkpt>
      <trkpt lat="48.447201" lon="1.490747">
        <ele>134.583916</ele>
        <time>2025-06-26T04:23:35.223Z</time>
      </trkpt>
      <trkpt lat="48.447367" lon="1.490662">
        <ele>133.940647</ele>
        <time>2025-06-26T04:23:37.791Z</time>
      </trkpt>
      <trkpt lat="48.447589" lon="1.490520">
        <ele>133.325244</ele>
        <time>2025-06-26T04:23:40.968Z</time>
      </trkpt>
      <trkpt lat="48.447740" lon="1.490430">
        <ele>132.998834</ele>
        <time>2025-06-26T04:23:43.071Z</time>
      </trkpt>
      <trkpt lat="48.447801" lon="1.490406">
        <ele>132.872102</ele>
        <time>2025-06-26T04:23:44.178Z</time>
      </trkpt>
      <trkpt lat="48.448100" lon="1.490361">
        <ele>132.268049</ele>
        <time>2025-06-26T04:23:47.685Z</time>
      </trkpt>
      <trkpt lat="48.448582" lon="1.490399">
        <ele>131.297783</ele>
        <time>2025-06-26T04:23:52.717Z</time>
      </trkpt>
      <trkpt lat="48.448668" lon="1.490393">
        <ele>131.124716</ele>
        <time>2025-06-26T04:23:53.616Z</time>
      </trkpt>
      <trkpt lat="48.448803" lon="1.490315">
        <ele>130.834085</ele>
        <time>2025-06-26T04:23:55.181Z</time>
      </trkpt>
      <trkpt lat="48.448874" lon="1.490273">
        <ele>130.680764</ele>
        <time>2025-06-26T04:23:55.991Z</time>
      </trkpt>
      <trkpt lat="48.449178" lon="1.490082">
        <ele>130.021179</ele>
        <time>2025-06-26T04:23:59.272Z</time>
      </trkpt>
      <trkpt lat="48.449198" lon="1.490196">
        <ele>129.886418</ele>
        <time>2025-06-26T04:24:00.355Z</time>
      </trkpt>
      <trkpt lat="48.449205" lon="1.490238">
        <ele>129.836928</ele>
        <time>2025-06-26T04:24:00.756Z</time>
      </trkpt>
      <trkpt lat="48.449282" lon="1.490674">
        <ele>129.321303</ele>
        <time>2025-06-26T04:24:05.195Z</time>
      </trkpt>
      <trkpt lat="48.449287" lon="1.490700">
        <ele>129.290366</ele>
        <time>2025-06-26T04:24:05.480Z</time>
      </trkpt>
      <trkpt lat="48.449511" lon="1.490491">
        <ele>128.836494</ele>
        <time>2025-06-26T04:24:08.476Z</time>
      </trkpt>
      <trkpt lat="48.449594" lon="1.490455">
        <ele>128.687688</ele>
        <time>2025-06-26T04:24:09.511Z</time>
      </trkpt>
      <trkpt lat="48.449961" lon="1.490428">
        <ele>128.054609</ele>
        <time>2025-06-26T04:24:13.670Z</time>
      </trkpt>
      <trkpt lat="48.450610" lon="1.490401">
        <ele>126.937566</ele>
        <time>2025-06-26T04:24:21.505Z</time>
      </trkpt>
      <trkpt lat="48.451089" lon="1.490426">
        <ele>127.361296</ele>
        <time>2025-06-26T04:24:27.922Z</time>
      </trkpt>
      <trkpt lat="48.451311" lon="1.490460">
        <ele>127.558573</ele>
        <time>2025-06-26T04:24:31.388Z</time>
      </trkpt>
      <trkpt lat="48.451553" lon="1.490504">
        <ele>127.774071</ele>
        <time>2025-06-26T04:24:35.937Z</time>
      </trkpt>
      <trkpt lat="48.451557" lon="1.490443">
        <ele>127.810014</ele>
        <time>2025-06-26T04:24:37.647Z</time>
      </trkpt>
      <trkpt lat="48.451671" lon="1.489878">
        <ele>128.156304</ele>
        <time>2025-06-26T04:24:49.003Z</time>
      </trkpt>
      <trkpt lat="48.451721" lon="1.489283">
        <ele>128.507983</ele>
        <time>2025-06-26T04:25:00.665Z</time>
      </trkpt>
      <trkpt lat="48.452284" lon="1.488710">
        <ele>128.917624</ele>
        <time>2025-06-26T04:25:19.147Z</time>
      </trkpt>
      <trkpt lat="48.452621" lon="1.488617">
        <ele>129.121055</ele>
        <time>2025-06-26T04:25:25.090Z</time>
      </trkpt>
      <trkpt lat="48.452739" lon="1.488588">
        <ele>129.192046</ele>
        <time>2025-06-26T04:25:26.927Z</time>
      </trkpt>
      <trkpt lat="48.452808" lon="1.488573">
        <ele>129.233441</ele>
        <time>2025-06-26T04:25:27.865Z</time>
      </trkpt>
      <trkpt lat="48.452888" lon="1.488553">
        <ele>129.281592</ele>
        <time>2025-06-26T04:25:28.981Z</time>
      </trkpt>
      <trkpt lat="48.452896" lon="1.488598">
        <ele>129.299940</ele>
        <time>2025-06-26T04:25:29.384Z</time>
      </trkpt>
      <trkpt lat="48.453083" lon="1.488586">
        <ele>129.411079</ele>
        <time>2025-06-26T04:25:31.778Z</time>
      </trkpt>
      <trkpt lat="48.453129" lon="1.488621">
        <ele>129.441674</ele>
        <time>2025-06-26T04:25:32.415Z</time>
      </trkpt>
      <trkpt lat="48.453181" lon="1.488612">
        <ele>129.472753</ele>
        <time>2025-06-26T04:25:33.064Z</time>
      </trkpt>
      <trkpt lat="48.453227" lon="1.488540">
        <ele>129.512124</ele>
        <time>2025-06-26T04:25:33.848Z</time>
      </trkpt>
      <trkpt lat="48.453230" lon="1.488456">
        <ele>129.545253</ele>
        <time>2025-06-26T04:25:34.528Z</time>
      </trkpt>
      <trkpt lat="48.453446" lon="1.488329">
        <ele>129.737300</ele>
        <time>2025-06-26T04:25:37.272Z</time>
      </trkpt>
      <trkpt lat="48.453812" lon="1.488101">
        <ele>130.118209</ele>
        <time>2025-06-26T04:25:42.723Z</time>
      </trkpt>
      <trkpt lat="48.454211" lon="1.487689">
        <ele>130.583367</ele>
        <time>2025-06-26T04:25:51.745Z</time>
      </trkpt>
      <trkpt lat="48.454723" lon="1.487531">
        <ele>131.086054</ele>
        <time>2025-06-26T04:26:04.121Z</time>
      </trkpt>
      <trkpt lat="48.455699" lon="1.487255">
        <ele>131.936697</ele>
        <time>2025-06-26T04:26:27.216Z</time>
      </trkpt>
      <trkpt lat="48.455863" lon="1.487143">
        <ele>132.084591</ele>
        <time>2025-06-26T04:26:30.469Z</time>
      </trkpt>
      <trkpt lat="48.455947" lon="1.487045">
        <ele>132.171836</ele>
        <time>2025-06-26T04:26:32.397Z</time>
      </trkpt>
      <trkpt lat="48.456401" lon="1.486403">
        <ele>132.683124</ele>
        <time>2025-06-26T04:26:41.835Z</time>
      </trkpt>
      <trkpt lat="48.456677" lon="1.486058">
        <ele>132.502836</ele>
        <time>2025-06-26T04:26:46.231Z</time>
      </trkpt>
      <trkpt lat="48.456839" lon="1.485926">
        <ele>132.243355</ele>
        <time>2025-06-26T04:26:48.350Z</time>
      </trkpt>
      <trkpt lat="48.457018" lon="1.485807">
        <ele>131.967690</ele>
        <time>2025-06-26T04:26:50.572Z</time>
      </trkpt>
      <trkpt lat="48.457705" lon="1.485419">
        <ele>130.933928</ele>
        <time>2025-06-26T04:26:58.882Z</time>
      </trkpt>
      <trkpt lat="48.459311" lon="1.484252">
        <ele>128.047563</ele>
        <time>2025-06-26T04:27:19.184Z</time>
      </trkpt>
      <trkpt lat="48.459973" lon="1.483617">
        <ele>126.763459</ele>
        <time>2025-06-26T04:27:27.795Z</time>
      </trkpt>
      <trkpt lat="48.460573" lon="1.483015">
        <ele>125.652927</ele>
        <time>2025-06-26T04:27:35.960Z</time>
      </trkpt>
      <trkpt lat="48.461021" lon="1.482651">
        <ele>124.868746</ele>
        <time>2025-06-26T04:27:41.780Z</time>
      </trkpt>
      <trkpt lat="48.461459" lon="1.482351">
        <ele>124.316974</ele>
        <time>2025-06-26T04:27:47.611Z</time>
      </trkpt>
      <trkpt lat="48.462248" lon="1.482001">
        <ele>123.798166</ele>
        <time>2025-06-26T04:27:58.625Z</time>
      </trkpt>
      <trkpt lat="48.462479" lon="1.481900">
        <ele>123.646444</ele>
        <time>2025-06-26T04:28:01.808Z</time>
      </trkpt>
      <trkpt lat="48.463248" lon="1.481637">
        <ele>123.219164</ele>
        <time>2025-06-26T04:28:12.275Z</time>
      </trkpt>
      <trkpt lat="48.463838" lon="1.481347">
        <ele>122.994433</ele>
        <time>2025-06-26T04:28:20.189Z</time>
      </trkpt>
      <trkpt lat="48.463995" lon="1.481238">
        <ele>122.931840</ele>
        <time>2025-06-26T04:28:22.409Z</time>
      </trkpt>
      <trkpt lat="48.464227" lon="1.481076">
        <ele>122.839252</ele>
        <time>2025-06-26T04:28:25.844Z</time>
      </trkpt>
      <trkpt lat="48.464350" lon="1.480990">
        <ele>122.790153</ele>
        <time>2025-06-26T04:28:27.789Z</time>
      </trkpt>
      <trkpt lat="48.464540" lon="1.480858">
        <ele>122.714395</ele>
        <time>2025-06-26T04:28:30.870Z</time>
      </trkpt>
      <trkpt lat="48.464988" lon="1.480559">
        <ele>122.813333</ele>
        <time>2025-06-26T04:28:38.635Z</time>
      </trkpt>
      <trkpt lat="48.465210" lon="1.480401">
        <ele>122.920421</ele>
        <time>2025-06-26T04:28:42.654Z</time>
      </trkpt>
      <trkpt lat="48.465370" lon="1.480309">
        <ele>122.995121</ele>
        <time>2025-06-26T04:28:45.473Z</time>
      </trkpt>
      <trkpt lat="48.465651" lon="1.480147">
        <ele>123.126355</ele>
        <time>2025-06-26T04:28:50.799Z</time>
      </trkpt>
      <trkpt lat="48.466284" lon="1.479929">
        <ele>123.409604</ele>
        <time>2025-06-26T04:29:02.085Z</time>
      </trkpt>
      <trkpt lat="48.467203" lon="1.479818">
        <ele>123.745612</ele>
        <time>2025-06-26T04:29:17.093Z</time>
      </trkpt>
      <trkpt lat="48.467422" lon="1.479829">
        <ele>123.823861</ele>
        <time>2025-06-26T04:29:20.572Z</time>
      </trkpt>
      <trkpt lat="48.467646" lon="1.479870">
        <ele>123.904440</ele>
        <time>2025-06-26T04:29:24.191Z</time>
      </trkpt>
      <trkpt lat="48.468715" lon="1.480285">
        <ele>124.288235</ele>
        <time>2025-06-26T04:29:41.977Z</time>
      </trkpt>
      <trkpt lat="48.468753" lon="1.480299">
        <ele>124.301510</ele>
        <time>2025-06-26T04:29:42.553Z</time>
      </trkpt>
      <trkpt lat="48.469118" lon="1.480423">
        <ele>124.428486</ele>
        <time>2025-06-26T04:29:48.221Z</time>
      </trkpt>
      <trkpt lat="48.469145" lon="1.480432">
        <ele>124.437871</ele>
        <time>2025-06-26T04:29:48.632Z</time>
      </trkpt>
      <trkpt lat="48.469403" lon="1.480555">
        <ele>124.529700</ele>
        <time>2025-06-26T04:29:52.676Z</time>
      </trkpt>
      <trkpt lat="48.469876" lon="1.480894">
        <ele>124.718510</ele>
        <time>2025-06-26T04:30:01.571Z</time>
      </trkpt>
      <trkpt lat="48.470023" lon="1.480957">
        <ele>124.844692</ele>
        <time>2025-06-26T04:30:04.464Z</time>
      </trkpt>
      <trkpt lat="48.469982" lon="1.481123">
        <ele>124.941669</ele>
        <time>2025-06-26T04:30:06.719Z</time>
      </trkpt>
      <trkpt lat="48.470026" lon="1.481313">
        <ele>125.051846</ele>
        <time>2025-06-26T04:30:09.290Z</time>
      </trkpt>
      <trkpt lat="48.470271" lon="1.481981">
        <ele>125.469762</ele>
        <time>2025-06-26T04:30:18.848Z</time>
      </trkpt>
      <trkpt lat="48.470489" lon="1.482472">
        <ele>125.793259</ele>
        <time>2025-06-26T04:30:26.166Z</time>
      </trkpt>
      <trkpt lat="48.470945" lon="1.483216">
        <ele>126.071226</ele>
        <time>2025-06-26T04:30:38.488Z</time>
      </trkpt>
      <trkpt lat="48.471200" lon="1.483849">
        <ele>125.788822</ele>
        <time>2025-06-26T04:30:45.581Z</time>
      </trkpt>
      <trkpt lat="48.471435" lon="1.484277">
        <ele>125.576944</ele>
        <time>2025-06-26T04:30:50.261Z</time>
      </trkpt>
      <trkpt lat="48.472114" lon="1.485260">
        <ele>124.729556</ele>
        <time>2025-06-26T04:31:01.363Z</time>
      </trkpt>
      <trkpt lat="48.472292" lon="1.485559">
        <ele>124.167614</ele>
        <time>2025-06-26T04:31:04.325Z</time>
      </trkpt>
      <trkpt lat="48.472526" lon="1.486053">
        <ele>123.318614</ele>
        <time>2025-06-26T04:31:08.654Z</time>
      </trkpt>
      <trkpt lat="48.472630" lon="1.486407">
        <ele>122.777165</ele>
        <time>2025-06-26T04:31:11.371Z</time>
      </trkpt>
      <trkpt lat="48.472740" lon="1.486922">
        <ele>122.020553</ele>
        <time>2025-06-26T04:31:15.131Z</time>
      </trkpt>
      <trkpt lat="48.472840" lon="1.487256">
        <ele>121.508081</ele>
        <time>2025-06-26T04:31:17.657Z</time>
      </trkpt>
      <trkpt lat="48.473417" lon="1.488640">
        <ele>120.538340</ele>
        <time>2025-06-26T04:31:29.806Z</time>
      </trkpt>
      <trkpt lat="48.473659" lon="1.489380">
        <ele>120.096024</ele>
        <time>2025-06-26T04:31:37.865Z</time>
      </trkpt>
      <trkpt lat="48.474240" lon="1.491389">
        <ele>121.291607</ele>
        <time>2025-06-26T04:32:07.393Z</time>
      </trkpt>
      <trkpt lat="48.474288" lon="1.491523">
        <ele>121.407191</ele>
        <time>2025-06-26T04:32:09.348Z</time>
      </trkpt>
      <trkpt lat="48.474433" lon="1.492155">
        <ele>121.914707</ele>
        <time>2025-06-26T04:32:17.480Z</time>
      </trkpt>
      <trkpt lat="48.474716" lon="1.493358">
        <ele>122.856477</ele>
        <time>2025-06-26T04:32:33.543Z</time>
      </trkpt>
      <trkpt lat="48.474865" lon="1.493573">
        <ele>123.085616</ele>
        <time>2025-06-26T04:32:37.636Z</time>
      </trkpt>
      <trkpt lat="48.474960" lon="1.493663">
        <ele>123.210280</ele>
        <time>2025-06-26T04:32:39.886Z</time>
      </trkpt>
      <trkpt lat="48.475142" lon="1.493743">
        <ele>123.420942</ele>
        <time>2025-06-26T04:32:43.669Z</time>
      </trkpt>
      <trkpt lat="48.475719" lon="1.493784">
        <ele>124.017594</ele>
        <time>2025-06-26T04:32:54.942Z</time>
      </trkpt>
      <trkpt lat="48.476148" lon="1.493957">
        <ele>124.293850</ele>
        <time>2025-06-26T04:33:03.625Z</time>
      </trkpt>
      <trkpt lat="48.476517" lon="1.494104">
        <ele>124.531278</ele>
        <time>2025-06-26T04:33:10.416Z</time>
      </trkpt>
      <trkpt lat="48.476963" lon="1.494280">
        <ele>124.818075</ele>
        <time>2025-06-26T04:33:17.689Z</time>
      </trkpt>
      <trkpt lat="48.477337" lon="1.494434">
        <ele>125.059255</ele>
        <time>2025-06-26T04:33:23.651Z</time>
      </trkpt>
      <trkpt lat="48.477886" lon="1.494696">
        <ele>124.865292</ele>
        <time>2025-06-26T04:33:32.606Z</time>
      </trkpt>
      <trkpt lat="48.478009" lon="1.494770">
        <ele>124.813285</ele>
        <time>2025-06-26T04:33:34.600Z</time>
      </trkpt>
      <trkpt lat="48.478451" lon="1.495166">
        <ele>124.611389</ele>
        <time>2025-06-26T04:33:41.742Z</time>
      </trkpt>
      <trkpt lat="48.478954" lon="1.495800">
        <ele>124.316029</ele>
        <time>2025-06-26T04:33:49.957Z</time>
      </trkpt>
      <trkpt lat="48.479381" lon="1.496670">
        <ele>123.460357</ele>
        <time>2025-06-26T04:33:58.238Z</time>
      </trkpt>
      <trkpt lat="48.479607" lon="1.497079">
        <ele>123.039473</ele>
        <time>2025-06-26T04:34:02.303Z</time>
      </trkpt>
      <trkpt lat="48.480739" lon="1.499007">
        <ele>121.380699</ele>
        <time>2025-06-26T04:34:23.202Z</time>
      </trkpt>
      <trkpt lat="48.481006" lon="1.499461">
        <ele>121.048722</ele>
        <time>2025-06-26T04:34:28.327Z</time>
      </trkpt>
      <trkpt lat="48.481371" lon="1.500168">
        <ele>120.632875</ele>
        <time>2025-06-26T04:34:36.121Z</time>
      </trkpt>
      <trkpt lat="48.481636" lon="1.500262">
        <ele>120.498439</ele>
        <time>2025-06-26T04:34:39.784Z</time>
      </trkpt>
      <trkpt lat="48.482533" lon="1.500770">
        <ele>120.025283</ele>
        <time>2025-06-26T04:34:52.528Z</time>
      </trkpt>
      <trkpt lat="48.482750" lon="1.500893">
        <ele>119.910806</ele>
        <time>2025-06-26T04:34:55.606Z</time>
      </trkpt>
      <trkpt lat="48.483582" lon="1.501411">
        <ele>119.602814</ele>
        <time>2025-06-26T04:35:07.553Z</time>
      </trkpt>
      <trkpt lat="48.484067" lon="1.501892">
        <ele>119.416737</ele>
        <time>2025-06-26T04:35:15.423Z</time>
      </trkpt>
      <trkpt lat="48.485703" lon="1.503840">
        <ele>119.469606</ele>
        <time>2025-06-26T04:35:47.079Z</time>
      </trkpt>
      <trkpt lat="48.486223" lon="1.504532">
        <ele>119.785696</ele>
        <time>2025-06-26T04:35:58.036Z</time>
      </trkpt>
      <trkpt lat="48.487616" lon="1.506385">
        <ele>120.600085</ele>
        <time>2025-06-26T04:36:30.851Z</time>
      </trkpt>
      <trkpt lat="48.488190" lon="1.507109">
        <ele>120.762882</ele>
        <time>2025-06-26T04:36:43.037Z</time>
      </trkpt>
      <trkpt lat="48.488353" lon="1.507377">
        <ele>120.815340</ele>
        <time>2025-06-26T04:36:46.503Z</time>
      </trkpt>
      <trkpt lat="48.488499" lon="1.507759">
        <ele>120.789761</ele>
        <time>2025-06-26T04:36:50.261Z</time>
      </trkpt>
      <trkpt lat="48.488582" lon="1.508123">
        <ele>120.591952</ele>
        <time>2025-06-26T04:36:53.385Z</time>
      </trkpt>
      <trkpt lat="48.488599" lon="1.508398">
        <ele>120.450024</ele>
        <time>2025-06-26T04:36:55.562Z</time>
      </trkpt>
      <trkpt lat="48.488585" lon="1.508758">
        <ele>120.264714</ele>
        <time>2025-06-26T04:36:58.420Z</time>
      </trkpt>
      <trkpt lat="48.488529" lon="1.509118">
        <ele>120.074694</ele>
        <time>2025-06-26T04:37:01.390Z</time>
      </trkpt>
      <trkpt lat="48.488443" lon="1.509437">
        <ele>119.897727</ele>
        <time>2025-06-26T04:37:04.231Z</time>
      </trkpt>
      <trkpt lat="48.488356" lon="1.509691">
        <ele>119.750804</ele>
        <time>2025-06-26T04:37:06.609Z</time>
      </trkpt>
      <trkpt lat="48.488202" lon="1.510025">
        <ele>119.541723</ele>
        <time>2025-06-26T04:37:10.106Z</time>
      </trkpt>
      <trkpt lat="48.487949" lon="1.510509">
        <ele>119.427447</ele>
        <time>2025-06-26T04:37:15.541Z</time>
      </trkpt>
      <trkpt lat="48.487823" lon="1.510825">
        <ele>119.397906</ele>
        <time>2025-06-26T04:37:19.092Z</time>
      </trkpt>
      <trkpt lat="48.487764" lon="1.511042">
        <ele>119.379117</ele>
        <time>2025-06-26T04:37:21.439Z</time>
      </trkpt>
      <trkpt lat="48.487699" lon="1.511615">
        <ele>119.332549</ele>
        <time>2025-06-26T04:37:27.462Z</time>
      </trkpt>
      <trkpt lat="48.487609" lon="1.513186">
        <ele>119.261613</ele>
        <time>2025-06-26T04:37:42.698Z</time>
      </trkpt>
      <trkpt lat="48.487589" lon="1.513634">
        <ele>119.273971</ele>
        <time>2025-06-26T04:37:47.104Z</time>
      </trkpt>
      <trkpt lat="48.487609" lon="1.513860">
        <ele>119.280247</ele>
        <time>2025-06-26T04:37:49.375Z</time>
      </trkpt>
      <trkpt lat="48.487638" lon="1.514046">
        <ele>119.285506</ele>
        <time>2025-06-26T04:37:51.302Z</time>
      </trkpt>
      <trkpt lat="48.488219" lon="1.515757">
        <ele>119.124766</ele>
        <time>2025-06-26T04:38:10.575Z</time>
      </trkpt>
      <trkpt lat="48.488261" lon="1.515955">
        <ele>119.055375</ele>
        <time>2025-06-26T04:38:12.446Z</time>
      </trkpt>
      <trkpt lat="48.488251" lon="1.516326">
        <ele>118.931440</ele>
        <time>2025-06-26T04:38:15.674Z</time>
      </trkpt>
      <trkpt lat="48.488000" lon="1.517784">
        <ele>118.428639</ele>
        <time>2025-06-26T04:38:28.215Z</time>
      </trkpt>
      <trkpt lat="48.487923" lon="1.518026">
        <ele>118.390137</ele>
        <time>2025-06-26T04:38:30.416Z</time>
      </trkpt>
      <trkpt lat="48.487399" lon="1.519326">
        <ele>118.218044</ele>
        <time>2025-06-26T04:38:44.037Z</time>
      </trkpt>
      <trkpt lat="48.487278" lon="1.519814">
        <ele>118.159112</ele>
        <time>2025-06-26T04:38:49.583Z</time>
      </trkpt>
      <trkpt lat="48.487195" lon="1.520212">
        <ele>118.111920</ele>
        <time>2025-06-26T04:38:54.234Z</time>
      </trkpt>
      <trkpt lat="48.487195" lon="1.520215">
        <ele>118.111580</ele>
        <time>2025-06-26T04:38:54.263Z</time>
      </trkpt>
      <trkpt lat="48.487072" lon="1.521192">
        <ele>118.517547</ele>
        <time>2025-06-26T04:39:05.712Z</time>
      </trkpt>
      <trkpt lat="48.486987" lon="1.521663">
        <ele>118.721889</ele>
        <time>2025-06-26T04:39:11.291Z</time>
      </trkpt>
      <trkpt lat="48.486883" lon="1.522021">
        <ele>118.885514</ele>
        <time>2025-06-26T04:39:15.725Z</time>
      </trkpt>
      <trkpt lat="48.486705" lon="1.522425">
        <ele>119.088589</ele>
        <time>2025-06-26T04:39:21.314Z</time>
      </trkpt>
      <trkpt lat="48.486557" lon="1.522840">
        <ele>119.291320</ele>
        <time>2025-06-26T04:39:26.988Z</time>
      </trkpt>
      <trkpt lat="48.486475" lon="1.523243">
        <ele>119.491575</ele>
        <time>2025-06-26T04:39:32.183Z</time>
      </trkpt>
      <trkpt lat="48.486460" lon="1.523568">
        <ele>119.646333</ele>
        <time>2025-06-26T04:39:36.172Z</time>
      </trkpt>
      <trkpt lat="48.486499" lon="1.523883">
        <ele>119.798556</ele>
        <time>2025-06-26T04:39:40.072Z</time>
      </trkpt>
      <trkpt lat="48.486668" lon="1.524677">
        <ele>120.194700</ele>
        <time>2025-06-26T04:39:50.229Z</time>
      </trkpt>
      <trkpt lat="48.487068" lon="1.525963">
        <ele>120.207700</ele>
        <time>2025-06-26T04:40:05.980Z</time>
      </trkpt>
      <trkpt lat="48.487097" lon="1.526192">
        <ele>120.099681</ele>
        <time>2025-06-26T04:40:08.060Z</time>
      </trkpt>
      <trkpt lat="48.487013" lon="1.526209">
        <ele>120.040436</ele>
        <time>2025-06-26T04:40:09.170Z</time>
      </trkpt>
      <trkpt lat="48.486975" lon="1.526275">
        <ele>119.999930</ele>
        <time>2025-06-26T04:40:09.900Z</time>
      </trkpt>
      <trkpt lat="48.486969" lon="1.526362">
        <ele>119.959404</ele>
        <time>2025-06-26T04:40:10.634Z</time>
      </trkpt>
      <trkpt lat="48.486710" lon="1.526445">
        <ele>119.774314</ele>
        <time>2025-06-26T04:40:13.801Z</time>
      </trkpt>
      <trkpt lat="48.485998" lon="1.526787">
        <ele>119.232708</ele>
        <time>2025-06-26T04:40:22.430Z</time>
      </trkpt>
      <trkpt lat="48.485719" lon="1.526908">
        <ele>118.874378</ele>
        <time>2025-06-26T04:40:25.829Z</time>
      </trkpt>
      <trkpt lat="48.485638" lon="1.526927">
        <ele>118.773194</ele>
        <time>2025-06-26T04:40:26.784Z</time>
      </trkpt>
      <trkpt lat="48.485523" lon="1.526901">
        <ele>118.629659</ele>
        <time>2025-06-26T04:40:28.134Z</time>
      </trkpt>
      <trkpt lat="48.485506" lon="1.527024">
        <ele>118.526863</ele>
        <time>2025-06-26T04:40:29.108Z</time>
      </trkpt>
      <trkpt lat="48.485541" lon="1.527192">
        <ele>118.382786</ele>
        <time>2025-06-26T04:40:30.458Z</time>
      </trkpt>
      <trkpt lat="48.485741" lon="1.527643">
        <ele>117.938835</ele>
        <time>2025-06-26T04:40:34.591Z</time>
      </trkpt>
      <trkpt lat="48.485917" lon="1.527948">
        <ele>117.607985</ele>
        <time>2025-06-26T04:40:37.708Z</time>
      </trkpt>
      <trkpt lat="48.486446" lon="1.528835">
        <ele>116.918424</ele>
        <time>2025-06-26T04:40:47.721Z</time>
      </trkpt>
      <trkpt lat="48.486620" lon="1.529176">
        <ele>116.803692</ele>
        <time>2025-06-26T04:40:51.367Z</time>
      </trkpt>
      <trkpt lat="48.486787" lon="1.529577">
        <ele>116.677432</ele>
        <time>2025-06-26T04:40:55.405Z</time>
      </trkpt>
      <trkpt lat="48.486955" lon="1.530115">
        <ele>116.518878</ele>
        <time>2025-06-26T04:41:00.877Z</time>
      </trkpt>
      <trkpt lat="48.486930" lon="1.530235">
        <ele>116.485343</ele>
        <time>2025-06-26T04:41:02.083Z</time>
      </trkpt>
      <trkpt lat="48.486968" lon="1.531064">
        <ele>116.385060</ele>
        <time>2025-06-26T04:41:10.658Z</time>
      </trkpt>
      <trkpt lat="48.487008" lon="1.531727">
        <ele>116.516350</ele>
        <time>2025-06-26T04:41:17.854Z</time>
      </trkpt>
      <trkpt lat="48.487069" lon="1.532160">
        <ele>116.603648</ele>
        <time>2025-06-26T04:41:22.737Z</time>
      </trkpt>
      <trkpt lat="48.487521" lon="1.533090">
        <ele>116.831076</ele>
        <time>2025-06-26T04:41:35.210Z</time>
      </trkpt>
      <trkpt lat="48.487583" lon="1.533315">
        <ele>116.873570</ele>
        <time>2025-06-26T04:41:37.704Z</time>
      </trkpt>
      <trkpt lat="48.487612" lon="1.533444">
        <ele>116.886151</ele>
        <time>2025-06-26T04:41:39.091Z</time>
      </trkpt>
      <trkpt lat="48.487627" lon="1.533941">
        <ele>116.932100</ele>
        <time>2025-06-26T04:41:44.124Z</time>
      </trkpt>
      <trkpt lat="48.487709" lon="1.534284">
        <ele>116.965776</ele>
        <time>2025-06-26T04:41:47.753Z</time>
      </trkpt>
      <trkpt lat="48.488011" lon="1.535072">
        <ele>117.049843</ele>
        <time>2025-06-26T04:41:56.628Z</time>
      </trkpt>
      <trkpt lat="48.488337" lon="1.536002">
        <ele>117.225770</ele>
        <time>2025-06-26T04:42:07.560Z</time>
      </trkpt>
      <trkpt lat="48.488375" lon="1.536110">
        <ele>117.269174</ele>
        <time>2025-06-26T04:42:08.833Z</time>
      </trkpt>
      <trkpt lat="48.488502" lon="1.536441">
        <ele>117.404939</ele>
        <time>2025-06-26T04:42:13.026Z</time>
      </trkpt>
      <trkpt lat="48.488591" lon="1.536602">
        <ele>117.479359</ele>
        <time>2025-06-26T04:42:15.371Z</time>
      </trkpt>
      <trkpt lat="48.488804" lon="1.536740">
        <ele>117.603512</ele>
        <time>2025-06-26T04:42:19.234Z</time>
      </trkpt>
      <trkpt lat="48.489939" lon="1.537294">
        <ele>118.440338</ele>
        <time>2025-06-26T04:42:40.005Z</time>
      </trkpt>
      <trkpt lat="48.490013" lon="1.537345">
        <ele>118.537882</ele>
        <time>2025-06-26T04:42:41.609Z</time>
      </trkpt>
      <trkpt lat="48.490396" lon="1.537842">
        <ele>119.143570</ele>
        <time>2025-06-26T04:42:52.234Z</time>
      </trkpt>
      <trkpt lat="48.490716" lon="1.538159">
        <ele>119.602553</ele>
        <time>2025-06-26T04:43:00.750Z</time>
      </trkpt>
      <trkpt lat="48.491167" lon="1.538464">
        <ele>120.195134</ele>
        <time>2025-06-26T04:43:10.620Z</time>
      </trkpt>
      <trkpt lat="48.491530" lon="1.538658">
        <ele>120.290990</ele>
        <time>2025-06-26T04:43:17.267Z</time>
      </trkpt>
      <trkpt lat="48.492287" lon="1.539055">
        <ele>120.410082</ele>
        <time>2025-06-26T04:43:28.733Z</time>
      </trkpt>
      <trkpt lat="48.492692" lon="1.539140">
        <ele>120.470845</ele>
        <time>2025-06-26T04:43:34.131Z</time>
      </trkpt>
      <trkpt lat="48.493777" lon="1.539580">
        <ele>120.617911</ele>
        <time>2025-06-26T04:43:52.291Z</time>
      </trkpt>
      <trkpt lat="48.494472" lon="1.539822">
        <ele>120.707846</ele>
        <time>2025-06-26T04:44:03.636Z</time>
      </trkpt>
      <trkpt lat="48.495757" lon="1.540197">
        <ele>120.797736</ele>
        <time>2025-06-26T04:44:21.369Z</time>
      </trkpt>
      <trkpt lat="48.496414" lon="1.540455">
        <ele>120.837254</ele>
        <time>2025-06-26T04:44:32.314Z</time>
      </trkpt>
      <trkpt lat="48.496816" lon="1.540669">
        <ele>121.252335</ele>
        <time>2025-06-26T04:44:40.431Z</time>
      </trkpt>
      <trkpt lat="48.497723" lon="1.541249">
        <ele>122.239536</ele>
        <time>2025-06-26T04:45:00.984Z</time>
      </trkpt>
      <trkpt lat="48.498145" lon="1.541463">
        <ele>122.609222</ele>
        <time>2025-06-26T04:45:09.049Z</time>
      </trkpt>
      <trkpt lat="48.498629" lon="1.541683">
        <ele>122.257957</ele>
        <time>2025-06-26T04:45:16.625Z</time>
      </trkpt>
      <trkpt lat="48.499518" lon="1.541946">
        <ele>121.628418</ele>
        <time>2025-06-26T04:45:27.582Z</time>
      </trkpt>
      <trkpt lat="48.500556" lon="1.542515">
        <ele>120.620264</ele>
        <time>2025-06-26T04:45:40.174Z</time>
      </trkpt>
      <trkpt lat="48.500931" lon="1.543011">
        <ele>120.116264</ele>
        <time>2025-06-26T04:45:46.221Z</time>
      </trkpt>
      <trkpt lat="48.501154" lon="1.543226">
        <ele>119.848797</ele>
        <time>2025-06-26T04:45:49.623Z</time>
      </trkpt>
      <trkpt lat="48.501694" lon="1.543719">
        <ele>119.663822</ele>
        <time>2025-06-26T04:45:58.448Z</time>
      </trkpt>
      <trkpt lat="48.501899" lon="1.544002">
        <ele>119.734605</ele>
        <time>2025-06-26T04:46:03.117Z</time>
      </trkpt>
      <trkpt lat="48.502371" lon="1.544530">
        <ele>119.884290</ele>
        <time>2025-06-26T04:46:12.556Z</time>
      </trkpt>
      <trkpt lat="48.503099" lon="1.545182">
        <ele>120.140209</ele>
        <time>2025-06-26T04:46:27.337Z</time>
      </trkpt>
      <trkpt lat="48.504037" lon="1.546134">
        <ele>120.595980</ele>
        <time>2025-06-26T04:46:45.950Z</time>
      </trkpt>
      <trkpt lat="48.504465" lon="1.546618">
        <ele>120.716117</ele>
        <time>2025-06-26T04:46:54.700Z</time>
      </trkpt>
      <trkpt lat="48.505324" lon="1.547842">
        <ele>120.372845</ele>
        <time>2025-06-26T04:47:11.375Z</time>
      </trkpt>
      <trkpt lat="48.505625" lon="1.548343">
        <ele>120.242640</ele>
        <time>2025-06-26T04:47:17.048Z</time>
      </trkpt>
      <trkpt lat="48.506786" lon="1.550781">
        <ele>118.794958</ele>
        <time>2025-06-26T04:47:41.617Z</time>
      </trkpt>
      <trkpt lat="48.506968" lon="1.550970">
        <ele>118.792779</ele>
        <time>2025-06-26T04:47:44.894Z</time>
      </trkpt>
      <trkpt lat="48.506984" lon="1.550986">
        <ele>118.792589</ele>
        <time>2025-06-26T04:47:45.205Z</time>
      </trkpt>
      <trkpt lat="48.507098" lon="1.551106">
        <ele>118.791218</ele>
        <time>2025-06-26T04:47:47.358Z</time>
      </trkpt>
      <trkpt lat="48.507588" lon="1.552390">
        <ele>118.781535</ele>
        <time>2025-06-26T04:48:03.688Z</time>
      </trkpt>
      <trkpt lat="48.508066" lon="1.553375">
        <ele>118.518437</ele>
        <time>2025-06-26T04:48:15.235Z</time>
      </trkpt>
      <trkpt lat="48.508958" lon="1.555051">
        <ele>118.023066</ele>
        <time>2025-06-26T04:48:32.862Z</time>
      </trkpt>
      <trkpt lat="48.509507" lon="1.555963">
        <ele>118.692299</ele>
        <time>2025-06-26T04:48:47.466Z</time>
      </trkpt>
      <trkpt lat="48.509471" lon="1.556240">
        <ele>118.845603</ele>
        <time>2025-06-26T04:48:50.893Z</time>
      </trkpt>
      <trkpt lat="48.509498" lon="1.556422">
        <ele>118.946893</ele>
        <time>2025-06-26T04:48:53.344Z</time>
      </trkpt>
      <trkpt lat="48.509555" lon="1.556545">
        <ele>119.028414</ele>
        <time>2025-06-26T04:48:55.529Z</time>
      </trkpt>
      <trkpt lat="48.510186" lon="1.557285">
        <ele>119.613038</ele>
        <time>2025-06-26T04:49:13.419Z</time>
      </trkpt>
      <trkpt lat="48.510482" lon="1.557771">
        <ele>119.891052</ele>
        <time>2025-06-26T04:49:21.052Z</time>
      </trkpt>
      <trkpt lat="48.510749" lon="1.558109">
        <ele>120.112563</ele>
        <time>2025-06-26T04:49:26.669Z</time>
      </trkpt>
      <trkpt lat="48.512099" lon="1.559740">
        <ele>119.979000</ele>
        <time>2025-06-26T04:49:51.618Z</time>
      </trkpt>
      <trkpt lat="48.512704" lon="1.560394">
        <ele>119.600445</ele>
        <time>2025-06-26T04:50:00.651Z</time>
      </trkpt>
      <trkpt lat="48.513272" lon="1.561124">
        <ele>118.955377</ele>
        <time>2025-06-26T04:50:09.774Z</time>
      </trkpt>
      <trkpt lat="48.515255" lon="1.563503">
        <ele>116.667665</ele>
        <time>2025-06-26T04:50:42.083Z</time>
      </trkpt>
      <trkpt lat="48.515440" lon="1.563627">
        <ele>116.479700</ele>
        <time>2025-06-26T04:50:44.336Z</time>
      </trkpt>
      <trkpt lat="48.515725" lon="1.563761">
        <ele>116.243340</ele>
        <time>2025-06-26T04:50:47.664Z</time>
      </trkpt>
      <trkpt lat="48.515765" lon="1.563786">
        <ele>116.210929</ele>
        <time>2025-06-26T04:50:48.157Z</time>
      </trkpt>
      <trkpt lat="48.515961" lon="1.563932">
        <ele>116.047303</ele>
        <time>2025-06-26T04:50:50.618Z</time>
      </trkpt>
      <trkpt lat="48.516165" lon="1.564139">
        <ele>115.863284</ele>
        <time>2025-06-26T04:50:53.424Z</time>
      </trkpt>
      <trkpt lat="48.516495" lon="1.564575">
        <ele>115.534976</ele>
        <time>2025-06-26T04:50:58.648Z</time>
      </trkpt>
      <trkpt lat="48.517746" lon="1.566757">
        <ele>115.418872</ele>
        <time>2025-06-26T04:51:30.818Z</time>
      </trkpt>
      <trkpt lat="48.518762" lon="1.568205">
        <ele>115.549241</ele>
        <time>2025-06-26T04:51:50.580Z</time>
      </trkpt>
      <trkpt lat="48.519655" lon="1.569148">
        <ele>115.641227</ele>
        <time>2025-06-26T04:52:06.821Z</time>
      </trkpt>
      <trkpt lat="48.520034" lon="1.569554">
        <ele>115.911979</ele>
        <time>2025-06-26T04:52:14.660Z</time>
      </trkpt>
      <trkpt lat="48.521090" lon="1.570844">
        <ele>116.823625</ele>
        <time>2025-06-26T04:52:38.836Z</time>
      </trkpt>
      <trkpt lat="48.521463" lon="1.571381">
        <ele>117.433516</ele>
        <time>2025-06-26T04:52:48.558Z</time>
      </trkpt>
      <trkpt lat="48.521814" lon="1.572067">
        <ele>118.112928</ele>
        <time>2025-06-26T04:52:59.946Z</time>
      </trkpt>
      <trkpt lat="48.522365" lon="1.573033">
        <ele>118.757880</ele>
        <time>2025-06-26T04:53:17.832Z</time>
      </trkpt>
      <trkpt lat="48.522937" lon="1.573880">
        <ele>118.859821</ele>
        <time>2025-06-26T04:53:33.193Z</time>
      </trkpt>
      <trkpt lat="48.523601" lon="1.574698">
        <ele>118.426987</ele>
        <time>2025-06-26T04:53:43.154Z</time>
      </trkpt>
      <trkpt lat="48.523825" lon="1.574868">
        <ele>117.761950</ele>
        <time>2025-06-26T04:53:45.685Z</time>
      </trkpt>
      <trkpt lat="48.524195" lon="1.575039">
        <ele>116.735514</ele>
        <time>2025-06-26T04:53:49.536Z</time>
      </trkpt>
      <trkpt lat="48.524585" lon="1.574956">
        <ele>115.690749</ele>
        <time>2025-06-26T04:53:53.447Z</time>
      </trkpt>
      <trkpt lat="48.524742" lon="1.574953">
        <ele>115.274247</ele>
        <time>2025-06-26T04:53:55.004Z</time>
      </trkpt>
      <trkpt lat="48.526508" lon="1.576310">
        <ele>111.908044</ele>
        <time>2025-06-26T04:54:17.505Z</time>
      </trkpt>
      <trkpt lat="48.527694" lon="1.577419">
        <ele>110.947562</ele>
        <time>2025-06-26T04:54:36.553Z</time>
      </trkpt>
      <trkpt lat="48.528196" lon="1.578016">
        <ele>110.604622</ele>
        <time>2025-06-26T04:54:44.836Z</time>
      </trkpt>
      <trkpt lat="48.528644" lon="1.578213">
        <ele>110.402621</ele>
        <time>2025-06-26T04:54:50.855Z</time>
      </trkpt>
      <trkpt lat="48.528902" lon="1.578396">
        <ele>110.279221</ele>
        <time>2025-06-26T04:54:54.574Z</time>
      </trkpt>
      <trkpt lat="48.529030" lon="1.578494">
        <ele>110.217093</ele>
        <time>2025-06-26T04:54:56.473Z</time>
      </trkpt>
      <trkpt lat="48.529442" lon="1.578934">
        <ele>109.998633</ele>
        <time>2025-06-26T04:55:03.312Z</time>
      </trkpt>
      <trkpt lat="48.530277" lon="1.579744">
        <ele>109.517888</ele>
        <time>2025-06-26T04:55:17.480Z</time>
      </trkpt>
      <trkpt lat="48.530863" lon="1.580157">
        <ele>109.182543</ele>
        <time>2025-06-26T04:55:26.061Z</time>
      </trkpt>
      <trkpt lat="48.531297" lon="1.580366">
        <ele>108.946320</ele>
        <time>2025-06-26T04:55:31.757Z</time>
      </trkpt>
      <trkpt lat="48.531758" lon="1.580489">
        <ele>108.668485</ele>
        <time>2025-06-26T04:55:37.504Z</time>
      </trkpt>
      <trkpt lat="48.532153" lon="1.580527">
        <ele>108.425550</ele>
        <time>2025-06-26T04:55:42.395Z</time>
      </trkpt>
      <trkpt lat="48.532572" lon="1.580505">
        <ele>108.168220</ele>
        <time>2025-06-26T04:55:47.794Z</time>
      </trkpt>
      <trkpt lat="48.532952" lon="1.580597">
        <ele>107.932004</ele>
        <time>2025-06-26T04:55:52.994Z</time>
      </trkpt>
      <trkpt lat="48.533453" lon="1.580860">
        <ele>107.733350</ele>
        <time>2025-06-26T04:56:00.501Z</time>
      </trkpt>
      <trkpt lat="48.533829" lon="1.581106">
        <ele>107.655160</ele>
        <time>2025-06-26T04:56:06.437Z</time>
      </trkpt>
      <trkpt lat="48.534078" lon="1.581203">
        <ele>107.606092</ele>
        <time>2025-06-26T04:56:10.137Z</time>
      </trkpt>
      <trkpt lat="48.534373" lon="1.581187">
        <ele>107.549766</ele>
        <time>2025-06-26T04:56:14.329Z</time>
      </trkpt>
      <trkpt lat="48.534685" lon="1.581235">
        <ele>107.489924</ele>
        <time>2025-06-26T04:56:18.728Z</time>
      </trkpt>
      <trkpt lat="48.534891" lon="1.581326">
        <ele>107.448969</ele>
        <time>2025-06-26T04:56:21.669Z</time>
      </trkpt>
      <trkpt lat="48.535204" lon="1.581391">
        <ele>107.451537</ele>
        <time>2025-06-26T04:56:26.082Z</time>
      </trkpt>
      <trkpt lat="48.535467" lon="1.581364">
        <ele>107.455088</ele>
        <time>2025-06-26T04:56:29.931Z</time>
      </trkpt>
      <trkpt lat="48.535742" lon="1.581422">
        <ele>107.458828</ele>
        <time>2025-06-26T04:56:34.042Z</time>
      </trkpt>
      <trkpt lat="48.535934" lon="1.581333">
        <ele>107.461534</ele>
        <time>2025-06-26T04:56:37.033Z</time>
      </trkpt>
      <trkpt lat="48.535989" lon="1.581354">
        <ele>107.462298</ele>
        <time>2025-06-26T04:56:37.885Z</time>
      </trkpt>
      <trkpt lat="48.536443" lon="1.581617">
        <ele>107.468848</ele>
        <time>2025-06-26T04:56:45.310Z</time>
      </trkpt>
      <trkpt lat="48.536793" lon="1.581850">
        <ele>107.524843</ele>
        <time>2025-06-26T04:56:51.337Z</time>
      </trkpt>
      <trkpt lat="48.537332" lon="1.582356">
        <ele>107.716071</ele>
        <time>2025-06-26T04:57:01.685Z</time>
      </trkpt>
      <trkpt lat="48.538062" lon="1.582978">
        <ele>107.968622</ele>
        <time>2025-06-26T04:57:15.209Z</time>
      </trkpt>
      <trkpt lat="48.538577" lon="1.583319">
        <ele>107.950643</ele>
        <time>2025-06-26T04:57:24.249Z</time>
      </trkpt>
      <trkpt lat="48.539720" lon="1.584086">
        <ele>107.760098</ele>
        <time>2025-06-26T04:57:41.906Z</time>
      </trkpt>
      <trkpt lat="48.539934" lon="1.584247">
        <ele>107.699986</ele>
        <time>2025-06-26T04:57:44.929Z</time>
      </trkpt>
      <trkpt lat="48.540109" lon="1.584379">
        <ele>107.625752</ele>
        <time>2025-06-26T04:57:47.422Z</time>
      </trkpt>
      <trkpt lat="48.540308" lon="1.584469">
        <ele>107.546920</ele>
        <time>2025-06-26T04:57:50.080Z</time>
      </trkpt>
      <trkpt lat="48.540707" lon="1.584594">
        <ele>107.392277</ele>
        <time>2025-06-26T04:57:55.305Z</time>
      </trkpt>
      <trkpt lat="48.540849" lon="1.584578">
        <ele>107.338239</ele>
        <time>2025-06-26T04:57:57.135Z</time>
      </trkpt>
      <trkpt lat="48.540990" lon="1.584615">
        <ele>107.283929</ele>
        <time>2025-06-26T04:57:59.000Z</time>
      </trkpt>
      <trkpt lat="48.544074" lon="1.585722">
        <ele>107.144116</ele>
        <time>2025-06-26T04:58:46.597Z</time>
      </trkpt>
      <trkpt lat="48.544382" lon="1.585807">
        <ele>107.140784</ele>
        <time>2025-06-26T04:58:51.660Z</time>
      </trkpt>
      <trkpt lat="48.544663" lon="1.585923">
        <ele>107.137683</ele>
        <time>2025-06-26T04:58:56.015Z</time>
      </trkpt>
      <trkpt lat="48.545005" lon="1.586037">
        <ele>107.133956</ele>
        <time>2025-06-26T04:59:01.047Z</time>
      </trkpt>
      <trkpt lat="48.545338" lon="1.586093">
        <ele>106.949697</ele>
        <time>2025-06-26T04:59:05.721Z</time>
      </trkpt>
      <trkpt lat="48.545408" lon="1.586105">
        <ele>106.900780</ele>
        <time>2025-06-26T04:59:06.686Z</time>
      </trkpt>
      <trkpt lat="48.545522" lon="1.586190">
        <ele>106.812505</ele>
        <time>2025-06-26T04:59:08.384Z</time>
      </trkpt>
      <trkpt lat="48.545587" lon="1.586230">
        <ele>106.763771</ele>
        <time>2025-06-26T04:59:09.298Z</time>
      </trkpt>
      <trkpt lat="48.547798" lon="1.587010">
        <ele>105.144534</ele>
        <time>2025-06-26T04:59:37.562Z</time>
      </trkpt>
      <trkpt lat="48.547873" lon="1.587019">
        <ele>105.089093</ele>
        <time>2025-06-26T04:59:38.510Z</time>
      </trkpt>
      <trkpt lat="48.547971" lon="1.586960">
        <ele>105.011353</ele>
        <time>2025-06-26T04:59:39.834Z</time>
      </trkpt>
      <trkpt lat="48.548070" lon="1.587070">
        <ele>104.920792</ele>
        <time>2025-06-26T04:59:41.396Z</time>
      </trkpt>
      <trkpt lat="48.548143" lon="1.587126">
        <ele>104.860459</ele>
        <time>2025-06-26T04:59:42.446Z</time>
      </trkpt>
      <trkpt lat="48.548613" lon="1.587307">
        <ele>104.564193</ele>
        <time>2025-06-26T04:59:48.751Z</time>
      </trkpt>
      <trkpt lat="48.548896" lon="1.587440">
        <ele>104.584909</ele>
        <time>2025-06-26T04:59:52.706Z</time>
      </trkpt>
      <trkpt lat="48.549876" lon="1.588102">
        <ele>104.659945</ele>
        <time>2025-06-26T05:00:09.425Z</time>
      </trkpt>
      <trkpt lat="48.550359" lon="1.588253">
        <ele>104.734254</ele>
        <time>2025-06-26T05:00:17.847Z</time>
      </trkpt>
      <trkpt lat="48.550863" lon="1.588349">
        <ele>104.914001</ele>
        <time>2025-06-26T05:00:25.792Z</time>
      </trkpt>
      <trkpt lat="48.551274" lon="1.588367">
        <ele>105.059491</ele>
        <time>2025-06-26T05:00:32.454Z</time>
      </trkpt>
      <trkpt lat="48.551580" lon="1.588336">
        <ele>105.168009</ele>
        <time>2025-06-26T05:00:37.348Z</time>
      </trkpt>
      <trkpt lat="48.551842" lon="1.588310">
        <ele>105.260916</ele>
        <time>2025-06-26T05:00:41.461Z</time>
      </trkpt>
      <trkpt lat="48.551877" lon="1.588349">
        <ele>105.276304</ele>
        <time>2025-06-26T05:00:42.175Z</time>
      </trkpt>
      <trkpt lat="48.551843" lon="1.588676">
        <ele>105.531430</ele>
        <time>2025-06-26T05:00:45.646Z</time>
      </trkpt>
      <trkpt lat="48.551679" lon="1.589122">
        <ele>106.298240</ele>
        <time>2025-06-26T05:00:51.380Z</time>
      </trkpt>
      <trkpt lat="48.551378" lon="1.589793">
        <ele>107.516499</ele>
        <time>2025-06-26T05:01:02.955Z</time>
      </trkpt>
      <trkpt lat="48.551239" lon="1.590119">
        <ele>108.099321</ele>
        <time>2025-06-26T05:01:09.472Z</time>
      </trkpt>
      <trkpt lat="48.550991" lon="1.590827">
        <ele>109.303243</ele>
        <time>2025-06-26T05:01:25.182Z</time>
      </trkpt>
      <trkpt lat="48.550813" lon="1.591471">
        <ele>111.208402</ele>
        <time>2025-06-26T05:01:40.391Z</time>
      </trkpt>
      <trkpt lat="48.550735" lon="1.591943">
        <ele>112.600558</ele>
        <time>2025-06-26T05:01:51.548Z</time>
      </trkpt>
      <trkpt lat="48.550744" lon="1.592080">
        <ele>112.994531</ele>
        <time>2025-06-26T05:01:54.681Z</time>
      </trkpt>
      <trkpt lat="48.550770" lon="1.592480">
        <ele>114.144699</ele>
        <time>2025-06-26T05:02:03.890Z</time>
      </trkpt>
      <trkpt lat="48.551048" lon="1.593902">
        <ele>117.844312</ele>
        <time>2025-06-26T05:02:34.871Z</time>
      </trkpt>
      <trkpt lat="48.551057" lon="1.593966">
        <ele>117.947261</ele>
        <time>2025-06-26T05:02:36.052Z</time>
      </trkpt>
      <trkpt lat="48.551075" lon="1.594191">
        <ele>118.303869</ele>
        <time>2025-06-26T05:02:40.080Z</time>
      </trkpt>
      <trkpt lat="48.551055" lon="1.594422">
        <ele>118.670436</ele>
        <time>2025-06-26T05:02:44.083Z</time>
      </trkpt>
      <trkpt lat="48.550962" lon="1.594894">
        <ele>119.445318</ele>
        <time>2025-06-26T05:02:52.188Z</time>
      </trkpt>
      <trkpt lat="48.550941" lon="1.595151">
        <ele>119.852770</ele>
        <time>2025-06-26T05:02:56.221Z</time>
      </trkpt>
      <trkpt lat="48.550934" lon="1.596642">
        <ele>121.592243</ele>
        <time>2025-06-26T05:03:15.826Z</time>
      </trkpt>
      <trkpt lat="48.550976" lon="1.598434">
        <ele>122.109837</ele>
        <time>2025-06-26T05:03:33.984Z</time>
      </trkpt>
      <trkpt lat="48.551026" lon="1.599067">
        <ele>122.351395</ele>
        <time>2025-06-26T05:03:40.432Z</time>
      </trkpt>
      <trkpt lat="48.551140" lon="1.599732">
        <ele>122.762663</ele>
        <time>2025-06-26T05:03:47.975Z</time>
      </trkpt>
      <trkpt lat="48.551481" lon="1.601792">
        <ele>124.349471</ele>
        <time>2025-06-26T05:04:15.232Z</time>
      </trkpt>
      <trkpt lat="48.551554" lon="1.602100">
        <ele>124.915590</ele>
        <time>2025-06-26T05:04:19.922Z</time>
      </trkpt>
      <trkpt lat="48.551665" lon="1.602565">
        <ele>125.770978</ele>
        <time>2025-06-26T05:04:27.167Z</time>
      </trkpt>
      <trkpt lat="48.552219" lon="1.604260">
        <ele>129.380744</ele>
        <time>2025-06-26T05:05:01.649Z</time>
      </trkpt>
      <trkpt lat="48.552375" lon="1.604517">
        <ele>130.415984</ele>
        <time>2025-06-26T05:05:09.482Z</time>
      </trkpt>
      <trkpt lat="48.552915" lon="1.605247">
        <ele>133.666057</ele>
        <time>2025-06-26T05:05:34.824Z</time>
      </trkpt>
      <trkpt lat="48.553142" lon="1.605601">
        <ele>135.129310</ele>
        <time>2025-06-26T05:05:46.445Z</time>
      </trkpt>
      <trkpt lat="48.553512" lon="1.606363">
        <ele>137.356657</ele>
        <time>2025-06-26T05:06:06.842Z</time>
      </trkpt>
      <trkpt lat="48.553832" lon="1.607101">
        <ele>138.809581</ele>
        <time>2025-06-26T05:06:23.019Z</time>
      </trkpt>
      <trkpt lat="48.554726" lon="1.609120">
        <ele>139.948367</ele>
        <time>2025-06-26T05:06:54.966Z</time>
      </trkpt>
      <trkpt lat="48.554932" lon="1.609721">
        <ele>139.185368</ele>
        <time>2025-06-26T05:06:59.899Z</time>
      </trkpt>
      <trkpt lat="48.555245" lon="1.610998">
        <ele>136.565961</ele>
        <time>2025-06-26T05:07:08.600Z</time>
      </trkpt>
      <trkpt lat="48.555344" lon="1.611201">
        <ele>135.506453</ele>
        <time>2025-06-26T05:07:10.142Z</time>
      </trkpt>
      <trkpt lat="48.555500" lon="1.611384">
        <ele>134.252653</ele>
        <time>2025-06-26T05:07:11.943Z</time>
      </trkpt>
      <trkpt lat="48.555728" lon="1.611566">
        <ele>132.615650</ele>
        <time>2025-06-26T05:07:14.278Z</time>
      </trkpt>
      <trkpt lat="48.556551" lon="1.612092">
        <ele>126.942805</ele>
        <time>2025-06-26T05:07:22.289Z</time>
      </trkpt>
      <trkpt lat="48.556807" lon="1.612339">
        <ele>125.017947</ele>
        <time>2025-06-26T05:07:24.996Z</time>
      </trkpt>
      <trkpt lat="48.557297" lon="1.613004">
        <ele>120.845462</ele>
        <time>2025-06-26T05:07:30.919Z</time>
      </trkpt>
      <trkpt lat="48.558206" lon="1.614077">
        <ele>114.192103</ele>
        <time>2025-06-26T05:07:41.562Z</time>
      </trkpt>
      <trkpt lat="48.558838" lon="1.615343">
        <ele>110.105479</ele>
        <time>2025-06-26T05:07:51.723Z</time>
      </trkpt>
      <trkpt lat="48.558880" lon="1.615557">
        <ele>109.530245</ele>
        <time>2025-06-26T05:07:53.247Z</time>
      </trkpt>
      <trkpt lat="48.558890" lon="1.615740">
        <ele>109.057033</ele>
        <time>2025-06-26T05:07:54.512Z</time>
      </trkpt>
      <trkpt lat="48.558912" lon="1.615920">
        <ele>108.585315</ele>
        <time>2025-06-26T05:07:55.801Z</time>
      </trkpt>
      <trkpt lat="48.558856" lon="1.616041">
        <ele>108.229768</ele>
        <time>2025-06-26T05:07:56.866Z</time>
      </trkpt>
      <trkpt lat="48.558751" lon="1.616472">
        <ele>108.134769</ele>
        <time>2025-06-26T05:08:00.326Z</time>
      </trkpt>
      <trkpt lat="48.558288" lon="1.617269">
        <ele>107.915415</ele>
        <time>2025-06-26T05:08:09.899Z</time>
      </trkpt>
      <trkpt lat="48.558014" lon="1.617742">
        <ele>107.785393</ele>
        <time>2025-06-26T05:08:17.064Z</time>
      </trkpt>
      <trkpt lat="48.557498" lon="1.618877">
        <ele>108.265581</ele>
        <time>2025-06-26T05:08:33.772Z</time>
      </trkpt>
      <trkpt lat="48.557098" lon="1.619834">
        <ele>109.089696</ele>
        <time>2025-06-26T05:08:48.313Z</time>
      </trkpt>
      <trkpt lat="48.557024" lon="1.619962">
        <ele>109.213442</ele>
        <time>2025-06-26T05:08:50.553Z</time>
      </trkpt>
      <trkpt lat="48.556902" lon="1.620087">
        <ele>109.375602</ele>
        <time>2025-06-26T05:08:53.501Z</time>
      </trkpt>
      <trkpt lat="48.556826" lon="1.620143">
        <ele>109.468622</ele>
        <time>2025-06-26T05:08:55.205Z</time>
      </trkpt>
      <trkpt lat="48.556586" lon="1.620342">
        <ele>109.703798</ele>
        <time>2025-06-26T05:09:00.806Z</time>
      </trkpt>
      <trkpt lat="48.556138" lon="1.620973">
        <ele>110.011060</ele>
        <time>2025-06-26T05:09:13.248Z</time>
      </trkpt>
      <trkpt lat="48.555829" lon="1.621336">
        <ele>110.207422</ele>
        <time>2025-06-26T05:09:20.114Z</time>
      </trkpt>
      <trkpt lat="48.555627" lon="1.621527">
        <ele>110.326968</ele>
        <time>2025-06-26T05:09:23.773Z</time>
      </trkpt>
      <trkpt lat="48.555417" lon="1.621648">
        <ele>110.439720</ele>
        <time>2025-06-26T05:09:26.864Z</time>
      </trkpt>
      <trkpt lat="48.555120" lon="1.621743">
        <ele>110.535816</ele>
        <time>2025-06-26T05:09:30.714Z</time>
      </trkpt>
      <trkpt lat="48.554186" lon="1.621901">
        <ele>110.364471</ele>
        <time>2025-06-26T05:09:42.254Z</time>
      </trkpt>
      <trkpt lat="48.553884" lon="1.622005">
        <ele>110.308000</ele>
        <time>2025-06-26T05:09:46.692Z</time>
      </trkpt>
      <trkpt lat="48.553239" lon="1.622279">
        <ele>110.487409</ele>
        <time>2025-06-26T05:09:58.748Z</time>
      </trkpt>
      <trkpt lat="48.552941" lon="1.622466">
        <ele>110.907649</ele>
        <time>2025-06-26T05:10:05.735Z</time>
      </trkpt>
      <trkpt lat="48.550888" lon="1.623495">
        <ele>112.597697</ele>
        <time>2025-06-26T05:10:50.133Z</time>
      </trkpt>
      <trkpt lat="48.550427" lon="1.623837">
        <ele>112.616389</ele>
        <time>2025-06-26T05:10:56.678Z</time>
      </trkpt>
      <trkpt lat="48.550036" lon="1.624259">
        <ele>112.496694</ele>
        <time>2025-06-26T05:11:02.093Z</time>
      </trkpt>
      <trkpt lat="48.549810" lon="1.624581">
        <ele>112.010647</ele>
        <time>2025-06-26T05:11:05.441Z</time>
      </trkpt>
      <trkpt lat="48.549456" lon="1.625395">
        <ele>111.001940</ele>
        <time>2025-06-26T05:11:12.388Z</time>
      </trkpt>
      <trkpt lat="48.550934" lon="1.627611">
        <ele>109.155286</ele>
        <time>2025-06-26T05:11:38.152Z</time>
      </trkpt>
      <trkpt lat="48.551069" lon="1.627799">
        <ele>109.063622</ele>
        <time>2025-06-26T05:11:41.179Z</time>
      </trkpt>
      <trkpt lat="48.551150" lon="1.627845">
        <ele>109.020420</ele>
        <time>2025-06-26T05:11:42.625Z</time>
      </trkpt>
      <trkpt lat="48.551307" lon="1.627937">
        <ele>108.936350</ele>
        <time>2025-06-26T05:11:45.431Z</time>
      </trkpt>
      <trkpt lat="48.551346" lon="1.627956">
        <ele>108.927031</ele>
        <time>2025-06-26T05:11:46.125Z</time>
      </trkpt>
      <trkpt lat="48.551939" lon="1.628304">
        <ele>109.855047</ele>
        <time>2025-06-26T05:11:56.880Z</time>
      </trkpt>
      <trkpt lat="48.552053" lon="1.628356">
        <ele>110.028760</ele>
        <time>2025-06-26T05:11:59.103Z</time>
      </trkpt>
      <trkpt lat="48.552138" lon="1.628388">
        <ele>110.156546</ele>
        <time>2025-06-26T05:12:00.809Z</time>
      </trkpt>
      <trkpt lat="48.552287" lon="1.628619">
        <ele>110.467988</ele>
        <time>2025-06-26T05:12:05.016Z</time>
      </trkpt>
      <trkpt lat="48.552408" lon="1.629168">
        <ele>111.026716</ele>
        <time>2025-06-26T05:12:13.057Z</time>
      </trkpt>
      <trkpt lat="48.552436" lon="1.629317">
        <ele>111.176276</ele>
        <time>2025-06-26T05:12:15.335Z</time>
      </trkpt>
      <trkpt lat="48.552500" lon="1.629488">
        <ele>111.365959</ele>
        <time>2025-06-26T05:12:18.343Z</time>
      </trkpt>
      <trkpt lat="48.553171" lon="1.630667">
        <ele>116.131668</ele>
        <time>2025-06-26T05:12:50.144Z</time>
      </trkpt>
      <trkpt lat="48.554197" lon="1.632487">
        <ele>123.793914</ele>
        <time>2025-06-26T05:13:55.046Z</time>
      </trkpt>
      <trkpt lat="48.554595" lon="1.633088">
        <ele>126.366003</ele>
        <time>2025-06-26T05:14:14.234Z</time>
      </trkpt>
      <trkpt lat="48.556051" lon="1.634708">
        <ele>130.832610</ele>
        <time>2025-06-26T05:14:55.212Z</time>
      </trkpt>
      <trkpt lat="48.556385" lon="1.635180">
        <ele>131.548919</ele>
        <time>2025-06-26T05:15:03.286Z</time>
      </trkpt>
      <trkpt lat="48.556676" lon="1.635727">
        <ele>131.809805</ele>
        <time>2025-06-26T05:15:11.112Z</time>
      </trkpt>
      <trkpt lat="48.557137" lon="1.636897">
        <ele>132.135893</ele>
        <time>2025-06-26T05:15:25.407Z</time>
      </trkpt>
      <trkpt lat="48.557467" lon="1.637819">
        <ele>132.323279</ele>
        <time>2025-06-26T05:15:36.283Z</time>
      </trkpt>
      <trkpt lat="48.558034" lon="1.639457">
        <ele>132.342328</ele>
        <time>2025-06-26T05:15:55.077Z</time>
      </trkpt>
      <trkpt lat="48.558205" lon="1.639848">
        <ele>132.347157</ele>
        <time>2025-06-26T05:15:59.546Z</time>
      </trkpt>
      <trkpt lat="48.559126" lon="1.641918">
        <ele>131.526137</ele>
        <time>2025-06-26T05:16:21.156Z</time>
      </trkpt>
      <trkpt lat="48.559857" lon="1.643635">
        <ele>130.667509</ele>
        <time>2025-06-26T05:16:38.413Z</time>
      </trkpt>
      <trkpt lat="48.560595" lon="1.646081">
        <ele>129.280862</ele>
        <time>2025-06-26T05:17:01.768Z</time>
      </trkpt>
      <trkpt lat="48.561412" lon="1.648452">
        <ele>128.041542</ele>
        <time>2025-06-26T05:17:22.553Z</time>
      </trkpt>
      <trkpt lat="48.561675" lon="1.649093">
        <ele>127.741485</ele>
        <time>2025-06-26T05:17:29.836Z</time>
      </trkpt>
      <trkpt lat="48.561859" lon="1.649428">
        <ele>127.647342</ele>
        <time>2025-06-26T05:17:34.740Z</time>
      </trkpt>
      <trkpt lat="48.562328" lon="1.650265">
        <ele>128.140685</ele>
        <time>2025-06-26T05:17:48.854Z</time>
      </trkpt>
      <trkpt lat="48.563045" lon="1.651939">
        <ele>128.549616</ele>
        <time>2025-06-26T05:18:12.267Z</time>
      </trkpt>
      <trkpt lat="48.563343" lon="1.652743">
        <ele>127.999447</ele>
        <time>2025-06-26T05:18:19.723Z</time>
      </trkpt>
      <trkpt lat="48.563705" lon="1.654009">
        <ele>127.200035</ele>
        <time>2025-06-26T05:18:29.986Z</time>
      </trkpt>
      <trkpt lat="48.563918" lon="1.654503">
        <ele>127.136425</ele>
        <time>2025-06-26T05:18:34.534Z</time>
      </trkpt>
      <trkpt lat="48.564330" lon="1.655189">
        <ele>127.036480</ele>
        <time>2025-06-26T05:18:42.653Z</time>
      </trkpt>
      <trkpt lat="48.564572" lon="1.655640">
        <ele>126.973839</ele>
        <time>2025-06-26T05:18:48.969Z</time>
      </trkpt>
      <trkpt lat="48.564728" lon="1.656011">
        <ele>126.926417</ele>
        <time>2025-06-26T05:18:54.315Z</time>
      </trkpt>
      <trkpt lat="48.564865" lon="1.656388">
        <ele>127.247056</ele>
        <time>2025-06-26T05:18:59.816Z</time>
      </trkpt>
      <trkpt lat="48.565291" lon="1.657853">
        <ele>129.049622</ele>
        <time>2025-06-26T05:19:24.724Z</time>
      </trkpt>
      <trkpt lat="48.565405" lon="1.658259">
        <ele>129.546431</ele>
        <time>2025-06-26T05:19:31.443Z</time>
      </trkpt>
      <trkpt lat="48.565594" lon="1.659073">
        <ele>129.799047</ele>
        <time>2025-06-26T05:19:43.463Z</time>
      </trkpt>
      <trkpt lat="48.565775" lon="1.659989">
        <ele>129.453459</ele>
        <time>2025-06-26T05:19:52.543Z</time>
      </trkpt>
      <trkpt lat="48.565815" lon="1.660290">
        <ele>129.342473</ele>
        <time>2025-06-26T05:19:54.889Z</time>
      </trkpt>
      <trkpt lat="48.565922" lon="1.661105">
        <ele>129.042103</ele>
        <time>2025-06-26T05:20:00.981Z</time>
      </trkpt>
      <trkpt lat="48.566018" lon="1.662471">
        <ele>127.802387</ele>
        <time>2025-06-26T05:20:10.770Z</time>
      </trkpt>
      <trkpt lat="48.566009" lon="1.664126">
        <ele>126.337956</ele>
        <time>2025-06-26T05:20:24.173Z</time>
      </trkpt>
      <trkpt lat="48.565896" lon="1.665798">
        <ele>126.017727</ele>
        <time>2025-06-26T05:20:40.295Z</time>
      </trkpt>
      <trkpt lat="48.565787" lon="1.666977">
        <ele>126.011017</ele>
        <time>2025-06-26T05:20:51.286Z</time>
      </trkpt>
      <trkpt lat="48.565879" lon="1.666995">
        <ele>126.079805</ele>
        <time>2025-06-26T05:20:52.492Z</time>
      </trkpt>
      <trkpt lat="48.566493" lon="1.667307">
        <ele>126.560145</ele>
        <time>2025-06-26T05:21:01.541Z</time>
      </trkpt>
      <trkpt lat="48.566533" lon="1.667323">
        <ele>126.590827</ele>
        <time>2025-06-26T05:21:02.250Z</time>
      </trkpt>
      <trkpt lat="48.566554" lon="1.667331">
        <ele>126.606886</ele>
        <time>2025-06-26T05:21:02.618Z</time>
      </trkpt>
      <trkpt lat="48.566892" lon="1.667388">
        <ele>126.859073</ele>
        <time>2025-06-26T05:21:09.141Z</time>
      </trkpt>
      <trkpt lat="48.566992" lon="1.667402">
        <ele>126.933542</ele>
        <time>2025-06-26T05:21:11.269Z</time>
      </trkpt>
      <trkpt lat="48.566994" lon="1.667485">
        <ele>126.974296</ele>
        <time>2025-06-26T05:21:12.457Z</time>
      </trkpt>
      <trkpt lat="48.567014" lon="1.667658">
        <ele>127.060472</ele>
        <time>2025-06-26T05:21:15.075Z</time>
      </trkpt>
      <trkpt lat="48.567095" lon="1.667937">
        <ele>127.330426</ele>
        <time>2025-06-26T05:21:19.886Z</time>
      </trkpt>
      <trkpt lat="48.567153" lon="1.668243">
        <ele>128.277564</ele>
        <time>2025-06-26T05:21:25.274Z</time>
      </trkpt>
      <trkpt lat="48.567154" lon="1.668506">
        <ele>129.060151</ele>
        <time>2025-06-26T05:21:29.955Z</time>
      </trkpt>
      <trkpt lat="48.567114" lon="1.668685">
        <ele>129.622327</ele>
        <time>2025-06-26T05:21:33.514Z</time>
      </trkpt>
      <trkpt lat="48.567057" lon="1.668872">
        <ele>130.234951</ele>
        <time>2025-06-26T05:21:37.526Z</time>
      </trkpt>
      <trkpt lat="48.566839" lon="1.669387">
        <ele>132.054076</ele>
        <time>2025-06-26T05:21:50.413Z</time>
      </trkpt>
      <trkpt lat="48.566299" lon="1.670580">
        <ele>136.877093</ele>
        <time>2025-06-26T05:22:27.998Z</time>
      </trkpt>
      <trkpt lat="48.566118" lon="1.671036">
        <ele>139.223545</ele>
        <time>2025-06-26T05:22:43.609Z</time>
      </trkpt>
      <trkpt lat="48.566107" lon="1.671232">
        <ele>140.091558</ele>
        <time>2025-06-26T05:22:49.584Z</time>
      </trkpt>
      <trkpt lat="48.566157" lon="1.671402">
        <ele>140.912490</ele>
        <time>2025-06-26T05:22:55.361Z</time>
      </trkpt>
      <trkpt lat="48.566689" lon="1.672208">
        <ele>145.935948</ele>
        <time>2025-06-26T05:23:29.107Z</time>
      </trkpt>
      <trkpt lat="48.566932" lon="1.672688">
        <ele>147.746993</ele>
        <time>2025-06-26T05:23:43.745Z</time>
      </trkpt>
      <trkpt lat="48.566934" lon="1.672691">
        <ele>147.753738</ele>
        <time>2025-06-26T05:23:43.832Z</time>
      </trkpt>
      <trkpt lat="48.567159" lon="1.673336">
        <ele>148.908580</ele>
        <time>2025-06-26T05:23:57.157Z</time>
      </trkpt>
      <trkpt lat="48.567364" lon="1.674354">
        <ele>150.593947</ele>
        <time>2025-06-26T05:24:11.535Z</time>
      </trkpt>
      <trkpt lat="48.567461" lon="1.675192">
        <ele>151.626590</ele>
        <time>2025-06-26T05:24:20.732Z</time>
      </trkpt>
      <trkpt lat="48.567522" lon="1.676033">
        <ele>151.822081</ele>
        <time>2025-06-26T05:24:29.742Z</time>
      </trkpt>
      <trkpt lat="48.567477" lon="1.676827">
        <ele>152.006220</ele>
        <time>2025-06-26T05:24:38.010Z</time>
      </trkpt>
      <trkpt lat="48.567519" lon="1.677208">
        <ele>152.095470</ele>
        <time>2025-06-26T05:24:41.985Z</time>
      </trkpt>
      <trkpt lat="48.567616" lon="1.677780">
        <ele>152.267259</ele>
        <time>2025-06-26T05:24:48.261Z</time>
      </trkpt>
      <trkpt lat="48.567657" lon="1.677867">
        <ele>152.320051</ele>
        <time>2025-06-26T05:24:49.426Z</time>
      </trkpt>
      <trkpt lat="48.567901" lon="1.678246">
        <ele>152.581405</ele>
        <time>2025-06-26T05:24:55.447Z</time>
      </trkpt>
      <trkpt lat="48.567964" lon="1.678640">
        <ele>152.781749</ele>
        <time>2025-06-26T05:25:00.268Z</time>
      </trkpt>
      <trkpt lat="48.567985" lon="1.679740">
        <ele>153.325664</ele>
        <time>2025-06-26T05:25:13.813Z</time>
      </trkpt>
      <trkpt lat="48.567981" lon="1.680877">
        <ele>153.814798</ele>
        <time>2025-06-26T05:25:27.781Z</time>
      </trkpt>
      <trkpt lat="48.567924" lon="1.681843">
        <ele>154.192436</ele>
        <time>2025-06-26T05:25:38.665Z</time>
      </trkpt>
      <trkpt lat="48.567797" lon="1.682368">
        <ele>154.410094</ele>
        <time>2025-06-26T05:25:44.717Z</time>
      </trkpt>
      <trkpt lat="48.567577" lon="1.682883">
        <ele>154.644159</ele>
        <time>2025-06-26T05:25:51.319Z</time>
      </trkpt>
      <trkpt lat="48.567406" lon="1.683495">
        <ele>154.876876</ele>
        <time>2025-06-26T05:25:58.607Z</time>
      </trkpt>
      <trkpt lat="48.567193" lon="1.684568">
        <ele>155.269307</ele>
        <time>2025-06-26T05:26:11.293Z</time>
      </trkpt>
      <trkpt lat="48.567165" lon="1.685147">
        <ele>155.472678</ele>
        <time>2025-06-26T05:26:17.939Z</time>
      </trkpt>
      <trkpt lat="48.567229" lon="1.685447">
        <ele>155.559968</ele>
        <time>2025-06-26T05:26:21.524Z</time>
      </trkpt>
      <trkpt lat="48.567200" lon="1.685844">
        <ele>155.585244</ele>
        <time>2025-06-26T05:26:26.012Z</time>
      </trkpt>
      <trkpt lat="48.566718" lon="1.687389">
        <ele>155.693338</ele>
        <time>2025-06-26T05:26:43.284Z</time>
      </trkpt>
      <trkpt lat="48.566696" lon="1.687647">
        <ele>155.709801</ele>
        <time>2025-06-26T05:26:45.621Z</time>
      </trkpt>
      <trkpt lat="48.566753" lon="1.687872">
        <ele>155.725047</ele>
        <time>2025-06-26T05:26:47.791Z</time>
      </trkpt>
      <trkpt lat="48.566867" lon="1.688065">
        <ele>155.717694</ele>
        <time>2025-06-26T05:26:50.121Z</time>
      </trkpt>
      <trkpt lat="48.566938" lon="1.688366">
        <ele>155.704927</ele>
        <time>2025-06-26T05:26:52.999Z</time>
      </trkpt>
      <trkpt lat="48.566909" lon="1.688666">
        <ele>155.692813</ele>
        <time>2025-06-26T05:26:55.744Z</time>
      </trkpt>
      <trkpt lat="48.566789" lon="1.689127">
        <ele>155.673020</ele>
        <time>2025-06-26T05:27:00.239Z</time>
      </trkpt>
      <trkpt lat="48.566192" lon="1.690769">
        <ele>155.531004</ele>
        <time>2025-06-26T05:27:19.549Z</time>
      </trkpt>
      <trkpt lat="48.565915" lon="1.691198">
        <ele>155.427093</ele>
        <time>2025-06-26T05:27:26.069Z</time>
      </trkpt>
      <trkpt lat="48.565574" lon="1.691842">
        <ele>155.284104</ele>
        <time>2025-06-26T05:27:33.893Z</time>
      </trkpt>
      <trkpt lat="48.565518" lon="1.692057">
        <ele>155.244046</ele>
        <time>2025-06-26T05:27:35.881Z</time>
      </trkpt>
      <trkpt lat="48.565532" lon="1.692314">
        <ele>155.199340</ele>
        <time>2025-06-26T05:27:38.025Z</time>
      </trkpt>
      <trkpt lat="48.565617" lon="1.692604">
        <ele>155.128695</ele>
        <time>2025-06-26T05:27:40.563Z</time>
      </trkpt>
      <trkpt lat="48.565617" lon="1.693097">
        <ele>154.551305</ele>
        <time>2025-06-26T05:27:44.367Z</time>
      </trkpt>
      <trkpt lat="48.565603" lon="1.693483">
        <ele>154.098552</ele>
        <time>2025-06-26T05:27:47.247Z</time>
      </trkpt>
      <trkpt lat="48.565532" lon="1.693988">
        <ele>153.493906</ele>
        <time>2025-06-26T05:27:50.993Z</time>
      </trkpt>
      <trkpt lat="48.565269" lon="1.694921">
        <ele>152.306191</ele>
        <time>2025-06-26T05:27:58.329Z</time>
      </trkpt>
      <trkpt lat="48.564992" lon="1.695639">
        <ele>151.265973</ele>
        <time>2025-06-26T05:28:04.382Z</time>
      </trkpt>
      <trkpt lat="48.564786" lon="1.696037">
        <ele>150.611516</ele>
        <time>2025-06-26T05:28:08.050Z</time>
      </trkpt>
      <trkpt lat="48.564250" lon="1.697979">
        <ele>148.280395</ele>
        <time>2025-06-26T05:28:23.301Z</time>
      </trkpt>
      <trkpt lat="48.563998" lon="1.698505">
        <ele>148.034292</ele>
        <time>2025-06-26T05:28:28.282Z</time>
      </trkpt>
      <trkpt lat="48.563714" lon="1.698955">
        <ele>147.798626</ele>
        <time>2025-06-26T05:28:33.721Z</time>
      </trkpt>
      <trkpt lat="48.563444" lon="1.699459">
        <ele>147.552873</ele>
        <time>2025-06-26T05:28:40.384Z</time>
      </trkpt>
      <trkpt lat="48.563345" lon="1.699760">
        <ele>147.425483</ele>
        <time>2025-06-26T05:28:44.290Z</time>
      </trkpt>
      <trkpt lat="48.563402" lon="1.699996">
        <ele>147.653903</ele>
        <time>2025-06-26T05:28:47.430Z</time>
      </trkpt>
      <trkpt lat="48.563411" lon="1.700011">
        <ele>147.676095</ele>
        <time>2025-06-26T05:28:47.703Z</time>
      </trkpt>
      <trkpt lat="48.563863" lon="1.700779">
        <ele>148.802569</ele>
        <time>2025-06-26T05:29:01.916Z</time>
      </trkpt>
      <trkpt lat="48.564304" lon="1.701637">
        <ele>149.993276</ele>
        <time>2025-06-26T05:29:18.221Z</time>
      </trkpt>
      <trkpt lat="48.563860" lon="1.701988">
        <ele>150.915792</ele>
        <time>2025-06-26T05:29:29.890Z</time>
      </trkpt>
      <trkpt lat="48.563260" lon="1.702335">
        <ele>152.208508</ele>
        <time>2025-06-26T05:29:45.874Z</time>
      </trkpt>
      <trkpt lat="48.562911" lon="1.702607">
        <ele>152.998668</ele>
        <time>2025-06-26T05:29:55.174Z</time>
      </trkpt>
      <trkpt lat="48.562362" lon="1.703209">
        <ele>154.106634</ele>
        <time>2025-06-26T05:30:09.477Z</time>
      </trkpt>
      <trkpt lat="48.561973" lon="1.703557">
        <ele>154.352428</ele>
        <time>2025-06-26T05:30:18.251Z</time>
      </trkpt>
      <trkpt lat="48.561627" lon="1.703722">
        <ele>154.549700</ele>
        <time>2025-06-26T05:30:24.431Z</time>
      </trkpt>
      <trkpt lat="48.561388" lon="1.703776">
        <ele>154.681093</ele>
        <time>2025-06-26T05:30:28.110Z</time>
      </trkpt>
      <trkpt lat="48.561094" lon="1.703777">
        <ele>154.840945</ele>
        <time>2025-06-26T05:30:32.242Z</time>
      </trkpt>
      <trkpt lat="48.561063" lon="1.704282">
        <ele>154.961496</ele>
        <time>2025-06-26T05:30:36.994Z</time>
      </trkpt>
      <trkpt lat="48.561077" lon="1.704410">
        <ele>154.923125</ele>
        <time>2025-06-26T05:30:38.196Z</time>
      </trkpt>
      <trkpt lat="48.561109" lon="1.704482">
        <ele>154.897474</ele>
        <time>2025-06-26T05:30:38.980Z</time>
      </trkpt>
      <trkpt lat="48.561134" lon="1.704539">
        <ele>154.877250</ele>
        <time>2025-06-26T05:30:39.606Z</time>
      </trkpt>
      <trkpt lat="48.561579" lon="1.704787">
        <ele>154.665289</ele>
        <time>2025-06-26T05:30:45.953Z</time>
      </trkpt>
      <trkpt lat="48.561874" lon="1.704998">
        <ele>154.519433</ele>
        <time>2025-06-26T05:30:50.167Z</time>
      </trkpt>
      <trkpt lat="48.562007" lon="1.705157">
        <ele>154.443644</ele>
        <time>2025-06-26T05:30:52.362Z</time>
      </trkpt>
      <trkpt lat="48.562139" lon="1.705424">
        <ele>154.345077</ele>
        <time>2025-06-26T05:30:55.262Z</time>
      </trkpt>
      <trkpt lat="48.562501" lon="1.706191">
        <ele>154.165475</ele>
        <time>2025-06-26T05:31:03.623Z</time>
      </trkpt>
      <trkpt lat="48.563108" lon="1.707136">
        <ele>154.099549</ele>
        <time>2025-06-26T05:31:16.291Z</time>
      </trkpt>
      <trkpt lat="48.563236" lon="1.707415">
        <ele>154.082554</ele>
        <time>2025-06-26T05:31:19.708Z</time>
      </trkpt>
      <trkpt lat="48.563412" lon="1.707955">
        <ele>154.052420</ele>
        <time>2025-06-26T05:31:25.836Z</time>
      </trkpt>
      <trkpt lat="48.563882" lon="1.710579">
        <ele>153.833673</ele>
        <time>2025-06-26T05:31:52.295Z</time>
      </trkpt>
      <trkpt lat="48.563989" lon="1.711052">
        <ele>153.568634</ele>
        <time>2025-06-26T05:31:56.643Z</time>
      </trkpt>
      <trkpt lat="48.564088" lon="1.711427">
        <ele>153.331733</ele>
        <time>2025-06-26T05:32:00.013Z</time>
      </trkpt>
      <trkpt lat="48.564571" lon="1.712640">
        <ele>152.501080</ele>
        <time>2025-06-26T05:32:10.844Z</time>
      </trkpt>
      <trkpt lat="48.564769" lon="1.713208">
        <ele>152.377736</ele>
        <time>2025-06-26T05:32:15.884Z</time>
      </trkpt>
      <trkpt lat="48.565265" lon="1.714398">
        <ele>153.453421</ele>
        <time>2025-06-26T05:32:32.246Z</time>
      </trkpt>
      <trkpt lat="48.565294" lon="1.714478">
        <ele>153.523189</ele>
        <time>2025-06-26T05:32:33.670Z</time>
      </trkpt>
      <trkpt lat="48.565405" lon="1.714865">
        <ele>153.845798</ele>
        <time>2025-06-26T05:32:40.445Z</time>
      </trkpt>
      <trkpt lat="48.565469" lon="1.715423">
        <ele>154.278955</ele>
        <time>2025-06-26T05:32:50.320Z</time>
      </trkpt>
      <trkpt lat="48.565565" lon="1.717156">
        <ele>156.561087</ele>
        <time>2025-06-26T05:33:19.582Z</time>
      </trkpt>
      <trkpt lat="48.565835" lon="1.718787">
        <ele>158.146059</ele>
        <time>2025-06-26T05:33:40.590Z</time>
      </trkpt>
      <trkpt lat="48.565905" lon="1.719055">
        <ele>158.245418</ele>
        <time>2025-06-26T05:33:43.781Z</time>
      </trkpt>
      <trkpt lat="48.565998" lon="1.719195">
        <ele>158.313826</ele>
        <time>2025-06-26T05:33:45.958Z</time>
      </trkpt>
      <trkpt lat="48.566154" lon="1.719334">
        <ele>158.408200</ele>
        <time>2025-06-26T05:33:48.970Z</time>
      </trkpt>
      <trkpt lat="48.566836" lon="1.719753">
        <ele>158.791851</ele>
        <time>2025-06-26T05:34:00.855Z</time>
      </trkpt>
      <trkpt lat="48.567113" lon="1.719999">
        <ele>158.841873</ele>
        <time>2025-06-26T05:34:05.794Z</time>
      </trkpt>
      <trkpt lat="48.567269" lon="1.720225">
        <ele>158.825716</ele>
        <time>2025-06-26T05:34:09.093Z</time>
      </trkpt>
      <trkpt lat="48.567744" lon="1.721137">
        <ele>158.768294</ele>
        <time>2025-06-26T05:34:20.313Z</time>
      </trkpt>
      <trkpt lat="48.568782" lon="1.722586">
        <ele>158.684210</ele>
        <time>2025-06-26T05:34:39.725Z</time>
      </trkpt>
      <trkpt lat="48.569178" lon="1.723143">
        <ele>158.658427</ele>
        <time>2025-06-26T05:34:47.501Z</time>
      </trkpt>
      <trkpt lat="48.569732" lon="1.723840">
        <ele>158.853234</ele>
        <time>2025-06-26T05:34:59.201Z</time>
      </trkpt>
      <trkpt lat="48.570840" lon="1.725096">
        <ele>160.013672</ele>
        <time>2025-06-26T05:35:25.277Z</time>
      </trkpt>
      <trkpt lat="48.572597" lon="1.727017">
        <ele>162.019694</ele>
        <time>2025-06-26T05:36:05.615Z</time>
      </trkpt>
      <trkpt lat="48.573076" lon="1.727628">
        <ele>162.397235</ele>
        <time>2025-06-26T05:36:17.544Z</time>
      </trkpt>
      <trkpt lat="48.573400" lon="1.728150">
        <ele>162.682480</ele>
        <time>2025-06-26T05:36:26.084Z</time>
      </trkpt>
      <trkpt lat="48.575180" lon="1.730750">
        <ele>162.792010</ele>
        <time>2025-06-26T05:37:01.270Z</time>
      </trkpt>
      <trkpt lat="48.577060" lon="1.733650">
        <ele>163.216239</ele>
        <time>2025-06-26T05:37:42.828Z</time>
      </trkpt>
      <trkpt lat="48.578148" lon="1.735042">
        <ele>163.518211</ele>
        <time>2025-06-26T05:38:06.107Z</time>
      </trkpt>
      <trkpt lat="48.578247" lon="1.735169">
        <ele>163.539856</ele>
        <time>2025-06-26T05:38:08.208Z</time>
      </trkpt>
      <trkpt lat="48.580100" lon="1.737540">
        <ele>162.983130</ele>
        <time>2025-06-26T05:38:43.980Z</time>
      </trkpt>
      <trkpt lat="48.580450" lon="1.737900">
        <ele>162.575966</ele>
        <time>2025-06-26T05:38:48.902Z</time>
      </trkpt>
      <trkpt lat="48.582620" lon="1.739638">
        <ele>154.890086</ele>
        <time>2025-06-26T05:39:14.109Z</time>
      </trkpt>
      <trkpt lat="48.582898" lon="1.739834">
        <ele>153.609649</ele>
        <time>2025-06-26T05:39:17.061Z</time>
      </trkpt>
      <trkpt lat="48.583065" lon="1.739818">
        <ele>152.911160</ele>
        <time>2025-06-26T05:39:18.652Z</time>
      </trkpt>
      <trkpt lat="48.583487" lon="1.739592">
        <ele>151.042371</ele>
        <time>2025-06-26T05:39:22.868Z</time>
      </trkpt>
      <trkpt lat="48.583933" lon="1.739806">
        <ele>148.561598</ele>
        <time>2025-06-26T05:39:27.215Z</time>
      </trkpt>
      <trkpt lat="48.584390" lon="1.740804">
        <ele>143.964061</ele>
        <time>2025-06-26T05:39:34.532Z</time>
      </trkpt>
      <trkpt lat="48.584673" lon="1.741226">
        <ele>141.687926</ele>
        <time>2025-06-26T05:39:38.137Z</time>
      </trkpt>
      <trkpt lat="48.585062" lon="1.741122">
        <ele>140.135297</ele>
        <time>2025-06-26T05:39:41.826Z</time>
      </trkpt>
      <trkpt lat="48.585205" lon="1.740997">
        <ele>140.045789</ele>
        <time>2025-06-26T05:39:43.427Z</time>
      </trkpt>
      <trkpt lat="48.585434" lon="1.740935">
        <ele>139.919727</ele>
        <time>2025-06-26T05:39:45.764Z</time>
      </trkpt>
      <trkpt lat="48.585538" lon="1.740926">
        <ele>139.863280</ele>
        <time>2025-06-26T05:39:46.847Z</time>
      </trkpt>
      <trkpt lat="48.585836" lon="1.741035">
        <ele>139.697144</ele>
        <time>2025-06-26T05:39:50.184Z</time>
      </trkpt>
      <trkpt lat="48.586755" lon="1.741508">
        <ele>139.864881</ele>
        <time>2025-06-26T05:40:13.746Z</time>
      </trkpt>
      <trkpt lat="48.587601" lon="1.742124">
        <ele>144.896509</ele>
        <time>2025-06-26T05:40:49.996Z</time>
      </trkpt>
      <trkpt lat="48.587972" lon="1.742917">
        <ele>148.339224</ele>
        <time>2025-06-26T05:41:16.099Z</time>
      </trkpt>
      <trkpt lat="48.588461" lon="1.744067">
        <ele>151.924815</ele>
        <time>2025-06-26T05:41:47.736Z</time>
      </trkpt>
      <trkpt lat="48.589582" lon="1.746557">
        <ele>157.602126</ele>
        <time>2025-06-26T05:42:37.310Z</time>
      </trkpt>
      <trkpt lat="48.590632" lon="1.748037">
        <ele>159.597293</ele>
        <time>2025-06-26T05:43:05.414Z</time>
      </trkpt>
      <trkpt lat="48.591739" lon="1.749174">
        <ele>160.503655</ele>
        <time>2025-06-26T05:43:27.923Z</time>
      </trkpt>
      <trkpt lat="48.593225" lon="1.749961">
        <ele>160.980038</ele>
        <time>2025-06-26T05:43:52.299Z</time>
      </trkpt>
      <trkpt lat="48.598793" lon="1.752908">
        <ele>166.007974</ele>
        <time>2025-06-26T05:45:40.456Z</time>
      </trkpt>
      <trkpt lat="48.599414" lon="1.753042">
        <ele>166.578341</ele>
        <time>2025-06-26T05:45:51.684Z</time>
      </trkpt>
      <trkpt lat="48.600115" lon="1.753164">
        <ele>167.219935</ele>
        <time>2025-06-26T05:46:04.956Z</time>
      </trkpt>
      <trkpt lat="48.600402" lon="1.753223">
        <ele>167.398480</ele>
        <time>2025-06-26T05:46:10.526Z</time>
      </trkpt>
      <trkpt lat="48.600716" lon="1.753377">
        <ele>167.597964</ele>
        <time>2025-06-26T05:46:16.879Z</time>
      </trkpt>
      <trkpt lat="48.600928" lon="1.753656">
        <ele>167.767801</ele>
        <time>2025-06-26T05:46:22.115Z</time>
      </trkpt>
      <trkpt lat="48.601320" lon="1.754394">
        <ele>168.146083</ele>
        <time>2025-06-26T05:46:33.040Z</time>
      </trkpt>
      <trkpt lat="48.601402" lon="1.754521">
        <ele>168.217015</ele>
        <time>2025-06-26T05:46:34.872Z</time>
      </trkpt>
      <trkpt lat="48.601558" lon="1.754680">
        <ele>168.303286</ele>
        <time>2025-06-26T05:46:37.649Z</time>
      </trkpt>
      <trkpt lat="48.602707" lon="1.755674">
        <ele>167.461159</ele>
        <time>2025-06-26T05:46:54.281Z</time>
      </trkpt>
      <trkpt lat="48.604339" lon="1.756716">
        <ele>166.406920</ele>
        <time>2025-06-26T05:47:16.850Z</time>
      </trkpt>
      <trkpt lat="48.604729" lon="1.757102">
        <ele>166.136110</ele>
        <time>2025-06-26T05:47:23.300Z</time>
      </trkpt>
      <trkpt lat="48.606084" lon="1.758323">
        <ele>165.613980</ele>
        <time>2025-06-26T05:47:45.852Z</time>
      </trkpt>
      <trkpt lat="48.607023" lon="1.758864">
        <ele>164.753761</ele>
        <time>2025-06-26T05:47:58.512Z</time>
      </trkpt>
      <trkpt lat="48.607358" lon="1.758935">
        <ele>164.409664</ele>
        <time>2025-06-26T05:48:02.519Z</time>
      </trkpt>
      <trkpt lat="48.607674" lon="1.758928">
        <ele>164.088190</ele>
        <time>2025-06-26T05:48:06.208Z</time>
      </trkpt>
      <trkpt lat="48.608812" lon="1.758904">
        <ele>163.204602</ele>
        <time>2025-06-26T05:48:19.622Z</time>
      </trkpt>
      <trkpt lat="48.611155" lon="1.758927">
        <ele>163.177762</ele>
        <time>2025-06-26T05:48:52.680Z</time>
      </trkpt>
      <trkpt lat="48.611409" lon="1.759045">
        <ele>163.310737</ele>
        <time>2025-06-26T05:48:58.308Z</time>
      </trkpt>
      <trkpt lat="48.612473" lon="1.760184">
        <ele>165.612031</ele>
        <time>2025-06-26T05:49:30.239Z</time>
      </trkpt>
      <trkpt lat="48.612966" lon="1.760592">
        <ele>166.752552</ele>
        <time>2025-06-26T05:49:43.257Z</time>
      </trkpt>
      <trkpt lat="48.613312" lon="1.760922">
        <ele>167.273642</ele>
        <time>2025-06-26T05:49:51.882Z</time>
      </trkpt>
      <trkpt lat="48.613585" lon="1.761242">
        <ele>167.548949</ele>
        <time>2025-06-26T05:49:58.634Z</time>
      </trkpt>
      <trkpt lat="48.614762" lon="1.763256">
        <ele>168.325142</ele>
        <time>2025-06-26T05:50:27.969Z</time>
      </trkpt>
      <trkpt lat="48.617093" lon="1.766059">
        <ele>166.550418</ele>
        <time>2025-06-26T05:51:06.088Z</time>
      </trkpt>
      <trkpt lat="48.618189" lon="1.767275">
        <ele>165.093790</ele>
        <time>2025-06-26T05:51:21.978Z</time>
      </trkpt>
      <trkpt lat="48.619304" lon="1.768433">
        <ele>164.279142</ele>
        <time>2025-06-26T05:51:39.231Z</time>
      </trkpt>
      <trkpt lat="48.620363" lon="1.769407">
        <ele>163.924456</ele>
        <time>2025-06-26T05:51:58.042Z</time>
      </trkpt>
      <trkpt lat="48.621060" lon="1.769913">
        <ele>163.817376</ele>
        <time>2025-06-26T05:52:09.477Z</time>
      </trkpt>
      <trkpt lat="48.621373" lon="1.770121">
        <ele>163.770025</ele>
        <time>2025-06-26T05:52:14.207Z</time>
      </trkpt>
      <trkpt lat="48.622636" lon="1.770813">
        <ele>163.385248</ele>
        <time>2025-06-26T05:52:32.084Z</time>
      </trkpt>
      <trkpt lat="48.623877" lon="1.771367">
        <ele>163.009984</ele>
        <time>2025-06-26T05:52:50.205Z</time>
      </trkpt>
      <trkpt lat="48.624017" lon="1.771472">
        <ele>162.979666</ele>
        <time>2025-06-26T05:52:52.426Z</time>
      </trkpt>
      <trkpt lat="48.624190" lon="1.771674">
        <ele>162.937265</ele>
        <time>2025-06-26T05:52:55.541Z</time>
      </trkpt>
      <trkpt lat="48.624538" lon="1.772204">
        <ele>162.841457</ele>
        <time>2025-06-26T05:53:02.534Z</time>
      </trkpt>
      <trkpt lat="48.624645" lon="1.772333">
        <ele>162.814910</ele>
        <time>2025-06-26T05:53:04.475Z</time>
      </trkpt>
      <trkpt lat="48.624924" lon="1.772554">
        <ele>162.753807</ele>
        <time>2025-06-26T05:53:08.923Z</time>
      </trkpt>
      <trkpt lat="48.625261" lon="1.772672">
        <ele>162.783478</ele>
        <time>2025-06-26T05:53:13.819Z</time>
      </trkpt>
      <trkpt lat="48.625867" lon="1.772632">
        <ele>162.842908</ele>
        <time>2025-06-26T05:53:22.881Z</time>
      </trkpt>
      <trkpt lat="48.626152" lon="1.772616">
        <ele>162.870850</ele>
        <time>2025-06-26T05:53:27.358Z</time>
      </trkpt>
      <trkpt lat="48.627237" lon="1.772557">
        <ele>162.969769</ele>
        <time>2025-06-26T05:53:44.930Z</time>
      </trkpt>
      <trkpt lat="48.627330" lon="1.772641">
        <ele>162.978799</ele>
        <time>2025-06-26T05:53:46.697Z</time>
      </trkpt>
      <trkpt lat="48.627523" lon="1.772681">
        <ele>162.995039</ele>
        <time>2025-06-26T05:53:49.867Z</time>
      </trkpt>
      <trkpt lat="48.627673" lon="1.772671">
        <ele>163.007556</ele>
        <time>2025-06-26T05:53:52.236Z</time>
      </trkpt>
      <trkpt lat="48.627834" lon="1.772605">
        <ele>163.021462</ele>
        <time>2025-06-26T05:53:54.809Z</time>
      </trkpt>
      <trkpt lat="48.627885" lon="1.772575">
        <ele>163.026024</ele>
        <time>2025-06-26T05:53:55.630Z</time>
      </trkpt>
      <trkpt lat="48.628571" lon="1.772633">
        <ele>163.005474</ele>
        <time>2025-06-26T05:54:05.421Z</time>
      </trkpt>
      <trkpt lat="48.629657" lon="1.772585">
        <ele>161.945547</ele>
        <time>2025-06-26T05:54:19.147Z</time>
      </trkpt>
      <trkpt lat="48.630029" lon="1.772560">
        <ele>161.582275</ele>
        <time>2025-06-26T05:54:23.497Z</time>
      </trkpt>
      <trkpt lat="48.630232" lon="1.772546">
        <ele>161.384027</ele>
        <time>2025-06-26T05:54:25.854Z</time>
      </trkpt>
      <trkpt lat="48.630315" lon="1.772539">
        <ele>161.284429</ele>
        <time>2025-06-26T05:54:26.804Z</time>
      </trkpt>
      <trkpt lat="48.630358" lon="1.772535">
        <ele>161.202598</ele>
        <time>2025-06-26T05:54:27.295Z</time>
      </trkpt>
      <trkpt lat="48.630725" lon="1.772505">
        <ele>160.504481</ele>
        <time>2025-06-26T05:54:31.438Z</time>
      </trkpt>
      <trkpt lat="48.631318" lon="1.772456">
        <ele>159.376424</ele>
        <time>2025-06-26T05:54:37.946Z</time>
      </trkpt>
      <trkpt lat="48.632067" lon="1.772390">
        <ele>157.951319</ele>
        <time>2025-06-26T05:54:46.272Z</time>
      </trkpt>
      <trkpt lat="48.632283" lon="1.772331">
        <ele>157.355650</ele>
        <time>2025-06-26T05:54:48.649Z</time>
      </trkpt>
      <trkpt lat="48.632505" lon="1.772232">
        <ele>156.704573</ele>
        <time>2025-06-26T05:54:51.092Z</time>
      </trkpt>
      <trkpt lat="48.632907" lon="1.771971">
        <ele>155.473980</ele>
        <time>2025-06-26T05:54:55.632Z</time>
      </trkpt>
      <trkpt lat="48.633676" lon="1.771441">
        <ele>153.096836</ele>
        <time>2025-06-26T05:55:04.582Z</time>
      </trkpt>
      <trkpt lat="48.633792" lon="1.771405">
        <ele>152.688547</ele>
        <time>2025-06-26T05:55:05.744Z</time>
      </trkpt>
      <trkpt lat="48.633861" lon="1.771484">
        <ele>152.223220</ele>
        <time>2025-06-26T05:55:06.586Z</time>
      </trkpt>
      <trkpt lat="48.634042" lon="1.771936">
        <ele>150.344881</ele>
        <time>2025-06-26T05:55:09.866Z</time>
      </trkpt>
      <trkpt lat="48.634026" lon="1.772400">
        <ele>148.693551</ele>
        <time>2025-06-26T05:55:12.689Z</time>
      </trkpt>
      <trkpt lat="48.633978" lon="1.772880">
        <ele>146.968178</ele>
        <time>2025-06-26T05:55:15.631Z</time>
      </trkpt>
      <trkpt lat="48.633951" lon="1.773138">
        <ele>146.039802</ele>
        <time>2025-06-26T05:55:17.213Z</time>
      </trkpt>
      <trkpt lat="48.633929" lon="1.773365">
        <ele>145.224398</ele>
        <time>2025-06-26T05:55:18.596Z</time>
      </trkpt>
      <trkpt lat="48.633947" lon="1.773616">
        <ele>144.327089</ele>
        <time>2025-06-26T05:55:20.107Z</time>
      </trkpt>
      <trkpt lat="48.634054" lon="1.773890">
        <ele>143.195965</ele>
        <time>2025-06-26T05:55:22.018Z</time>
      </trkpt>
      <trkpt lat="48.634285" lon="1.774313">
        <ele>142.272775</ele>
        <time>2025-06-26T05:55:25.358Z</time>
      </trkpt>
      <trkpt lat="48.634445" lon="1.774603">
        <ele>141.645531</ele>
        <time>2025-06-26T05:55:27.764Z</time>
      </trkpt>
      <trkpt lat="48.634495" lon="1.774687">
        <ele>141.457829</ele>
        <time>2025-06-26T05:55:28.527Z</time>
      </trkpt>
      <trkpt lat="48.634510" lon="1.774705">
        <ele>141.409731</ele>
        <time>2025-06-26T05:55:28.723Z</time>
      </trkpt>
      <trkpt lat="48.634569" lon="1.774772">
        <ele>141.224400</ele>
        <time>2025-06-26T05:55:29.483Z</time>
      </trkpt>
      <trkpt lat="48.634736" lon="1.774952">
        <ele>140.709272</ele>
        <time>2025-06-26T05:55:31.723Z</time>
      </trkpt>
      <trkpt lat="48.634976" lon="1.775176">
        <ele>140.000823</ele>
        <time>2025-06-26T05:55:35.210Z</time>
      </trkpt>
      <trkpt lat="48.634987" lon="1.775184">
        <ele>139.970160</ele>
        <time>2025-06-26T05:55:35.375Z</time>
      </trkpt>
      <trkpt lat="48.635230" lon="1.775308">
        <ele>139.325867</ele>
        <time>2025-06-26T05:55:38.984Z</time>
      </trkpt>
      <trkpt lat="48.635476" lon="1.775352">
        <ele>138.703515</ele>
        <time>2025-06-26T05:55:42.877Z</time>
      </trkpt>
      <trkpt lat="48.635790" lon="1.775255">
        <ele>138.747048</ele>
        <time>2025-06-26T05:55:48.231Z</time>
      </trkpt>
      <trkpt lat="48.635903" lon="1.775167">
        <ele>138.786198</ele>
        <time>2025-06-26T05:55:50.365Z</time>
      </trkpt>
      <trkpt lat="48.636080" lon="1.774960">
        <ele>138.855111</ele>
        <time>2025-06-26T05:55:54.127Z</time>
      </trkpt>
      <trkpt lat="48.636199" lon="1.774798">
        <ele>138.904421</ele>
        <time>2025-06-26T05:55:56.757Z</time>
      </trkpt>
      <trkpt lat="48.636291" lon="1.774674">
        <ele>138.942375</ele>
        <time>2025-06-26T05:55:58.704Z</time>
      </trkpt>
      <trkpt lat="48.636424" lon="1.774493">
        <ele>138.997478</ele>
        <time>2025-06-26T05:56:01.530Z</time>
      </trkpt>
      <trkpt lat="48.637055" lon="1.773589">
        <ele>139.366939</ele>
        <time>2025-06-26T05:56:15.231Z</time>
      </trkpt>
      <trkpt lat="48.637228" lon="1.773408">
        <ele>139.547992</ele>
        <time>2025-06-26T05:56:18.795Z</time>
      </trkpt>
      <trkpt lat="48.637489" lon="1.773235">
        <ele>139.793279</ele>
        <time>2025-06-26T05:56:23.936Z</time>
      </trkpt>
      <trkpt lat="48.637688" lon="1.773184">
        <ele>139.967026</ele>
        <time>2025-06-26T05:56:27.633Z</time>
      </trkpt>
      <trkpt lat="48.637858" lon="1.773182">
        <ele>140.113373</ele>
        <time>2025-06-26T05:56:30.791Z</time>
      </trkpt>
      <trkpt lat="48.637997" lon="1.773180">
        <ele>140.233034</ele>
        <time>2025-06-26T05:56:33.392Z</time>
      </trkpt>
      <trkpt lat="48.638348" lon="1.773173">
        <ele>140.535215</ele>
        <time>2025-06-26T05:56:40.087Z</time>
      </trkpt>
      <trkpt lat="48.638487" lon="1.773091">
        <ele>140.663642</ele>
        <time>2025-06-26T05:56:42.935Z</time>
      </trkpt>
      <trkpt lat="48.638427" lon="1.774038">
        <ele>141.916803</ele>
        <time>2025-06-26T05:56:55.762Z</time>
      </trkpt>
      <trkpt lat="48.638339" lon="1.774683">
        <ele>142.886819</ele>
        <time>2025-06-26T05:57:05.371Z</time>
      </trkpt>
      <trkpt lat="48.637969" lon="1.778321">
        <ele>149.906795</ele>
        <time>2025-06-26T05:58:11.169Z</time>
      </trkpt>
      <trkpt lat="48.637862" lon="1.779320">
        <ele>152.341571</ele>
        <time>2025-06-26T05:58:31.624Z</time>
      </trkpt>
      <trkpt lat="48.637655" lon="1.781438">
        <ele>157.540680</ele>
        <time>2025-06-26T05:59:16.253Z</time>
      </trkpt>
      <trkpt lat="48.637477" lon="1.783208">
        <ele>158.730289</ele>
        <time>2025-06-26T05:59:43.056Z</time>
      </trkpt>
      <trkpt lat="48.637265" lon="1.785368">
        <ele>157.392153</ele>
        <time>2025-06-26T05:59:58.904Z</time>
      </trkpt>
      <trkpt lat="48.637243" lon="1.785984">
        <ele>156.543189</ele>
        <time>2025-06-26T06:00:03.145Z</time>
      </trkpt>
      <trkpt lat="48.637470" lon="1.791051">
        <ele>148.915725</ele>
        <time>2025-06-26T06:00:39.835Z</time>
      </trkpt>
      <trkpt lat="48.637574" lon="1.792284">
        <ele>146.765671</ele>
        <time>2025-06-26T06:00:47.929Z</time>
      </trkpt>
      <trkpt lat="48.637708" lon="1.792909">
        <ele>145.896825</ele>
        <time>2025-06-26T06:00:52.302Z</time>
      </trkpt>
      <trkpt lat="48.638101" lon="1.794082">
        <ele>144.157812</ele>
        <time>2025-06-26T06:01:01.813Z</time>
      </trkpt>
      <trkpt lat="48.638129" lon="1.794162">
        <ele>144.038107</ele>
        <time>2025-06-26T06:01:02.552Z</time>
      </trkpt>
      <trkpt lat="48.638430" lon="1.795068">
        <ele>143.450554</ele>
        <time>2025-06-26T06:01:12.426Z</time>
      </trkpt>
      <trkpt lat="48.638579" lon="1.795342">
        <ele>143.521597</ele>
        <time>2025-06-26T06:01:15.804Z</time>
      </trkpt>
      <trkpt lat="48.638981" lon="1.795889">
        <ele>143.685386</ele>
        <time>2025-06-26T06:01:23.294Z</time>
      </trkpt>
      <trkpt lat="48.639079" lon="1.796089">
        <ele>143.735234</ele>
        <time>2025-06-26T06:01:25.794Z</time>
      </trkpt>
      <trkpt lat="48.639110" lon="1.796207">
        <ele>143.760656</ele>
        <time>2025-06-26T06:01:27.216Z</time>
      </trkpt>
      <trkpt lat="48.639117" lon="1.796446">
        <ele>143.808552</ele>
        <time>2025-06-26T06:01:30.058Z</time>
      </trkpt>
      <trkpt lat="48.639035" lon="1.796783">
        <ele>143.880449</ele>
        <time>2025-06-26T06:01:34.751Z</time>
      </trkpt>
      <trkpt lat="48.638942" lon="1.797010">
        <ele>144.357375</ele>
        <time>2025-06-26T06:01:38.613Z</time>
      </trkpt>
      <trkpt lat="48.638863" lon="1.797198">
        <ele>144.905772</ele>
        <time>2025-06-26T06:01:42.033Z</time>
      </trkpt>
      <trkpt lat="48.638767" lon="1.797533">
        <ele>145.804564</ele>
        <time>2025-06-26T06:01:48.039Z</time>
      </trkpt>
      <trkpt lat="48.638753" lon="1.797653">
        <ele>146.104509</ele>
        <time>2025-06-26T06:01:50.171Z</time>
      </trkpt>
      <trkpt lat="48.638769" lon="1.797917">
        <ele>146.757065</ele>
        <time>2025-06-26T06:01:54.986Z</time>
      </trkpt>
      <trkpt lat="48.639457" lon="1.800795">
        <ele>155.247477</ele>
        <time>2025-06-26T06:03:04.838Z</time>
      </trkpt>
      <trkpt lat="48.639499" lon="1.801124">
        <ele>156.285939</ele>
        <time>2025-06-26T06:03:12.662Z</time>
      </trkpt>
      <trkpt lat="48.639471" lon="1.801579">
        <ele>157.702138</ele>
        <time>2025-06-26T06:03:23.116Z</time>
      </trkpt>
      <trkpt lat="48.639222" lon="1.803004">
        <ele>160.474506</ele>
        <time>2025-06-26T06:03:52.376Z</time>
      </trkpt>
      <trkpt lat="48.639029" lon="1.803709">
        <ele>161.528057</ele>
        <time>2025-06-26T06:04:03.815Z</time>
      </trkpt>
      <trkpt lat="48.636569" lon="1.810241">
        <ele>162.829282</ele>
        <time>2025-06-26T06:05:18.549Z</time>
      </trkpt>
      <trkpt lat="48.636510" lon="1.810477">
        <ele>162.781198</ele>
        <time>2025-06-26T06:05:20.895Z</time>
      </trkpt>
      <trkpt lat="48.636481" lon="1.810913">
        <ele>162.697692</ele>
        <time>2025-06-26T06:05:24.880Z</time>
      </trkpt>
      <trkpt lat="48.636562" lon="1.811474">
        <ele>162.588263</ele>
        <time>2025-06-26T06:05:29.970Z</time>
      </trkpt>
      <trkpt lat="48.636684" lon="1.811821">
        <ele>162.436824</ele>
        <time>2025-06-26T06:05:33.353Z</time>
      </trkpt>
      <trkpt lat="48.637496" lon="1.813088">
        <ele>160.704140</ele>
        <time>2025-06-26T06:05:47.586Z</time>
      </trkpt>
      <trkpt lat="48.637710" lon="1.813567">
        <ele>160.136527</ele>
        <time>2025-06-26T06:05:51.778Z</time>
      </trkpt>
      <trkpt lat="48.637948" lon="1.814183">
        <ele>158.825269</ele>
        <time>2025-06-26T06:05:56.660Z</time>
      </trkpt>
      <trkpt lat="48.639139" lon="1.817265">
        <ele>151.406623</ele>
        <time>2025-06-26T06:06:19.748Z</time>
      </trkpt>
      <trkpt lat="48.639487" lon="1.818169">
        <ele>149.829276</ele>
        <time>2025-06-26T06:06:28.071Z</time>
      </trkpt>
      <trkpt lat="48.639621" lon="1.818424">
        <ele>149.338074</ele>
        <time>2025-06-26T06:06:31.049Z</time>
      </trkpt>
      <trkpt lat="48.640522" lon="1.819772">
        <ele>149.010508</ele>
        <time>2025-06-26T06:06:48.324Z</time>
      </trkpt>
      <trkpt lat="48.640645" lon="1.820083">
        <ele>148.966892</ele>
        <time>2025-06-26T06:06:51.710Z</time>
      </trkpt>
      <trkpt lat="48.640682" lon="1.820255">
        <ele>148.945125</ele>
        <time>2025-06-26T06:06:53.513Z</time>
      </trkpt>
      <trkpt lat="48.640746" lon="1.820822">
        <ele>149.033190</ele>
        <time>2025-06-26T06:06:59.716Z</time>
      </trkpt>
      <trkpt lat="48.640798" lon="1.821509">
        <ele>149.395466</ele>
        <time>2025-06-26T06:07:08.232Z</time>
      </trkpt>
      <trkpt lat="48.640934" lon="1.823214">
        <ele>150.295207</ele>
        <time>2025-06-26T06:07:30.735Z</time>
      </trkpt>
      <trkpt lat="48.641002" lon="1.823982">
        <ele>150.195990</ele>
        <time>2025-06-26T06:07:37.779Z</time>
      </trkpt>
      <trkpt lat="48.641049" lon="1.824399">
        <ele>150.114863</ele>
        <time>2025-06-26T06:07:41.488Z</time>
      </trkpt>
      <trkpt lat="48.641099" lon="1.824637">
        <ele>150.066968</ele>
        <time>2025-06-26T06:07:43.562Z</time>
      </trkpt>
      <trkpt lat="48.641187" lon="1.824898">
        <ele>150.010774</ele>
        <time>2025-06-26T06:07:46.967Z</time>
      </trkpt>
      <trkpt lat="48.641418" lon="1.825335">
        <ele>149.903450</ele>
        <time>2025-06-26T06:07:53.500Z</time>
      </trkpt>
      <trkpt lat="48.641440" lon="1.825372">
        <ele>149.893904</ele>
        <time>2025-06-26T06:07:54.115Z</time>
      </trkpt>
      <trkpt lat="48.641406" lon="1.825497">
        <ele>149.867981</ele>
        <time>2025-06-26T06:07:55.274Z</time>
      </trkpt>
      <trkpt lat="48.641432" lon="1.825584">
        <ele>149.849669</ele>
        <time>2025-06-26T06:07:56.090Z</time>
      </trkpt>
      <trkpt lat="48.641519" lon="1.825627">
        <ele>149.823106</ele>
        <time>2025-06-26T06:07:57.315Z</time>
      </trkpt>
      <trkpt lat="48.641584" lon="1.825559">
        <ele>149.869020</ele>
        <time>2025-06-26T06:07:58.382Z</time>
      </trkpt>
      <trkpt lat="48.641615" lon="1.825573">
        <ele>149.930202</ele>
        <time>2025-06-26T06:07:59.022Z</time>
      </trkpt>
      <trkpt lat="48.641716" lon="1.825612">
        <ele>150.127335</ele>
        <time>2025-06-26T06:08:01.032Z</time>
      </trkpt>
      <trkpt lat="48.642140" lon="1.825655">
        <ele>150.931011</ele>
        <time>2025-06-26T06:08:10.241Z</time>
      </trkpt>
      <trkpt lat="48.642855" lon="1.825726">
        <ele>152.286141</ele>
        <time>2025-06-26T06:08:31.487Z</time>
      </trkpt>
      <trkpt lat="48.642897" lon="1.825732">
        <ele>152.365925</ele>
        <time>2025-06-26T06:08:32.878Z</time>
      </trkpt>
      <trkpt lat="48.642918" lon="1.825799">
        <ele>152.458592</ele>
        <time>2025-06-26T06:08:34.272Z</time>
      </trkpt>
      <trkpt lat="48.642981" lon="1.825831">
        <ele>152.584270</ele>
        <time>2025-06-26T06:08:36.274Z</time>
      </trkpt>
      <trkpt lat="48.643004" lon="1.825821">
        <ele>152.629528</ele>
        <time>2025-06-26T06:08:36.986Z</time>
      </trkpt>
      <trkpt lat="48.643026" lon="1.825873">
        <ele>152.706687</ele>
        <time>2025-06-26T06:08:38.189Z</time>
      </trkpt>
      <trkpt lat="48.643141" lon="1.826075">
        <ele>153.039883</ele>
        <time>2025-06-26T06:08:43.660Z</time>
      </trkpt>
      <trkpt lat="48.643384" lon="1.826189">
        <ele>153.523305</ele>
        <time>2025-06-26T06:08:51.338Z</time>
      </trkpt>
      <trkpt lat="48.643741" lon="1.826604">
        <ele>154.380914</ele>
        <time>2025-06-26T06:09:03.864Z</time>
      </trkpt>
      <trkpt lat="48.643715" lon="1.826699">
        <ele>154.510354</ele>
        <time>2025-06-26T06:09:05.629Z</time>
      </trkpt>
      <trkpt lat="48.643751" lon="1.826787">
        <ele>154.640642</ele>
        <time>2025-06-26T06:09:07.401Z</time>
      </trkpt>
      <trkpt lat="48.643626" lon="1.827131">
        <ele>155.134834</ele>
        <time>2025-06-26T06:09:13.655Z</time>
      </trkpt>
      <trkpt lat="48.643255" lon="1.828154">
        <ele>156.603819</ele>
        <time>2025-06-26T06:09:27.978Z</time>
      </trkpt>
      <trkpt lat="48.643203" lon="1.828485">
        <ele>156.677722</ele>
        <time>2025-06-26T06:09:30.914Z</time>
      </trkpt>
      <trkpt lat="48.643239" lon="1.828899">
        <ele>156.731135</ele>
        <time>2025-06-26T06:09:34.230Z</time>
      </trkpt>
      <trkpt lat="48.643398" lon="1.829768">
        <ele>156.846474</ele>
        <time>2025-06-26T06:09:42.212Z</time>
      </trkpt>
      <trkpt lat="48.643433" lon="1.830167">
        <ele>156.897959</ele>
        <time>2025-06-26T06:09:47.119Z</time>
      </trkpt>
      <trkpt lat="48.643256" lon="1.830142">
        <ele>156.932374</ele>
        <time>2025-06-26T06:09:50.429Z</time>
      </trkpt>
      <trkpt lat="48.643147" lon="1.830259">
        <ele>156.958243</ele>
        <time>2025-06-26T06:09:52.841Z</time>
      </trkpt>
      <trkpt lat="48.643134" lon="1.830394">
        <ele>156.975694</ele>
        <time>2025-06-26T06:09:54.391Z</time>
      </trkpt>
      <trkpt lat="48.643280" lon="1.830633">
        <ele>157.184220</ele>
        <time>2025-06-26T06:09:58.193Z</time>
      </trkpt>
      <trkpt lat="48.643476" lon="1.830970">
        <ele>157.545986</ele>
        <time>2025-06-26T06:10:03.877Z</time>
      </trkpt>
      <trkpt lat="48.643573" lon="1.831043">
        <ele>157.678098</ele>
        <time>2025-06-26T06:10:06.069Z</time>
      </trkpt>
      <trkpt lat="48.643630" lon="1.831033">
        <ele>157.748077</ele>
        <time>2025-06-26T06:10:07.255Z</time>
      </trkpt>
      <trkpt lat="48.643680" lon="1.830960">
        <ele>157.832801</ele>
        <time>2025-06-26T06:10:08.610Z</time>
      </trkpt>
      <trkpt lat="48.643829" lon="1.830737">
        <ele>158.088353</ele>
        <time>2025-06-26T06:10:13.035Z</time>
      </trkpt>
      <trkpt lat="48.643880" lon="1.830710">
        <ele>158.154245</ele>
        <time>2025-06-26T06:10:14.229Z</time>
      </trkpt>
      <trkpt lat="48.643956" lon="1.830670">
        <ele>158.252373</ele>
        <time>2025-06-26T06:10:16.012Z</time>
      </trkpt>
      <trkpt lat="48.644054" lon="1.830531">
        <ele>158.416166</ele>
        <time>2025-06-26T06:10:18.997Z</time>
      </trkpt>
      <trkpt lat="48.644101" lon="1.830502">
        <ele>158.478065</ele>
        <time>2025-06-26T06:10:20.126Z</time>
      </trkpt>
      <trkpt lat="48.644142" lon="1.830479">
        <ele>158.531389</ele>
        <time>2025-06-26T06:10:21.082Z</time>
      </trkpt>
      <trkpt lat="48.644166" lon="1.830478">
        <ele>158.560669</ele>
        <time>2025-06-26T06:10:21.599Z</time>
      </trkpt>
      <trkpt lat="48.644277" lon="1.830518">
        <ele>158.699821</ele>
        <time>2025-06-26T06:10:24.036Z</time>
      </trkpt>
      <trkpt lat="48.644388" lon="1.830540">
        <ele>158.836344</ele>
        <time>2025-06-26T06:10:26.339Z</time>
      </trkpt>
      <trkpt lat="48.644478" lon="1.830555">
        <ele>158.946764</ele>
        <time>2025-06-26T06:10:28.136Z</time>
      </trkpt>
      <trkpt lat="48.644577" lon="1.830531">
        <ele>159.069036</ele>
        <time>2025-06-26T06:10:30.026Z</time>
      </trkpt>
      <trkpt lat="48.644791" lon="1.830547">
        <ele>159.165173</ele>
        <time>2025-06-26T06:10:33.866Z</time>
      </trkpt>
      <trkpt lat="48.644934" lon="1.830556">
        <ele>159.148811</ele>
        <time>2025-06-26T06:10:36.363Z</time>
      </trkpt>
      <trkpt lat="48.645472" lon="1.830584">
        <ele>159.087272</ele>
        <time>2025-06-26T06:10:45.269Z</time>
      </trkpt>
      <trkpt lat="48.645520" lon="1.830588">
        <ele>159.081777</ele>
        <time>2025-06-26T06:10:46.017Z</time>
      </trkpt>
      <trkpt lat="48.646265" lon="1.830613">
        <ele>158.996589</ele>
        <time>2025-06-26T06:10:55.699Z</time>
      </trkpt>
      <trkpt lat="48.646529" lon="1.830627">
        <ele>158.892780</ele>
        <time>2025-06-26T06:10:58.835Z</time>
      </trkpt>
      <trkpt lat="48.646604" lon="1.830631">
        <ele>158.797938</ele>
        <time>2025-06-26T06:10:59.714Z</time>
      </trkpt>
      <trkpt lat="48.646691" lon="1.830639">
        <ele>158.687786</ele>
        <time>2025-06-26T06:11:00.710Z</time>
      </trkpt>
      <trkpt lat="48.647716" lon="1.830687">
        <ele>157.391788</ele>
        <time>2025-06-26T06:11:12.697Z</time>
      </trkpt>
      <trkpt lat="48.648590" lon="1.830741">
        <ele>156.286721</ele>
        <time>2025-06-26T06:11:23.116Z</time>
      </trkpt>
      <trkpt lat="48.649851" lon="1.830808">
        <ele>154.693647</ele>
        <time>2025-06-26T06:11:37.696Z</time>
      </trkpt>
      <trkpt lat="48.649991" lon="1.830815">
        <ele>154.516791</ele>
        <time>2025-06-26T06:11:39.390Z</time>
      </trkpt>
      <trkpt lat="48.650213" lon="1.830861">
        <ele>154.530641</ele>
        <time>2025-06-26T06:11:42.159Z</time>
      </trkpt>
      <trkpt lat="48.650360" lon="1.830891">
        <ele>154.627162</ele>
        <time>2025-06-26T06:11:44.081Z</time>
      </trkpt>
      <trkpt lat="48.650709" lon="1.830973">
        <ele>154.856983</ele>
        <time>2025-06-26T06:11:49.093Z</time>
      </trkpt>
      <trkpt lat="48.650739" lon="1.831051">
        <ele>154.895784</ele>
        <time>2025-06-26T06:11:50.044Z</time>
      </trkpt>
      <trkpt lat="48.650809" lon="1.831114">
        <ele>154.948778</ele>
        <time>2025-06-26T06:11:51.385Z</time>
      </trkpt>
      <trkpt lat="48.650889" lon="1.831103">
        <ele>155.001050</ele>
        <time>2025-06-26T06:11:52.799Z</time>
      </trkpt>
      <trkpt lat="48.650951" lon="1.831022">
        <ele>155.054344</ele>
        <time>2025-06-26T06:11:54.271Z</time>
      </trkpt>
      <trkpt lat="48.651116" lon="1.831031">
        <ele>155.161782</ele>
        <time>2025-06-26T06:11:57.477Z</time>
      </trkpt>
      <trkpt lat="48.651169" lon="1.831046">
        <ele>155.196868</ele>
        <time>2025-06-26T06:11:58.537Z</time>
      </trkpt>
      <trkpt lat="48.651443" lon="1.831132">
        <ele>155.378958</ele>
        <time>2025-06-26T06:12:04.614Z</time>
      </trkpt>
      <trkpt lat="48.651636" lon="1.831144">
        <ele>155.504653</ele>
        <time>2025-06-26T06:12:08.973Z</time>
      </trkpt>
      <trkpt lat="48.652004" lon="1.831295">
        <ele>156.047118</ele>
        <time>2025-06-26T06:12:17.796Z</time>
      </trkpt>
      <trkpt lat="48.652027" lon="1.831495">
        <ele>156.302692</ele>
        <time>2025-06-26T06:12:21.006Z</time>
      </trkpt>
      <trkpt lat="48.652039" lon="1.831846">
        <ele>156.745169</ele>
        <time>2025-06-26T06:12:26.639Z</time>
      </trkpt>
      <trkpt lat="48.652045" lon="1.832071">
        <ele>157.028659</ele>
        <time>2025-06-26T06:12:30.282Z</time>
      </trkpt>
      <trkpt lat="48.652087" lon="1.832580">
        <ele>157.674435</ele>
        <time>2025-06-26T06:12:38.429Z</time>
      </trkpt>
      <trkpt lat="48.652255" lon="1.833281">
        <ele>158.613222</ele>
        <time>2025-06-26T06:12:49.048Z</time>
      </trkpt>
      <trkpt lat="48.652424" lon="1.833705">
        <ele>159.134130</ele>
        <time>2025-06-26T06:12:55.680Z</time>
      </trkpt>
      <trkpt lat="48.652676" lon="1.834130">
        <ele>159.500318</ele>
        <time>2025-06-26T06:13:02.846Z</time>
      </trkpt>
      <trkpt lat="48.652870" lon="1.834846">
        <ele>159.996543</ele>
        <time>2025-06-26T06:13:12.385Z</time>
      </trkpt>
      <trkpt lat="48.653059" lon="1.835623">
        <ele>160.527465</ele>
        <time>2025-06-26T06:13:22.246Z</time>
      </trkpt>
      <trkpt lat="48.653162" lon="1.836015">
        <ele>160.784280</ele>
        <time>2025-06-26T06:13:27.228Z</time>
      </trkpt>
      <trkpt lat="48.653248" lon="1.836250">
        <ele>160.860042</ele>
        <time>2025-06-26T06:13:30.371Z</time>
      </trkpt>
      <trkpt lat="48.653691" lon="1.837238">
        <ele>161.196785</ele>
        <time>2025-06-26T06:13:44.491Z</time>
      </trkpt>
      <trkpt lat="48.653736" lon="1.837537">
        <ele>161.283266</ele>
        <time>2025-06-26T06:13:47.942Z</time>
      </trkpt>
      <trkpt lat="48.653832" lon="1.837603">
        <ele>161.328276</ele>
        <time>2025-06-26T06:13:49.652Z</time>
      </trkpt>
      <trkpt lat="48.654162" lon="1.838354">
        <ele>161.553987</ele>
        <time>2025-06-26T06:13:58.255Z</time>
      </trkpt>
      <trkpt lat="48.654282" lon="1.838633">
        <ele>161.582714</ele>
        <time>2025-06-26T06:14:01.159Z</time>
      </trkpt>
      <trkpt lat="48.654423" lon="1.838879">
        <ele>161.610818</ele>
        <time>2025-06-26T06:14:04.032Z</time>
      </trkpt>
      <trkpt lat="48.654748" lon="1.839250">
        <ele>161.663987</ele>
        <time>2025-06-26T06:14:09.785Z</time>
      </trkpt>
      <trkpt lat="48.654939" lon="1.839472">
        <ele>161.695441</ele>
        <time>2025-06-26T06:14:13.526Z</time>
      </trkpt>
      <trkpt lat="48.654945" lon="1.839590">
        <ele>161.705653</ele>
        <time>2025-06-26T06:14:14.800Z</time>
      </trkpt>
      <trkpt lat="48.655012" lon="1.839804">
        <ele>161.726088</ele>
        <time>2025-06-26T06:14:17.323Z</time>
      </trkpt>
      <trkpt lat="48.655120" lon="1.840257">
        <ele>161.767643</ele>
        <time>2025-06-26T06:14:22.548Z</time>
      </trkpt>
      <trkpt lat="48.655175" lon="1.840510">
        <ele>161.902984</ele>
        <time>2025-06-26T06:14:25.565Z</time>
      </trkpt>
      <trkpt lat="48.655280" lon="1.840860">
        <ele>162.196229</ele>
        <time>2025-06-26T06:14:30.283Z</time>
      </trkpt>
      <trkpt lat="48.655385" lon="1.841424">
        <ele>162.643242</ele>
        <time>2025-06-26T06:14:38.337Z</time>
      </trkpt>
      <trkpt lat="48.655420" lon="1.841597">
        <ele>162.781268</ele>
        <time>2025-06-26T06:14:40.875Z</time>
      </trkpt>
      <trkpt lat="48.655517" lon="1.842197">
        <ele>163.252490</ele>
        <time>2025-06-26T06:14:49.363Z</time>
      </trkpt>
      <trkpt lat="48.655600" lon="1.842762">
        <ele>163.694033</ele>
        <time>2025-06-26T06:14:56.769Z</time>
      </trkpt>
      <trkpt lat="48.655607" lon="1.843236">
        <ele>164.048898</ele>
        <time>2025-06-26T06:15:02.628Z</time>
      </trkpt>
      <trkpt lat="48.655468" lon="1.844138">
        <ele>164.731656</ele>
        <time>2025-06-26T06:15:14.107Z</time>
      </trkpt>
      <trkpt lat="48.655239" lon="1.845601">
        <ele>165.839966</ele>
        <time>2025-06-26T06:15:33.119Z</time>
      </trkpt>
      <trkpt lat="48.655131" lon="1.845860">
        <ele>166.106233</ele>
        <time>2025-06-26T06:15:37.365Z</time>
      </trkpt>
      <trkpt lat="48.655109" lon="1.845892">
        <ele>166.146996</ele>
        <time>2025-06-26T06:15:37.995Z</time>
      </trkpt>
      <trkpt lat="48.655116" lon="1.845978">
        <ele>166.223472</ele>
        <time>2025-06-26T06:15:39.190Z</time>
      </trkpt>
      <trkpt lat="48.655150" lon="1.845994">
        <ele>166.271042</ele>
        <time>2025-06-26T06:15:39.930Z</time>
      </trkpt>
      <trkpt lat="48.655166" lon="1.845992">
        <ele>166.292492</ele>
        <time>2025-06-26T06:15:40.293Z</time>
      </trkpt>
      <trkpt lat="48.655241" lon="1.846096">
        <ele>166.428381</ele>
        <time>2025-06-26T06:15:42.966Z</time>
      </trkpt>
      <trkpt lat="48.655413" lon="1.846288">
        <ele>166.713904</ele>
        <time>2025-06-26T06:15:48.665Z</time>
      </trkpt>
      <trkpt lat="48.655502" lon="1.846503">
        <ele>166.937836</ele>
        <time>2025-06-26T06:15:53.162Z</time>
      </trkpt>
      <trkpt lat="48.656438" lon="1.849515">
        <ele>169.344407</ele>
        <time>2025-06-26T06:16:48.820Z</time>
      </trkpt>
      <trkpt lat="48.656529" lon="1.849874">
        <ele>169.571945</ele>
        <time>2025-06-26T06:16:54.347Z</time>
      </trkpt>
      <trkpt lat="48.657028" lon="1.851716">
        <ele>170.280001</ele>
        <time>2025-06-26T06:17:21.128Z</time>
      </trkpt>
      <trkpt lat="48.657092" lon="1.851968">
        <ele>170.353962</ele>
        <time>2025-06-26T06:17:24.978Z</time>
      </trkpt>
      <trkpt lat="48.657189" lon="1.852344">
        <ele>170.464544</ele>
        <time>2025-06-26T06:17:30.910Z</time>
      </trkpt>
      <trkpt lat="48.657443" lon="1.853408">
        <ele>171.101703</ele>
        <time>2025-06-26T06:17:48.977Z</time>
      </trkpt>
      <trkpt lat="48.658155" lon="1.856003">
        <ele>173.409961</ele>
        <time>2025-06-26T06:18:37.071Z</time>
      </trkpt>
      <trkpt lat="48.658454" lon="1.857021">
        <ele>174.192808</ele>
        <time>2025-06-26T06:18:55.256Z</time>
      </trkpt>
      <trkpt lat="48.658979" lon="1.858570">
        <ele>175.070895</ele>
        <time>2025-06-26T06:19:22.078Z</time>
      </trkpt>
      <trkpt lat="48.659019" lon="1.858703">
        <ele>175.108923</ele>
        <time>2025-06-26T06:19:24.245Z</time>
      </trkpt>
      <trkpt lat="48.659311" lon="1.859744">
        <ele>175.403223</ele>
        <time>2025-06-26T06:19:40.428Z</time>
      </trkpt>
      <trkpt lat="48.660546" lon="1.859048">
        <ele>175.460334</ele>
        <time>2025-06-26T06:19:59.944Z</time>
      </trkpt>
      <trkpt lat="48.660612" lon="1.859074">
        <ele>175.451320</ele>
        <time>2025-06-26T06:20:00.919Z</time>
      </trkpt>
      <trkpt lat="48.660659" lon="1.859164">
        <ele>175.441304</ele>
        <time>2025-06-26T06:20:02.003Z</time>
      </trkpt>
      <trkpt lat="48.660774" lon="1.859717">
        <ele>175.390688</ele>
        <time>2025-06-26T06:20:07.402Z</time>
      </trkpt>
      <trkpt lat="48.661270" lon="1.861955">
        <ele>174.769194</ele>
        <time>2025-06-26T06:20:36.934Z</time>
      </trkpt>
      <trkpt lat="48.662388" lon="1.867208">
        <ele>172.414509</ele>
        <time>2025-06-26T06:21:42.788Z</time>
      </trkpt>
      <trkpt lat="48.662684" lon="1.868586">
        <ele>171.707797</ele>
        <time>2025-06-26T06:22:00.086Z</time>
      </trkpt>
      <trkpt lat="48.662912" lon="1.869645">
        <ele>171.089931</ele>
        <time>2025-06-26T06:22:13.209Z</time>
      </trkpt>
      <trkpt lat="48.663172" lon="1.870742">
        <ele>170.438718</ele>
        <time>2025-06-26T06:22:26.565Z</time>
      </trkpt>
      <trkpt lat="48.664420" lon="1.874235">
        <ele>168.763150</ele>
        <time>2025-06-26T06:23:12.690Z</time>
      </trkpt>
      <trkpt lat="48.664463" lon="1.874343">
        <ele>168.751264</ele>
        <time>2025-06-26T06:23:14.437Z</time>
      </trkpt>
      <trkpt lat="48.664538" lon="1.874502">
        <ele>168.732848</ele>
        <time>2025-06-26T06:23:17.216Z</time>
      </trkpt>
      <trkpt lat="48.664767" lon="1.874891">
        <ele>168.683733</ele>
        <time>2025-06-26T06:23:24.848Z</time>
      </trkpt>
      <trkpt lat="48.665255" lon="1.875399">
        <ele>168.805601</ele>
        <time>2025-06-26T06:23:38.708Z</time>
      </trkpt>
      <trkpt lat="48.665328" lon="1.875517">
        <ele>168.877352</ele>
        <time>2025-06-26T06:23:41.308Z</time>
      </trkpt>
      <trkpt lat="48.665373" lon="1.875641">
        <ele>168.940141</ele>
        <time>2025-06-26T06:23:43.584Z</time>
      </trkpt>
      <trkpt lat="48.665688" lon="1.877115">
        <ele>169.627660</ele>
        <time>2025-06-26T06:24:07.461Z</time>
      </trkpt>
      <trkpt lat="48.666297" lon="1.876815">
        <ele>169.881017</ele>
        <time>2025-06-26T06:24:17.791Z</time>
      </trkpt>
      <trkpt lat="48.666459" lon="1.877655">
        <ele>169.948298</ele>
        <time>2025-06-26T06:24:30.010Z</time>
      </trkpt>
      <trkpt lat="48.666619" lon="1.878481">
        <ele>170.014480</ele>
        <time>2025-06-26T06:24:41.444Z</time>
      </trkpt>
      <trkpt lat="48.666882" lon="1.879842">
        <ele>170.001144</ele>
        <time>2025-06-26T06:24:59.807Z</time>
      </trkpt>
      <trkpt lat="48.667212" lon="1.881547">
        <ele>169.899593</ele>
        <time>2025-06-26T06:25:23.033Z</time>
      </trkpt>
      <trkpt lat="48.667330" lon="1.881787">
        <ele>169.911504</ele>
        <time>2025-06-26T06:25:27.100Z</time>
      </trkpt>
      <trkpt lat="48.667429" lon="1.881847">
        <ele>169.919928</ele>
        <time>2025-06-26T06:25:29.327Z</time>
      </trkpt>
      <trkpt lat="48.668102" lon="1.882041">
        <ele>169.974051</ele>
        <time>2025-06-26T06:25:43.588Z</time>
      </trkpt>
      <trkpt lat="48.668534" lon="1.882151">
        <ele>170.008659</ele>
        <time>2025-06-26T06:25:52.700Z</time>
      </trkpt>
      <trkpt lat="48.669573" lon="1.882489">
        <ele>169.974224</ele>
        <time>2025-06-26T06:26:14.087Z</time>
      </trkpt>
      <trkpt lat="48.671971" lon="1.883472">
        <ele>169.745618</ele>
        <time>2025-06-26T06:27:03.105Z</time>
      </trkpt>
      <trkpt lat="48.673764" lon="1.884052">
        <ele>169.849395</ele>
        <time>2025-06-26T06:27:40.141Z</time>
      </trkpt>
      <trkpt lat="48.678352" lon="1.885768">
        <ele>171.661574</ele>
        <time>2025-06-26T06:29:23.348Z</time>
      </trkpt>
      <trkpt lat="48.682213" lon="1.886952">
        <ele>173.542728</ele>
        <time>2025-06-26T06:30:50.873Z</time>
      </trkpt>
      <trkpt lat="48.685603" lon="1.887882">
        <ele>174.335631</ele>
        <time>2025-06-26T06:32:05.725Z</time>
      </trkpt>
      <trkpt lat="48.685884" lon="1.887843">
        <ele>174.266996</ele>
        <time>2025-06-26T06:32:11.015Z</time>
      </trkpt>
      <trkpt lat="48.686174" lon="1.887846">
        <ele>174.196458</ele>
        <time>2025-06-26T06:32:16.289Z</time>
      </trkpt>
      <trkpt lat="48.687251" lon="1.887898">
        <ele>172.944709</ele>
        <time>2025-06-26T06:32:34.321Z</time>
      </trkpt>
      <trkpt lat="48.687504" lon="1.887803">
        <ele>172.542118</ele>
        <time>2025-06-26T06:32:38.491Z</time>
      </trkpt>
      <trkpt lat="48.687917" lon="1.887523">
        <ele>171.843257</ele>
        <time>2025-06-26T06:32:45.676Z</time>
      </trkpt>
      <trkpt lat="48.688621" lon="1.886904">
        <ele>170.937434</ele>
        <time>2025-06-26T06:32:58.882Z</time>
      </trkpt>
      <trkpt lat="48.688623" lon="1.886902">
        <ele>170.935454</ele>
        <time>2025-06-26T06:32:58.926Z</time>
      </trkpt>
      <trkpt lat="48.689154" lon="1.886661">
        <ele>170.477644</ele>
        <time>2025-06-26T06:33:08.499Z</time>
      </trkpt>
      <trkpt lat="48.690438" lon="1.886192">
        <ele>169.868224</ele>
        <time>2025-06-26T06:33:34.740Z</time>
      </trkpt>
      <trkpt lat="48.691114" lon="1.886149">
        <ele>169.883001</ele>
        <time>2025-06-26T06:33:48.962Z</time>
      </trkpt>
      <trkpt lat="48.693519" lon="1.886468">
        <ele>169.962907</ele>
        <time>2025-06-26T06:34:37.719Z</time>
      </trkpt>
      <trkpt lat="48.695143" lon="1.886868">
        <ele>170.059223</ele>
        <time>2025-06-26T06:35:12.929Z</time>
      </trkpt>
      <trkpt lat="48.695394" lon="1.886793">
        <ele>169.683614</ele>
        <time>2025-06-26T06:35:17.690Z</time>
      </trkpt>
      <trkpt lat="48.695634" lon="1.886854">
        <ele>169.117982</ele>
        <time>2025-06-26T06:35:21.921Z</time>
      </trkpt>
      <trkpt lat="48.695963" lon="1.886867">
        <ele>168.353020</ele>
        <time>2025-06-26T06:35:27.216Z</time>
      </trkpt>
      <trkpt lat="48.696515" lon="1.887083">
        <ele>167.027892</ele>
        <time>2025-06-26T06:35:35.702Z</time>
      </trkpt>
      <trkpt lat="48.696653" lon="1.887128">
        <ele>166.699791</ele>
        <time>2025-06-26T06:35:37.708Z</time>
      </trkpt>
      <trkpt lat="48.696998" lon="1.887131">
        <ele>165.897887</ele>
        <time>2025-06-26T06:35:42.559Z</time>
      </trkpt>
      <trkpt lat="48.697766" lon="1.886907">
        <ele>163.627648</ele>
        <time>2025-06-26T06:35:53.602Z</time>
      </trkpt>
      <trkpt lat="48.698123" lon="1.886821">
        <ele>162.576740</ele>
        <time>2025-06-26T06:35:58.934Z</time>
      </trkpt>
      <trkpt lat="48.698255" lon="1.886824">
        <ele>162.192947</ele>
        <time>2025-06-26T06:36:00.927Z</time>
      </trkpt>
      <trkpt lat="48.698761" lon="1.886933">
        <ele>160.707109</ele>
        <time>2025-06-26T06:36:08.982Z</time>
      </trkpt>
      <trkpt lat="48.699004" lon="1.886907">
        <ele>160.179391</ele>
        <time>2025-06-26T06:36:13.050Z</time>
      </trkpt>
      <trkpt lat="48.699038" lon="1.886984">
        <ele>160.050533</ele>
        <time>2025-06-26T06:36:13.759Z</time>
      </trkpt>
      <trkpt lat="48.699096" lon="1.887025">
        <ele>159.915655</ele>
        <time>2025-06-26T06:36:14.518Z</time>
      </trkpt>
      <trkpt lat="48.699447" lon="1.887187">
        <ele>159.142399</ele>
        <time>2025-06-26T06:36:18.950Z</time>
      </trkpt>
      <trkpt lat="48.699547" lon="1.887206">
        <ele>158.930009</ele>
        <time>2025-06-26T06:36:20.150Z</time>
      </trkpt>
      <trkpt lat="48.699827" lon="1.887185">
        <ele>158.339215</ele>
        <time>2025-06-26T06:36:23.384Z</time>
      </trkpt>
      <trkpt lat="48.700014" lon="1.887090">
        <ele>157.923569</ele>
        <time>2025-06-26T06:36:25.578Z</time>
      </trkpt>
      <trkpt lat="48.700103" lon="1.886974">
        <ele>157.676163</ele>
        <time>2025-06-26T06:36:26.823Z</time>
      </trkpt>
      <trkpt lat="48.700306" lon="1.886570">
        <ele>156.969931</ele>
        <time>2025-06-26T06:36:30.255Z</time>
      </trkpt>
      <trkpt lat="48.700655" lon="1.885684">
        <ele>154.528455</ele>
        <time>2025-06-26T06:36:36.820Z</time>
      </trkpt>
      <trkpt lat="48.700769" lon="1.884868">
        <ele>152.490343</ele>
        <time>2025-06-26T06:36:42.097Z</time>
      </trkpt>
      <trkpt lat="48.700969" lon="1.884572">
        <ele>151.455235</ele>
        <time>2025-06-26T06:36:44.836Z</time>
      </trkpt>
      <trkpt lat="48.701121" lon="1.884430">
        <ele>150.794102</ele>
        <time>2025-06-26T06:36:46.628Z</time>
      </trkpt>
      <trkpt lat="48.701187" lon="1.884410">
        <ele>150.544906</ele>
        <time>2025-06-26T06:36:47.313Z</time>
      </trkpt>
      <trkpt lat="48.701219" lon="1.884400">
        <ele>150.423936</ele>
        <time>2025-06-26T06:36:47.648Z</time>
      </trkpt>
      <trkpt lat="48.701309" lon="1.884428">
        <ele>150.161696</ele>
        <time>2025-06-26T06:36:48.593Z</time>
      </trkpt>
      <trkpt lat="48.701374" lon="1.884454">
        <ele>150.072462</ele>
        <time>2025-06-26T06:36:49.294Z</time>
      </trkpt>
      <trkpt lat="48.702080" lon="1.884870">
        <ele>149.066982</ele>
        <time>2025-06-26T06:36:58.025Z</time>
      </trkpt>
      <trkpt lat="48.702383" lon="1.885018">
        <ele>148.644413</ele>
        <time>2025-06-26T06:37:02.092Z</time>
      </trkpt>
      <trkpt lat="48.702522" lon="1.885264">
        <ele>148.360721</ele>
        <time>2025-06-26T06:37:04.697Z</time>
      </trkpt>
      <trkpt lat="48.704013" lon="1.885329">
        <ele>148.533410</ele>
        <time>2025-06-26T06:37:24.920Z</time>
      </trkpt>
      <trkpt lat="48.704467" lon="1.885357">
        <ele>148.833755</ele>
        <time>2025-06-26T06:37:34.831Z</time>
      </trkpt>
      <trkpt lat="48.704674" lon="1.885370">
        <ele>148.970701</ele>
        <time>2025-06-26T06:37:39.843Z</time>
      </trkpt>
      <trkpt lat="48.704917" lon="1.885429">
        <ele>149.641965</ele>
        <time>2025-06-26T06:37:46.066Z</time>
      </trkpt>
      <trkpt lat="48.704957" lon="1.885478">
        <ele>149.812493</ele>
        <time>2025-06-26T06:37:47.442Z</time>
      </trkpt>
      <trkpt lat="48.705138" lon="1.885696">
        <ele>150.579035</ele>
        <time>2025-06-26T06:37:53.755Z</time>
      </trkpt>
      <trkpt lat="48.705210" lon="1.885847">
        <ele>150.986621</ele>
        <time>2025-06-26T06:37:57.147Z</time>
      </trkpt>
      <trkpt lat="48.705269" lon="1.886113">
        <ele>151.600594</ele>
        <time>2025-06-26T06:38:02.099Z</time>
      </trkpt>
      <trkpt lat="48.705299" lon="1.886904">
        <ele>153.334078</ele>
        <time>2025-06-26T06:38:15.600Z</time>
      </trkpt>
      <trkpt lat="48.705358" lon="1.887642">
        <ele>154.960550</ele>
        <time>2025-06-26T06:38:30.526Z</time>
      </trkpt>
      <trkpt lat="48.705469" lon="1.888009">
        <ele>156.698914</ele>
        <time>2025-06-26T06:38:40.149Z</time>
      </trkpt>
      <trkpt lat="48.705553" lon="1.888148">
        <ele>157.514723</ele>
        <time>2025-06-26T06:38:44.936Z</time>
      </trkpt>
      <trkpt lat="48.705708" lon="1.888327">
        <ele>158.792953</ele>
        <time>2025-06-26T06:38:52.862Z</time>
      </trkpt>
      <trkpt lat="48.705913" lon="1.888685">
        <ele>160.844572</ele>
        <time>2025-06-26T06:39:06.501Z</time>
      </trkpt>
      <trkpt lat="48.705941" lon="1.888734">
        <ele>161.125128</ele>
        <time>2025-06-26T06:39:08.485Z</time>
      </trkpt>
      <trkpt lat="48.706373" lon="1.889877">
        <ele>166.794449</ele>
        <time>2025-06-26T06:39:49.404Z</time>
      </trkpt>
      <trkpt lat="48.706517" lon="1.890044">
        <ele>167.342223</ele>
        <time>2025-06-26T06:39:56.755Z</time>
      </trkpt>
      <trkpt lat="48.706675" lon="1.890162">
        <ele>167.874332</ele>
        <time>2025-06-26T06:40:03.277Z</time>
      </trkpt>
      <trkpt lat="48.706837" lon="1.890224">
        <ele>168.379073</ele>
        <time>2025-06-26T06:40:09.090Z</time>
      </trkpt>
      <trkpt lat="48.707004" lon="1.890243">
        <ele>168.884971</ele>
        <time>2025-06-26T06:40:14.495Z</time>
      </trkpt>
      <trkpt lat="48.710295" lon="1.890246">
        <ele>173.699098</ele>
        <time>2025-06-26T06:41:15.547Z</time>
      </trkpt>
      <trkpt lat="48.710972" lon="1.890285">
        <ele>173.585727</ele>
        <time>2025-06-26T06:41:25.136Z</time>
      </trkpt>
      <trkpt lat="48.711140" lon="1.890337">
        <ele>173.557034</ele>
        <time>2025-06-26T06:41:27.418Z</time>
      </trkpt>
      <trkpt lat="48.711246" lon="1.890847">
        <ele>173.497992</ele>
        <time>2025-06-26T06:41:31.940Z</time>
      </trkpt>
      <trkpt lat="48.711337" lon="1.891407">
        <ele>173.190323</ele>
        <time>2025-06-26T06:41:36.590Z</time>
      </trkpt>
      <trkpt lat="48.711530" lon="1.891888">
        <ele>172.620409</ele>
        <time>2025-06-26T06:41:40.920Z</time>
      </trkpt>
      <trkpt lat="48.711828" lon="1.892314">
        <ele>171.991896</ele>
        <time>2025-06-26T06:41:45.564Z</time>
      </trkpt>
      <trkpt lat="48.713046" lon="1.893296">
        <ele>170.184355</ele>
        <time>2025-06-26T06:42:00.973Z</time>
      </trkpt>
      <trkpt lat="48.713365" lon="1.893778">
        <ele>169.750843</ele>
        <time>2025-06-26T06:42:06.409Z</time>
      </trkpt>
      <trkpt lat="48.713554" lon="1.894383">
        <ele>169.325780</ele>
        <time>2025-06-26T06:42:12.644Z</time>
      </trkpt>
      <trkpt lat="48.713642" lon="1.895026">
        <ele>168.924783</ele>
        <time>2025-06-26T06:42:18.959Z</time>
      </trkpt>
      <trkpt lat="48.713730" lon="1.895657">
        <ele>168.616304</ele>
        <time>2025-06-26T06:42:24.395Z</time>
      </trkpt>
      <trkpt lat="48.713646" lon="1.895731">
        <ele>168.545873</ele>
        <time>2025-06-26T06:42:25.619Z</time>
      </trkpt>
      <trkpt lat="48.713620" lon="1.895794">
        <ele>168.510331</ele>
        <time>2025-06-26T06:42:26.231Z</time>
      </trkpt>
      <trkpt lat="48.713610" lon="1.895941">
        <ele>168.439647</ele>
        <time>2025-06-26T06:42:27.438Z</time>
      </trkpt>
      <trkpt lat="48.713628" lon="1.896011">
        <ele>168.403713</ele>
        <time>2025-06-26T06:42:28.049Z</time>
      </trkpt>
      <trkpt lat="48.713699" lon="1.896106">
        <ele>168.335056</ele>
        <time>2025-06-26T06:42:29.204Z</time>
      </trkpt>
      <trkpt lat="48.713793" lon="1.896123">
        <ele>168.266432</ele>
        <time>2025-06-26T06:42:30.353Z</time>
      </trkpt>
      <trkpt lat="48.713839" lon="1.896098">
        <ele>168.231007</ele>
        <time>2025-06-26T06:42:30.949Z</time>
      </trkpt>
      <trkpt lat="48.713902" lon="1.896002">
        <ele>168.166246</ele>
        <time>2025-06-26T06:42:32.050Z</time>
      </trkpt>
      <trkpt lat="48.713920" lon="1.895868">
        <ele>168.100839</ele>
        <time>2025-06-26T06:42:33.173Z</time>
      </trkpt>
      <trkpt lat="48.714347" lon="1.895925">
        <ele>167.790107</ele>
        <time>2025-06-26T06:42:38.476Z</time>
      </trkpt>
      <trkpt lat="48.714709" lon="1.896002">
        <ele>167.908905</ele>
        <time>2025-06-26T06:42:42.810Z</time>
      </trkpt>
      <trkpt lat="48.714928" lon="1.895950">
        <ele>168.174498</ele>
        <time>2025-06-26T06:42:45.841Z</time>
      </trkpt>
      <trkpt lat="48.715150" lon="1.895765">
        <ele>168.478040</ele>
        <time>2025-06-26T06:42:50.424Z</time>
      </trkpt>
      <trkpt lat="48.715375" lon="1.895769">
        <ele>168.747640</ele>
        <time>2025-06-26T06:42:55.011Z</time>
      </trkpt>
      <trkpt lat="48.715653" lon="1.895695">
        <ele>169.085821</ele>
        <time>2025-06-26T06:43:01.437Z</time>
      </trkpt>
      <trkpt lat="48.715816" lon="1.895715">
        <ele>169.281757</ele>
        <time>2025-06-26T06:43:05.427Z</time>
      </trkpt>
      <trkpt lat="48.715890" lon="1.895724">
        <ele>169.370704</ele>
        <time>2025-06-26T06:43:07.323Z</time>
      </trkpt>
      <trkpt lat="48.716805" lon="1.895888">
        <ele>170.728946</ele>
        <time>2025-06-26T06:43:30.105Z</time>
      </trkpt>
      <trkpt lat="48.717598" lon="1.896143">
        <ele>172.080321</ele>
        <time>2025-06-26T06:43:47.764Z</time>
      </trkpt>
      <trkpt lat="48.718465" lon="1.896345">
        <ele>172.921414</ele>
        <time>2025-06-26T06:44:03.390Z</time>
      </trkpt>
      <trkpt lat="48.718674" lon="1.896483">
        <ele>172.973297</ele>
        <time>2025-06-26T06:44:07.055Z</time>
      </trkpt>
      <trkpt lat="48.718579" lon="1.896763">
        <ele>173.020573</ele>
        <time>2025-06-26T06:44:10.329Z</time>
      </trkpt>
      <trkpt lat="48.718529" lon="1.896909">
        <ele>173.045273</ele>
        <time>2025-06-26T06:44:12.002Z</time>
      </trkpt>
      <trkpt lat="48.718487" lon="1.897034">
        <ele>173.066336</ele>
        <time>2025-06-26T06:44:13.425Z</time>
      </trkpt>
      <trkpt lat="48.718432" lon="1.897217">
        <ele>173.096530</ele>
        <time>2025-06-26T06:44:16.148Z</time>
      </trkpt>
      <trkpt lat="48.718412" lon="1.897306">
        <ele>173.110648</ele>
        <time>2025-06-26T06:44:17.396Z</time>
      </trkpt>
      <trkpt lat="48.718398" lon="1.897328">
        <ele>173.115237</ele>
        <time>2025-06-26T06:44:17.806Z</time>
      </trkpt>
      <trkpt lat="48.718363" lon="1.897538">
        <ele>173.147760</ele>
        <time>2025-06-26T06:44:20.668Z</time>
      </trkpt>
      <trkpt lat="48.718287" lon="1.898041">
        <ele>173.225242</ele>
        <time>2025-06-26T06:44:25.542Z</time>
      </trkpt>
      <trkpt lat="48.718289" lon="1.898391">
        <ele>173.027339</ele>
        <time>2025-06-26T06:44:28.821Z</time>
      </trkpt>
      <trkpt lat="48.718318" lon="1.898765">
        <ele>172.770928</ele>
        <time>2025-06-26T06:44:32.126Z</time>
      </trkpt>
      <trkpt lat="48.718325" lon="1.898821">
        <ele>172.732119</ele>
        <time>2025-06-26T06:44:32.625Z</time>
      </trkpt>
      <trkpt lat="48.718555" lon="1.899939">
        <ele>171.934719</ele>
        <time>2025-06-26T06:44:42.197Z</time>
      </trkpt>
      <trkpt lat="48.718604" lon="1.900189">
        <ele>171.757141</ele>
        <time>2025-06-26T06:44:44.205Z</time>
      </trkpt>
      <trkpt lat="48.719130" lon="1.902685">
        <ele>167.937366</ele>
        <time>2025-06-26T06:45:03.151Z</time>
      </trkpt>
      <trkpt lat="48.719214" lon="1.903128">
        <ele>167.168225</ele>
        <time>2025-06-26T06:45:06.210Z</time>
      </trkpt>
      <trkpt lat="48.719348" lon="1.903882">
        <ele>165.009476</ele>
        <time>2025-06-26T06:45:13.358Z</time>
      </trkpt>
      <trkpt lat="48.719434" lon="1.904110">
        <ele>164.181348</ele>
        <time>2025-06-26T06:45:15.706Z</time>
      </trkpt>
      <trkpt lat="48.719601" lon="1.904283">
        <ele>163.214590</ele>
        <time>2025-06-26T06:45:18.425Z</time>
      </trkpt>
      <trkpt lat="48.720134" lon="1.905048">
        <ele>159.706342</ele>
        <time>2025-06-26T06:45:28.258Z</time>
      </trkpt>
      <trkpt lat="48.720258" lon="1.905265">
        <ele>158.801138</ele>
        <time>2025-06-26T06:45:30.791Z</time>
      </trkpt>
      <trkpt lat="48.720349" lon="1.905549">
        <ele>157.747842</ele>
        <time>2025-06-26T06:45:33.613Z</time>
      </trkpt>
      <trkpt lat="48.720417" lon="1.905867">
        <ele>156.550522</ele>
        <time>2025-06-26T06:45:36.628Z</time>
      </trkpt>
      <trkpt lat="48.720424" lon="1.906225">
        <ele>155.267707</ele>
        <time>2025-06-26T06:45:39.905Z</time>
      </trkpt>
      <trkpt lat="48.720216" lon="1.907870">
        <ele>149.268544</ele>
        <time>2025-06-26T06:45:54.736Z</time>
      </trkpt>
      <trkpt lat="48.720200" lon="1.908255">
        <ele>147.830077</ele>
        <time>2025-06-26T06:45:57.968Z</time>
      </trkpt>
      <trkpt lat="48.720272" lon="1.908614">
        <ele>146.354360</ele>
        <time>2025-06-26T06:46:01.111Z</time>
      </trkpt>
      <trkpt lat="48.720847" lon="1.909587">
        <ele>141.216914</ele>
        <time>2025-06-26T06:46:12.187Z</time>
      </trkpt>
      <trkpt lat="48.720887" lon="1.909731">
        <ele>140.602427</ele>
        <time>2025-06-26T06:46:13.550Z</time>
      </trkpt>
      <trkpt lat="48.720976" lon="1.910435">
        <ele>137.783313</ele>
        <time>2025-06-26T06:46:19.921Z</time>
      </trkpt>
      <trkpt lat="48.721076" lon="1.910840">
        <ele>137.054512</ele>
        <time>2025-06-26T06:46:24.017Z</time>
      </trkpt>
      <trkpt lat="48.721258" lon="1.911829">
        <ele>135.379454</ele>
        <time>2025-06-26T06:46:34.673Z</time>
      </trkpt>
      <trkpt lat="48.721493" lon="1.913076">
        <ele>133.275774</ele>
        <time>2025-06-26T06:46:48.294Z</time>
      </trkpt>
      <trkpt lat="48.721575" lon="1.913411">
        <ele>132.912787</ele>
        <time>2025-06-26T06:46:52.096Z</time>
      </trkpt>
      <trkpt lat="48.721668" lon="1.913712">
        <ele>132.575136</ele>
        <time>2025-06-26T06:46:55.703Z</time>
      </trkpt>
      <trkpt lat="48.721845" lon="1.914146">
        <ele>132.056805</ele>
        <time>2025-06-26T06:47:01.320Z</time>
      </trkpt>
      <trkpt lat="48.721903" lon="1.914247">
        <ele>131.920776</ele>
        <time>2025-06-26T06:47:02.779Z</time>
      </trkpt>
      <trkpt lat="48.722125" lon="1.914485">
        <ele>131.502069</ele>
        <time>2025-06-26T06:47:07.302Z</time>
      </trkpt>
      <trkpt lat="48.722639" lon="1.914914">
        <ele>130.598535</ele>
        <time>2025-06-26T06:47:16.980Z</time>
      </trkpt>
      <trkpt lat="48.723427" lon="1.915608">
        <ele>129.257440</ele>
        <time>2025-06-26T06:47:31.923Z</time>
      </trkpt>
      <trkpt lat="48.723602" lon="1.915820">
        <ele>128.928618</ele>
        <time>2025-06-26T06:47:35.572Z</time>
      </trkpt>
      <trkpt lat="48.723767" lon="1.916169">
        <ele>128.512852</ele>
        <time>2025-06-26T06:47:40.201Z</time>
      </trkpt>
      <trkpt lat="48.723921" lon="1.916673">
        <ele>127.975015</ele>
        <time>2025-06-26T06:47:46.343Z</time>
      </trkpt>
      <trkpt lat="48.724062" lon="1.917179">
        <ele>127.471565</ele>
        <time>2025-06-26T06:47:50.614Z</time>
      </trkpt>
      <trkpt lat="48.724142" lon="1.917625">
        <ele>127.052759</ele>
        <time>2025-06-26T06:47:54.231Z</time>
      </trkpt>
      <trkpt lat="48.724143" lon="1.917857">
        <ele>126.842533</ele>
        <time>2025-06-26T06:47:56.055Z</time>
      </trkpt>
      <trkpt lat="48.724084" lon="1.918160">
        <ele>126.556266</ele>
        <time>2025-06-26T06:47:58.545Z</time>
      </trkpt>
      <trkpt lat="48.723537" lon="1.920356">
        <ele>124.457418</ele>
        <time>2025-06-26T06:48:16.335Z</time>
      </trkpt>
      <trkpt lat="48.723499" lon="1.920483">
        <ele>124.334661</ele>
        <time>2025-06-26T06:48:17.416Z</time>
      </trkpt>
      <trkpt lat="48.723398" lon="1.920880">
        <ele>123.960105</ele>
        <time>2025-06-26T06:48:20.714Z</time>
      </trkpt>
      <trkpt lat="48.723350" lon="1.920992">
        <ele>123.842535</ele>
        <time>2025-06-26T06:48:21.760Z</time>
      </trkpt>
      <trkpt lat="48.723275" lon="1.921174">
        <ele>123.653635</ele>
        <time>2025-06-26T06:48:23.436Z</time>
      </trkpt>
      <trkpt lat="48.723213" lon="1.921439">
        <ele>123.406125</ele>
        <time>2025-06-26T06:48:25.642Z</time>
      </trkpt>
      <trkpt lat="48.723141" lon="1.921765">
        <ele>123.103498</ele>
        <time>2025-06-26T06:48:28.353Z</time>
      </trkpt>
      <trkpt lat="48.723173" lon="1.921907">
        <ele>122.987010</ele>
        <time>2025-06-26T06:48:29.554Z</time>
      </trkpt>
      <trkpt lat="48.723053" lon="1.922166">
        <ele>122.807499</ele>
        <time>2025-06-26T06:48:32.107Z</time>
      </trkpt>
      <trkpt lat="48.722645" lon="1.922815">
        <ele>122.299022</ele>
        <time>2025-06-26T06:48:39.508Z</time>
      </trkpt>
      <trkpt lat="48.722413" lon="1.923123">
        <ele>122.033872</ele>
        <time>2025-06-26T06:48:43.270Z</time>
      </trkpt>
      <trkpt lat="48.722314" lon="1.923389">
        <ele>121.860645</ele>
        <time>2025-06-26T06:48:45.717Z</time>
      </trkpt>
      <trkpt lat="48.722058" lon="1.924309">
        <ele>121.453714</ele>
        <time>2025-06-26T06:48:53.992Z</time>
      </trkpt>
      <trkpt lat="48.721471" lon="1.926326">
        <ele>121.345137</ele>
        <time>2025-06-26T06:49:15.789Z</time>
      </trkpt>
      <trkpt lat="48.720979" lon="1.927848">
        <ele>120.818653</ele>
        <time>2025-06-26T06:49:34.094Z</time>
      </trkpt>
      <trkpt lat="48.720554" lon="1.929126">
        <ele>120.187154</ele>
        <time>2025-06-26T06:49:45.168Z</time>
      </trkpt>
      <trkpt lat="48.720531" lon="1.929369">
        <ele>119.925949</ele>
        <time>2025-06-26T06:49:46.862Z</time>
      </trkpt>
      <trkpt lat="48.720513" lon="1.930360">
        <ele>118.871101</ele>
        <time>2025-06-26T06:49:53.848Z</time>
      </trkpt>
      <trkpt lat="48.720476" lon="1.930697">
        <ele>118.507593</ele>
        <time>2025-06-26T06:49:56.384Z</time>
      </trkpt>
      <trkpt lat="48.720417" lon="1.930995">
        <ele>118.176543</ele>
        <time>2025-06-26T06:49:58.762Z</time>
      </trkpt>
      <trkpt lat="48.720115" lon="1.932781">
        <ele>116.687799</ele>
        <time>2025-06-26T06:50:14.154Z</time>
      </trkpt>
      <trkpt lat="48.720080" lon="1.933288">
        <ele>116.347573</ele>
        <time>2025-06-26T06:50:18.332Z</time>
      </trkpt>
      <trkpt lat="48.720158" lon="1.934270">
        <ele>115.687440</ele>
        <time>2025-06-26T06:50:26.019Z</time>
      </trkpt>
      <trkpt lat="48.720225" lon="1.935084">
        <ele>115.235335</ele>
        <time>2025-06-26T06:50:35.105Z</time>
      </trkpt>
      <trkpt lat="48.720237" lon="1.935395">
        <ele>115.065241</ele>
        <time>2025-06-26T06:50:38.638Z</time>
      </trkpt>
      <trkpt lat="48.720195" lon="1.936174">
        <ele>114.638495</ele>
        <time>2025-06-26T06:50:47.773Z</time>
      </trkpt>
      <trkpt lat="48.720199" lon="1.936587">
        <ele>114.412975</ele>
        <time>2025-06-26T06:50:52.794Z</time>
      </trkpt>
      <trkpt lat="48.720324" lon="1.938748">
        <ele>114.098351</ele>
        <time>2025-06-26T06:51:20.613Z</time>
      </trkpt>
      <trkpt lat="48.720288" lon="1.939378">
        <ele>114.070157</ele>
        <time>2025-06-26T06:51:29.560Z</time>
      </trkpt>
      <trkpt lat="48.720270" lon="1.940256">
        <ele>114.009177</ele>
        <time>2025-06-26T06:51:41.642Z</time>
      </trkpt>
      <trkpt lat="48.720239" lon="1.940616">
        <ele>113.977736</ele>
        <time>2025-06-26T06:51:46.807Z</time>
      </trkpt>
      <trkpt lat="48.720145" lon="1.941548">
        <ele>113.896084</ele>
        <time>2025-06-26T06:51:59.912Z</time>
      </trkpt>
      <trkpt lat="48.720142" lon="1.941865">
        <ele>113.868628</ele>
        <time>2025-06-26T06:52:03.782Z</time>
      </trkpt>
      <trkpt lat="48.720181" lon="1.942169">
        <ele>113.841807</ele>
        <time>2025-06-26T06:52:07.371Z</time>
      </trkpt>
      <trkpt lat="48.720298" lon="1.942739">
        <ele>113.673332</ele>
        <time>2025-06-26T06:52:14.253Z</time>
      </trkpt>
      <trkpt lat="48.720645" lon="1.943934">
        <ele>113.087401</ele>
        <time>2025-06-26T06:52:29.533Z</time>
      </trkpt>
      <trkpt lat="48.720824" lon="1.945415">
        <ele>112.609387</ele>
        <time>2025-06-26T06:52:47.827Z</time>
      </trkpt>
      <trkpt lat="48.721272" lon="1.947280">
        <ele>112.681745</ele>
        <time>2025-06-26T06:53:14.119Z</time>
      </trkpt>
      <trkpt lat="48.721391" lon="1.948037">
        <ele>112.969328</ele>
        <time>2025-06-26T06:53:26.354Z</time>
      </trkpt>
      <trkpt lat="48.721403" lon="1.948197">
        <ele>113.069206</ele>
        <time>2025-06-26T06:53:28.895Z</time>
      </trkpt>
      <trkpt lat="48.721386" lon="1.948340">
        <ele>113.159329</ele>
        <time>2025-06-26T06:53:31.232Z</time>
      </trkpt>
      <trkpt lat="48.721520" lon="1.948581">
        <ele>113.354816</ele>
        <time>2025-06-26T06:53:36.198Z</time>
      </trkpt>
      <trkpt lat="48.721690" lon="1.948866">
        <ele>113.593127</ele>
        <time>2025-06-26T06:53:42.374Z</time>
      </trkpt>
      <trkpt lat="48.721703" lon="1.948906">
        <ele>113.620783</ele>
        <time>2025-06-26T06:53:43.089Z</time>
      </trkpt>
      <trkpt lat="48.721797" lon="1.949266">
        <ele>113.860923</ele>
        <time>2025-06-26T06:53:49.498Z</time>
      </trkpt>
      <trkpt lat="48.721896" lon="1.949962">
        <ele>114.302529</ele>
        <time>2025-06-26T06:54:01.776Z</time>
      </trkpt>
      <trkpt lat="48.722051" lon="1.950763">
        <ele>114.294101</ele>
        <time>2025-06-26T06:54:14.542Z</time>
      </trkpt>
      <trkpt lat="48.722206" lon="1.951387">
        <ele>114.207804</ele>
        <time>2025-06-26T06:54:23.048Z</time>
      </trkpt>
      <trkpt lat="48.722217" lon="1.951693">
        <ele>114.168141</ele>
        <time>2025-06-26T06:54:26.758Z</time>
      </trkpt>
      <trkpt lat="48.722148" lon="1.952512">
        <ele>114.061280</ele>
        <time>2025-06-26T06:54:36.292Z</time>
      </trkpt>
      <trkpt lat="48.722184" lon="1.952938">
        <ele>113.895987</ele>
        <time>2025-06-26T06:54:41.130Z</time>
      </trkpt>
      <trkpt lat="48.722413" lon="1.953993">
        <ele>113.154430</ele>
        <time>2025-06-26T06:54:53.899Z</time>
      </trkpt>
      <trkpt lat="48.722496" lon="1.954201">
        <ele>112.992122</ele>
        <time>2025-06-26T06:54:56.699Z</time>
      </trkpt>
      <trkpt lat="48.722912" lon="1.954508">
        <ele>112.523847</ele>
        <time>2025-06-26T06:55:04.667Z</time>
      </trkpt>
      <trkpt lat="48.723163" lon="1.954623">
        <ele>112.258462</ele>
        <time>2025-06-26T06:55:09.082Z</time>
      </trkpt>
      <trkpt lat="48.723296" lon="1.954627">
        <ele>112.243457</ele>
        <time>2025-06-26T06:55:11.319Z</time>
      </trkpt>
      <trkpt lat="48.723503" lon="1.954578">
        <ele>112.320139</ele>
        <time>2025-06-26T06:55:14.961Z</time>
      </trkpt>
      <trkpt lat="48.723879" lon="1.955647">
        <ele>112.612646</ele>
        <time>2025-06-26T06:55:30.164Z</time>
      </trkpt>
      <trkpt lat="48.723919" lon="1.955770">
        <ele>112.645756</ele>
        <time>2025-06-26T06:55:31.985Z</time>
      </trkpt>
      <trkpt lat="48.724018" lon="1.956154">
        <ele>112.745302</ele>
        <time>2025-06-26T06:55:37.850Z</time>
      </trkpt>
      <trkpt lat="48.725372" lon="1.955332">
        <ele>117.466907</ele>
        <time>2025-06-26T06:56:17.138Z</time>
      </trkpt>
      <trkpt lat="48.725466" lon="1.955303">
        <ele>117.861386</ele>
        <time>2025-06-26T06:56:20.597Z</time>
      </trkpt>
      <trkpt lat="48.725558" lon="1.955319">
        <ele>118.242198</ele>
        <time>2025-06-26T06:56:23.975Z</time>
      </trkpt>
      <trkpt lat="48.725645" lon="1.955355">
        <ele>118.613056</ele>
        <time>2025-06-26T06:56:27.314Z</time>
      </trkpt>
      <trkpt lat="48.725697" lon="1.955418">
        <ele>118.886797</ele>
        <time>2025-06-26T06:56:29.828Z</time>
      </trkpt>
      <trkpt lat="48.725753" lon="1.955542">
        <ele>119.294453</ele>
        <time>2025-06-26T06:56:33.606Z</time>
      </trkpt>
      <trkpt lat="48.725854" lon="1.956000">
        <ele>120.850261</ele>
        <time>2025-06-26T06:56:46.394Z</time>
      </trkpt>
      <trkpt lat="48.725924" lon="1.956163">
        <ele>121.761642</ele>
        <time>2025-06-26T06:56:51.803Z</time>
      </trkpt>
      <trkpt lat="48.726016" lon="1.956256">
        <ele>122.547122</ele>
        <time>2025-06-26T06:56:56.594Z</time>
      </trkpt>
      <trkpt lat="48.726121" lon="1.956309">
        <ele>123.333235</ele>
        <time>2025-06-26T06:57:01.467Z</time>
      </trkpt>
      <trkpt lat="48.726245" lon="1.956320">
        <ele>124.215559</ele>
        <time>2025-06-26T06:57:07.014Z</time>
      </trkpt>
      <trkpt lat="48.726559" lon="1.956174">
        <ele>126.548573</ele>
        <time>2025-06-26T06:57:21.665Z</time>
      </trkpt>
      <trkpt lat="48.726635" lon="1.956168">
        <ele>127.089160</ele>
        <time>2025-06-26T06:57:25.018Z</time>
      </trkpt>
      <trkpt lat="48.726791" lon="1.956258">
        <ele>128.274818</ele>
        <time>2025-06-26T06:57:32.226Z</time>
      </trkpt>
      <trkpt lat="48.726849" lon="1.956414">
        <ele>129.113902</ele>
        <time>2025-06-26T06:57:37.228Z</time>
      </trkpt>
      <trkpt lat="48.726885" lon="1.956743">
        <ele>130.676572</ele>
        <time>2025-06-26T06:57:46.463Z</time>
      </trkpt>
      <trkpt lat="48.726921" lon="1.956846">
        <ele>131.222763</ele>
        <time>2025-06-26T06:57:49.720Z</time>
      </trkpt>
      <trkpt lat="48.726965" lon="1.956945">
        <ele>131.782117</ele>
        <time>2025-06-26T06:57:53.096Z</time>
      </trkpt>
      <trkpt lat="48.727075" lon="1.957043">
        <ele>132.688430</ele>
        <time>2025-06-26T06:57:58.693Z</time>
      </trkpt>
      <trkpt lat="48.727222" lon="1.957057">
        <ele>133.869330</ele>
        <time>2025-06-26T06:58:05.383Z</time>
      </trkpt>
      <trkpt lat="48.727325" lon="1.956990">
        <ele>134.820459</ele>
        <time>2025-06-26T06:58:10.614Z</time>
      </trkpt>
      <trkpt lat="48.727616" lon="1.956691">
        <ele>137.803658</ele>
        <time>2025-06-26T06:58:27.689Z</time>
      </trkpt>
      <trkpt lat="48.727758" lon="1.956671">
        <ele>139.013865</ele>
        <time>2025-06-26T06:58:34.807Z</time>
      </trkpt>
      <trkpt lat="48.727849" lon="1.956703">
        <ele>139.806598</ele>
        <time>2025-06-26T06:58:39.490Z</time>
      </trkpt>
      <trkpt lat="48.727915" lon="1.956746">
        <ele>140.416208</ele>
        <time>2025-06-26T06:58:43.129Z</time>
      </trkpt>
      <trkpt lat="48.727975" lon="1.956851">
        <ele>141.193836</ele>
        <time>2025-06-26T06:58:47.759Z</time>
      </trkpt>
      <trkpt lat="48.728022" lon="1.957383">
        <ele>144.198394</ele>
        <time>2025-06-26T06:59:05.758Z</time>
      </trkpt>
      <trkpt lat="48.728088" lon="1.957572">
        <ele>145.395461</ele>
        <time>2025-06-26T06:59:12.896Z</time>
      </trkpt>
      <trkpt lat="48.728157" lon="1.957650">
        <ele>146.125864</ele>
        <time>2025-06-26T06:59:17.309Z</time>
      </trkpt>
      <trkpt lat="48.728358" lon="1.957739">
        <ele>147.902824</ele>
        <time>2025-06-26T06:59:27.923Z</time>
      </trkpt>
      <trkpt lat="48.728721" lon="1.957770">
        <ele>150.462942</ele>
        <time>2025-06-26T06:59:46.251Z</time>
      </trkpt>
      <trkpt lat="48.728842" lon="1.957812">
        <ele>151.310035</ele>
        <time>2025-06-26T06:59:52.276Z</time>
      </trkpt>
      <trkpt lat="48.729366" lon="1.958197">
        <ele>155.283724</ele>
        <time>2025-06-26T07:00:18.182Z</time>
      </trkpt>
      <trkpt lat="48.729743" lon="1.958282">
        <ele>157.884734</ele>
        <time>2025-06-26T07:00:33.135Z</time>
      </trkpt>
      <trkpt lat="48.730442" lon="1.958237">
        <ele>161.595860</ele>
        <time>2025-06-26T07:00:57.436Z</time>
      </trkpt>
      <trkpt lat="48.733296" lon="1.957910">
        <ele>169.821211</ele>
        <time>2025-06-26T07:02:12.012Z</time>
      </trkpt>
      <trkpt lat="48.733416" lon="1.957877">
        <ele>170.110502</ele>
        <time>2025-06-26T07:02:14.578Z</time>
      </trkpt>
      <trkpt lat="48.733701" lon="1.957715">
        <ele>170.832484</ele>
        <time>2025-06-26T07:02:20.781Z</time>
      </trkpt>
      <trkpt lat="48.734625" lon="1.957074">
        <ele>171.602386</ele>
        <time>2025-06-26T07:02:39.071Z</time>
      </trkpt>
      <trkpt lat="48.734965" lon="1.956912">
        <ele>171.870014</ele>
        <time>2025-06-26T07:02:45.071Z</time>
      </trkpt>
      <trkpt lat="48.735134" lon="1.956902">
        <ele>171.997018</ele>
        <time>2025-06-26T07:02:47.923Z</time>
      </trkpt>
      <trkpt lat="48.735358" lon="1.956981">
        <ele>172.169718</ele>
        <time>2025-06-26T07:02:51.755Z</time>
      </trkpt>
      <trkpt lat="48.736612" lon="1.957991">
        <ele>172.566087</ele>
        <time>2025-06-26T07:03:14.810Z</time>
      </trkpt>
      <trkpt lat="48.736972" lon="1.958291">
        <ele>172.676035</ele>
        <time>2025-06-26T07:03:20.942Z</time>
      </trkpt>
      <trkpt lat="48.737148" lon="1.958478">
        <ele>172.642054</ele>
        <time>2025-06-26T07:03:24.098Z</time>
      </trkpt>
      <trkpt lat="48.737279" lon="1.958633">
        <ele>172.615780</ele>
        <time>2025-06-26T07:03:26.530Z</time>
      </trkpt>
      <trkpt lat="48.737626" lon="1.959068">
        <ele>172.544588</ele>
        <time>2025-06-26T07:03:33.021Z</time>
      </trkpt>
      <trkpt lat="48.738373" lon="1.960003">
        <ele>172.390643</ele>
        <time>2025-06-26T07:03:46.438Z</time>
      </trkpt>
      <trkpt lat="48.738621" lon="1.960354">
        <ele>172.212722</ele>
        <time>2025-06-26T07:03:51.046Z</time>
      </trkpt>
      <trkpt lat="48.739362" lon="1.961173">
        <ele>171.731817</ele>
        <time>2025-06-26T07:04:03.394Z</time>
      </trkpt>
      <trkpt lat="48.739656" lon="1.961548">
        <ele>171.530329</ele>
        <time>2025-06-26T07:04:08.236Z</time>
      </trkpt>
      <trkpt lat="48.739796" lon="1.961744">
        <ele>171.421174</ele>
        <time>2025-06-26T07:04:10.618Z</time>
      </trkpt>
      <trkpt lat="48.739941" lon="1.961941">
        <ele>171.266928</ele>
        <time>2025-06-26T07:04:13.060Z</time>
      </trkpt>
      <trkpt lat="48.740766" lon="1.963131">
        <ele>170.364818</ele>
        <time>2025-06-26T07:04:27.293Z</time>
      </trkpt>
      <trkpt lat="48.740940" lon="1.963406">
        <ele>170.165700</ele>
        <time>2025-06-26T07:04:30.480Z</time>
      </trkpt>
      <trkpt lat="48.741345" lon="1.963778">
        <ele>169.857821</ele>
        <time>2025-06-26T07:04:36.527Z</time>
      </trkpt>
      <trkpt lat="48.741458" lon="1.963848">
        <ele>169.789046</ele>
        <time>2025-06-26T07:04:38.128Z</time>
      </trkpt>
      <trkpt lat="48.741719" lon="1.963854">
        <ele>169.641972</ele>
        <time>2025-06-26T07:04:41.610Z</time>
      </trkpt>
      <trkpt lat="48.742182" lon="1.963970">
        <ele>169.377566</ele>
        <time>2025-06-26T07:04:47.825Z</time>
      </trkpt>
      <trkpt lat="48.742281" lon="1.964011">
        <ele>169.319743</ele>
        <time>2025-06-26T07:04:49.161Z</time>
      </trkpt>
      <trkpt lat="48.742490" lon="1.964098">
        <ele>169.197629</ele>
        <time>2025-06-26T07:04:52.044Z</time>
      </trkpt>
      <trkpt lat="48.742599" lon="1.964192">
        <ele>169.126978</ele>
        <time>2025-06-26T07:04:53.761Z</time>
      </trkpt>
      <trkpt lat="48.742151" lon="1.965210">
        <ele>168.616372</ele>
        <time>2025-06-26T07:05:04.462Z</time>
      </trkpt>
      <trkpt lat="48.741935" lon="1.965758">
        <ele>168.339922</ele>
        <time>2025-06-26T07:05:09.795Z</time>
      </trkpt>
      <trkpt lat="48.741447" lon="1.967015">
        <ele>167.756026</ele>
        <time>2025-06-26T07:05:21.966Z</time>
      </trkpt>
      <trkpt lat="48.741090" lon="1.967845">
        <ele>167.496631</ele>
        <time>2025-06-26T07:05:30.237Z</time>
      </trkpt>
      <trkpt lat="48.740274" lon="1.968919">
        <ele>167.138695</ele>
        <time>2025-06-26T07:05:45.685Z</time>
      </trkpt>
      <trkpt lat="48.739656" lon="1.969744">
        <ele>167.302287</ele>
        <time>2025-06-26T07:05:58.787Z</time>
      </trkpt>
      <trkpt lat="48.739190" lon="1.970958">
        <ele>167.475217</ele>
        <time>2025-06-26T07:06:13.597Z</time>
      </trkpt>
      <trkpt lat="48.738859" lon="1.971829">
        <ele>167.501897</ele>
        <time>2025-06-26T07:06:23.900Z</time>
      </trkpt>
      <trkpt lat="48.738493" lon="1.972606">
        <ele>167.527238</ele>
        <time>2025-06-26T07:06:33.567Z</time>
      </trkpt>
      <trkpt lat="48.737721" lon="1.973660">
        <ele>167.278462</ele>
        <time>2025-06-26T07:06:47.876Z</time>
      </trkpt>
      <trkpt lat="48.737526" lon="1.973915">
        <ele>167.164751</ele>
        <time>2025-06-26T07:06:51.270Z</time>
      </trkpt>
      <trkpt lat="48.737381" lon="1.974164">
        <ele>167.068011</ele>
        <time>2025-06-26T07:06:54.142Z</time>
      </trkpt>
      <trkpt lat="48.736953" lon="1.974900">
        <ele>166.782237</ele>
        <time>2025-06-26T07:07:02.523Z</time>
      </trkpt>
      <trkpt lat="48.734372" lon="1.978210">
        <ele>165.620962</ele>
        <time>2025-06-26T07:07:49.243Z</time>
      </trkpt>
      <trkpt lat="48.733428" lon="1.979417">
        <ele>164.719830</ele>
        <time>2025-06-26T07:08:04.911Z</time>
      </trkpt>
      <trkpt lat="48.729798" lon="1.984030">
        <ele>160.782601</ele>
        <time>2025-06-26T07:09:03.416Z</time>
      </trkpt>
      <trkpt lat="48.728912" lon="1.985031">
        <ele>160.893391</ele>
        <time>2025-06-26T07:09:19.466Z</time>
      </trkpt>
      <trkpt lat="48.727237" lon="1.986584">
        <ele>162.637348</ele>
        <time>2025-06-26T07:09:58.727Z</time>
      </trkpt>
      <trkpt lat="48.726221" lon="1.987307">
        <ele>162.983630</ele>
        <time>2025-06-26T07:10:17.453Z</time>
      </trkpt>
      <trkpt lat="48.725909" lon="1.987455">
        <ele>163.013842</ele>
        <time>2025-06-26T07:10:21.986Z</time>
      </trkpt>
      <trkpt lat="48.725184" lon="1.987799">
        <ele>163.045637</ele>
        <time>2025-06-26T07:10:32.254Z</time>
      </trkpt>
      <trkpt lat="48.724775" lon="1.988198">
        <ele>162.979517</ele>
        <time>2025-06-26T07:10:38.865Z</time>
      </trkpt>
      <trkpt lat="48.724477" lon="1.988831">
        <ele>162.909776</ele>
        <time>2025-06-26T07:10:46.160Z</time>
      </trkpt>
      <trkpt lat="48.723218" lon="1.992476">
        <ele>162.780795</ele>
        <time>2025-06-26T07:11:27.199Z</time>
      </trkpt>
      <trkpt lat="48.722474" lon="1.994139">
        <ele>162.403094</ele>
        <time>2025-06-26T07:11:45.712Z</time>
      </trkpt>
      <trkpt lat="48.722138" lon="1.994990">
        <ele>161.784532</ele>
        <time>2025-06-26T07:11:53.902Z</time>
      </trkpt>
      <trkpt lat="48.722009" lon="1.995386">
        <ele>161.431170</ele>
        <time>2025-06-26T07:11:57.372Z</time>
      </trkpt>
      <trkpt lat="48.721904" lon="1.995853">
        <ele>161.036418</ele>
        <time>2025-06-26T07:12:01.135Z</time>
      </trkpt>
      <trkpt lat="48.721764" lon="1.996816">
        <ele>160.247431</ele>
        <time>2025-06-26T07:12:08.598Z</time>
      </trkpt>
      <trkpt lat="48.721673" lon="1.997213">
        <ele>159.866690</ele>
        <time>2025-06-26T07:12:11.768Z</time>
      </trkpt>
      <trkpt lat="48.721541" lon="1.997575">
        <ele>159.478443</ele>
        <time>2025-06-26T07:12:14.893Z</time>
      </trkpt>
      <trkpt lat="48.721120" lon="1.998318">
        <ele>158.559082</ele>
        <time>2025-06-26T07:12:22.284Z</time>
      </trkpt>
      <trkpt lat="48.721027" lon="1.998568">
        <ele>158.289677</ele>
        <time>2025-06-26T07:12:24.469Z</time>
      </trkpt>
      <trkpt lat="48.720633" lon="2.000061">
        <ele>157.398431</ele>
        <time>2025-06-26T07:12:37.202Z</time>
      </trkpt>
      <trkpt lat="48.720270" lon="2.001241">
        <ele>157.088108</ele>
        <time>2025-06-26T07:12:49.448Z</time>
      </trkpt>
      <trkpt lat="48.720155" lon="2.001719">
        <ele>156.966838</ele>
        <time>2025-06-26T07:12:54.912Z</time>
      </trkpt>
      <trkpt lat="48.720080" lon="2.001855">
        <ele>157.012364</ele>
        <time>2025-06-26T07:12:56.838Z</time>
      </trkpt>
      <trkpt lat="48.719994" lon="2.001891">
        <ele>157.062348</ele>
        <time>2025-06-26T07:12:58.321Z</time>
      </trkpt>
      <trkpt lat="48.719930" lon="2.001969">
        <ele>157.108356</ele>
        <time>2025-06-26T07:12:59.661Z</time>
      </trkpt>
      <trkpt lat="48.719887" lon="2.002079">
        <ele>157.155615</ele>
        <time>2025-06-26T07:13:01.056Z</time>
      </trkpt>
      <trkpt lat="48.719877" lon="2.002210">
        <ele>157.204357</ele>
        <time>2025-06-26T07:13:02.474Z</time>
      </trkpt>
      <trkpt lat="48.719895" lon="2.002321">
        <ele>157.246605</ele>
        <time>2025-06-26T07:13:03.717Z</time>
      </trkpt>
      <trkpt lat="48.719999" lon="2.002478">
        <ele>157.328838</ele>
        <time>2025-06-26T07:13:06.102Z</time>
      </trkpt>
      <trkpt lat="48.720084" lon="2.002513">
        <ele>157.378184</ele>
        <time>2025-06-26T07:13:07.575Z</time>
      </trkpt>
      <trkpt lat="48.720157" lon="2.002503">
        <ele>157.419248</ele>
        <time>2025-06-26T07:13:08.833Z</time>
      </trkpt>
      <trkpt lat="48.720265" lon="2.002391">
        <ele>157.492560</ele>
        <time>2025-06-26T07:13:11.038Z</time>
      </trkpt>
      <trkpt lat="48.720435" lon="2.002336">
        <ele>157.589946</ele>
        <time>2025-06-26T07:13:13.943Z</time>
      </trkpt>
      <trkpt lat="48.720865" lon="2.002513">
        <ele>157.839574</ele>
        <time>2025-06-26T07:13:21.408Z</time>
      </trkpt>
      <trkpt lat="48.721021" lon="2.002522">
        <ele>157.927035</ele>
        <time>2025-06-26T07:13:24.062Z</time>
      </trkpt>
      <trkpt lat="48.726149" lon="2.002935">
        <ele>164.778845</ele>
        <time>2025-06-26T07:15:09.207Z</time>
      </trkpt>
      <trkpt lat="48.726731" lon="2.002999">
        <ele>165.190235</ele>
        <time>2025-06-26T07:15:20.681Z</time>
      </trkpt>
      <trkpt lat="48.726951" lon="2.003065">
        <ele>165.167142</ele>
        <time>2025-06-26T07:15:24.624Z</time>
      </trkpt>
      <trkpt lat="48.727187" lon="2.003093">
        <ele>165.142767</ele>
        <time>2025-06-26T07:15:28.518Z</time>
      </trkpt>
      <trkpt lat="48.727349" lon="2.003106">
        <ele>165.126063</ele>
        <time>2025-06-26T07:15:31.019Z</time>
      </trkpt>
      <trkpt lat="48.727612" lon="2.003121">
        <ele>165.098963</ele>
        <time>2025-06-26T07:15:34.755Z</time>
      </trkpt>
      <trkpt lat="48.727830" lon="2.003094">
        <ele>165.076442</ele>
        <time>2025-06-26T07:15:37.645Z</time>
      </trkpt>
      <trkpt lat="48.728927" lon="2.003194">
        <ele>163.637515</ele>
        <time>2025-06-26T07:15:50.300Z</time>
      </trkpt>
      <trkpt lat="48.729448" lon="2.003223">
        <ele>162.532667</ele>
        <time>2025-06-26T07:15:55.803Z</time>
      </trkpt>
      <trkpt lat="48.730357" lon="2.003305">
        <ele>160.817764</ele>
        <time>2025-06-26T07:16:05.342Z</time>
      </trkpt>
      <trkpt lat="48.730534" lon="2.003351">
        <ele>160.569849</ele>
        <time>2025-06-26T07:16:07.264Z</time>
      </trkpt>
      <trkpt lat="48.730866" lon="2.003538">
        <ele>160.080909</ele>
        <time>2025-06-26T07:16:11.191Z</time>
      </trkpt>
      <trkpt lat="48.731150" lon="2.003889">
        <ele>159.575075</ele>
        <time>2025-06-26T07:16:15.512Z</time>
      </trkpt>
      <trkpt lat="48.732411" lon="2.006188">
        <ele>158.267348</ele>
        <time>2025-06-26T07:16:43.441Z</time>
      </trkpt>
      <trkpt lat="48.732428" lon="2.006219">
        <ele>158.258210</ele>
        <time>2025-06-26T07:16:43.842Z</time>
      </trkpt>
      <trkpt lat="48.734144" lon="2.009323">
        <ele>154.965282</ele>
        <time>2025-06-26T07:17:17.336Z</time>
      </trkpt>
      <trkpt lat="48.734635" lon="2.010257">
        <ele>152.276154</ele>
        <time>2025-06-26T07:17:25.298Z</time>
      </trkpt>
      <trkpt lat="48.734995" lon="2.010854">
        <ele>150.454923</ele>
        <time>2025-06-26T07:17:30.280Z</time>
      </trkpt>
      <trkpt lat="48.735411" lon="2.011383">
        <ele>146.754838</ele>
        <time>2025-06-26T07:17:35.191Z</time>
      </trkpt>
      <trkpt lat="48.736159" lon="2.012059">
        <ele>140.752674</ele>
        <time>2025-06-26T07:17:42.948Z</time>
      </trkpt>
      <trkpt lat="48.736445" lon="2.012451">
        <ele>138.095288</ele>
        <time>2025-06-26T07:17:46.398Z</time>
      </trkpt>
      <trkpt lat="48.736547" lon="2.012659">
        <ele>136.926780</ele>
        <time>2025-06-26T07:17:47.938Z</time>
      </trkpt>
      <trkpt lat="48.736775" lon="2.013256">
        <ele>133.818601</ele>
        <time>2025-06-26T07:17:52.059Z</time>
      </trkpt>
      <trkpt lat="48.737652" lon="2.015852">
        <ele>120.532840</ele>
        <time>2025-06-26T07:18:09.414Z</time>
      </trkpt>
      <trkpt lat="48.737693" lon="2.015994">
        <ele>119.814464</ele>
        <time>2025-06-26T07:18:10.320Z</time>
      </trkpt>
      <trkpt lat="48.737724" lon="2.016109">
        <ele>119.238718</ele>
        <time>2025-06-26T07:18:11.045Z</time>
      </trkpt>
      <trkpt lat="48.737783" lon="2.016532">
        <ele>117.235045</ele>
        <time>2025-06-26T07:18:13.574Z</time>
      </trkpt>
      <trkpt lat="48.737786" lon="2.016669">
        <ele>116.599795</ele>
        <time>2025-06-26T07:18:14.377Z</time>
      </trkpt>
      <trkpt lat="48.737742" lon="2.016771">
        <ele>116.034959</ele>
        <time>2025-06-26T07:18:15.098Z</time>
      </trkpt>
      <trkpt lat="48.737744" lon="2.016873">
        <ele>115.562050</ele>
        <time>2025-06-26T07:18:15.693Z</time>
      </trkpt>
      <trkpt lat="48.737782" lon="2.016957">
        <ele>115.089989</ele>
        <time>2025-06-26T07:18:16.290Z</time>
      </trkpt>
      <trkpt lat="48.737886" lon="2.016995">
        <ele>114.338270</ele>
        <time>2025-06-26T07:18:17.245Z</time>
      </trkpt>
      <trkpt lat="48.737988" lon="2.017109">
        <ele>113.447856</ele>
        <time>2025-06-26T07:18:18.381Z</time>
      </trkpt>
      <trkpt lat="48.738172" lon="2.017441">
        <ele>111.987778</ele>
        <time>2025-06-26T07:18:20.956Z</time>
      </trkpt>
      <trkpt lat="48.738641" lon="2.018827">
        <ele>107.171210</ele>
        <time>2025-06-26T07:18:30.682Z</time>
      </trkpt>
      <trkpt lat="48.739103" lon="2.020193">
        <ele>105.084471</ele>
        <time>2025-06-26T07:18:40.960Z</time>
      </trkpt>
      <trkpt lat="48.739454" lon="2.021237">
        <ele>105.778103</ele>
        <time>2025-06-26T07:18:54.500Z</time>
      </trkpt>
      <trkpt lat="48.739506" lon="2.021394">
        <ele>105.882095</ele>
        <time>2025-06-26T07:18:57.844Z</time>
      </trkpt>
      <trkpt lat="48.739557" lon="2.021556">
        <ele>105.988350</ele>
        <time>2025-06-26T07:19:01.586Z</time>
      </trkpt>
      <trkpt lat="48.739916" lon="2.022665">
        <ele>108.802576</ele>
        <time>2025-06-26T07:19:31.085Z</time>
      </trkpt>
      <trkpt lat="48.740043" lon="2.022910">
        <ele>109.844361</ele>
        <time>2025-06-26T07:19:38.897Z</time>
      </trkpt>
      <trkpt lat="48.740142" lon="2.022994">
        <ele>110.419442</ele>
        <time>2025-06-26T07:19:43.249Z</time>
      </trkpt>
      <trkpt lat="48.740243" lon="2.023028">
        <ele>110.943903</ele>
        <time>2025-06-26T07:19:47.177Z</time>
      </trkpt>
      <trkpt lat="48.740436" lon="2.022978">
        <ele>111.936446</ele>
        <time>2025-06-26T07:19:54.327Z</time>
      </trkpt>
      <trkpt lat="48.740552" lon="2.022873">
        <ele>112.621280</ele>
        <time>2025-06-26T07:19:59.029Z</time>
      </trkpt>
      <trkpt lat="48.741056" lon="2.021775">
        <ele>117.028749</ele>
        <time>2025-06-26T07:20:28.277Z</time>
      </trkpt>
      <trkpt lat="48.741251" lon="2.021553">
        <ele>118.217855</ele>
        <time>2025-06-26T07:20:36.572Z</time>
      </trkpt>
      <trkpt lat="48.741884" lon="2.021057">
        <ele>121.692485</ele>
        <time>2025-06-26T07:21:01.891Z</time>
      </trkpt>
      <trkpt lat="48.741991" lon="2.020906">
        <ele>122.405276</ele>
        <time>2025-06-26T07:21:07.125Z</time>
      </trkpt>
      <trkpt lat="48.742169" lon="2.020482">
        <ele>124.021651</ele>
        <time>2025-06-26T07:21:18.820Z</time>
      </trkpt>
      <trkpt lat="48.742369" lon="2.020217">
        <ele>125.307671</ele>
        <time>2025-06-26T07:21:27.697Z</time>
      </trkpt>
      <trkpt lat="48.742921" lon="2.019909">
        <ele>128.153266</ele>
        <time>2025-06-26T07:21:45.474Z</time>
      </trkpt>
      <trkpt lat="48.743721" lon="2.019152">
        <ele>132.715313</ele>
        <time>2025-06-26T07:22:16.276Z</time>
      </trkpt>
      <trkpt lat="48.744098" lon="2.018869">
        <ele>136.189362</ele>
        <time>2025-06-26T07:22:34.986Z</time>
      </trkpt>
      <trkpt lat="48.744265" lon="2.018816">
        <ele>137.643825</ele>
        <time>2025-06-26T07:22:43.305Z</time>
      </trkpt>
      <trkpt lat="48.744444" lon="2.018812">
        <ele>139.169908</ele>
        <time>2025-06-26T07:22:52.346Z</time>
      </trkpt>
      <trkpt lat="48.744636" lon="2.018912">
        <ele>140.900488</ele>
        <time>2025-06-26T07:23:03.073Z</time>
      </trkpt>
      <trkpt lat="48.744888" lon="2.019156">
        <ele>143.449238</ele>
        <time>2025-06-26T07:23:19.633Z</time>
      </trkpt>
      <trkpt lat="48.744989" lon="2.019299">
        <ele>144.627148</ele>
        <time>2025-06-26T07:23:27.523Z</time>
      </trkpt>
      <trkpt lat="48.745879" lon="2.021075">
        <ele>155.649358</ele>
        <time>2025-06-26T07:24:42.404Z</time>
      </trkpt>
      <trkpt lat="48.746183" lon="2.021760">
        <ele>159.505944</ele>
        <time>2025-06-26T07:25:02.363Z</time>
      </trkpt>
      <trkpt lat="48.746336" lon="2.022356">
        <ele>161.156078</ele>
        <time>2025-06-26T07:25:14.686Z</time>
      </trkpt>
      <trkpt lat="48.746523" lon="2.022963">
        <ele>161.599322</ele>
        <time>2025-06-26T07:25:24.522Z</time>
      </trkpt>
      <trkpt lat="48.746732" lon="2.023456">
        <ele>161.987071</ele>
        <time>2025-06-26T07:25:31.282Z</time>
      </trkpt>
      <trkpt lat="48.747518" lon="2.024963">
        <ele>162.247593</ele>
        <time>2025-06-26T07:25:47.446Z</time>
      </trkpt>
      <trkpt lat="48.747547" lon="2.025106">
        <ele>162.153539</ele>
        <time>2025-06-26T07:25:48.626Z</time>
      </trkpt>
      <trkpt lat="48.747552" lon="2.025170">
        <ele>162.113023</ele>
        <time>2025-06-26T07:25:49.123Z</time>
      </trkpt>
      <trkpt lat="48.747539" lon="2.025272">
        <ele>162.047713</ele>
        <time>2025-06-26T07:25:49.950Z</time>
      </trkpt>
      <trkpt lat="48.747546" lon="2.025323">
        <ele>162.014964</ele>
        <time>2025-06-26T07:25:50.354Z</time>
      </trkpt>
      <trkpt lat="48.747607" lon="2.025422">
        <ele>161.929782</ele>
        <time>2025-06-26T07:25:51.405Z</time>
      </trkpt>
      <trkpt lat="48.747663" lon="2.025444">
        <ele>161.874629</ele>
        <time>2025-06-26T07:25:52.103Z</time>
      </trkpt>
      <trkpt lat="48.747697" lon="2.025436">
        <ele>161.841825</ele>
        <time>2025-06-26T07:25:52.512Z</time>
      </trkpt>
      <trkpt lat="48.747867" lon="2.025645">
        <ele>161.633179</ele>
        <time>2025-06-26T07:25:55.118Z</time>
      </trkpt>
      <trkpt lat="48.752386" lon="2.034609">
        <ele>154.424594</ele>
        <time>2025-06-26T07:27:27.114Z</time>
      </trkpt>
      <trkpt lat="48.752696" lon="2.035219">
        <ele>153.720983</ele>
        <time>2025-06-26T07:27:32.778Z</time>
      </trkpt>
      <trkpt lat="48.754053" lon="2.037883">
        <ele>151.322542</ele>
        <time>2025-06-26T07:27:56.741Z</time>
      </trkpt>
      <trkpt lat="48.754213" lon="2.038252">
        <ele>151.921782</ele>
        <time>2025-06-26T07:28:01.838Z</time>
      </trkpt>
      <trkpt lat="48.754249" lon="2.038486">
        <ele>152.247806</ele>
        <time>2025-06-26T07:28:05.565Z</time>
      </trkpt>
      <trkpt lat="48.754241" lon="2.038664">
        <ele>152.489879</ele>
        <time>2025-06-26T07:28:08.878Z</time>
      </trkpt>
      <trkpt lat="48.754102" lon="2.039392">
        <ele>153.518227</ele>
        <time>2025-06-26T07:28:26.734Z</time>
      </trkpt>
      <trkpt lat="48.754055" lon="2.039691">
        <ele>153.956194</ele>
        <time>2025-06-26T07:28:35.192Z</time>
      </trkpt>
      <trkpt lat="48.754025" lon="2.040233">
        <ele>155.718045</ele>
        <time>2025-06-26T07:28:49.583Z</time>
      </trkpt>
      <trkpt lat="48.754095" lon="2.040684">
        <ele>157.218885</ele>
        <time>2025-06-26T07:29:01.429Z</time>
      </trkpt>
      <trkpt lat="48.754111" lon="2.040760">
        <ele>157.477315</ele>
        <time>2025-06-26T07:29:03.409Z</time>
      </trkpt>
      <trkpt lat="48.754133" lon="2.040865">
        <ele>157.834198</ele>
        <time>2025-06-26T07:29:06.257Z</time>
      </trkpt>
      <trkpt lat="48.754166" lon="2.040965">
        <ele>158.196435</ele>
        <time>2025-06-26T07:29:09.142Z</time>
      </trkpt>
      <trkpt lat="48.754206" lon="2.041088">
        <ele>158.640695</ele>
        <time>2025-06-26T07:29:12.698Z</time>
      </trkpt>
      <trkpt lat="48.754303" lon="2.041298">
        <ele>159.471272</ele>
        <time>2025-06-26T07:29:19.240Z</time>
      </trkpt>
      <trkpt lat="48.754413" lon="2.041560">
        <ele>160.477426</ele>
        <time>2025-06-26T07:29:26.531Z</time>
      </trkpt>
      <trkpt lat="48.754525" lon="2.041698">
        <ele>161.186390</ele>
        <time>2025-06-26T07:29:31.157Z</time>
      </trkpt>
      <trkpt lat="48.754508" lon="2.041757">
        <ele>161.394959</ele>
        <time>2025-06-26T07:29:32.395Z</time>
      </trkpt>
      <trkpt lat="48.754662" lon="2.042084">
        <ele>162.696671</ele>
        <time>2025-06-26T07:29:39.408Z</time>
      </trkpt>
      <trkpt lat="48.754715" lon="2.042085">
        <ele>162.798896</ele>
        <time>2025-06-26T07:29:40.598Z</time>
      </trkpt>
      <trkpt lat="48.754741" lon="2.042238">
        <ele>162.905345</ele>
        <time>2025-06-26T07:29:42.935Z</time>
      </trkpt>
      <trkpt lat="48.754805" lon="2.042438">
        <ele>163.055124</ele>
        <time>2025-06-26T07:29:45.924Z</time>
      </trkpt>
      <trkpt lat="48.755266" lon="2.043518">
        <ele>163.921936</ele>
        <time>2025-06-26T07:30:00.768Z</time>
      </trkpt>
      <trkpt lat="48.755357" lon="2.043726">
        <ele>164.090118</ele>
        <time>2025-06-26T07:30:03.438Z</time>
      </trkpt>
      <trkpt lat="48.755515" lon="2.044088">
        <ele>164.382607</ele>
        <time>2025-06-26T07:30:07.976Z</time>
      </trkpt>
      <trkpt lat="48.755545" lon="2.044158">
        <ele>164.438856</ele>
        <time>2025-06-26T07:30:08.853Z</time>
      </trkpt>
      <trkpt lat="48.755601" lon="2.044290">
        <ele>164.544608</ele>
        <time>2025-06-26T07:30:10.504Z</time>
      </trkpt>
      <trkpt lat="48.756094" lon="2.045454">
        <ele>164.999517</ele>
        <time>2025-06-26T07:30:25.636Z</time>
      </trkpt>
      <trkpt lat="48.756587" lon="2.048273">
        <ele>165.550319</ele>
        <time>2025-06-26T07:30:57.824Z</time>
      </trkpt>
      <trkpt lat="48.756683" lon="2.048819">
        <ele>165.592645</ele>
        <time>2025-06-26T07:31:03.054Z</time>
      </trkpt>
      <trkpt lat="48.756766" lon="2.049003">
        <ele>165.609345</ele>
        <time>2025-06-26T07:31:05.154Z</time>
      </trkpt>
      <trkpt lat="48.757053" lon="2.049199">
        <ele>165.632214</ele>
        <time>2025-06-26T07:31:09.646Z</time>
      </trkpt>
      <trkpt lat="48.757914" lon="2.049761">
        <ele>165.192561</ele>
        <time>2025-06-26T07:31:21.915Z</time>
      </trkpt>
      <trkpt lat="48.757978" lon="2.049834">
        <ele>165.155002</ele>
        <time>2025-06-26T07:31:22.983Z</time>
      </trkpt>
      <trkpt lat="48.758005" lon="2.049916">
        <ele>165.126660</ele>
        <time>2025-06-26T07:31:23.793Z</time>
      </trkpt>
      <trkpt lat="48.758037" lon="2.050070">
        <ele>165.076731</ele>
        <time>2025-06-26T07:31:25.339Z</time>
      </trkpt>
      <trkpt lat="48.758067" lon="2.050219">
        <ele>165.028557</ele>
        <time>2025-06-26T07:31:26.811Z</time>
      </trkpt>
      <trkpt lat="48.758373" lon="2.051414">
        <ele>164.592471</ele>
        <time>2025-06-26T07:31:37.873Z</time>
      </trkpt>
      <trkpt lat="48.758385" lon="2.051515">
        <ele>164.553188</ele>
        <time>2025-06-26T07:31:38.723Z</time>
      </trkpt>
      <trkpt lat="48.758401" lon="2.051752">
        <ele>164.461996</ele>
        <time>2025-06-26T07:31:40.718Z</time>
      </trkpt>
      <trkpt lat="48.758471" lon="2.052801">
        <ele>164.058416</ele>
        <time>2025-06-26T07:31:49.737Z</time>
      </trkpt>
      <trkpt lat="48.758495" lon="2.053106">
        <ele>163.940842</ele>
        <time>2025-06-26T07:31:52.357Z</time>
      </trkpt>
      <trkpt lat="48.758533" lon="2.053710">
        <ele>163.715922</ele>
        <time>2025-06-26T07:31:57.635Z</time>
      </trkpt>
      <trkpt lat="48.758575" lon="2.054357">
        <ele>163.506699</ele>
        <time>2025-06-26T07:32:03.371Z</time>
      </trkpt>
      <trkpt lat="48.758581" lon="2.054436">
        <ele>163.481107</ele>
        <time>2025-06-26T07:32:04.079Z</time>
      </trkpt>
      <trkpt lat="48.758617" lon="2.054616">
        <ele>163.420573</ele>
        <time>2025-06-26T07:32:05.728Z</time>
      </trkpt>
      <trkpt lat="48.758676" lon="2.054756">
        <ele>163.367099</ele>
        <time>2025-06-26T07:32:07.186Z</time>
      </trkpt>
      <trkpt lat="48.758670" lon="2.054859">
        <ele>163.333823</ele>
        <time>2025-06-26T07:32:08.111Z</time>
      </trkpt>
      <trkpt lat="48.758683" lon="2.054877">
        <ele>163.325231</ele>
        <time>2025-06-26T07:32:08.339Z</time>
      </trkpt>
      <trkpt lat="48.758813" lon="2.055488">
        <ele>163.118613</ele>
        <time>2025-06-26T07:32:13.979Z</time>
      </trkpt>
      <trkpt lat="48.758819" lon="2.055658">
        <ele>163.063826</ele>
        <time>2025-06-26T07:32:15.438Z</time>
      </trkpt>
      <trkpt lat="48.758811" lon="2.055764">
        <ele>163.029491</ele>
        <time>2025-06-26T07:32:16.355Z</time>
      </trkpt>
      <trkpt lat="48.758884" lon="2.055858">
        <ele>162.982746</ele>
        <time>2025-06-26T07:32:17.605Z</time>
      </trkpt>
      <trkpt lat="48.758909" lon="2.055954">
        <ele>162.949529</ele>
        <time>2025-06-26T07:32:18.490Z</time>
      </trkpt>
      <trkpt lat="48.759017" lon="2.056388">
        <ele>162.796529</ele>
        <time>2025-06-26T07:32:22.599Z</time>
      </trkpt>
      <trkpt lat="48.758985" lon="2.056408">
        <ele>162.778812</ele>
        <time>2025-06-26T07:32:26.435Z</time>
      </trkpt>
      <trkpt lat="48.758968" lon="2.056418">
        <ele>162.769478</ele>
        <time>2025-06-26T07:32:26.791Z</time>
      </trkpt>
      <trkpt lat="48.758964" lon="2.056477">
        <ele>162.749462</ele>
        <time>2025-06-26T07:32:27.515Z</time>
      </trkpt>
      <trkpt lat="48.758990" lon="2.056620">
        <ele>162.699402</ele>
        <time>2025-06-26T07:32:38.300Z</time>
      </trkpt>
      <trkpt lat="48.759026" lon="2.056859">
        <ele>162.616667</ele>
        <time>2025-06-26T07:32:55.978Z</time>
      </trkpt>
      <trkpt lat="48.759147" lon="2.056797">
        <ele>162.551287</ele>
        <time>2025-06-26T07:32:57.671Z</time>
      </trkpt>
      <trkpt lat="48.759226" lon="2.056952">
        <ele>162.485168</ele>
        <time>2025-06-26T07:32:59.386Z</time>
      </trkpt>
      <trkpt lat="48.760492" lon="2.059475">
        <ele>161.360278</ele>
        <time>2025-06-26T07:33:26.733Z</time>
      </trkpt>
      <trkpt lat="48.760748" lon="2.059968">
        <ele>161.126999</ele>
        <time>2025-06-26T07:33:32.023Z</time>
      </trkpt>
      <trkpt lat="48.760920" lon="2.060317">
        <ele>160.965027</ele>
        <time>2025-06-26T07:33:35.735Z</time>
      </trkpt>
      <trkpt lat="48.760978" lon="2.060436">
        <ele>160.939401</ele>
        <time>2025-06-26T07:33:37.006Z</time>
      </trkpt>
      <trkpt lat="48.761015" lon="2.060515">
        <ele>160.936910</ele>
        <time>2025-06-26T07:33:37.832Z</time>
      </trkpt>
      <trkpt lat="48.761061" lon="2.060590">
        <ele>160.934277</ele>
        <time>2025-06-26T07:33:38.724Z</time>
      </trkpt>
      <trkpt lat="48.761154" lon="2.060776">
        <ele>160.928275</ele>
        <time>2025-06-26T07:33:40.736Z</time>
      </trkpt>
      <trkpt lat="48.761640" lon="2.061713">
        <ele>160.897627</ele>
        <time>2025-06-26T07:33:52.078Z</time>
      </trkpt>
      <trkpt lat="48.761956" lon="2.062395">
        <ele>160.876199</ele>
        <time>2025-06-26T07:34:00.750Z</time>
      </trkpt>
      <trkpt lat="48.762089" lon="2.063081">
        <ele>161.117927</ele>
        <time>2025-06-26T07:34:08.816Z</time>
      </trkpt>
      <trkpt lat="48.762098" lon="2.063273">
        <ele>161.207421</ele>
        <time>2025-06-26T07:34:11.065Z</time>
      </trkpt>
      <trkpt lat="48.762040" lon="2.063431">
        <ele>161.291503</ele>
        <time>2025-06-26T07:34:13.191Z</time>
      </trkpt>
      <trkpt lat="48.762053" lon="2.063636">
        <ele>161.387256</ele>
        <time>2025-06-26T07:34:15.637Z</time>
      </trkpt>
      <trkpt lat="48.762125" lon="2.063770">
        <ele>161.467632</ele>
        <time>2025-06-26T07:34:17.700Z</time>
      </trkpt>
      <trkpt lat="48.762176" lon="2.063811">
        <ele>161.508342</ele>
        <time>2025-06-26T07:34:18.740Z</time>
      </trkpt>
      <trkpt lat="48.762194" lon="2.063987">
        <ele>161.591150</ele>
        <time>2025-06-26T07:34:20.875Z</time>
      </trkpt>
      <trkpt lat="48.762204" lon="2.064323">
        <ele>161.747528</ele>
        <time>2025-06-26T07:34:24.916Z</time>
      </trkpt>
      <trkpt lat="48.762161" lon="2.064777">
        <ele>161.960776</ele>
        <time>2025-06-26T07:34:30.428Z</time>
      </trkpt>
      <trkpt lat="48.762095" lon="2.065080">
        <ele>162.109144</ele>
        <time>2025-06-26T07:34:34.273Z</time>
      </trkpt>
      <trkpt lat="48.761521" lon="2.067065">
        <ele>163.196281</ele>
        <time>2025-06-26T07:35:00.248Z</time>
      </trkpt>
      <trkpt lat="48.761447" lon="2.067317">
        <ele>163.334963</ele>
        <time>2025-06-26T07:35:03.438Z</time>
      </trkpt>
      <trkpt lat="48.761172" lon="2.068254">
        <ele>163.675795</ele>
        <time>2025-06-26T07:35:14.848Z</time>
      </trkpt>
      <trkpt lat="48.761094" lon="2.068605">
        <ele>163.765960</ele>
        <time>2025-06-26T07:35:18.930Z</time>
      </trkpt>
      <trkpt lat="48.761023" lon="2.069064">
        <ele>163.880725</ele>
        <time>2025-06-26T07:35:23.931Z</time>
      </trkpt>
      <trkpt lat="48.760997" lon="2.069430">
        <ele>163.970333</ele>
        <time>2025-06-26T07:35:27.730Z</time>
      </trkpt>
      <trkpt lat="48.760997" lon="2.069434">
        <ele>163.971306</ele>
        <time>2025-06-26T07:35:27.775Z</time>
      </trkpt>
      <trkpt lat="48.761005" lon="2.069893">
        <ele>164.083076</ele>
        <time>2025-06-26T07:35:32.493Z</time>
      </trkpt>
      <trkpt lat="48.761007" lon="2.070261">
        <ele>164.172658</ele>
        <time>2025-06-26T07:35:36.262Z</time>
      </trkpt>
      <trkpt lat="48.761047" lon="2.070690">
        <ele>164.211475</ele>
        <time>2025-06-26T07:35:40.720Z</time>
      </trkpt>
      <trkpt lat="48.761118" lon="2.071074">
        <ele>164.245267</ele>
        <time>2025-06-26T07:35:44.878Z</time>
      </trkpt>
      <trkpt lat="48.761176" lon="2.071311">
        <ele>164.266687</ele>
        <time>2025-06-26T07:35:47.565Z</time>
      </trkpt>
      <trkpt lat="48.761286" lon="2.071612">
        <ele>164.295847</ele>
        <time>2025-06-26T07:35:51.178Z</time>
      </trkpt>
      <trkpt lat="48.761491" lon="2.072013">
        <ele>164.338843</ele>
        <time>2025-06-26T07:35:56.337Z</time>
      </trkpt>
      <trkpt lat="48.761540" lon="2.072169">
        <ele>164.353484</ele>
        <time>2025-06-26T07:35:58.071Z</time>
      </trkpt>
      <trkpt lat="48.761506" lon="2.072415">
        <ele>164.374781</ele>
        <time>2025-06-26T07:36:00.552Z</time>
      </trkpt>
      <trkpt lat="48.761547" lon="2.072629">
        <ele>164.393663</ele>
        <time>2025-06-26T07:36:02.713Z</time>
      </trkpt>
      <trkpt lat="48.761635" lon="2.072801">
        <ele>164.392560</ele>
        <time>2025-06-26T07:36:04.804Z</time>
      </trkpt>
      <trkpt lat="48.761763" lon="2.072909">
        <ele>164.338304</ele>
        <time>2025-06-26T07:36:06.900Z</time>
      </trkpt>
      <trkpt lat="48.761937" lon="2.072930">
        <ele>164.273644</ele>
        <time>2025-06-26T07:36:09.370Z</time>
      </trkpt>
      <trkpt lat="48.762003" lon="2.073014">
        <ele>164.241730</ele>
        <time>2025-06-26T07:36:10.583Z</time>
      </trkpt>
      <trkpt lat="48.762231" lon="2.073404">
        <ele>164.114440</ele>
        <time>2025-06-26T07:36:15.343Z</time>
      </trkpt>
      <trkpt lat="48.762665" lon="2.074012">
        <ele>163.895604</ele>
        <time>2025-06-26T07:36:23.212Z</time>
      </trkpt>
      <trkpt lat="48.763356" lon="2.075425">
        <ele>163.276023</ele>
        <time>2025-06-26T07:36:38.245Z</time>
      </trkpt>
      <trkpt lat="48.763792" lon="2.076248">
        <ele>162.839975</ele>
        <time>2025-06-26T07:36:47.233Z</time>
      </trkpt>
      <trkpt lat="48.765717" lon="2.079887">
        <ele>161.148000</ele>
        <time>2025-06-26T07:37:27.456Z</time>
      </trkpt>
      <trkpt lat="48.765770" lon="2.080164">
        <ele>161.052875</ele>
        <time>2025-06-26T07:37:30.007Z</time>
      </trkpt>
      <trkpt lat="48.765746" lon="2.080366">
        <ele>160.985182</ele>
        <time>2025-06-26T07:37:31.823Z</time>
      </trkpt>
      <trkpt lat="48.765766" lon="2.080498">
        <ele>160.940514</ele>
        <time>2025-06-26T07:37:33.018Z</time>
      </trkpt>
      <trkpt lat="48.765811" lon="2.080614">
        <ele>160.896123</ele>
        <time>2025-06-26T07:37:34.217Z</time>
      </trkpt>
      <trkpt lat="48.765942" lon="2.080744">
        <ele>160.817801</ele>
        <time>2025-06-26T07:37:36.316Z</time>
      </trkpt>
      <trkpt lat="48.765980" lon="2.080752">
        <ele>160.798606</ele>
        <time>2025-06-26T07:37:36.831Z</time>
      </trkpt>
      <trkpt lat="48.766020" lon="2.080761">
        <ele>160.778373</ele>
        <time>2025-06-26T07:37:37.371Z</time>
      </trkpt>
      <trkpt lat="48.766098" lon="2.080744">
        <ele>160.738946</ele>
        <time>2025-06-26T07:37:38.439Z</time>
      </trkpt>
      <trkpt lat="48.766229" lon="2.080616">
        <ele>160.673184</ele>
        <time>2025-06-26T07:37:40.543Z</time>
      </trkpt>
      <trkpt lat="48.766418" lon="2.080611">
        <ele>160.603999</ele>
        <time>2025-06-26T07:37:43.088Z</time>
      </trkpt>
      <trkpt lat="48.767389" lon="2.081026">
        <ele>160.234780</ele>
        <time>2025-06-26T07:37:56.518Z</time>
      </trkpt>
      <trkpt lat="48.770303" lon="2.082314">
        <ele>160.030853</ele>
        <time>2025-06-26T07:38:40.094Z</time>
      </trkpt>
      <trkpt lat="48.770455" lon="2.082402">
        <ele>160.082120</ele>
        <time>2025-06-26T07:38:42.691Z</time>
      </trkpt>
      <trkpt lat="48.770528" lon="2.082471">
        <ele>160.109222</ele>
        <time>2025-06-26T07:38:44.097Z</time>
      </trkpt>
      <trkpt lat="48.770663" lon="2.082598">
        <ele>160.159276</ele>
        <time>2025-06-26T07:38:46.710Z</time>
      </trkpt>
      <trkpt lat="48.770697" lon="2.082722">
        <ele>160.187169</ele>
        <time>2025-06-26T07:38:48.187Z</time>
      </trkpt>
      <trkpt lat="48.770753" lon="2.082818">
        <ele>160.213794</ele>
        <time>2025-06-26T07:38:49.620Z</time>
      </trkpt>
      <trkpt lat="48.770852" lon="2.082902">
        <ele>160.249537</ele>
        <time>2025-06-26T07:38:51.584Z</time>
      </trkpt>
      <trkpt lat="48.770960" lon="2.082924">
        <ele>160.283875</ele>
        <time>2025-06-26T07:38:53.465Z</time>
      </trkpt>
      <trkpt lat="48.771062" lon="2.082882">
        <ele>160.317180</ele>
        <time>2025-06-26T07:38:55.326Z</time>
      </trkpt>
      <trkpt lat="48.771151" lon="2.082780">
        <ele>160.352326</ele>
        <time>2025-06-26T07:38:57.330Z</time>
      </trkpt>
      <trkpt lat="48.771320" lon="2.082755">
        <ele>160.482325</ele>
        <time>2025-06-26T07:39:00.436Z</time>
      </trkpt>
      <trkpt lat="48.772179" lon="2.083120">
        <ele>161.342575</ele>
        <time>2025-06-26T07:39:17.327Z</time>
      </trkpt>
      <trkpt lat="48.772510" lon="2.083349">
        <ele>161.693392</ele>
        <time>2025-06-26T07:39:24.389Z</time>
      </trkpt>
      <trkpt lat="48.772791" lon="2.083637">
        <ele>162.020403</ele>
        <time>2025-06-26T07:39:30.834Z</time>
      </trkpt>
      <trkpt lat="48.773051" lon="2.084013">
        <ele>162.201392</ele>
        <time>2025-06-26T07:39:37.447Z</time>
      </trkpt>
      <trkpt lat="48.773196" lon="2.084290">
        <ele>162.285127</ele>
        <time>2025-06-26T07:39:41.604Z</time>
      </trkpt>
      <trkpt lat="48.773376" lon="2.084759">
        <ele>162.413597</ele>
        <time>2025-06-26T07:39:47.647Z</time>
      </trkpt>
      <trkpt lat="48.773577" lon="2.085536">
        <ele>162.611182</ele>
        <time>2025-06-26T07:39:56.167Z</time>
      </trkpt>
      <trkpt lat="48.774294" lon="2.088908">
        <ele>162.030569</ele>
        <time>2025-06-26T07:40:28.656Z</time>
      </trkpt>
      <trkpt lat="48.774446" lon="2.089622">
        <ele>161.409161</ele>
        <time>2025-06-26T07:40:35.160Z</time>
      </trkpt>
      <trkpt lat="48.774595" lon="2.090114">
        <ele>160.960733</ele>
        <time>2025-06-26T07:40:39.586Z</time>
      </trkpt>
      <trkpt lat="48.774761" lon="2.090521">
        <ele>160.564334</ele>
        <time>2025-06-26T07:40:43.285Z</time>
      </trkpt>
      <trkpt lat="48.774840" lon="2.090709">
        <ele>160.379679</ele>
        <time>2025-06-26T07:40:44.932Z</time>
      </trkpt>
      <trkpt lat="48.775207" lon="2.091598">
        <ele>158.324067</ele>
        <time>2025-06-26T07:40:52.191Z</time>
      </trkpt>
      <trkpt lat="48.775237" lon="2.091675">
        <ele>158.054751</ele>
        <time>2025-06-26T07:40:52.792Z</time>
      </trkpt>
      <trkpt lat="48.775303" lon="2.091833">
        <ele>157.491531</ele>
        <time>2025-06-26T07:40:54.046Z</time>
      </trkpt>
      <trkpt lat="48.775381" lon="2.092124">
        <ele>156.545692</ele>
        <time>2025-06-26T07:40:56.101Z</time>
      </trkpt>
      <trkpt lat="48.775523" lon="2.093013">
        <ele>153.791604</ele>
        <time>2025-06-26T07:41:01.818Z</time>
      </trkpt>
      <trkpt lat="48.775665" lon="2.093431">
        <ele>152.375727</ele>
        <time>2025-06-26T07:41:04.657Z</time>
      </trkpt>
      <trkpt lat="48.775859" lon="2.093746">
        <ele>150.511500</ele>
        <time>2025-06-26T07:41:07.227Z</time>
      </trkpt>
      <trkpt lat="48.776501" lon="2.094649">
        <ele>143.113754</ele>
        <time>2025-06-26T07:41:14.928Z</time>
      </trkpt>
      <trkpt lat="48.776766" lon="2.094925">
        <ele>140.397512</ele>
        <time>2025-06-26T07:41:17.689Z</time>
      </trkpt>
      <trkpt lat="48.777356" lon="2.095378">
        <ele>135.339550</ele>
        <time>2025-06-26T07:41:23.407Z</time>
      </trkpt>
      <trkpt lat="48.777581" lon="2.095599">
        <ele>133.766780</ele>
        <time>2025-06-26T07:41:25.762Z</time>
      </trkpt>
      <trkpt lat="48.777908" lon="2.095873">
        <ele>131.574815</ele>
        <time>2025-06-26T07:41:29.091Z</time>
      </trkpt>
      <trkpt lat="48.778084" lon="2.095984">
        <ele>130.456384</ele>
        <time>2025-06-26T07:41:30.836Z</time>
      </trkpt>
      <trkpt lat="48.778400" lon="2.096172">
        <ele>128.464648</ele>
        <time>2025-06-26T07:41:34.045Z</time>
      </trkpt>
      <trkpt lat="48.778731" lon="2.096306">
        <ele>126.454377</ele>
        <time>2025-06-26T07:41:37.579Z</time>
      </trkpt>
      <trkpt lat="48.778973" lon="2.096347">
        <ele>126.119232</ele>
        <time>2025-06-26T07:41:40.442Z</time>
      </trkpt>
      <trkpt lat="48.779401" lon="2.096361">
        <ele>126.458647</ele>
        <time>2025-06-26T07:41:46.322Z</time>
      </trkpt>
      <trkpt lat="48.780490" lon="2.096240">
        <ele>127.324361</ele>
        <time>2025-06-26T07:42:09.245Z</time>
      </trkpt>
      <trkpt lat="48.780710" lon="2.096327">
        <ele>127.869135</ele>
        <time>2025-06-26T07:42:15.529Z</time>
      </trkpt>
      <trkpt lat="48.780857" lon="2.096483">
        <ele>128.590393</ele>
        <time>2025-06-26T07:42:20.701Z</time>
      </trkpt>
      <trkpt lat="48.780938" lon="2.096627">
        <ele>129.092036</ele>
        <time>2025-06-26T07:42:24.391Z</time>
      </trkpt>
      <trkpt lat="48.780994" lon="2.096801">
        <ele>129.605108</ele>
        <time>2025-06-26T07:42:28.194Z</time>
      </trkpt>
      <trkpt lat="48.781022" lon="2.096979">
        <ele>130.089979</ele>
        <time>2025-06-26T07:42:31.798Z</time>
      </trkpt>
      <trkpt lat="48.781111" lon="2.098221">
        <ele>133.400109</ele>
        <time>2025-06-26T07:42:56.226Z</time>
      </trkpt>
      <trkpt lat="48.781074" lon="2.098540">
        <ele>134.258306</ele>
        <time>2025-06-26T07:43:04.263Z</time>
      </trkpt>
      <trkpt lat="48.781007" lon="2.098763">
        <ele>135.031900</ele>
        <time>2025-06-26T07:43:10.760Z</time>
      </trkpt>
      <trkpt lat="48.780692" lon="2.099326">
        <ele>137.922396</ele>
        <time>2025-06-26T07:43:30.500Z</time>
      </trkpt>
      <trkpt lat="48.780497" lon="2.099562">
        <ele>139.403745</ele>
        <time>2025-06-26T07:43:40.686Z</time>
      </trkpt>
      <trkpt lat="48.780218" lon="2.099824">
        <ele>141.352392</ele>
        <time>2025-06-26T07:43:53.241Z</time>
      </trkpt>
      <trkpt lat="48.779737" lon="2.100129">
        <ele>144.448529</ele>
        <time>2025-06-26T07:44:13.648Z</time>
      </trkpt>
      <trkpt lat="48.779526" lon="2.100319">
        <ele>145.764658</ele>
        <time>2025-06-26T07:44:23.854Z</time>
      </trkpt>
      <trkpt lat="48.779284" lon="2.100671">
        <ele>147.267834</ele>
        <time>2025-06-26T07:44:35.576Z</time>
      </trkpt>
      <trkpt lat="48.779148" lon="2.100991">
        <ele>148.393029</ele>
        <time>2025-06-26T07:44:43.720Z</time>
      </trkpt>
      <trkpt lat="48.779031" lon="2.101420">
        <ele>149.764992</ele>
        <time>2025-06-26T07:44:53.460Z</time>
      </trkpt>
      <trkpt lat="48.778998" lon="2.101584">
        <ele>150.271698</ele>
        <time>2025-06-26T07:44:57.014Z</time>
      </trkpt>
      <trkpt lat="48.778979" lon="2.101863">
        <ele>151.100527</ele>
        <time>2025-06-26T07:45:02.853Z</time>
      </trkpt>
      <trkpt lat="48.778979" lon="2.102168">
        <ele>152.001794</ele>
        <time>2025-06-26T07:45:09.209Z</time>
      </trkpt>
      <trkpt lat="48.779010" lon="2.102501">
        <ele>152.995571</ele>
        <time>2025-06-26T07:45:16.144Z</time>
      </trkpt>
      <trkpt lat="48.779096" lon="2.102840">
        <ele>153.697280</ele>
        <time>2025-06-26T07:45:23.437Z</time>
      </trkpt>
      <trkpt lat="48.779271" lon="2.103349">
        <ele>154.457489</ele>
        <time>2025-06-26T07:45:33.411Z</time>
      </trkpt>
      <trkpt lat="48.779495" lon="2.103854">
        <ele>155.263557</ele>
        <time>2025-06-26T07:45:41.911Z</time>
      </trkpt>
      <trkpt lat="48.779725" lon="2.104248">
        <ele>155.960535</ele>
        <time>2025-06-26T07:45:48.247Z</time>
      </trkpt>
      <trkpt lat="48.779980" lon="2.104626">
        <ele>156.676829</ele>
        <time>2025-06-26T07:45:54.681Z</time>
      </trkpt>
      <trkpt lat="48.780230" lon="2.104936">
        <ele>157.450496</ele>
        <time>2025-06-26T07:46:01.048Z</time>
      </trkpt>
      <trkpt lat="48.780476" lon="2.105186">
        <ele>158.280754</ele>
        <time>2025-06-26T07:46:07.796Z</time>
      </trkpt>
      <trkpt lat="48.780965" lon="2.105571">
        <ele>159.825626</ele>
        <time>2025-06-26T07:46:22.738Z</time>
      </trkpt>
      <trkpt lat="48.781426" lon="2.105869">
        <ele>161.230807</ele>
        <time>2025-06-26T07:46:38.126Z</time>
      </trkpt>
      <trkpt lat="48.782032" lon="2.106195">
        <ele>162.656612</ele>
        <time>2025-06-26T07:46:56.494Z</time>
      </trkpt>
      <trkpt lat="48.782442" lon="2.106368">
        <ele>163.390705</ele>
        <time>2025-06-26T07:47:06.516Z</time>
      </trkpt>
      <trkpt lat="48.782771" lon="2.106447">
        <ele>163.965301</ele>
        <time>2025-06-26T07:47:13.156Z</time>
      </trkpt>
      <trkpt lat="48.783197" lon="2.106461">
        <ele>164.700338</ele>
        <time>2025-06-26T07:47:20.636Z</time>
      </trkpt>
      <trkpt lat="48.783441" lon="2.106412">
        <ele>165.124916</ele>
        <time>2025-06-26T07:47:24.732Z</time>
      </trkpt>
      <trkpt lat="48.783733" lon="2.106317">
        <ele>165.403300</ele>
        <time>2025-06-26T07:47:29.530Z</time>
      </trkpt>
      <trkpt lat="48.784231" lon="2.106021">
        <ele>165.874244</ele>
        <time>2025-06-26T07:47:38.453Z</time>
      </trkpt>
      <trkpt lat="48.784442" lon="2.105869">
        <ele>166.079908</ele>
        <time>2025-06-26T07:47:42.643Z</time>
      </trkpt>
      <trkpt lat="48.784837" lon="2.105715">
        <ele>166.439018</ele>
        <time>2025-06-26T07:47:50.416Z</time>
      </trkpt>
      <trkpt lat="48.785241" lon="2.105634">
        <ele>166.861843</ele>
        <time>2025-06-26T07:47:58.938Z</time>
      </trkpt>
      <trkpt lat="48.785528" lon="2.105626">
        <ele>167.395238</ele>
        <time>2025-06-26T07:48:05.141Z</time>
      </trkpt>
      <trkpt lat="48.785930" lon="2.105691">
        <ele>168.146464</ele>
        <time>2025-06-26T07:48:14.160Z</time>
      </trkpt>
      <trkpt lat="48.786003" lon="2.105735">
        <ele>168.292418</ele>
        <time>2025-06-26T07:48:15.977Z</time>
      </trkpt>
      <trkpt lat="48.786090" lon="2.105850">
        <ele>168.506799</ele>
        <time>2025-06-26T07:48:18.666Z</time>
      </trkpt>
      <trkpt lat="48.786198" lon="2.105908">
        <ele>168.719678</ele>
        <time>2025-06-26T07:48:21.360Z</time>
      </trkpt>
      <trkpt lat="48.786252" lon="2.106054">
        <ele>168.924666</ele>
        <time>2025-06-26T07:48:23.934Z</time>
      </trkpt>
      <trkpt lat="48.786380" lon="2.107081">
        <ele>170.150873</ele>
        <time>2025-06-26T07:48:39.873Z</time>
      </trkpt>
      <trkpt lat="48.786381" lon="2.107346">
        <ele>170.332992</ele>
        <time>2025-06-26T07:48:43.733Z</time>
      </trkpt>
      <trkpt lat="48.786343" lon="2.107626">
        <ele>170.529457</ele>
        <time>2025-06-26T07:48:47.713Z</time>
      </trkpt>
      <trkpt lat="48.786275" lon="2.107864">
        <ele>170.707735</ele>
        <time>2025-06-26T07:48:51.214Z</time>
      </trkpt>
      <trkpt lat="48.785853" lon="2.108983">
        <ele>171.593813</ele>
        <time>2025-06-26T07:49:07.405Z</time>
      </trkpt>
      <trkpt lat="48.785454" lon="2.109982">
        <ele>171.740276</ele>
        <time>2025-06-26T07:49:19.043Z</time>
      </trkpt>
      <trkpt lat="48.784692" lon="2.111872">
        <ele>171.009355</ele>
        <time>2025-06-26T07:49:37.348Z</time>
      </trkpt>
      <trkpt lat="48.784613" lon="2.112076">
        <ele>170.981415</ele>
        <time>2025-06-26T07:49:39.304Z</time>
      </trkpt>
      <trkpt lat="48.784561" lon="2.112212">
        <ele>170.962848</ele>
        <time>2025-06-26T07:49:40.656Z</time>
      </trkpt>
      <trkpt lat="48.784390" lon="2.112712">
        <ele>170.896330</ele>
        <time>2025-06-26T07:49:45.664Z</time>
      </trkpt>
      <trkpt lat="48.784286" lon="2.113557">
        <ele>170.794827</ele>
        <time>2025-06-26T07:49:54.205Z</time>
      </trkpt>
      <trkpt lat="48.784230" lon="2.114108">
        <ele>170.728996</ele>
        <time>2025-06-26T07:49:59.889Z</time>
      </trkpt>
      <trkpt lat="48.784227" lon="2.114134">
        <ele>170.725879</ele>
        <time>2025-06-26T07:50:00.151Z</time>
      </trkpt>
      <trkpt lat="48.784163" lon="2.114707">
        <ele>170.731466</ele>
        <time>2025-06-26T07:50:06.079Z</time>
      </trkpt>
      <trkpt lat="48.784118" lon="2.114958">
        <ele>170.752154</ele>
        <time>2025-06-26T07:50:08.674Z</time>
      </trkpt>
      <trkpt lat="48.783710" lon="2.116204">
        <ele>170.862811</ele>
        <time>2025-06-26T07:50:21.615Z</time>
      </trkpt>
      <trkpt lat="48.783526" lon="2.116801">
        <ele>170.915228</ele>
        <time>2025-06-26T07:50:28.513Z</time>
      </trkpt>
      <trkpt lat="48.783477" lon="2.116958">
        <ele>171.041920</ele>
        <time>2025-06-26T07:50:30.593Z</time>
      </trkpt>
      <trkpt lat="48.783450" lon="2.117033">
        <ele>171.122868</ele>
        <time>2025-06-26T07:50:31.627Z</time>
      </trkpt>
      <trkpt lat="48.783551" lon="2.117058">
        <ele>171.269969</ele>
        <time>2025-06-26T07:50:33.543Z</time>
      </trkpt>
      <trkpt lat="48.783606" lon="2.117077">
        <ele>171.351051</ele>
        <time>2025-06-26T07:50:34.920Z</time>
      </trkpt>
      <trkpt lat="48.784100" lon="2.117192">
        <ele>172.069459</ele>
        <time>2025-06-26T07:50:47.345Z</time>
      </trkpt>
      <trkpt lat="48.784503" lon="2.117285">
        <ele>172.655411</ele>
        <time>2025-06-26T07:50:58.258Z</time>
      </trkpt>
      <trkpt lat="48.784626" lon="2.117310">
        <ele>172.833797</ele>
        <time>2025-06-26T07:51:01.799Z</time>
      </trkpt>
      <trkpt lat="48.784673" lon="2.117319">
        <ele>172.901893</ele>
        <time>2025-06-26T07:51:03.136Z</time>
      </trkpt>
      <trkpt lat="48.785449" lon="2.117513">
        <ele>174.163971</ele>
        <time>2025-06-26T07:51:25.925Z</time>
      </trkpt>
      <trkpt lat="48.786702" lon="2.117860">
        <ele>176.450912</ele>
        <time>2025-06-26T07:52:00.958Z</time>
      </trkpt>
      <trkpt lat="48.786911" lon="2.117915">
        <ele>176.779556</ele>
        <time>2025-06-26T07:52:06.595Z</time>
      </trkpt>
      <trkpt lat="48.787897" lon="2.118161">
        <ele>177.618635</ele>
        <time>2025-06-26T07:52:30.904Z</time>
      </trkpt>
      <trkpt lat="48.788707" lon="2.118363">
        <ele>178.132990</ele>
        <time>2025-06-26T07:52:49.192Z</time>
      </trkpt>
      <trkpt lat="48.788807" lon="2.117157">
        <ele>176.964113</ele>
        <time>2025-06-26T07:53:00.653Z</time>
      </trkpt>
      <trkpt lat="48.789279" lon="2.117479">
        <ele>176.208800</ele>
        <time>2025-06-26T07:53:06.769Z</time>
      </trkpt>
      <trkpt lat="48.789330" lon="2.117510">
        <ele>176.128614</ele>
        <time>2025-06-26T07:53:07.357Z</time>
      </trkpt>
      <trkpt lat="48.789426" lon="2.117582">
        <ele>175.972321</ele>
        <time>2025-06-26T07:53:08.472Z</time>
      </trkpt>
      <trkpt lat="48.789493" lon="2.117624">
        <ele>175.866516</ele>
        <time>2025-06-26T07:53:09.191Z</time>
      </trkpt>
      <trkpt lat="48.789713" lon="2.117768">
        <ele>175.111357</ele>
        <time>2025-06-26T07:53:11.538Z</time>
      </trkpt>
      <trkpt lat="48.790122" lon="2.118049">
        <ele>171.849669</ele>
        <time>2025-06-26T07:53:15.696Z</time>
      </trkpt>
      <trkpt lat="48.790164" lon="2.118079">
        <ele>171.512433</ele>
        <time>2025-06-26T07:53:16.111Z</time>
      </trkpt>
      <trkpt lat="48.791676" lon="2.119108">
        <ele>159.335423</ele>
        <time>2025-06-26T07:53:30.620Z</time>
      </trkpt>
      <trkpt lat="48.791833" lon="2.119168">
        <ele>158.106274</ele>
        <time>2025-06-26T07:53:32.034Z</time>
      </trkpt>
      <trkpt lat="48.791983" lon="2.119123">
        <ele>156.945438</ele>
        <time>2025-06-26T07:53:33.379Z</time>
      </trkpt>
      <trkpt lat="48.792054" lon="2.119032">
        <ele>156.239947</ele>
        <time>2025-06-26T07:53:34.188Z</time>
      </trkpt>
      <trkpt lat="48.792109" lon="2.118876">
        <ele>155.354992</ele>
        <time>2025-06-26T07:53:35.208Z</time>
      </trkpt>
      <trkpt lat="48.792186" lon="2.118432">
        <ele>153.058632</ele>
        <time>2025-06-26T07:53:37.887Z</time>
      </trkpt>
      <trkpt lat="48.792227" lon="2.118359">
        <ele>152.578840</ele>
        <time>2025-06-26T07:53:38.460Z</time>
      </trkpt>
      <trkpt lat="48.792390" lon="2.118147">
        <ele>150.949201</ele>
        <time>2025-06-26T07:53:40.408Z</time>
      </trkpt>
      <trkpt lat="48.792436" lon="2.118109">
        <ele>150.551600</ele>
        <time>2025-06-26T07:53:40.881Z</time>
      </trkpt>
      <trkpt lat="48.792487" lon="2.118063">
        <ele>150.101208</ele>
        <time>2025-06-26T07:53:41.435Z</time>
      </trkpt>
      <trkpt lat="48.792666" lon="2.118551">
        <ele>147.974436</ele>
        <time>2025-06-26T07:53:44.871Z</time>
      </trkpt>
      <trkpt lat="48.792678" lon="2.118650">
        <ele>147.682345</ele>
        <time>2025-06-26T07:53:45.508Z</time>
      </trkpt>
      <trkpt lat="48.792781" lon="2.118927">
        <ele>146.759375</ele>
        <time>2025-06-26T07:53:47.488Z</time>
      </trkpt>
      <trkpt lat="48.792820" lon="2.119029">
        <ele>146.417163</ele>
        <time>2025-06-26T07:53:48.217Z</time>
      </trkpt>
      <trkpt lat="48.792849" lon="2.119107">
        <ele>146.157274</ele>
        <time>2025-06-26T07:53:48.775Z</time>
      </trkpt>
      <trkpt lat="48.793016" lon="2.119558">
        <ele>144.656051</ele>
        <time>2025-06-26T07:53:52.016Z</time>
      </trkpt>
      <trkpt lat="48.793182" lon="2.120016">
        <ele>143.139221</ele>
        <time>2025-06-26T07:53:55.460Z</time>
      </trkpt>
      <trkpt lat="48.793242" lon="2.120131">
        <ele>142.713552</ele>
        <time>2025-06-26T07:53:56.439Z</time>
      </trkpt>
      <trkpt lat="48.793499" lon="2.120346">
        <ele>141.421034</ele>
        <time>2025-06-26T07:53:59.406Z</time>
      </trkpt>
      <trkpt lat="48.793685" lon="2.120440">
        <ele>140.604166</ele>
        <time>2025-06-26T07:54:01.353Z</time>
      </trkpt>
      <trkpt lat="48.794132" lon="2.120749">
        <ele>138.683141</ele>
        <time>2025-06-26T07:54:06.219Z</time>
      </trkpt>
      <trkpt lat="48.794264" lon="2.120832">
        <ele>138.124332</ele>
        <time>2025-06-26T07:54:07.602Z</time>
      </trkpt>
      <trkpt lat="48.794391" lon="2.120915">
        <ele>137.583538</ele>
        <time>2025-06-26T07:54:17.213Z</time>
      </trkpt>
      <trkpt lat="48.794391" lon="2.120915">
        <ele>137.583538</ele>
        <time>2025-06-26T07:54:17.225Z</time>
      </trkpt>
      <trkpt lat="48.794391" lon="2.120915">
        <ele>137.583538</ele>
        <time>2025-06-26T07:54:17.225Z</time>
      </trkpt>
      <trkpt lat="48.794390" lon="2.120920">
        <ele>137.570075</ele>
        <time>2025-06-26T07:54:17.288Z</time>
      </trkpt>
      <trkpt lat="48.794580" lon="2.121060">
        <ele>136.744040</ele>
        <time>2025-06-26T07:54:21.205Z</time>
      </trkpt>
      <trkpt lat="48.795300" lon="2.121530">
        <ele>133.735148</ele>
        <time>2025-06-26T07:54:35.740Z</time>
      </trkpt>
      <trkpt lat="48.796060" lon="2.122030">
        <ele>131.198757</ele>
        <time>2025-06-26T07:54:51.100Z</time>
      </trkpt>
      <trkpt lat="48.796105" lon="2.122060">
        <ele>131.048258</ele>
        <time>2025-06-26T07:54:52.009Z</time>
      </trkpt>
      <trkpt lat="48.796728" lon="2.122486">
        <ele>128.955937</ele>
        <time>2025-06-26T07:54:59.083Z</time>
      </trkpt>
      <trkpt lat="48.797880" lon="2.123263">
        <ele>127.731143</ele>
        <time>2025-06-26T07:55:14.132Z</time>
      </trkpt>
      <trkpt lat="48.798491" lon="2.123666">
        <ele>127.303051</ele>
        <time>2025-06-26T07:55:24.234Z</time>
      </trkpt>
      <trkpt lat="48.798814" lon="2.123893">
        <ele>127.638163</ele>
        <time>2025-06-26T07:55:31.749Z</time>
      </trkpt>
      <trkpt lat="48.799014" lon="2.124019">
        <ele>127.889532</ele>
        <time>2025-06-26T07:55:35.947Z</time>
      </trkpt>
      <trkpt lat="48.799648" lon="2.124440">
        <ele>128.692838</ele>
        <time>2025-06-26T07:55:50.043Z</time>
      </trkpt>
      <trkpt lat="48.799479" lon="2.125049">
        <ele>129.198149</ele>
        <time>2025-06-26T07:55:58.259Z</time>
      </trkpt>
      <trkpt lat="48.799282" lon="2.125769">
        <ele>129.382817</ele>
        <time>2025-06-26T07:56:09.534Z</time>
      </trkpt>
      <trkpt lat="48.799255" lon="2.125864">
        <ele>129.386418</ele>
        <time>2025-06-26T07:56:10.787Z</time>
      </trkpt>
      <trkpt lat="48.798847" lon="2.127287">
        <ele>129.440430</ele>
        <time>2025-06-26T07:56:25.077Z</time>
      </trkpt>
      <trkpt lat="48.798781" lon="2.127522">
        <ele>129.449321</ele>
        <time>2025-06-26T07:56:27.202Z</time>
      </trkpt>
      <trkpt lat="48.798798" lon="2.127533">
        <ele>129.450297</ele>
        <time>2025-06-26T07:56:27.426Z</time>
      </trkpt>
      <trkpt lat="48.799107" lon="2.127739">
        <ele>129.395883</ele>
        <time>2025-06-26T07:56:31.541Z</time>
      </trkpt>
      <trkpt lat="48.799115" lon="2.127744">
        <ele>129.393005</ele>
        <time>2025-06-26T07:56:31.648Z</time>
      </trkpt>
      <trkpt lat="48.799187" lon="2.127834">
        <ele>129.361977</ele>
        <time>2025-06-26T07:56:32.764Z</time>
      </trkpt>
      <trkpt lat="48.799261" lon="2.127912">
        <ele>129.332007</ele>
        <time>2025-06-26T07:56:33.826Z</time>
      </trkpt>
      <trkpt lat="48.799583" lon="2.128144">
        <ele>129.213434</ele>
        <time>2025-06-26T07:56:38.120Z</time>
      </trkpt>
      <trkpt lat="48.799660" lon="2.128194">
        <ele>129.185574</ele>
        <time>2025-06-26T07:56:39.103Z</time>
      </trkpt>
      <trkpt lat="48.799745" lon="2.128249">
        <ele>129.154835</ele>
        <time>2025-06-26T07:56:40.218Z</time>
      </trkpt>
      <trkpt lat="48.799814" lon="2.128293">
        <ele>129.129937</ele>
        <time>2025-06-26T07:56:41.127Z</time>
      </trkpt>
      <trkpt lat="48.800087" lon="2.128455">
        <ele>129.032426</ele>
        <time>2025-06-26T07:56:44.964Z</time>
      </trkpt>
      <trkpt lat="48.800229" lon="2.128557">
        <ele>128.980165</ele>
        <time>2025-06-26T07:56:47.258Z</time>
      </trkpt>
      <trkpt lat="48.800420" lon="2.128685">
        <ele>128.910709</ele>
        <time>2025-06-26T07:56:50.981Z</time>
      </trkpt>
      <trkpt lat="48.800538" lon="2.128764">
        <ele>128.867806</ele>
        <time>2025-06-26T07:56:53.458Z</time>
      </trkpt>
      <trkpt lat="48.800645" lon="2.128817">
        <ele>129.006702</ele>
        <time>2025-06-26T07:56:55.701Z</time>
      </trkpt>
      <trkpt lat="48.800705" lon="2.128848">
        <ele>129.111655</ele>
        <time>2025-06-26T07:56:56.999Z</time>
      </trkpt>
      <trkpt lat="48.800755" lon="2.128876">
        <ele>129.199906</ele>
        <time>2025-06-26T07:56:58.099Z</time>
      </trkpt>
      <trkpt lat="48.800855" lon="2.128889">
        <ele>129.366107</ele>
        <time>2025-06-26T07:57:00.206Z</time>
      </trkpt>
      <trkpt lat="48.801705" lon="2.129411">
        <ele>130.884459</ele>
        <time>2025-06-26T07:57:20.644Z</time>
      </trkpt>
      <trkpt lat="48.801938" lon="2.129553">
        <ele>131.300221</ele>
        <time>2025-06-26T07:57:26.336Z</time>
      </trkpt>
      <trkpt lat="48.802009" lon="2.129600">
        <ele>131.428484</ele>
        <time>2025-06-26T07:57:28.064Z</time>
      </trkpt>
      <trkpt lat="48.802038" lon="2.129626">
        <ele>131.484254</ele>
        <time>2025-06-26T07:57:28.804Z</time>
      </trkpt>
      <trkpt lat="48.802213" lon="2.129743">
        <ele>131.800900</ele>
        <time>2025-06-26T07:57:33.128Z</time>
      </trkpt>
      <trkpt lat="48.802345" lon="2.129827">
        <ele>131.959238</ele>
        <time>2025-06-26T07:57:36.307Z</time>
      </trkpt>
      <trkpt lat="48.802490" lon="2.129916">
        <ele>132.116140</ele>
        <time>2025-06-26T07:57:39.791Z</time>
      </trkpt>
      <trkpt lat="48.802541" lon="2.129943">
        <ele>132.170325</ele>
        <time>2025-06-26T07:57:40.986Z</time>
      </trkpt>
      <trkpt lat="48.802587" lon="2.129912">
        <ele>132.220814</ele>
        <time>2025-06-26T07:57:42.088Z</time>
      </trkpt>
      <trkpt lat="48.802642" lon="2.129946">
        <ele>132.280389</ele>
        <time>2025-06-26T07:57:43.428Z</time>
      </trkpt>
      <trkpt lat="48.803306" lon="2.130353">
        <ele>132.998755</ele>
        <time>2025-06-26T07:57:58.259Z</time>
      </trkpt>
      <trkpt lat="48.803949" lon="2.130737">
        <ele>133.667672</ele>
        <time>2025-06-26T07:58:08.288Z</time>
      </trkpt>
      <trkpt lat="48.804075" lon="2.130805">
        <ele>133.735687</ele>
        <time>2025-06-26T07:58:10.189Z</time>
      </trkpt>
      <trkpt lat="48.804157" lon="2.130882">
        <ele>133.784726</ele>
        <time>2025-06-26T07:58:11.622Z</time>
      </trkpt>
      <trkpt lat="48.804262" lon="2.130866">
        <ele>133.838400</ele>
        <time>2025-06-26T07:58:13.132Z</time>
      </trkpt>
      <trkpt lat="48.804663" lon="2.131008">
        <ele>134.047832</ele>
        <time>2025-06-26T07:58:19.002Z</time>
      </trkpt>
      <trkpt lat="48.804698" lon="2.131013">
        <ele>134.065712</ele>
        <time>2025-06-26T07:58:19.515Z</time>
      </trkpt>
      <trkpt lat="48.804806" lon="2.131119">
        <ele>134.131121</ele>
        <time>2025-06-26T07:58:21.479Z</time>
      </trkpt>
      <trkpt lat="48.804902" lon="2.131157">
        <ele>134.181581</ele>
        <time>2025-06-26T07:58:22.988Z</time>
      </trkpt>
      <trkpt lat="48.804926" lon="2.131561">
        <ele>134.317468</ele>
        <time>2025-06-26T07:58:27.356Z</time>
      </trkpt>
      <trkpt lat="48.804930" lon="2.131609">
        <ele>134.333675</ele>
        <time>2025-06-26T07:58:27.894Z</time>
      </trkpt>
      <trkpt lat="48.805008" lon="2.132047">
        <ele>134.485671</ele>
        <time>2025-06-26T07:58:33.705Z</time>
      </trkpt>
      <trkpt lat="48.805040" lon="2.132494">
        <ele>134.865484</ele>
        <time>2025-06-26T07:58:40.269Z</time>
      </trkpt>
      <trkpt lat="48.805134" lon="2.133782">
        <ele>136.563364</ele>
        <time>2025-06-26T07:59:00.778Z</time>
      </trkpt>
      <trkpt lat="48.805232" lon="2.135179">
        <ele>138.394715</ele>
        <time>2025-06-26T07:59:21.938Z</time>
      </trkpt>
      <trkpt lat="48.805233" lon="2.135737">
        <ele>139.100315</ele>
        <time>2025-06-26T07:59:30.119Z</time>
      </trkpt>
      <trkpt lat="48.805242" lon="2.135892">
        <ele>139.297074</ele>
        <time>2025-06-26T07:59:32.481Z</time>
      </trkpt>
      <trkpt lat="48.805254" lon="2.136043">
        <ele>139.489400</ele>
        <time>2025-06-26T07:59:34.833Z</time>
      </trkpt>
      <trkpt lat="48.805277" lon="2.136442">
        <ele>139.995869</ele>
        <time>2025-06-26T07:59:41.185Z</time>
      </trkpt>
      <trkpt lat="48.805349" lon="2.136743">
        <ele>140.400812</ele>
        <time>2025-06-26T07:59:46.298Z</time>
      </trkpt>
      <trkpt lat="48.805390" lon="2.137362">
        <ele>141.187490</ele>
        <time>2025-06-26T07:59:55.591Z</time>
      </trkpt>
      <trkpt lat="48.805409" lon="2.137650">
        <ele>141.553491</ele>
        <time>2025-06-26T07:59:59.576Z</time>
      </trkpt>
      <trkpt lat="48.805427" lon="2.137916">
        <ele>141.541580</ele>
        <time>2025-06-26T08:00:03.177Z</time>
      </trkpt>
      <trkpt lat="48.805403" lon="2.138056">
        <ele>141.512968</ele>
        <time>2025-06-26T08:00:05.084Z</time>
      </trkpt>
      <trkpt lat="48.805418" lon="2.138352">
        <ele>141.454252</ele>
        <time>2025-06-26T08:00:08.944Z</time>
      </trkpt>
      <trkpt lat="48.805437" lon="2.138597">
        <ele>141.405462</ele>
        <time>2025-06-26T08:00:11.889Z</time>
      </trkpt>
      <trkpt lat="48.805469" lon="2.139003">
        <ele>141.324590</ele>
        <time>2025-06-26T08:00:16.347Z</time>
      </trkpt>
      <trkpt lat="48.805498" lon="2.139384">
        <ele>141.248734</ele>
        <time>2025-06-26T08:00:19.641Z</time>
      </trkpt>
      <trkpt lat="48.805510" lon="2.139585">
        <ele>141.208818</ele>
        <time>2025-06-26T08:00:21.180Z</time>
      </trkpt>
      <trkpt lat="48.805571" lon="2.140528">
        <ele>140.858287</ele>
        <time>2025-06-26T08:00:27.951Z</time>
      </trkpt>
      <trkpt lat="48.805581" lon="2.140682">
        <ele>140.645377</ele>
        <time>2025-06-26T08:00:29.042Z</time>
      </trkpt>
      <trkpt lat="48.805593" lon="2.140882">
        <ele>140.369064</ele>
        <time>2025-06-26T08:00:30.471Z</time>
      </trkpt>
      <trkpt lat="48.805636" lon="2.141198">
        <ele>139.925109</ele>
        <time>2025-06-26T08:00:32.745Z</time>
      </trkpt>
      <trkpt lat="48.805726" lon="2.141422">
        <ele>139.564094</ele>
        <time>2025-06-26T08:00:34.583Z</time>
      </trkpt>
      <trkpt lat="48.805839" lon="2.141656">
        <ele>139.164874</ele>
        <time>2025-06-26T08:00:36.589Z</time>
      </trkpt>
      <trkpt lat="48.805870" lon="2.141716">
        <ele>139.059953</ele>
        <time>2025-06-26T08:00:37.110Z</time>
      </trkpt>
      <trkpt lat="48.805917" lon="2.141734">
        <ele>138.958693</ele>
        <time>2025-06-26T08:00:37.624Z</time>
      </trkpt>
      <trkpt lat="48.807557" lon="2.144690">
        <ele>134.491619</ele>
        <time>2025-06-26T08:01:06.155Z</time>
      </trkpt>
      <trkpt lat="48.807601" lon="2.144881">
        <ele>134.480599</ele>
        <time>2025-06-26T08:01:07.821Z</time>
      </trkpt>
      <trkpt lat="48.807783" lon="2.145204">
        <ele>134.723173</ele>
        <time>2025-06-26T08:01:11.405Z</time>
      </trkpt>
      <trkpt lat="48.807909" lon="2.145451">
        <ele>134.901459</ele>
        <time>2025-06-26T08:01:14.196Z</time>
      </trkpt>
      <trkpt lat="48.807969" lon="2.145553">
        <ele>134.979502</ele>
        <time>2025-06-26T08:01:15.543Z</time>
      </trkpt>
      <trkpt lat="48.808012" lon="2.145622">
        <ele>135.033710</ele>
        <time>2025-06-26T08:01:16.506Z</time>
      </trkpt>
      <trkpt lat="48.808139" lon="2.145837">
        <ele>135.198518</ele>
        <time>2025-06-26T08:01:19.768Z</time>
      </trkpt>
      <trkpt lat="48.808331" lon="2.146173">
        <ele>135.452366</ele>
        <time>2025-06-26T08:01:25.514Z</time>
      </trkpt>
      <trkpt lat="48.808520" lon="2.146504">
        <ele>135.702356</ele>
        <time>2025-06-26T08:01:31.979Z</time>
      </trkpt>
      <trkpt lat="48.808604" lon="2.146651">
        <ele>135.813414</ele>
        <time>2025-06-26T08:01:35.127Z</time>
      </trkpt>
      <trkpt lat="48.809008" lon="2.147375">
        <ele>137.971242</ele>
        <time>2025-06-26T08:01:52.396Z</time>
      </trkpt>
      <trkpt lat="48.809273" lon="2.147850">
        <ele>139.810448</ele>
        <time>2025-06-26T08:02:05.234Z</time>
      </trkpt>
      <trkpt lat="48.809364" lon="2.148017">
        <ele>140.450828</ele>
        <time>2025-06-26T08:02:09.982Z</time>
      </trkpt>
      <trkpt lat="48.809991" lon="2.149142">
        <ele>145.173210</ele>
        <time>2025-06-26T08:02:45.613Z</time>
      </trkpt>
      <trkpt lat="48.810216" lon="2.149551">
        <ele>147.502486</ele>
        <time>2025-06-26T08:02:59.877Z</time>
      </trkpt>
      <trkpt lat="48.810255" lon="2.149622">
        <ele>147.906585</ele>
        <time>2025-06-26T08:03:02.466Z</time>
      </trkpt>
      <trkpt lat="48.810325" lon="2.149737">
        <ele>148.591035</ele>
        <time>2025-06-26T08:03:06.814Z</time>
      </trkpt>
      <trkpt lat="48.810591" lon="2.150192">
        <ele>151.250252</ele>
        <time>2025-06-26T08:03:23.968Z</time>
      </trkpt>
      <trkpt lat="48.810806" lon="2.150642">
        <ele>153.680155</ele>
        <time>2025-06-26T08:03:39.901Z</time>
      </trkpt>
      <trkpt lat="48.811037" lon="2.151042">
        <ele>156.001342</ele>
        <time>2025-06-26T08:03:55.440Z</time>
      </trkpt>
      <trkpt lat="48.811146" lon="2.151237">
        <ele>156.973207</ele>
        <time>2025-06-26T08:04:02.665Z</time>
      </trkpt>
      <trkpt lat="48.811203" lon="2.151332">
        <ele>157.461533</ele>
        <time>2025-06-26T08:04:06.099Z</time>
      </trkpt>
      <trkpt lat="48.811284" lon="2.151486">
        <ele>158.210415</ele>
        <time>2025-06-26T08:04:11.285Z</time>
      </trkpt>
      <trkpt lat="48.811338" lon="2.151581">
        <ele>158.687254</ele>
        <time>2025-06-26T08:04:14.511Z</time>
      </trkpt>
      <trkpt lat="48.811518" lon="2.151895">
        <ele>160.269058</ele>
        <time>2025-06-26T08:04:25.064Z</time>
      </trkpt>
      <trkpt lat="48.811567" lon="2.151913">
        <ele>160.559935</ele>
        <time>2025-06-26T08:04:27.052Z</time>
      </trkpt>
      <trkpt lat="48.812232" lon="2.153119">
        <ele>166.460440</ele>
        <time>2025-06-26T08:05:04.566Z</time>
      </trkpt>
      <trkpt lat="48.812316" lon="2.153271">
        <ele>166.903270</ele>
        <time>2025-06-26T08:05:08.945Z</time>
      </trkpt>
      <trkpt lat="48.812569" lon="2.153727">
        <ele>168.233938</ele>
        <time>2025-06-26T08:05:21.928Z</time>
      </trkpt>
      <trkpt lat="48.813114" lon="2.154716">
        <ele>171.111848</ele>
        <time>2025-06-26T08:05:47.147Z</time>
      </trkpt>
      <trkpt lat="48.813180" lon="2.154832">
        <ele>171.453957</ele>
        <time>2025-06-26T08:05:49.526Z</time>
      </trkpt>
      <trkpt lat="48.813221" lon="2.154800">
        <ele>171.610177</ele>
        <time>2025-06-26T08:05:50.641Z</time>
      </trkpt>
      <trkpt lat="48.813423" lon="2.155164">
        <ele>172.320797</ele>
        <time>2025-06-26T08:05:58.985Z</time>
      </trkpt>
      <trkpt lat="48.813543" lon="2.155380">
        <ele>171.965880</ele>
        <time>2025-06-26T08:06:03.451Z</time>
      </trkpt>
      <trkpt lat="48.813662" lon="2.155594">
        <ele>171.614113</ele>
        <time>2025-06-26T08:06:07.478Z</time>
      </trkpt>
      <trkpt lat="48.814556" lon="2.157202">
        <ele>168.850701</ele>
        <time>2025-06-26T08:06:22.124Z</time>
      </trkpt>
      <trkpt lat="48.814586" lon="2.157256">
        <ele>168.529477</ele>
        <time>2025-06-26T08:06:22.559Z</time>
      </trkpt>
      <trkpt lat="48.814633" lon="2.157339">
        <ele>168.031763</ele>
        <time>2025-06-26T08:06:23.231Z</time>
      </trkpt>
      <trkpt lat="48.814653" lon="2.157372">
        <ele>167.827850</ele>
        <time>2025-06-26T08:06:23.501Z</time>
      </trkpt>
      <trkpt lat="48.814699" lon="2.157463">
        <ele>167.306256</ele>
        <time>2025-06-26T08:06:24.206Z</time>
      </trkpt>
      <trkpt lat="48.816345" lon="2.160412">
        <ele>149.965733</ele>
        <time>2025-06-26T08:06:46.769Z</time>
      </trkpt>
      <trkpt lat="48.816672" lon="2.161058">
        <ele>146.388410</ele>
        <time>2025-06-26T08:06:51.647Z</time>
      </trkpt>
      <trkpt lat="48.817084" lon="2.162029">
        <ele>143.253335</ele>
        <time>2025-06-26T08:06:59.014Z</time>
      </trkpt>
      <trkpt lat="48.817063" lon="2.162086">
        <ele>143.135404</ele>
        <time>2025-06-26T08:06:59.923Z</time>
      </trkpt>
      <trkpt lat="48.817028" lon="2.162183">
        <ele>142.935694</ele>
        <time>2025-06-26T08:07:00.675Z</time>
      </trkpt>
      <trkpt lat="48.817093" lon="2.162353">
        <ele>142.580754</ele>
        <time>2025-06-26T08:07:02.027Z</time>
      </trkpt>
      <trkpt lat="48.817396" lon="2.163037">
        <ele>141.092294</ele>
        <time>2025-06-26T08:07:07.932Z</time>
      </trkpt>
      <trkpt lat="48.817708" lon="2.163935">
        <ele>139.336148</ele>
        <time>2025-06-26T08:07:15.813Z</time>
      </trkpt>
      <trkpt lat="48.817932" lon="2.164601">
        <ele>138.236777</ele>
        <time>2025-06-26T08:07:21.396Z</time>
      </trkpt>
      <trkpt lat="48.818157" lon="2.165280">
        <ele>137.119356</ele>
        <time>2025-06-26T08:07:26.723Z</time>
      </trkpt>
      <trkpt lat="48.818195" lon="2.165412">
        <ele>136.907577</ele>
        <time>2025-06-26T08:07:27.720Z</time>
      </trkpt>
      <trkpt lat="48.818345" lon="2.165850">
        <ele>136.181827</ele>
        <time>2025-06-26T08:07:31.082Z</time>
      </trkpt>
      <trkpt lat="48.818316" lon="2.166043">
        <ele>135.890820</ele>
        <time>2025-06-26T08:07:32.429Z</time>
      </trkpt>
      <trkpt lat="48.818337" lon="2.166139">
        <ele>135.742114</ele>
        <time>2025-06-26T08:07:33.109Z</time>
      </trkpt>
      <trkpt lat="48.818388" lon="2.166272">
        <ele>135.540506</ele>
        <time>2025-06-26T08:07:34.154Z</time>
      </trkpt>
      <trkpt lat="48.818517" lon="2.166364">
        <ele>135.277348</ele>
        <time>2025-06-26T08:07:35.612Z</time>
      </trkpt>
      <trkpt lat="48.818628" lon="2.166654">
        <ele>134.869510</ele>
        <time>2025-06-26T08:07:37.870Z</time>
      </trkpt>
      <trkpt lat="48.818848" lon="2.167268">
        <ele>134.019615</ele>
        <time>2025-06-26T08:07:42.778Z</time>
      </trkpt>
      <trkpt lat="48.819063" lon="2.167862">
        <ele>133.195487</ele>
        <time>2025-06-26T08:07:48.007Z</time>
      </trkpt>
      <trkpt lat="48.819417" lon="2.168875">
        <ele>132.120827</ele>
        <time>2025-06-26T08:07:57.443Z</time>
      </trkpt>
      <trkpt lat="48.819473" lon="2.169184">
        <ele>131.963571</ele>
        <time>2025-06-26T08:08:00.188Z</time>
      </trkpt>
      <trkpt lat="48.819482" lon="2.169215">
        <ele>131.946947</ele>
        <time>2025-06-26T08:08:00.481Z</time>
      </trkpt>
      <trkpt lat="48.819589" lon="2.169469">
        <ele>131.798991</ele>
        <time>2025-06-26T08:08:03.151Z</time>
      </trkpt>
      <trkpt lat="48.819695" lon="2.169875">
        <ele>131.584689</ele>
        <time>2025-06-26T08:08:06.900Z</time>
      </trkpt>
      <trkpt lat="48.819741" lon="2.170051">
        <ele>131.491777</ele>
        <time>2025-06-26T08:08:08.475Z</time>
      </trkpt>
      <trkpt lat="48.820251" lon="2.171434">
        <ele>130.677097</ele>
        <time>2025-06-26T08:08:21.684Z</time>
      </trkpt>
      <trkpt lat="48.820280" lon="2.171635">
        <ele>130.562956</ele>
        <time>2025-06-26T08:08:23.414Z</time>
      </trkpt>
      <trkpt lat="48.820389" lon="2.171799">
        <ele>130.433694</ele>
        <time>2025-06-26T08:08:25.363Z</time>
      </trkpt>
      <trkpt lat="48.820467" lon="2.172018">
        <ele>130.295580</ele>
        <time>2025-06-26T08:08:27.394Z</time>
      </trkpt>
      <trkpt lat="48.820600" lon="2.172397">
        <ele>130.057352</ele>
        <time>2025-06-26T08:08:30.847Z</time>
      </trkpt>
      <trkpt lat="48.820967" lon="2.173922">
        <ele>129.073200</ele>
        <time>2025-06-26T08:08:44.253Z</time>
      </trkpt>
      <trkpt lat="48.821008" lon="2.174101">
        <ele>128.941042</ele>
        <time>2025-06-26T08:08:45.708Z</time>
      </trkpt>
      <trkpt lat="48.821058" lon="2.174397">
        <ele>128.727951</ele>
        <time>2025-06-26T08:08:48.022Z</time>
      </trkpt>
      <trkpt lat="48.821075" lon="2.174559">
        <ele>128.613559</ele>
        <time>2025-06-26T08:08:49.291Z</time>
      </trkpt>
      <trkpt lat="48.821183" lon="2.175659">
        <ele>127.838027</ele>
        <time>2025-06-26T08:08:58.145Z</time>
      </trkpt>
      <trkpt lat="48.821172" lon="2.175778">
        <ele>127.754233</ele>
        <time>2025-06-26T08:08:59.116Z</time>
      </trkpt>
      <trkpt lat="48.821165" lon="2.175873">
        <ele>127.687574</ele>
        <time>2025-06-26T08:08:59.893Z</time>
      </trkpt>
      <trkpt lat="48.821186" lon="2.176059">
        <ele>127.560997</ele>
        <time>2025-06-26T08:09:01.401Z</time>
      </trkpt>
      <trkpt lat="48.821196" lon="2.176727">
        <ele>127.208798</ele>
        <time>2025-06-26T08:09:06.753Z</time>
      </trkpt>
      <trkpt lat="48.821212" lon="2.177344">
        <ele>126.883321</ele>
        <time>2025-06-26T08:09:11.990Z</time>
      </trkpt>
      <trkpt lat="48.821292" lon="2.177998">
        <ele>126.532695</ele>
        <time>2025-06-26T08:09:17.708Z</time>
      </trkpt>
      <trkpt lat="48.821349" lon="2.178462">
        <ele>126.283897</ele>
        <time>2025-06-26T08:09:21.648Z</time>
      </trkpt>
      <trkpt lat="48.821320" lon="2.179677">
        <ele>125.406446</ele>
        <time>2025-06-26T08:09:31.806Z</time>
      </trkpt>
      <trkpt lat="48.821343" lon="2.179929">
        <ele>125.208060</ele>
        <time>2025-06-26T08:09:33.754Z</time>
      </trkpt>
      <trkpt lat="48.821481" lon="2.180552">
        <ele>124.695494</ele>
        <time>2025-06-26T08:09:38.641Z</time>
      </trkpt>
      <trkpt lat="48.821501" lon="2.180643">
        <ele>124.620685</ele>
        <time>2025-06-26T08:09:39.333Z</time>
      </trkpt>
      <trkpt lat="48.821873" lon="2.182260">
        <ele>124.212043</ele>
        <time>2025-06-26T08:09:52.698Z</time>
      </trkpt>
      <trkpt lat="48.821912" lon="2.182404">
        <ele>124.246665</ele>
        <time>2025-06-26T08:09:54.107Z</time>
      </trkpt>
      <trkpt lat="48.821991" lon="2.182696">
        <ele>124.316862</ele>
        <time>2025-06-26T08:09:57.258Z</time>
      </trkpt>
      <trkpt lat="48.822166" lon="2.183339">
        <ele>124.471570</ele>
        <time>2025-06-26T08:10:05.578Z</time>
      </trkpt>
      <trkpt lat="48.822282" lon="2.183610">
        <ele>124.543444</ele>
        <time>2025-06-26T08:10:10.105Z</time>
      </trkpt>
      <trkpt lat="48.822357" lon="2.183742">
        <ele>124.582213</ele>
        <time>2025-06-26T08:10:12.630Z</time>
      </trkpt>
      <trkpt lat="48.822560" lon="2.184067">
        <ele>124.859035</ele>
        <time>2025-06-26T08:10:19.858Z</time>
      </trkpt>
      <trkpt lat="48.822974" lon="2.184648">
        <ele>125.545270</ele>
        <time>2025-06-26T08:10:35.098Z</time>
      </trkpt>
      <trkpt lat="48.823881" lon="2.185582">
        <ele>126.605121</ele>
        <time>2025-06-26T08:10:55.565Z</time>
      </trkpt>
      <trkpt lat="48.824202" lon="2.185914">
        <ele>125.367605</ele>
        <time>2025-06-26T08:10:59.652Z</time>
      </trkpt>
      <trkpt lat="48.824587" lon="2.186311">
        <ele>123.884767</ele>
        <time>2025-06-26T08:11:04.258Z</time>
      </trkpt>
      <trkpt lat="48.824934" lon="2.186784">
        <ele>122.399048</ele>
        <time>2025-06-26T08:11:08.757Z</time>
      </trkpt>
      <trkpt lat="48.825042" lon="2.186934">
        <ele>121.932714</ele>
        <time>2025-06-26T08:11:10.170Z</time>
      </trkpt>
      <trkpt lat="48.825359" lon="2.187347">
        <ele>120.484936</ele>
        <time>2025-06-26T08:11:14.218Z</time>
      </trkpt>
      <trkpt lat="48.825505" lon="2.187459">
        <ele>119.834078</ele>
        <time>2025-06-26T08:11:15.778Z</time>
      </trkpt>
      <trkpt lat="48.825613" lon="2.187509">
        <ele>119.384801</ele>
        <time>2025-06-26T08:11:16.849Z</time>
      </trkpt>
      <trkpt lat="48.826075" lon="2.187738">
        <ele>117.450984</ele>
        <time>2025-06-26T08:11:21.486Z</time>
      </trkpt>
      <trkpt lat="48.826347" lon="2.188147">
        <ele>115.927987</ele>
        <time>2025-06-26T08:11:25.245Z</time>
      </trkpt>
      <trkpt lat="48.826492" lon="2.188337">
        <ele>115.165972</ele>
        <time>2025-06-26T08:11:27.154Z</time>
      </trkpt>
      <trkpt lat="48.826649" lon="2.188445">
        <ele>114.480153</ele>
        <time>2025-06-26T08:11:28.868Z</time>
      </trkpt>
      <trkpt lat="48.826682" lon="2.188461">
        <ele>114.342311</ele>
        <time>2025-06-26T08:11:29.217Z</time>
      </trkpt>
      <trkpt lat="48.826876" lon="2.188555">
        <ele>113.800533</ele>
        <time>2025-06-26T08:11:31.285Z</time>
      </trkpt>
      <trkpt lat="48.826878" lon="2.188614">
        <ele>113.754333</ele>
        <time>2025-06-26T08:11:31.690Z</time>
      </trkpt>
      <trkpt lat="48.826981" lon="2.188819">
        <ele>113.552665</ele>
        <time>2025-06-26T08:11:33.419Z</time>
      </trkpt>
      <trkpt lat="48.827055" lon="2.188821">
        <ele>113.464749</ele>
        <time>2025-06-26T08:11:34.180Z</time>
      </trkpt>
      <trkpt lat="48.827077" lon="2.188746">
        <ele>113.400540</ele>
        <time>2025-06-26T08:11:34.747Z</time>
      </trkpt>
      <trkpt lat="48.827401" lon="2.188820">
        <ele>113.011346</ele>
        <time>2025-06-26T08:11:38.320Z</time>
      </trkpt>
      <trkpt lat="48.827520" lon="2.188849">
        <ele>112.868182</ele>
        <time>2025-06-26T08:11:39.779Z</time>
      </trkpt>
      <trkpt lat="48.827661" lon="2.188919">
        <ele>112.691975</ele>
        <time>2025-06-26T08:11:41.798Z</time>
      </trkpt>
      <trkpt lat="48.827737" lon="2.189004">
        <ele>112.579866</ele>
        <time>2025-06-26T08:11:43.236Z</time>
      </trkpt>
      <trkpt lat="48.827810" lon="2.189109">
        <ele>112.460445</ele>
        <time>2025-06-26T08:11:44.843Z</time>
      </trkpt>
      <trkpt lat="48.827950" lon="2.189313">
        <ele>112.230000</ele>
        <time>2025-06-26T08:11:47.976Z</time>
      </trkpt>
      <trkpt lat="48.828065" lon="2.189501">
        <ele>112.029315</ele>
        <time>2025-06-26T08:11:50.916Z</time>
      </trkpt>
      <trkpt lat="48.828279" lon="2.190010">
        <ele>111.789699</ele>
        <time>2025-06-26T08:11:57.249Z</time>
      </trkpt>
      <trkpt lat="48.828465" lon="2.191373">
        <ele>111.846002</ele>
        <time>2025-06-26T08:12:10.366Z</time>
      </trkpt>
      <trkpt lat="48.828648" lon="2.192658">
        <ele>112.296966</ele>
        <time>2025-06-26T08:12:23.074Z</time>
      </trkpt>
      <trkpt lat="48.828743" lon="2.192935">
        <ele>112.792265</ele>
        <time>2025-06-26T08:12:26.505Z</time>
      </trkpt>
      <trkpt lat="48.828831" lon="2.193106">
        <ele>113.136458</ele>
        <time>2025-06-26T08:12:29.162Z</time>
      </trkpt>
      <trkpt lat="48.829051" lon="2.193431">
        <ele>113.875689</ele>
        <time>2025-06-26T08:12:35.736Z</time>
      </trkpt>
      <trkpt lat="48.829259" lon="2.193664">
        <ele>114.498236</ele>
        <time>2025-06-26T08:12:42.203Z</time>
      </trkpt>
      <trkpt lat="48.829420" lon="2.193843">
        <ele>114.978842</ele>
        <time>2025-06-26T08:12:47.712Z</time>
      </trkpt>
      <trkpt lat="48.829453" lon="2.193886">
        <ele>115.083574</ele>
        <time>2025-06-26T08:12:48.976Z</time>
      </trkpt>
      <trkpt lat="48.829573" lon="2.194042">
        <ele>115.464040</ele>
        <time>2025-06-26T08:12:53.842Z</time>
      </trkpt>
      <trkpt lat="48.830328" lon="2.195020">
        <ele>118.164729</ele>
        <time>2025-06-26T08:13:28.050Z</time>
      </trkpt>
      <trkpt lat="48.830526" lon="2.195273">
        <ele>118.906518</ele>
        <time>2025-06-26T08:13:36.388Z</time>
      </trkpt>
      <trkpt lat="48.830597" lon="2.195365">
        <ele>119.174071</ele>
        <time>2025-06-26T08:13:39.224Z</time>
      </trkpt>
      <trkpt lat="48.832009" lon="2.197209">
        <ele>119.890851</ele>
        <time>2025-06-26T08:14:11.439Z</time>
      </trkpt>
      <trkpt lat="48.832174" lon="2.197424">
        <ele>119.595104</ele>
        <time>2025-06-26T08:14:13.702Z</time>
      </trkpt>
      <trkpt lat="48.834368" lon="2.200289">
        <ele>107.266853</ele>
        <time>2025-06-26T08:14:41.009Z</time>
      </trkpt>
      <trkpt lat="48.835840" lon="2.201831">
        <ele>99.311290</ele>
        <time>2025-06-26T08:14:58.085Z</time>
      </trkpt>
      <trkpt lat="48.836107" lon="2.202071">
        <ele>98.097398</ele>
        <time>2025-06-26T08:15:01.113Z</time>
      </trkpt>
      <trkpt lat="48.836500" lon="2.202442">
        <ele>96.286967</ele>
        <time>2025-06-26T08:15:05.687Z</time>
      </trkpt>
      <trkpt lat="48.837004" lon="2.202907">
        <ele>94.205444</ele>
        <time>2025-06-26T08:15:11.635Z</time>
      </trkpt>
      <trkpt lat="48.837516" lon="2.203384">
        <ele>92.703772</ele>
        <time>2025-06-26T08:15:17.887Z</time>
      </trkpt>
      <trkpt lat="48.837933" lon="2.203860">
        <ele>91.399663</ele>
        <time>2025-06-26T08:15:23.432Z</time>
      </trkpt>
      <trkpt lat="48.838587" lon="2.204706">
        <ele>89.925063</ele>
        <time>2025-06-26T08:15:32.819Z</time>
      </trkpt>
      <trkpt lat="48.838999" lon="2.205395">
        <ele>89.597927</ele>
        <time>2025-06-26T08:15:40.184Z</time>
      </trkpt>
      <trkpt lat="48.839177" lon="2.205773">
        <ele>89.434592</ele>
        <time>2025-06-26T08:15:44.404Z</time>
      </trkpt>
      <trkpt lat="48.839261" lon="2.205950">
        <ele>89.357907</ele>
        <time>2025-06-26T08:15:46.534Z</time>
      </trkpt>
      <trkpt lat="48.839297" lon="2.206018">
        <ele>89.327239</ele>
        <time>2025-06-26T08:15:47.427Z</time>
      </trkpt>
      <trkpt lat="48.839535" lon="2.206473">
        <ele>89.302585</ele>
        <time>2025-06-26T08:15:54.297Z</time>
      </trkpt>
      <trkpt lat="48.839639" lon="2.206576">
        <ele>89.723081</ele>
        <time>2025-06-26T08:15:56.915Z</time>
      </trkpt>
      <trkpt lat="48.839776" lon="2.206784">
        <ele>90.379094</ele>
        <time>2025-06-26T08:16:01.361Z</time>
      </trkpt>
      <trkpt lat="48.839879" lon="2.206892">
        <ele>90.802986</ele>
        <time>2025-06-26T08:16:04.507Z</time>
      </trkpt>
      <trkpt lat="48.840072" lon="2.207043">
        <ele>91.538290</ele>
        <time>2025-06-26T08:16:10.393Z</time>
      </trkpt>
      <trkpt lat="48.840115" lon="2.207076">
        <ele>91.701463</ele>
        <time>2025-06-26T08:16:11.775Z</time>
      </trkpt>
      <trkpt lat="48.840162" lon="2.207102">
        <ele>91.870884</ele>
        <time>2025-06-26T08:16:13.226Z</time>
      </trkpt>
      <trkpt lat="48.840283" lon="2.207159">
        <ele>92.299978</ele>
        <time>2025-06-26T08:16:17.060Z</time>
      </trkpt>
      <trkpt lat="48.840389" lon="2.207184">
        <ele>92.663318</ele>
        <time>2025-06-26T08:16:20.393Z</time>
      </trkpt>
      <trkpt lat="48.840670" lon="2.207189">
        <ele>93.615177</ele>
        <time>2025-06-26T08:16:29.590Z</time>
      </trkpt>
      <trkpt lat="48.841847" lon="2.207070">
        <ele>98.206701</ele>
        <time>2025-06-26T08:17:09.762Z</time>
      </trkpt>
      <trkpt lat="48.842068" lon="2.207091">
        <ele>99.145272</ele>
        <time>2025-06-26T08:17:16.941Z</time>
      </trkpt>
      <trkpt lat="48.842263" lon="2.207120">
        <ele>99.975756</ele>
        <time>2025-06-26T08:17:23.151Z</time>
      </trkpt>
      <trkpt lat="48.842301" lon="2.207141">
        <ele>100.147147</ele>
        <time>2025-06-26T08:17:24.440Z</time>
      </trkpt>
      <trkpt lat="48.842357" lon="2.207106">
        <ele>100.403807</ele>
        <time>2025-06-26T08:17:26.268Z</time>
      </trkpt>
      <trkpt lat="48.842413" lon="2.207094">
        <ele>100.643520</ele>
        <time>2025-06-26T08:17:28.002Z</time>
      </trkpt>
      <trkpt lat="48.842765" lon="2.206998">
        <ele>102.159366</ele>
        <time>2025-06-26T08:17:38.500Z</time>
      </trkpt>
      <trkpt lat="48.843695" lon="2.206936">
        <ele>105.149444</ele>
        <time>2025-06-26T08:18:05.310Z</time>
      </trkpt>
      <trkpt lat="48.843827" lon="2.206996">
        <ele>105.561271</ele>
        <time>2025-06-26T08:18:09.216Z</time>
      </trkpt>
      <trkpt lat="48.844046" lon="2.207163">
        <ele>106.293675</ele>
        <time>2025-06-26T08:18:15.981Z</time>
      </trkpt>
      <trkpt lat="48.844295" lon="2.207540">
        <ele>107.344344</ele>
        <time>2025-06-26T08:18:25.191Z</time>
      </trkpt>
      <trkpt lat="48.844374" lon="2.207921">
        <ele>108.130128</ele>
        <time>2025-06-26T08:18:31.508Z</time>
      </trkpt>
      <trkpt lat="48.844399" lon="2.208165">
        <ele>108.400917</ele>
        <time>2025-06-26T08:18:35.157Z</time>
      </trkpt>
      <trkpt lat="48.844409" lon="2.208631">
        <ele>108.793888</ele>
        <time>2025-06-26T08:18:41.638Z</time>
      </trkpt>
      <trkpt lat="48.844420" lon="2.209236">
        <ele>109.303999</ele>
        <time>2025-06-26T08:18:49.249Z</time>
      </trkpt>
      <trkpt lat="48.844433" lon="2.209881">
        <ele>109.847884</ele>
        <time>2025-06-26T08:18:56.616Z</time>
      </trkpt>
      <trkpt lat="48.844443" lon="2.210362">
        <ele>110.253492</ele>
        <time>2025-06-26T08:19:02.486Z</time>
      </trkpt>
      <trkpt lat="48.844444" lon="2.210390">
        <ele>110.277126</ele>
        <time>2025-06-26T08:19:02.846Z</time>
      </trkpt>
      <trkpt lat="48.844457" lon="2.211021">
        <ele>111.006262</ele>
        <time>2025-06-26T08:19:10.997Z</time>
      </trkpt>
      <trkpt lat="48.844479" lon="2.211329">
        <ele>111.460860</ele>
        <time>2025-06-26T08:19:15.127Z</time>
      </trkpt>
      <trkpt lat="48.844557" lon="2.211698">
        <ele>112.029557</ele>
        <time>2025-06-26T08:19:20.430Z</time>
      </trkpt>
      <trkpt lat="48.844635" lon="2.211947">
        <ele>112.434207</ele>
        <time>2025-06-26T08:19:24.556Z</time>
      </trkpt>
      <trkpt lat="48.844901" lon="2.212529">
        <ele>113.473947</ele>
        <time>2025-06-26T08:19:36.125Z</time>
      </trkpt>
      <trkpt lat="48.845157" lon="2.212920">
        <ele>114.283249</ele>
        <time>2025-06-26T08:19:46.051Z</time>
      </trkpt>
      <trkpt lat="48.845233" lon="2.213028">
        <ele>114.515257</ele>
        <time>2025-06-26T08:19:49.113Z</time>
      </trkpt>
      <trkpt lat="48.845493" lon="2.213316">
        <ele>115.363737</ele>
        <time>2025-06-26T08:19:58.468Z</time>
      </trkpt>
      <trkpt lat="48.845646" lon="2.213497">
        <ele>115.879536</ele>
        <time>2025-06-26T08:20:04.112Z</time>
      </trkpt>
      <trkpt lat="48.845710" lon="2.213574">
        <ele>116.096687</ele>
        <time>2025-06-26T08:20:06.463Z</time>
      </trkpt>
      <trkpt lat="48.846245" lon="2.213952">
        <ele>117.666173</ele>
        <time>2025-06-26T08:20:23.231Z</time>
      </trkpt>
      <trkpt lat="48.846485" lon="2.214068">
        <ele>118.336121</ele>
        <time>2025-06-26T08:20:29.787Z</time>
      </trkpt>
      <trkpt lat="48.846899" lon="2.214200">
        <ele>119.277113</ele>
        <time>2025-06-26T08:20:38.818Z</time>
      </trkpt>
      <trkpt lat="48.847202" lon="2.214270">
        <ele>118.872124</ele>
        <time>2025-06-26T08:20:43.713Z</time>
      </trkpt>
      <trkpt lat="48.847517" lon="2.214280">
        <ele>118.455788</ele>
        <time>2025-06-26T08:20:47.606Z</time>
      </trkpt>
      <trkpt lat="48.847797" lon="2.214277">
        <ele>118.085783</ele>
        <time>2025-06-26T08:20:50.694Z</time>
      </trkpt>
      <trkpt lat="48.848201" lon="2.214175">
        <ele>117.544614</ele>
        <time>2025-06-26T08:20:55.033Z</time>
      </trkpt>
      <trkpt lat="48.849248" lon="2.213813">
        <ele>115.778790</ele>
        <time>2025-06-26T08:21:06.203Z</time>
      </trkpt>
      <trkpt lat="48.849397" lon="2.213765">
        <ele>115.493976</ele>
        <time>2025-06-26T08:21:07.870Z</time>
      </trkpt>
      <trkpt lat="48.849482" lon="2.213734">
        <ele>115.330517</ele>
        <time>2025-06-26T08:21:08.831Z</time>
      </trkpt>
      <trkpt lat="48.850217" lon="2.213483">
        <ele>113.921829</ele>
        <time>2025-06-26T08:21:17.663Z</time>
      </trkpt>
      <trkpt lat="48.850517" lon="2.213382">
        <ele>113.350761</ele>
        <time>2025-06-26T08:21:21.595Z</time>
      </trkpt>
      <trkpt lat="48.851824" lon="2.212932">
        <ele>110.879938</ele>
        <time>2025-06-26T08:21:37.578Z</time>
      </trkpt>
      <trkpt lat="48.852325" lon="2.212745">
        <ele>109.514957</ele>
        <time>2025-06-26T08:21:42.697Z</time>
      </trkpt>
      <trkpt lat="48.852509" lon="2.212677">
        <ele>108.756723</ele>
        <time>2025-06-26T08:21:44.501Z</time>
      </trkpt>
      <trkpt lat="48.852609" lon="2.212655">
        <ele>108.352134</ele>
        <time>2025-06-26T08:21:45.446Z</time>
      </trkpt>
      <trkpt lat="48.852964" lon="2.212542">
        <ele>106.899816</ele>
        <time>2025-06-26T08:21:48.798Z</time>
      </trkpt>
      <trkpt lat="48.853993" lon="2.212194">
        <ele>102.901294</ele>
        <time>2025-06-26T08:21:59.076Z</time>
      </trkpt>
      <trkpt lat="48.854293" lon="2.212091">
        <ele>102.352962</ele>
        <time>2025-06-26T08:22:02.369Z</time>
      </trkpt>
      <trkpt lat="48.855857" lon="2.211550">
        <ele>99.299818</ele>
        <time>2025-06-26T08:22:21.729Z</time>
      </trkpt>
      <trkpt lat="48.856433" lon="2.211353">
        <ele>97.711191</ele>
        <time>2025-06-26T08:22:27.992Z</time>
      </trkpt>
      <trkpt lat="48.856785" lon="2.211229">
        <ele>96.738940</ele>
        <time>2025-06-26T08:22:31.670Z</time>
      </trkpt>
      <trkpt lat="48.856932" lon="2.211236">
        <ele>96.343206</ele>
        <time>2025-06-26T08:22:33.140Z</time>
      </trkpt>
      <trkpt lat="48.856976" lon="2.211225">
        <ele>96.223222</ele>
        <time>2025-06-26T08:22:33.598Z</time>
      </trkpt>
      <trkpt lat="48.857525" lon="2.211047">
        <ele>94.635765</ele>
        <time>2025-06-26T08:22:39.192Z</time>
      </trkpt>
      <trkpt lat="48.857863" lon="2.211015">
        <ele>93.505766</ele>
        <time>2025-06-26T08:22:42.563Z</time>
      </trkpt>
      <trkpt lat="48.857941" lon="2.211028">
        <ele>93.243941</ele>
        <time>2025-06-26T08:22:43.367Z</time>
      </trkpt>
      <trkpt lat="48.858063" lon="2.211054">
        <ele>92.832878</ele>
        <time>2025-06-26T08:22:44.627Z</time>
      </trkpt>
      <trkpt lat="48.858388" lon="2.211223">
        <ele>91.686734</ele>
        <time>2025-06-26T08:22:48.112Z</time>
      </trkpt>
      <trkpt lat="48.858586" lon="2.211420">
        <ele>90.897100</ele>
        <time>2025-06-26T08:22:50.533Z</time>
      </trkpt>
      <trkpt lat="48.858758" lon="2.211695">
        <ele>90.064129</ele>
        <time>2025-06-26T08:22:53.089Z</time>
      </trkpt>
      <trkpt lat="48.858839" lon="2.211839">
        <ele>89.648219</ele>
        <time>2025-06-26T08:22:54.368Z</time>
      </trkpt>
      <trkpt lat="48.858887" lon="2.211956">
        <ele>89.345525</ele>
        <time>2025-06-26T08:22:55.293Z</time>
      </trkpt>
      <trkpt lat="48.859050" lon="2.212519">
        <ele>87.754685</ele>
        <time>2025-06-26T08:22:59.279Z</time>
      </trkpt>
      <trkpt lat="48.859063" lon="2.212560">
        <ele>87.631591</ele>
        <time>2025-06-26T08:22:59.569Z</time>
      </trkpt>
      <trkpt lat="48.859170" lon="2.212937">
        <ele>86.521134</ele>
        <time>2025-06-26T08:23:02.190Z</time>
      </trkpt>
      <trkpt lat="48.859348" lon="2.213507">
        <ele>84.814683</ele>
        <time>2025-06-26T08:23:06.166Z</time>
      </trkpt>
      <trkpt lat="48.859375" lon="2.213607">
        <ele>84.522337</ele>
        <time>2025-06-26T08:23:06.837Z</time>
      </trkpt>
      <trkpt lat="48.859411" lon="2.213734">
        <ele>84.148332</ele>
        <time>2025-06-26T08:23:07.701Z</time>
      </trkpt>
      <trkpt lat="48.859450" lon="2.213888">
        <ele>83.702039</ele>
        <time>2025-06-26T08:23:08.739Z</time>
      </trkpt>
      <trkpt lat="48.859672" lon="2.214604">
        <ele>81.577604</ele>
        <time>2025-06-26T08:23:13.749Z</time>
      </trkpt>
      <trkpt lat="48.859766" lon="2.214769">
        <ele>81.112777</ele>
        <time>2025-06-26T08:23:15.147Z</time>
      </trkpt>
      <trkpt lat="48.859879" lon="2.214893">
        <ele>80.661628</ele>
        <time>2025-06-26T08:23:16.527Z</time>
      </trkpt>
      <trkpt lat="48.860562" lon="2.215354">
        <ele>78.242559</ele>
        <time>2025-06-26T08:23:24.319Z</time>
      </trkpt>
      <trkpt lat="48.861402" lon="2.215898">
        <ele>75.061404</ele>
        <time>2025-06-26T08:23:33.710Z</time>
      </trkpt>
      <trkpt lat="48.862256" lon="2.216483">
        <ele>70.735915</ele>
        <time>2025-06-26T08:23:42.834Z</time>
      </trkpt>
      <trkpt lat="48.862352" lon="2.216578">
        <ele>70.206949</ele>
        <time>2025-06-26T08:23:43.897Z</time>
      </trkpt>
      <trkpt lat="48.862460" lon="2.216781">
        <ele>69.413842</ele>
        <time>2025-06-26T08:23:45.460Z</time>
      </trkpt>
      <trkpt lat="48.862505" lon="2.216959">
        <ele>68.834550</ele>
        <time>2025-06-26T08:23:46.599Z</time>
      </trkpt>
      <trkpt lat="48.862571" lon="2.217305">
        <ele>67.740159</ele>
        <time>2025-06-26T08:23:48.759Z</time>
      </trkpt>
      <trkpt lat="48.862624" lon="2.217595">
        <ele>66.846128</ele>
        <time>2025-06-26T08:23:50.576Z</time>
      </trkpt>
      <trkpt lat="48.862671" lon="2.217831">
        <ele>66.119299</ele>
        <time>2025-06-26T08:23:52.080Z</time>
      </trkpt>
      <trkpt lat="48.862766" lon="2.218040">
        <ele>65.370483</ele>
        <time>2025-06-26T08:23:53.641Z</time>
      </trkpt>
      <trkpt lat="48.862956" lon="2.218348">
        <ele>64.125893</ele>
        <time>2025-06-26T08:23:56.240Z</time>
      </trkpt>
      <trkpt lat="48.863179" lon="2.218529">
        <ele>62.993185</ele>
        <time>2025-06-26T08:23:58.600Z</time>
      </trkpt>
      <trkpt lat="48.863361" lon="2.218606">
        <ele>62.146707</ele>
        <time>2025-06-26T08:24:00.428Z</time>
      </trkpt>
      <trkpt lat="48.863981" lon="2.218716">
        <ele>59.394600</ele>
        <time>2025-06-26T08:24:06.740Z</time>
      </trkpt>
      <trkpt lat="48.864122" lon="2.218747">
        <ele>59.038874</ele>
        <time>2025-06-26T08:24:08.300Z</time>
      </trkpt>
      <trkpt lat="48.864512" lon="2.218906">
        <ele>58.030670</ele>
        <time>2025-06-26T08:24:12.743Z</time>
      </trkpt>
      <trkpt lat="48.864915" lon="2.219143">
        <ele>56.951743</ele>
        <time>2025-06-26T08:24:17.438Z</time>
      </trkpt>
      <trkpt lat="48.865256" lon="2.219419">
        <ele>55.987132</ele>
        <time>2025-06-26T08:24:21.556Z</time>
      </trkpt>
      <trkpt lat="48.865521" lon="2.219680">
        <ele>55.198714</ele>
        <time>2025-06-26T08:24:24.832Z</time>
      </trkpt>
      <trkpt lat="48.866097" lon="2.220420">
        <ele>53.235546</ele>
        <time>2025-06-26T08:24:32.684Z</time>
      </trkpt>
      <trkpt lat="48.866469" lon="2.220819">
        <ele>52.043371</ele>
        <time>2025-06-26T08:24:37.414Z</time>
      </trkpt>
      <trkpt lat="48.866511" lon="2.220857">
        <ele>51.915385</ele>
        <time>2025-06-26T08:24:37.916Z</time>
      </trkpt>
      <trkpt lat="48.866733" lon="2.221035">
        <ele>51.258154</ele>
        <time>2025-06-26T08:24:40.500Z</time>
      </trkpt>
      <trkpt lat="48.866763" lon="2.221058">
        <ele>51.170172</ele>
        <time>2025-06-26T08:24:40.868Z</time>
      </trkpt>
      <trkpt lat="48.866919" lon="2.221181">
        <ele>50.709996</ele>
        <time>2025-06-26T08:24:42.732Z</time>
      </trkpt>
      <trkpt lat="48.867108" lon="2.221325">
        <ele>50.146210</ele>
        <time>2025-06-26T08:24:45.017Z</time>
      </trkpt>
      <trkpt lat="48.867130" lon="2.221344">
        <ele>50.072739</ele>
        <time>2025-06-26T08:24:45.292Z</time>
      </trkpt>
      <trkpt lat="48.867193" lon="2.221396">
        <ele>49.864579</ele>
        <time>2025-06-26T08:24:46.080Z</time>
      </trkpt>
      <trkpt lat="48.867448" lon="2.221613">
        <ele>49.016010</ele>
        <time>2025-06-26T08:24:49.245Z</time>
      </trkpt>
      <trkpt lat="48.867544" lon="2.221718">
        <ele>48.672601</ele>
        <time>2025-06-26T08:24:50.517Z</time>
      </trkpt>
      <trkpt lat="48.867569" lon="2.221750">
        <ele>48.577702</ele>
        <time>2025-06-26T08:24:50.876Z</time>
      </trkpt>
      <trkpt lat="48.867601" lon="2.221790">
        <ele>48.457405</ele>
        <time>2025-06-26T08:24:51.314Z</time>
      </trkpt>
      <trkpt lat="48.867652" lon="2.221851">
        <ele>48.268974</ele>
        <time>2025-06-26T08:24:52.001Z</time>
      </trkpt>
      <trkpt lat="48.867906" lon="2.222191">
        <ele>47.286259</ele>
        <time>2025-06-26T08:24:55.577Z</time>
      </trkpt>
      <trkpt lat="48.868153" lon="2.222732">
        <ele>46.028402</ele>
        <time>2025-06-26T08:25:00.071Z</time>
      </trkpt>
      <trkpt lat="48.868226" lon="2.222976">
        <ele>45.516408</ele>
        <time>2025-06-26T08:25:01.841Z</time>
      </trkpt>
      <trkpt lat="48.868256" lon="2.223100">
        <ele>45.264050</ele>
        <time>2025-06-26T08:25:02.718Z</time>
      </trkpt>
      <trkpt lat="48.868292" lon="2.223227">
        <ele>44.986073</ele>
        <time>2025-06-26T08:25:03.603Z</time>
      </trkpt>
      <trkpt lat="48.868314" lon="2.223418">
        <ele>44.428183</ele>
        <time>2025-06-26T08:25:04.836Z</time>
      </trkpt>
      <trkpt lat="48.868316" lon="2.223478">
        <ele>44.255334</ele>
        <time>2025-06-26T08:25:05.213Z</time>
      </trkpt>
      <trkpt lat="48.868320" lon="2.223593">
        <ele>43.924004</ele>
        <time>2025-06-26T08:25:05.931Z</time>
      </trkpt>
      <trkpt lat="48.868314" lon="2.223746">
        <ele>43.483024</ele>
        <time>2025-06-26T08:25:06.891Z</time>
      </trkpt>
      <trkpt lat="48.868286" lon="2.223972">
        <ele>42.821362</ele>
        <time>2025-06-26T08:25:08.306Z</time>
      </trkpt>
      <trkpt lat="48.868173" lon="2.224500">
        <ele>41.223862</ele>
        <time>2025-06-26T08:25:11.674Z</time>
      </trkpt>
      <trkpt lat="48.867968" lon="2.225083">
        <ele>39.321879</ele>
        <time>2025-06-26T08:25:15.863Z</time>
      </trkpt>
      <trkpt lat="48.867903" lon="2.225283">
        <ele>38.680049</ele>
        <time>2025-06-26T08:25:17.285Z</time>
      </trkpt>
      <trkpt lat="48.867713" lon="2.225873">
        <ele>36.977631</ele>
        <time>2025-06-26T08:25:21.473Z</time>
      </trkpt>
      <trkpt lat="48.867697" lon="2.225927">
        <ele>36.893603</ele>
        <time>2025-06-26T08:25:21.862Z</time>
      </trkpt>
      <trkpt lat="48.867687" lon="2.225964">
        <ele>36.836849</ele>
        <time>2025-06-26T08:25:22.120Z</time>
      </trkpt>
      <trkpt lat="48.867632" lon="2.226124">
        <ele>36.580714</ele>
        <time>2025-06-26T08:25:23.323Z</time>
      </trkpt>
      <trkpt lat="48.867584" lon="2.226349">
        <ele>36.245115</ele>
        <time>2025-06-26T08:25:24.920Z</time>
      </trkpt>
      <trkpt lat="48.867492" lon="2.226641">
        <ele>35.785755</ele>
        <time>2025-06-26T08:25:27.174Z</time>
      </trkpt>
      <trkpt lat="48.867292" lon="2.227689">
        <ele>34.237536</ele>
        <time>2025-06-26T08:25:35.622Z</time>
      </trkpt>
      <trkpt lat="48.867113" lon="2.228396">
        <ele>33.227964</ele>
        <time>2025-06-26T08:25:41.143Z</time>
      </trkpt>
      <trkpt lat="48.867111" lon="2.228587">
        <ele>33.106855</ele>
        <time>2025-06-26T08:25:42.534Z</time>
      </trkpt>
      <trkpt lat="48.866504" lon="2.230901">
        <ele>31.528770</ele>
        <time>2025-06-26T08:26:03.160Z</time>
      </trkpt>
      <trkpt lat="48.866436" lon="2.231145">
        <ele>31.372238</ele>
        <time>2025-06-26T08:26:05.436Z</time>
      </trkpt>
      <trkpt lat="48.866370" lon="2.231378">
        <ele>31.222387</ele>
        <time>2025-06-26T08:26:07.582Z</time>
      </trkpt>
      <trkpt lat="48.866258" lon="2.231749">
        <ele>30.981262</ele>
        <time>2025-06-26T08:26:10.960Z</time>
      </trkpt>
      <trkpt lat="48.865962" lon="2.232592">
        <ele>30.416802</ele>
        <time>2025-06-26T08:26:19.015Z</time>
      </trkpt>
      <trkpt lat="48.865672" lon="2.233237">
        <ele>29.955306</ele>
        <time>2025-06-26T08:26:25.010Z</time>
      </trkpt>
      <trkpt lat="48.865067" lon="2.234261">
        <ele>29.356497</ele>
        <time>2025-06-26T08:26:36.084Z</time>
      </trkpt>
      <trkpt lat="48.864992" lon="2.234394">
        <ele>29.281087</ele>
        <time>2025-06-26T08:26:37.614Z</time>
      </trkpt>
      <trkpt lat="48.864947" lon="2.234482">
        <ele>29.233106</ele>
        <time>2025-06-26T08:26:38.596Z</time>
      </trkpt>
      <trkpt lat="48.864915" lon="2.234544">
        <ele>29.199182</ele>
        <time>2025-06-26T08:26:39.291Z</time>
      </trkpt>
      <trkpt lat="48.864662" lon="2.235025">
        <ele>28.934072</ele>
        <time>2025-06-26T08:26:44.806Z</time>
      </trkpt>
      <trkpt lat="48.864591" lon="2.235270">
        <ele>28.818824</ele>
        <time>2025-06-26T08:26:47.226Z</time>
      </trkpt>
      <trkpt lat="48.864318" lon="2.235821">
        <ele>28.820520</ele>
        <time>2025-06-26T08:26:53.631Z</time>
      </trkpt>
      <trkpt lat="48.864009" lon="2.236605">
        <ele>28.931069</ele>
        <time>2025-06-26T08:27:03.185Z</time>
      </trkpt>
      <trkpt lat="48.863787" lon="2.237257">
        <ele>29.019872</ele>
        <time>2025-06-26T08:27:10.540Z</time>
      </trkpt>
      <trkpt lat="48.863657" lon="2.237837">
        <ele>29.110842</ele>
        <time>2025-06-26T08:27:17.153Z</time>
      </trkpt>
      <trkpt lat="48.863569" lon="2.238458">
        <ele>29.344498</ele>
        <time>2025-06-26T08:27:24.716Z</time>
      </trkpt>
      <trkpt lat="48.863544" lon="2.238811">
        <ele>29.475089</ele>
        <time>2025-06-26T08:27:29.137Z</time>
      </trkpt>
      <trkpt lat="48.863482" lon="2.239024">
        <ele>29.560761</ele>
        <time>2025-06-26T08:27:31.985Z</time>
      </trkpt>
      <trkpt lat="48.863475" lon="2.239193">
        <ele>29.623046</ele>
        <time>2025-06-26T08:27:34.030Z</time>
      </trkpt>
      <trkpt lat="48.863481" lon="2.239404">
        <ele>29.700728</ele>
        <time>2025-06-26T08:27:36.515Z</time>
      </trkpt>
      <trkpt lat="48.863644" lon="2.239485">
        <ele>29.796611</ele>
        <time>2025-06-26T08:27:39.499Z</time>
      </trkpt>
      <trkpt lat="48.863859" lon="2.239599">
        <ele>29.923926</ele>
        <time>2025-06-26T08:27:43.373Z</time>
      </trkpt>
      <trkpt lat="48.863893" lon="2.239621">
        <ele>29.944586</ele>
        <time>2025-06-26T08:27:43.994Z</time>
      </trkpt>
      <trkpt lat="48.863993" lon="2.239699">
        <ele>30.007430</ele>
        <time>2025-06-26T08:27:45.853Z</time>
      </trkpt>
      <trkpt lat="48.864901" lon="2.240358">
        <ele>30.073985</ele>
        <time>2025-06-26T08:28:00.403Z</time>
      </trkpt>
      <trkpt lat="48.866230" lon="2.241481">
        <ele>30.200448</ele>
        <time>2025-06-26T08:28:22.335Z</time>
      </trkpt>
      <trkpt lat="48.866317" lon="2.241572">
        <ele>30.227061</ele>
        <time>2025-06-26T08:28:24.174Z</time>
      </trkpt>
      <trkpt lat="48.866456" lon="2.241719">
        <ele>30.269732</ele>
        <time>2025-06-26T08:28:27.148Z</time>
      </trkpt>
      <trkpt lat="48.866758" lon="2.242001">
        <ele>30.359047</ele>
        <time>2025-06-26T08:28:33.244Z</time>
      </trkpt>
      <trkpt lat="48.867419" lon="2.242602">
        <ele>30.553556</ele>
        <time>2025-06-26T08:28:45.803Z</time>
      </trkpt>
      <trkpt lat="48.868019" lon="2.243177">
        <ele>30.733942</ele>
        <time>2025-06-26T08:28:56.143Z</time>
      </trkpt>
      <trkpt lat="48.869051" lon="2.244123">
        <ele>31.057151</ele>
        <time>2025-06-26T08:29:15.871Z</time>
      </trkpt>
      <trkpt lat="48.869950" lon="2.244855">
        <ele>31.374424</ele>
        <time>2025-06-26T08:29:32.405Z</time>
      </trkpt>
      <trkpt lat="48.870498" lon="2.245273">
        <ele>31.532621</ele>
        <time>2025-06-26T08:29:42.382Z</time>
      </trkpt>
      <trkpt lat="48.871262" lon="2.245840">
        <ele>31.582321</ele>
        <time>2025-06-26T08:29:55.312Z</time>
      </trkpt>
      <trkpt lat="48.871272" lon="2.245847">
        <ele>31.582964</ele>
        <time>2025-06-26T08:29:55.460Z</time>
      </trkpt>
      <trkpt lat="48.872487" lon="2.246832">
        <ele>31.551464</ele>
        <time>2025-06-26T08:30:15.365Z</time>
      </trkpt>
      <trkpt lat="48.873298" lon="2.247574">
        <ele>31.420263</ele>
        <time>2025-06-26T08:30:28.116Z</time>
      </trkpt>
      <trkpt lat="48.874245" lon="2.248541">
        <ele>32.369129</ele>
        <time>2025-06-26T08:30:46.676Z</time>
      </trkpt>
      <trkpt lat="48.874268" lon="2.248561">
        <ele>32.399684</ele>
        <time>2025-06-26T08:30:47.199Z</time>
      </trkpt>
      <trkpt lat="48.874394" lon="2.248684">
        <ele>32.572360</ele>
        <time>2025-06-26T08:30:50.304Z</time>
      </trkpt>
      <trkpt lat="48.874438" lon="2.248911">
        <ele>32.751856</ele>
        <time>2025-06-26T08:30:53.626Z</time>
      </trkpt>
      <trkpt lat="48.874507" lon="2.249271">
        <ele>33.036266</ele>
        <time>2025-06-26T08:30:59.122Z</time>
      </trkpt>
      <trkpt lat="48.874506" lon="2.249577">
        <ele>33.268362</ele>
        <time>2025-06-26T08:31:03.791Z</time>
      </trkpt>
      <trkpt lat="48.874443" lon="2.249958">
        <ele>33.622208</ele>
        <time>2025-06-26T08:31:10.024Z</time>
      </trkpt>
      <trkpt lat="48.873882" lon="2.251044">
        <ele>35.195855</ele>
        <time>2025-06-26T08:31:32.240Z</time>
      </trkpt>
      <trkpt lat="48.873854" lon="2.251101">
        <ele>35.276928</ele>
        <time>2025-06-26T08:31:33.227Z</time>
      </trkpt>
      <trkpt lat="48.873709" lon="2.251578">
        <ele>35.875755</ele>
        <time>2025-06-26T08:31:40.260Z</time>
      </trkpt>
      <trkpt lat="48.873607" lon="2.252159">
        <ele>36.561031</ele>
        <time>2025-06-26T08:31:47.509Z</time>
      </trkpt>
      <trkpt lat="48.873578" lon="2.252757">
        <ele>36.702953</ele>
        <time>2025-06-26T08:31:54.253Z</time>
      </trkpt>
      <trkpt lat="48.873584" lon="2.253372">
        <ele>36.839897</ele>
        <time>2025-06-26T08:32:00.910Z</time>
      </trkpt>
      <trkpt lat="48.873627" lon="2.253797">
        <ele>36.935635</ele>
        <time>2025-06-26T08:32:05.169Z</time>
      </trkpt>
      <trkpt lat="48.873691" lon="2.254154">
        <ele>37.018020</ele>
        <time>2025-06-26T08:32:08.681Z</time>
      </trkpt>
      <trkpt lat="48.873768" lon="2.254483">
        <ele>37.095770</ele>
        <time>2025-06-26T08:32:12.005Z</time>
      </trkpt>
      <trkpt lat="48.873812" lon="2.254809">
        <ele>37.169866</ele>
        <time>2025-06-26T08:32:15.334Z</time>
      </trkpt>
      <trkpt lat="48.873832" lon="2.254923">
        <ele>37.204298</ele>
        <time>2025-06-26T08:32:16.567Z</time>
      </trkpt>
      <trkpt lat="48.873856" lon="2.255054">
        <ele>37.250240</ele>
        <time>2025-06-26T08:32:18.020Z</time>
      </trkpt>
      <trkpt lat="48.873973" lon="2.255204">
        <ele>37.328852</ele>
        <time>2025-06-26T08:32:20.557Z</time>
      </trkpt>
      <trkpt lat="48.873983" lon="2.255264">
        <ele>37.349764</ele>
        <time>2025-06-26T08:32:21.250Z</time>
      </trkpt>
      <trkpt lat="48.873994" lon="2.255296">
        <ele>37.361962</ele>
        <time>2025-06-26T08:32:21.649Z</time>
      </trkpt>
      <trkpt lat="48.874045" lon="2.255369">
        <ele>37.397941</ele>
        <time>2025-06-26T08:32:22.865Z</time>
      </trkpt>
      <trkpt lat="48.874114" lon="2.255396">
        <ele>37.434538</ele>
        <time>2025-06-26T08:32:24.095Z</time>
      </trkpt>
      <trkpt lat="48.874175" lon="2.255375">
        <ele>37.466664</ele>
        <time>2025-06-26T08:32:25.194Z</time>
      </trkpt>
      <trkpt lat="48.874225" lon="2.255315">
        <ele>37.499383</ele>
        <time>2025-06-26T08:32:26.306Z</time>
      </trkpt>
      <trkpt lat="48.874242" lon="2.255274">
        <ele>37.515757</ele>
        <time>2025-06-26T08:32:26.866Z</time>
      </trkpt>
      <trkpt lat="48.874295" lon="2.255288">
        <ele>37.543389</ele>
        <time>2025-06-26T08:32:27.816Z</time>
      </trkpt>
      <trkpt lat="48.874449" lon="2.255328">
        <ele>37.623638</ele>
        <time>2025-06-26T08:32:30.579Z</time>
      </trkpt>
      <trkpt lat="48.875600" lon="2.255929">
        <ele>38.138801</ele>
        <time>2025-06-26T08:32:51.795Z</time>
      </trkpt>
      <trkpt lat="48.875668" lon="2.255964">
        <ele>38.147620</ele>
        <time>2025-06-26T08:32:52.867Z</time>
      </trkpt>
      <trkpt lat="48.875779" lon="2.256018">
        <ele>38.161936</ele>
        <time>2025-06-26T08:32:54.624Z</time>
      </trkpt>
      <trkpt lat="48.876038" lon="2.256146">
        <ele>38.195390</ele>
        <time>2025-06-26T08:32:58.774Z</time>
      </trkpt>
      <trkpt lat="48.876151" lon="2.256260">
        <ele>38.212049</ele>
        <time>2025-06-26T08:33:00.810Z</time>
      </trkpt>
      <trkpt lat="48.876509" lon="2.256448">
        <ele>38.258575</ele>
        <time>2025-06-26T08:33:06.392Z</time>
      </trkpt>
      <trkpt lat="48.876733" lon="2.256587">
        <ele>38.288294</ele>
        <time>2025-06-26T08:33:09.816Z</time>
      </trkpt>
      <trkpt lat="48.876804" lon="2.256603">
        <ele>38.297111</ele>
        <time>2025-06-26T08:33:10.830Z</time>
      </trkpt>
      <trkpt lat="48.876913" lon="2.256652">
        <ele>38.311074</ele>
        <time>2025-06-26T08:33:12.416Z</time>
      </trkpt>
      <trkpt lat="48.876979" lon="2.256619">
        <ele>38.319608</ele>
        <time>2025-06-26T08:33:13.405Z</time>
      </trkpt>
      <trkpt lat="48.877318" lon="2.256790">
        <ele>38.398294</ele>
        <time>2025-06-26T08:33:18.521Z</time>
      </trkpt>
      <trkpt lat="48.878200" lon="2.257246">
        <ele>38.616759</ele>
        <time>2025-06-26T08:33:33.864Z</time>
      </trkpt>
      <trkpt lat="48.879928" lon="2.258141">
        <ele>38.993286</ele>
        <time>2025-06-26T08:34:02.694Z</time>
      </trkpt>
      <trkpt lat="48.880135" lon="2.258333">
        <ele>39.040303</ele>
        <time>2025-06-26T08:34:06.639Z</time>
      </trkpt>
      <trkpt lat="48.880249" lon="2.258492">
        <ele>39.070300</ele>
        <time>2025-06-26T08:34:09.077Z</time>
      </trkpt>
      <trkpt lat="48.880336" lon="2.258557">
        <ele>39.089096</ele>
        <time>2025-06-26T08:34:10.588Z</time>
      </trkpt>
      <trkpt lat="48.880419" lon="2.258555">
        <ele>39.086950</ele>
        <time>2025-06-26T08:34:11.816Z</time>
      </trkpt>
      <trkpt lat="48.880508" lon="2.258551">
        <ele>39.070826</ele>
        <time>2025-06-26T08:34:13.152Z</time>
      </trkpt>
      <trkpt lat="48.880580" lon="2.258550">
        <ele>39.057787</ele>
        <time>2025-06-26T08:34:14.168Z</time>
      </trkpt>
      <trkpt lat="48.881036" lon="2.258793">
        <ele>38.970286</ele>
        <time>2025-06-26T08:34:20.665Z</time>
      </trkpt>
      <trkpt lat="48.881450" lon="2.258952">
        <ele>38.892960</ele>
        <time>2025-06-26T08:34:26.328Z</time>
      </trkpt>
      <trkpt lat="48.881478" lon="2.258965">
        <ele>38.887659</ele>
        <time>2025-06-26T08:34:26.726Z</time>
      </trkpt>
      <trkpt lat="48.881527" lon="2.258989">
        <ele>38.878336</ele>
        <time>2025-06-26T08:34:27.430Z</time>
      </trkpt>
      <trkpt lat="48.881914" lon="2.259172">
        <ele>38.804944</ele>
        <time>2025-06-26T08:34:32.750Z</time>
      </trkpt>
      <trkpt lat="48.882179" lon="2.259298">
        <ele>38.817279</ele>
        <time>2025-06-26T08:34:36.602Z</time>
      </trkpt>
      <trkpt lat="48.882898" lon="2.259639">
        <ele>39.236185</ele>
        <time>2025-06-26T08:34:51.780Z</time>
      </trkpt>
      <trkpt lat="48.883001" lon="2.259688">
        <ele>39.296212</ele>
        <time>2025-06-26T08:34:54.084Z</time>
      </trkpt>
      <trkpt lat="48.883262" lon="2.259812">
        <ele>39.448300</ele>
        <time>2025-06-26T08:34:59.501Z</time>
      </trkpt>
      <trkpt lat="48.883753" lon="2.260045">
        <ele>39.734382</ele>
        <time>2025-06-26T08:35:08.103Z</time>
      </trkpt>
      <trkpt lat="48.884433" lon="2.260367">
        <ele>39.040283</ele>
        <time>2025-06-26T08:35:16.547Z</time>
      </trkpt>
      <trkpt lat="48.884539" lon="2.260417">
        <ele>38.915104</ele>
        <time>2025-06-26T08:35:17.845Z</time>
      </trkpt>
      <trkpt lat="48.884582" lon="2.260511">
        <ele>38.830174</ele>
        <time>2025-06-26T08:35:19.094Z</time>
      </trkpt>
      <trkpt lat="48.884811" lon="2.260611">
        <ele>38.561443</ele>
        <time>2025-06-26T08:35:22.861Z</time>
      </trkpt>
      <trkpt lat="48.884907" lon="2.260653">
        <ele>38.448771</ele>
        <time>2025-06-26T08:35:23.957Z</time>
      </trkpt>
      <trkpt lat="48.884959" lon="2.260633">
        <ele>38.388273</ele>
        <time>2025-06-26T08:35:24.546Z</time>
      </trkpt>
      <trkpt lat="48.885044" lon="2.260670">
        <ele>38.288550</ele>
        <time>2025-06-26T08:35:25.506Z</time>
      </trkpt>
      <trkpt lat="48.885436" lon="2.260881">
        <ele>37.819527</ele>
        <time>2025-06-26T08:35:30.158Z</time>
      </trkpt>
      <trkpt lat="48.885580" lon="2.260958">
        <ele>37.763755</ele>
        <time>2025-06-26T08:35:31.983Z</time>
      </trkpt>
      <trkpt lat="48.885937" lon="2.261143">
        <ele>37.863054</ele>
        <time>2025-06-26T08:35:37.578Z</time>
      </trkpt>
      <trkpt lat="48.886149" lon="2.261370">
        <ele>37.931316</ele>
        <time>2025-06-26T08:35:43.362Z</time>
      </trkpt>
      <trkpt lat="48.886407" lon="2.261722">
        <ele>38.022572</ele>
        <time>2025-06-26T08:35:58.199Z</time>
      </trkpt>
      <trkpt lat="48.886467" lon="2.261813">
        <ele>38.044882</ele>
        <time>2025-06-26T08:35:59.617Z</time>
      </trkpt>
      <trkpt lat="48.886912" lon="2.262601">
        <ele>38.186264</ele>
        <time>2025-06-26T08:36:10.235Z</time>
      </trkpt>
      <trkpt lat="48.887013" lon="2.262771">
        <ele>38.064218</ele>
        <time>2025-06-26T08:36:12.774Z</time>
      </trkpt>
      <trkpt lat="48.887585" lon="2.263702">
        <ele>37.385493</ele>
        <time>2025-06-26T08:36:23.694Z</time>
      </trkpt>
      <trkpt lat="48.887632" lon="2.263779">
        <ele>37.329528</ele>
        <time>2025-06-26T08:36:24.490Z</time>
      </trkpt>
      <trkpt lat="48.887688" lon="2.263863">
        <ele>37.265808</ele>
        <time>2025-06-26T08:36:25.373Z</time>
      </trkpt>
      <trkpt lat="48.888104" lon="2.264496">
        <ele>36.789084</ele>
        <time>2025-06-26T08:36:32.149Z</time>
      </trkpt>
      <trkpt lat="48.888200" lon="2.264644">
        <ele>36.666151</ele>
        <time>2025-06-26T08:36:33.735Z</time>
      </trkpt>
      <trkpt lat="48.888293" lon="2.264858">
        <ele>36.508643</ele>
        <time>2025-06-26T08:36:35.671Z</time>
      </trkpt>
      <trkpt lat="48.888750" lon="2.265912">
        <ele>35.733420</ele>
        <time>2025-06-26T08:36:45.516Z</time>
      </trkpt>
      <trkpt lat="48.888844" lon="2.266132">
        <ele>35.572320</ele>
        <time>2025-06-26T08:36:47.974Z</time>
      </trkpt>
      <trkpt lat="48.888865" lon="2.266180">
        <ele>35.536919</ele>
        <time>2025-06-26T08:36:48.491Z</time>
      </trkpt>
      <trkpt lat="48.889006" lon="2.266506">
        <ele>35.297325</ele>
        <time>2025-06-26T08:36:52.077Z</time>
      </trkpt>
      <trkpt lat="48.889041" lon="2.266587">
        <ele>35.237811</ele>
        <time>2025-06-26T08:36:52.948Z</time>
      </trkpt>
      <trkpt lat="48.889074" lon="2.266663">
        <ele>35.181889</ele>
        <time>2025-06-26T08:36:53.771Z</time>
      </trkpt>
      <trkpt lat="48.889266" lon="2.267115">
        <ele>34.959492</ele>
        <time>2025-06-26T08:36:58.554Z</time>
      </trkpt>
      <trkpt lat="48.889414" lon="2.267462">
        <ele>34.826346</ele>
        <time>2025-06-26T08:37:02.013Z</time>
      </trkpt>
      <trkpt lat="48.889437" lon="2.267515">
        <ele>34.805903</ele>
        <time>2025-06-26T08:37:02.541Z</time>
      </trkpt>
      <trkpt lat="48.889815" lon="2.268412">
        <ele>34.462934</ele>
        <time>2025-06-26T08:37:11.995Z</time>
      </trkpt>
      <trkpt lat="48.889849" lon="2.268493">
        <ele>34.431999</ele>
        <time>2025-06-26T08:37:12.844Z</time>
      </trkpt>
      <trkpt lat="48.889879" lon="2.268566">
        <ele>34.404287</ele>
        <time>2025-06-26T08:37:13.595Z</time>
      </trkpt>
      <trkpt lat="48.889971" lon="2.268774">
        <ele>34.323590</ele>
        <time>2025-06-26T08:37:15.757Z</time>
      </trkpt>
      <trkpt lat="48.890075" lon="2.269008">
        <ele>34.232669</ele>
        <time>2025-06-26T08:37:18.114Z</time>
      </trkpt>
      <trkpt lat="48.890090" lon="2.269042">
        <ele>34.219489</ele>
        <time>2025-06-26T08:37:18.445Z</time>
      </trkpt>
      <trkpt lat="48.890244" lon="2.269389">
        <ele>34.090581</ele>
        <time>2025-06-26T08:37:21.987Z</time>
      </trkpt>
      <trkpt lat="48.890326" lon="2.269575">
        <ele>34.022223</ele>
        <time>2025-06-26T08:37:23.959Z</time>
      </trkpt>
      <trkpt lat="48.890400" lon="2.269743">
        <ele>33.960497</ele>
        <time>2025-06-26T08:37:25.772Z</time>
      </trkpt>
      <trkpt lat="48.890426" lon="2.269801">
        <ele>33.939070</ele>
        <time>2025-06-26T08:37:26.391Z</time>
      </trkpt>
      <trkpt lat="48.890454" lon="2.269865">
        <ele>33.915604</ele>
        <time>2025-06-26T08:37:27.074Z</time>
      </trkpt>
      <trkpt lat="48.890623" lon="2.270259">
        <ele>33.772007</ele>
        <time>2025-06-26T08:37:31.608Z</time>
      </trkpt>
      <trkpt lat="48.890685" lon="2.270399">
        <ele>33.720483</ele>
        <time>2025-06-26T08:37:33.225Z</time>
      </trkpt>
      <trkpt lat="48.890742" lon="2.270548">
        <ele>33.667863</ele>
        <time>2025-06-26T08:37:34.856Z</time>
      </trkpt>
      <trkpt lat="48.891096" lon="2.270274">
        <ele>33.483459</ele>
        <time>2025-06-26T08:37:40.202Z</time>
      </trkpt>
      <trkpt lat="48.891468" lon="2.269907">
        <ele>33.259782</ele>
        <time>2025-06-26T08:37:45.557Z</time>
      </trkpt>
      <trkpt lat="48.892166" lon="2.269183">
        <ele>32.785595</ele>
        <time>2025-06-26T08:37:56.323Z</time>
      </trkpt>
      <trkpt lat="48.892299" lon="2.269028">
        <ele>32.691553</ele>
        <time>2025-06-26T08:37:58.650Z</time>
      </trkpt>
      <trkpt lat="48.892336" lon="2.268929">
        <ele>32.649531</ele>
        <time>2025-06-26T08:37:59.648Z</time>
      </trkpt>
      <trkpt lat="48.893094" lon="2.268151">
        <ele>32.430406</ele>
        <time>2025-06-26T08:38:12.275Z</time>
      </trkpt>
      <trkpt lat="48.893300" lon="2.267936">
        <ele>32.480136</ele>
        <time>2025-06-26T08:38:15.811Z</time>
      </trkpt>
      <trkpt lat="48.893453" lon="2.267856">
        <ele>32.512341</ele>
        <time>2025-06-26T08:38:18.310Z</time>
      </trkpt>
      <trkpt lat="48.893581" lon="2.267718">
        <ele>32.543571</ele>
        <time>2025-06-26T08:38:20.709Z</time>
      </trkpt>
      <trkpt lat="48.893634" lon="2.267662">
        <ele>32.556417</ele>
        <time>2025-06-26T08:38:21.674Z</time>
      </trkpt>
      <trkpt lat="48.893698" lon="2.267590">
        <ele>32.572262</ele>
        <time>2025-06-26T08:38:22.915Z</time>
      </trkpt>
      <trkpt lat="48.893816" lon="2.267498">
        <ele>32.598657</ele>
        <time>2025-06-26T08:38:25.097Z</time>
      </trkpt>
      <trkpt lat="48.894164" lon="2.267132">
        <ele>32.682874</ele>
        <time>2025-06-26T08:38:32.644Z</time>
      </trkpt>
      <trkpt lat="48.894232" lon="2.267044">
        <ele>32.700646</ele>
        <time>2025-06-26T08:38:34.364Z</time>
      </trkpt>
      <trkpt lat="48.894571" lon="2.266675">
        <ele>32.672579</ele>
        <time>2025-06-26T08:38:41.678Z</time>
      </trkpt>
      <trkpt lat="48.894816" lon="2.266426">
        <ele>32.641014</ele>
        <time>2025-06-26T08:38:46.677Z</time>
      </trkpt>
      <trkpt lat="48.894887" lon="2.266352">
        <ele>32.631793</ele>
        <time>2025-06-26T08:38:48.251Z</time>
      </trkpt>
      <trkpt lat="48.895137" lon="2.266110">
        <ele>32.600049</ele>
        <time>2025-06-26T08:38:53.434Z</time>
      </trkpt>
      <trkpt lat="48.895172" lon="2.266007">
        <ele>32.591883</ele>
        <time>2025-06-26T08:38:54.627Z</time>
      </trkpt>
      <trkpt lat="48.895204" lon="2.265859">
        <ele>32.580910</ele>
        <time>2025-06-26T08:38:56.303Z</time>
      </trkpt>
      <trkpt lat="48.895186" lon="2.265741">
        <ele>32.572379</ele>
        <time>2025-06-26T08:38:57.414Z</time>
      </trkpt>
      <trkpt lat="48.895141" lon="2.265568">
        <ele>32.559276</ele>
        <time>2025-06-26T08:38:59.055Z</time>
      </trkpt>
      <trkpt lat="48.895049" lon="2.265375">
        <ele>32.542486</ele>
        <time>2025-06-26T08:39:01.835Z</time>
      </trkpt>
      <trkpt lat="48.894756" lon="2.264762">
        <ele>31.927950</ele>
        <time>2025-06-26T08:39:09.562Z</time>
      </trkpt>
      <trkpt lat="48.894368" lon="2.264125">
        <ele>30.708975</ele>
        <time>2025-06-26T08:39:18.179Z</time>
      </trkpt>
      <trkpt lat="48.893960" lon="2.263455">
        <ele>29.426991</ele>
        <time>2025-06-26T08:39:27.477Z</time>
      </trkpt>
      <trkpt lat="48.893750" lon="2.263171">
        <ele>28.827001</ele>
        <time>2025-06-26T08:39:31.806Z</time>
      </trkpt>
      <trkpt lat="48.893279" lon="2.262539">
        <ele>28.678355</ele>
        <time>2025-06-26T08:39:38.763Z</time>
      </trkpt>
      <trkpt lat="48.892778" lon="2.262134">
        <ele>28.678355</ele>
        <time>2025-06-26T08:39:45.659Z</time>
      </trkpt>
      <trkpt lat="48.892601" lon="2.262034">
        <ele>28.678355</ele>
        <time>2025-06-26T08:39:48.863Z</time>
      </trkpt>
      <trkpt lat="48.892401" lon="2.262253">
        <ele>28.678355</ele>
        <time>2025-06-26T08:39:53.216Z</time>
      </trkpt>
    </trkseg>
  </trk>
</gpx>